﻿<?xml version="1.0" encoding="UTF-8"?>
<gpx xmlns="http://www.topografix.com/GPX/1/0" xmlns:xsi="http://www.w3.org/2001/XMLSchema-instance" xsi:schemaLocation="http://www.topografix.com/GPX/1/0 http://www.topografix.com/GPX/1/0/gpx.xsd" creator="Bike Route Toaster http://www.bikeroutetoaster.com" version="1.0">
  <trk>
    <name>Toulouse - Nizz</name>
    <trkseg>
      <trkpt lat="43.5963059159655" lon="1.4501953125">
        <ele>154</ele>
        <time>2012-01-06T00:00:00Z</time>
        <course>231.056411887233</course>
        <speed>8.31227088192263</speed>
      </trkpt>
      <trkpt lat="43.59625" lon="1.45027">
        <ele>153</ele>
        <time>2012-01-06T00:00:01Z</time>
        <course>313.599444656759</course>
        <speed>8.32567249247327</speed>
      </trkpt>
      <trkpt lat="43.59655" lon="1.45061">
        <ele>152</ele>
        <time>2012-01-06T00:00:06Z</time>
        <course>246.48519103373</course>
        <speed>8.31581733451095</speed>
      </trkpt>
      <trkpt lat="43.59628" lon="1.45128">
        <ele>151</ele>
        <time>2012-01-06T00:00:13Z</time>
        <course>156.728997055609</course>
        <speed>8.31021941330034</speed>
      </trkpt>
      <trkpt lat="43.596" lon="1.45115">
        <ele>151</ele>
        <time>2012-01-06T00:00:17Z</time>
        <course>182.210090557006</course>
        <speed>8.31181910757969</speed>
      </trkpt>
      <trkpt lat="43.59576" lon="1.45116">
        <ele>150</ele>
        <time>2012-01-06T00:00:20Z</time>
        <course>197.156103907321</course>
        <speed>8.30641331929203</speed>
      </trkpt>
      <trkpt lat="43.59555" lon="1.45123">
        <ele>150</ele>
        <time>2012-01-06T00:00:23Z</time>
        <course>111.43388290223</course>
        <speed>7.97578746273197</speed>
      </trkpt>
      <trkpt lat="43.59368" lon="1.44607">
        <ele>151</ele>
        <time>2012-01-06T00:01:21Z</time>
        <course>125.44151255919</course>
        <speed>8.32034167285246</speed>
      </trkpt>
      <trkpt lat="43.59341" lon="1.44566">
        <ele>149</ele>
        <time>2012-01-06T00:01:27Z</time>
        <course>112.47857317915</course>
        <speed>8.3204921057169</speed>
      </trkpt>
      <trkpt lat="43.59297" lon="1.44451">
        <ele>147</ele>
        <time>2012-01-06T00:01:39Z</time>
        <course>90.0014135894578</course>
        <speed>7.31630717684623</speed>
      </trkpt>
      <trkpt lat="43.59297" lon="1.44438">
        <ele>147</ele>
        <time>2012-01-06T00:01:41Z</time>
        <course>148.3361926192</course>
        <speed>7.33038878530556</speed>
      </trkpt>
      <trkpt lat="43.59285" lon="1.4443">
        <ele>147</ele>
        <time>2012-01-06T00:01:43Z</time>
        <course>218.411929294253</course>
        <speed>7.32428623057504</speed>
      </trkpt>
      <trkpt lat="43.59278" lon="1.44436">
        <ele>147</ele>
        <time>2012-01-06T00:01:44Z</time>
        <course>263.829336818763</course>
        <speed>7.31920244263538</speed>
      </trkpt>
      <trkpt lat="43.59277" lon="1.44446">
        <ele>147</ele>
        <time>2012-01-06T00:01:45Z</time>
        <course>172.968790977103</course>
        <speed>7.31246170785153</speed>
      </trkpt>
      <trkpt lat="43.59262" lon="1.44444">
        <ele>147</ele>
        <time>2012-01-06T00:01:47Z</time>
        <course>198.585873693513</course>
        <speed>7.33057992557906</speed>
      </trkpt>
      <trkpt lat="43.59185" lon="1.44472">
        <ele>148</ele>
        <time>2012-01-06T00:02:00Z</time>
        <course>205.600823636583</course>
        <speed>8.31705899384364</speed>
      </trkpt>
      <trkpt lat="43.59023" lon="1.44556">
        <ele>148</ele>
        <time>2012-01-06T00:02:23Z</time>
        <course>202.427453486492</course>
        <speed>8.31714675855656</speed>
      </trkpt>
      <trkpt lat="43.58929" lon="1.44598">
        <ele>148</ele>
        <time>2012-01-06T00:02:36Z</time>
        <course>200.647695693415</course>
        <speed>8.3189943510134</speed>
      </trkpt>
      <trkpt lat="43.58557" lon="1.4475">
        <ele>148</ele>
        <time>2012-01-06T00:03:28Z</time>
        <course>196.277527915241</course>
        <speed>6.4775998697795</speed>
      </trkpt>
      <trkpt lat="43.58497" lon="1.44769">
        <ele>148</ele>
        <time>2012-01-06T00:03:38Z</time>
        <course>145.333834224959</course>
        <speed>6.48508100110103</speed>
      </trkpt>
      <trkpt lat="43.58493" lon="1.44766">
        <ele>149</ele>
        <time>2012-01-06T00:03:39Z</time>
        <course>194.035841449739</course>
        <speed>6.47419815584278</speed>
      </trkpt>
      <trkpt lat="43.58434" lon="1.44782">
        <ele>150</ele>
        <time>2012-01-06T00:03:49Z</time>
        <course>201.509849821191</course>
        <speed>8.31869919136374</speed>
      </trkpt>
      <trkpt lat="43.58163" lon="1.44898">
        <ele>149</ele>
        <time>2012-01-06T00:04:27Z</time>
        <course>198.928349466614</course>
        <speed>8.31791199511156</speed>
      </trkpt>
      <trkpt lat="43.57935" lon="1.44983">
        <ele>147</ele>
        <time>2012-01-06T00:04:59Z</time>
        <course>199.878613416178</course>
        <speed>7.22614935267591</speed>
      </trkpt>
      <trkpt lat="43.57478" lon="1.45163">
        <ele>151</ele>
        <time>2012-01-06T00:06:12Z</time>
        <course>204.188965283035</course>
        <speed>8.32004767245331</speed>
      </trkpt>
      <trkpt lat="43.57431" lon="1.45186">
        <ele>150</ele>
        <time>2012-01-06T00:06:19Z</time>
        <course>195.065050013588</course>
        <speed>8.32042559252573</speed>
      </trkpt>
      <trkpt lat="43.57356" lon="1.45208">
        <ele>149</ele>
        <time>2012-01-06T00:06:29Z</time>
        <course>205.71388120107</course>
        <speed>8.32102480126661</speed>
      </trkpt>
      <trkpt lat="43.57276" lon="1.4525">
        <ele>148</ele>
        <time>2012-01-06T00:06:40Z</time>
        <course>213.010810314545</course>
        <speed>8.32654652579676</speed>
      </trkpt>
      <trkpt lat="43.57252" lon="1.45267">
        <ele>148</ele>
        <time>2012-01-06T00:06:44Z</time>
        <course>226.483548039985</course>
        <speed>6.69507524774171</speed>
      </trkpt>
      <trkpt lat="43.57138" lon="1.45398">
        <ele>150</ele>
        <time>2012-01-06T00:07:08Z</time>
        <course>223.740829915066</course>
        <speed>6.9220015015794</speed>
      </trkpt>
      <trkpt lat="43.56854" lon="1.45695">
        <ele>154</ele>
        <time>2012-01-06T00:08:06Z</time>
        <course>220.217366616548</course>
        <speed>7.47375266509663</speed>
      </trkpt>
      <trkpt lat="43.56722" lon="1.45817">
        <ele>155</ele>
        <time>2012-01-06T00:08:29Z</time>
        <course>216.220420221432</course>
        <speed>6.10139808092397</speed>
      </trkpt>
      <trkpt lat="43.56551" lon="1.45954">
        <ele>159</ele>
        <time>2012-01-06T00:09:05Z</time>
        <course>219.77439381885</course>
        <speed>8.31620816451925</speed>
      </trkpt>
      <trkpt lat="43.5645" lon="1.46046">
        <ele>158</ele>
        <time>2012-01-06T00:09:21Z</time>
        <course>214.872386837544</course>
        <speed>7.15623426084946</speed>
      </trkpt>
      <trkpt lat="43.56353" lon="1.4612">
        <ele>159</ele>
        <time>2012-01-06T00:09:39Z</time>
        <course>207.223221780308</course>
        <speed>7.55790380278508</speed>
      </trkpt>
      <trkpt lat="43.55857" lon="1.464">
        <ele>162</ele>
        <time>2012-01-06T00:10:57Z</time>
        <course>214.386773167654</course>
        <speed>6.49754108612254</speed>
      </trkpt>
      <trkpt lat="43.55688" lon="1.46527">
        <ele>165</ele>
        <time>2012-01-06T00:11:30Z</time>
        <course>217.696347513493</course>
        <speed>8.3170177939125</speed>
      </trkpt>
      <trkpt lat="43.55602" lon="1.466">
        <ele>163</ele>
        <time>2012-01-06T00:11:44Z</time>
        <course>230.856719597917</course>
        <speed>8.32055446976649</speed>
      </trkpt>
      <trkpt lat="43.55542" lon="1.46681">
        <ele>161</ele>
        <time>2012-01-06T00:11:55Z</time>
        <course>239.52414915079</course>
        <speed>8.31530868368377</speed>
      </trkpt>
      <trkpt lat="43.55489" lon="1.4678">
        <ele>160</ele>
        <time>2012-01-06T00:12:07Z</time>
        <course>241.204297150443</course>
        <speed>8.32149430656089</speed>
      </trkpt>
      <trkpt lat="43.55454" lon="1.4685">
        <ele>160</ele>
        <time>2012-01-06T00:12:15Z</time>
        <course>246.509239177558</course>
        <speed>8.32188089317676</speed>
      </trkpt>
      <trkpt lat="43.55437" lon="1.46893">
        <ele>160</ele>
        <time>2012-01-06T00:12:20Z</time>
        <course>246.851680705342</course>
        <speed>8.30843738711227</speed>
      </trkpt>
      <trkpt lat="43.55423" lon="1.46929">
        <ele>159</ele>
        <time>2012-01-06T00:12:24Z</time>
        <course>253.471339253548</course>
        <speed>8.31603629375675</speed>
      </trkpt>
      <trkpt lat="43.55406" lon="1.46992">
        <ele>159</ele>
        <time>2012-01-06T00:12:30Z</time>
        <course>265.756015374413</course>
        <speed>8.31979487970546</speed>
      </trkpt>
      <trkpt lat="43.55399" lon="1.47096">
        <ele>159</ele>
        <time>2012-01-06T00:12:40Z</time>
        <course>270.289439918286</course>
        <speed>8.31819582159988</speed>
      </trkpt>
      <trkpt lat="43.554" lon="1.47297">
        <ele>158</ele>
        <time>2012-01-06T00:13:00Z</time>
        <course>276.035187515489</course>
        <speed>8.31779509490553</speed>
      </trkpt>
      <trkpt lat="43.5543" lon="1.47607">
        <ele>155</ele>
        <time>2012-01-06T00:13:30Z</time>
        <course>271.363317250086</course>
        <speed>8.30963071310225</speed>
      </trkpt>
      <trkpt lat="43.55431" lon="1.47653">
        <ele>154</ele>
        <time>2012-01-06T00:13:35Z</time>
        <course>218.19151701982</course>
        <speed>8.32299552359307</speed>
      </trkpt>
      <trkpt lat="43.55394" lon="1.47685">
        <ele>153</ele>
        <time>2012-01-06T00:13:41Z</time>
        <course>224.96289922152</course>
        <speed>8.31442883313091</speed>
      </trkpt>
      <trkpt lat="43.55333" lon="1.47752">
        <ele>151</ele>
        <time>2012-01-06T00:13:51Z</time>
        <course>216.032571560227</course>
        <speed>8.3190396186906</speed>
      </trkpt>
      <trkpt lat="43.55308" lon="1.47772">
        <ele>151</ele>
        <time>2012-01-06T00:13:55Z</time>
        <course>207.934951033211</course>
        <speed>8.32015545243723</speed>
      </trkpt>
      <trkpt lat="43.55248" lon="1.47807">
        <ele>151</ele>
        <time>2012-01-06T00:14:03Z</time>
        <course>197.972769423034</course>
        <speed>7.53846407458808</speed>
      </trkpt>
      <trkpt lat="43.5508" lon="1.47867">
        <ele>152</ele>
        <time>2012-01-06T00:14:29Z</time>
        <course>195.330195079727</course>
        <speed>7.44024882277862</speed>
      </trkpt>
      <trkpt lat="43.54931" lon="1.47912">
        <ele>153</ele>
        <time>2012-01-06T00:14:52Z</time>
        <course>200.907666393315</course>
        <speed>5.39180393273148</speed>
      </trkpt>
      <trkpt lat="43.54836" lon="1.47952">
        <ele>156</ele>
        <time>2012-01-06T00:15:12Z</time>
        <course>197.59480717688</course>
        <speed>7.74614625229661</speed>
      </trkpt>
      <trkpt lat="43.54365" lon="1.48117">
        <ele>158</ele>
        <time>2012-01-06T00:16:22Z</time>
        <course>192.504966570215</course>
        <speed>5.29622949926418</speed>
      </trkpt>
      <trkpt lat="43.5421" lon="1.48155">
        <ele>163</ele>
        <time>2012-01-06T00:16:55Z</time>
        <course>185.600401767383</course>
        <speed>8.31960989039945</speed>
      </trkpt>
      <trkpt lat="43.54127" lon="1.48164">
        <ele>163</ele>
        <time>2012-01-06T00:17:06Z</time>
        <course>182.508597794289</course>
        <speed>8.32023606342905</speed>
      </trkpt>
      <trkpt lat="43.53962" lon="1.48172">
        <ele>163</ele>
        <time>2012-01-06T00:17:28Z</time>
        <course>175.745905169322</course>
        <speed>4.96954602400162</speed>
      </trkpt>
      <trkpt lat="43.53877" lon="1.48165">
        <ele>166</ele>
        <time>2012-01-06T00:17:47Z</time>
        <course>164.944426689943</course>
        <speed>4.97024077199383</speed>
      </trkpt>
      <trkpt lat="43.5383" lon="1.48151">
        <ele>168</ele>
        <time>2012-01-06T00:17:58Z</time>
        <course>118.974427963863</course>
        <speed>6.05289180685599</speed>
      </trkpt>
      <trkpt lat="43.53824" lon="1.48139">
        <ele>168</ele>
        <time>2012-01-06T00:18:00Z</time>
        <course>150.561347907203</course>
        <speed>6.06176768146075</speed>
      </trkpt>
      <trkpt lat="43.53816" lon="1.48134">
        <ele>168</ele>
        <time>2012-01-06T00:18:02Z</time>
        <course>183.973144985865</course>
        <speed>6.07900915917235</speed>
      </trkpt>
      <trkpt lat="43.53803" lon="1.48135">
        <ele>168</ele>
        <time>2012-01-06T00:18:04Z</time>
        <course>229.256903899766</course>
        <speed>6.07604832964976</speed>
      </trkpt>
      <trkpt lat="43.53796" lon="1.48144">
        <ele>168</ele>
        <time>2012-01-06T00:18:06Z</time>
        <course>261.00648208389</course>
        <speed>6.07093532299798</speed>
      </trkpt>
      <trkpt lat="43.53793" lon="1.48165">
        <ele>169</ele>
        <time>2012-01-06T00:18:09Z</time>
        <course>209.577198680184</course>
        <speed>6.06724591424261</speed>
      </trkpt>
      <trkpt lat="43.53669" lon="1.48243">
        <ele>172</ele>
        <time>2012-01-06T00:18:34Z</time>
        <course>221.877741359663</course>
        <speed>8.31758513329258</speed>
      </trkpt>
      <trkpt lat="43.53474" lon="1.48437">
        <ele>169</ele>
        <time>2012-01-06T00:19:06Z</time>
        <course>209.976472118421</course>
        <speed>6.72327129816018</speed>
      </trkpt>
      <trkpt lat="43.53424" lon="1.48469">
        <ele>169</ele>
        <time>2012-01-06T00:19:15Z</time>
        <course>213.941862905197</course>
        <speed>6.72383262234484</speed>
      </trkpt>
      <trkpt lat="43.53206" lon="1.48632">
        <ele>173</ele>
        <time>2012-01-06T00:19:56Z</time>
        <course>193.216161612462</course>
        <speed>8.31011943090636</speed>
      </trkpt>
      <trkpt lat="43.53183" lon="1.48638">
        <ele>172</ele>
        <time>2012-01-06T00:19:59Z</time>
        <course>238.112180527826</course>
        <speed>8.31662807359131</speed>
      </trkpt>
      <trkpt lat="43.53169" lon="1.48663">
        <ele>172</ele>
        <time>2012-01-06T00:20:02Z</time>
        <course>220.77901082278</course>
        <speed>8.32663878008624</speed>
      </trkpt>
      <trkpt lat="43.53145" lon="1.48686">
        <ele>172</ele>
        <time>2012-01-06T00:20:06Z</time>
        <course>217.129664145906</course>
        <speed>8.31823822223463</speed>
      </trkpt>
      <trkpt lat="43.52814" lon="1.48965">
        <ele>170</ele>
        <time>2012-01-06T00:20:58Z</time>
        <course>223.534959602352</course>
        <speed>8.32194257318146</speed>
      </trkpt>
      <trkpt lat="43.52762" lon="1.4902">
        <ele>169</ele>
        <time>2012-01-06T00:21:06Z</time>
        <course>239.059321752429</course>
        <speed>8.30963905220739</speed>
      </trkpt>
      <trkpt lat="43.52748" lon="1.49046">
        <ele>169</ele>
        <time>2012-01-06T00:21:10Z</time>
        <course>231.416289529102</course>
        <speed>8.32087625969363</speed>
      </trkpt>
      <trkpt lat="43.527" lon="1.49113">
        <ele>169</ele>
        <time>2012-01-06T00:21:19Z</time>
        <course>228.020599960395</course>
        <speed>8.31782403717965</speed>
      </trkpt>
      <trkpt lat="43.52637" lon="1.49191">
        <ele>167</ele>
        <time>2012-01-06T00:21:30Z</time>
        <course>224.139141603251</course>
        <speed>8.31844858339566</speed>
      </trkpt>
      <trkpt lat="43.526" lon="1.49231">
        <ele>166</ele>
        <time>2012-01-06T00:21:36Z</time>
        <course>217.272568309254</course>
        <speed>8.31949056964609</speed>
      </trkpt>
      <trkpt lat="43.52468" lon="1.49343">
        <ele>166</ele>
        <time>2012-01-06T00:21:57Z</time>
        <course>208.005593913565</course>
        <speed>6.81889273005621</speed>
      </trkpt>
      <trkpt lat="43.52318" lon="1.49432">
        <ele>168</ele>
        <time>2012-01-06T00:22:24Z</time>
        <course>213.904593786146</course>
        <speed>7.3256054877334</speed>
      </trkpt>
      <trkpt lat="43.52258" lon="1.49477">
        <ele>168</ele>
        <time>2012-01-06T00:22:34Z</time>
        <course>207.589901946448</course>
        <speed>7.32699002430902</speed>
      </trkpt>
      <trkpt lat="43.51832" lon="1.49726">
        <ele>172</ele>
        <time>2012-01-06T00:23:44Z</time>
        <course>210.106114855367</course>
        <speed>8.32154126034196</speed>
      </trkpt>
      <trkpt lat="43.51758" lon="1.49774">
        <ele>170</ele>
        <time>2012-01-06T00:23:55Z</time>
        <course>204.070453632025</course>
        <speed>8.31853861667253</speed>
      </trkpt>
      <trkpt lat="43.51648" lon="1.49829">
        <ele>168</ele>
        <time>2012-01-06T00:24:11Z</time>
        <course>207.084554943193</course>
        <speed>8.31900330894852</speed>
      </trkpt>
      <trkpt lat="43.51538" lon="1.49892">
        <ele>167</ele>
        <time>2012-01-06T00:24:27Z</time>
        <course>211.109608738921</course>
        <speed>8.31797490487872</speed>
      </trkpt>
      <trkpt lat="43.51337" lon="1.50028">
        <ele>166</ele>
        <time>2012-01-06T00:24:56Z</time>
        <course>220.667576404797</course>
        <speed>8.31878903768432</speed>
      </trkpt>
      <trkpt lat="43.51051" lon="1.50304">
        <ele>163</ele>
        <time>2012-01-06T00:25:43Z</time>
        <course>223.811269892077</course>
        <speed>6.80619278217899</speed>
      </trkpt>
      <trkpt lat="43.5086" lon="1.5051">
        <ele>166</ele>
        <time>2012-01-06T00:26:23Z</time>
        <course>194.264379544647</course>
        <speed>7.94364830452832</speed>
      </trkpt>
      <trkpt lat="43.50846" lon="1.50514">
        <ele>166</ele>
        <time>2012-01-06T00:26:25Z</time>
        <course>224.37375572137</course>
        <speed>7.92962963735955</speed>
      </trkpt>
      <trkpt lat="43.50571" lon="1.50817">
        <ele>167</ele>
        <time>2012-01-06T00:27:14Z</time>
        <course>223.364326430546</course>
        <speed>8.31815670422133</speed>
      </trkpt>
      <trkpt lat="43.50265" lon="1.51143">
        <ele>164</ele>
        <time>2012-01-06T00:28:06Z</time>
        <course>224.608949245805</course>
        <speed>7.60259695421274</speed>
      </trkpt>
      <trkpt lat="43.49968" lon="1.51474">
        <ele>166</ele>
        <time>2012-01-06T00:29:01Z</time>
        <course>226.843963515785</course>
        <speed>8.31884379689246</speed>
      </trkpt>
      <trkpt lat="43.4964" lon="1.5187">
        <ele>165</ele>
        <time>2012-01-06T00:30:00Z</time>
        <course>224.387240165188</course>
        <speed>8.31855233676505</speed>
      </trkpt>
      <trkpt lat="43.49538" lon="1.51983">
        <ele>164</ele>
        <time>2012-01-06T00:30:17Z</time>
        <course>229.93813968926</course>
        <speed>7.72861092216389</speed>
      </trkpt>
      <trkpt lat="43.49486" lon="1.52053">
        <ele>164</ele>
        <time>2012-01-06T00:30:28Z</time>
        <course>224.874824025627</course>
        <speed>7.72611696121468</speed>
      </trkpt>
      <trkpt lat="43.49361" lon="1.52194">
        <ele>165</ele>
        <time>2012-01-06T00:30:51Z</time>
        <course>251.574159542806</course>
        <speed>8.3075929035791</speed>
      </trkpt>
      <trkpt lat="43.49356" lon="1.52211">
        <ele>164</ele>
        <time>2012-01-06T00:30:53Z</time>
        <course>230.926879493602</course>
        <speed>8.31863769631191</speed>
      </trkpt>
      <trkpt lat="43.4888" lon="1.52878">
        <ele>163</ele>
        <time>2012-01-06T00:32:23Z</time>
        <course>227.811095955877</course>
        <speed>8.31959784968371</speed>
      </trkpt>
      <trkpt lat="43.48715" lon="1.53085">
        <ele>163</ele>
        <time>2012-01-06T00:32:53Z</time>
        <course>231.353501064171</course>
        <speed>8.31880299035514</speed>
      </trkpt>
      <trkpt lat="43.48585" lon="1.5327">
        <ele>161</ele>
        <time>2012-01-06T00:33:18Z</time>
        <course>233.036921285185</course>
        <speed>7.22397484327274</speed>
      </trkpt>
      <trkpt lat="43.48505" lon="1.53391">
        <ele>162</ele>
        <time>2012-01-06T00:33:36Z</time>
        <course>244.894140982807</course>
        <speed>8.33830006434991</speed>
      </trkpt>
      <trkpt lat="43.48498" lon="1.53408">
        <ele>162</ele>
        <time>2012-01-06T00:33:38Z</time>
        <course>230.545604653912</course>
        <speed>8.31840917752367</speed>
      </trkpt>
      <trkpt lat="43.47954" lon="1.54164">
        <ele>162</ele>
        <time>2012-01-06T00:35:21Z</time>
        <course>232.072063457486</course>
        <speed>8.32203768182408</speed>
      </trkpt>
      <trkpt lat="43.47911" lon="1.54227">
        <ele>161</ele>
        <time>2012-01-06T00:35:30Z</time>
        <course>235.517711295129</course>
        <speed>8.3187341106844</speed>
      </trkpt>
      <trkpt lat="43.47527" lon="1.54868">
        <ele>160</ele>
        <time>2012-01-06T00:36:50Z</time>
        <course>230.321981856204</course>
        <speed>7.34201464403372</speed>
      </trkpt>
      <trkpt lat="43.47498" lon="1.54908">
        <ele>160</ele>
        <time>2012-01-06T00:36:57Z</time>
        <course>225.069843387881</course>
        <speed>7.33771392814273</speed>
      </trkpt>
      <trkpt lat="43.47323" lon="1.55109">
        <ele>162</ele>
        <time>2012-01-06T00:37:31Z</time>
        <course>232.988354911784</course>
        <speed>8.31715926480155</speed>
      </trkpt>
      <trkpt lat="43.47204" lon="1.5529">
        <ele>159</ele>
        <time>2012-01-06T00:37:55Z</time>
        <course>237.204054974257</course>
        <speed>7.30650762619061</speed>
      </trkpt>
      <trkpt lat="43.46887" lon="1.55856">
        <ele>163</ele>
        <time>2012-01-06T00:39:14Z</time>
        <course>238.251418265407</course>
        <speed>8.31766517491604</speed>
      </trkpt>
      <trkpt lat="43.46642" lon="1.56312">
        <ele>162</ele>
        <time>2012-01-06T00:40:09Z</time>
        <course>236.711756293593</course>
        <speed>5.5488633314411</speed>
      </trkpt>
      <trkpt lat="43.46553" lon="1.56468">
        <ele>166</ele>
        <time>2012-01-06T00:40:38Z</time>
        <course>240.424489298551</course>
        <speed>8.31530311381026</speed>
      </trkpt>
      <trkpt lat="43.46517" lon="1.56541">
        <ele>165</ele>
        <time>2012-01-06T00:40:46Z</time>
        <course>237.636959702143</course>
        <speed>8.31918645507778</speed>
      </trkpt>
      <trkpt lat="43.46396" lon="1.56761">
        <ele>162</ele>
        <time>2012-01-06T00:41:13Z</time>
        <course>232.853038557077</course>
        <speed>5.56720886739165</speed>
      </trkpt>
      <trkpt lat="43.46371" lon="1.56799">
        <ele>163</ele>
        <time>2012-01-06T00:41:20Z</time>
        <course>240.664794851077</course>
        <speed>5.56448472746768</speed>
      </trkpt>
      <trkpt lat="43.46331" lon="1.56881">
        <ele>165</ele>
        <time>2012-01-06T00:41:35Z</time>
        <course>237.236828190441</course>
        <speed>8.31786268961665</speed>
      </trkpt>
      <trkpt lat="43.46264" lon="1.57001">
        <ele>164</ele>
        <time>2012-01-06T00:41:49Z</time>
        <course>230.600497470148</course>
        <speed>5.43875417746025</speed>
      </trkpt>
      <trkpt lat="43.46074" lon="1.57268">
        <ele>172</ele>
        <time>2012-01-06T00:42:45Z</time>
        <course>237.50894771659</course>
        <speed>7.10959911067489</speed>
      </trkpt>
      <trkpt lat="43.4601" lon="1.57384">
        <ele>173</ele>
        <time>2012-01-06T00:43:01Z</time>
        <course>239.104353876125</course>
        <speed>8.31879953389174</speed>
      </trkpt>
      <trkpt lat="43.45765" lon="1.57858">
        <ele>165</ele>
        <time>2012-01-06T00:43:58Z</time>
        <course>228.236661887911</course>
        <speed>7.71368127569163</speed>
      </trkpt>
      <trkpt lat="43.45748" lon="1.5788">
        <ele>165</ele>
        <time>2012-01-06T00:44:01Z</time>
        <course>235.577547589796</course>
        <speed>7.72282387058048</speed>
      </trkpt>
      <trkpt lat="43.45322" lon="1.58602">
        <ele>168</ele>
        <time>2012-01-06T00:45:38Z</time>
        <course>243.116111462432</course>
        <speed>8.32557415612845</speed>
      </trkpt>
      <trkpt lat="43.45301" lon="1.5865">
        <ele>167</ele>
        <time>2012-01-06T00:45:44Z</time>
        <course>234.947277933896</course>
        <speed>8.31973814837703</speed>
      </trkpt>
      <trkpt lat="43.45171" lon="1.58865">
        <ele>163</ele>
        <time>2012-01-06T00:46:11Z</time>
        <course>238.139568738393</course>
        <speed>7.43283851729199</speed>
      </trkpt>
      <trkpt lat="43.45126" lon="1.58949">
        <ele>163</ele>
        <time>2012-01-06T00:46:22Z</time>
        <course>220.768789854597</course>
        <speed>7.42237005607987</speed>
      </trkpt>
      <trkpt lat="43.45118" lon="1.58957">
        <ele>163</ele>
        <time>2012-01-06T00:46:24Z</time>
        <course>240.554488156938</course>
        <speed>7.4311552992299</speed>
      </trkpt>
      <trkpt lat="43.45082" lon="1.59031">
        <ele>164</ele>
        <time>2012-01-06T00:46:33Z</time>
        <course>180</course>
        <speed>6.28069565180656</speed>
      </trkpt>
      <trkpt lat="43.45069" lon="1.59031">
        <ele>164</ele>
        <time>2012-01-06T00:46:36Z</time>
        <course>218.311823250022</course>
        <speed>6.28121894182365</speed>
      </trkpt>
      <trkpt lat="43.45057" lon="1.59042">
        <ele>164</ele>
        <time>2012-01-06T00:46:38Z</time>
        <course>258.085181531744</course>
        <speed>6.28709368001498</speed>
      </trkpt>
      <trkpt lat="43.45053" lon="1.59064">
        <ele>164</ele>
        <time>2012-01-06T00:46:41Z</time>
        <course>242.782169843661</course>
        <speed>6.28444427024881</speed>
      </trkpt>
      <trkpt lat="43.45018" lon="1.59143">
        <ele>166</ele>
        <time>2012-01-06T00:46:53Z</time>
        <course>239.550735191421</course>
        <speed>5.60735930292248</speed>
      </trkpt>
      <trkpt lat="43.44933" lon="1.59311">
        <ele>170</ele>
        <time>2012-01-06T00:47:22Z</time>
        <course>237.843041236927</course>
        <speed>8.31911704797951</speed>
      </trkpt>
      <trkpt lat="43.4482" lon="1.5952">
        <ele>167</ele>
        <time>2012-01-06T00:47:48Z</time>
        <course>243.662368298058</course>
        <speed>8.32075698533164</speed>
      </trkpt>
      <trkpt lat="43.44797" lon="1.59574">
        <ele>165</ele>
        <time>2012-01-06T00:47:54Z</time>
        <course>249.26354677113</course>
        <speed>8.31905405364093</speed>
      </trkpt>
      <trkpt lat="43.44769" lon="1.5966">
        <ele>163</ele>
        <time>2012-01-06T00:48:03Z</time>
        <course>260.921742399873</course>
        <speed>7.62701296150006</speed>
      </trkpt>
      <trkpt lat="43.44755" lon="1.59762">
        <ele>163</ele>
        <time>2012-01-06T00:48:14Z</time>
        <course>270.366892396712</course>
        <speed>7.62789702093565</speed>
      </trkpt>
      <trkpt lat="43.44756" lon="1.59932">
        <ele>164</ele>
        <time>2012-01-06T00:48:32Z</time>
        <course>283.082908305521</course>
        <speed>8.32624032324083</speed>
      </trkpt>
      <trkpt lat="43.4476" lon="1.59952">
        <ele>163</ele>
        <time>2012-01-06T00:48:34Z</time>
        <course>269.975766642708</course>
        <speed>8.3178909308422</speed>
      </trkpt>
      <trkpt lat="43.4476" lon="1.60118">
        <ele>160</ele>
        <time>2012-01-06T00:48:50Z</time>
        <course>261.186880627689</course>
        <speed>8.3131187461547</speed>
      </trkpt>
      <trkpt lat="43.44756" lon="1.60148">
        <ele>159</ele>
        <time>2012-01-06T00:48:53Z</time>
        <course>273.735655349804</course>
        <speed>8.31982828324155</speed>
      </trkpt>
      <trkpt lat="43.44763" lon="1.60272">
        <ele>157</ele>
        <time>2012-01-06T00:49:05Z</time>
        <course>276.992510647353</course>
        <speed>4.95535066009661</speed>
      </trkpt>
      <trkpt lat="43.44774" lon="1.60376">
        <ele>159</ele>
        <time>2012-01-06T00:49:22Z</time>
        <course>281.377573575316</course>
        <speed>4.95266612514668</speed>
      </trkpt>
      <trkpt lat="43.44787" lon="1.60451">
        <ele>162</ele>
        <time>2012-01-06T00:49:35Z</time>
        <course>284.910228909477</course>
        <speed>8.3180447313383</speed>
      </trkpt>
      <trkpt lat="43.44835" lon="1.6066">
        <ele>160</ele>
        <time>2012-01-06T00:49:56Z</time>
        <course>286.159473094039</course>
        <speed>8.31678435372291</speed>
      </trkpt>
      <trkpt lat="43.44891" lon="1.60884">
        <ele>158</ele>
        <time>2012-01-06T00:50:19Z</time>
        <course>294.911025023905</course>
        <speed>8.32284680732136</speed>
      </trkpt>
      <trkpt lat="43.44903" lon="1.60914">
        <ele>158</ele>
        <time>2012-01-06T00:50:22Z</time>
        <course>284.543249462648</course>
        <speed>8.31880704771974</speed>
      </trkpt>
      <trkpt lat="43.45016" lon="1.61417">
        <ele>158</ele>
        <time>2012-01-06T00:51:13Z</time>
        <course>280.268985339075</course>
        <speed>7.14415069474131</speed>
      </trkpt>
      <trkpt lat="43.45039" lon="1.61564">
        <ele>159</ele>
        <time>2012-01-06T00:51:30Z</time>
        <course>274.711167593018</course>
        <speed>8.31611167308573</speed>
      </trkpt>
      <trkpt lat="43.45052" lon="1.61746">
        <ele>159</ele>
        <time>2012-01-06T00:51:48Z</time>
        <course>268.807184694874</course>
        <speed>8.31968790099302</speed>
      </trkpt>
      <trkpt lat="43.4505" lon="1.61859">
        <ele>158</ele>
        <time>2012-01-06T00:51:59Z</time>
        <course>236.454721335741</course>
        <speed>8.35620853376472</speed>
      </trkpt>
      <trkpt lat="43.45046" lon="1.61866">
        <ele>158</ele>
        <time>2012-01-06T00:52:00Z</time>
        <course>264.91740066627</course>
        <speed>8.31723700645046</speed>
      </trkpt>
      <trkpt lat="43.4503" lon="1.62076">
        <ele>158</ele>
        <time>2012-01-06T00:52:20Z</time>
        <course>259.459759624507</course>
        <speed>7.16237541516131</speed>
      </trkpt>
      <trkpt lat="43.45006" lon="1.62226">
        <ele>159</ele>
        <time>2012-01-06T00:52:38Z</time>
        <course>262.387156113623</course>
        <speed>5.42109903146664</speed>
      </trkpt>
      <trkpt lat="43.44985" lon="1.62409">
        <ele>163</ele>
        <time>2012-01-06T00:53:05Z</time>
        <course>244.188829609395</course>
        <speed>6.09921661742818</speed>
      </trkpt>
      <trkpt lat="43.4498" lon="1.62421">
        <ele>163</ele>
        <time>2012-01-06T00:53:07Z</time>
        <course>261.499276213738</course>
        <speed>6.09603993213329</speed>
      </trkpt>
      <trkpt lat="43.44956" lon="1.62608">
        <ele>166</ele>
        <time>2012-01-06T00:53:32Z</time>
        <course>260.232980544072</course>
        <speed>7.93607351979184</speed>
      </trkpt>
      <trkpt lat="43.44882" lon="1.63111">
        <ele>167</ele>
        <time>2012-01-06T00:54:24Z</time>
        <course>256.790935924649</course>
        <speed>6.87773116022753</speed>
      </trkpt>
      <trkpt lat="43.4486" lon="1.6322">
        <ele>167</ele>
        <time>2012-01-06T00:54:38Z</time>
        <course>248.296789642841</course>
        <speed>6.87519661053127</speed>
      </trkpt>
      <trkpt lat="43.44822" lon="1.63331">
        <ele>169</ele>
        <time>2012-01-06T00:54:52Z</time>
        <course>241.354909420063</course>
        <speed>7.60924172004936</speed>
      </trkpt>
      <trkpt lat="43.44613" lon="1.63777">
        <ele>171</ele>
        <time>2012-01-06T00:55:48Z</time>
        <course>239.881532448737</course>
        <speed>8.31802515030342</speed>
      </trkpt>
      <trkpt lat="43.44145" lon="1.64722">
        <ele>169</ele>
        <time>2012-01-06T00:57:39Z</time>
        <course>240.434756793716</course>
        <speed>7.78342301854125</speed>
      </trkpt>
      <trkpt lat="43.43855" lon="1.65321">
        <ele>171</ele>
        <time>2012-01-06T00:58:54Z</time>
        <course>245.814262939041</course>
        <speed>7.60083806934925</speed>
      </trkpt>
      <trkpt lat="43.43501" lon="1.66249">
        <ele>175</ele>
        <time>2012-01-06T01:00:45Z</time>
        <course>246.899734071205</course>
        <speed>8.31913412347186</speed>
      </trkpt>
      <trkpt lat="43.4335" lon="1.66665">
        <ele>174</ele>
        <time>2012-01-06T01:01:30Z</time>
        <course>243.526096560444</course>
        <speed>7.37189227988487</speed>
      </trkpt>
      <trkpt lat="43.43305" lon="1.66771">
        <ele>174</ele>
        <time>2012-01-06T01:01:44Z</time>
        <course>246.495795832744</course>
        <speed>7.3752804494674</speed>
      </trkpt>
      <trkpt lat="43.43218" lon="1.67006">
        <ele>176</ele>
        <time>2012-01-06T01:02:12Z</time>
        <course>242.980071831833</course>
        <speed>8.31834967881591</speed>
      </trkpt>
      <trkpt lat="43.43152" lon="1.67158">
        <ele>175</ele>
        <time>2012-01-06T01:02:30Z</time>
        <course>237.623641997297</course>
        <speed>8.31768442773303</speed>
      </trkpt>
      <trkpt lat="43.43091" lon="1.67271">
        <ele>174</ele>
        <time>2012-01-06T01:02:43Z</time>
        <course>235.732779664552</course>
        <speed>7.15683469431105</speed>
      </trkpt>
      <trkpt lat="43.43022" lon="1.6739">
        <ele>175</ele>
        <time>2012-01-06T01:03:00Z</time>
        <course>229.01884622807</course>
        <speed>8.31847351564691</speed>
      </trkpt>
      <trkpt lat="43.42537" lon="1.68049">
        <ele>174</ele>
        <time>2012-01-06T01:04:31Z</time>
        <course>224.880605677196</course>
        <speed>8.31711789119297</speed>
      </trkpt>
      <trkpt lat="43.42428" lon="1.68177">
        <ele>173</ele>
        <time>2012-01-06T01:04:51Z</time>
        <course>223.37580155595</course>
        <speed>8.31810767994004</speed>
      </trkpt>
      <trkpt lat="43.42204" lon="1.68427">
        <ele>171</ele>
        <time>2012-01-06T01:05:29Z</time>
        <course>227.15135065317</course>
        <speed>6.85939557181124</speed>
      </trkpt>
      <trkpt lat="43.4208" lon="1.68585">
        <ele>173</ele>
        <time>2012-01-06T01:05:57Z</time>
        <course>231.07708379079</course>
        <speed>8.31887403604728</speed>
      </trkpt>
      <trkpt lat="43.41996" lon="1.68708">
        <ele>173</ele>
        <time>2012-01-06T01:06:13Z</time>
        <course>236.429427010074</course>
        <speed>7.18463212977313</speed>
      </trkpt>
      <trkpt lat="43.41718" lon="1.69205">
        <ele>177</ele>
        <time>2012-01-06T01:07:23Z</time>
        <course>239.324471605753</course>
        <speed>8.31948942452987</speed>
      </trkpt>
      <trkpt lat="43.41594" lon="1.69453">
        <ele>172</ele>
        <time>2012-01-06T01:07:53Z</time>
        <course>245.020588835769</course>
        <speed>8.31524870776944</speed>
      </trkpt>
      <trkpt lat="43.41561" lon="1.69537">
        <ele>172</ele>
        <time>2012-01-06T01:08:02Z</time>
        <course>250.154395276505</course>
        <speed>8.31750149231904</speed>
      </trkpt>
      <trkpt lat="43.41499" lon="1.69741">
        <ele>172</ele>
        <time>2012-01-06T01:08:23Z</time>
        <course>247.594280883977</course>
        <speed>6.78721799128532</speed>
      </trkpt>
      <trkpt lat="43.41396" lon="1.70038">
        <ele>175</ele>
        <time>2012-01-06T01:09:02Z</time>
        <course>238.10770553739</course>
        <speed>7.59882802124604</speed>
      </trkpt>
      <trkpt lat="43.41285" lon="1.7025">
        <ele>176</ele>
        <time>2012-01-06T01:09:30Z</time>
        <course>234.416987348904</course>
        <speed>8.31974738902141</speed>
      </trkpt>
      <trkpt lat="43.41229" lon="1.70343">
        <ele>175</ele>
        <time>2012-01-06T01:09:42Z</time>
        <course>226.292452005709</course>
        <speed>8.31935731957908</speed>
      </trkpt>
      <trkpt lat="43.41151" lon="1.7044">
        <ele>175</ele>
        <time>2012-01-06T01:09:56Z</time>
        <course>218.042681261383</course>
        <speed>6.91467792492478</speed>
      </trkpt>
      <trkpt lat="43.41108" lon="1.7048">
        <ele>175</ele>
        <time>2012-01-06T01:10:04Z</time>
        <course>211.337708553181</course>
        <speed>6.91392759852185</speed>
      </trkpt>
      <trkpt lat="43.40919" lon="1.70617">
        <ele>178</ele>
        <time>2012-01-06T01:10:39Z</time>
        <course>213.08628138541</course>
        <speed>8.31978366620171</speed>
      </trkpt>
      <trkpt lat="43.40731" lon="1.70763">
        <ele>177</ele>
        <time>2012-01-06T01:11:07Z</time>
        <course>221.536207792447</course>
        <speed>8.31866752798534</speed>
      </trkpt>
      <trkpt lat="43.40625" lon="1.70875">
        <ele>177</ele>
        <time>2012-01-06T01:11:25Z</time>
        <course>209.206551827563</course>
        <speed>8.32363312133719</speed>
      </trkpt>
      <trkpt lat="43.40613" lon="1.70883">
        <ele>176</ele>
        <time>2012-01-06T01:11:27Z</time>
        <course>180</course>
        <speed>8.31736526954569</speed>
      </trkpt>
      <trkpt lat="43.40588" lon="1.70883">
        <ele>176</ele>
        <time>2012-01-06T01:11:30Z</time>
        <course>212.160712618862</course>
        <speed>8.29801828192297</speed>
      </trkpt>
      <trkpt lat="43.4058" lon="1.70889">
        <ele>176</ele>
        <time>2012-01-06T01:11:32Z</time>
        <course>243.839099757621</course>
        <speed>8.30264012511945</speed>
      </trkpt>
      <trkpt lat="43.40573" lon="1.70906">
        <ele>176</ele>
        <time>2012-01-06T01:11:34Z</time>
        <course>269.997969741132</course>
        <speed>8.32921777954551</speed>
      </trkpt>
      <trkpt lat="43.40573" lon="1.70919">
        <ele>176</ele>
        <time>2012-01-06T01:11:35Z</time>
        <course>243.419005553033</course>
        <speed>8.32739428930157</speed>
      </trkpt>
      <trkpt lat="43.4056" lon="1.7095">
        <ele>176</ele>
        <time>2012-01-06T01:11:38Z</time>
        <course>220.520379908219</course>
        <speed>8.31818900872648</speed>
      </trkpt>
      <trkpt lat="43.40248" lon="1.71269">
        <ele>175</ele>
        <time>2012-01-06T01:12:30Z</time>
        <course>209.140480093358</course>
        <speed>8.31750551731461</speed>
      </trkpt>
      <trkpt lat="43.40203" lon="1.71299">
        <ele>174</ele>
        <time>2012-01-06T01:12:37Z</time>
        <course>140.094961319916</course>
        <speed>8.27424112203845</speed>
      </trkpt>
      <trkpt lat="43.40198" lon="1.71294">
        <ele>174</ele>
        <time>2012-01-06T01:12:38Z</time>
        <course>202.690225445391</course>
        <speed>8.29649579074974</speed>
      </trkpt>
      <trkpt lat="43.40186" lon="1.713">
        <ele>174</ele>
        <time>2012-01-06T01:12:39Z</time>
        <course>177.82354152579</course>
        <speed>8.31963528688575</speed>
      </trkpt>
      <trkpt lat="43.40164" lon="1.71299">
        <ele>174</ele>
        <time>2012-01-06T01:12:42Z</time>
        <course>197.295533189803</course>
        <speed>8.31594416854064</speed>
      </trkpt>
      <trkpt lat="43.40113" lon="1.71318">
        <ele>174</ele>
        <time>2012-01-06T01:12:49Z</time>
        <course>214.117299962665</course>
        <speed>7.45598566742274</speed>
      </trkpt>
      <trkpt lat="43.40076" lon="1.71348">
        <ele>174</ele>
        <time>2012-01-06T01:12:56Z</time>
        <course>140.118969683344</course>
        <speed>7.45328555502676</speed>
      </trkpt>
      <trkpt lat="43.40069" lon="1.71341">
        <ele>174</ele>
        <time>2012-01-06T01:12:57Z</time>
        <course>195.56334534712</course>
        <speed>7.45646492234063</speed>
      </trkpt>
      <trkpt lat="43.40063" lon="1.71343">
        <ele>174</ele>
        <time>2012-01-06T01:12:58Z</time>
        <course>241.451289628783</course>
        <speed>7.42959581471976</speed>
      </trkpt>
      <trkpt lat="43.40058" lon="1.71354">
        <ele>174</ele>
        <time>2012-01-06T01:12:59Z</time>
        <course>283.460035055692</course>
        <speed>7.47670636036933</speed>
      </trkpt>
      <trkpt lat="43.4006" lon="1.71364">
        <ele>174</ele>
        <time>2012-01-06T01:13:01Z</time>
        <course>223.435217115623</course>
        <speed>7.45577966838971</speed>
      </trkpt>
      <trkpt lat="43.39639" lon="1.71843">
        <ele>178</ele>
        <time>2012-01-06T01:14:22Z</time>
        <course>229.006872171967</course>
        <speed>8.31956219428931</speed>
      </trkpt>
      <trkpt lat="43.39584" lon="1.71919">
        <ele>178</ele>
        <time>2012-01-06T01:14:32Z</time>
        <course>234.222621254357</course>
        <speed>8.32513483605281</speed>
      </trkpt>
      <trkpt lat="43.39557" lon="1.71964">
        <ele>178</ele>
        <time>2012-01-06T01:14:38Z</time>
        <course>246.382418672375</course>
        <speed>5.28290497844378</speed>
      </trkpt>
      <trkpt lat="43.39501" lon="1.72118">
        <ele>182</ele>
        <time>2012-01-06T01:15:04Z</time>
        <course>222.294127046685</course>
        <speed>8.317851848376</speed>
      </trkpt>
      <trkpt lat="43.3927" lon="1.72371">
        <ele>181</ele>
        <time>2012-01-06T01:15:44Z</time>
        <course>220.013439332031</course>
        <speed>7.18683304856741</speed>
      </trkpt>
      <trkpt lat="43.39178" lon="1.72464">
        <ele>182</ele>
        <time>2012-01-06T01:16:01Z</time>
        <course>222.342988531596</course>
        <speed>8.31844377225993</speed>
      </trkpt>
      <trkpt lat="43.38869" lon="1.72804">
        <ele>179</ele>
        <time>2012-01-06T01:16:54Z</time>
        <course>224.30804486232</course>
        <speed>8.32073095316089</speed>
      </trkpt>
      <trkpt lat="43.38785" lon="1.72903">
        <ele>177</ele>
        <time>2012-01-06T01:17:09Z</time>
        <course>233.832075484085</course>
        <speed>7.76199455534856</speed>
      </trkpt>
      <trkpt lat="43.38739" lon="1.72979">
        <ele>177</ele>
        <time>2012-01-06T01:17:19Z</time>
        <course>242.709607176398</course>
        <speed>7.76011905355958</speed>
      </trkpt>
      <trkpt lat="43.38649" lon="1.7319">
        <ele>178</ele>
        <time>2012-01-06T01:17:45Z</time>
        <course>245.151298265718</course>
        <speed>8.3200380298797</speed>
      </trkpt>
      <trkpt lat="43.38574" lon="1.73386">
        <ele>178</ele>
        <time>2012-01-06T01:18:06Z</time>
        <course>242.765377654501</course>
        <speed>7.97244767698528</speed>
      </trkpt>
      <trkpt lat="43.37141" lon="1.76851">
        <ele>185</ele>
        <time>2012-01-06T01:24:50Z</time>
        <course>245.386386311656</course>
        <speed>8.31947102876841</speed>
      </trkpt>
      <trkpt lat="43.37111" lon="1.76931">
        <ele>184</ele>
        <time>2012-01-06T01:24:59Z</time>
        <course>238.583186450554</course>
        <speed>8.31844928876253</speed>
      </trkpt>
      <trkpt lat="43.37083" lon="1.76987">
        <ele>184</ele>
        <time>2012-01-06T01:25:06Z</time>
        <course>247.122074683185</course>
        <speed>8.3184201479153</speed>
      </trkpt>
      <trkpt lat="43.37054" lon="1.77071">
        <ele>183</ele>
        <time>2012-01-06T01:25:15Z</time>
        <course>252.99313945584</course>
        <speed>8.31626572732207</speed>
      </trkpt>
      <trkpt lat="43.37019" lon="1.77211">
        <ele>183</ele>
        <time>2012-01-06T01:25:29Z</time>
        <course>249.458230185964</course>
        <speed>6.97167076573889</speed>
      </trkpt>
      <trkpt lat="43.36661" lon="1.78392">
        <ele>193</ele>
        <time>2012-01-06T01:27:57Z</time>
        <course>242.597298121964</course>
        <speed>5.80734595721467</speed>
      </trkpt>
      <trkpt lat="43.36515" lon="1.78738">
        <ele>200</ele>
        <time>2012-01-06T01:28:53Z</time>
        <course>251.706708708223</course>
        <speed>8.31828160713894</speed>
      </trkpt>
      <trkpt lat="43.36294" lon="1.79565">
        <ele>190</ele>
        <time>2012-01-06T01:30:18Z</time>
        <course>256.589791162201</course>
        <speed>8.31852962982103</speed>
      </trkpt>
      <trkpt lat="43.36275" lon="1.79663">
        <ele>190</ele>
        <time>2012-01-06T01:30:28Z</time>
        <course>264.421640323897</course>
        <speed>8.32486810826136</speed>
      </trkpt>
      <trkpt lat="43.3627" lon="1.79726">
        <ele>190</ele>
        <time>2012-01-06T01:30:34Z</time>
        <course>269.27461872697</course>
        <speed>7.34000651829061</speed>
      </trkpt>
      <trkpt lat="43.36265" lon="1.80282">
        <ele>193</ele>
        <time>2012-01-06T01:31:36Z</time>
        <course>267.399486309252</course>
        <speed>8.31711297618256</speed>
      </trkpt>
      <trkpt lat="43.36259" lon="1.80446">
        <ele>192</ele>
        <time>2012-01-06T01:31:52Z</time>
        <course>258.031529502601</course>
        <speed>8.31709375075514</speed>
      </trkpt>
      <trkpt lat="43.36249" lon="1.80504">
        <ele>191</ele>
        <time>2012-01-06T01:31:57Z</time>
        <course>249.848476968381</course>
        <speed>8.32321204301787</speed>
      </trkpt>
      <trkpt lat="43.36229" lon="1.80571">
        <ele>190</ele>
        <time>2012-01-06T01:32:04Z</time>
        <course>246.815903537378</course>
        <speed>8.3184736638268</speed>
      </trkpt>
      <trkpt lat="43.35782" lon="1.81869">
        <ele>190</ele>
        <time>2012-01-06T01:34:24Z</time>
        <course>241.136695849795</course>
        <speed>7.71772781513907</speed>
      </trkpt>
      <trkpt lat="43.3574" lon="1.81963">
        <ele>190</ele>
        <time>2012-01-06T01:34:35Z</time>
        <course>237.232672388191</course>
        <speed>7.71543724072772</speed>
      </trkpt>
      <trkpt lat="43.35386" lon="1.82645">
        <ele>193</ele>
        <time>2012-01-06T01:36:03Z</time>
        <course>242.182020789303</course>
        <speed>5.56037524751248</speed>
      </trkpt>
      <trkpt lat="43.35331" lon="1.82774">
        <ele>196</ele>
        <time>2012-01-06T01:36:25Z</time>
        <course>247.581780269912</course>
        <speed>7.66737327579443</speed>
      </trkpt>
      <trkpt lat="43.35304" lon="1.82855">
        <ele>196</ele>
        <time>2012-01-06T01:36:34Z</time>
        <course>252.09046410161</course>
        <speed>7.66666242785086</speed>
      </trkpt>
      <trkpt lat="43.35113" lon="1.83592">
        <ele>199</ele>
        <time>2012-01-06T01:37:57Z</time>
        <course>253.750857192273</course>
        <speed>8.31859181256073</speed>
      </trkpt>
      <trkpt lat="43.3499" lon="1.84118">
        <ele>190</ele>
        <time>2012-01-06T01:38:50Z</time>
        <course>224.064995004611</course>
        <speed>8.28528202700807</speed>
      </trkpt>
      <trkpt lat="43.34985" lon="1.84124">
        <ele>189</ele>
        <time>2012-01-06T01:38:51Z</time>
        <course>252.310981303913</course>
        <speed>8.30955809943284</speed>
      </trkpt>
      <trkpt lat="43.34976" lon="1.84159">
        <ele>189</ele>
        <time>2012-01-06T01:38:55Z</time>
        <course>257.593590835555</course>
        <speed>8.31688950161186</speed>
      </trkpt>
      <trkpt lat="43.34962" lon="1.84238">
        <ele>189</ele>
        <time>2012-01-06T01:39:03Z</time>
        <course>262.595204560692</course>
        <speed>8.31858905552218</speed>
      </trkpt>
      <trkpt lat="43.34948" lon="1.84372">
        <ele>189</ele>
        <time>2012-01-06T01:39:16Z</time>
        <course>266.324604902365</course>
        <speed>8.32090657082995</speed>
      </trkpt>
      <trkpt lat="43.34941" lon="1.84508">
        <ele>189</ele>
        <time>2012-01-06T01:39:29Z</time>
        <course>271.656519633515</course>
        <speed>8.3205544402249</speed>
      </trkpt>
      <trkpt lat="43.34944" lon="1.84635">
        <ele>189</ele>
        <time>2012-01-06T01:39:42Z</time>
        <course>275.136496952694</course>
        <speed>8.3192084960579</speed>
      </trkpt>
      <trkpt lat="43.34955" lon="1.84786">
        <ele>189</ele>
        <time>2012-01-06T01:39:56Z</time>
        <course>272.14164958094</course>
        <speed>8.31743520399212</speed>
      </trkpt>
      <trkpt lat="43.34962" lon="1.85014">
        <ele>187</ele>
        <time>2012-01-06T01:40:18Z</time>
        <course>260.849542322085</course>
        <speed>7.4241430775146</speed>
      </trkpt>
      <trkpt lat="43.34948" lon="1.85122">
        <ele>187</ele>
        <time>2012-01-06T01:40:30Z</time>
        <course>254.013100717445</course>
        <speed>7.42501324128379</speed>
      </trkpt>
      <trkpt lat="43.34927" lon="1.85213">
        <ele>188</ele>
        <time>2012-01-06T01:40:41Z</time>
        <course>249.777936867548</course>
        <speed>8.31921931771959</speed>
      </trkpt>
      <trkpt lat="43.34884" lon="1.85358">
        <ele>187</ele>
        <time>2012-01-06T01:40:56Z</time>
        <course>246.90377461828</course>
        <speed>8.32091006564374</speed>
      </trkpt>
      <trkpt lat="43.34838" lon="1.85492">
        <ele>184</ele>
        <time>2012-01-06T01:41:10Z</time>
        <course>242.356649612955</course>
        <speed>8.31862163437272</speed>
      </trkpt>
      <trkpt lat="43.34803" lon="1.85575">
        <ele>182</ele>
        <time>2012-01-06T01:41:20Z</time>
        <course>238.154486777582</course>
        <speed>8.31794923615397</speed>
      </trkpt>
      <trkpt lat="43.34765" lon="1.85651">
        <ele>181</ele>
        <time>2012-01-06T01:41:29Z</time>
        <course>231.531982411041</course>
        <speed>5.33879070617901</speed>
      </trkpt>
      <trkpt lat="43.3468" lon="1.85784">
        <ele>185</ele>
        <time>2012-01-06T01:41:55Z</time>
        <course>225.428620836457</course>
        <speed>6.18588137956309</speed>
      </trkpt>
      <trkpt lat="43.34638" lon="1.85837">
        <ele>186</ele>
        <time>2012-01-06T01:42:06Z</time>
        <course>219.707813256393</course>
        <speed>6.18385134193174</speed>
      </trkpt>
      <trkpt lat="43.34434" lon="1.86048">
        <ele>191</ele>
        <time>2012-01-06T01:42:52Z</time>
        <course>225.781525604609</course>
        <speed>7.49324127959876</speed>
      </trkpt>
      <trkpt lat="43.34384" lon="1.86112">
        <ele>191</ele>
        <time>2012-01-06T01:43:02Z</time>
        <course>233.75251709523</course>
        <speed>7.49766461046833</speed>
      </trkpt>
      <trkpt lat="43.34324" lon="1.86214">
        <ele>192</ele>
        <time>2012-01-06T01:43:16Z</time>
        <course>241.572213776864</course>
        <speed>5.78268265853665</speed>
      </trkpt>
      <trkpt lat="43.34291" lon="1.8629">
        <ele>193</ele>
        <time>2012-01-06T01:43:28Z</time>
        <course>245.757671201501</course>
        <speed>5.77966859528647</speed>
      </trkpt>
      <trkpt lat="43.34265" lon="1.86362">
        <ele>195</ele>
        <time>2012-01-06T01:43:39Z</time>
        <course>253.022327777162</course>
        <speed>8.31418863355522</speed>
      </trkpt>
      <trkpt lat="43.34242" lon="1.86456">
        <ele>194</ele>
        <time>2012-01-06T01:43:49Z</time>
        <course>256.044607169901</course>
        <speed>8.31825653851744</speed>
      </trkpt>
      <trkpt lat="43.34186" lon="1.86738">
        <ele>194</ele>
        <time>2012-01-06T01:44:18Z</time>
        <course>273.752180888432</course>
        <speed>6.5510179109511</speed>
      </trkpt>
      <trkpt lat="43.34187" lon="1.86757">
        <ele>194</ele>
        <time>2012-01-06T01:44:20Z</time>
        <course>257.733728835543</course>
        <speed>6.56105285168133</speed>
      </trkpt>
      <trkpt lat="43.34159" lon="1.86918">
        <ele>196</ele>
        <time>2012-01-06T01:44:40Z</time>
        <course>256.479610417566</course>
        <speed>7.09172535896507</speed>
      </trkpt>
      <trkpt lat="43.34106" lon="1.87194">
        <ele>198</ele>
        <time>2012-01-06T01:45:13Z</time>
        <course>252.47028609596</course>
        <speed>7.31940315891826</speed>
      </trkpt>
      <trkpt lat="43.34084" lon="1.87281">
        <ele>198</ele>
        <time>2012-01-06T01:45:23Z</time>
        <course>247.141925332226</course>
        <speed>7.317759997516</speed>
      </trkpt>
      <trkpt lat="43.34057" lon="1.87361">
        <ele>199</ele>
        <time>2012-01-06T01:45:33Z</time>
        <course>243.412895935123</course>
        <speed>8.319593346614</speed>
      </trkpt>
      <trkpt lat="43.33955" lon="1.87616">
        <ele>199</ele>
        <time>2012-01-06T01:46:01Z</time>
        <course>242.63726951852</course>
        <speed>8.31870826258032</speed>
      </trkpt>
      <trkpt lat="43.33836" lon="1.87904">
        <ele>196</ele>
        <time>2012-01-06T01:46:33Z</time>
        <course>218.648172121375</course>
        <speed>8.29946644628231</speed>
      </trkpt>
      <trkpt lat="43.33827" lon="1.87913">
        <ele>195</ele>
        <time>2012-01-06T01:46:35Z</time>
        <course>245.857128146378</course>
        <speed>8.31405588795968</speed>
      </trkpt>
      <trkpt lat="43.33803" lon="1.8798">
        <ele>195</ele>
        <time>2012-01-06T01:46:42Z</time>
        <course>251.467820754699</course>
        <speed>8.31563275686143</speed>
      </trkpt>
      <trkpt lat="43.33788" lon="1.88036">
        <ele>195</ele>
        <time>2012-01-06T01:46:48Z</time>
        <course>256.679230905008</course>
        <speed>8.32841090965926</speed>
      </trkpt>
      <trkpt lat="43.33781" lon="1.88073">
        <ele>195</ele>
        <time>2012-01-06T01:46:51Z</time>
        <course>263.130386304635</course>
        <speed>8.31845414851987</speed>
      </trkpt>
      <trkpt lat="43.33769" lon="1.88198">
        <ele>195</ele>
        <time>2012-01-06T01:47:04Z</time>
        <course>264.664526695934</course>
        <speed>8.11852802643395</speed>
      </trkpt>
      <trkpt lat="43.33697" lon="1.89195">
        <ele>196</ele>
        <time>2012-01-06T01:48:43Z</time>
        <course>263.250678092702</course>
        <speed>6.57341131699721</speed>
      </trkpt>
      <trkpt lat="43.33671" lon="1.89472">
        <ele>199</ele>
        <time>2012-01-06T01:49:18Z</time>
        <course>258.875454054776</course>
        <speed>8.31727795167181</speed>
      </trkpt>
      <trkpt lat="43.3365" lon="1.89606">
        <ele>198</ele>
        <time>2012-01-06T01:49:31Z</time>
        <course>253.389669418282</course>
        <speed>8.31737759712607</speed>
      </trkpt>
      <trkpt lat="43.33575" lon="1.89922">
        <ele>197</ele>
        <time>2012-01-06T01:50:03Z</time>
        <course>251.363788888105</course>
        <speed>7.16794829082895</speed>
      </trkpt>
      <trkpt lat="43.33459" lon="1.90355">
        <ele>200</ele>
        <time>2012-01-06T01:50:55Z</time>
        <course>249.013197846331</course>
        <speed>5.38202635485879</speed>
      </trkpt>
      <trkpt lat="43.33408" lon="1.90522">
        <ele>204</ele>
        <time>2012-01-06T01:51:23Z</time>
        <course>244.193146195139</course>
        <speed>8.31881607234609</speed>
      </trkpt>
      <trkpt lat="43.33194" lon="1.9108">
        <ele>202</ele>
        <time>2012-01-06T01:52:24Z</time>
        <course>245.945149840203</course>
        <speed>5.41078446320882</speed>
      </trkpt>
      <trkpt lat="43.3315" lon="1.91204">
        <ele>205</ele>
        <time>2012-01-06T01:52:44Z</time>
        <course>242.498964112704</course>
        <speed>7.3441217431808</speed>
      </trkpt>
      <trkpt lat="43.33083" lon="1.91366">
        <ele>206</ele>
        <time>2012-01-06T01:53:05Z</time>
        <course>244.102601923056</course>
        <speed>8.31874232005196</speed>
      </trkpt>
      <trkpt lat="43.32808" lon="1.92083">
        <ele>201</ele>
        <time>2012-01-06T01:54:24Z</time>
        <course>248.892824704986</course>
        <speed>7.80216333445287</speed>
      </trkpt>
      <trkpt lat="43.32703" lon="1.92427">
        <ele>202</ele>
        <time>2012-01-06T01:55:02Z</time>
        <course>249.741572481493</course>
        <speed>8.31859844828722</speed>
      </trkpt>
      <trkpt lat="43.32545" lon="1.9297">
        <ele>202</ele>
        <time>2012-01-06T01:55:59Z</time>
        <course>254.615340282475</course>
        <speed>7.37124567881952</speed>
      </trkpt>
      <trkpt lat="43.32505" lon="1.93154">
        <ele>203</ele>
        <time>2012-01-06T01:56:20Z</time>
        <course>257.727619626847</course>
        <speed>8.3192442561448</speed>
      </trkpt>
      <trkpt lat="43.32483" lon="1.93282">
        <ele>202</ele>
        <time>2012-01-06T01:56:33Z</time>
        <course>258.372337716221</course>
        <speed>7.52347327685752</speed>
      </trkpt>
      <trkpt lat="43.32446" lon="1.9351">
        <ele>203</ele>
        <time>2012-01-06T01:56:58Z</time>
        <course>263.370969653768</course>
        <speed>6.29975724223655</speed>
      </trkpt>
      <trkpt lat="43.32435" lon="1.9363">
        <ele>204</ele>
        <time>2012-01-06T01:57:14Z</time>
        <course>272.611994740974</course>
        <speed>6.30095364621928</speed>
      </trkpt>
      <trkpt lat="43.32439" lon="1.9374">
        <ele>206</ele>
        <time>2012-01-06T01:57:28Z</time>
        <course>280.091414141009</course>
        <speed>7.73821156822616</speed>
      </trkpt>
      <trkpt lat="43.3245" lon="1.93818">
        <ele>206</ele>
        <time>2012-01-06T01:57:36Z</time>
        <course>281.789371292368</course>
        <speed>7.74296667006666</speed>
      </trkpt>
      <trkpt lat="43.32545" lon="1.94388">
        <ele>208</ele>
        <time>2012-01-06T01:58:37Z</time>
        <course>279.120288613923</course>
        <speed>8.3121935772184</speed>
      </trkpt>
      <trkpt lat="43.32552" lon="1.94443">
        <ele>205</ele>
        <time>2012-01-06T01:58:43Z</time>
        <course>272.430248038524</course>
        <speed>8.31795614919939</speed>
      </trkpt>
      <trkpt lat="43.32556" lon="1.94561">
        <ele>199</ele>
        <time>2012-01-06T01:58:54Z</time>
        <course>267.411603571061</course>
        <speed>8.31736799992904</speed>
      </trkpt>
      <trkpt lat="43.32551" lon="1.94702">
        <ele>188</ele>
        <time>2012-01-06T01:59:08Z</time>
        <course>264.516950268032</course>
        <speed>8.3170764837969</speed>
      </trkpt>
      <trkpt lat="43.32527" lon="1.95021">
        <ele>184</ele>
        <time>2012-01-06T01:59:39Z</time>
        <course>263.671734092056</course>
        <speed>8.31837848726252</speed>
      </trkpt>
      <trkpt lat="43.32473" lon="1.95647">
        <ele>167</ele>
        <time>2012-01-06T02:00:40Z</time>
        <course>260.762907531265</course>
        <speed>8.31556148069741</speed>
      </trkpt>
      <trkpt lat="43.32459" lon="1.95756">
        <ele>165</ele>
        <time>2012-01-06T02:00:51Z</time>
        <course>224.688908730325</course>
        <speed>8.34408666558172</speed>
      </trkpt>
      <trkpt lat="43.32455" lon="1.95761">
        <ele>165</ele>
        <time>2012-01-06T02:00:52Z</time>
        <course>253.725774064274</course>
        <speed>8.31623587367192</speed>
      </trkpt>
      <trkpt lat="43.32434" lon="1.95852">
        <ele>165</ele>
        <time>2012-01-06T02:01:01Z</time>
        <course>242.203228421447</course>
        <speed>6.12884014613332</speed>
      </trkpt>
      <trkpt lat="43.32384" lon="1.95972">
        <ele>167</ele>
        <time>2012-01-06T02:01:19Z</time>
        <course>236.045125284855</course>
        <speed>8.31825465044748</speed>
      </trkpt>
      <trkpt lat="43.32168" lon="1.96379">
        <ele>160</ele>
        <time>2012-01-06T02:02:08Z</time>
        <course>233.962099563502</course>
        <speed>8.31553200298944</speed>
      </trkpt>
      <trkpt lat="43.32102" lon="1.96494">
        <ele>158</ele>
        <time>2012-01-06T02:02:22Z</time>
        <course>223.0524825853</course>
        <speed>8.3203233405987</speed>
      </trkpt>
      <trkpt lat="43.32037" lon="1.96571">
        <ele>156</ele>
        <time>2012-01-06T02:02:34Z</time>
        <course>217.172042554151</course>
        <speed>8.31573707069456</speed>
      </trkpt>
      <trkpt lat="43.32011" lon="1.96596">
        <ele>156</ele>
        <time>2012-01-06T02:02:38Z</time>
        <course>207.694263995565</course>
        <speed>8.31848678339032</speed>
      </trkpt>
      <trkpt lat="43.31822" lon="1.96722">
        <ele>156</ele>
        <time>2012-01-06T02:03:06Z</time>
        <course>200.868521278711</course>
        <speed>8.3227062073263</speed>
      </trkpt>
      <trkpt lat="43.31758" lon="1.96753">
        <ele>154</ele>
        <time>2012-01-06T02:03:15Z</time>
        <course>178.390169892183</course>
        <speed>8.32195241483547</speed>
      </trkpt>
      <trkpt lat="43.3173" lon="1.96752">
        <ele>154</ele>
        <time>2012-01-06T02:03:19Z</time>
        <course>225.040164218522</course>
        <speed>7.78451103158948</speed>
      </trkpt>
      <trkpt lat="43.31719" lon="1.96766">
        <ele>154</ele>
        <time>2012-01-06T02:03:21Z</time>
        <course>254.551220207117</course>
        <speed>7.76286999966251</speed>
      </trkpt>
      <trkpt lat="43.31714" lon="1.96789">
        <ele>154</ele>
        <time>2012-01-06T02:03:24Z</time>
        <course>211.571536584192</course>
        <speed>7.76116576891419</speed>
      </trkpt>
      <trkpt lat="43.31682" lon="1.96814">
        <ele>154</ele>
        <time>2012-01-06T02:03:29Z</time>
        <course>207.91926580245</course>
        <speed>7.76690031463781</speed>
      </trkpt>
      <trkpt lat="43.3129" lon="1.97079">
        <ele>156</ele>
        <time>2012-01-06T02:04:31Z</time>
        <course>196.630329341104</course>
        <speed>6.5801829862049</speed>
      </trkpt>
      <trkpt lat="43.31269" lon="1.97087">
        <ele>156</ele>
        <time>2012-01-06T02:04:35Z</time>
        <course>206.658319331376</course>
        <speed>6.57531871595799</speed>
      </trkpt>
      <trkpt lat="43.31043" lon="1.97232">
        <ele>160</ele>
        <time>2012-01-06T02:05:17Z</time>
        <course>213.153193343013</course>
        <speed>8.3167848220138</speed>
      </trkpt>
      <trkpt lat="43.30958" lon="1.97303">
        <ele>159</ele>
        <time>2012-01-06T02:05:31Z</time>
        <course>226.750111098979</course>
        <speed>8.31563136288404</speed>
      </trkpt>
      <trkpt lat="43.30908" lon="1.97371">
        <ele>159</ele>
        <time>2012-01-06T02:05:40Z</time>
        <course>231.254556582047</course>
        <speed>8.31769893184491</speed>
      </trkpt>
      <trkpt lat="43.30789" lon="1.97561">
        <ele>159</ele>
        <time>2012-01-06T02:06:04Z</time>
        <course>239.695178543923</course>
        <speed>8.31804668336877</speed>
      </trkpt>
      <trkpt lat="43.30732" lon="1.97686">
        <ele>158</ele>
        <time>2012-01-06T02:06:19Z</time>
        <course>246.664415257374</course>
        <speed>8.31772348255712</speed>
      </trkpt>
      <trkpt lat="43.30696" lon="1.97793">
        <ele>157</ele>
        <time>2012-01-06T02:06:30Z</time>
        <course>234.410498378096</course>
        <speed>8.3150045307606</speed>
      </trkpt>
      <trkpt lat="43.30648" lon="1.97879">
        <ele>157</ele>
        <time>2012-01-06T02:06:41Z</time>
        <course>223.712042571321</course>
        <speed>7.05816993042045</speed>
      </trkpt>
      <trkpt lat="43.30617" lon="1.97917">
        <ele>157</ele>
        <time>2012-01-06T02:06:47Z</time>
        <course>181.941976727762</course>
        <speed>7.06364332317564</speed>
      </trkpt>
      <trkpt lat="43.30594" lon="1.97918">
        <ele>157</ele>
        <time>2012-01-06T02:06:51Z</time>
        <course>220.621334825261</course>
        <speed>7.04632853814455</speed>
      </trkpt>
      <trkpt lat="43.30584" lon="1.97929">
        <ele>157</ele>
        <time>2012-01-06T02:06:53Z</time>
        <course>246.138811330081</course>
        <speed>7.05153171200278</speed>
      </trkpt>
      <trkpt lat="43.30574" lon="1.97958">
        <ele>158</ele>
        <time>2012-01-06T02:06:57Z</time>
        <course>282.56922782225</course>
        <speed>7.16184146473874</speed>
      </trkpt>
      <trkpt lat="43.30578" lon="1.97981">
        <ele>158</ele>
        <time>2012-01-06T02:06:59Z</time>
        <course>260.88967906892</course>
        <speed>7.13449794467401</speed>
      </trkpt>
      <trkpt lat="43.30576" lon="1.97997">
        <ele>158</ele>
        <time>2012-01-06T02:07:01Z</time>
        <course>241.87636716557</course>
        <speed>7.14476094486344</speed>
      </trkpt>
      <trkpt lat="43.30566" lon="1.98021">
        <ele>158</ele>
        <time>2012-01-06T02:07:04Z</time>
        <course>224.627100476573</course>
        <speed>7.15103127533705</speed>
      </trkpt>
      <trkpt lat="43.30521" lon="1.98078">
        <ele>159</ele>
        <time>2012-01-06T02:07:14Z</time>
        <course>212.398007650277</course>
        <speed>8.31801404763838</speed>
      </trkpt>
      <trkpt lat="43.3044" lon="1.98144">
        <ele>159</ele>
        <time>2012-01-06T02:07:26Z</time>
        <course>217.124806663246</course>
        <speed>8.31969035556762</speed>
      </trkpt>
      <trkpt lat="43.30404" lon="1.98179">
        <ele>159</ele>
        <time>2012-01-06T02:07:32Z</time>
        <course>224.779232705114</course>
        <speed>8.3173931271939</speed>
      </trkpt>
      <trkpt lat="43.30364" lon="1.9823">
        <ele>159</ele>
        <time>2012-01-06T02:07:39Z</time>
        <course>230.523861941468</course>
        <speed>7.641870355243</speed>
      </trkpt>
      <trkpt lat="43.29963" lon="1.98859">
        <ele>162</ele>
        <time>2012-01-06T02:09:08Z</time>
        <course>237.189815233635</course>
        <speed>8.31502111857536</speed>
      </trkpt>
      <trkpt lat="43.29938" lon="1.98909">
        <ele>161</ele>
        <time>2012-01-06T02:09:14Z</time>
        <course>244.466544739404</course>
        <speed>8.31919875841663</speed>
      </trkpt>
      <trkpt lat="43.29918" lon="1.98963">
        <ele>161</ele>
        <time>2012-01-06T02:09:20Z</time>
        <course>248.014252586158</course>
        <speed>8.31921582653284</speed>
      </trkpt>
      <trkpt lat="43.29806" lon="1.99322">
        <ele>160</ele>
        <time>2012-01-06T02:09:58Z</time>
        <course>255.603787586413</course>
        <speed>8.31551641583308</speed>
      </trkpt>
      <trkpt lat="43.29779" lon="1.99458">
        <ele>154</ele>
        <time>2012-01-06T02:10:11Z</time>
        <course>259.222427963418</course>
        <speed>8.31747423133387</speed>
      </trkpt>
      <trkpt lat="43.29748" lon="1.99669">
        <ele>149</ele>
        <time>2012-01-06T02:10:32Z</time>
        <course>237.152967333275</course>
        <speed>8.29178890307445</speed>
      </trkpt>
      <trkpt lat="43.29742" lon="1.99681">
        <ele>148</ele>
        <time>2012-01-06T02:10:34Z</time>
        <course>259.652335764922</course>
        <speed>8.31780108945261</speed>
      </trkpt>
      <trkpt lat="43.29675" lon="2.00159">
        <ele>147</ele>
        <time>2012-01-06T02:11:21Z</time>
        <course>275.672725185226</course>
        <speed>8.32459371792832</speed>
      </trkpt>
      <trkpt lat="43.29676" lon="2.00172">
        <ele>147</ele>
        <time>2012-01-06T02:11:22Z</time>
        <course>259.046250015945</course>
        <speed>8.31813958519848</speed>
      </trkpt>
      <trkpt lat="43.2961" lon="2.00616">
        <ele>147</ele>
        <time>2012-01-06T02:12:06Z</time>
        <course>258.617123930484</course>
        <speed>7.55630335212044</speed>
      </trkpt>
      <trkpt lat="43.29536" lon="2.01095">
        <ele>149</ele>
        <time>2012-01-06T02:12:59Z</time>
        <course>255.478951933379</course>
        <speed>8.3173894831032</speed>
      </trkpt>
      <trkpt lat="43.29517" lon="2.0119">
        <ele>148</ele>
        <time>2012-01-06T02:13:08Z</time>
        <course>258.367346433288</course>
        <speed>8.31777930522951</speed>
      </trkpt>
      <trkpt lat="43.29422" lon="2.01793">
        <ele>147</ele>
        <time>2012-01-06T02:14:08Z</time>
        <course>259.984612636281</course>
        <speed>8.22850308679997</speed>
      </trkpt>
      <trkpt lat="43.29419" lon="2.01815">
        <ele>147</ele>
        <time>2012-01-06T02:14:11Z</time>
        <course>278.656656851102</course>
        <speed>8.19275535326811</speed>
      </trkpt>
      <trkpt lat="43.29421" lon="2.01832">
        <ele>147</ele>
        <time>2012-01-06T02:14:12Z</time>
        <course>258.354686041816</course>
        <speed>8.21209202119049</speed>
      </trkpt>
      <trkpt lat="43.29139" lon="2.03659">
        <ele>148</ele>
        <time>2012-01-06T02:17:16Z</time>
        <course>262.373286151164</course>
        <speed>8.31876425189696</speed>
      </trkpt>
      <trkpt lat="43.29047" lon="2.04571">
        <ele>143</ele>
        <time>2012-01-06T02:18:46Z</time>
        <course>264.485709823959</course>
        <speed>8.31483213193788</speed>
      </trkpt>
      <trkpt lat="43.29039" lon="2.04679">
        <ele>142</ele>
        <time>2012-01-06T02:18:56Z</time>
        <course>262.029611361998</course>
        <speed>8.31874452591759</speed>
      </trkpt>
      <trkpt lat="43.28924" lon="2.05774">
        <ele>142</ele>
        <time>2012-01-06T02:20:44Z</time>
        <course>262.618482947146</course>
        <speed>8.3182002952332</speed>
      </trkpt>
      <trkpt lat="43.28855" lon="2.06479">
        <ele>141</ele>
        <time>2012-01-06T02:21:53Z</time>
        <course>256.879644722329</course>
        <speed>8.3206199083725</speed>
      </trkpt>
      <trkpt lat="43.28838" lon="2.06574">
        <ele>139</ele>
        <time>2012-01-06T02:22:03Z</time>
        <course>247.970634258505</course>
        <speed>8.32269958161359</speed>
      </trkpt>
      <trkpt lat="43.28815" lon="2.06648">
        <ele>139</ele>
        <time>2012-01-06T02:22:10Z</time>
        <course>241.690166623633</course>
        <speed>8.31498214233502</speed>
      </trkpt>
      <trkpt lat="43.28791" lon="2.06706">
        <ele>138</ele>
        <time>2012-01-06T02:22:17Z</time>
        <course>240.002387274999</course>
        <speed>8.31894552025164</speed>
      </trkpt>
      <trkpt lat="43.28601" lon="2.07136">
        <ele>137</ele>
        <time>2012-01-06T02:23:06Z</time>
        <course>230.330209694171</course>
        <speed>8.31994366322445</speed>
      </trkpt>
      <trkpt lat="43.28526" lon="2.07254">
        <ele>137</ele>
        <time>2012-01-06T02:23:21Z</time>
        <course>226.354417680014</course>
        <speed>8.31774390675745</speed>
      </trkpt>
      <trkpt lat="43.28252" lon="2.0763">
        <ele>132</ele>
        <time>2012-01-06T02:24:13Z</time>
        <course>231.87151792947</course>
        <speed>8.31969484182674</speed>
      </trkpt>
      <trkpt lat="43.28204" lon="2.0771">
        <ele>131</ele>
        <time>2012-01-06T02:24:23Z</time>
        <course>240.149526228845</course>
        <speed>8.32016965912974</speed>
      </trkpt>
      <trkpt lat="43.28179" lon="2.07767">
        <ele>131</ele>
        <time>2012-01-06T02:24:29Z</time>
        <course>250.269277696994</course>
        <speed>8.31309820883337</speed>
      </trkpt>
      <trkpt lat="43.28159" lon="2.0784">
        <ele>130</ele>
        <time>2012-01-06T02:24:37Z</time>
        <course>257.120885764646</course>
        <speed>8.31888253969188</speed>
      </trkpt>
      <trkpt lat="43.28148" lon="2.07903">
        <ele>130</ele>
        <time>2012-01-06T02:24:43Z</time>
        <course>265.744825128978</course>
        <speed>7.09045928338506</speed>
      </trkpt>
      <trkpt lat="43.28142" lon="2.08009">
        <ele>130</ele>
        <time>2012-01-06T02:24:55Z</time>
        <course>279.574904732362</course>
        <speed>7.09052236510007</speed>
      </trkpt>
      <trkpt lat="43.28183" lon="2.08325">
        <ele>133</ele>
        <time>2012-01-06T02:25:32Z</time>
        <course>271.431268596411</course>
        <speed>7.48748976577863</speed>
      </trkpt>
      <trkpt lat="43.28184" lon="2.08377">
        <ele>133</ele>
        <time>2012-01-06T02:25:38Z</time>
        <course>260.710011618585</course>
        <speed>7.49001782976765</speed>
      </trkpt>
      <trkpt lat="43.28181" lon="2.08401">
        <ele>133</ele>
        <time>2012-01-06T02:25:40Z</time>
        <course>248.773936002595</course>
        <speed>7.48142263498793</speed>
      </trkpt>
      <trkpt lat="43.28081" lon="2.08739">
        <ele>135</ele>
        <time>2012-01-06T02:26:20Z</time>
        <course>244.719277867431</course>
        <speed>8.32063432307713</speed>
      </trkpt>
      <trkpt lat="43.2805" lon="2.08825">
        <ele>133</ele>
        <time>2012-01-06T02:26:29Z</time>
        <course>252.492361111587</course>
        <speed>8.32014924189885</speed>
      </trkpt>
      <trkpt lat="43.28037" lon="2.08879">
        <ele>133</ele>
        <time>2012-01-06T02:26:34Z</time>
        <course>248.745932208093</course>
        <speed>8.3181815750993</speed>
      </trkpt>
      <trkpt lat="43.27814" lon="2.09636">
        <ele>132</ele>
        <time>2012-01-06T02:27:54Z</time>
        <course>242.431869025132</course>
        <speed>6.62397760012791</speed>
      </trkpt>
      <trkpt lat="43.27781" lon="2.09719">
        <ele>132</ele>
        <time>2012-01-06T02:28:05Z</time>
        <course>232.491990301003</course>
        <speed>6.62904327952316</speed>
      </trkpt>
      <trkpt lat="43.27736" lon="2.09796">
        <ele>134</ele>
        <time>2012-01-06T02:28:17Z</time>
        <course>227.317062732293</course>
        <speed>8.31814448699004</speed>
      </trkpt>
      <trkpt lat="43.27572" lon="2.1003">
        <ele>133</ele>
        <time>2012-01-06T02:28:49Z</time>
        <course>234.680690233941</course>
        <speed>8.31685003969893</speed>
      </trkpt>
      <trkpt lat="43.27523" lon="2.10121">
        <ele>132</ele>
        <time>2012-01-06T02:29:00Z</time>
        <course>242.094604209991</course>
        <speed>8.31604374740967</speed>
      </trkpt>
      <trkpt lat="43.27488" lon="2.10208">
        <ele>132</ele>
        <time>2012-01-06T02:29:10Z</time>
        <course>245.011260003645</course>
        <speed>8.31843146996211</speed>
      </trkpt>
      <trkpt lat="43.27424" lon="2.10389">
        <ele>132</ele>
        <time>2012-01-06T02:29:29Z</time>
        <course>250.538797553</course>
        <speed>8.0161531855382</speed>
      </trkpt>
      <trkpt lat="43.27413" lon="2.1043">
        <ele>132</ele>
        <time>2012-01-06T02:29:34Z</time>
        <course>245.553727724016</course>
        <speed>8.02382253558383</speed>
      </trkpt>
      <trkpt lat="43.27218" lon="2.10998">
        <ele>133</ele>
        <time>2012-01-06T02:30:37Z</time>
        <course>236.180740756613</course>
        <speed>8.3154282016917</speed>
      </trkpt>
      <trkpt lat="43.27185" lon="2.11063">
        <ele>133</ele>
        <time>2012-01-06T02:30:45Z</time>
        <course>230.870543976602</course>
        <speed>8.31828622317577</speed>
      </trkpt>
      <trkpt lat="43.27116" lon="2.11175">
        <ele>133</ele>
        <time>2012-01-06T02:30:59Z</time>
        <course>269.998504131587</course>
        <speed>6.53805722625964</speed>
      </trkpt>
      <trkpt lat="43.27116" lon="2.11183">
        <ele>133</ele>
        <time>2012-01-06T02:31:00Z</time>
        <course>230.508848375657</course>
        <speed>6.54675435770233</speed>
      </trkpt>
      <trkpt lat="43.26861" lon="2.11593">
        <ele>139</ele>
        <time>2012-01-06T02:32:07Z</time>
        <course>234.199161222034</course>
        <speed>6.88817561795806</speed>
      </trkpt>
      <trkpt lat="43.26654" lon="2.11974">
        <ele>143</ele>
        <time>2012-01-06T02:33:03Z</time>
        <course>231.689917209935</course>
        <speed>8.31842688941759</speed>
      </trkpt>
      <trkpt lat="43.2625" lon="2.12656">
        <ele>133</ele>
        <time>2012-01-06T02:34:28Z</time>
        <course>237.629104347619</course>
        <speed>8.32126231433621</speed>
      </trkpt>
      <trkpt lat="43.262" lon="2.12761">
        <ele>131</ele>
        <time>2012-01-06T02:34:40Z</time>
        <course>243.465923104979</course>
        <speed>8.32179331593049</speed>
      </trkpt>
      <trkpt lat="43.2617" lon="2.12841">
        <ele>130</ele>
        <time>2012-01-06T02:34:49Z</time>
        <course>248.304642904513</course>
        <speed>8.3144655273753</speed>
      </trkpt>
      <trkpt lat="43.26147" lon="2.12918">
        <ele>130</ele>
        <time>2012-01-06T02:34:57Z</time>
        <course>256.531978652378</course>
        <speed>3.49221906533061</speed>
      </trkpt>
      <trkpt lat="43.26119" lon="2.13074">
        <ele>139</ele>
        <time>2012-01-06T02:35:34Z</time>
        <course>262.283506560092</course>
        <speed>6.64046040400146</speed>
      </trkpt>
      <trkpt lat="43.2608" lon="2.13461">
        <ele>143</ele>
        <time>2012-01-06T02:36:22Z</time>
        <course>255.984814826682</course>
        <speed>7.67290354292239</speed>
      </trkpt>
      <trkpt lat="43.26027" lon="2.13745">
        <ele>144</ele>
        <time>2012-01-06T02:36:53Z</time>
        <course>253.296121560118</course>
        <speed>7.58844606428403</speed>
      </trkpt>
      <trkpt lat="43.25972" lon="2.1399">
        <ele>145</ele>
        <time>2012-01-06T02:37:20Z</time>
        <course>249.18366677297</course>
        <speed>8.31914271586085</speed>
      </trkpt>
      <trkpt lat="43.25931" lon="2.14134">
        <ele>145</ele>
        <time>2012-01-06T02:37:35Z</time>
        <course>242.711078739463</course>
        <speed>8.31749423292656</speed>
      </trkpt>
      <trkpt lat="43.25793" lon="2.14492">
        <ele>141</ele>
        <time>2012-01-06T02:38:15Z</time>
        <course>246.86796953425</course>
        <speed>8.3174221145555</speed>
      </trkpt>
      <trkpt lat="43.25711" lon="2.14749">
        <ele>140</ele>
        <time>2012-01-06T02:38:42Z</time>
        <course>254.217659253383</course>
        <speed>8.31772782919829</speed>
      </trkpt>
      <trkpt lat="43.25652" lon="2.15029">
        <ele>140</ele>
        <time>2012-01-06T02:39:10Z</time>
        <course>247.917038817773</course>
        <speed>8.31799265137114</speed>
      </trkpt>
      <trkpt lat="43.25612" lon="2.15161">
        <ele>140</ele>
        <time>2012-01-06T02:39:24Z</time>
        <course>253.213277020663</course>
        <speed>8.31909467487349</speed>
      </trkpt>
      <trkpt lat="43.25596" lon="2.15232">
        <ele>140</ele>
        <time>2012-01-06T02:39:31Z</time>
        <course>262.58086692483</course>
        <speed>8.31790119497074</speed>
      </trkpt>
      <trkpt lat="43.25586" lon="2.15335">
        <ele>140</ele>
        <time>2012-01-06T02:39:42Z</time>
        <course>272.035945718602</course>
        <speed>8.31713243281242</speed>
      </trkpt>
      <trkpt lat="43.25594" lon="2.15628">
        <ele>140</ele>
        <time>2012-01-06T02:40:10Z</time>
        <course>266.760513563231</course>
        <speed>8.31597524372698</speed>
      </trkpt>
      <trkpt lat="43.25589" lon="2.15747">
        <ele>139</ele>
        <time>2012-01-06T02:40:22Z</time>
        <course>254.279048457235</course>
        <speed>8.31801149090829</speed>
      </trkpt>
      <trkpt lat="43.25564" lon="2.15866">
        <ele>138</ele>
        <time>2012-01-06T02:40:34Z</time>
        <course>257.88695068023</course>
        <speed>8.3191942871857</speed>
      </trkpt>
      <trkpt lat="43.2554" lon="2.16016">
        <ele>138</ele>
        <time>2012-01-06T02:40:49Z</time>
        <course>262.598854220241</course>
        <speed>8.31870780956947</speed>
      </trkpt>
      <trkpt lat="43.25494" lon="2.16496">
        <ele>136</ele>
        <time>2012-01-06T02:41:36Z</time>
        <course>254.796839268666</course>
        <speed>8.31590225583144</speed>
      </trkpt>
      <trkpt lat="43.25462" lon="2.16654">
        <ele>135</ele>
        <time>2012-01-06T02:41:52Z</time>
        <course>263.063345199248</course>
        <speed>8.31966531171006</speed>
      </trkpt>
      <trkpt lat="43.25446" lon="2.16831">
        <ele>135</ele>
        <time>2012-01-06T02:42:09Z</time>
        <course>205.013638587343</course>
        <speed>8.3480884960572</speed>
      </trkpt>
      <trkpt lat="43.25438" lon="2.16836">
        <ele>134</ele>
        <time>2012-01-06T02:42:10Z</time>
        <course>238.271704502004</course>
        <speed>8.30376313484157</speed>
      </trkpt>
      <trkpt lat="43.25432" lon="2.16849">
        <ele>134</ele>
        <time>2012-01-06T02:42:12Z</time>
        <course>287.685159426453</course>
        <speed>8.31654864355927</speed>
      </trkpt>
      <trkpt lat="43.25437" lon="2.1687">
        <ele>134</ele>
        <time>2012-01-06T02:42:14Z</time>
        <course>336.464877182985</course>
        <speed>8.32639688873649</speed>
      </trkpt>
      <trkpt lat="43.25449" lon="2.16877">
        <ele>134</ele>
        <time>2012-01-06T02:42:16Z</time>
        <course>284.240731619502</course>
        <speed>8.31991192460866</speed>
      </trkpt>
      <trkpt lat="43.2546" lon="2.16935">
        <ele>134</ele>
        <time>2012-01-06T02:42:21Z</time>
        <course>276.116304779435</course>
        <speed>8.31688220719363</speed>
      </trkpt>
      <trkpt lat="43.2548" lon="2.17183">
        <ele>134</ele>
        <time>2012-01-06T02:42:46Z</time>
        <course>269.352869726175</course>
        <speed>8.31665499311642</speed>
      </trkpt>
      <trkpt lat="43.25479" lon="2.17306">
        <ele>133</ele>
        <time>2012-01-06T02:42:58Z</time>
        <course>257.666499299985</course>
        <speed>8.32047629229756</speed>
      </trkpt>
      <trkpt lat="43.25464" lon="2.17398">
        <ele>133</ele>
        <time>2012-01-06T02:43:07Z</time>
        <course>251.698107875207</course>
        <speed>8.31806403757709</speed>
      </trkpt>
      <trkpt lat="43.25445" lon="2.17475">
        <ele>131</ele>
        <time>2012-01-06T02:43:15Z</time>
        <course>232.111800469847</course>
        <speed>8.32023332121323</speed>
      </trkpt>
      <trkpt lat="43.2538" lon="2.17587">
        <ele>130</ele>
        <time>2012-01-06T02:43:29Z</time>
        <course>264.156637880907</course>
        <speed>8.31825579676139</speed>
      </trkpt>
      <trkpt lat="43.25364" lon="2.17798">
        <ele>126</ele>
        <time>2012-01-06T02:43:49Z</time>
        <course>277.270573192039</course>
        <speed>8.32055891524645</speed>
      </trkpt>
      <trkpt lat="43.25366" lon="2.17819">
        <ele>125</ele>
        <time>2012-01-06T02:43:51Z</time>
        <course>294.877826320077</course>
        <speed>8.3206685874107</speed>
      </trkpt>
      <trkpt lat="43.25384" lon="2.17871">
        <ele>124</ele>
        <time>2012-01-06T02:43:57Z</time>
        <course>311.417721047705</course>
        <speed>8.31496812547693</speed>
      </trkpt>
      <trkpt lat="43.25411" lon="2.17912">
        <ele>123</ele>
        <time>2012-01-06T02:44:02Z</time>
        <course>321.341637444801</course>
        <speed>8.32609191548201</speed>
      </trkpt>
      <trkpt lat="43.25439" lon="2.17942">
        <ele>122</ele>
        <time>2012-01-06T02:44:07Z</time>
        <course>301.193337866085</course>
        <speed>8.31893235429745</speed>
      </trkpt>
      <trkpt lat="43.25477" lon="2.18026">
        <ele>120</ele>
        <time>2012-01-06T02:44:17Z</time>
        <course>294.045605204608</course>
        <speed>8.32045680784179</speed>
      </trkpt>
      <trkpt lat="43.25488" lon="2.18059">
        <ele>120</ele>
        <time>2012-01-06T02:44:20Z</time>
        <course>292.067121278975</course>
        <speed>8.31836649544021</speed>
      </trkpt>
      <trkpt lat="43.25542" lon="2.18237">
        <ele>120</ele>
        <time>2012-01-06T02:44:39Z</time>
        <course>286.149704384061</course>
        <speed>8.31880025883521</speed>
      </trkpt>
      <trkpt lat="43.25578" lon="2.18403">
        <ele>118</ele>
        <time>2012-01-06T02:44:56Z</time>
        <course>274.023963766692</course>
        <speed>8.33329120341758</speed>
      </trkpt>
      <trkpt lat="43.25579" lon="2.18422">
        <ele>118</ele>
        <time>2012-01-06T02:44:58Z</time>
        <course>287.498619783738</course>
        <speed>8.31839613150221</speed>
      </trkpt>
      <trkpt lat="43.2564" lon="2.1868">
        <ele>118</ele>
        <time>2012-01-06T02:45:24Z</time>
        <course>294.350950815898</course>
        <speed>5.32590899768806</speed>
      </trkpt>
      <trkpt lat="43.25661" lon="2.18742">
        <ele>119</ele>
        <time>2012-01-06T02:45:35Z</time>
        <course>298.77646825145</course>
        <speed>5.32371809369373</speed>
      </trkpt>
      <trkpt lat="43.25778" lon="2.19026">
        <ele>127</ele>
        <time>2012-01-06T02:46:24Z</time>
        <course>295.771328046506</course>
        <speed>6.2158779429426</speed>
      </trkpt>
      <trkpt lat="43.25849" lon="2.19222">
        <ele>130</ele>
        <time>2012-01-06T02:46:53Z</time>
        <course>261.563415506201</course>
        <speed>8.09621655799264</speed>
      </trkpt>
      <trkpt lat="43.25848" lon="2.19231">
        <ele>130</ele>
        <time>2012-01-06T02:46:54Z</time>
        <course>292.875861246124</course>
        <speed>8.07717217529506</speed>
      </trkpt>
      <trkpt lat="43.26087" lon="2.19981">
        <ele>131</ele>
        <time>2012-01-06T02:48:16Z</time>
        <course>284.175235853138</course>
        <speed>8.32060469541055</speed>
      </trkpt>
      <trkpt lat="43.26102" lon="2.2006">
        <ele>130</ele>
        <time>2012-01-06T02:48:24Z</time>
        <course>276.324192552393</course>
        <speed>8.31759995068588</speed>
      </trkpt>
      <trkpt lat="43.26119" lon="2.20263">
        <ele>129</ele>
        <time>2012-01-06T02:48:43Z</time>
        <course>272.076006743758</course>
        <speed>8.31590639120395</speed>
      </trkpt>
      <trkpt lat="43.26123" lon="2.20408">
        <ele>129</ele>
        <time>2012-01-06T02:48:58Z</time>
        <course>269.449233291186</course>
        <speed>8.3178721487377</speed>
      </trkpt>
      <trkpt lat="43.26121" lon="2.20718">
        <ele>129</ele>
        <time>2012-01-06T02:49:28Z</time>
        <course>274.324054768951</course>
        <speed>7.07587300008167</speed>
      </trkpt>
      <trkpt lat="43.26129" lon="2.20858">
        <ele>130</ele>
        <time>2012-01-06T02:49:44Z</time>
        <course>276.691533858048</course>
        <speed>8.31814175651843</speed>
      </trkpt>
      <trkpt lat="43.26158" lon="2.21184">
        <ele>129</ele>
        <time>2012-01-06T02:50:16Z</time>
        <course>267.871454819303</course>
        <speed>8.3172343836969</speed>
      </trkpt>
      <trkpt lat="43.26153" lon="2.21366">
        <ele>128</ele>
        <time>2012-01-06T02:50:33Z</time>
        <course>244.170090628695</course>
        <speed>8.29114846738473</speed>
      </trkpt>
      <trkpt lat="43.26149" lon="2.21377">
        <ele>127</ele>
        <time>2012-01-06T02:50:35Z</time>
        <course>262.2447119326</course>
        <speed>8.31936616830106</speed>
      </trkpt>
      <trkpt lat="43.26133" lon="2.21534">
        <ele>127</ele>
        <time>2012-01-06T02:50:50Z</time>
        <course>260.130743413539</course>
        <speed>8.31784976484496</speed>
      </trkpt>
      <trkpt lat="43.26089" lon="2.21873">
        <ele>127</ele>
        <time>2012-01-06T02:51:24Z</time>
        <course>259.613854382103</course>
        <speed>8.31913519147823</speed>
      </trkpt>
      <trkpt lat="43.26036" lon="2.22261">
        <ele>125</ele>
        <time>2012-01-06T02:52:02Z</time>
        <course>253.054806644598</course>
        <speed>8.31521234359476</speed>
      </trkpt>
      <trkpt lat="43.26028" lon="2.22296">
        <ele>124</ele>
        <time>2012-01-06T02:52:05Z</time>
        <course>263.340511417625</course>
        <speed>8.31522344486804</speed>
      </trkpt>
      <trkpt lat="43.26017" lon="2.22422">
        <ele>124</ele>
        <time>2012-01-06T02:52:18Z</time>
        <course>268.400175450243</course>
        <speed>8.31877392954467</speed>
      </trkpt>
      <trkpt lat="43.25998" lon="2.23455">
        <ele>123</ele>
        <time>2012-01-06T02:53:58Z</time>
        <course>266.810589724985</course>
        <speed>7.43955618598682</speed>
      </trkpt>
      <trkpt lat="43.25981" lon="2.23872">
        <ele>125</ele>
        <time>2012-01-06T02:54:44Z</time>
        <course>260.756379143943</course>
        <speed>8.31914946195609</speed>
      </trkpt>
      <trkpt lat="43.25923" lon="2.24352">
        <ele>125</ele>
        <time>2012-01-06T02:55:31Z</time>
        <course>247.370678369303</course>
        <speed>8.33704802969687</speed>
      </trkpt>
      <trkpt lat="43.25918" lon="2.24368">
        <ele>124</ele>
        <time>2012-01-06T02:55:33Z</time>
        <course>265.382252713662</course>
        <speed>8.31867183944511</speed>
      </trkpt>
      <trkpt lat="43.259" lon="2.24669">
        <ele>123</ele>
        <time>2012-01-06T02:56:02Z</time>
        <course>258.887530465639</course>
        <speed>8.31696371878152</speed>
      </trkpt>
      <trkpt lat="43.2589" lon="2.24737">
        <ele>123</ele>
        <time>2012-01-06T02:56:09Z</time>
        <course>252.720024472661</course>
        <speed>8.31772248365641</speed>
      </trkpt>
      <trkpt lat="43.25853" lon="2.24896">
        <ele>123</ele>
        <time>2012-01-06T02:56:25Z</time>
        <course>256.830467458888</course>
        <speed>8.31596914300632</speed>
      </trkpt>
      <trkpt lat="43.25832" lon="2.25016">
        <ele>123</ele>
        <time>2012-01-06T02:56:37Z</time>
        <course>261.198947675607</course>
        <speed>8.31792395267107</speed>
      </trkpt>
      <trkpt lat="43.25805" lon="2.2525">
        <ele>122</ele>
        <time>2012-01-06T02:57:00Z</time>
        <course>264.614706901012</course>
        <speed>8.31982970858579</speed>
      </trkpt>
      <trkpt lat="43.25793" lon="2.25421">
        <ele>120</ele>
        <time>2012-01-06T02:57:17Z</time>
        <course>259.287617258693</course>
        <speed>8.31939669545013</speed>
      </trkpt>
      <trkpt lat="43.25779" lon="2.2552">
        <ele>118</ele>
        <time>2012-01-06T02:57:27Z</time>
        <course>253.576363135107</course>
        <speed>8.31599363946033</speed>
      </trkpt>
      <trkpt lat="43.25742" lon="2.25688">
        <ele>116</ele>
        <time>2012-01-06T02:57:44Z</time>
        <course>250.378326188592</course>
        <speed>8.3183847101775</speed>
      </trkpt>
      <trkpt lat="43.25693" lon="2.25872">
        <ele>115</ele>
        <time>2012-01-06T02:58:03Z</time>
        <course>240.055632976172</course>
        <speed>8.31505431386771</speed>
      </trkpt>
      <trkpt lat="43.25665" lon="2.25937">
        <ele>112</ele>
        <time>2012-01-06T02:58:10Z</time>
        <course>232.346468482264</course>
        <speed>8.32347108014406</speed>
      </trkpt>
      <trkpt lat="43.25635" lon="2.25989">
        <ele>110</ele>
        <time>2012-01-06T02:58:17Z</time>
        <course>239.414073764562</course>
        <speed>7.45475599225903</speed>
      </trkpt>
      <trkpt lat="43.25616" lon="2.26032">
        <ele>110</ele>
        <time>2012-01-06T02:58:22Z</time>
        <course>248.711876230107</course>
        <speed>7.45259815671126</speed>
      </trkpt>
      <trkpt lat="43.25515" lon="2.2638">
        <ele>112</ele>
        <time>2012-01-06T02:59:03Z</time>
        <course>225.228034611976</course>
        <speed>6.24135143724078</speed>
      </trkpt>
      <trkpt lat="43.25438" lon="2.26484">
        <ele>114</ele>
        <time>2012-01-06T02:59:22Z</time>
        <course>241.113160289103</course>
        <speed>6.18584553010061</speed>
      </trkpt>
      <trkpt lat="43.25424" lon="2.26518">
        <ele>114</ele>
        <time>2012-01-06T02:59:27Z</time>
        <course>251.241241557225</course>
        <speed>6.18622930842333</speed>
      </trkpt>
      <trkpt lat="43.25382" lon="2.26684">
        <ele>117</ele>
        <time>2012-01-06T02:59:50Z</time>
        <course>255.169000209195</course>
        <speed>5.28411583322993</speed>
      </trkpt>
      <trkpt lat="43.25367" lon="2.2676">
        <ele>118</ele>
        <time>2012-01-06T03:00:02Z</time>
        <course>257.362446680096</course>
        <speed>5.28370682590679</speed>
      </trkpt>
      <trkpt lat="43.25255" lon="2.27437">
        <ele>135</ele>
        <time>2012-01-06T03:01:49Z</time>
        <course>251.206035535297</course>
        <speed>7.25117775999313</speed>
      </trkpt>
      <trkpt lat="43.25215" lon="2.27595">
        <ele>136</ele>
        <time>2012-01-06T03:02:07Z</time>
        <course>243.456868800492</course>
        <speed>6.76579217944324</speed>
      </trkpt>
      <trkpt lat="43.25073" lon="2.27978">
        <ele>140</ele>
        <time>2012-01-06T03:02:59Z</time>
        <course>250.2267310611</course>
        <speed>7.6600672954278</speed>
      </trkpt>
      <trkpt lat="43.25001" lon="2.28248">
        <ele>141</ele>
        <time>2012-01-06T03:03:29Z</time>
        <course>241.894258942153</course>
        <speed>7.05353256669743</speed>
      </trkpt>
      <trkpt lat="43.24953" lon="2.28369">
        <ele>142</ele>
        <time>2012-01-06T03:03:45Z</time>
        <course>238.047581508635</course>
        <speed>8.31804349551647</speed>
      </trkpt>
      <trkpt lat="43.24777" lon="2.2875">
        <ele>130</ele>
        <time>2012-01-06T03:04:29Z</time>
        <course>241.554733231078</course>
        <speed>8.31611959553272</speed>
      </trkpt>
      <trkpt lat="43.24724" lon="2.28882">
        <ele>128</ele>
        <time>2012-01-06T03:04:43Z</time>
        <course>244.048671311443</course>
        <speed>8.31769563539285</speed>
      </trkpt>
      <trkpt lat="43.24592" lon="2.29249">
        <ele>121</ele>
        <time>2012-01-06T03:05:23Z</time>
        <course>248.464800870574</course>
        <speed>8.31780976950415</speed>
      </trkpt>
      <trkpt lat="43.24495" lon="2.29582">
        <ele>118</ele>
        <time>2012-01-06T03:05:58Z</time>
        <course>251.215560367049</course>
        <speed>5.38759093166547</speed>
      </trkpt>
      <trkpt lat="43.24409" lon="2.29925">
        <ele>126</ele>
        <time>2012-01-06T03:06:53Z</time>
        <course>242.443214622097</course>
        <speed>5.75015832484839</speed>
      </trkpt>
      <trkpt lat="43.24382" lon="2.29995">
        <ele>127</ele>
        <time>2012-01-06T03:07:04Z</time>
        <course>237.414872582393</course>
        <speed>5.75239175254483</speed>
      </trkpt>
      <trkpt lat="43.24282" lon="2.30207">
        <ele>132</ele>
        <time>2012-01-06T03:07:39Z</time>
        <course>244.172142474127</course>
        <speed>8.3155778297345</speed>
      </trkpt>
      <trkpt lat="43.24237" lon="2.30333">
        <ele>129</ele>
        <time>2012-01-06T03:07:53Z</time>
        <course>249.584696811957</course>
        <speed>8.31838607664863</speed>
      </trkpt>
      <trkpt lat="43.24145" lon="2.30669">
        <ele>120</ele>
        <time>2012-01-06T03:08:28Z</time>
        <course>250.564889248596</course>
        <speed>8.31766031095489</speed>
      </trkpt>
      <trkpt lat="43.24038" lon="2.31082">
        <ele>115</ele>
        <time>2012-01-06T03:09:11Z</time>
        <course>234.598347041067</course>
        <speed>8.3085952111033</speed>
      </trkpt>
      <trkpt lat="43.24027" lon="2.31103">
        <ele>114</ele>
        <time>2012-01-06T03:09:13Z</time>
        <course>248.396913393948</course>
        <speed>8.31648376263988</speed>
      </trkpt>
      <trkpt lat="43.23983" lon="2.31254">
        <ele>109</ele>
        <time>2012-01-06T03:09:29Z</time>
        <course>241.356283997921</course>
        <speed>8.31975892205954</speed>
      </trkpt>
      <trkpt lat="43.23944" lon="2.31351">
        <ele>105</ele>
        <time>2012-01-06T03:09:40Z</time>
        <course>240.231196273966</course>
        <speed>8.31427433790985</speed>
      </trkpt>
      <trkpt lat="43.2392" lon="2.31408">
        <ele>103</ele>
        <time>2012-01-06T03:09:46Z</time>
        <course>235.030061724067</course>
        <speed>8.32096657348347</speed>
      </trkpt>
      <trkpt lat="43.23885" lon="2.31476">
        <ele>102</ele>
        <time>2012-01-06T03:09:54Z</time>
        <course>230.813742322309</course>
        <speed>8.32323424067538</speed>
      </trkpt>
      <trkpt lat="43.23876" lon="2.31491">
        <ele>102</ele>
        <time>2012-01-06T03:09:56Z</time>
        <course>206.838052769862</course>
        <speed>8.31987355594259</speed>
      </trkpt>
      <trkpt lat="43.2386" lon="2.31502">
        <ele>102</ele>
        <time>2012-01-06T03:09:58Z</time>
        <course>252.454972627245</course>
        <speed>8.32343242148212</speed>
      </trkpt>
      <trkpt lat="43.2385" lon="2.31545">
        <ele>101</ele>
        <time>2012-01-06T03:10:03Z</time>
        <course>229.309112620358</course>
        <speed>8.32105198323957</speed>
      </trkpt>
      <trkpt lat="43.23807" lon="2.31613">
        <ele>101</ele>
        <time>2012-01-06T03:10:12Z</time>
        <course>223.761433202675</course>
        <speed>8.31589294075337</speed>
      </trkpt>
      <trkpt lat="43.23741" lon="2.31699">
        <ele>100</ele>
        <time>2012-01-06T03:10:24Z</time>
        <course>215.07924281596</course>
        <speed>5.49981926645257</speed>
      </trkpt>
      <trkpt lat="43.23626" lon="2.31809">
        <ele>104</ele>
        <time>2012-01-06T03:10:52Z</time>
        <course>210.976341820418</course>
        <speed>7.8725060067501</speed>
      </trkpt>
      <trkpt lat="43.23354" lon="2.32032">
        <ele>105</ele>
        <time>2012-01-06T03:11:37Z</time>
        <course>215.787035811745</course>
        <speed>8.31939439367329</speed>
      </trkpt>
      <trkpt lat="43.23288" lon="2.32097">
        <ele>103</ele>
        <time>2012-01-06T03:11:48Z</time>
        <course>222.005228419074</course>
        <speed>8.3154940494278</speed>
      </trkpt>
      <trkpt lat="43.23249" lon="2.32145">
        <ele>103</ele>
        <time>2012-01-06T03:11:55Z</time>
        <course>226.616506935762</course>
        <speed>8.3206415428912</speed>
      </trkpt>
      <trkpt lat="43.23202" lon="2.32213">
        <ele>102</ele>
        <time>2012-01-06T03:12:04Z</time>
        <course>233.096770378883</course>
        <speed>8.31193572665792</speed>
      </trkpt>
      <trkpt lat="43.23174" lon="2.32264">
        <ele>102</ele>
        <time>2012-01-06T03:12:10Z</time>
        <course>237.701013302397</course>
        <speed>8.31879852800324</speed>
      </trkpt>
      <trkpt lat="43.23096" lon="2.32433">
        <ele>100</ele>
        <time>2012-01-06T03:12:30Z</time>
        <course>234.388571597624</course>
        <speed>7.04161460641563</speed>
      </trkpt>
      <trkpt lat="43.23062" lon="2.32498">
        <ele>100</ele>
        <time>2012-01-06T03:12:39Z</time>
        <course>227.226960863173</course>
        <speed>7.04535060236738</speed>
      </trkpt>
      <trkpt lat="43.22697" lon="2.33041">
        <ele>106</ele>
        <time>2012-01-06T03:14:04Z</time>
        <course>224.141936888431</course>
        <speed>4.84145493013936</speed>
      </trkpt>
      <trkpt lat="43.22679" lon="2.33065">
        <ele>107</ele>
        <time>2012-01-06T03:14:09Z</time>
        <course>205.07407649223</course>
        <speed>4.83913412029465</speed>
      </trkpt>
      <trkpt lat="43.22665" lon="2.33074">
        <ele>107</ele>
        <time>2012-01-06T03:14:13Z</time>
        <course>178.332805118874</course>
        <speed>4.84177647302248</speed>
      </trkpt>
      <trkpt lat="43.2264" lon="2.33073">
        <ele>108</ele>
        <time>2012-01-06T03:14:19Z</time>
        <course>213.884598168313</course>
        <speed>4.84935079032343</speed>
      </trkpt>
      <trkpt lat="43.22627" lon="2.33085">
        <ele>109</ele>
        <time>2012-01-06T03:14:22Z</time>
        <course>237.999504798437</course>
        <speed>4.83749963846157</speed>
      </trkpt>
      <trkpt lat="43.22617" lon="2.33107">
        <ele>110</ele>
        <time>2012-01-06T03:14:27Z</time>
        <course>274.242026874386</course>
        <speed>5.85586039748154</speed>
      </trkpt>
      <trkpt lat="43.22619" lon="2.33144">
        <ele>110</ele>
        <time>2012-01-06T03:14:32Z</time>
        <course>236.36402343551</course>
        <speed>5.86194595725616</speed>
      </trkpt>
      <trkpt lat="43.22604" lon="2.33175">
        <ele>111</ele>
        <time>2012-01-06T03:14:37Z</time>
        <course>226.184391204838</course>
        <speed>5.85846812415109</speed>
      </trkpt>
      <trkpt lat="43.22464" lon="2.33376">
        <ele>116</ele>
        <time>2012-01-06T03:15:15Z</time>
        <course>214.671026690744</course>
        <speed>7.69752594387584</speed>
      </trkpt>
      <trkpt lat="43.22443" lon="2.33396">
        <ele>116</ele>
        <time>2012-01-06T03:15:19Z</time>
        <course>194.793069199188</course>
        <speed>7.71037985836213</speed>
      </trkpt>
      <trkpt lat="43.22432" lon="2.334">
        <ele>116</ele>
        <time>2012-01-06T03:15:21Z</time>
        <course>261.297715795773</course>
        <speed>7.71894964012525</speed>
      </trkpt>
      <trkpt lat="43.2243" lon="2.33418">
        <ele>116</ele>
        <time>2012-01-06T03:15:23Z</time>
        <course>239.449783612748</course>
        <speed>7.69076657638754</speed>
      </trkpt>
      <trkpt lat="43.22424" lon="2.33432">
        <ele>116</ele>
        <time>2012-01-06T03:15:24Z</time>
        <course>228.094519324924</course>
        <speed>7.7005043374525</speed>
      </trkpt>
      <trkpt lat="43.22316" lon="2.33598">
        <ele>117</ele>
        <time>2012-01-06T03:15:48Z</time>
        <course>254.583382256691</course>
        <speed>7.23851184757432</speed>
      </trkpt>
      <trkpt lat="43.22313" lon="2.33613">
        <ele>117</ele>
        <time>2012-01-06T03:15:49Z</time>
        <course>232.204799385805</course>
        <speed>7.24182204478982</speed>
      </trkpt>
      <trkpt lat="43.22304" lon="2.33629">
        <ele>117</ele>
        <time>2012-01-06T03:15:52Z</time>
        <course>228.281477024673</course>
        <speed>7.25405446828333</speed>
      </trkpt>
      <trkpt lat="43.21997" lon="2.34106">
        <ele>121</ele>
        <time>2012-01-06T03:17:03Z</time>
        <course>232.067299550755</course>
        <speed>8.3178101868263</speed>
      </trkpt>
      <trkpt lat="43.2193" lon="2.34225">
        <ele>121</ele>
        <time>2012-01-06T03:17:17Z</time>
        <course>236.363370527287</course>
        <speed>8.32036588037549</speed>
      </trkpt>
      <trkpt lat="43.21881" lon="2.34327">
        <ele>120</ele>
        <time>2012-01-06T03:17:29Z</time>
        <course>203.433589532752</course>
        <speed>8.30670701413996</speed>
      </trkpt>
      <trkpt lat="43.21876" lon="2.3433">
        <ele>120</ele>
        <time>2012-01-06T03:17:30Z</time>
        <course>262.825157466189</course>
        <speed>6.06529194271905</speed>
      </trkpt>
      <trkpt lat="43.21875" lon="2.34341">
        <ele>120</ele>
        <time>2012-01-06T03:17:31Z</time>
        <course>218.042089349761</course>
        <speed>6.04592068836522</speed>
      </trkpt>
      <trkpt lat="43.21863" lon="2.34354">
        <ele>120</ele>
        <time>2012-01-06T03:17:34Z</time>
        <course>236.266942061536</course>
        <speed>6.04953301434606</speed>
      </trkpt>
      <trkpt lat="43.21823" lon="2.34437">
        <ele>122</ele>
        <time>2012-01-06T03:17:48Z</time>
        <course>232.478774146604</course>
        <speed>8.31787131589584</speed>
      </trkpt>
      <trkpt lat="43.21782" lon="2.34511">
        <ele>120</ele>
        <time>2012-01-06T03:17:57Z</time>
        <course>193.522985847953</course>
        <speed>8.3118997859904</speed>
      </trkpt>
      <trkpt lat="43.21749" lon="2.34522">
        <ele>119</ele>
        <time>2012-01-06T03:18:01Z</time>
        <course>178.629416532374</course>
        <speed>7.35892518274203</speed>
      </trkpt>
      <trkpt lat="43.2106" lon="2.34499">
        <ele>124</ele>
        <time>2012-01-06T03:19:45Z</time>
        <course>256.423194794916</course>
        <speed>8.31800712032163</speed>
      </trkpt>
      <trkpt lat="43.21031" lon="2.34667">
        <ele>124</ele>
        <time>2012-01-06T03:20:02Z</time>
        <course>270.733924683282</course>
        <speed>8.31725117217819</speed>
      </trkpt>
      <trkpt lat="43.21034" lon="2.34969">
        <ele>116</ele>
        <time>2012-01-06T03:20:31Z</time>
        <course>3.51208962690835</course>
        <speed>7.44196245575209</speed>
      </trkpt>
      <trkpt lat="43.21186" lon="2.34956">
        <ele>117</ele>
        <time>2012-01-06T03:20:54Z</time>
        <course>270.407647581149</course>
        <speed>8.31610193858415</speed>
      </trkpt>
      <trkpt lat="43.21187" lon="2.35136">
        <ele>115</ele>
        <time>2012-01-06T03:21:12Z</time>
        <course>2.24394952252315</course>
        <speed>8.31601275194715</speed>
      </trkpt>
      <trkpt lat="43.21297" lon="2.3513">
        <ele>113</ele>
        <time>2012-01-06T03:21:26Z</time>
        <course>3.7373146922905</course>
        <speed>8.30508434222084</speed>
      </trkpt>
      <trkpt lat="43.21319" lon="2.35128">
        <ele>113</ele>
        <time>2012-01-06T03:21:29Z</time>
        <course>3.7373146922905</course>
        <speed>8.30508434222084</speed>
      </trkpt>
      <trkpt lat="43.21319" lon="2.35128">
        <ele>113</ele>
        <time>2012-01-06T03:21:30Z</time>
        <course>3.7373146922905</course>
        <speed>8.30508434222084</speed>
      </trkpt>
      <trkpt lat="43.21319" lon="2.35128">
        <ele>113</ele>
        <time>2012-01-06T03:21:31Z</time>
        <course>3.42744141343888</course>
        <speed>8.3233459369884</speed>
      </trkpt>
      <trkpt lat="43.21343" lon="2.35126">
        <ele>112</ele>
        <time>2012-01-06T03:21:35Z</time>
        <course>269.980678090152</course>
        <speed>8.32156852744694</speed>
      </trkpt>
      <trkpt lat="43.21343" lon="2.35223">
        <ele>111</ele>
        <time>2012-01-06T03:21:44Z</time>
        <course>270.431007183962</course>
        <speed>8.31839387446237</speed>
      </trkpt>
      <trkpt lat="43.21345" lon="2.35545">
        <ele>108</ele>
        <time>2012-01-06T03:22:15Z</time>
        <course>20.3039092585805</course>
        <speed>8.31749652147194</speed>
      </trkpt>
      <trkpt lat="43.21606" lon="2.35411">
        <ele>108</ele>
        <time>2012-01-06T03:22:53Z</time>
        <course>25.9935117537108</course>
        <speed>8.32460881119411</speed>
      </trkpt>
      <trkpt lat="43.2164" lon="2.35388">
        <ele>108</ele>
        <time>2012-01-06T03:22:58Z</time>
        <course>19.8293953789507</course>
        <speed>8.31891120521866</speed>
      </trkpt>
      <trkpt lat="43.217" lon="2.35358">
        <ele>108</ele>
        <time>2012-01-06T03:23:06Z</time>
        <course>4.58413257525253</course>
        <speed>8.32165027249093</speed>
      </trkpt>
      <trkpt lat="43.21763" lon="2.35351">
        <ele>107</ele>
        <time>2012-01-06T03:23:15Z</time>
        <course>335.722427950096</course>
        <speed>8.34895311316235</speed>
      </trkpt>
      <trkpt lat="43.21771" lon="2.35356">
        <ele>107</ele>
        <time>2012-01-06T03:23:16Z</time>
        <course>50.2610243608553</course>
        <speed>8.32494975147133</speed>
      </trkpt>
      <trkpt lat="43.21774" lon="2.35351">
        <ele>107</ele>
        <time>2012-01-06T03:23:16Z</time>
        <course>334.411943524841</course>
        <speed>8.31783128832312</speed>
      </trkpt>
      <trkpt lat="43.21931" lon="2.35455">
        <ele>107</ele>
        <time>2012-01-06T03:23:40Z</time>
        <course>332.536618144781</course>
        <speed>7.35765746495448</speed>
      </trkpt>
      <trkpt lat="43.22175" lon="2.3563">
        <ele>109</ele>
        <time>2012-01-06T03:24:21Z</time>
        <course>318.651407931308</course>
        <speed>6.92423180345941</speed>
      </trkpt>
      <trkpt lat="43.22203" lon="2.35664">
        <ele>109</ele>
        <time>2012-01-06T03:24:27Z</time>
        <course>310.215529563328</course>
        <speed>6.91986889260347</speed>
      </trkpt>
      <trkpt lat="43.22222" lon="2.35695">
        <ele>109</ele>
        <time>2012-01-06T03:24:32Z</time>
        <course>301.510276870643</course>
        <speed>6.92118382422769</speed>
      </trkpt>
      <trkpt lat="43.22234" lon="2.35722">
        <ele>110</ele>
        <time>2012-01-06T03:24:36Z</time>
        <course>293.296006716827</course>
        <speed>6.92473356836892</speed>
      </trkpt>
      <trkpt lat="43.22269" lon="2.35834">
        <ele>111</ele>
        <time>2012-01-06T03:24:50Z</time>
        <course>291.369007711274</course>
        <speed>8.31937198633898</speed>
      </trkpt>
      <trkpt lat="43.22379" lon="2.3622">
        <ele>111</ele>
        <time>2012-01-06T03:25:30Z</time>
        <course>284.473590108336</course>
        <speed>6.54686679363547</speed>
      </trkpt>
      <trkpt lat="43.22388" lon="2.36268">
        <ele>111</ele>
        <time>2012-01-06T03:25:36Z</time>
        <course>276.625899449585</course>
        <speed>6.54693404285189</speed>
      </trkpt>
      <trkpt lat="43.22394" lon="2.36339">
        <ele>112</ele>
        <time>2012-01-06T03:25:45Z</time>
        <course>269.987981776646</course>
        <speed>6.5420442682576</speed>
      </trkpt>
      <trkpt lat="43.22394" lon="2.364">
        <ele>113</ele>
        <time>2012-01-06T03:25:53Z</time>
        <course>266.30834993864</course>
        <speed>8.31754075936971</speed>
      </trkpt>
      <trkpt lat="43.22384" lon="2.36616">
        <ele>106</ele>
        <time>2012-01-06T03:26:14Z</time>
        <course>280.228718458324</course>
        <speed>8.32273254444821</speed>
      </trkpt>
      <trkpt lat="43.22392" lon="2.36677">
        <ele>104</ele>
        <time>2012-01-06T03:26:20Z</time>
        <course>293.496016125151</course>
        <speed>8.3142510510299</speed>
      </trkpt>
      <trkpt lat="43.2241" lon="2.36734">
        <ele>103</ele>
        <time>2012-01-06T03:26:26Z</time>
        <course>306.774554257565</course>
        <speed>8.31522468377507</speed>
      </trkpt>
      <trkpt lat="43.22429" lon="2.36769">
        <ele>102</ele>
        <time>2012-01-06T03:26:30Z</time>
        <course>316.169054652222</course>
        <speed>5.23547137470097</speed>
      </trkpt>
      <trkpt lat="43.22457" lon="2.36806">
        <ele>103</ele>
        <time>2012-01-06T03:26:38Z</time>
        <course>328.801856420426</course>
        <speed>5.23498364346032</speed>
      </trkpt>
      <trkpt lat="43.22493" lon="2.36836">
        <ele>104</ele>
        <time>2012-01-06T03:26:47Z</time>
        <course>344.677327323862</course>
        <speed>5.23439247163909</speed>
      </trkpt>
      <trkpt lat="43.22562" lon="2.36862">
        <ele>107</ele>
        <time>2012-01-06T03:27:03Z</time>
        <course>349.592614575519</course>
        <speed>8.32012988142347</speed>
      </trkpt>
      <trkpt lat="43.22669" lon="2.36889">
        <ele>106</ele>
        <time>2012-01-06T03:27:17Z</time>
        <course>331.591182890379</course>
        <speed>6.95344358056397</speed>
      </trkpt>
      <trkpt lat="43.22704" lon="2.36915">
        <ele>106</ele>
        <time>2012-01-06T03:27:24Z</time>
        <course>317.684959784106</course>
        <speed>6.95040545827875</speed>
      </trkpt>
      <trkpt lat="43.22728" lon="2.36945">
        <ele>106</ele>
        <time>2012-01-06T03:27:29Z</time>
        <course>308.113787291446</course>
        <speed>6.94793018951699</speed>
      </trkpt>
      <trkpt lat="43.2274" lon="2.36966">
        <ele>107</ele>
        <time>2012-01-06T03:27:32Z</time>
        <course>297.051246347088</course>
        <speed>8.31755890794893</speed>
      </trkpt>
      <trkpt lat="43.22756" lon="2.37009">
        <ele>106</ele>
        <time>2012-01-06T03:27:37Z</time>
        <course>283.418123883025</course>
        <speed>8.32406907900092</speed>
      </trkpt>
      <trkpt lat="43.22764" lon="2.37055">
        <ele>106</ele>
        <time>2012-01-06T03:27:41Z</time>
        <course>277.967007680963</course>
        <speed>8.31863081174252</speed>
      </trkpt>
      <trkpt lat="43.22788" lon="2.37289">
        <ele>106</ele>
        <time>2012-01-06T03:28:04Z</time>
        <course>289.995622923818</course>
        <speed>8.31129487010253</speed>
      </trkpt>
      <trkpt lat="43.22801" lon="2.37338">
        <ele>105</ele>
        <time>2012-01-06T03:28:09Z</time>
        <course>297.527152598545</course>
        <speed>8.31649051316264</speed>
      </trkpt>
      <trkpt lat="43.2282" lon="2.37388">
        <ele>105</ele>
        <time>2012-01-06T03:28:15Z</time>
        <course>308.831038288644</course>
        <speed>8.31745313560975</speed>
      </trkpt>
      <trkpt lat="43.22847" lon="2.37434">
        <ele>105</ele>
        <time>2012-01-06T03:28:20Z</time>
        <course>321.350923567947</course>
        <speed>8.31835194990526</speed>
      </trkpt>
      <trkpt lat="43.22899" lon="2.37491">
        <ele>104</ele>
        <time>2012-01-06T03:28:29Z</time>
        <course>336.270218053914</course>
        <speed>8.31566244921846</speed>
      </trkpt>
      <trkpt lat="43.22997" lon="2.3755">
        <ele>104</ele>
        <time>2012-01-06T03:28:44Z</time>
        <course>329.704798949273</course>
        <speed>8.30872466283681</speed>
      </trkpt>
      <trkpt lat="43.23022" lon="2.3757">
        <ele>102</ele>
        <time>2012-01-06T03:28:47Z</time>
        <course>291.925793333777</course>
        <speed>8.32304700663984</speed>
      </trkpt>
      <trkpt lat="43.23037" lon="2.37621">
        <ele>101</ele>
        <time>2012-01-06T03:28:53Z</time>
        <course>269.995303710842</course>
        <speed>8.30386284726715</speed>
      </trkpt>
      <trkpt lat="43.23037" lon="2.37645">
        <ele>100</ele>
        <time>2012-01-06T03:28:55Z</time>
        <course>302.286374524619</course>
        <speed>8.30609276949932</speed>
      </trkpt>
      <trkpt lat="43.23043" lon="2.37658">
        <ele>100</ele>
        <time>2012-01-06T03:28:57Z</time>
        <course>327.003376168315</course>
        <speed>5.34305551405573</speed>
      </trkpt>
      <trkpt lat="43.23052" lon="2.37666">
        <ele>100</ele>
        <time>2012-01-06T03:28:59Z</time>
        <course>348.473307241178</course>
        <speed>5.33471794964582</speed>
      </trkpt>
      <trkpt lat="43.23095" lon="2.37678">
        <ele>101</ele>
        <time>2012-01-06T03:29:08Z</time>
        <course>13.6919630211978</course>
        <speed>5.34346700195191</speed>
      </trkpt>
      <trkpt lat="43.2311" lon="2.37673">
        <ele>102</ele>
        <time>2012-01-06T03:29:11Z</time>
        <course>66.4793132277292</course>
        <speed>5.33954036833605</speed>
      </trkpt>
      <trkpt lat="43.23117" lon="2.37651">
        <ele>102</ele>
        <time>2012-01-06T03:29:15Z</time>
        <course>83.046634499217</course>
        <speed>5.33617273892823</speed>
      </trkpt>
      <trkpt lat="43.23122" lon="2.37595">
        <ele>104</ele>
        <time>2012-01-06T03:29:23Z</time>
        <course>68.0010588102795</course>
        <speed>8.32046600600057</speed>
      </trkpt>
      <trkpt lat="43.23135" lon="2.37551">
        <ele>103</ele>
        <time>2012-01-06T03:29:28Z</time>
        <course>42.9398764474209</course>
        <speed>8.33485646131157</speed>
      </trkpt>
      <trkpt lat="43.23146" lon="2.37537">
        <ele>103</ele>
        <time>2012-01-06T03:29:30Z</time>
        <course>11.036869916188</course>
        <speed>8.32337490116985</speed>
      </trkpt>
      <trkpt lat="43.23191" lon="2.37525">
        <ele>103</ele>
        <time>2012-01-06T03:29:36Z</time>
        <course>29.8893591383373</course>
        <speed>8.33745761149086</speed>
      </trkpt>
      <trkpt lat="43.23205" lon="2.37514">
        <ele>103</ele>
        <time>2012-01-06T03:29:38Z</time>
        <course>55.651717990054</course>
        <speed>5.27594057727108</speed>
      </trkpt>
      <trkpt lat="43.23214" lon="2.37496">
        <ele>103</ele>
        <time>2012-01-06T03:29:42Z</time>
        <course>66.6567046581418</course>
        <speed>5.28870137966674</speed>
      </trkpt>
      <trkpt lat="43.2322" lon="2.37477">
        <ele>103</ele>
        <time>2012-01-06T03:29:45Z</time>
        <course>99.0722773324628</course>
        <speed>5.2784329095501</speed>
      </trkpt>
      <trkpt lat="43.23213" lon="2.37417">
        <ele>105</ele>
        <time>2012-01-06T03:29:54Z</time>
        <course>83.5062242198983</course>
        <speed>5.28571825572431</speed>
      </trkpt>
      <trkpt lat="43.23215" lon="2.37393">
        <ele>105</ele>
        <time>2012-01-06T03:29:58Z</time>
        <course>46.7886855046035</course>
        <speed>5.27709444676509</speed>
      </trkpt>
      <trkpt lat="43.23237" lon="2.37361">
        <ele>107</ele>
        <time>2012-01-06T03:30:05Z</time>
        <course>19.3524382823541</course>
        <speed>8.31782161811033</speed>
      </trkpt>
      <trkpt lat="43.23647" lon="2.37165">
        <ele>105</ele>
        <time>2012-01-06T03:31:03Z</time>
        <course>13.2875571198362</course>
        <speed>8.32168925420547</speed>
      </trkpt>
      <trkpt lat="43.23675" lon="2.37156">
        <ele>104</ele>
        <time>2012-01-06T03:31:06Z</time>
        <course>358.086860001013</course>
        <speed>8.31965995171633</speed>
      </trkpt>
      <trkpt lat="43.23697" lon="2.37157">
        <ele>103</ele>
        <time>2012-01-06T03:31:09Z</time>
        <course>335.164305764311</course>
        <speed>8.31440426918012</speed>
      </trkpt>
      <trkpt lat="43.23724" lon="2.37174">
        <ele>102</ele>
        <time>2012-01-06T03:31:13Z</time>
        <course>298.932059190265</course>
        <speed>8.31992210838687</speed>
      </trkpt>
      <trkpt lat="43.23772" lon="2.37292">
        <ele>100</ele>
        <time>2012-01-06T03:31:27Z</time>
        <course>303.32894786075</course>
        <speed>8.32220158020024</speed>
      </trkpt>
      <trkpt lat="43.23802" lon="2.37354">
        <ele>98</ele>
        <time>2012-01-06T03:31:34Z</time>
        <course>308.261632820581</course>
        <speed>8.32091199414159</speed>
      </trkpt>
      <trkpt lat="43.23856" lon="2.37447">
        <ele>96</ele>
        <time>2012-01-06T03:31:45Z</time>
        <course>301.673035664165</course>
        <speed>8.31812180681299</speed>
      </trkpt>
      <trkpt lat="43.23952" lon="2.37658">
        <ele>95</ele>
        <time>2012-01-06T03:32:10Z</time>
        <course>303.640282599435</course>
        <speed>6.51310264412401</speed>
      </trkpt>
      <trkpt lat="43.24097" lon="2.37953">
        <ele>99</ele>
        <time>2012-01-06T03:32:54Z</time>
        <course>310.567997071831</course>
        <speed>6.36117712869236</speed>
      </trkpt>
      <trkpt lat="43.24109" lon="2.37972">
        <ele>99</ele>
        <time>2012-01-06T03:32:57Z</time>
        <course>322.702458658192</course>
        <speed>6.35691028038795</speed>
      </trkpt>
      <trkpt lat="43.2414" lon="2.38004">
        <ele>99</ele>
        <time>2012-01-06T03:33:04Z</time>
        <course>336.68952616823</course>
        <speed>6.35455478485609</speed>
      </trkpt>
      <trkpt lat="43.24248" lon="2.38067">
        <ele>102</ele>
        <time>2012-01-06T03:33:24Z</time>
        <course>327.725940877746</course>
        <speed>8.32254812444898</speed>
      </trkpt>
      <trkpt lat="43.24303" lon="2.38114">
        <ele>102</ele>
        <time>2012-01-06T03:33:33Z</time>
        <course>323.532856251991</course>
        <speed>8.3125505846963</speed>
      </trkpt>
      <trkpt lat="43.24316" lon="2.38127">
        <ele>102</ele>
        <time>2012-01-06T03:33:35Z</time>
        <course>286.386434308292</course>
        <speed>8.30292851759522</speed>
      </trkpt>
      <trkpt lat="43.24321" lon="2.3815">
        <ele>102</ele>
        <time>2012-01-06T03:33:37Z</time>
        <course>276.089679164756</course>
        <speed>6.55496555306037</speed>
      </trkpt>
      <trkpt lat="43.24324" lon="2.38188">
        <ele>102</ele>
        <time>2012-01-06T03:33:42Z</time>
        <course>309.579976973463</course>
        <speed>6.5580460483134</speed>
      </trkpt>
      <trkpt lat="43.24335" lon="2.38206">
        <ele>102</ele>
        <time>2012-01-06T03:33:45Z</time>
        <course>329.399685542294</course>
        <speed>6.56183353462346</speed>
      </trkpt>
      <trkpt lat="43.24345" lon="2.38214">
        <ele>102</ele>
        <time>2012-01-06T03:33:47Z</time>
        <course>342.878331708225</course>
        <speed>6.57315237622242</speed>
      </trkpt>
      <trkpt lat="43.24357" lon="2.38219">
        <ele>103</ele>
        <time>2012-01-06T03:33:49Z</time>
        <course>8.01743981693493</course>
        <speed>6.56232710429636</speed>
      </trkpt>
      <trkpt lat="43.24378" lon="2.38215">
        <ele>103</ele>
        <time>2012-01-06T03:33:53Z</time>
        <course>36.4868061598523</course>
        <speed>6.56602744627727</speed>
      </trkpt>
      <trkpt lat="43.24394" lon="2.38199">
        <ele>103</ele>
        <time>2012-01-06T03:33:56Z</time>
        <course>360</course>
        <speed>6.55253071256276</speed>
      </trkpt>
      <trkpt lat="43.24418" lon="2.38199">
        <ele>104</ele>
        <time>2012-01-06T03:34:00Z</time>
        <course>347.306862785441</course>
        <speed>5.72825977065939</speed>
      </trkpt>
      <trkpt lat="43.24464" lon="2.38213">
        <ele>105</ele>
        <time>2012-01-06T03:34:09Z</time>
        <course>332.180946498083</course>
        <speed>5.72924293738134</speed>
      </trkpt>
      <trkpt lat="43.24634" lon="2.38334">
        <ele>110</ele>
        <time>2012-01-06T03:34:46Z</time>
        <course>325.454050547856</course>
        <speed>7.26546166773513</speed>
      </trkpt>
      <trkpt lat="43.24662" lon="2.3836">
        <ele>110</ele>
        <time>2012-01-06T03:34:52Z</time>
        <course>319.362539318131</course>
        <speed>7.26630922011411</speed>
      </trkpt>
      <trkpt lat="43.25589" lon="2.39421">
        <ele>120</ele>
        <time>2012-01-06T03:37:56Z</time>
        <course>326.296095915548</course>
        <speed>4.70958595101579</speed>
      </trkpt>
      <trkpt lat="43.25626" lon="2.39454">
        <ele>121</ele>
        <time>2012-01-06T03:38:07Z</time>
        <course>340.70003694975</course>
        <speed>4.70799952519709</speed>
      </trkpt>
      <trkpt lat="43.25673" lon="2.39476">
        <ele>124</ele>
        <time>2012-01-06T03:38:18Z</time>
        <course>349.180345169916</course>
        <speed>5.43757243248373</speed>
      </trkpt>
      <trkpt lat="43.25873" lon="2.39527">
        <ele>130</ele>
        <time>2012-01-06T03:39:00Z</time>
        <course>340.873929958372</course>
        <speed>8.31873117138125</speed>
      </trkpt>
      <trkpt lat="43.26044" lon="2.39606">
        <ele>123</ele>
        <time>2012-01-06T03:39:24Z</time>
        <course>344.788713106045</course>
        <speed>6.06481842588487</speed>
      </trkpt>
      <trkpt lat="43.26102" lon="2.39627">
        <ele>124</ele>
        <time>2012-01-06T03:39:35Z</time>
        <course>348.909629227803</course>
        <speed>6.06667553986908</speed>
      </trkpt>
      <trkpt lat="43.26471" lon="2.39723">
        <ele>132</ele>
        <time>2012-01-06T03:40:44Z</time>
        <course>347.15726413725</course>
        <speed>8.31878125627319</speed>
      </trkpt>
      <trkpt lat="43.26663" lon="2.39781">
        <ele>125</ele>
        <time>2012-01-06T03:41:10Z</time>
        <course>358.648668840234</course>
        <speed>8.3101880740423</speed>
      </trkpt>
      <trkpt lat="43.26695" lon="2.39782">
        <ele>125</ele>
        <time>2012-01-06T03:41:14Z</time>
        <course>9.12804502801863</course>
        <speed>8.32275224565189</speed>
      </trkpt>
      <trkpt lat="43.26742" lon="2.39772">
        <ele>125</ele>
        <time>2012-01-06T03:41:21Z</time>
        <course>23.352616993609</course>
        <speed>8.32086797427806</speed>
      </trkpt>
      <trkpt lat="43.26798" lon="2.3974">
        <ele>125</ele>
        <time>2012-01-06T03:41:29Z</time>
        <course>32.4081768616523</course>
        <speed>6.77015737447333</speed>
      </trkpt>
      <trkpt lat="43.26823" lon="2.39719">
        <ele>125</ele>
        <time>2012-01-06T03:41:34Z</time>
        <course>37.1104239512519</course>
        <speed>6.77833071056643</speed>
      </trkpt>
      <trkpt lat="43.26927" lon="2.39615">
        <ele>127</ele>
        <time>2012-01-06T03:41:55Z</time>
        <course>32.126525074236</course>
        <speed>8.31322241651251</speed>
      </trkpt>
      <trkpt lat="43.26974" lon="2.39576">
        <ele>126</ele>
        <time>2012-01-06T03:42:02Z</time>
        <course>21.3802572991235</course>
        <speed>8.317505534206</speed>
      </trkpt>
      <trkpt lat="43.27003" lon="2.39561">
        <ele>125</ele>
        <time>2012-01-06T03:42:06Z</time>
        <course>11.6666156794446</course>
        <speed>8.32642082164877</speed>
      </trkpt>
      <trkpt lat="43.27036" lon="2.39552">
        <ele>125</ele>
        <time>2012-01-06T03:42:11Z</time>
        <course>359.300007254148</course>
        <speed>7.68963736505027</speed>
      </trkpt>
      <trkpt lat="43.27098" lon="2.39553">
        <ele>125</ele>
        <time>2012-01-06T03:42:20Z</time>
        <course>347.153185783773</course>
        <speed>7.68725978128078</speed>
      </trkpt>
      <trkpt lat="43.27251" lon="2.39599">
        <ele>126</ele>
        <time>2012-01-06T03:42:42Z</time>
        <course>336.729442072557</course>
        <speed>8.31878560765675</speed>
      </trkpt>
      <trkpt lat="43.27311" lon="2.39633">
        <ele>124</ele>
        <time>2012-01-06T03:42:51Z</time>
        <course>321.788856897933</course>
        <speed>8.31731668918714</speed>
      </trkpt>
      <trkpt lat="43.27338" lon="2.39661">
        <ele>124</ele>
        <time>2012-01-06T03:42:55Z</time>
        <course>311.586863715418</course>
        <speed>6.9754696126822</speed>
      </trkpt>
      <trkpt lat="43.27369" lon="2.39707">
        <ele>124</ele>
        <time>2012-01-06T03:43:03Z</time>
        <course>301.105974524471</course>
        <speed>6.97390428665039</speed>
      </trkpt>
      <trkpt lat="43.27391" lon="2.39755">
        <ele>124</ele>
        <time>2012-01-06T03:43:09Z</time>
        <course>295.376793373042</course>
        <speed>6.97148011539049</speed>
      </trkpt>
      <trkpt lat="43.27435" lon="2.39877">
        <ele>126</ele>
        <time>2012-01-06T03:43:25Z</time>
        <course>303.831841513146</course>
        <speed>8.32006486434838</speed>
      </trkpt>
      <trkpt lat="43.27462" lon="2.3993">
        <ele>126</ele>
        <time>2012-01-06T03:43:31Z</time>
        <course>316.083733644018</course>
        <speed>8.32074172579878</speed>
      </trkpt>
      <trkpt lat="43.27492" lon="2.39968">
        <ele>126</ele>
        <time>2012-01-06T03:43:37Z</time>
        <course>326.670689006697</course>
        <speed>8.31958447997999</speed>
      </trkpt>
      <trkpt lat="43.27529" lon="2.4">
        <ele>126</ele>
        <time>2012-01-06T03:43:43Z</time>
        <course>338.897981976052</course>
        <speed>7.20761638897654</speed>
      </trkpt>
      <trkpt lat="43.27598" lon="2.40035">
        <ele>126</ele>
        <time>2012-01-06T03:43:54Z</time>
        <course>352.044650377088</course>
        <speed>7.20412816325294</speed>
      </trkpt>
      <trkpt lat="43.28101" lon="2.40127">
        <ele>131</ele>
        <time>2012-01-06T03:45:12Z</time>
        <course>5.76463190520011</course>
        <speed>6.45908374731831</speed>
      </trkpt>
      <trkpt lat="43.28154" lon="2.4012">
        <ele>131</ele>
        <time>2012-01-06T03:45:21Z</time>
        <course>23.2078158128876</course>
        <speed>6.45572193281909</speed>
      </trkpt>
      <trkpt lat="43.2822" lon="2.40083">
        <ele>133</ele>
        <time>2012-01-06T03:45:34Z</time>
        <course>14.3048200565735</course>
        <speed>7.00070396504711</speed>
      </trkpt>
      <trkpt lat="43.28247" lon="2.40074">
        <ele>133</ele>
        <time>2012-01-06T03:45:38Z</time>
        <course>1.6232165344299</course>
        <speed>6.99610800462252</speed>
      </trkpt>
      <trkpt lat="43.28274" lon="2.40073">
        <ele>133</ele>
        <time>2012-01-06T03:45:42Z</time>
        <course>352.371051472398</course>
        <speed>7.00113091133744</speed>
      </trkpt>
      <trkpt lat="43.28314" lon="2.4008">
        <ele>134</ele>
        <time>2012-01-06T03:45:49Z</time>
        <course>351.286329298449</course>
        <speed>4.79313357750017</speed>
      </trkpt>
      <trkpt lat="43.28459" lon="2.40109">
        <ele>140</ele>
        <time>2012-01-06T03:46:23Z</time>
        <course>346.690845693744</course>
        <speed>5.57702687285783</speed>
      </trkpt>
      <trkpt lat="43.28566" lon="2.40142">
        <ele>143</ele>
        <time>2012-01-06T03:46:45Z</time>
        <course>357.559658381673</course>
        <speed>4.82360231548797</speed>
      </trkpt>
      <trkpt lat="43.28584" lon="2.40143">
        <ele>143</ele>
        <time>2012-01-06T03:46:49Z</time>
        <course>28.0917734088635</course>
        <speed>4.82284775730064</speed>
      </trkpt>
      <trkpt lat="43.28607" lon="2.40127">
        <ele>144</ele>
        <time>2012-01-06T03:46:55Z</time>
        <course>62.9734820256894</course>
        <speed>4.8241709718313</speed>
      </trkpt>
      <trkpt lat="43.28645" lon="2.4003">
        <ele>148</ele>
        <time>2012-01-06T03:47:13Z</time>
        <course>45.2885902888343</course>
        <speed>6.02781534563995</speed>
      </trkpt>
      <trkpt lat="43.28664" lon="2.40005">
        <ele>148</ele>
        <time>2012-01-06T03:47:18Z</time>
        <course>30.6806069558937</course>
        <speed>6.01897519884997</speed>
      </trkpt>
      <trkpt lat="43.28686" lon="2.39988">
        <ele>149</ele>
        <time>2012-01-06T03:47:23Z</time>
        <course>11.3735759468224</course>
        <speed>6.02167095450328</speed>
      </trkpt>
      <trkpt lat="43.28728" lon="2.39977">
        <ele>150</ele>
        <time>2012-01-06T03:47:31Z</time>
        <course>2.95098974753209</course>
        <speed>8.31711367839007</speed>
      </trkpt>
      <trkpt lat="43.28922" lon="2.39964">
        <ele>150</ele>
        <time>2012-01-06T03:47:56Z</time>
        <course>344.870404520101</course>
        <speed>6.04525572989561</speed>
      </trkpt>
      <trkpt lat="43.28959" lon="2.39977">
        <ele>150</ele>
        <time>2012-01-06T03:48:03Z</time>
        <course>329.01436255674</course>
        <speed>6.05022204876646</speed>
      </trkpt>
      <trkpt lat="43.29009" lon="2.40016">
        <ele>152</ele>
        <time>2012-01-06T03:48:14Z</time>
        <course>315.477310660479</course>
        <speed>8.31680869287845</speed>
      </trkpt>
      <trkpt lat="43.29085" lon="2.40113">
        <ele>150</ele>
        <time>2012-01-06T03:48:28Z</time>
        <course>324.984446263867</course>
        <speed>5.59424779183954</speed>
      </trkpt>
      <trkpt lat="43.29129" lon="2.40153">
        <ele>151</ele>
        <time>2012-01-06T03:48:38Z</time>
        <course>332.244638527405</course>
        <speed>5.5946989087269</speed>
      </trkpt>
      <trkpt lat="43.29214" lon="2.40211">
        <ele>154</ele>
        <time>2012-01-06T03:48:57Z</time>
        <course>342.43874719137</course>
        <speed>7.05580161621085</speed>
      </trkpt>
      <trkpt lat="43.29253" lon="2.40227">
        <ele>154</ele>
        <time>2012-01-06T03:49:04Z</time>
        <course>352.962514706928</course>
        <speed>7.04477261202436</speed>
      </trkpt>
      <trkpt lat="43.29278" lon="2.40231">
        <ele>154</ele>
        <time>2012-01-06T03:49:08Z</time>
        <course>3.89567683079643</course>
        <speed>7.05002500839077</speed>
      </trkpt>
      <trkpt lat="43.29312" lon="2.40228">
        <ele>155</ele>
        <time>2012-01-06T03:49:13Z</time>
        <course>18.8416242564073</course>
        <speed>4.99153972079746</speed>
      </trkpt>
      <trkpt lat="43.29466" lon="2.4016">
        <ele>161</ele>
        <time>2012-01-06T03:49:49Z</time>
        <course>357.628378358582</course>
        <speed>6.02850766242191</speed>
      </trkpt>
      <trkpt lat="43.29522" lon="2.40163">
        <ele>162</ele>
        <time>2012-01-06T03:49:59Z</time>
        <course>24.0428776845024</course>
        <speed>6.02593437061911</speed>
      </trkpt>
      <trkpt lat="43.29548" lon="2.40148">
        <ele>162</ele>
        <time>2012-01-06T03:50:05Z</time>
        <course>49.0056982398767</course>
        <speed>6.02477873496921</speed>
      </trkpt>
      <trkpt lat="43.29587" lon="2.4009">
        <ele>164</ele>
        <time>2012-01-06T03:50:15Z</time>
        <course>29.4351107479589</course>
        <speed>6.76185330948654</speed>
      </trkpt>
      <trkpt lat="43.29635" lon="2.40055">
        <ele>164</ele>
        <time>2012-01-06T03:50:24Z</time>
        <course>40.2884298779431</course>
        <speed>6.76686146839436</speed>
      </trkpt>
      <trkpt lat="43.29656" lon="2.40032">
        <ele>165</ele>
        <time>2012-01-06T03:50:28Z</time>
        <course>53.7498188790396</course>
        <speed>6.76085256815575</speed>
      </trkpt>
      <trkpt lat="43.29702" lon="2.39951">
        <ele>166</ele>
        <time>2012-01-06T03:50:41Z</time>
        <course>60.5112898465371</course>
        <speed>5.79827891021509</speed>
      </trkpt>
      <trkpt lat="43.29741" lon="2.39862">
        <ele>167</ele>
        <time>2012-01-06T03:50:55Z</time>
        <course>48.0529745130411</course>
        <speed>5.79610455910589</speed>
      </trkpt>
      <trkpt lat="43.29803" lon="2.39773">
        <ele>170</ele>
        <time>2012-01-06T03:51:12Z</time>
        <course>56.2134317200064</course>
        <speed>8.32023187781453</speed>
      </trkpt>
      <trkpt lat="43.29871" lon="2.39642">
        <ele>165</ele>
        <time>2012-01-06T03:51:28Z</time>
        <course>43.6671507996525</course>
        <speed>8.32336015948479</speed>
      </trkpt>
      <trkpt lat="43.29897" lon="2.3961">
        <ele>163</ele>
        <time>2012-01-06T03:51:33Z</time>
        <course>30.0444203371069</course>
        <speed>8.31710742376949</speed>
      </trkpt>
      <trkpt lat="43.29952" lon="2.39569">
        <ele>161</ele>
        <time>2012-01-06T03:51:41Z</time>
        <course>20.1229159230491</course>
        <speed>8.31876435854513</speed>
      </trkpt>
      <trkpt lat="43.30041" lon="2.39527">
        <ele>160</ele>
        <time>2012-01-06T03:51:54Z</time>
        <course>30.8621293273035</course>
        <speed>3.98535533402946</speed>
      </trkpt>
      <trkpt lat="43.30106" lon="2.39477">
        <ele>164</ele>
        <time>2012-01-06T03:52:14Z</time>
        <course>19.7299166656827</course>
        <speed>3.98571327763565</speed>
      </trkpt>
      <trkpt lat="43.30145" lon="2.39459">
        <ele>167</ele>
        <time>2012-01-06T03:52:26Z</time>
        <course>8.98998437903887</course>
        <speed>8.31732219255896</speed>
      </trkpt>
      <trkpt lat="43.30327" lon="2.39422">
        <ele>167</ele>
        <time>2012-01-06T03:52:50Z</time>
        <course>16.8721308605462</course>
        <speed>8.31756578555272</speed>
      </trkpt>
      <trkpt lat="43.30458" lon="2.39371">
        <ele>166</ele>
        <time>2012-01-06T03:53:09Z</time>
        <course>4.27452284692916</course>
        <speed>8.31440238226496</speed>
      </trkpt>
      <trkpt lat="43.30531" lon="2.39364">
        <ele>162</ele>
        <time>2012-01-06T03:53:18Z</time>
        <course>12.2762828071237</course>
        <speed>8.32029800884076</speed>
      </trkpt>
      <trkpt lat="43.30574" lon="2.39352">
        <ele>160</ele>
        <time>2012-01-06T03:53:24Z</time>
        <course>24.805191654699</course>
        <speed>6.09573770173877</speed>
      </trkpt>
      <trkpt lat="43.30601" lon="2.39336">
        <ele>160</ele>
        <time>2012-01-06T03:53:30Z</time>
        <course>33.4772677184105</course>
        <speed>6.0985863344796</speed>
      </trkpt>
      <trkpt lat="43.3066" lon="2.39286">
        <ele>162</ele>
        <time>2012-01-06T03:53:42Z</time>
        <course>29.2272419179176</course>
        <speed>5.42916236266482</speed>
      </trkpt>
      <trkpt lat="43.3072" lon="2.39243">
        <ele>164</ele>
        <time>2012-01-06T03:53:56Z</time>
        <course>18.8614661000782</course>
        <speed>5.43186561408008</speed>
      </trkpt>
      <trkpt lat="43.30752" lon="2.39229">
        <ele>165</ele>
        <time>2012-01-06T03:54:03Z</time>
        <course>350.414207373956</course>
        <speed>6.62741668556745</speed>
      </trkpt>
      <trkpt lat="43.30789" lon="2.39237">
        <ele>165</ele>
        <time>2012-01-06T03:54:09Z</time>
        <course>342.642745771991</course>
        <speed>6.62837668858697</speed>
      </trkpt>
      <trkpt lat="43.30839" lon="2.39257">
        <ele>166</ele>
        <time>2012-01-06T03:54:18Z</time>
        <course>359.632677861504</course>
        <speed>6.62928172900307</speed>
      </trkpt>
      <trkpt lat="43.30961" lon="2.39258">
        <ele>168</ele>
        <time>2012-01-06T03:54:38Z</time>
        <course>342.623090110508</course>
        <speed>8.32598676760354</speed>
      </trkpt>
      <trkpt lat="43.30991" lon="2.3927">
        <ele>167</ele>
        <time>2012-01-06T03:54:43Z</time>
        <course>326.696681971873</course>
        <speed>8.31400095528292</speed>
      </trkpt>
      <trkpt lat="43.31047" lon="2.39317">
        <ele>166</ele>
        <time>2012-01-06T03:54:51Z</time>
        <course>341.508515280878</course>
        <speed>5.2702134533764</speed>
      </trkpt>
      <trkpt lat="43.31136" lon="2.39355">
        <ele>169</ele>
        <time>2012-01-06T03:55:11Z</time>
        <course>335.597126436012</course>
        <speed>8.32070912056268</speed>
      </trkpt>
      <trkpt lat="43.31193" lon="2.39388">
        <ele>168</ele>
        <time>2012-01-06T03:55:19Z</time>
        <course>352.557226696063</course>
        <speed>8.32567860313195</speed>
      </trkpt>
      <trkpt lat="43.31229" lon="2.39394">
        <ele>168</ele>
        <time>2012-01-06T03:55:24Z</time>
        <course>1.06985899800162</course>
        <speed>4.94726052993115</speed>
      </trkpt>
      <trkpt lat="43.31313" lon="2.39392">
        <ele>171</ele>
        <time>2012-01-06T03:55:43Z</time>
        <course>34.8885736532647</course>
        <speed>4.94200514247692</speed>
      </trkpt>
      <trkpt lat="43.31331" lon="2.39376">
        <ele>172</ele>
        <time>2012-01-06T03:55:48Z</time>
        <course>54.4235861913271</course>
        <speed>4.99648684022704</speed>
      </trkpt>
      <trkpt lat="43.31363" lon="2.39319">
        <ele>173</ele>
        <time>2012-01-06T03:56:00Z</time>
        <course>45.5891170161519</course>
        <speed>4.99308121668647</speed>
      </trkpt>
      <trkpt lat="43.31423" lon="2.39241">
        <ele>177</ele>
        <time>2012-01-06T03:56:18Z</time>
        <course>27.3938643168237</course>
        <speed>7.09481119493762</speed>
      </trkpt>
      <trkpt lat="43.31517" lon="2.39179">
        <ele>178</ele>
        <time>2012-01-06T03:56:34Z</time>
        <course>37.1478826188287</course>
        <speed>5.92106581714905</speed>
      </trkpt>
      <trkpt lat="43.31626" lon="2.39074">
        <ele>181</ele>
        <time>2012-01-06T03:56:59Z</time>
        <course>60.9828525383951</course>
        <speed>3.24472835123101</speed>
      </trkpt>
      <trkpt lat="43.3165" lon="2.39019">
        <ele>185</ele>
        <time>2012-01-06T03:57:15Z</time>
        <course>68.7002167712921</course>
        <speed>3.2451466275472</speed>
      </trkpt>
      <trkpt lat="43.31681" lon="2.38918">
        <ele>192</ele>
        <time>2012-01-06T03:57:43Z</time>
        <course>58.1755646717793</course>
        <speed>8.32406303119602</speed>
      </trkpt>
      <trkpt lat="43.31702" lon="2.38875">
        <ele>192</ele>
        <time>2012-01-06T03:57:48Z</time>
        <course>42.2613855805382</course>
        <speed>8.31931531034179</speed>
      </trkpt>
      <trkpt lat="43.31793" lon="2.3877">
        <ele>192</ele>
        <time>2012-01-06T03:58:03Z</time>
        <course>27.1134242013443</course>
        <speed>8.31471667146618</speed>
      </trkpt>
      <trkpt lat="43.31853" lon="2.38731">
        <ele>190</ele>
        <time>2012-01-06T03:58:12Z</time>
        <course>38.9824227728802</course>
        <speed>8.31836470849429</speed>
      </trkpt>
      <trkpt lat="43.3189" lon="2.38693">
        <ele>189</ele>
        <time>2012-01-06T03:58:18Z</time>
        <course>21.5208307567113</course>
        <speed>6.41895020585521</speed>
      </trkpt>
      <trkpt lat="43.32004" lon="2.38636">
        <ele>191</ele>
        <time>2012-01-06T03:58:39Z</time>
        <course>15.2746685293347</course>
        <speed>8.32214676795362</speed>
      </trkpt>
      <trkpt lat="43.32056" lon="2.38618">
        <ele>189</ele>
        <time>2012-01-06T03:58:47Z</time>
        <course>353.993032003509</course>
        <speed>8.31766696185196</speed>
      </trkpt>
      <trkpt lat="43.32101" lon="2.38624">
        <ele>188</ele>
        <time>2012-01-06T03:58:53Z</time>
        <course>16.9396921203584</course>
        <speed>4.34814252263003</speed>
      </trkpt>
      <trkpt lat="43.32171" lon="2.38597">
        <ele>191</ele>
        <time>2012-01-06T03:59:11Z</time>
        <course>352.00630603539</course>
        <speed>4.35034412518726</speed>
      </trkpt>
      <trkpt lat="43.32216" lon="2.38605">
        <ele>194</ele>
        <time>2012-01-06T03:59:23Z</time>
        <course>9.61132462884304</course>
        <speed>4.81121544768993</speed>
      </trkpt>
      <trkpt lat="43.32272" lon="2.38593">
        <ele>196</ele>
        <time>2012-01-06T03:59:36Z</time>
        <course>346.972783270282</course>
        <speed>4.81203771609261</speed>
      </trkpt>
      <trkpt lat="43.32313" lon="2.38605">
        <ele>198</ele>
        <time>2012-01-06T03:59:46Z</time>
        <course>360</course>
        <speed>5.75050228292679</speed>
      </trkpt>
      <trkpt lat="43.32347" lon="2.38605">
        <ele>198</ele>
        <time>2012-01-06T03:59:52Z</time>
        <course>9.96728878094459</course>
        <speed>5.7397420674791</speed>
      </trkpt>
      <trkpt lat="43.32365" lon="2.38601">
        <ele>199</ele>
        <time>2012-01-06T03:59:56Z</time>
        <course>24.3296515767767</course>
        <speed>5.74780624983008</speed>
      </trkpt>
      <trkpt lat="43.32428" lon="2.38565">
        <ele>201</ele>
        <time>2012-01-06T04:00:09Z</time>
        <course>17.3159496298432</course>
        <speed>6.65719441029157</speed>
      </trkpt>
      <trkpt lat="43.32461" lon="2.38552">
        <ele>201</ele>
        <time>2012-01-06T04:00:15Z</time>
        <course>38.367427729789</course>
        <speed>6.66244274740607</speed>
      </trkpt>
      <trkpt lat="43.32493" lon="2.3852">
        <ele>202</ele>
        <time>2012-01-06T04:00:21Z</time>
        <course>51.1046755980187</course>
        <speed>6.6587240660162</speed>
      </trkpt>
      <trkpt lat="43.32587" lon="2.38373">
        <ele>204</ele>
        <time>2012-01-06T04:00:45Z</time>
        <course>31.5893180991665</course>
        <speed>8.31533258874035</speed>
      </trkpt>
      <trkpt lat="43.32645" lon="2.38328">
        <ele>202</ele>
        <time>2012-01-06T04:00:54Z</time>
        <course>41.3750362895603</course>
        <speed>8.31412605763536</speed>
      </trkpt>
      <trkpt lat="43.32672" lon="2.38298">
        <ele>201</ele>
        <time>2012-01-06T04:00:59Z</time>
        <course>57.7611065008723</course>
        <speed>8.32256474581575</speed>
      </trkpt>
      <trkpt lat="43.32679" lon="2.38284">
        <ele>201</ele>
        <time>2012-01-06T04:01:00Z</time>
        <course>34.2010278730385</course>
        <speed>8.30809813609795</speed>
      </trkpt>
      <trkpt lat="43.327" lon="2.38266">
        <ele>201</ele>
        <time>2012-01-06T04:01:03Z</time>
        <course>1.37668803022861</course>
        <speed>8.31712208232365</speed>
      </trkpt>
      <trkpt lat="43.32733" lon="2.38265">
        <ele>201</ele>
        <time>2012-01-06T04:01:08Z</time>
        <course>331.510595870571</course>
        <speed>8.30400980345255</speed>
      </trkpt>
      <trkpt lat="43.32752" lon="2.38278">
        <ele>201</ele>
        <time>2012-01-06T04:01:11Z</time>
        <course>305.003696155389</course>
        <speed>8.32177698677035</speed>
      </trkpt>
      <trkpt lat="43.32762" lon="2.38296">
        <ele>201</ele>
        <time>2012-01-06T04:01:13Z</time>
        <course>287.485988568451</course>
        <speed>8.31635876361287</speed>
      </trkpt>
      <trkpt lat="43.32771" lon="2.38332">
        <ele>200</ele>
        <time>2012-01-06T04:01:17Z</time>
        <course>323.782109771966</course>
        <speed>8.32542687058911</speed>
      </trkpt>
      <trkpt lat="43.32784" lon="2.38344">
        <ele>200</ele>
        <time>2012-01-06T04:01:19Z</time>
        <course>26.2232281599499</course>
        <speed>8.31936197904938</speed>
      </trkpt>
      <trkpt lat="43.32813" lon="2.38326">
        <ele>200</ele>
        <time>2012-01-06T04:01:23Z</time>
        <course>8.51893485769693</course>
        <speed>8.31408806887034</speed>
      </trkpt>
      <trkpt lat="43.32866" lon="2.38316">
        <ele>200</ele>
        <time>2012-01-06T04:01:30Z</time>
        <course>17.1640277606936</course>
        <speed>8.31460768356725</speed>
      </trkpt>
      <trkpt lat="43.3292" lon="2.38295">
        <ele>200</ele>
        <time>2012-01-06T04:01:38Z</time>
        <course>344.337372532506</course>
        <speed>8.31685927035329</speed>
      </trkpt>
      <trkpt lat="43.32954" lon="2.38307">
        <ele>200</ele>
        <time>2012-01-06T04:01:42Z</time>
        <course>320.04799049439</course>
        <speed>8.31601862896276</speed>
      </trkpt>
      <trkpt lat="43.32991" lon="2.38346">
        <ele>200</ele>
        <time>2012-01-06T04:01:49Z</time>
        <course>338.963282286956</course>
        <speed>5.40217057424294</speed>
      </trkpt>
      <trkpt lat="43.33022" lon="2.38361">
        <ele>200</ele>
        <time>2012-01-06T04:01:55Z</time>
        <course>14.8407857464355</course>
        <speed>5.41040150056008</speed>
      </trkpt>
      <trkpt lat="43.33037" lon="2.38356">
        <ele>201</ele>
        <time>2012-01-06T04:01:58Z</time>
        <course>34.5678060406614</course>
        <speed>5.39828306774462</speed>
      </trkpt>
      <trkpt lat="43.33052" lon="2.38343">
        <ele>201</ele>
        <time>2012-01-06T04:02:02Z</time>
        <course>48.3752443731392</course>
        <speed>5.40154962406569</speed>
      </trkpt>
      <trkpt lat="43.33122" lon="2.38244">
        <ele>205</ele>
        <time>2012-01-06T04:02:23Z</time>
        <course>31.1655595812188</course>
        <speed>4.96362072599375</speed>
      </trkpt>
      <trkpt lat="43.33172" lon="2.38206">
        <ele>207</ele>
        <time>2012-01-06T04:02:36Z</time>
        <course>43.6841873935168</course>
        <speed>4.96622838771709</speed>
      </trkpt>
      <trkpt lat="43.33192" lon="2.38182">
        <ele>208</ele>
        <time>2012-01-06T04:02:41Z</time>
        <course>47.5837007619791</course>
        <speed>4.95968566574806</speed>
      </trkpt>
      <trkpt lat="43.33208" lon="2.3816">
        <ele>209</ele>
        <time>2012-01-06T04:02:47Z</time>
        <course>68.5707508981837</course>
        <speed>8.3286105406761</speed>
      </trkpt>
      <trkpt lat="43.33218" lon="2.38128">
        <ele>208</ele>
        <time>2012-01-06T04:02:50Z</time>
        <course>47.7870832242224</course>
        <speed>8.33428284813857</speed>
      </trkpt>
      <trkpt lat="43.33231" lon="2.3811">
        <ele>208</ele>
        <time>2012-01-06T04:02:52Z</time>
        <course>21.708373199211</course>
        <speed>8.31086017453995</speed>
      </trkpt>
      <trkpt lat="43.33253" lon="2.38099">
        <ele>208</ele>
        <time>2012-01-06T04:02:56Z</time>
        <course>4.87712075739941</course>
        <speed>8.3221183472119</speed>
      </trkpt>
      <trkpt lat="43.33281" lon="2.38096">
        <ele>207</ele>
        <time>2012-01-06T04:02:59Z</time>
        <course>337.933710300373</course>
        <speed>8.31729124371759</speed>
      </trkpt>
      <trkpt lat="43.33338" lon="2.38125">
        <ele>207</ele>
        <time>2012-01-06T04:03:07Z</time>
        <course>360</course>
        <speed>3.35802197790014</speed>
      </trkpt>
      <trkpt lat="43.33349" lon="2.38125">
        <ele>207</ele>
        <time>2012-01-06T04:03:11Z</time>
        <course>57.8954780895619</course>
        <speed>3.35634756627928</speed>
      </trkpt>
      <trkpt lat="43.33358" lon="2.38107">
        <ele>209</ele>
        <time>2012-01-06T04:03:16Z</time>
        <course>73.8539169108523</course>
        <speed>3.36080529017769</speed>
      </trkpt>
      <trkpt lat="43.33364" lon="2.38081">
        <ele>210</ele>
        <time>2012-01-06T04:03:23Z</time>
        <course>87.7516626454972</course>
        <speed>3.35948882690449</speed>
      </trkpt>
      <trkpt lat="43.33371" lon="2.37861">
        <ele>224</ele>
        <time>2012-01-06T04:04:16Z</time>
        <course>71.984416882407</course>
        <speed>6.39989381168119</speed>
      </trkpt>
      <trkpt lat="43.33378" lon="2.37834">
        <ele>224</ele>
        <time>2012-01-06T04:04:19Z</time>
        <course>42.6094165161991</course>
        <speed>6.40372399650904</speed>
      </trkpt>
      <trkpt lat="43.33404" lon="2.37804">
        <ele>224</ele>
        <time>2012-01-06T04:04:25Z</time>
        <course>13.7824016973132</course>
        <speed>6.40820712379021</speed>
      </trkpt>
      <trkpt lat="43.33417" lon="2.378">
        <ele>225</ele>
        <time>2012-01-06T04:04:28Z</time>
        <course>349.374546105207</course>
        <speed>6.38835207635323</speed>
      </trkpt>
      <trkpt lat="43.33434" lon="2.37804">
        <ele>225</ele>
        <time>2012-01-06T04:04:31Z</time>
        <course>316.441089702812</course>
        <speed>6.39504837096582</speed>
      </trkpt>
      <trkpt lat="43.3346" lon="2.37835">
        <ele>226</ele>
        <time>2012-01-06T04:04:37Z</time>
        <course>292.23051977282</course>
        <speed>8.31517415204648</speed>
      </trkpt>
      <trkpt lat="43.33475" lon="2.37881">
        <ele>223</ele>
        <time>2012-01-06T04:04:42Z</time>
        <course>284.476869875763</course>
        <speed>8.31511435374987</speed>
      </trkpt>
      <trkpt lat="43.33495" lon="2.37978">
        <ele>220</ele>
        <time>2012-01-06T04:04:51Z</time>
        <course>304.017544607053</course>
        <speed>3.53322823844202</speed>
      </trkpt>
      <trkpt lat="43.33502" lon="2.37991">
        <ele>220</ele>
        <time>2012-01-06T04:04:55Z</time>
        <course>319.756676757423</course>
        <speed>3.53263464825151</speed>
      </trkpt>
      <trkpt lat="43.33535" lon="2.38026">
        <ele>224</ele>
        <time>2012-01-06T04:05:08Z</time>
        <course>343.613428172812</course>
        <speed>3.53112969058317</speed>
      </trkpt>
      <trkpt lat="43.33573" lon="2.3804">
        <ele>227</ele>
        <time>2012-01-06T04:05:21Z</time>
        <course>4.45395282442275</course>
        <speed>5.28631474104865</speed>
      </trkpt>
      <trkpt lat="43.33614" lon="2.38036">
        <ele>228</ele>
        <time>2012-01-06T04:05:29Z</time>
        <course>14.334538260335</course>
        <speed>5.28194865941057</speed>
      </trkpt>
      <trkpt lat="43.33639" lon="2.38028">
        <ele>229</ele>
        <time>2012-01-06T04:05:35Z</time>
        <course>34.7816886718995</course>
        <speed>5.28676576964658</speed>
      </trkpt>
      <trkpt lat="43.33662" lon="2.38008">
        <ele>230</ele>
        <time>2012-01-06T04:05:40Z</time>
        <course>54.2581291423515</course>
        <speed>3.26809728751859</speed>
      </trkpt>
      <trkpt lat="43.33685" lon="2.37968">
        <ele>233</ele>
        <time>2012-01-06T04:05:53Z</time>
        <course>31.6911875988088</course>
        <speed>3.2683984824801</speed>
      </trkpt>
      <trkpt lat="43.33707" lon="2.37951">
        <ele>235</ele>
        <time>2012-01-06T04:06:01Z</time>
        <course>21.0964553987723</course>
        <speed>3.26828136410298</speed>
      </trkpt>
      <trkpt lat="43.33736" lon="2.37937">
        <ele>238</ele>
        <time>2012-01-06T04:06:12Z</time>
        <course>360</course>
        <speed>8.31321695786619</speed>
      </trkpt>
      <trkpt lat="43.33766" lon="2.37937">
        <ele>234</ele>
        <time>2012-01-06T04:06:16Z</time>
        <course>347.700140723846</course>
        <speed>8.30756769225506</speed>
      </trkpt>
      <trkpt lat="43.33788" lon="2.37943">
        <ele>231</ele>
        <time>2012-01-06T04:06:19Z</time>
        <course>337.422514644475</course>
        <speed>8.31944934951392</speed>
      </trkpt>
      <trkpt lat="43.33813" lon="2.37956">
        <ele>228</ele>
        <time>2012-01-06T04:06:23Z</time>
        <course>326.578723450567</course>
        <speed>8.32032178777881</speed>
      </trkpt>
      <trkpt lat="43.33853" lon="2.37989">
        <ele>223</ele>
        <time>2012-01-06T04:06:29Z</time>
        <course>17.7439756631811</course>
        <speed>2.87520304497589</speed>
      </trkpt>
      <trkpt lat="43.33873" lon="2.37981">
        <ele>225</ele>
        <time>2012-01-06T04:06:37Z</time>
        <course>47.1629400118077</course>
        <speed>2.87464859329812</speed>
      </trkpt>
      <trkpt lat="43.33896" lon="2.3795">
        <ele>228</ele>
        <time>2012-01-06T04:06:49Z</time>
        <course>64.543664896184</course>
        <speed>2.87672895791109</speed>
      </trkpt>
      <trkpt lat="43.33904" lon="2.37929">
        <ele>230</ele>
        <time>2012-01-06T04:06:56Z</time>
        <course>87.1263126945504</course>
        <speed>2.87525373902451</speed>
      </trkpt>
      <trkpt lat="43.33908" lon="2.3783">
        <ele>238</ele>
        <time>2012-01-06T04:07:24Z</time>
        <course>75.7008134089553</course>
        <speed>5.35551036355741</speed>
      </trkpt>
      <trkpt lat="43.33918" lon="2.37781">
        <ele>239</ele>
        <time>2012-01-06T04:07:31Z</time>
        <course>59.5490038492335</course>
        <speed>5.35652140349682</speed>
      </trkpt>
      <trkpt lat="43.33934" lon="2.37747">
        <ele>240</ele>
        <time>2012-01-06T04:07:38Z</time>
        <course>27.2311498259606</course>
        <speed>5.35825475912894</speed>
      </trkpt>
      <trkpt lat="43.33962" lon="2.37729">
        <ele>241</ele>
        <time>2012-01-06T04:07:44Z</time>
        <course>12.6909773916689</course>
        <speed>8.32446942804715</speed>
      </trkpt>
      <trkpt lat="43.33994" lon="2.3772">
        <ele>241</ele>
        <time>2012-01-06T04:07:48Z</time>
        <course>347.944716571677</course>
        <speed>8.32283628757674</speed>
      </trkpt>
      <trkpt lat="43.34024" lon="2.37728">
        <ele>241</ele>
        <time>2012-01-06T04:07:52Z</time>
        <course>324.074077691025</course>
        <speed>8.31900715684966</speed>
      </trkpt>
      <trkpt lat="43.34097" lon="2.37794">
        <ele>241</ele>
        <time>2012-01-06T04:08:04Z</time>
        <course>346.737015558964</course>
        <speed>4.35084227575718</speed>
      </trkpt>
      <trkpt lat="43.34114" lon="2.37799">
        <ele>241</ele>
        <time>2012-01-06T04:08:09Z</time>
        <course>23.4694735095808</course>
        <speed>4.35616619333455</speed>
      </trkpt>
      <trkpt lat="43.34138" lon="2.37786">
        <ele>243</ele>
        <time>2012-01-06T04:08:15Z</time>
        <course>46.5029932762374</course>
        <speed>4.35283694777233</speed>
      </trkpt>
      <trkpt lat="43.34173" lon="2.3774">
        <ele>245</ele>
        <time>2012-01-06T04:08:27Z</time>
        <course>37.4331778283731</course>
        <speed>4.35083983125633</speed>
      </trkpt>
      <trkpt lat="43.34195" lon="2.37719">
        <ele>247</ele>
        <time>2012-01-06T04:08:34Z</time>
        <course>28.6809119150834</course>
        <speed>4.20012817454198</speed>
      </trkpt>
      <trkpt lat="43.34261" lon="2.37674">
        <ele>251</ele>
        <time>2012-01-06T04:08:54Z</time>
        <course>356.71985965672</course>
        <speed>4.19886145879834</speed>
      </trkpt>
      <trkpt lat="43.34275" lon="2.37675">
        <ele>251</ele>
        <time>2012-01-06T04:08:58Z</time>
        <course>321.252673933449</course>
        <speed>4.1989426697178</speed>
      </trkpt>
      <trkpt lat="43.34293" lon="2.37693">
        <ele>253</ele>
        <time>2012-01-06T04:09:03Z</time>
        <course>289.580561768664</course>
        <speed>8.31697723408395</speed>
      </trkpt>
      <trkpt lat="43.34319" lon="2.37784">
        <ele>250</ele>
        <time>2012-01-06T04:09:13Z</time>
        <course>295.595585063196</course>
        <speed>8.31072327037006</speed>
      </trkpt>
      <trkpt lat="43.34334" lon="2.37823">
        <ele>250</ele>
        <time>2012-01-06T04:09:17Z</time>
        <course>341.70740505673</course>
        <speed>8.32034248569125</speed>
      </trkpt>
      <trkpt lat="43.34351" lon="2.3783">
        <ele>249</ele>
        <time>2012-01-06T04:09:20Z</time>
        <course>1.76928109552267</course>
        <speed>8.31726612227135</speed>
      </trkpt>
      <trkpt lat="43.34403" lon="2.37828">
        <ele>248</ele>
        <time>2012-01-06T04:09:27Z</time>
        <course>346.524097071927</course>
        <speed>8.31978570006217</speed>
      </trkpt>
      <trkpt lat="43.3446" lon="2.37845">
        <ele>247</ele>
        <time>2012-01-06T04:09:34Z</time>
        <course>321.215641880224</course>
        <speed>4.67582455948538</speed>
      </trkpt>
      <trkpt lat="43.34473" lon="2.37858">
        <ele>247</ele>
        <time>2012-01-06T04:09:38Z</time>
        <course>291.86678916346</course>
        <speed>4.67664685787237</speed>
      </trkpt>
      <trkpt lat="43.34483" lon="2.37889">
        <ele>248</ele>
        <time>2012-01-06T04:09:44Z</time>
        <course>317.882257953977</course>
        <speed>4.66897110399725</speed>
      </trkpt>
      <trkpt lat="43.34491" lon="2.37898">
        <ele>249</ele>
        <time>2012-01-06T04:09:46Z</time>
        <course>11.3612449908054</course>
        <speed>4.67344425754634</speed>
      </trkpt>
      <trkpt lat="43.34503" lon="2.37895">
        <ele>249</ele>
        <time>2012-01-06T04:09:49Z</time>
        <course>57.015405919284</course>
        <speed>4.67787875127522</speed>
      </trkpt>
      <trkpt lat="43.34515" lon="2.37872">
        <ele>250</ele>
        <time>2012-01-06T04:09:54Z</time>
        <course>76.4376474077302</course>
        <speed>4.67444849424945</speed>
      </trkpt>
      <trkpt lat="43.34535" lon="2.37769">
        <ele>254</ele>
        <time>2012-01-06T04:10:13Z</time>
        <course>66.4771191127363</course>
        <speed>6.61857186719334</speed>
      </trkpt>
      <trkpt lat="43.34542" lon="2.37749">
        <ele>254</ele>
        <time>2012-01-06T04:10:15Z</time>
        <course>24.887529220925</course>
        <speed>6.62388605940666</speed>
      </trkpt>
      <trkpt lat="43.34568" lon="2.37734">
        <ele>254</ele>
        <time>2012-01-06T04:10:20Z</time>
        <course>343.852375428955</course>
        <speed>6.61664489285647</speed>
      </trkpt>
      <trkpt lat="43.34593" lon="2.37743">
        <ele>255</ele>
        <time>2012-01-06T04:10:24Z</time>
        <course>304.357624122186</course>
        <speed>6.62205856392545</speed>
      </trkpt>
      <trkpt lat="43.34615" lon="2.37783">
        <ele>255</ele>
        <time>2012-01-06T04:10:31Z</time>
        <course>315.065384121751</course>
        <speed>6.62065964525687</speed>
      </trkpt>
      <trkpt lat="43.3464" lon="2.37814">
        <ele>256</ele>
        <time>2012-01-06T04:10:36Z</time>
        <course>323.23398561695</course>
        <speed>5.03258390859535</speed>
      </trkpt>
      <trkpt lat="43.34654" lon="2.37827">
        <ele>256</ele>
        <time>2012-01-06T04:10:40Z</time>
        <course>337.398978524838</course>
        <speed>5.03349043780356</speed>
      </trkpt>
      <trkpt lat="43.34683" lon="2.37842">
        <ele>257</ele>
        <time>2012-01-06T04:10:47Z</time>
        <course>352.78019239311</course>
        <speed>5.02990177311454</speed>
      </trkpt>
      <trkpt lat="43.34772" lon="2.37856">
        <ele>261</ele>
        <time>2012-01-06T04:11:07Z</time>
        <course>6.03448396948294</course>
        <speed>8.31926812939768</speed>
      </trkpt>
      <trkpt lat="43.34978" lon="2.37829">
        <ele>247</ele>
        <time>2012-01-06T04:11:34Z</time>
        <course>12.5963242120814</course>
        <speed>8.31578773344781</speed>
      </trkpt>
      <trkpt lat="43.35043" lon="2.37811">
        <ele>246</ele>
        <time>2012-01-06T04:11:43Z</time>
        <course>38.9134596712221</course>
        <speed>8.31586864837032</speed>
      </trkpt>
      <trkpt lat="43.35089" lon="2.37765">
        <ele>246</ele>
        <time>2012-01-06T04:11:51Z</time>
        <course>29.7507034633366</course>
        <speed>8.31428909772412</speed>
      </trkpt>
      <trkpt lat="43.35154" lon="2.37719">
        <ele>246</ele>
        <time>2012-01-06T04:12:00Z</time>
        <course>40.5380858209119</course>
        <speed>8.3068901027554</speed>
      </trkpt>
      <trkpt lat="43.35171" lon="2.37701">
        <ele>246</ele>
        <time>2012-01-06T04:12:03Z</time>
        <course>63.0799493795337</course>
        <speed>4.68678441825267</speed>
      </trkpt>
      <trkpt lat="43.35187" lon="2.37662">
        <ele>247</ele>
        <time>2012-01-06T04:12:11Z</time>
        <course>47.4684537054007</course>
        <speed>4.68683577760725</speed>
      </trkpt>
      <trkpt lat="43.3523" lon="2.37604">
        <ele>250</ele>
        <time>2012-01-06T04:12:25Z</time>
        <course>68.399972588173</course>
        <speed>2.77605708395995</speed>
      </trkpt>
      <trkpt lat="43.35238" lon="2.37579">
        <ele>252</ele>
        <time>2012-01-06T04:12:33Z</time>
        <course>87.7192303385606</course>
        <speed>2.77660679168542</speed>
      </trkpt>
      <trkpt lat="43.35239" lon="2.37548">
        <ele>254</ele>
        <time>2012-01-06T04:12:42Z</time>
        <course>107.20100855999</course>
        <speed>2.77701016855246</speed>
      </trkpt>
      <trkpt lat="43.35225" lon="2.37492">
        <ele>259</ele>
        <time>2012-01-06T04:13:00Z</time>
        <course>90.0052324421283</course>
        <speed>2.77696001095337</speed>
      </trkpt>
      <trkpt lat="43.35225" lon="2.37461">
        <ele>262</ele>
        <time>2012-01-06T04:13:09Z</time>
        <course>22.4889593984353</course>
        <speed>8.32472876847458</speed>
      </trkpt>
      <trkpt lat="43.35266" lon="2.3744">
        <ele>258</ele>
        <time>2012-01-06T04:13:14Z</time>
        <course>36.5434546134378</course>
        <speed>8.31750218370947</speed>
      </trkpt>
      <trkpt lat="43.35302" lon="2.37407">
        <ele>255</ele>
        <time>2012-01-06T04:13:20Z</time>
        <course>342.72564507698</course>
        <speed>8.33327303526554</speed>
      </trkpt>
      <trkpt lat="43.35315" lon="2.37412">
        <ele>254</ele>
        <time>2012-01-06T04:13:22Z</time>
        <course>318.712274158628</course>
        <speed>4.22790255445113</speed>
      </trkpt>
      <trkpt lat="43.3535" lon="2.3745">
        <ele>256</ele>
        <time>2012-01-06T04:13:34Z</time>
        <course>356.297516099855</course>
        <speed>4.22902147383036</speed>
      </trkpt>
      <trkpt lat="43.35375" lon="2.37452">
        <ele>257</ele>
        <time>2012-01-06T04:13:40Z</time>
        <course>25.4487836313645</course>
        <speed>4.22753706851585</speed>
      </trkpt>
      <trkpt lat="43.35392" lon="2.37442">
        <ele>258</ele>
        <time>2012-01-06T04:13:45Z</time>
        <course>43.0974113177495</course>
        <speed>4.22708577306771</speed>
      </trkpt>
      <trkpt lat="43.35424" lon="2.37405">
        <ele>261</ele>
        <time>2012-01-06T04:13:56Z</time>
        <course>35.3072716376206</course>
        <speed>7.4068858713124</speed>
      </trkpt>
      <trkpt lat="43.35456" lon="2.37377">
        <ele>261</ele>
        <time>2012-01-06T04:14:02Z</time>
        <course>14.3390793291754</course>
        <speed>7.41856949084836</speed>
      </trkpt>
      <trkpt lat="43.35475" lon="2.37371">
        <ele>261</ele>
        <time>2012-01-06T04:14:05Z</time>
        <course>350.803278973641</course>
        <speed>7.38742315835751</speed>
      </trkpt>
      <trkpt lat="43.35485" lon="2.37373">
        <ele>261</ele>
        <time>2012-01-06T04:14:06Z</time>
        <course>324.961467758055</course>
        <speed>7.41121368668194</speed>
      </trkpt>
      <trkpt lat="43.35552" lon="2.37431">
        <ele>262</ele>
        <time>2012-01-06T04:14:18Z</time>
        <course>303.954056591246</course>
        <speed>3.19723188704367</speed>
      </trkpt>
      <trkpt lat="43.35564" lon="2.37453">
        <ele>263</ele>
        <time>2012-01-06T04:14:25Z</time>
        <course>290.319546351543</course>
        <speed>3.19572256737181</speed>
      </trkpt>
      <trkpt lat="43.3557" lon="2.37473">
        <ele>265</ele>
        <time>2012-01-06T04:14:31Z</time>
        <course>269.308740943305</course>
        <speed>3.19559579379589</speed>
      </trkpt>
      <trkpt lat="43.35569" lon="2.37578">
        <ele>272</ele>
        <time>2012-01-06T04:14:57Z</time>
        <course>296.033755888027</course>
        <speed>4.23360367109328</speed>
      </trkpt>
      <trkpt lat="43.35588" lon="2.37626">
        <ele>274</ele>
        <time>2012-01-06T04:15:08Z</time>
        <course>321.743717508811</course>
        <speed>4.23216785417851</speed>
      </trkpt>
      <trkpt lat="43.35625" lon="2.37662">
        <ele>276</ele>
        <time>2012-01-06T04:15:19Z</time>
        <course>340.293487941741</course>
        <speed>4.23161961777453</speed>
      </trkpt>
      <trkpt lat="43.35668" lon="2.37681">
        <ele>279</ele>
        <time>2012-01-06T04:15:31Z</time>
        <course>27.5294679648514</course>
        <speed>8.31589668949155</speed>
      </trkpt>
      <trkpt lat="43.35696" lon="2.37663">
        <ele>277</ele>
        <time>2012-01-06T04:15:35Z</time>
        <course>39.6378888264611</course>
        <speed>8.31712664633737</speed>
      </trkpt>
      <trkpt lat="43.35844" lon="2.37512">
        <ele>267</ele>
        <time>2012-01-06T04:16:00Z</time>
        <course>24.273975457899</course>
        <speed>3.01701963297905</speed>
      </trkpt>
      <trkpt lat="43.35862" lon="2.37502">
        <ele>268</ele>
        <time>2012-01-06T04:16:07Z</time>
        <course>360</course>
        <speed>3.01410488248919</speed>
      </trkpt>
      <trkpt lat="43.35877" lon="2.37502">
        <ele>270</ele>
        <time>2012-01-06T04:16:13Z</time>
        <course>337.903756793007</course>
        <speed>3.01759493045453</speed>
      </trkpt>
      <trkpt lat="43.35899" lon="2.37513">
        <ele>272</ele>
        <time>2012-01-06T04:16:21Z</time>
        <course>313.7640439146</course>
        <speed>3.01635710696661</speed>
      </trkpt>
      <trkpt lat="43.35913" lon="2.37531">
        <ele>274</ele>
        <time>2012-01-06T04:16:28Z</time>
        <course>297.815426410967</course>
        <speed>3.01597850456462</speed>
      </trkpt>
      <trkpt lat="43.35931" lon="2.37573">
        <ele>278</ele>
        <time>2012-01-06T04:16:41Z</time>
        <course>280.333406982663</course>
        <speed>8.3066596461281</speed>
      </trkpt>
      <trkpt lat="43.35935" lon="2.376">
        <ele>276</ele>
        <time>2012-01-06T04:16:44Z</time>
        <course>267.384428142516</course>
        <speed>8.30490108950222</speed>
      </trkpt>
      <trkpt lat="43.35934" lon="2.37627">
        <ele>275</ele>
        <time>2012-01-06T04:16:47Z</time>
        <course>248.402432473752</course>
        <speed>8.32780396620377</speed>
      </trkpt>
      <trkpt lat="43.35925" lon="2.37655">
        <ele>274</ele>
        <time>2012-01-06T04:16:50Z</time>
        <course>228.994644008526</course>
        <speed>8.32292301548675</speed>
      </trkpt>
      <trkpt lat="43.35901" lon="2.37689">
        <ele>272</ele>
        <time>2012-01-06T04:16:54Z</time>
        <course>251.253872640012</course>
        <speed>8.31386076525192</speed>
      </trkpt>
      <trkpt lat="43.35882" lon="2.37758">
        <ele>270</ele>
        <time>2012-01-06T04:17:01Z</time>
        <course>223.942484779667</course>
        <speed>2.6983448626008</speed>
      </trkpt>
      <trkpt lat="43.3585" lon="2.37796">
        <ele>274</ele>
        <time>2012-01-06T04:17:19Z</time>
        <course>252.877821432621</course>
        <speed>2.69617029069705</speed>
      </trkpt>
      <trkpt lat="43.35846" lon="2.37812">
        <ele>276</ele>
        <time>2012-01-06T04:17:24Z</time>
        <course>274.400638542702</course>
        <speed>2.69738891209597</speed>
      </trkpt>
      <trkpt lat="43.35847" lon="2.37828">
        <ele>277</ele>
        <time>2012-01-06T04:17:29Z</time>
        <course>310.262179218</course>
        <speed>2.69964512850114</speed>
      </trkpt>
      <trkpt lat="43.35858" lon="2.37844">
        <ele>279</ele>
        <time>2012-01-06T04:17:35Z</time>
        <course>339.460317557864</course>
        <speed>2.69685874997527</speed>
      </trkpt>
      <trkpt lat="43.35871" lon="2.3785">
        <ele>281</ele>
        <time>2012-01-06T04:17:41Z</time>
        <course>1.93759916462579</course>
        <speed>2.69777906323467</speed>
      </trkpt>
      <trkpt lat="43.35895" lon="2.37849">
        <ele>283</ele>
        <time>2012-01-06T04:17:51Z</time>
        <course>13.2666426623375</course>
        <speed>2.69779730863848</speed>
      </trkpt>
      <trkpt lat="43.35926" lon="2.3784">
        <ele>287</ele>
        <time>2012-01-06T04:18:04Z</time>
        <course>347.934976267131</course>
        <speed>2.69708592683332</speed>
      </trkpt>
      <trkpt lat="43.35945" lon="2.37845">
        <ele>289</ele>
        <time>2012-01-06T04:18:12Z</time>
        <course>310.899031018363</course>
        <speed>2.69844849707766</speed>
      </trkpt>
      <trkpt lat="43.35964" lon="2.37872">
        <ele>293</ele>
        <time>2012-01-06T04:18:23Z</time>
        <course>283.45503131039</course>
        <speed>8.31679980427661</speed>
      </trkpt>
      <trkpt lat="43.35971" lon="2.37908">
        <ele>291</ele>
        <time>2012-01-06T04:18:27Z</time>
        <course>265.929111409879</course>
        <speed>8.31226820429671</speed>
      </trkpt>
      <trkpt lat="43.35968" lon="2.3796">
        <ele>289</ele>
        <time>2012-01-06T04:18:32Z</time>
        <course>255.314833956988</course>
        <speed>8.31179900919129</speed>
      </trkpt>
      <trkpt lat="43.35958" lon="2.38007">
        <ele>288</ele>
        <time>2012-01-06T04:18:37Z</time>
        <course>238.376298409492</course>
        <speed>8.32171319551423</speed>
      </trkpt>
      <trkpt lat="43.35935" lon="2.38053">
        <ele>285</ele>
        <time>2012-01-06T04:18:42Z</time>
        <course>223.315190925574</course>
        <speed>8.31802539431889</speed>
      </trkpt>
      <trkpt lat="43.35904" lon="2.38089">
        <ele>283</ele>
        <time>2012-01-06T04:18:47Z</time>
        <course>257.90682926032</course>
        <speed>8.30706982817071</speed>
      </trkpt>
      <trkpt lat="43.359" lon="2.38112">
        <ele>282</ele>
        <time>2012-01-06T04:18:50Z</time>
        <course>306.460442008937</course>
        <speed>5.54229465930596</speed>
      </trkpt>
      <trkpt lat="43.35906" lon="2.38122">
        <ele>282</ele>
        <time>2012-01-06T04:18:52Z</time>
        <course>344.853979343585</course>
        <speed>5.56233113438892</speed>
      </trkpt>
      <trkpt lat="43.35915" lon="2.38125">
        <ele>282</ele>
        <time>2012-01-06T04:18:54Z</time>
        <course>3.09976314703818</course>
        <speed>5.55018909582897</speed>
      </trkpt>
      <trkpt lat="43.3596" lon="2.38122">
        <ele>283</ele>
        <time>2012-01-06T04:19:03Z</time>
        <course>326.120828490519</course>
        <speed>5.55177989295796</speed>
      </trkpt>
      <trkpt lat="43.36029" lon="2.38179">
        <ele>286</ele>
        <time>2012-01-06T04:19:19Z</time>
        <course>343.324543977336</course>
        <speed>8.32122679104369</speed>
      </trkpt>
      <trkpt lat="43.36086" lon="2.382">
        <ele>284</ele>
        <time>2012-01-06T04:19:27Z</time>
        <course>10.8326889831554</course>
        <speed>8.31445369346043</speed>
      </trkpt>
      <trkpt lat="43.3612" lon="2.38192">
        <ele>283</ele>
        <time>2012-01-06T04:19:31Z</time>
        <course>33.1510841194647</course>
        <speed>4.29040458530939</speed>
      </trkpt>
      <trkpt lat="43.36196" lon="2.38131">
        <ele>287</ele>
        <time>2012-01-06T04:19:54Z</time>
        <course>61.3578765469591</course>
        <speed>4.28233974532519</speed>
      </trkpt>
      <trkpt lat="43.362" lon="2.38122">
        <ele>288</ele>
        <time>2012-01-06T04:19:56Z</time>
        <course>90.003163948187</course>
        <speed>4.05003781229077</speed>
      </trkpt>
      <trkpt lat="43.362" lon="2.38103">
        <ele>288</ele>
        <time>2012-01-06T04:20:00Z</time>
        <course>118.652494099377</course>
        <speed>4.05031571926988</speed>
      </trkpt>
      <trkpt lat="43.3618" lon="2.38058">
        <ele>291</ele>
        <time>2012-01-06T04:20:10Z</time>
        <course>97.77977106478</course>
        <speed>4.05252346800324</speed>
      </trkpt>
      <trkpt lat="43.36178" lon="2.3804">
        <ele>291</ele>
        <time>2012-01-06T04:20:14Z</time>
        <course>65.2553143331528</course>
        <speed>4.04006325170081</speed>
      </trkpt>
      <trkpt lat="43.36181" lon="2.38032">
        <ele>292</ele>
        <time>2012-01-06T04:20:16Z</time>
        <course>24.593814542465</course>
        <speed>4.05242298322019</speed>
      </trkpt>
      <trkpt lat="43.36197" lon="2.38023">
        <ele>293</ele>
        <time>2012-01-06T04:20:20Z</time>
        <course>354.832617718714</course>
        <speed>4.04979913092198</speed>
      </trkpt>
      <trkpt lat="43.36233" lon="2.38027">
        <ele>295</ele>
        <time>2012-01-06T04:20:30Z</time>
        <course>18.3483757616188</course>
        <speed>4.05321434532881</speed>
      </trkpt>
      <trkpt lat="43.3626" lon="2.38016">
        <ele>297</ele>
        <time>2012-01-06T04:20:38Z</time>
        <course>39.1554559000202</course>
        <speed>4.60502164810701</speed>
      </trkpt>
      <trkpt lat="43.3629" lon="2.37986">
        <ele>298</ele>
        <time>2012-01-06T04:20:47Z</time>
        <course>54.947972070358</course>
        <speed>4.605817957188</speed>
      </trkpt>
      <trkpt lat="43.36314" lon="2.37944">
        <ele>300</ele>
        <time>2012-01-06T04:20:56Z</time>
        <course>72.2463402184</course>
        <speed>4.60694115168468</speed>
      </trkpt>
      <trkpt lat="43.36326" lon="2.37898">
        <ele>302</ele>
        <time>2012-01-06T04:21:05Z</time>
        <course>88.291477543649</course>
        <speed>8.32684878141069</speed>
      </trkpt>
      <trkpt lat="43.36327" lon="2.37857">
        <ele>300</ele>
        <time>2012-01-06T04:21:09Z</time>
        <course>101.487242600566</course>
        <speed>8.32076182733056</speed>
      </trkpt>
      <trkpt lat="43.36308" lon="2.37742">
        <ele>298</ele>
        <time>2012-01-06T04:21:20Z</time>
        <course>92.9991216250588</course>
        <speed>6.5351348562764</speed>
      </trkpt>
      <trkpt lat="43.36306" lon="2.37695">
        <ele>298</ele>
        <time>2012-01-06T04:21:26Z</time>
        <course>73.5829836111981</course>
        <speed>6.54417221198897</speed>
      </trkpt>
      <trkpt lat="43.36312" lon="2.3767">
        <ele>298</ele>
        <time>2012-01-06T04:21:29Z</time>
        <course>51.8006902661581</course>
        <speed>6.53260188418206</speed>
      </trkpt>
      <trkpt lat="43.36337" lon="2.37631">
        <ele>299</ele>
        <time>2012-01-06T04:21:36Z</time>
        <course>30.473742813093</course>
        <speed>6.53867315161795</speed>
      </trkpt>
      <trkpt lat="43.36373" lon="2.37605">
        <ele>300</ele>
        <time>2012-01-06T04:21:43Z</time>
        <course>9.73386191116698</course>
        <speed>2.85162335961788</speed>
      </trkpt>
      <trkpt lat="43.36392" lon="2.37601">
        <ele>302</ele>
        <time>2012-01-06T04:21:50Z</time>
        <course>344.802729318573</course>
        <speed>2.85444284278877</speed>
      </trkpt>
      <trkpt lat="43.3641" lon="2.37607">
        <ele>304</ele>
        <time>2012-01-06T04:21:57Z</time>
        <course>320.81830748136</course>
        <speed>2.85098886794126</speed>
      </trkpt>
      <trkpt lat="43.36426" lon="2.37623">
        <ele>306</ele>
        <time>2012-01-06T04:22:05Z</time>
        <course>295.330804393804</course>
        <speed>2.85321231797524</speed>
      </trkpt>
      <trkpt lat="43.36465" lon="2.37724">
        <ele>315</ele>
        <time>2012-01-06T04:22:38Z</time>
        <course>318.112437181192</course>
        <speed>8.32058750584004</speed>
      </trkpt>
      <trkpt lat="43.36475" lon="2.37735">
        <ele>314</ele>
        <time>2012-01-06T04:22:39Z</time>
        <course>352.260855245905</course>
        <speed>8.3255739014705</speed>
      </trkpt>
      <trkpt lat="43.36493" lon="2.37738">
        <ele>313</ele>
        <time>2012-01-06T04:22:42Z</time>
        <course>26.6069991925922</course>
        <speed>8.3168678270966</speed>
      </trkpt>
      <trkpt lat="43.3655" lon="2.37703">
        <ele>309</ele>
        <time>2012-01-06T04:22:50Z</time>
        <course>45.3233634341947</course>
        <speed>8.31780405490022</speed>
      </trkpt>
      <trkpt lat="43.36638" lon="2.37594">
        <ele>302</ele>
        <time>2012-01-06T04:23:06Z</time>
        <course>24.3943258580808</course>
        <speed>3.68110864312363</speed>
      </trkpt>
      <trkpt lat="43.36647" lon="2.37589">
        <ele>302</ele>
        <time>2012-01-06T04:23:09Z</time>
        <course>5.82678363060887</course>
        <speed>3.6733450294329</speed>
      </trkpt>
      <trkpt lat="43.36663" lon="2.37587">
        <ele>303</ele>
        <time>2012-01-06T04:23:14Z</time>
        <course>339.524181121611</course>
        <speed>3.67564457444936</speed>
      </trkpt>
      <trkpt lat="43.36733" lon="2.37619">
        <ele>309</ele>
        <time>2012-01-06T04:23:36Z</time>
        <course>7.75279492051419</course>
        <speed>4.99327796487333</speed>
      </trkpt>
      <trkpt lat="43.36745" lon="2.37617">
        <ele>309</ele>
        <time>2012-01-06T04:23:39Z</time>
        <course>59.8952108452065</course>
        <speed>4.99154650638332</speed>
      </trkpt>
      <trkpt lat="43.36754" lon="2.37598">
        <ele>310</ele>
        <time>2012-01-06T04:23:42Z</time>
        <course>94.2484303830274</course>
        <speed>4.99066334756859</speed>
      </trkpt>
      <trkpt lat="43.36752" lon="2.37565">
        <ele>310</ele>
        <time>2012-01-06T04:23:48Z</time>
        <course>6.35826993988947</course>
        <speed>4.99313484347297</speed>
      </trkpt>
      <trkpt lat="43.36796" lon="2.37559">
        <ele>312</ele>
        <time>2012-01-06T04:23:57Z</time>
        <course>358.767765709996</course>
        <speed>4.99211891477099</speed>
      </trkpt>
      <trkpt lat="43.36834" lon="2.3756">
        <ele>314</ele>
        <time>2012-01-06T04:24:06Z</time>
        <course>345.669739938802</course>
        <speed>3.85458757457568</speed>
      </trkpt>
      <trkpt lat="43.3685" lon="2.37565">
        <ele>315</ele>
        <time>2012-01-06T04:24:11Z</time>
        <course>329.438971393745</course>
        <speed>3.85506998788015</speed>
      </trkpt>
      <trkpt lat="43.36868" lon="2.37578">
        <ele>316</ele>
        <time>2012-01-06T04:24:17Z</time>
        <course>320.727095044472</course>
        <speed>3.85385050606004</speed>
      </trkpt>
      <trkpt lat="43.36885" lon="2.37595">
        <ele>317</ele>
        <time>2012-01-06T04:24:23Z</time>
        <course>307.235097805347</course>
        <speed>3.85542527696873</speed>
      </trkpt>
      <trkpt lat="43.36908" lon="2.37632">
        <ele>320</ele>
        <time>2012-01-06T04:24:33Z</time>
        <course>295.180218671221</course>
        <speed>8.32736426760063</speed>
      </trkpt>
      <trkpt lat="43.36923" lon="2.37671">
        <ele>317</ele>
        <time>2012-01-06T04:24:37Z</time>
        <course>288.429175747646</course>
        <speed>8.31268677539804</speed>
      </trkpt>
      <trkpt lat="43.36941" lon="2.37737">
        <ele>313</ele>
        <time>2012-01-06T04:24:44Z</time>
        <course>308.16054326088</course>
        <speed>8.34065001070897</speed>
      </trkpt>
      <trkpt lat="43.3695" lon="2.37751">
        <ele>312</ele>
        <time>2012-01-06T04:24:46Z</time>
        <course>15.2542312000163</course>
        <speed>2.7440570899751</speed>
      </trkpt>
      <trkpt lat="43.36965" lon="2.37746">
        <ele>313</ele>
        <time>2012-01-06T04:24:52Z</time>
        <course>40.1129286900051</course>
        <speed>2.74348114691198</speed>
      </trkpt>
      <trkpt lat="43.36999" lon="2.37711">
        <ele>318</ele>
        <time>2012-01-06T04:25:09Z</time>
        <course>29.6561402977118</course>
        <speed>2.74325914941777</speed>
      </trkpt>
      <trkpt lat="43.37022" lon="2.37695">
        <ele>321</ele>
        <time>2012-01-06T04:25:20Z</time>
        <course>9.00342970046162</course>
        <speed>2.74341302099265</speed>
      </trkpt>
      <trkpt lat="43.37053" lon="2.37689">
        <ele>325</ele>
        <time>2012-01-06T04:25:32Z</time>
        <course>355.539974686106</course>
        <speed>4.45826968729795</speed>
      </trkpt>
      <trkpt lat="43.37116" lon="2.37695">
        <ele>328</ele>
        <time>2012-01-06T04:25:48Z</time>
        <course>344.728821476429</course>
        <speed>4.4546313713911</speed>
      </trkpt>
      <trkpt lat="43.37131" lon="2.377">
        <ele>328</ele>
        <time>2012-01-06T04:25:52Z</time>
        <course>317.978648646643</course>
        <speed>4.46006122737598</speed>
      </trkpt>
      <trkpt lat="43.37141" lon="2.37711">
        <ele>329</ele>
        <time>2012-01-06T04:25:55Z</time>
        <course>306.913072043284</course>
        <speed>4.45252369991715</speed>
      </trkpt>
      <trkpt lat="43.37149" lon="2.37724">
        <ele>330</ele>
        <time>2012-01-06T04:25:58Z</time>
        <course>288.252373003659</course>
        <speed>5.59396625136989</speed>
      </trkpt>
      <trkpt lat="43.37159" lon="2.37761">
        <ele>330</ele>
        <time>2012-01-06T04:26:04Z</time>
        <course>302.714352872165</course>
        <speed>5.58927555514086</speed>
      </trkpt>
      <trkpt lat="43.37169" lon="2.3778">
        <ele>331</ele>
        <time>2012-01-06T04:26:07Z</time>
        <course>344.724053759764</course>
        <speed>5.59249661029911</speed>
      </trkpt>
      <trkpt lat="43.37178" lon="2.37783">
        <ele>331</ele>
        <time>2012-01-06T04:26:09Z</time>
        <course>10.9850494999192</course>
        <speed>5.59357915487166</speed>
      </trkpt>
      <trkpt lat="43.37216" lon="2.37774">
        <ele>332</ele>
        <time>2012-01-06T04:26:17Z</time>
        <course>351.769407583221</course>
        <speed>5.60152599466485</speed>
      </trkpt>
      <trkpt lat="43.37233" lon="2.37777">
        <ele>333</ele>
        <time>2012-01-06T04:26:20Z</time>
        <course>323.581365008992</course>
        <speed>8.29919525870537</speed>
      </trkpt>
      <trkpt lat="43.37243" lon="2.37786">
        <ele>332</ele>
        <time>2012-01-06T04:26:22Z</time>
        <course>300.793491779577</course>
        <speed>8.31988225909092</speed>
      </trkpt>
      <trkpt lat="43.37287" lon="2.37876">
        <ele>332</ele>
        <time>2012-01-06T04:26:32Z</time>
        <course>345.838505386059</course>
        <speed>5.363227157247</speed>
      </trkpt>
      <trkpt lat="43.373" lon="2.3788">
        <ele>332</ele>
        <time>2012-01-06T04:26:35Z</time>
        <course>20.7364251565679</course>
        <speed>5.36509933749948</speed>
      </trkpt>
      <trkpt lat="43.37339" lon="2.37862">
        <ele>333</ele>
        <time>2012-01-06T04:26:44Z</time>
        <course>8.67949820924615</course>
        <speed>5.36335383379885</speed>
      </trkpt>
      <trkpt lat="43.37382" lon="2.37854">
        <ele>335</ele>
        <time>2012-01-06T04:26:53Z</time>
        <course>275.637344822476</course>
        <speed>3.23343313300684</speed>
      </trkpt>
      <trkpt lat="43.37385" lon="2.37891">
        <ele>337</ele>
        <time>2012-01-06T04:27:02Z</time>
        <course>287.346597688667</course>
        <speed>3.23363204823715</speed>
      </trkpt>
      <trkpt lat="43.37395" lon="2.3793">
        <ele>340</ele>
        <time>2012-01-06T04:27:12Z</time>
        <course>308.167867644985</course>
        <speed>3.2315972585234</speed>
      </trkpt>
      <trkpt lat="43.37415" lon="2.37961">
        <ele>342</ele>
        <time>2012-01-06T04:27:23Z</time>
        <course>326.111633368945</course>
        <speed>3.23215783698481</speed>
      </trkpt>
      <trkpt lat="43.37448" lon="2.37988">
        <ele>346</ele>
        <time>2012-01-06T04:27:36Z</time>
        <course>301.342687951487</course>
        <speed>2.31578697722419</speed>
      </trkpt>
      <trkpt lat="43.37454" lon="2.38">
        <ele>347</ele>
        <time>2012-01-06T04:27:41Z</time>
        <course>263.6754033271</course>
        <speed>2.3156944790979</speed>
      </trkpt>
      <trkpt lat="43.37451" lon="2.38033">
        <ele>351</ele>
        <time>2012-01-06T04:27:52Z</time>
        <course>243.498321075739</course>
        <speed>2.31535883180431</speed>
      </trkpt>
      <trkpt lat="43.37424" lon="2.38099">
        <ele>358</ele>
        <time>2012-01-06T04:28:19Z</time>
        <course>280.886101867902</course>
        <speed>2.31628822153132</speed>
      </trkpt>
      <trkpt lat="43.37427" lon="2.38118">
        <ele>361</ele>
        <time>2012-01-06T04:28:26Z</time>
        <course>306.855272363179</course>
        <speed>6.21124830932759</speed>
      </trkpt>
      <trkpt lat="43.37443" lon="2.38144">
        <ele>361</ele>
        <time>2012-01-06T04:28:30Z</time>
        <course>287.355813897501</course>
        <speed>6.20859447033414</speed>
      </trkpt>
      <trkpt lat="43.37462" lon="2.38218">
        <ele>362</ele>
        <time>2012-01-06T04:28:40Z</time>
        <course>269.994602237373</course>
        <speed>6.21313765310706</speed>
      </trkpt>
      <trkpt lat="43.37462" lon="2.38251">
        <ele>363</ele>
        <time>2012-01-06T04:28:45Z</time>
        <course>279.350247145949</course>
        <speed>2.73677994066258</speed>
      </trkpt>
      <trkpt lat="43.37475" lon="2.38347">
        <ele>371</ele>
        <time>2012-01-06T04:29:13Z</time>
        <course>304.969283121571</course>
        <speed>2.73680003072069</speed>
      </trkpt>
      <trkpt lat="43.37502" lon="2.38394">
        <ele>376</ele>
        <time>2012-01-06T04:29:31Z</time>
        <course>342.46982175287</course>
        <speed>3.40897659141113</speed>
      </trkpt>
      <trkpt lat="43.37515" lon="2.38399">
        <ele>377</ele>
        <time>2012-01-06T04:29:35Z</time>
        <course>5.58576145340156</course>
        <speed>3.40441887782258</speed>
      </trkpt>
      <trkpt lat="43.37557" lon="2.38394">
        <ele>380</ele>
        <time>2012-01-06T04:29:49Z</time>
        <course>320.593913982277</course>
        <speed>3.40594391921165</speed>
      </trkpt>
      <trkpt lat="43.37566" lon="2.38403">
        <ele>381</ele>
        <time>2012-01-06T04:29:53Z</time>
        <course>269.997060170252</course>
        <speed>3.40479924367723</speed>
      </trkpt>
      <trkpt lat="43.37566" lon="2.38421">
        <ele>382</ele>
        <time>2012-01-06T04:29:57Z</time>
        <course>253.504804560499</course>
        <speed>3.40525842699026</speed>
      </trkpt>
      <trkpt lat="43.3754" lon="2.38528">
        <ele>389</ele>
        <time>2012-01-06T04:30:24Z</time>
        <course>269.995751988326</course>
        <speed>8.33338696515028</speed>
      </trkpt>
      <trkpt lat="43.3754" lon="2.38554">
        <ele>388</ele>
        <time>2012-01-06T04:30:26Z</time>
        <course>289.176624882429</course>
        <speed>8.32189564924641</speed>
      </trkpt>
      <trkpt lat="43.37544" lon="2.38568">
        <ele>388</ele>
        <time>2012-01-06T04:30:28Z</time>
        <course>305.890413732241</course>
        <speed>8.32109748799698</speed>
      </trkpt>
      <trkpt lat="43.37566" lon="2.38605">
        <ele>387</ele>
        <time>2012-01-06T04:30:32Z</time>
        <course>324.284845056994</course>
        <speed>8.32824304605799</speed>
      </trkpt>
      <trkpt lat="43.37582" lon="2.38619">
        <ele>386</ele>
        <time>2012-01-06T04:30:35Z</time>
        <course>353.301356942076</course>
        <speed>8.31938453621073</speed>
      </trkpt>
      <trkpt lat="43.37666" lon="2.38631">
        <ele>384</ele>
        <time>2012-01-06T04:30:46Z</time>
        <course>295.699995051475</course>
        <speed>1.62416165440873</speed>
      </trkpt>
      <trkpt lat="43.37685" lon="2.38679">
        <ele>393</ele>
        <time>2012-01-06T04:31:13Z</time>
        <course>312.616158239138</course>
        <speed>1.62426941880647</speed>
      </trkpt>
      <trkpt lat="43.37713" lon="2.38716">
        <ele>402</ele>
        <time>2012-01-06T04:31:40Z</time>
        <course>303.360140546556</course>
        <speed>1.62410411309042</speed>
      </trkpt>
      <trkpt lat="43.37739" lon="2.38764">
        <ele>412</ele>
        <time>2012-01-06T04:32:10Z</time>
        <course>342.309304525676</course>
        <speed>8.31772664953987</speed>
      </trkpt>
      <trkpt lat="43.37912" lon="2.38831">
        <ele>409</ele>
        <time>2012-01-06T04:32:34Z</time>
        <course>322.755136301808</course>
        <speed>2.47447576934282</speed>
      </trkpt>
      <trkpt lat="43.37925" lon="2.38843">
        <ele>411</ele>
        <time>2012-01-06T04:32:41Z</time>
        <course>288.456776724374</course>
        <speed>2.47604896512014</speed>
      </trkpt>
      <trkpt lat="43.37936" lon="2.38883">
        <ele>415</ele>
        <time>2012-01-06T04:32:55Z</time>
        <course>276.758025283218</course>
        <speed>2.47599958893117</speed>
      </trkpt>
      <trkpt lat="43.37945" lon="2.38975">
        <ele>424</ele>
        <time>2012-01-06T04:33:25Z</time>
        <course>262.199192283634</course>
        <speed>3.65874514877284</speed>
      </trkpt>
      <trkpt lat="43.37937" lon="2.39046">
        <ele>427</ele>
        <time>2012-01-06T04:33:41Z</time>
        <course>279.236447400221</course>
        <speed>3.65808503399862</speed>
      </trkpt>
      <trkpt lat="43.37948" lon="2.39128">
        <ele>432</ele>
        <time>2012-01-06T04:33:59Z</time>
        <course>257.78874659528</course>
        <speed>2.87823221060543</speed>
      </trkpt>
      <trkpt lat="43.37935" lon="2.39201">
        <ele>437</ele>
        <time>2012-01-06T04:34:20Z</time>
        <course>310.920488571002</course>
        <speed>2.87791922666686</speed>
      </trkpt>
      <trkpt lat="43.3797" lon="2.3925">
        <ele>443</ele>
        <time>2012-01-06T04:34:40Z</time>
        <course>300.471850940735</course>
        <speed>3.94982796941794</speed>
      </trkpt>
      <trkpt lat="43.38019" lon="2.39351">
        <ele>448</ele>
        <time>2012-01-06T04:35:05Z</time>
        <course>308.421369518219</course>
        <speed>3.95035449551806</speed>
      </trkpt>
      <trkpt lat="43.38036" lon="2.39377">
        <ele>450</ele>
        <time>2012-01-06T04:35:12Z</time>
        <course>294.451685431861</course>
        <speed>4.43651843200888</speed>
      </trkpt>
      <trkpt lat="43.3806" lon="2.39441">
        <ele>452</ele>
        <time>2012-01-06T04:35:25Z</time>
        <course>307.944349857225</course>
        <speed>4.43970985424291</speed>
      </trkpt>
      <trkpt lat="43.38069" lon="2.39455">
        <ele>453</ele>
        <time>2012-01-06T04:35:28Z</time>
        <course>232.333506576608</course>
        <speed>4.43907176396399</speed>
      </trkpt>
      <trkpt lat="43.38062" lon="2.39466">
        <ele>453</ele>
        <time>2012-01-06T04:35:31Z</time>
        <course>152.74347034164</course>
        <speed>4.43808658910381</speed>
      </trkpt>
      <trkpt lat="43.38046" lon="2.39456">
        <ele>454</ele>
        <time>2012-01-06T04:35:35Z</time>
        <course>121.251176015539</course>
        <speed>4.43717052214429</speed>
      </trkpt>
      <trkpt lat="43.38019" lon="2.39402">
        <ele>456</ele>
        <time>2012-01-06T04:35:47Z</time>
        <course>131.241630810245</course>
        <speed>4.43918047517278</speed>
      </trkpt>
      <trkpt lat="43.3798" lon="2.39348">
        <ele>459</ele>
        <time>2012-01-06T04:36:01Z</time>
        <course>125.382556178031</course>
        <speed>4.43814952941436</speed>
      </trkpt>
      <trkpt lat="43.37949" lon="2.39295">
        <ele>462</ele>
        <time>2012-01-06T04:36:13Z</time>
        <course>175.71765898069</course>
        <speed>2.15287404804923</speed>
      </trkpt>
      <trkpt lat="43.37938" lon="2.39294">
        <ele>463</ele>
        <time>2012-01-06T04:36:19Z</time>
        <course>250.867188851462</course>
        <speed>2.15412834318384</speed>
      </trkpt>
      <trkpt lat="43.37934" lon="2.39308">
        <ele>465</ele>
        <time>2012-01-06T04:36:25Z</time>
        <course>286.882108221156</course>
        <speed>2.15315814425021</speed>
      </trkpt>
      <trkpt lat="43.37937" lon="2.3932">
        <ele>466</ele>
        <time>2012-01-06T04:36:30Z</time>
        <course>307.601371482816</course>
        <speed>2.15513725410347</speed>
      </trkpt>
      <trkpt lat="43.3797" lon="2.39372">
        <ele>474</ele>
        <time>2012-01-06T04:36:55Z</time>
        <course>292.738475472553</course>
        <speed>2.15428419334197</speed>
      </trkpt>
      <trkpt lat="43.37989" lon="2.39427">
        <ele>482</ele>
        <time>2012-01-06T04:37:18Z</time>
        <course>305.519360741458</course>
        <speed>4.38290085371196</speed>
      </trkpt>
      <trkpt lat="43.37999" lon="2.39444">
        <ele>482</ele>
        <time>2012-01-06T04:37:22Z</time>
        <course>286.11243772665</course>
        <speed>4.38506340880661</speed>
      </trkpt>
      <trkpt lat="43.38004" lon="2.39465">
        <ele>483</ele>
        <time>2012-01-06T04:37:26Z</time>
        <course>275.86194893065</course>
        <speed>4.38112377138467</speed>
      </trkpt>
      <trkpt lat="43.38009" lon="2.39524">
        <ele>485</ele>
        <time>2012-01-06T04:37:37Z</time>
        <course>330.568719607138</course>
        <speed>4.38276919642511</speed>
      </trkpt>
      <trkpt lat="43.38085" lon="2.39576">
        <ele>490</ele>
        <time>2012-01-06T04:37:59Z</time>
        <course>313.616205138516</course>
        <speed>2.3820878957014</speed>
      </trkpt>
      <trkpt lat="43.38096" lon="2.3959">
        <ele>492</ele>
        <time>2012-01-06T04:38:06Z</time>
        <course>293.793137987412</course>
        <speed>2.38219044461335</speed>
      </trkpt>
      <trkpt lat="43.38104" lon="2.39612">
        <ele>494</ele>
        <time>2012-01-06T04:38:14Z</time>
        <course>274.25725131654</course>
        <speed>2.38385848229149</speed>
      </trkpt>
      <trkpt lat="43.38108" lon="2.39677">
        <ele>501</ele>
        <time>2012-01-06T04:38:36Z</time>
        <course>260.167284212721</course>
        <speed>2.38325805737369</speed>
      </trkpt>
      <trkpt lat="43.38104" lon="2.39705">
        <ele>504</ele>
        <time>2012-01-06T04:38:46Z</time>
        <course>247.981937912668</course>
        <speed>2.05568082871919</speed>
      </trkpt>
      <trkpt lat="43.38089" lon="2.3975">
        <ele>510</ele>
        <time>2012-01-06T04:39:05Z</time>
        <course>269.996920276675</course>
        <speed>2.05695217091757</speed>
      </trkpt>
      <trkpt lat="43.38089" lon="2.39769">
        <ele>512</ele>
        <time>2012-01-06T04:39:13Z</time>
        <course>292.152205804129</course>
        <speed>2.05631892159902</speed>
      </trkpt>
      <trkpt lat="43.3813" lon="2.39891">
        <ele>529</ele>
        <time>2012-01-06T04:40:06Z</time>
        <course>301.215964244566</course>
        <speed>4.04781023480577</speed>
      </trkpt>
      <trkpt lat="43.38153" lon="2.39937">
        <ele>531</ele>
        <time>2012-01-06T04:40:17Z</time>
        <course>330.186719999702</course>
        <speed>4.04784649681057</speed>
      </trkpt>
      <trkpt lat="43.38189" lon="2.39962">
        <ele>533</ele>
        <time>2012-01-06T04:40:28Z</time>
        <course>360</course>
        <speed>4.04072727242513</speed>
      </trkpt>
      <trkpt lat="43.38201" lon="2.39962">
        <ele>534</ele>
        <time>2012-01-06T04:40:31Z</time>
        <course>45.8970310438339</course>
        <speed>4.0472878563787</speed>
      </trkpt>
      <trkpt lat="43.38233" lon="2.39922">
        <ele>537</ele>
        <time>2012-01-06T04:40:43Z</time>
        <course>23.3309328797635</course>
        <speed>8.31795514661357</speed>
      </trkpt>
      <trkpt lat="43.38323" lon="2.39875">
        <ele>529</ele>
        <time>2012-01-06T04:40:56Z</time>
        <course>341.71806810819</course>
        <speed>1.52866950399249</speed>
      </trkpt>
      <trkpt lat="43.38333" lon="2.39879">
        <ele>531</ele>
        <time>2012-01-06T04:41:03Z</time>
        <course>312.23914869826</course>
        <speed>1.52864925588638</speed>
      </trkpt>
      <trkpt lat="43.38342" lon="2.39891">
        <ele>534</ele>
        <time>2012-01-06T04:41:13Z</time>
        <course>294.141620951084</course>
        <speed>1.52813372480362</speed>
      </trkpt>
      <trkpt lat="43.38362" lon="2.39945">
        <ele>545</ele>
        <time>2012-01-06T04:41:45Z</time>
        <course>311.357759897372</course>
        <speed>1.52888729985789</speed>
      </trkpt>
      <trkpt lat="43.3837" lon="2.39956">
        <ele>548</ele>
        <time>2012-01-06T04:41:53Z</time>
        <course>355.703400495789</course>
        <speed>1.52817481860705</speed>
      </trkpt>
      <trkpt lat="43.38425" lon="2.39961">
        <ele>562</ele>
        <time>2012-01-06T04:42:33Z</time>
        <course>13.6650499102183</course>
        <speed>8.32635170755284</speed>
      </trkpt>
      <trkpt lat="43.38459" lon="2.39951">
        <ele>558</ele>
        <time>2012-01-06T04:42:37Z</time>
        <course>38.7036854695115</course>
        <speed>8.31495051232397</speed>
      </trkpt>
      <trkpt lat="43.38523" lon="2.39889">
        <ele>552</ele>
        <time>2012-01-06T04:42:48Z</time>
        <course>16.7397076531709</course>
        <speed>1.75716914239276</speed>
      </trkpt>
      <trkpt lat="43.38545" lon="2.39881">
        <ele>556</ele>
        <time>2012-01-06T04:43:02Z</time>
        <course>337.530082451369</course>
        <speed>1.75711586327603</speed>
      </trkpt>
      <trkpt lat="43.38559" lon="2.39888">
        <ele>559</ele>
        <time>2012-01-06T04:43:12Z</time>
        <course>314.040286537849</course>
        <speed>1.75842119789138</speed>
      </trkpt>
      <trkpt lat="43.38567" lon="2.39898">
        <ele>562</ele>
        <time>2012-01-06T04:43:19Z</time>
        <course>294.002917203109</course>
        <speed>1.75716477981572</speed>
      </trkpt>
      <trkpt lat="43.38574" lon="2.39917">
        <ele>565</ele>
        <time>2012-01-06T04:43:28Z</time>
        <course>283.121202571752</course>
        <speed>1.75742134689798</speed>
      </trkpt>
      <trkpt lat="43.38585" lon="2.39974">
        <ele>574</ele>
        <time>2012-01-06T04:43:55Z</time>
        <course>302.804282788646</course>
        <speed>1.75734112906366</speed>
      </trkpt>
      <trkpt lat="43.38593" lon="2.39989">
        <ele>577</ele>
        <time>2012-01-06T04:44:04Z</time>
        <course>334.624763062167</course>
        <speed>8.32044732158624</speed>
      </trkpt>
      <trkpt lat="43.38696" lon="2.40048">
        <ele>575</ele>
        <time>2012-01-06T04:44:19Z</time>
        <course>310.920595082615</course>
        <speed>2.39045163017254</speed>
      </trkpt>
      <trkpt lat="43.38724" lon="2.40087">
        <ele>580</ele>
        <time>2012-01-06T04:44:37Z</time>
        <course>289.39823358092</course>
        <speed>2.38942719497115</speed>
      </trkpt>
      <trkpt lat="43.38731" lon="2.40111">
        <ele>583</ele>
        <time>2012-01-06T04:44:46Z</time>
        <course>276.259082586742</course>
        <speed>2.3893659054891</speed>
      </trkpt>
      <trkpt lat="43.38734" lon="2.40144">
        <ele>586</ele>
        <time>2012-01-06T04:44:57Z</time>
        <course>259.061215775988</course>
        <speed>2.38982352623958</speed>
      </trkpt>
      <trkpt lat="43.3873" lon="2.40169">
        <ele>589</ele>
        <time>2012-01-06T04:45:06Z</time>
        <course>237.483299072523</course>
        <speed>2.64963787423263</speed>
      </trkpt>
      <trkpt lat="43.38711" lon="2.40205">
        <ele>592</ele>
        <time>2012-01-06T04:45:20Z</time>
        <course>266.854420194828</course>
        <speed>2.64890356062919</speed>
      </trkpt>
      <trkpt lat="43.3871" lon="2.40227">
        <ele>594</ele>
        <time>2012-01-06T04:45:26Z</time>
        <course>290.382323138123</course>
        <speed>2.6512142913592</speed>
      </trkpt>
      <trkpt lat="43.38714" lon="2.4024">
        <ele>595</ele>
        <time>2012-01-06T04:45:31Z</time>
        <course>311.88731237878</course>
        <speed>2.65030674688083</speed>
      </trkpt>
      <trkpt lat="43.3874" lon="2.40275">
        <ele>600</ele>
        <time>2012-01-06T04:45:46Z</time>
        <course>296.432219319996</course>
        <speed>2.65187035389333</speed>
      </trkpt>
      <trkpt lat="43.38747" lon="2.40292">
        <ele>602</ele>
        <time>2012-01-06T04:45:52Z</time>
        <course>279.33126935115</course>
        <speed>3.80223838671979</speed>
      </trkpt>
      <trkpt lat="43.38762" lon="2.40402">
        <ele>607</ele>
        <time>2012-01-06T04:46:16Z</time>
        <course>286.345923452146</course>
        <speed>3.802252119784</speed>
      </trkpt>
      <trkpt lat="43.38789" lon="2.40513">
        <ele>613</ele>
        <time>2012-01-06T04:46:40Z</time>
        <course>277.492342223961</course>
        <speed>1.99077228944589</speed>
      </trkpt>
      <trkpt lat="43.38795" lon="2.40568">
        <ele>620</ele>
        <time>2012-01-06T04:47:03Z</time>
        <course>261.098706423203</course>
        <speed>1.99078526407653</speed>
      </trkpt>
      <trkpt lat="43.38788" lon="2.40622">
        <ele>627</ele>
        <time>2012-01-06T04:47:25Z</time>
        <course>234.383188045035</course>
        <speed>1.99037922366323</speed>
      </trkpt>
      <trkpt lat="43.38753" lon="2.40681">
        <ele>637</ele>
        <time>2012-01-06T04:47:56Z</time>
        <course>261.913117068489</course>
        <speed>3.63102823767298</speed>
      </trkpt>
      <trkpt lat="43.38751" lon="2.40698">
        <ele>637</ele>
        <time>2012-01-06T04:48:00Z</time>
        <course>308.057677937865</course>
        <speed>3.63426035086519</speed>
      </trkpt>
      <trkpt lat="43.38775" lon="2.40735">
        <ele>640</ele>
        <time>2012-01-06T04:48:11Z</time>
        <course>296.84351441742</course>
        <speed>3.63552756557928</speed>
      </trkpt>
      <trkpt lat="43.38788" lon="2.40766">
        <ele>642</ele>
        <time>2012-01-06T04:48:19Z</time>
        <course>271.96391982734</course>
        <speed>3.6356587113545</speed>
      </trkpt>
      <trkpt lat="43.3879" lon="2.40836">
        <ele>646</ele>
        <time>2012-01-06T04:48:35Z</time>
        <course>285.848942267365</course>
        <speed>8.31679959115686</speed>
      </trkpt>
      <trkpt lat="43.38798" lon="2.4087">
        <ele>643</ele>
        <time>2012-01-06T04:48:38Z</time>
        <course>310.426077754341</course>
        <speed>8.32088128118219</speed>
      </trkpt>
      <trkpt lat="43.3881" lon="2.40887">
        <ele>641</ele>
        <time>2012-01-06T04:48:40Z</time>
        <course>330.699631402888</course>
        <speed>8.31553173097031</speed>
      </trkpt>
      <trkpt lat="43.38875" lon="2.40931">
        <ele>634</ele>
        <time>2012-01-06T04:48:50Z</time>
        <course>302.560588142294</course>
        <speed>2.03405746355518</speed>
      </trkpt>
      <trkpt lat="43.38884" lon="2.40948">
        <ele>636</ele>
        <time>2012-01-06T04:48:58Z</time>
        <course>261.054748826511</course>
        <speed>2.03337575287527</speed>
      </trkpt>
      <trkpt lat="43.38881" lon="2.40971">
        <ele>639</ele>
        <time>2012-01-06T04:49:08Z</time>
        <course>243.986108727633</course>
        <speed>2.03326882353432</speed>
      </trkpt>
      <trkpt lat="43.38843" lon="2.41065">
        <ele>653</ele>
        <time>2012-01-06T04:49:50Z</time>
        <course>236.871800736729</course>
        <speed>3.00544640624192</speed>
      </trkpt>
      <trkpt lat="43.38803" lon="2.41139">
        <ele>659</ele>
        <time>2012-01-06T04:50:15Z</time>
        <course>283.567245136755</course>
        <speed>3.00736878062239</speed>
      </trkpt>
      <trkpt lat="43.38807" lon="2.41159">
        <ele>661</ele>
        <time>2012-01-06T04:50:21Z</time>
        <course>305.140975617886</course>
        <speed>3.00508438830863</speed>
      </trkpt>
      <trkpt lat="43.38821" lon="2.41183">
        <ele>663</ele>
        <time>2012-01-06T04:50:29Z</time>
        <course>268.662228161513</course>
        <speed>3.00472821396912</speed>
      </trkpt>
      <trkpt lat="43.3882" lon="2.41235">
        <ele>667</ele>
        <time>2012-01-06T04:50:43Z</time>
        <course>279.766435443454</course>
        <speed>2.09955907440596</speed>
      </trkpt>
      <trkpt lat="43.38833" lon="2.41326">
        <ele>678</ele>
        <time>2012-01-06T04:51:19Z</time>
        <course>261.418587261409</course>
        <speed>2.09874306917747</speed>
      </trkpt>
      <trkpt lat="43.3883" lon="2.4135">
        <ele>681</ele>
        <time>2012-01-06T04:51:28Z</time>
        <course>237.960508037083</course>
        <speed>2.09907666573249</speed>
      </trkpt>
      <trkpt lat="43.38816" lon="2.41377">
        <ele>685</ele>
        <time>2012-01-06T04:51:41Z</time>
        <course>274.59734081599</course>
        <speed>8.3313521556915</speed>
      </trkpt>
      <trkpt lat="43.38817" lon="2.41392">
        <ele>683</ele>
        <time>2012-01-06T04:51:42Z</time>
        <course>316.794001542363</course>
        <speed>8.30518838059596</speed>
      </trkpt>
      <trkpt lat="43.38832" lon="2.41409">
        <ele>680</ele>
        <time>2012-01-06T04:51:45Z</time>
        <course>333.901525460234</course>
        <speed>8.31408650021331</speed>
      </trkpt>
      <trkpt lat="43.38876" lon="2.41435">
        <ele>674</ele>
        <time>2012-01-06T04:51:51Z</time>
        <course>320.338542706245</course>
        <speed>8.30822890907697</speed>
      </trkpt>
      <trkpt lat="43.38891" lon="2.4145">
        <ele>672</ele>
        <time>2012-01-06T04:51:54Z</time>
        <course>302.557783860218</course>
        <speed>2.24067948947777</speed>
      </trkpt>
      <trkpt lat="43.389" lon="2.41467">
        <ele>674</ele>
        <time>2012-01-06T04:52:01Z</time>
        <course>273.620054472886</course>
        <speed>2.23915458356034</speed>
      </trkpt>
      <trkpt lat="43.38904" lon="2.41543">
        <ele>682</ele>
        <time>2012-01-06T04:52:29Z</time>
        <course>283.228919674501</course>
        <speed>2.23911008573604</speed>
      </trkpt>
      <trkpt lat="43.3892" lon="2.41625">
        <ele>692</ele>
        <time>2012-01-06T04:52:59Z</time>
        <course>248.09666810833</course>
        <speed>3.1146318048961</speed>
      </trkpt>
      <trkpt lat="43.38913" lon="2.41646">
        <ele>693</ele>
        <time>2012-01-06T04:53:05Z</time>
        <course>222.128063000981</course>
        <speed>3.11342880142362</speed>
      </trkpt>
      <trkpt lat="43.38902" lon="2.41658">
        <ele>694</ele>
        <time>2012-01-06T04:53:10Z</time>
        <course>256.434721825002</course>
        <speed>3.11353160817898</speed>
      </trkpt>
      <trkpt lat="43.38898" lon="2.41678">
        <ele>696</ele>
        <time>2012-01-06T04:53:16Z</time>
        <course>307.593750531943</course>
        <speed>3.11238013783561</speed>
      </trkpt>
      <trkpt lat="43.38967" lon="2.41786">
        <ele>706</ele>
        <time>2012-01-06T04:53:53Z</time>
        <course>295.441962153629</course>
        <speed>4.51162791912192</speed>
      </trkpt>
      <trkpt lat="43.38982" lon="2.41824">
        <ele>707</ele>
        <time>2012-01-06T04:54:01Z</time>
        <course>276.731806514542</course>
        <speed>4.51203598586349</speed>
      </trkpt>
      <trkpt lat="43.38987" lon="2.41875">
        <ele>709</ele>
        <time>2012-01-06T04:54:10Z</time>
        <course>316.641553258327</course>
        <speed>4.51083614156499</speed>
      </trkpt>
      <trkpt lat="43.39016" lon="2.41908">
        <ele>711</ele>
        <time>2012-01-06T04:54:19Z</time>
        <course>302.070041093201</course>
        <speed>3.27487971905052</speed>
      </trkpt>
      <trkpt lat="43.39029" lon="2.41933">
        <ele>712</ele>
        <time>2012-01-06T04:54:27Z</time>
        <course>285.394028658939</course>
        <speed>3.27738281364197</speed>
      </trkpt>
      <trkpt lat="43.39037" lon="2.41968">
        <ele>715</ele>
        <time>2012-01-06T04:54:36Z</time>
        <course>278.458968893834</course>
        <speed>3.2757297276923</speed>
      </trkpt>
      <trkpt lat="43.3907" lon="2.42234">
        <ele>732</ele>
        <time>2012-01-06T04:55:42Z</time>
        <course>290.627623172725</course>
        <speed>8.32182393661086</speed>
      </trkpt>
      <trkpt lat="43.39075" lon="2.4225">
        <ele>731</ele>
        <time>2012-01-06T04:55:44Z</time>
        <course>313.559311448955</course>
        <speed>8.32872649319624</speed>
      </trkpt>
      <trkpt lat="43.3909" lon="2.42269">
        <ele>731</ele>
        <time>2012-01-06T04:55:47Z</time>
        <course>341.459495675699</course>
        <speed>8.31757095153854</speed>
      </trkpt>
      <trkpt lat="43.39142" lon="2.4229">
        <ele>729</ele>
        <time>2012-01-06T04:55:54Z</time>
        <course>67.2306062932931</course>
        <speed>8.31861811817228</speed>
      </trkpt>
      <trkpt lat="43.39172" lon="2.42204">
        <ele>728</ele>
        <time>2012-01-06T04:56:03Z</time>
        <course>73.7666747624609</course>
        <speed>8.31651906224496</speed>
      </trkpt>
      <trkpt lat="43.39203" lon="2.42076">
        <ele>721</ele>
        <time>2012-01-06T04:56:16Z</time>
        <course>71.2002533800012</course>
        <speed>7.37600961886195</speed>
      </trkpt>
      <trkpt lat="43.39254" lon="2.41896">
        <ele>722</ele>
        <time>2012-01-06T04:56:38Z</time>
        <course>26.5046514863975</course>
        <speed>8.30290511329036</speed>
      </trkpt>
      <trkpt lat="43.39264" lon="2.4189">
        <ele>722</ele>
        <time>2012-01-06T04:56:39Z</time>
        <course>45.2216541851917</course>
        <speed>8.32465800962028</speed>
      </trkpt>
      <trkpt lat="43.39297" lon="2.4185">
        <ele>722</ele>
        <time>2012-01-06T04:56:45Z</time>
        <course>56.1757464167904</course>
        <speed>8.31558676066274</speed>
      </trkpt>
      <trkpt lat="43.3936" lon="2.41737">
        <ele>722</ele>
        <time>2012-01-06T04:56:59Z</time>
        <course>41.5273197606493</course>
        <speed>8.31109863849342</speed>
      </trkpt>
      <trkpt lat="43.39391" lon="2.41704">
        <ele>721</ele>
        <time>2012-01-06T04:57:04Z</time>
        <course>51.7365427224278</course>
        <speed>8.30930728766567</speed>
      </trkpt>
      <trkpt lat="43.39412" lon="2.41672">
        <ele>721</ele>
        <time>2012-01-06T04:57:08Z</time>
        <course>60.0695789139334</course>
        <speed>8.31998737326706</speed>
      </trkpt>
      <trkpt lat="43.39435" lon="2.41624">
        <ele>721</ele>
        <time>2012-01-06T04:57:14Z</time>
        <course>62.7528647965725</course>
        <speed>7.10681020125132</speed>
      </trkpt>
      <trkpt lat="43.39444" lon="2.41603">
        <ele>721</ele>
        <time>2012-01-06T04:57:17Z</time>
        <course>71.6212635903364</course>
        <speed>7.09992818389517</speed>
      </trkpt>
      <trkpt lat="43.39475" lon="2.41491">
        <ele>722</ele>
        <time>2012-01-06T04:57:30Z</time>
        <course>73.7692720562791</course>
        <speed>8.31928106951593</speed>
      </trkpt>
      <trkpt lat="43.39526" lon="2.41281">
        <ele>720</ele>
        <time>2012-01-06T04:57:52Z</time>
        <course>52.2142763391063</course>
        <speed>8.3175726642967</speed>
      </trkpt>
      <trkpt lat="43.39748" lon="2.40938">
        <ele>715</ele>
        <time>2012-01-06T04:58:36Z</time>
        <course>46.99555181014</course>
        <speed>8.31608602994152</speed>
      </trkpt>
      <trkpt lat="43.39762" lon="2.4092">
        <ele>714</ele>
        <time>2012-01-06T04:58:39Z</time>
        <course>24.1829598827851</course>
        <speed>8.33971749560723</speed>
      </trkpt>
      <trkpt lat="43.39775" lon="2.40913">
        <ele>714</ele>
        <time>2012-01-06T04:58:41Z</time>
        <course>348.21874710195</course>
        <speed>8.32177763112812</speed>
      </trkpt>
      <trkpt lat="43.39831" lon="2.40927">
        <ele>712</ele>
        <time>2012-01-06T04:58:48Z</time>
        <course>15.065604161756</course>
        <speed>8.32488240412888</speed>
      </trkpt>
      <trkpt lat="43.39862" lon="2.40917">
        <ele>712</ele>
        <time>2012-01-06T04:58:53Z</time>
        <course>47.6161624219405</course>
        <speed>5.43935647474776</speed>
      </trkpt>
      <trkpt lat="43.3991" lon="2.40854">
        <ele>713</ele>
        <time>2012-01-06T04:59:06Z</time>
        <course>35.8892255335411</course>
        <speed>5.44126616400039</speed>
      </trkpt>
      <trkpt lat="43.3994" lon="2.40828">
        <ele>715</ele>
        <time>2012-01-06T04:59:13Z</time>
        <course>25.8029237391801</course>
        <speed>6.58180701693605</speed>
      </trkpt>
      <trkpt lat="43.39978" lon="2.40806">
        <ele>715</ele>
        <time>2012-01-06T04:59:20Z</time>
        <course>351.905101395591</course>
        <speed>6.57803477213474</speed>
      </trkpt>
      <trkpt lat="43.40072" lon="2.40822">
        <ele>717</ele>
        <time>2012-01-06T04:59:36Z</time>
        <course>5.72788307498122</course>
        <speed>4.84541916860221</speed>
      </trkpt>
      <trkpt lat="43.40122" lon="2.40816">
        <ele>719</ele>
        <time>2012-01-06T04:59:48Z</time>
        <course>345.359345010188</course>
        <speed>4.84886015566054</speed>
      </trkpt>
      <trkpt lat="43.40138" lon="2.40821">
        <ele>719</ele>
        <time>2012-01-06T04:59:52Z</time>
        <course>295.931751444169</course>
        <speed>4.84576381522445</speed>
      </trkpt>
      <trkpt lat="43.40228" lon="2.41042">
        <ele>727</ele>
        <time>2012-01-06T05:00:34Z</time>
        <course>301.949300052679</course>
        <speed>8.31293801552701</speed>
      </trkpt>
      <trkpt lat="43.4024" lon="2.41065">
        <ele>726</ele>
        <time>2012-01-06T05:00:36Z</time>
        <course>314.055539886752</course>
        <speed>8.32223700684854</speed>
      </trkpt>
      <trkpt lat="43.40257" lon="2.41086">
        <ele>725</ele>
        <time>2012-01-06T05:00:40Z</time>
        <course>324.623543854577</course>
        <speed>8.31609649223439</speed>
      </trkpt>
      <trkpt lat="43.4029" lon="2.41114">
        <ele>723</ele>
        <time>2012-01-06T05:00:45Z</time>
        <course>339.038276565838</course>
        <speed>8.31402366839839</speed>
      </trkpt>
      <trkpt lat="43.40349" lon="2.41141">
        <ele>721</ele>
        <time>2012-01-06T05:00:53Z</time>
        <course>352.660197598312</course>
        <speed>8.32983237352402</speed>
      </trkpt>
      <trkpt lat="43.40375" lon="2.41145">
        <ele>720</ele>
        <time>2012-01-06T05:00:57Z</time>
        <course>10.6482721326607</course>
        <speed>8.32100161172602</speed>
      </trkpt>
      <trkpt lat="43.40424" lon="2.41134">
        <ele>720</ele>
        <time>2012-01-06T05:01:03Z</time>
        <course>349.999086816261</course>
        <speed>8.31063520918072</speed>
      </trkpt>
      <trkpt lat="43.40443" lon="2.41138">
        <ele>720</ele>
        <time>2012-01-06T05:01:06Z</time>
        <course>331.499022200681</course>
        <speed>8.3204469591449</speed>
      </trkpt>
      <trkpt lat="43.40514" lon="2.41184">
        <ele>720</ele>
        <time>2012-01-06T05:01:16Z</time>
        <course>316.672289561921</course>
        <speed>8.31961895509234</speed>
      </trkpt>
      <trkpt lat="43.4057" lon="2.41247">
        <ele>720</ele>
        <time>2012-01-06T05:01:26Z</time>
        <course>337.045418592478</course>
        <speed>8.31577174456366</speed>
      </trkpt>
      <trkpt lat="43.40673" lon="2.41299">
        <ele>716</ele>
        <time>2012-01-06T05:01:41Z</time>
        <course>347.384318255409</course>
        <speed>8.31435191919579</speed>
      </trkpt>
      <trkpt lat="43.40748" lon="2.41319">
        <ele>714</ele>
        <time>2012-01-06T05:01:51Z</time>
        <course>3.14295933156828</course>
        <speed>8.31892199340337</speed>
      </trkpt>
      <trkpt lat="43.40901" lon="2.41309">
        <ele>710</ele>
        <time>2012-01-06T05:02:11Z</time>
        <course>7.59881823791051</course>
        <speed>8.31989217741469</speed>
      </trkpt>
      <trkpt lat="43.40964" lon="2.41299">
        <ele>705</ele>
        <time>2012-01-06T05:02:20Z</time>
        <course>18.9848949915633</course>
        <speed>8.32075243576492</speed>
      </trkpt>
      <trkpt lat="43.41052" lon="2.41263">
        <ele>700</ele>
        <time>2012-01-06T05:02:32Z</time>
        <course>322.599866827512</course>
        <speed>6.7815534619041</speed>
      </trkpt>
      <trkpt lat="43.41063" lon="2.41273">
        <ele>700</ele>
        <time>2012-01-06T05:02:34Z</time>
        <course>287.961717732066</course>
        <speed>6.77474511193092</speed>
      </trkpt>
      <trkpt lat="43.41072" lon="2.41306">
        <ele>700</ele>
        <time>2012-01-06T05:02:38Z</time>
        <course>315.54134672242</course>
        <speed>6.77488660756832</speed>
      </trkpt>
      <trkpt lat="43.41078" lon="2.41313">
        <ele>700</ele>
        <time>2012-01-06T05:02:40Z</time>
        <course>7.98219217878367</course>
        <speed>6.77517172365557</speed>
      </trkpt>
      <trkpt lat="43.41126" lon="2.41305">
        <ele>701</ele>
        <time>2012-01-06T05:02:47Z</time>
        <course>24.909194050061</course>
        <speed>6.77398298644012</speed>
      </trkpt>
      <trkpt lat="43.41184" lon="2.41273">
        <ele>702</ele>
        <time>2012-01-06T05:02:58Z</time>
        <course>9.55598547277714</course>
        <speed>2.68628332890677</speed>
      </trkpt>
      <trkpt lat="43.41199" lon="2.4127">
        <ele>703</ele>
        <time>2012-01-06T05:03:04Z</time>
        <course>353.375071747676</course>
        <speed>2.68764772662119</speed>
      </trkpt>
      <trkpt lat="43.41257" lon="2.41278">
        <ele>710</ele>
        <time>2012-01-06T05:03:28Z</time>
        <course>331.991766179971</course>
        <speed>2.68851789334332</speed>
      </trkpt>
      <trkpt lat="43.41276" lon="2.4129">
        <ele>713</ele>
        <time>2012-01-06T05:03:37Z</time>
        <course>307.071559407649</course>
        <speed>6.6316759513918</speed>
      </trkpt>
      <trkpt lat="43.4129" lon="2.41312">
        <ele>713</ele>
        <time>2012-01-06T05:03:40Z</time>
        <course>14.1836122224147</course>
        <speed>6.64105214323444</speed>
      </trkpt>
      <trkpt lat="43.4133" lon="2.413">
        <ele>713</ele>
        <time>2012-01-06T05:03:47Z</time>
        <course>32.2891543259226</course>
        <speed>6.63822546164738</speed>
      </trkpt>
      <trkpt lat="43.41346" lon="2.41288">
        <ele>714</ele>
        <time>2012-01-06T05:03:50Z</time>
        <course>49.7136912331122</course>
        <speed>6.64051644744787</speed>
      </trkpt>
      <trkpt lat="43.41361" lon="2.41267">
        <ele>714</ele>
        <time>2012-01-06T05:03:54Z</time>
        <course>76.4089569691671</course>
        <speed>6.63706377212509</speed>
      </trkpt>
      <trkpt lat="43.41391" lon="2.4112">
        <ele>716</ele>
        <time>2012-01-06T05:04:12Z</time>
        <course>85.3263010784826</course>
        <speed>8.30869426726723</speed>
      </trkpt>
      <trkpt lat="43.41393" lon="2.41091">
        <ele>714</ele>
        <time>2012-01-06T05:04:15Z</time>
        <course>93.9456041387437</course>
        <speed>8.31440482307005</speed>
      </trkpt>
      <trkpt lat="43.41389" lon="2.41022">
        <ele>710</ele>
        <time>2012-01-06T05:04:22Z</time>
        <course>78.5542133945953</course>
        <speed>8.31206983210369</speed>
      </trkpt>
      <trkpt lat="43.41396" lon="2.40981">
        <ele>708</ele>
        <time>2012-01-06T05:04:26Z</time>
        <course>64.2823217280667</course>
        <speed>8.32094451685022</speed>
      </trkpt>
      <trkpt lat="43.41435" lon="2.40885">
        <ele>702</ele>
        <time>2012-01-06T05:04:37Z</time>
        <course>46.5050964226514</course>
        <speed>8.31539806868501</speed>
      </trkpt>
      <trkpt lat="43.41455" lon="2.4086">
        <ele>701</ele>
        <time>2012-01-06T05:04:40Z</time>
        <course>29.34310692535</course>
        <speed>6.71695044297448</speed>
      </trkpt>
      <trkpt lat="43.41476" lon="2.40846">
        <ele>701</ele>
        <time>2012-01-06T05:04:44Z</time>
        <course>6.14584305410812</course>
        <speed>6.70722109657746</speed>
      </trkpt>
      <trkpt lat="43.41523" lon="2.4084">
        <ele>701</ele>
        <time>2012-01-06T05:04:52Z</time>
        <course>354.508392961492</course>
        <speed>6.70867210679836</speed>
      </trkpt>
      <trkpt lat="43.41602" lon="2.40849">
        <ele>703</ele>
        <time>2012-01-06T05:05:05Z</time>
        <course>333.788077537681</course>
        <speed>4.81131170520793</speed>
      </trkpt>
      <trkpt lat="43.41614" lon="2.40856">
        <ele>703</ele>
        <time>2012-01-06T05:05:08Z</time>
        <course>316.763778268848</course>
        <speed>4.81890773203628</speed>
      </trkpt>
      <trkpt lat="43.41658" lon="2.40905">
        <ele>705</ele>
        <time>2012-01-06T05:05:21Z</time>
        <course>340.106308788412</course>
        <speed>4.82046576904158</speed>
      </trkpt>
      <trkpt lat="43.41686" lon="2.40917">
        <ele>707</ele>
        <time>2012-01-06T05:05:28Z</time>
        <course>353.215009368019</course>
        <speed>8.32182573838524</speed>
      </trkpt>
      <trkpt lat="43.41757" lon="2.40927">
        <ele>704</ele>
        <time>2012-01-06T05:05:37Z</time>
        <course>2.63903809724867</course>
        <speed>8.32162566577658</speed>
      </trkpt>
      <trkpt lat="43.41812" lon="2.40924">
        <ele>702</ele>
        <time>2012-01-06T05:05:45Z</time>
        <course>17.8465211388787</course>
        <speed>8.32030087324076</speed>
      </trkpt>
      <trkpt lat="43.41833" lon="2.40916">
        <ele>699</ele>
        <time>2012-01-06T05:05:48Z</time>
        <course>30.8779657793211</course>
        <speed>8.31496570879065</speed>
      </trkpt>
      <trkpt lat="43.41874" lon="2.40887">
        <ele>693</ele>
        <time>2012-01-06T05:05:54Z</time>
        <course>15.3663500832158</course>
        <speed>8.31869935574388</speed>
      </trkpt>
      <trkpt lat="43.41914" lon="2.40874">
        <ele>688</ele>
        <time>2012-01-06T05:05:59Z</time>
        <course>22.9233759788139</course>
        <speed>7.37668629644908</speed>
      </trkpt>
      <trkpt lat="43.41952" lon="2.40855">
        <ele>688</ele>
        <time>2012-01-06T05:06:05Z</time>
        <course>10.7572849356954</course>
        <speed>7.37045594863874</speed>
      </trkpt>
      <trkpt lat="43.4205" lon="2.40833">
        <ele>689</ele>
        <time>2012-01-06T05:06:20Z</time>
        <course>27.660636684458</course>
        <speed>8.31598063635826</speed>
      </trkpt>
      <trkpt lat="43.42113" lon="2.40794">
        <ele>686</ele>
        <time>2012-01-06T05:06:30Z</time>
        <course>37.0927350981414</course>
        <speed>8.31464922855044</speed>
      </trkpt>
      <trkpt lat="43.42141" lon="2.40769">
        <ele>686</ele>
        <time>2012-01-06T05:06:34Z</time>
        <course>52.3977656191084</course>
        <speed>8.31947311384051</speed>
      </trkpt>
      <trkpt lat="43.42203" lon="2.40674">
        <ele>680</ele>
        <time>2012-01-06T05:06:46Z</time>
        <course>40.2753589458071</course>
        <speed>8.31474211722679</speed>
      </trkpt>
      <trkpt lat="43.42232" lon="2.40645">
        <ele>679</ele>
        <time>2012-01-06T05:06:51Z</time>
        <course>30.6938551198148</course>
        <speed>8.31968812097378</speed>
      </trkpt>
      <trkpt lat="43.42352" lon="2.40561">
        <ele>676</ele>
        <time>2012-01-06T05:07:09Z</time>
        <course>22.1494107916273</course>
        <speed>4.95281775443488</speed>
      </trkpt>
      <trkpt lat="43.42377" lon="2.40549">
        <ele>677</ele>
        <time>2012-01-06T05:07:15Z</time>
        <course>351.954534074158</course>
        <speed>4.95636047879397</speed>
      </trkpt>
      <trkpt lat="43.42389" lon="2.40551">
        <ele>677</ele>
        <time>2012-01-06T05:07:18Z</time>
        <course>313.968882682764</course>
        <speed>4.95282329296633</speed>
      </trkpt>
      <trkpt lat="43.42398" lon="2.40562">
        <ele>677</ele>
        <time>2012-01-06T05:07:21Z</time>
        <course>291.451871163199</course>
        <speed>4.95951587096723</speed>
      </trkpt>
      <trkpt lat="43.42405" lon="2.40583">
        <ele>678</ele>
        <time>2012-01-06T05:07:24Z</time>
        <course>281.476455554549</course>
        <speed>4.95635302913198</speed>
      </trkpt>
      <trkpt lat="43.4242" lon="2.4067">
        <ele>681</ele>
        <time>2012-01-06T05:07:39Z</time>
        <course>291.019715517028</course>
        <speed>5.19059468619422</speed>
      </trkpt>
      <trkpt lat="43.42435" lon="2.40716">
        <ele>682</ele>
        <time>2012-01-06T05:07:47Z</time>
        <course>297.571291060228</course>
        <speed>5.19033864965416</speed>
      </trkpt>
      <trkpt lat="43.42478" lon="2.40813">
        <ele>685</ele>
        <time>2012-01-06T05:08:04Z</time>
        <course>311.469742028447</course>
        <speed>8.28653832118757</speed>
      </trkpt>
      <trkpt lat="43.42484" lon="2.40821">
        <ele>684</ele>
        <time>2012-01-06T05:08:06Z</time>
        <course>354.612946404105</course>
        <speed>8.32639836510102</speed>
      </trkpt>
      <trkpt lat="43.42502" lon="2.40823">
        <ele>684</ele>
        <time>2012-01-06T05:08:08Z</time>
        <course>42.1576128291598</course>
        <speed>8.3337983221707</speed>
      </trkpt>
      <trkpt lat="43.42517" lon="2.40807">
        <ele>684</ele>
        <time>2012-01-06T05:08:11Z</time>
        <course>82.544750864534</course>
        <speed>8.30261700071058</speed>
      </trkpt>
      <trkpt lat="43.42519" lon="2.40789">
        <ele>684</ele>
        <time>2012-01-06T05:08:12Z</time>
        <course>101.5004990235</course>
        <speed>8.31615224692003</speed>
      </trkpt>
      <trkpt lat="43.42499" lon="2.40673">
        <ele>684</ele>
        <time>2012-01-06T05:08:24Z</time>
        <course>93.2242312481277</course>
        <speed>8.31538098473475</speed>
      </trkpt>
      <trkpt lat="43.42495" lon="2.40589">
        <ele>676</ele>
        <time>2012-01-06T05:08:32Z</time>
        <course>78.9090122090258</course>
        <speed>8.31974990895633</speed>
      </trkpt>
      <trkpt lat="43.42516" lon="2.40463">
        <ele>666</ele>
        <time>2012-01-06T05:08:45Z</time>
        <course>64.7714316062934</course>
        <speed>7.28907612826759</speed>
      </trkpt>
      <trkpt lat="43.42526" lon="2.40438">
        <ele>666</ele>
        <time>2012-01-06T05:08:48Z</time>
        <course>35.0931897556264</course>
        <speed>7.28637360976551</speed>
      </trkpt>
      <trkpt lat="43.42555" lon="2.40414">
        <ele>666</ele>
        <time>2012-01-06T05:08:53Z</time>
        <course>14.9461529809827</course>
        <speed>7.2796121928621</speed>
      </trkpt>
      <trkpt lat="43.42625" lon="2.40392">
        <ele>667</ele>
        <time>2012-01-06T05:09:04Z</time>
        <course>22.3910906546631</course>
        <speed>8.31583839344866</speed>
      </trkpt>
      <trkpt lat="43.42691" lon="2.4036">
        <ele>666</ele>
        <time>2012-01-06T05:09:13Z</time>
        <course>32.6408431023535</course>
        <speed>8.31536680045718</speed>
      </trkpt>
      <trkpt lat="43.42764" lon="2.40305">
        <ele>665</ele>
        <time>2012-01-06T05:09:24Z</time>
        <course>36.5071364276328</course>
        <speed>8.31908839376502</speed>
      </trkpt>
      <trkpt lat="43.42864" lon="2.40218">
        <ele>657</ele>
        <time>2012-01-06T05:09:40Z</time>
        <course>26.5566829759402</course>
        <speed>8.3179065605487</speed>
      </trkpt>
      <trkpt lat="43.42973" lon="2.40154">
        <ele>651</ele>
        <time>2012-01-06T05:09:56Z</time>
        <course>1.8753622239289</course>
        <speed>3.07800508294199</speed>
      </trkpt>
      <trkpt lat="43.42999" lon="2.40153">
        <ele>653</ele>
        <time>2012-01-06T05:10:05Z</time>
        <course>328.108690855074</course>
        <speed>3.07980701114389</speed>
      </trkpt>
      <trkpt lat="43.43025" lon="2.40172">
        <ele>656</ele>
        <time>2012-01-06T05:10:16Z</time>
        <course>343.083117333813</course>
        <speed>3.07883567715236</speed>
      </trkpt>
      <trkpt lat="43.43053" lon="2.40182">
        <ele>658</ele>
        <time>2012-01-06T05:10:26Z</time>
        <course>350.785148616482</course>
        <speed>3.07939717330775</speed>
      </trkpt>
      <trkpt lat="43.43074" lon="2.40186">
        <ele>661</ele>
        <time>2012-01-06T05:10:34Z</time>
        <course>12.7972556397824</course>
        <speed>8.32238540015704</speed>
      </trkpt>
      <trkpt lat="43.43089" lon="2.40182">
        <ele>659</ele>
        <time>2012-01-06T05:10:36Z</time>
        <course>64.848778913154</course>
        <speed>8.29975156406903</speed>
      </trkpt>
      <trkpt lat="43.43097" lon="2.40162">
        <ele>657</ele>
        <time>2012-01-06T05:10:38Z</time>
        <course>100.245686265872</course>
        <speed>8.3126135322155</speed>
      </trkpt>
      <trkpt lat="43.43089" lon="2.4011">
        <ele>654</ele>
        <time>2012-01-06T05:10:43Z</time>
        <course>69.5207475593832</course>
        <speed>8.31859833728262</speed>
      </trkpt>
      <trkpt lat="43.43096" lon="2.40088">
        <ele>652</ele>
        <time>2012-01-06T05:10:46Z</time>
        <course>37.9643317494302</course>
        <speed>8.31781672270371</speed>
      </trkpt>
      <trkpt lat="43.43167" lon="2.40023">
        <ele>644</ele>
        <time>2012-01-06T05:10:57Z</time>
        <course>24.8580585392237</course>
        <speed>8.31348657760024</speed>
      </trkpt>
      <trkpt lat="43.43213" lon="2.39998">
        <ele>643</ele>
        <time>2012-01-06T05:11:04Z</time>
        <course>31.8559637003524</course>
        <speed>8.31757182547278</speed>
      </trkpt>
      <trkpt lat="43.43283" lon="2.39947">
        <ele>643</ele>
        <time>2012-01-06T05:11:14Z</time>
        <course>49.1762575010139</course>
        <speed>8.3049593843861</speed>
      </trkpt>
      <trkpt lat="43.43297" lon="2.39928">
        <ele>641</ele>
        <time>2012-01-06T05:11:17Z</time>
        <course>63.6833352739014</course>
        <speed>8.31717217845543</speed>
      </trkpt>
      <trkpt lat="43.43365" lon="2.39767">
        <ele>630</ele>
        <time>2012-01-06T05:11:35Z</time>
        <course>32.9069207679236</course>
        <speed>8.32203103133931</speed>
      </trkpt>
      <trkpt lat="43.43427" lon="2.3972">
        <ele>626</ele>
        <time>2012-01-06T05:11:45Z</time>
        <course>48.1535838065724</course>
        <speed>8.32351949003298</speed>
      </trkpt>
      <trkpt lat="43.43466" lon="2.39669">
        <ele>624</ele>
        <time>2012-01-06T05:11:52Z</time>
        <course>26.6689477189316</course>
        <speed>8.31643441994934</speed>
      </trkpt>
      <trkpt lat="43.43483" lon="2.39659">
        <ele>623</ele>
        <time>2012-01-06T05:11:54Z</time>
        <course>360</course>
        <speed>8.30206896543728</speed>
      </trkpt>
      <trkpt lat="43.43496" lon="2.39659">
        <ele>623</ele>
        <time>2012-01-06T05:11:56Z</time>
        <course>349.629770412068</course>
        <speed>8.33016410520055</speed>
      </trkpt>
      <trkpt lat="43.4351" lon="2.39662">
        <ele>623</ele>
        <time>2012-01-06T05:11:58Z</time>
        <course>326.850229159796</course>
        <speed>8.31055174509507</speed>
      </trkpt>
      <trkpt lat="43.43527" lon="2.39675">
        <ele>623</ele>
        <time>2012-01-06T05:12:00Z</time>
        <course>314.823625721554</course>
        <speed>8.31581694042735</speed>
      </trkpt>
      <trkpt lat="43.43589" lon="2.39748">
        <ele>622</ele>
        <time>2012-01-06T05:12:11Z</time>
        <course>353.040791638463</course>
        <speed>8.31929718325673</speed>
      </trkpt>
      <trkpt lat="43.43596" lon="2.39749">
        <ele>621</ele>
        <time>2012-01-06T05:12:12Z</time>
        <course>26.3262141408806</course>
        <speed>8.31310721175021</speed>
      </trkpt>
      <trkpt lat="43.43634" lon="2.39727">
        <ele>620</ele>
        <time>2012-01-06T05:12:18Z</time>
        <course>8.38369364739145</course>
        <speed>8.32727297117041</speed>
      </trkpt>
      <trkpt lat="43.43663" lon="2.39722">
        <ele>619</ele>
        <time>2012-01-06T05:12:22Z</time>
        <course>324.245174836148</course>
        <speed>8.31836043487248</speed>
      </trkpt>
      <trkpt lat="43.43701" lon="2.39754">
        <ele>618</ele>
        <time>2012-01-06T05:12:28Z</time>
        <course>344.090827916736</course>
        <speed>4.28732439090579</speed>
      </trkpt>
      <trkpt lat="43.43722" lon="2.39761">
        <ele>619</ele>
        <time>2012-01-06T05:12:33Z</time>
        <course>15.9105232595555</course>
        <speed>4.28732368476994</speed>
      </trkpt>
      <trkpt lat="43.43737" lon="2.39756">
        <ele>619</ele>
        <time>2012-01-06T05:12:37Z</time>
        <course>54.1485501871357</course>
        <speed>4.28858684733887</speed>
      </trkpt>
      <trkpt lat="43.43771" lon="2.39701">
        <ele>622</ele>
        <time>2012-01-06T05:12:51Z</time>
        <course>46.7499389658131</course>
        <speed>4.29076145108484</speed>
      </trkpt>
      <trkpt lat="43.43804" lon="2.3966">
        <ele>625</ele>
        <time>2012-01-06T05:13:02Z</time>
        <course>64.580170748522</course>
        <speed>4.92472425262891</speed>
      </trkpt>
      <trkpt lat="43.43828" lon="2.39601">
        <ele>626</ele>
        <time>2012-01-06T05:13:13Z</time>
        <course>49.404546367937</course>
        <speed>4.92875287891783</speed>
      </trkpt>
      <trkpt lat="43.43839" lon="2.39586">
        <ele>627</ele>
        <time>2012-01-06T05:13:17Z</time>
        <course>30.1297155363263</course>
        <speed>4.92413813097894</speed>
      </trkpt>
      <trkpt lat="43.43898" lon="2.39546">
        <ele>630</ele>
        <time>2012-01-06T05:13:32Z</time>
        <course>42.7588692081729</course>
        <speed>4.45184433589034</speed>
      </trkpt>
      <trkpt lat="43.43923" lon="2.39519">
        <ele>631</ele>
        <time>2012-01-06T05:13:40Z</time>
        <course>64.4298537692341</course>
        <speed>4.45361188632831</speed>
      </trkpt>
      <trkpt lat="43.43948" lon="2.39458">
        <ele>633</ele>
        <time>2012-01-06T05:13:52Z</time>
        <course>59.0231980220192</course>
        <speed>4.45371230834797</speed>
      </trkpt>
      <trkpt lat="43.43984" lon="2.39388">
        <ele>637</ele>
        <time>2012-01-06T05:14:08Z</time>
        <course>54.3117170217817</course>
        <speed>5.97792873046906</speed>
      </trkpt>
      <trkpt lat="43.44016" lon="2.39336">
        <ele>638</ele>
        <time>2012-01-06T05:14:17Z</time>
        <course>48.0254715950168</course>
        <speed>5.97455704756938</speed>
      </trkpt>
      <trkpt lat="43.4408" lon="2.39253">
        <ele>640</ele>
        <time>2012-01-06T05:14:33Z</time>
        <course>66.7012316026044</course>
        <speed>8.32177814000874</speed>
      </trkpt>
      <trkpt lat="43.44104" lon="2.39188">
        <ele>640</ele>
        <time>2012-01-06T05:14:40Z</time>
        <course>360</course>
        <speed>8.31914438541112</speed>
      </trkpt>
      <trkpt lat="43.44118" lon="2.39188">
        <ele>640</ele>
        <time>2012-01-06T05:14:42Z</time>
        <course>320.671048011612</course>
        <speed>8.31429318609704</speed>
      </trkpt>
      <trkpt lat="43.44163" lon="2.39231">
        <ele>640</ele>
        <time>2012-01-06T05:14:50Z</time>
        <course>338.469988188368</course>
        <speed>8.32059472274151</speed>
      </trkpt>
      <trkpt lat="43.44213" lon="2.39254">
        <ele>640</ele>
        <time>2012-01-06T05:14:57Z</time>
        <course>327.246412301001</course>
        <speed>8.32416935388066</speed>
      </trkpt>
      <trkpt lat="43.44233" lon="2.39269">
        <ele>639</ele>
        <time>2012-01-06T05:15:00Z</time>
        <course>338.535985550591</course>
        <speed>8.3155977299999</speed>
      </trkpt>
      <trkpt lat="43.44257" lon="2.3928">
        <ele>638</ele>
        <time>2012-01-06T05:15:03Z</time>
        <course>354.346251067136</course>
        <speed>8.30728052565754</speed>
      </trkpt>
      <trkpt lat="43.44283" lon="2.39283">
        <ele>638</ele>
        <time>2012-01-06T05:15:07Z</time>
        <course>339.697682643068</course>
        <speed>8.31675216579753</speed>
      </trkpt>
      <trkpt lat="43.44341" lon="2.39308">
        <ele>637</ele>
        <time>2012-01-06T05:15:15Z</time>
        <course>71.0925945936977</course>
        <speed>8.31350956420843</speed>
      </trkpt>
      <trkpt lat="43.44356" lon="2.39257">
        <ele>637</ele>
        <time>2012-01-06T05:15:20Z</time>
        <course>60.886794910078</course>
        <speed>8.32215640505691</speed>
      </trkpt>
      <trkpt lat="43.44389" lon="2.39188">
        <ele>637</ele>
        <time>2012-01-06T05:15:28Z</time>
        <course>80.877212204352</course>
        <speed>8.32699533786288</speed>
      </trkpt>
      <trkpt lat="43.44393" lon="2.39159">
        <ele>636</ele>
        <time>2012-01-06T05:15:31Z</time>
        <course>95.9647497768411</course>
        <speed>8.31514287828859</speed>
      </trkpt>
      <trkpt lat="43.44387" lon="2.39092">
        <ele>634</ele>
        <time>2012-01-06T05:15:38Z</time>
        <course>104.641008190884</course>
        <speed>8.31453084588626</speed>
      </trkpt>
      <trkpt lat="43.44374" lon="2.39034">
        <ele>633</ele>
        <time>2012-01-06T05:15:43Z</time>
        <course>118.17653038364</course>
        <speed>2.41189631867338</speed>
      </trkpt>
      <trkpt lat="43.44323" lon="2.38923">
        <ele>646</ele>
        <time>2012-01-06T05:16:27Z</time>
        <course>65.6284814099815</course>
        <speed>8.32030991183604</speed>
      </trkpt>
      <trkpt lat="43.44337" lon="2.38887">
        <ele>644</ele>
        <time>2012-01-06T05:16:31Z</time>
        <course>77.271412026234</course>
        <speed>8.31380538870913</speed>
      </trkpt>
      <trkpt lat="43.4435" lon="2.3882">
        <ele>642</ele>
        <time>2012-01-06T05:16:38Z</time>
        <course>91.7616960912894</course>
        <speed>8.31386159298131</speed>
      </trkpt>
      <trkpt lat="43.44349" lon="2.38782">
        <ele>641</ele>
        <time>2012-01-06T05:16:42Z</time>
        <course>98.9212391197845</course>
        <speed>8.31736793450999</speed>
      </trkpt>
      <trkpt lat="43.44342" lon="2.3873">
        <ele>640</ele>
        <time>2012-01-06T05:16:47Z</time>
        <course>64.4592186298017</course>
        <speed>8.32729840445684</speed>
      </trkpt>
      <trkpt lat="43.44358" lon="2.38691">
        <ele>640</ele>
        <time>2012-01-06T05:16:51Z</time>
        <course>78.1231668714432</course>
        <speed>8.31405415620826</speed>
      </trkpt>
      <trkpt lat="43.44373" lon="2.38608">
        <ele>640</ele>
        <time>2012-01-06T05:16:59Z</time>
        <course>15.9686590198795</course>
        <speed>8.36546027993147</speed>
      </trkpt>
      <trkpt lat="43.44376" lon="2.38607">
        <ele>639</ele>
        <time>2012-01-06T05:17:00Z</time>
        <course>69.2417076541566</course>
        <speed>8.319559772535</speed>
      </trkpt>
      <trkpt lat="43.44419" lon="2.38475">
        <ele>633</ele>
        <time>2012-01-06T05:17:14Z</time>
        <course>65.543620820044</course>
        <speed>8.32065692992195</speed>
      </trkpt>
      <trkpt lat="43.44453" lon="2.38388">
        <ele>630</ele>
        <time>2012-01-06T05:17:24Z</time>
        <course>62.3511101307752</course>
        <speed>8.32606694850511</speed>
      </trkpt>
      <trkpt lat="43.44462" lon="2.38368">
        <ele>630</ele>
        <time>2012-01-06T05:17:26Z</time>
        <course>38.5772048582968</course>
        <speed>8.30177970809308</speed>
      </trkpt>
      <trkpt lat="43.44476" lon="2.38355">
        <ele>630</ele>
        <time>2012-01-06T05:17:28Z</time>
        <course>38.5772048582968</course>
        <speed>8.30177970809308</speed>
      </trkpt>
      <trkpt lat="43.44476" lon="2.38355">
        <ele>630</ele>
        <time>2012-01-06T05:17:29Z</time>
        <course>38.5772048582968</course>
        <speed>8.30177970809308</speed>
      </trkpt>
      <trkpt lat="43.44476" lon="2.38355">
        <ele>630</ele>
        <time>2012-01-06T05:17:30Z</time>
        <course>218.573390639281</course>
        <speed>5.50205927867752</speed>
      </trkpt>
      <trkpt lat="43.44462" lon="2.38368">
        <ele>630</ele>
        <time>2012-01-06T05:17:33Z</time>
        <course>244.907155348984</course>
        <speed>5.50903082451135</speed>
      </trkpt>
      <trkpt lat="43.44419" lon="2.38475">
        <ele>633</ele>
        <time>2012-01-06T05:17:51Z</time>
        <course>249.405921380293</course>
        <speed>4.75970343237113</speed>
      </trkpt>
      <trkpt lat="43.4438" lon="2.38596">
        <ele>637</ele>
        <time>2012-01-06T05:18:14Z</time>
        <course>235.801758605828</course>
        <speed>3.29418744510058</speed>
      </trkpt>
      <trkpt lat="43.44373" lon="2.38608">
        <ele>637</ele>
        <time>2012-01-06T05:18:18Z</time>
        <course>258.098772285266</course>
        <speed>3.29073197408338</speed>
      </trkpt>
      <trkpt lat="43.44358" lon="2.38691">
        <ele>643</ele>
        <time>2012-01-06T05:18:39Z</time>
        <course>244.447753140804</course>
        <speed>3.29148224729897</speed>
      </trkpt>
      <trkpt lat="43.44342" lon="2.3873">
        <ele>646</ele>
        <time>2012-01-06T05:18:50Z</time>
        <course>278.905950650291</course>
        <speed>8.31736793450999</speed>
      </trkpt>
      <trkpt lat="43.44349" lon="2.38782">
        <ele>644</ele>
        <time>2012-01-06T05:18:55Z</time>
        <course>271.75052449579</course>
        <speed>8.31386159298131</speed>
      </trkpt>
      <trkpt lat="43.4435" lon="2.3882">
        <ele>643</ele>
        <time>2012-01-06T05:18:58Z</time>
        <course>257.251712762088</course>
        <speed>8.31380538870913</speed>
      </trkpt>
      <trkpt lat="43.44337" lon="2.38887">
        <ele>642</ele>
        <time>2012-01-06T05:19:05Z</time>
        <course>245.617894341057</course>
        <speed>8.32030991183604</speed>
      </trkpt>
      <trkpt lat="43.44323" lon="2.38923">
        <ele>639</ele>
        <time>2012-01-06T05:19:09Z</time>
        <course>298.143897016093</course>
        <speed>8.31858118073063</speed>
      </trkpt>
      <trkpt lat="43.44374" lon="2.39034">
        <ele>633</ele>
        <time>2012-01-06T05:19:22Z</time>
        <course>284.623965651125</course>
        <speed>4.69535826292139</speed>
      </trkpt>
      <trkpt lat="43.44387" lon="2.39092">
        <ele>634</ele>
        <time>2012-01-06T05:19:32Z</time>
        <course>275.945065835825</course>
        <speed>4.69518843558537</speed>
      </trkpt>
      <trkpt lat="43.44393" lon="2.39159">
        <ele>637</ele>
        <time>2012-01-06T05:19:44Z</time>
        <course>260.868692432422</course>
        <speed>8.32699533786797</speed>
      </trkpt>
      <trkpt lat="43.44389" lon="2.39188">
        <ele>637</ele>
        <time>2012-01-06T05:19:47Z</time>
        <course>240.866517449014</course>
        <speed>8.32215640505691</speed>
      </trkpt>
      <trkpt lat="43.44356" lon="2.39257">
        <ele>637</ele>
        <time>2012-01-06T05:19:55Z</time>
        <course>251.077600885628</course>
        <speed>8.31350956420843</speed>
      </trkpt>
      <trkpt lat="43.44341" lon="2.39308">
        <ele>637</ele>
        <time>2012-01-06T05:20:00Z</time>
        <course>159.705036987173</course>
        <speed>6.29962943901828</speed>
      </trkpt>
      <trkpt lat="43.44283" lon="2.39283">
        <ele>638</ele>
        <time>2012-01-06T05:20:11Z</time>
        <course>174.347134207826</course>
        <speed>6.3026976162054</speed>
      </trkpt>
      <trkpt lat="43.44257" lon="2.3928">
        <ele>638</ele>
        <time>2012-01-06T05:20:15Z</time>
        <course>158.539225084777</course>
        <speed>6.30195523035867</speed>
      </trkpt>
      <trkpt lat="43.44233" lon="2.39269">
        <ele>639</ele>
        <time>2012-01-06T05:20:20Z</time>
        <course>147.250831469379</course>
        <speed>3.13186569749966</speed>
      </trkpt>
      <trkpt lat="43.44213" lon="2.39254">
        <ele>641</ele>
        <time>2012-01-06T05:20:28Z</time>
        <course>158.476768202179</course>
        <speed>3.1324591897372</speed>
      </trkpt>
      <trkpt lat="43.44163" lon="2.39231">
        <ele>645</ele>
        <time>2012-01-06T05:20:47Z</time>
        <course>140.683733723172</course>
        <speed>3.1323019105633</speed>
      </trkpt>
      <trkpt lat="43.44118" lon="2.39188">
        <ele>651</ele>
        <time>2012-01-06T05:21:06Z</time>
        <course>180</course>
        <speed>8.31914438541112</speed>
      </trkpt>
      <trkpt lat="43.44104" lon="2.39188">
        <ele>649</ele>
        <time>2012-01-06T05:21:08Z</time>
        <course>246.682040045245</course>
        <speed>8.32177814000874</speed>
      </trkpt>
      <trkpt lat="43.4408" lon="2.39253">
        <ele>645</ele>
        <time>2012-01-06T05:21:15Z</time>
        <course>228.000947521217</course>
        <speed>8.32061394614769</speed>
      </trkpt>
      <trkpt lat="43.44016" lon="2.39336">
        <ele>639</ele>
        <time>2012-01-06T05:21:27Z</time>
        <course>234.296340291835</course>
        <speed>8.32026389112404</speed>
      </trkpt>
      <trkpt lat="43.43984" lon="2.39388">
        <ele>636</ele>
        <time>2012-01-06T05:21:33Z</time>
        <course>239.002486898789</course>
        <speed>8.31859246054242</speed>
      </trkpt>
      <trkpt lat="43.43948" lon="2.39458">
        <ele>634</ele>
        <time>2012-01-06T05:21:42Z</time>
        <course>244.411796377234</course>
        <speed>8.32346610272552</speed>
      </trkpt>
      <trkpt lat="43.43923" lon="2.39519">
        <ele>634</ele>
        <time>2012-01-06T05:21:48Z</time>
        <course>222.750873281146</course>
        <speed>8.32620886405562</speed>
      </trkpt>
      <trkpt lat="43.43898" lon="2.39546">
        <ele>634</ele>
        <time>2012-01-06T05:21:53Z</time>
        <course>210.117861478867</course>
        <speed>8.32280294575484</speed>
      </trkpt>
      <trkpt lat="43.43839" lon="2.39586">
        <ele>634</ele>
        <time>2012-01-06T05:22:01Z</time>
        <course>229.400098522477</course>
        <speed>8.30982973304766</speed>
      </trkpt>
      <trkpt lat="43.43828" lon="2.39601">
        <ele>632</ele>
        <time>2012-01-06T05:22:03Z</time>
        <course>244.5626708276</course>
        <speed>8.3179793779159</speed>
      </trkpt>
      <trkpt lat="43.43804" lon="2.3966">
        <ele>625</ele>
        <time>2012-01-06T05:22:10Z</time>
        <course>226.737772276286</course>
        <speed>8.31425324949022</speed>
      </trkpt>
      <trkpt lat="43.43771" lon="2.39701">
        <ele>620</ele>
        <time>2012-01-06T05:22:16Z</time>
        <course>234.132219988502</course>
        <speed>5.93501988343684</speed>
      </trkpt>
      <trkpt lat="43.43737" lon="2.39756">
        <ele>621</ele>
        <time>2012-01-06T05:22:26Z</time>
        <course>195.909038095853</course>
        <speed>5.93401202043779</speed>
      </trkpt>
      <trkpt lat="43.43722" lon="2.39761">
        <ele>621</ele>
        <time>2012-01-06T05:22:29Z</time>
        <course>164.092907763228</course>
        <speed>5.92815224421182</speed>
      </trkpt>
      <trkpt lat="43.43701" lon="2.39754">
        <ele>622</ele>
        <time>2012-01-06T05:22:33Z</time>
        <course>144.254687330232</course>
        <speed>5.93456170113804</speed>
      </trkpt>
      <trkpt lat="43.43663" lon="2.39722">
        <ele>623</ele>
        <time>2012-01-06T05:22:41Z</time>
        <course>188.382206499864</course>
        <speed>8.32727297116668</speed>
      </trkpt>
      <trkpt lat="43.43634" lon="2.39727">
        <ele>623</ele>
        <time>2012-01-06T05:22:45Z</time>
        <course>206.319667082886</course>
        <speed>8.31310721175021</speed>
      </trkpt>
      <trkpt lat="43.43596" lon="2.39749">
        <ele>623</ele>
        <time>2012-01-06T05:22:51Z</time>
        <course>173.041089342158</course>
        <speed>8.31929718325673</speed>
      </trkpt>
      <trkpt lat="43.43589" lon="2.39748">
        <ele>623</ele>
        <time>2012-01-06T05:22:51Z</time>
        <course>134.845370420819</course>
        <speed>8.31581694042735</speed>
      </trkpt>
      <trkpt lat="43.43527" lon="2.39675">
        <ele>623</ele>
        <time>2012-01-06T05:23:02Z</time>
        <course>146.854104016185</course>
        <speed>4.36513829035002</speed>
      </trkpt>
      <trkpt lat="43.4351" lon="2.39662">
        <ele>623</ele>
        <time>2012-01-06T05:23:07Z</time>
        <course>169.630664837221</course>
        <speed>4.36122165064113</speed>
      </trkpt>
      <trkpt lat="43.43496" lon="2.39659">
        <ele>624</ele>
        <time>2012-01-06T05:23:11Z</time>
        <course>180</course>
        <speed>4.36422960720872</speed>
      </trkpt>
      <trkpt lat="43.43483" lon="2.39659">
        <ele>625</ele>
        <time>2012-01-06T05:23:14Z</time>
        <course>206.665964907432</course>
        <speed>4.36127240281535</speed>
      </trkpt>
      <trkpt lat="43.43466" lon="2.39669">
        <ele>626</ele>
        <time>2012-01-06T05:23:19Z</time>
        <course>228.138364482418</course>
        <speed>4.36225328017893</speed>
      </trkpt>
      <trkpt lat="43.43427" lon="2.3972">
        <ele>629</ele>
        <time>2012-01-06T05:23:33Z</time>
        <course>28.2928291128699</course>
        <speed>6.80592218815624</speed>
      </trkpt>
      <trkpt lat="43.43473" lon="2.39691">
        <ele>629</ele>
        <time>2012-01-06T05:23:41Z</time>
        <course>10.0873921883638</course>
        <speed>6.81117435840383</speed>
      </trkpt>
      <trkpt lat="43.43497" lon="2.39686">
        <ele>629</ele>
        <time>2012-01-06T05:23:45Z</time>
        <course>344.110691685368</course>
        <speed>6.81430350980237</speed>
      </trkpt>
      <trkpt lat="43.43506" lon="2.39689">
        <ele>630</ele>
        <time>2012-01-06T05:23:46Z</time>
        <course>302.906581512124</course>
        <speed>6.80404806507271</speed>
      </trkpt>
      <trkpt lat="43.43553" lon="2.39774">
        <ele>631</ele>
        <time>2012-01-06T05:23:59Z</time>
        <course>315.0950657285</course>
        <speed>8.32200494227609</speed>
      </trkpt>
      <trkpt lat="43.43565" lon="2.39788">
        <ele>630</ele>
        <time>2012-01-06T05:24:01Z</time>
        <course>327.726582754325</course>
        <speed>8.31119430268598</speed>
      </trkpt>
      <trkpt lat="43.43588" lon="2.39805">
        <ele>629</ele>
        <time>2012-01-06T05:24:05Z</time>
        <course>345.265045515485</course>
        <speed>8.31560178010089</speed>
      </trkpt>
      <trkpt lat="43.43653" lon="2.39825">
        <ele>627</ele>
        <time>2012-01-06T05:24:14Z</time>
        <course>329.383352846132</course>
        <speed>8.33413020040679</speed>
      </trkpt>
      <trkpt lat="43.43666" lon="2.39834">
        <ele>625</ele>
        <time>2012-01-06T05:24:15Z</time>
        <course>305.745652871712</course>
        <speed>8.30795601644452</speed>
      </trkpt>
      <trkpt lat="43.43682" lon="2.3986">
        <ele>624</ele>
        <time>2012-01-06T05:24:19Z</time>
        <course>330.317716442842</course>
        <speed>8.30417033245749</speed>
      </trkpt>
      <trkpt lat="43.43697" lon="2.3987">
        <ele>622</ele>
        <time>2012-01-06T05:24:21Z</time>
        <course>10.7591984180763</course>
        <speed>8.32616089735569</speed>
      </trkpt>
      <trkpt lat="43.43724" lon="2.39864">
        <ele>620</ele>
        <time>2012-01-06T05:24:25Z</time>
        <course>21.9264307811432</course>
        <speed>8.31783681081611</speed>
      </trkpt>
      <trkpt lat="43.43775" lon="2.3984">
        <ele>617</ele>
        <time>2012-01-06T05:24:32Z</time>
        <course>3.19379460673738</course>
        <speed>8.32072880482055</speed>
      </trkpt>
      <trkpt lat="43.43821" lon="2.39837">
        <ele>614</ele>
        <time>2012-01-06T05:24:38Z</time>
        <course>28.1396020217331</course>
        <speed>8.3200554469179</speed>
      </trkpt>
      <trkpt lat="43.43845" lon="2.39822">
        <ele>612</ele>
        <time>2012-01-06T05:24:42Z</time>
        <course>58.1732641867133</course>
        <speed>8.30961164732633</speed>
      </trkpt>
      <trkpt lat="43.43862" lon="2.3979">
        <ele>611</ele>
        <time>2012-01-06T05:24:45Z</time>
        <course>41.8247085184744</course>
        <speed>4.94238581885108</speed>
      </trkpt>
      <trkpt lat="43.43884" lon="2.39767">
        <ele>612</ele>
        <time>2012-01-06T05:24:52Z</time>
        <course>16.9991761613622</course>
        <speed>4.94503988859315</speed>
      </trkpt>
      <trkpt lat="43.43898" lon="2.39762">
        <ele>612</ele>
        <time>2012-01-06T05:24:55Z</time>
        <course>356.112026370314</course>
        <speed>4.94163103787538</speed>
      </trkpt>
      <trkpt lat="43.43961" lon="2.39767">
        <ele>615</ele>
        <time>2012-01-06T05:25:09Z</time>
        <course>25.4461231584854</course>
        <speed>8.31657051122843</speed>
      </trkpt>
      <trkpt lat="43.43988" lon="2.39752">
        <ele>613</ele>
        <time>2012-01-06T05:25:13Z</time>
        <course>44.2290376847154</course>
        <speed>8.31856371530391</speed>
      </trkpt>
      <trkpt lat="43.4401" lon="2.39727">
        <ele>612</ele>
        <time>2012-01-06T05:25:17Z</time>
        <course>57.5158568386764</course>
        <speed>8.3149560479742</speed>
      </trkpt>
      <trkpt lat="43.44022" lon="2.39705">
        <ele>610</ele>
        <time>2012-01-06T05:25:19Z</time>
        <course>75.8836730319714</course>
        <speed>8.31890029843663</speed>
      </trkpt>
      <trkpt lat="43.44044" lon="2.39603">
        <ele>607</ele>
        <time>2012-01-06T05:25:30Z</time>
        <course>68.0809738200066</course>
        <speed>8.32882004497472</speed>
      </trkpt>
      <trkpt lat="43.44054" lon="2.39574">
        <ele>605</ele>
        <time>2012-01-06T05:25:33Z</time>
        <course>51.8228221689789</course>
        <speed>8.31470849039396</speed>
      </trkpt>
      <trkpt lat="43.44085" lon="2.39528">
        <ele>603</ele>
        <time>2012-01-06T05:25:39Z</time>
        <course>20.1692776046613</course>
        <speed>8.3125500824856</speed>
      </trkpt>
      <trkpt lat="43.44106" lon="2.39519">
        <ele>602</ele>
        <time>2012-01-06T05:25:42Z</time>
        <course>336.132995810555</course>
        <speed>8.32276379462933</speed>
      </trkpt>
      <trkpt lat="43.44137" lon="2.39535">
        <ele>601</ele>
        <time>2012-01-06T05:25:46Z</time>
        <course>323.123867501579</course>
        <speed>3.82979594191155</speed>
      </trkpt>
      <trkpt lat="43.44153" lon="2.39549">
        <ele>602</ele>
        <time>2012-01-06T05:25:52Z</time>
        <course>307.219697622854</course>
        <speed>3.82590682255752</speed>
      </trkpt>
      <trkpt lat="43.44196" lon="2.39615">
        <ele>606</ele>
        <time>2012-01-06T05:26:10Z</time>
        <course>320.275052347168</course>
        <speed>3.82690027776924</speed>
      </trkpt>
      <trkpt lat="43.44228" lon="2.39646">
        <ele>609</ele>
        <time>2012-01-06T05:26:22Z</time>
        <course>333.615310162885</course>
        <speed>8.32016773952587</speed>
      </trkpt>
      <trkpt lat="43.44292" lon="2.39683">
        <ele>603</ele>
        <time>2012-01-06T05:26:31Z</time>
        <course>325.836983266145</course>
        <speed>8.32262163552448</speed>
      </trkpt>
      <trkpt lat="43.44335" lon="2.39717">
        <ele>600</ele>
        <time>2012-01-06T05:26:38Z</time>
        <course>333.471239917875</course>
        <speed>8.31755099376318</speed>
      </trkpt>
      <trkpt lat="43.44483" lon="2.39803">
        <ele>591</ele>
        <time>2012-01-06T05:26:59Z</time>
        <course>307.541245422499</course>
        <speed>8.31662474471905</speed>
      </trkpt>
      <trkpt lat="43.44518" lon="2.39856">
        <ele>587</ele>
        <time>2012-01-06T05:27:06Z</time>
        <course>350.704509751318</course>
        <speed>8.32412767478235</speed>
      </trkpt>
      <trkpt lat="43.44539" lon="2.3986">
        <ele>586</ele>
        <time>2012-01-06T05:27:09Z</time>
        <course>29.188530269961</course>
        <speed>8.33031598077021</speed>
      </trkpt>
      <trkpt lat="43.44559" lon="2.39847">
        <ele>585</ele>
        <time>2012-01-06T05:27:12Z</time>
        <course>65.5846902440854</course>
        <speed>8.32652847919259</speed>
      </trkpt>
      <trkpt lat="43.44575" lon="2.39806">
        <ele>583</ele>
        <time>2012-01-06T05:27:16Z</time>
        <course>34.0340615082622</course>
        <speed>7.13545800713346</speed>
      </trkpt>
      <trkpt lat="43.44589" lon="2.39795">
        <ele>583</ele>
        <time>2012-01-06T05:27:19Z</time>
        <course>345.537865653414</course>
        <speed>7.13756568645245</speed>
      </trkpt>
      <trkpt lat="43.44619" lon="2.39804">
        <ele>583</ele>
        <time>2012-01-06T05:27:24Z</time>
        <course>331.062735889568</course>
        <speed>7.13836864173243</speed>
      </trkpt>
      <trkpt lat="43.44675" lon="2.3984">
        <ele>584</ele>
        <time>2012-01-06T05:27:33Z</time>
        <course>347.58958644154</course>
        <speed>8.32169297669455</speed>
      </trkpt>
      <trkpt lat="43.44718" lon="2.39851">
        <ele>584</ele>
        <time>2012-01-06T05:27:39Z</time>
        <course>333.816288151447</course>
        <speed>8.31430795489533</speed>
      </trkpt>
      <trkpt lat="43.44767" lon="2.39879">
        <ele>584</ele>
        <time>2012-01-06T05:27:46Z</time>
        <course>357.653370842887</course>
        <speed>4.44745539394872</speed>
      </trkpt>
      <trkpt lat="43.44788" lon="2.3988">
        <ele>585</ele>
        <time>2012-01-06T05:27:52Z</time>
        <course>11.5227022004327</course>
        <speed>4.44914522355165</speed>
      </trkpt>
      <trkpt lat="43.44826" lon="2.39871">
        <ele>586</ele>
        <time>2012-01-06T05:28:01Z</time>
        <course>27.3206008498516</course>
        <speed>4.44787383685636</speed>
      </trkpt>
      <trkpt lat="43.44866" lon="2.39847">
        <ele>589</ele>
        <time>2012-01-06T05:28:12Z</time>
        <course>50.6038364986776</course>
        <speed>8.32039493798417</speed>
      </trkpt>
      <trkpt lat="43.44895" lon="2.39806">
        <ele>589</ele>
        <time>2012-01-06T05:28:18Z</time>
        <course>68.5385047537876</course>
        <speed>8.32460286828119</speed>
      </trkpt>
      <trkpt lat="43.44916" lon="2.39744">
        <ele>589</ele>
        <time>2012-01-06T05:28:24Z</time>
        <course>79.3970842944761</course>
        <speed>8.31749494716316</speed>
      </trkpt>
      <trkpt lat="43.44921" lon="2.39713">
        <ele>587</ele>
        <time>2012-01-06T05:28:27Z</time>
        <course>93.775764529373</course>
        <speed>8.31922591756149</speed>
      </trkpt>
      <trkpt lat="43.44915" lon="2.39607">
        <ele>584</ele>
        <time>2012-01-06T05:28:38Z</time>
        <course>108.861326885646</course>
        <speed>8.31284668665115</speed>
      </trkpt>
      <trkpt lat="43.44905" lon="2.39573">
        <ele>583</ele>
        <time>2012-01-06T05:28:41Z</time>
        <course>125.983348112353</course>
        <speed>8.31830788676167</speed>
      </trkpt>
      <trkpt lat="43.44865" lon="2.39509">
        <ele>581</ele>
        <time>2012-01-06T05:28:49Z</time>
        <course>111.177549418508</course>
        <speed>8.3221176016965</speed>
      </trkpt>
      <trkpt lat="43.44839" lon="2.39431">
        <ele>579</ele>
        <time>2012-01-06T05:28:58Z</time>
        <course>124.892191371782</course>
        <speed>8.31442267202533</speed>
      </trkpt>
      <trkpt lat="43.44791" lon="2.39351">
        <ele>577</ele>
        <time>2012-01-06T05:29:08Z</time>
        <course>93.328091146204</course>
        <speed>8.33651646275611</speed>
      </trkpt>
      <trkpt lat="43.4479" lon="2.39331">
        <ele>576</ele>
        <time>2012-01-06T05:29:10Z</time>
        <course>73.8088002287794</course>
        <speed>8.32411136979931</speed>
      </trkpt>
      <trkpt lat="43.44802" lon="2.39283">
        <ele>576</ele>
        <time>2012-01-06T05:29:15Z</time>
        <course>81.7456031851759</course>
        <speed>8.31593056234794</speed>
      </trkpt>
      <trkpt lat="43.4481" lon="2.39219">
        <ele>574</ele>
        <time>2012-01-06T05:29:21Z</time>
        <course>93.4155513322419</course>
        <speed>8.32211395719772</speed>
      </trkpt>
      <trkpt lat="43.44808" lon="2.3918">
        <ele>574</ele>
        <time>2012-01-06T05:29:25Z</time>
        <course>100.571455034889</course>
        <speed>8.31671609980347</speed>
      </trkpt>
      <trkpt lat="43.44791" lon="2.39074">
        <ele>572</ele>
        <time>2012-01-06T05:29:35Z</time>
        <course>116.654075455623</course>
        <speed>8.32671580735604</speed>
      </trkpt>
      <trkpt lat="43.44772" lon="2.3903">
        <ele>568</ele>
        <time>2012-01-06T05:29:40Z</time>
        <course>147.881199738448</course>
        <speed>8.32341381894614</speed>
      </trkpt>
      <trkpt lat="43.44735" lon="2.39003">
        <ele>564</ele>
        <time>2012-01-06T05:29:46Z</time>
        <course>99.0101917391791</course>
        <speed>8.32193948102907</speed>
      </trkpt>
      <trkpt lat="43.44732" lon="2.38981">
        <ele>562</ele>
        <time>2012-01-06T05:29:48Z</time>
        <course>79.8627852466287</course>
        <speed>8.31045749242591</speed>
      </trkpt>
      <trkpt lat="43.44734" lon="2.38968">
        <ele>562</ele>
        <time>2012-01-06T05:29:49Z</time>
        <course>65.3589002586586</course>
        <speed>3.3296119525028</speed>
      </trkpt>
      <trkpt lat="43.44749" lon="2.3893">
        <ele>564</ele>
        <time>2012-01-06T05:30:00Z</time>
        <course>81.737093354558</course>
        <speed>3.32992559810903</speed>
      </trkpt>
      <trkpt lat="43.44752" lon="2.38906">
        <ele>566</ele>
        <time>2012-01-06T05:30:06Z</time>
        <course>110.666273772067</course>
        <speed>3.3291556122011</speed>
      </trkpt>
      <trkpt lat="43.44728" lon="2.38832">
        <ele>571</ele>
        <time>2012-01-06T05:30:25Z</time>
        <course>134.100836083664</course>
        <speed>8.32109844174842</speed>
      </trkpt>
      <trkpt lat="43.44683" lon="2.38778">
        <ele>562</ele>
        <time>2012-01-06T05:30:33Z</time>
        <course>174.828306726685</course>
        <speed>8.31998587720469</speed>
      </trkpt>
      <trkpt lat="43.44645" lon="2.38774">
        <ele>557</ele>
        <time>2012-01-06T05:30:38Z</time>
        <course>147.769414572683</course>
        <speed>8.31858559575964</speed>
      </trkpt>
      <trkpt lat="43.4463" lon="2.38763">
        <ele>556</ele>
        <time>2012-01-06T05:30:41Z</time>
        <course>92.6674091680207</course>
        <speed>8.31251144097781</speed>
      </trkpt>
      <trkpt lat="43.44629" lon="2.38738">
        <ele>555</ele>
        <time>2012-01-06T05:30:43Z</time>
        <course>76.4364761736102</course>
        <speed>8.31227501406591</speed>
      </trkpt>
      <trkpt lat="43.4464" lon="2.38685">
        <ele>553</ele>
        <time>2012-01-06T05:30:48Z</time>
        <course>63.749182496854</course>
        <speed>8.32247786383272</speed>
      </trkpt>
      <trkpt lat="43.44668" lon="2.38619">
        <ele>551</ele>
        <time>2012-01-06T05:30:56Z</time>
        <course>73.7977148663782</course>
        <speed>7.28743174434408</speed>
      </trkpt>
      <trkpt lat="43.4468" lon="2.38571">
        <ele>551</ele>
        <time>2012-01-06T05:31:01Z</time>
        <course>55.6318300133355</course>
        <speed>7.29392895775449</speed>
      </trkpt>
      <trkpt lat="43.4469" lon="2.38554">
        <ele>551</ele>
        <time>2012-01-06T05:31:04Z</time>
        <course>31.0534334989845</course>
        <speed>7.28926759553435</speed>
      </trkpt>
      <trkpt lat="43.4471" lon="2.3854">
        <ele>551</ele>
        <time>2012-01-06T05:31:07Z</time>
        <course>6.73533261539125</course>
        <speed>7.28284775203465</speed>
      </trkpt>
      <trkpt lat="43.44761" lon="2.38533">
        <ele>552</ele>
        <time>2012-01-06T05:31:15Z</time>
        <course>17.3762426717415</course>
        <speed>8.31709381349547</speed>
      </trkpt>
      <trkpt lat="43.44783" lon="2.38525">
        <ele>551</ele>
        <time>2012-01-06T05:31:18Z</time>
        <course>34.8523146354221</course>
        <speed>8.32152387314617</speed>
      </trkpt>
      <trkpt lat="43.44851" lon="2.3847">
        <ele>551</ele>
        <time>2012-01-06T05:31:29Z</time>
        <course>50.5056536663707</course>
        <speed>8.32668110044324</speed>
      </trkpt>
      <trkpt lat="43.44873" lon="2.38439">
        <ele>547</ele>
        <time>2012-01-06T05:31:33Z</time>
        <course>61.2509428143999</course>
        <speed>8.31840359494052</speed>
      </trkpt>
      <trkpt lat="43.44925" lon="2.38329">
        <ele>537</ele>
        <time>2012-01-06T05:31:46Z</time>
        <course>44.361734265326</course>
        <speed>8.3244358816637</speed>
      </trkpt>
      <trkpt lat="43.44962" lon="2.38287">
        <ele>536</ele>
        <time>2012-01-06T05:31:52Z</time>
        <course>32.7138675897506</course>
        <speed>8.31902355690578</speed>
      </trkpt>
      <trkpt lat="43.45064" lon="2.38211">
        <ele>536</ele>
        <time>2012-01-06T05:32:07Z</time>
        <course>41.3028945008559</course>
        <speed>8.3147890983077</speed>
      </trkpt>
      <trkpt lat="43.45117" lon="2.38157">
        <ele>532</ele>
        <time>2012-01-06T05:32:16Z</time>
        <course>57.0020425062853</course>
        <speed>8.32357898126645</speed>
      </trkpt>
      <trkpt lat="43.45131" lon="2.38132">
        <ele>530</ele>
        <time>2012-01-06T05:32:19Z</time>
        <course>77.9471910096077</course>
        <speed>8.32250585219682</speed>
      </trkpt>
      <trkpt lat="43.45138" lon="2.38094">
        <ele>529</ele>
        <time>2012-01-06T05:32:23Z</time>
        <course>56.7617502640675</course>
        <speed>8.3088945400368</speed>
      </trkpt>
      <trkpt lat="43.45151" lon="2.38071">
        <ele>528</ele>
        <time>2012-01-06T05:32:26Z</time>
        <course>41.2904864072386</course>
        <speed>8.31745055915406</speed>
      </trkpt>
      <trkpt lat="43.45266" lon="2.37954">
        <ele>523</ele>
        <time>2012-01-06T05:32:45Z</time>
        <course>78.5428331714223</course>
        <speed>8.31854752137852</speed>
      </trkpt>
      <trkpt lat="43.45273" lon="2.37914">
        <ele>519</ele>
        <time>2012-01-06T05:32:49Z</time>
        <course>58.4797815769843</course>
        <speed>8.3199287488741</speed>
      </trkpt>
      <trkpt lat="43.45291" lon="2.3788">
        <ele>516</ele>
        <time>2012-01-06T05:32:53Z</time>
        <course>49.9618003737302</course>
        <speed>8.32081192741983</speed>
      </trkpt>
      <trkpt lat="43.45328" lon="2.37829">
        <ele>510</ele>
        <time>2012-01-06T05:33:00Z</time>
        <course>27.3872265628796</course>
        <speed>8.32438061250006</speed>
      </trkpt>
      <trkpt lat="43.45353" lon="2.37814">
        <ele>509</ele>
        <time>2012-01-06T05:33:04Z</time>
        <course>344.389501904807</course>
        <speed>8.31023398026469</speed>
      </trkpt>
      <trkpt lat="43.45387" lon="2.37825">
        <ele>508</ele>
        <time>2012-01-06T05:33:08Z</time>
        <course>330.555025138661</course>
        <speed>8.31721612609781</speed>
      </trkpt>
      <trkpt lat="43.45462" lon="2.37874">
        <ele>506</ele>
        <time>2012-01-06T05:33:20Z</time>
        <course>355.664535764621</course>
        <speed>8.31804461937415</speed>
      </trkpt>
      <trkpt lat="43.45519" lon="2.37879">
        <ele>502</ele>
        <time>2012-01-06T05:33:27Z</time>
        <course>322.898937485762</course>
        <speed>8.32509644451025</speed>
      </trkpt>
      <trkpt lat="43.45535" lon="2.37893">
        <ele>501</ele>
        <time>2012-01-06T05:33:30Z</time>
        <course>307.637508711741</course>
        <speed>8.32960187444385</speed>
      </trkpt>
      <trkpt lat="43.45553" lon="2.3792">
        <ele>500</ele>
        <time>2012-01-06T05:33:33Z</time>
        <course>288.286467877596</course>
        <speed>8.3123634458646</speed>
      </trkpt>
      <trkpt lat="43.45559" lon="2.37941">
        <ele>499</ele>
        <time>2012-01-06T05:33:35Z</time>
        <course>261.032609976408</course>
        <speed>8.32084438004177</speed>
      </trkpt>
      <trkpt lat="43.45556" lon="2.37963">
        <ele>499</ele>
        <time>2012-01-06T05:33:38Z</time>
        <course>236.51437816595</course>
        <speed>8.31711649031301</speed>
      </trkpt>
      <trkpt lat="43.45496" lon="2.38068">
        <ele>499</ele>
        <time>2012-01-06T05:33:51Z</time>
        <course>212.935984470926</course>
        <speed>2.44707525703472</speed>
      </trkpt>
      <trkpt lat="43.45432" lon="2.38116">
        <ele>508</ele>
        <time>2012-01-06T05:34:24Z</time>
        <course>220.81274286475</course>
        <speed>2.4473918855983</speed>
      </trkpt>
      <trkpt lat="43.45394" lon="2.38154">
        <ele>515</ele>
        <time>2012-01-06T05:34:45Z</time>
        <course>232.693331603328</course>
        <speed>8.32356647587141</speed>
      </trkpt>
      <trkpt lat="43.45369" lon="2.38192">
        <ele>514</ele>
        <time>2012-01-06T05:34:50Z</time>
        <course>263.700042924553</course>
        <speed>8.31382016730217</speed>
      </trkpt>
      <trkpt lat="43.45365" lon="2.38234">
        <ele>514</ele>
        <time>2012-01-06T05:34:54Z</time>
        <course>288.036037230053</course>
        <speed>8.31307552812737</speed>
      </trkpt>
      <trkpt lat="43.45374" lon="2.38266">
        <ele>514</ele>
        <time>2012-01-06T05:34:57Z</time>
        <course>302.748477530331</course>
        <speed>8.31084208049684</speed>
      </trkpt>
      <trkpt lat="43.45394" lon="2.38302">
        <ele>514</ele>
        <time>2012-01-06T05:35:02Z</time>
        <course>312.527623595374</course>
        <speed>8.31696297507963</speed>
      </trkpt>
      <trkpt lat="43.45436" lon="2.38355">
        <ele>508</ele>
        <time>2012-01-06T05:35:09Z</time>
        <course>328.319013377672</course>
        <speed>8.32481552223728</speed>
      </trkpt>
      <trkpt lat="43.45464" lon="2.38375">
        <ele>505</ele>
        <time>2012-01-06T05:35:14Z</time>
        <course>335.243190100952</course>
        <speed>8.3181216996988</speed>
      </trkpt>
      <trkpt lat="43.45584" lon="2.38439">
        <ele>494</ele>
        <time>2012-01-06T05:35:31Z</time>
        <course>317.313206216619</course>
        <speed>2.19817342601058</speed>
      </trkpt>
      <trkpt lat="43.45599" lon="2.38455">
        <ele>496</ele>
        <time>2012-01-06T05:35:40Z</time>
        <course>304.002622908248</course>
        <speed>2.19779770604986</speed>
      </trkpt>
      <trkpt lat="43.45606" lon="2.38467">
        <ele>498</ele>
        <time>2012-01-06T05:35:46Z</time>
        <course>286.121116670226</course>
        <speed>2.19754618364442</speed>
      </trkpt>
      <trkpt lat="43.45613" lon="2.38495">
        <ele>502</ele>
        <time>2012-01-06T05:35:57Z</time>
        <course>263.861671038744</course>
        <speed>2.19840830574067</speed>
      </trkpt>
      <trkpt lat="43.45604" lon="2.38592">
        <ele>513</ele>
        <time>2012-01-06T05:36:33Z</time>
        <course>292.200977989101</course>
        <speed>8.33196887401978</speed>
      </trkpt>
      <trkpt lat="43.4561" lon="2.38609">
        <ele>510</ele>
        <time>2012-01-06T05:36:35Z</time>
        <course>315.199424982086</course>
        <speed>8.30987968802838</speed>
      </trkpt>
      <trkpt lat="43.45637" lon="2.3864">
        <ele>504</ele>
        <time>2012-01-06T05:36:39Z</time>
        <course>337.851912592742</course>
        <speed>8.31756429846185</speed>
      </trkpt>
      <trkpt lat="43.45654" lon="2.38648">
        <ele>502</ele>
        <time>2012-01-06T05:36:42Z</time>
        <course>21.4666149585636</course>
        <speed>8.32200888928818</speed>
      </trkpt>
      <trkpt lat="43.45687" lon="2.38633">
        <ele>496</ele>
        <time>2012-01-06T05:36:46Z</time>
        <course>356.463699399669</course>
        <speed>8.3303193048447</speed>
      </trkpt>
      <trkpt lat="43.45701" lon="2.38634">
        <ele>494</ele>
        <time>2012-01-06T05:36:48Z</time>
        <course>328.876766887386</course>
        <speed>8.31671337589751</speed>
      </trkpt>
      <trkpt lat="43.45744" lon="2.38664">
        <ele>491</ele>
        <time>2012-01-06T05:36:55Z</time>
        <course>333.170068199486</course>
        <speed>8.31717615971576</speed>
      </trkpt>
      <trkpt lat="43.45881" lon="2.38744">
        <ele>482</ele>
        <time>2012-01-06T05:37:15Z</time>
        <course>354.696743053564</course>
        <speed>8.32201375134755</speed>
      </trkpt>
      <trkpt lat="43.45937" lon="2.3875">
        <ele>478</ele>
        <time>2012-01-06T05:37:22Z</time>
        <course>331.787900220894</course>
        <speed>8.31959196234811</speed>
      </trkpt>
      <trkpt lat="43.45979" lon="2.38776">
        <ele>476</ele>
        <time>2012-01-06T05:37:28Z</time>
        <course>357.809731026511</course>
        <speed>8.31686832650518</speed>
      </trkpt>
      <trkpt lat="43.46047" lon="2.38779">
        <ele>474</ele>
        <time>2012-01-06T05:37:37Z</time>
        <course>332.754151301884</course>
        <speed>8.31795316539649</speed>
      </trkpt>
      <trkpt lat="43.46111" lon="2.38817">
        <ele>473</ele>
        <time>2012-01-06T05:37:47Z</time>
        <course>17.3958609232205</course>
        <speed>8.3208243746782</speed>
      </trkpt>
      <trkpt lat="43.46183" lon="2.38791">
        <ele>460</ele>
        <time>2012-01-06T05:37:57Z</time>
        <course>350.871211540524</course>
        <speed>8.31654176069136</speed>
      </trkpt>
      <trkpt lat="43.4621" lon="2.38796">
        <ele>456</ele>
        <time>2012-01-06T05:38:00Z</time>
        <course>323.052884340064</course>
        <speed>7.23954923747335</speed>
      </trkpt>
      <trkpt lat="43.46225" lon="2.38809">
        <ele>456</ele>
        <time>2012-01-06T05:38:03Z</time>
        <course>295.32836863683</course>
        <speed>7.24406772799756</speed>
      </trkpt>
      <trkpt lat="43.46255" lon="2.38882">
        <ele>456</ele>
        <time>2012-01-06T05:38:12Z</time>
        <course>309.444700276776</course>
        <speed>7.24488841210476</speed>
      </trkpt>
      <trkpt lat="43.46285" lon="2.38924">
        <ele>457</ele>
        <time>2012-01-06T05:38:19Z</time>
        <course>301.367940215232</course>
        <speed>8.31901578951587</speed>
      </trkpt>
      <trkpt lat="43.46312" lon="2.38975">
        <ele>454</ele>
        <time>2012-01-06T05:38:25Z</time>
        <course>319.028553218178</course>
        <speed>8.31215069798263</speed>
      </trkpt>
      <trkpt lat="43.46339" lon="2.39002">
        <ele>452</ele>
        <time>2012-01-06T05:38:29Z</time>
        <course>347.088182380336</course>
        <speed>8.32080667338368</speed>
      </trkpt>
      <trkpt lat="43.46411" lon="2.39021">
        <ele>448</ele>
        <time>2012-01-06T05:38:39Z</time>
        <course>356.176355761627</course>
        <speed>8.31499812018425</speed>
      </trkpt>
      <trkpt lat="43.46437" lon="2.39023">
        <ele>445</ele>
        <time>2012-01-06T05:38:43Z</time>
        <course>16.6350927514391</course>
        <speed>8.31972607318946</speed>
      </trkpt>
      <trkpt lat="43.46501" lon="2.39001">
        <ele>440</ele>
        <time>2012-01-06T05:38:51Z</time>
        <course>357.835554268371</course>
        <speed>8.32909508280271</speed>
      </trkpt>
      <trkpt lat="43.46524" lon="2.39002">
        <ele>439</ele>
        <time>2012-01-06T05:38:54Z</time>
        <course>333.689631573461</course>
        <speed>8.31855703294141</speed>
      </trkpt>
      <trkpt lat="43.46575" lon="2.39031">
        <ele>437</ele>
        <time>2012-01-06T05:39:02Z</time>
        <course>323.867651883676</course>
        <speed>8.3176914535772</speed>
      </trkpt>
      <trkpt lat="43.46631" lon="2.39078">
        <ele>435</ele>
        <time>2012-01-06T05:39:11Z</time>
        <course>317.585489170619</course>
        <speed>8.31598472633188</speed>
      </trkpt>
      <trkpt lat="43.46671" lon="2.3912">
        <ele>434</ele>
        <time>2012-01-06T05:39:17Z</time>
        <course>332.433079714003</course>
        <speed>8.30128120066285</speed>
      </trkpt>
      <trkpt lat="43.46686" lon="2.39129">
        <ele>433</ele>
        <time>2012-01-06T05:39:20Z</time>
        <course>357.23232980599</course>
        <speed>8.30616275044458</speed>
      </trkpt>
      <trkpt lat="43.46704" lon="2.3913">
        <ele>433</ele>
        <time>2012-01-06T05:39:22Z</time>
        <course>15.8453558814515</course>
        <speed>8.32443222911898</speed>
      </trkpt>
      <trkpt lat="43.4675" lon="2.39115">
        <ele>433</ele>
        <time>2012-01-06T05:39:28Z</time>
        <course>356.441604156308</course>
        <speed>7.05937597940372</speed>
      </trkpt>
      <trkpt lat="43.46792" lon="2.39118">
        <ele>433</ele>
        <time>2012-01-06T05:39:35Z</time>
        <course>346.298402064292</course>
        <speed>7.06927390332784</speed>
      </trkpt>
      <trkpt lat="43.46817" lon="2.39125">
        <ele>433</ele>
        <time>2012-01-06T05:39:39Z</time>
        <course>334.471512589151</course>
        <speed>7.06193697404316</speed>
      </trkpt>
      <trkpt lat="43.46848" lon="2.39142">
        <ele>434</ele>
        <time>2012-01-06T05:39:44Z</time>
        <course>349.867033263625</course>
        <speed>7.13589554425761</speed>
      </trkpt>
      <trkpt lat="43.46926" lon="2.39158">
        <ele>434</ele>
        <time>2012-01-06T05:39:56Z</time>
        <course>336.457043996547</course>
        <speed>7.13334463869552</speed>
      </trkpt>
      <trkpt lat="43.46954" lon="2.39172">
        <ele>435</ele>
        <time>2012-01-06T05:40:01Z</time>
        <course>327.912421570362</course>
        <speed>8.31874233402413</speed>
      </trkpt>
      <trkpt lat="43.47043" lon="2.39236">
        <ele>434</ele>
        <time>2012-01-06T05:40:14Z</time>
        <course>306.122139699103</course>
        <speed>8.30846558472356</speed>
      </trkpt>
      <trkpt lat="43.47057" lon="2.39258">
        <ele>433</ele>
        <time>2012-01-06T05:40:17Z</time>
        <course>290.097196354986</course>
        <speed>8.31430026396209</speed>
      </trkpt>
      <trkpt lat="43.47072" lon="2.39305">
        <ele>432</ele>
        <time>2012-01-06T05:40:22Z</time>
        <course>301.550309626919</course>
        <speed>8.31981372013019</speed>
      </trkpt>
      <trkpt lat="43.47117" lon="2.39389">
        <ele>430</ele>
        <time>2012-01-06T05:40:32Z</time>
        <course>323.739805999035</course>
        <speed>8.31730842949945</speed>
      </trkpt>
      <trkpt lat="43.47211" lon="2.39468">
        <ele>419</ele>
        <time>2012-01-06T05:40:47Z</time>
        <course>337.748786752006</course>
        <speed>4.8463857240314</speed>
      </trkpt>
      <trkpt lat="43.47243" lon="2.39483">
        <ele>420</ele>
        <time>2012-01-06T05:40:55Z</time>
        <course>301.669327207028</course>
        <speed>4.8527172934</speed>
      </trkpt>
      <trkpt lat="43.4725" lon="2.39496">
        <ele>420</ele>
        <time>2012-01-06T05:40:58Z</time>
        <course>288.505246765216</course>
        <speed>4.84219376760068</speed>
      </trkpt>
      <trkpt lat="43.47269" lon="2.39561">
        <ele>422</ele>
        <time>2012-01-06T05:41:09Z</time>
        <course>321.328552534746</course>
        <speed>4.84578073068428</speed>
      </trkpt>
      <trkpt lat="43.47293" lon="2.39583">
        <ele>424</ele>
        <time>2012-01-06T05:41:16Z</time>
        <course>345.991584880282</course>
        <speed>8.31815752656235</speed>
      </trkpt>
      <trkpt lat="43.47321" lon="2.39591">
        <ele>421</ele>
        <time>2012-01-06T05:41:20Z</time>
        <course>31.1558099332523</course>
        <speed>8.33311095907588</speed>
      </trkpt>
      <trkpt lat="43.47334" lon="2.39582">
        <ele>420</ele>
        <time>2012-01-06T05:41:22Z</time>
        <course>60.2075106858886</course>
        <speed>8.29885012356237</speed>
      </trkpt>
      <trkpt lat="43.47339" lon="2.39572">
        <ele>420</ele>
        <time>2012-01-06T05:41:23Z</time>
        <course>70.604602455641</course>
        <speed>8.31993911907795</speed>
      </trkpt>
      <trkpt lat="43.47367" lon="2.39481">
        <ele>415</ele>
        <time>2012-01-06T05:41:32Z</time>
        <course>64.9604629538754</course>
        <speed>8.31817592744109</speed>
      </trkpt>
      <trkpt lat="43.47387" lon="2.39432">
        <ele>413</ele>
        <time>2012-01-06T05:41:38Z</time>
        <course>44.7257558896159</course>
        <speed>8.31642129144121</speed>
      </trkpt>
      <trkpt lat="43.47447" lon="2.39364">
        <ele>412</ele>
        <time>2012-01-06T05:41:48Z</time>
        <course>65.0073254712971</course>
        <speed>8.32288168784968</speed>
      </trkpt>
      <trkpt lat="43.47458" lon="2.39337">
        <ele>411</ele>
        <time>2012-01-06T05:41:51Z</time>
        <course>95.642216661542</course>
        <speed>8.32131464802434</speed>
      </trkpt>
      <trkpt lat="43.47453" lon="2.39279">
        <ele>409</ele>
        <time>2012-01-06T05:41:57Z</time>
        <course>112.234718733567</course>
        <speed>8.30521509424966</speed>
      </trkpt>
      <trkpt lat="43.47443" lon="2.39251">
        <ele>409</ele>
        <time>2012-01-06T05:42:00Z</time>
        <course>140.367471594388</course>
        <speed>8.31405728147712</speed>
      </trkpt>
      <trkpt lat="43.47385" lon="2.39196">
        <ele>407</ele>
        <time>2012-01-06T05:42:09Z</time>
        <course>114.608417247052</course>
        <speed>8.3102130335722</speed>
      </trkpt>
      <trkpt lat="43.47375" lon="2.39171">
        <ele>405</ele>
        <time>2012-01-06T05:42:12Z</time>
        <course>93.054153738921</course>
        <speed>8.31238423813492</speed>
      </trkpt>
      <trkpt lat="43.47373" lon="2.39128">
        <ele>404</ele>
        <time>2012-01-06T05:42:16Z</time>
        <course>83.6820074604965</course>
        <speed>8.32319316253867</speed>
      </trkpt>
      <trkpt lat="43.47376" lon="2.39097">
        <ele>402</ele>
        <time>2012-01-06T05:42:19Z</time>
        <course>71.6235725964504</course>
        <speed>8.32278345064408</speed>
      </trkpt>
      <trkpt lat="43.47394" lon="2.39035">
        <ele>400</ele>
        <time>2012-01-06T05:42:26Z</time>
        <course>53.5579400280148</course>
        <speed>8.3205107852816</speed>
      </trkpt>
      <trkpt lat="43.47414" lon="2.39004">
        <ele>398</ele>
        <time>2012-01-06T05:42:30Z</time>
        <course>34.2059583351583</course>
        <speed>8.32160464329797</speed>
      </trkpt>
      <trkpt lat="43.47468" lon="2.38962">
        <ele>394</ele>
        <time>2012-01-06T05:42:38Z</time>
        <course>20.9253580456908</course>
        <speed>6.19725189822458</speed>
      </trkpt>
      <trkpt lat="43.47484" lon="2.38955">
        <ele>394</ele>
        <time>2012-01-06T05:42:41Z</time>
        <course>8.89985805559586</course>
        <speed>6.19955357381113</speed>
      </trkpt>
      <trkpt lat="43.47551" lon="2.38943">
        <ele>395</ele>
        <time>2012-01-06T05:42:53Z</time>
        <course>34.2196721091478</course>
        <speed>6.19070607659092</speed>
      </trkpt>
      <trkpt lat="43.47569" lon="2.38929">
        <ele>396</ele>
        <time>2012-01-06T05:42:57Z</time>
        <course>46.5813428435818</course>
        <speed>8.32607430225417</speed>
      </trkpt>
      <trkpt lat="43.47593" lon="2.389">
        <ele>394</ele>
        <time>2012-01-06T05:43:01Z</time>
        <course>59.3400448030918</course>
        <speed>8.31009422333821</speed>
      </trkpt>
      <trkpt lat="43.47607" lon="2.38873">
        <ele>393</ele>
        <time>2012-01-06T05:43:04Z</time>
        <course>81.088116095656</course>
        <speed>8.32072727962061</speed>
      </trkpt>
      <trkpt lat="43.47614" lon="2.38822">
        <ele>391</ele>
        <time>2012-01-06T05:43:09Z</time>
        <course>73.459170802451</course>
        <speed>8.31600220513969</speed>
      </trkpt>
      <trkpt lat="43.4764" lon="2.38722">
        <ele>387</ele>
        <time>2012-01-06T05:43:20Z</time>
        <course>58.6344250400421</course>
        <speed>8.31615734030976</speed>
      </trkpt>
      <trkpt lat="43.47656" lon="2.38692">
        <ele>385</ele>
        <time>2012-01-06T05:43:23Z</time>
        <course>41.1891341337054</course>
        <speed>8.32083779759688</speed>
      </trkpt>
      <trkpt lat="43.47698" lon="2.3865">
        <ele>381</ele>
        <time>2012-01-06T05:43:30Z</time>
        <course>56.1425000561573</course>
        <speed>8.31459733812981</speed>
      </trkpt>
      <trkpt lat="43.47735" lon="2.38587">
        <ele>377</ele>
        <time>2012-01-06T05:43:38Z</time>
        <course>65.0511482402419</course>
        <speed>4.91167981179859</speed>
      </trkpt>
      <trkpt lat="43.47768" lon="2.38506">
        <ele>379</ele>
        <time>2012-01-06T05:43:53Z</time>
        <course>73.7464577180784</course>
        <speed>4.91138128452399</speed>
      </trkpt>
      <trkpt lat="43.4778" lon="2.38459">
        <ele>381</ele>
        <time>2012-01-06T05:44:02Z</time>
        <course>88.1355252592179</course>
        <speed>8.3069106766711</speed>
      </trkpt>
      <trkpt lat="43.47781" lon="2.38424">
        <ele>379</ele>
        <time>2012-01-06T05:44:05Z</time>
        <course>110.849471105117</course>
        <speed>8.31879365811498</speed>
      </trkpt>
      <trkpt lat="43.47772" lon="2.38397">
        <ele>378</ele>
        <time>2012-01-06T05:44:08Z</time>
        <course>141.769523652781</course>
        <speed>8.29487525510558</speed>
      </trkpt>
      <trkpt lat="43.47762" lon="2.38388">
        <ele>377</ele>
        <time>2012-01-06T05:44:09Z</time>
        <course>159.44229800501</course>
        <speed>8.32424276219477</speed>
      </trkpt>
      <trkpt lat="43.47713" lon="2.38367">
        <ele>374</ele>
        <time>2012-01-06T05:44:16Z</time>
        <course>122.735305749134</course>
        <speed>8.3284298962247</speed>
      </trkpt>
      <trkpt lat="43.47704" lon="2.38351">
        <ele>373</ele>
        <time>2012-01-06T05:44:18Z</time>
        <course>94.6685468738685</course>
        <speed>8.34070095740625</speed>
      </trkpt>
      <trkpt lat="43.47703" lon="2.38337">
        <ele>373</ele>
        <time>2012-01-06T05:44:20Z</time>
        <course>70.5266013857912</course>
        <speed>8.31118370925994</speed>
      </trkpt>
      <trkpt lat="43.47716" lon="2.38295">
        <ele>372</ele>
        <time>2012-01-06T05:44:24Z</time>
        <course>63.9166361736538</course>
        <speed>8.32418051873988</speed>
      </trkpt>
      <trkpt lat="43.4774" lon="2.38239">
        <ele>371</ele>
        <time>2012-01-06T05:44:30Z</time>
        <course>94.6695738261457</course>
        <speed>8.31010058561029</speed>
      </trkpt>
      <trkpt lat="43.47738" lon="2.38211">
        <ele>370</ele>
        <time>2012-01-06T05:44:33Z</time>
        <course>112.426623709919</course>
        <speed>8.31382937821148</speed>
      </trkpt>
      <trkpt lat="43.47725" lon="2.38175">
        <ele>369</ele>
        <time>2012-01-06T05:44:37Z</time>
        <course>79.2201095185165</course>
        <speed>8.31956464708484</speed>
      </trkpt>
      <trkpt lat="43.47728" lon="2.38157">
        <ele>368</ele>
        <time>2012-01-06T05:44:39Z</time>
        <course>28.9099569279036</course>
        <speed>8.31774212401397</speed>
      </trkpt>
      <trkpt lat="43.47793" lon="2.38116">
        <ele>366</ele>
        <time>2012-01-06T05:44:48Z</time>
        <course>67.452868862521</course>
        <speed>8.32299479655394</speed>
      </trkpt>
      <trkpt lat="43.47813" lon="2.38061">
        <ele>361</ele>
        <time>2012-01-06T05:44:54Z</time>
        <course>82.5110474083915</course>
        <speed>8.31813702682447</speed>
      </trkpt>
      <trkpt lat="43.47828" lon="2.37931">
        <ele>353</ele>
        <time>2012-01-06T05:45:07Z</time>
        <course>87.960540461028</course>
        <speed>3.65294810029914</speed>
      </trkpt>
      <trkpt lat="43.47829" lon="2.37899">
        <ele>354</ele>
        <time>2012-01-06T05:45:14Z</time>
        <course>96.1565251310701</course>
        <speed>3.6521133103914</speed>
      </trkpt>
      <trkpt lat="43.47824" lon="2.37846">
        <ele>357</ele>
        <time>2012-01-06T05:45:26Z</time>
        <course>115.451269182025</course>
        <speed>3.65225144111038</speed>
      </trkpt>
      <trkpt lat="43.47814" lon="2.37822">
        <ele>358</ele>
        <time>2012-01-06T05:45:32Z</time>
        <course>126.178651853456</course>
        <speed>3.65197571371924</speed>
      </trkpt>
      <trkpt lat="43.47766" lon="2.37747">
        <ele>364</ele>
        <time>2012-01-06T05:45:54Z</time>
        <course>108.080937835847</course>
        <speed>8.30973735751348</speed>
      </trkpt>
      <trkpt lat="43.47758" lon="2.37719">
        <ele>363</ele>
        <time>2012-01-06T05:45:57Z</time>
        <course>100.620232776403</course>
        <speed>8.31962758411245</speed>
      </trkpt>
      <trkpt lat="43.4773" lon="2.37548">
        <ele>358</ele>
        <time>2012-01-06T05:46:14Z</time>
        <course>133.36599191016</course>
        <speed>8.32024370611611</speed>
      </trkpt>
      <trkpt lat="43.47654" lon="2.37456">
        <ele>348</ele>
        <time>2012-01-06T05:46:27Z</time>
        <course>117.671394727211</course>
        <speed>8.31736892825659</speed>
      </trkpt>
      <trkpt lat="43.47599" lon="2.37336">
        <ele>336</ele>
        <time>2012-01-06T05:46:41Z</time>
        <course>102.103234232696</course>
        <speed>8.3283899563321</speed>
      </trkpt>
      <trkpt lat="43.47596" lon="2.3732">
        <ele>335</ele>
        <time>2012-01-06T05:46:43Z</time>
        <course>82.7617439669927</course>
        <speed>8.29580717344866</speed>
      </trkpt>
      <trkpt lat="43.47598" lon="2.37302">
        <ele>335</ele>
        <time>2012-01-06T05:46:45Z</time>
        <course>55.9618173114032</course>
        <speed>8.3190599529877</speed>
      </trkpt>
      <trkpt lat="43.47624" lon="2.37258">
        <ele>333</ele>
        <time>2012-01-06T05:46:50Z</time>
        <course>73.1724386603408</course>
        <speed>8.31426296380157</speed>
      </trkpt>
      <trkpt lat="43.47642" lon="2.3719">
        <ele>332</ele>
        <time>2012-01-06T05:46:57Z</time>
        <course>47.1161744113698</course>
        <speed>8.31252567831311</speed>
      </trkpt>
      <trkpt lat="43.47655" lon="2.37174">
        <ele>330</ele>
        <time>2012-01-06T05:46:59Z</time>
        <course>9.9247104373097</course>
        <speed>8.31734546981924</speed>
      </trkpt>
      <trkpt lat="43.47665" lon="2.37172">
        <ele>329</ele>
        <time>2012-01-06T05:47:01Z</time>
        <course>339.440695023241</course>
        <speed>8.32272942227313</speed>
      </trkpt>
      <trkpt lat="43.47721" lon="2.37196">
        <ele>324</ele>
        <time>2012-01-06T05:47:09Z</time>
        <course>7.81865744662906</course>
        <speed>8.31445320651923</speed>
      </trkpt>
      <trkpt lat="43.47772" lon="2.37188">
        <ele>320</ele>
        <time>2012-01-06T05:47:15Z</time>
        <course>347.22815573694</course>
        <speed>7.18798661960779</speed>
      </trkpt>
      <trkpt lat="43.47857" lon="2.3721">
        <ele>320</ele>
        <time>2012-01-06T05:47:29Z</time>
        <course>23.6516663096657</course>
        <speed>7.18083519789947</speed>
      </trkpt>
      <trkpt lat="43.47883" lon="2.37197">
        <ele>321</ele>
        <time>2012-01-06T05:47:33Z</time>
        <course>342.331510481703</course>
        <speed>8.31681459640095</speed>
      </trkpt>
      <trkpt lat="43.47894" lon="2.37201">
        <ele>319</ele>
        <time>2012-01-06T05:47:35Z</time>
        <course>316.06072586609</course>
        <speed>8.31446993130338</speed>
      </trkpt>
      <trkpt lat="43.47904" lon="2.37212">
        <ele>318</ele>
        <time>2012-01-06T05:47:36Z</time>
        <course>297.109670135846</course>
        <speed>8.31791316826592</speed>
      </trkpt>
      <trkpt lat="43.47939" lon="2.3729">
        <ele>313</ele>
        <time>2012-01-06T05:47:45Z</time>
        <course>305.49657658618</course>
        <speed>8.31927524667032</speed>
      </trkpt>
      <trkpt lat="43.47954" lon="2.37314">
        <ele>311</ele>
        <time>2012-01-06T05:47:48Z</time>
        <course>333.399044083134</course>
        <speed>4.00978451849253</speed>
      </trkpt>
      <trkpt lat="43.47975" lon="2.37326">
        <ele>312</ele>
        <time>2012-01-06T05:47:55Z</time>
        <course>355.956019554649</course>
        <speed>4.01234044497298</speed>
      </trkpt>
      <trkpt lat="43.48037" lon="2.37331">
        <ele>316</ele>
        <time>2012-01-06T05:48:12Z</time>
        <course>340.674566053093</course>
        <speed>4.00828496951182</speed>
      </trkpt>
      <trkpt lat="43.48052" lon="2.37337">
        <ele>317</ele>
        <time>2012-01-06T05:48:16Z</time>
        <course>313.204404648629</course>
        <speed>8.32688406846873</speed>
      </trkpt>
      <trkpt lat="43.48066" lon="2.37354">
        <ele>314</ele>
        <time>2012-01-06T05:48:19Z</time>
        <course>292.788645206498</course>
        <speed>8.30008819050286</speed>
      </trkpt>
      <trkpt lat="43.48073" lon="2.37373">
        <ele>312</ele>
        <time>2012-01-06T05:48:21Z</time>
        <course>276.190179058802</course>
        <speed>8.31690333666833</speed>
      </trkpt>
      <trkpt lat="43.48079" lon="2.37436">
        <ele>307</ele>
        <time>2012-01-06T05:48:27Z</time>
        <course>255.772379556408</course>
        <speed>8.32162817329701</speed>
      </trkpt>
      <trkpt lat="43.48069" lon="2.37481">
        <ele>303</ele>
        <time>2012-01-06T05:48:31Z</time>
        <course>246.3089768154</course>
        <speed>8.31539851326928</speed>
      </trkpt>
      <trkpt lat="43.48054" lon="2.3752">
        <ele>300</ele>
        <time>2012-01-06T05:48:36Z</time>
        <course>263.797474188088</course>
        <speed>8.33045793210281</speed>
      </trkpt>
      <trkpt lat="43.48052" lon="2.37541">
        <ele>299</ele>
        <time>2012-01-06T05:48:38Z</time>
        <course>282.069301980527</course>
        <speed>8.32780078990254</speed>
      </trkpt>
      <trkpt lat="43.48055" lon="2.37557">
        <ele>298</ele>
        <time>2012-01-06T05:48:39Z</time>
        <course>311.091958493271</course>
        <speed>8.33211361875545</speed>
      </trkpt>
      <trkpt lat="43.48068" lon="2.37574">
        <ele>297</ele>
        <time>2012-01-06T05:48:42Z</time>
        <course>344.999007516339</course>
        <speed>8.31128032628327</speed>
      </trkpt>
      <trkpt lat="43.48104" lon="2.37585">
        <ele>294</ele>
        <time>2012-01-06T05:48:47Z</time>
        <course>356.955929005131</course>
        <speed>8.31685186636506</speed>
      </trkpt>
      <trkpt lat="43.48203" lon="2.37591">
        <ele>288</ele>
        <time>2012-01-06T05:49:00Z</time>
        <course>2.59944196374726</course>
        <speed>8.32193206857905</speed>
      </trkpt>
      <trkpt lat="43.48261" lon="2.37588">
        <ele>287</ele>
        <time>2012-01-06T05:49:08Z</time>
        <course>31.5687545674372</course>
        <speed>8.30875942392352</speed>
      </trkpt>
      <trkpt lat="43.48271" lon="2.37581">
        <ele>287</ele>
        <time>2012-01-06T05:49:09Z</time>
        <course>54.5511872171406</course>
        <speed>8.30548793195304</speed>
      </trkpt>
      <trkpt lat="43.48281" lon="2.37565">
        <ele>287</ele>
        <time>2012-01-06T05:49:11Z</time>
        <course>65.2642461195891</course>
        <speed>8.31946752209909</speed>
      </trkpt>
      <trkpt lat="43.48347" lon="2.37402">
        <ele>286</ele>
        <time>2012-01-06T05:49:29Z</time>
        <course>50.0040016321007</course>
        <speed>8.33321976133725</speed>
      </trkpt>
      <trkpt lat="43.48361" lon="2.37383">
        <ele>285</ele>
        <time>2012-01-06T05:49:32Z</time>
        <course>19.0006377731302</course>
        <speed>8.31874588283641</speed>
      </trkpt>
      <trkpt lat="43.48642" lon="2.37273">
        <ele>271</ele>
        <time>2012-01-06T05:50:11Z</time>
        <course>284.069354972673</course>
        <speed>8.31647829283336</speed>
      </trkpt>
      <trkpt lat="43.48657" lon="2.37341">
        <ele>269</ele>
        <time>2012-01-06T05:50:18Z</time>
        <course>299.611943860667</course>
        <speed>8.31327208468552</speed>
      </trkpt>
      <trkpt lat="43.48666" lon="2.37359">
        <ele>268</ele>
        <time>2012-01-06T05:50:20Z</time>
        <course>318.658540261736</course>
        <speed>8.30837403363193</speed>
      </trkpt>
      <trkpt lat="43.48687" lon="2.3738">
        <ele>267</ele>
        <time>2012-01-06T05:50:23Z</time>
        <course>330.763452580772</course>
        <speed>8.31828411618684</speed>
      </trkpt>
      <trkpt lat="43.48931" lon="2.37535">
        <ele>259</ele>
        <time>2012-01-06T05:50:59Z</time>
        <course>355.800892581599</course>
        <speed>8.32320740052957</speed>
      </trkpt>
      <trkpt lat="43.48955" lon="2.37537">
        <ele>258</ele>
        <time>2012-01-06T05:51:03Z</time>
        <course>13.5142116951424</course>
        <speed>8.32064800268196</speed>
      </trkpt>
      <trkpt lat="43.48999" lon="2.37525">
        <ele>256</ele>
        <time>2012-01-06T05:51:09Z</time>
        <course>359.113982295151</course>
        <speed>8.32372275904695</speed>
      </trkpt>
      <trkpt lat="43.49056" lon="2.37526">
        <ele>255</ele>
        <time>2012-01-06T05:51:16Z</time>
        <course>20.5849669751871</course>
        <speed>5.6326644103285</speed>
      </trkpt>
      <trkpt lat="43.4911" lon="2.37503">
        <ele>256</ele>
        <time>2012-01-06T05:51:27Z</time>
        <course>269.995270558733</course>
        <speed>5.63182000542165</speed>
      </trkpt>
      <trkpt lat="43.4911" lon="2.37538">
        <ele>257</ele>
        <time>2012-01-06T05:51:32Z</time>
        <course>263.02791631646</course>
        <speed>5.6355605868188</speed>
      </trkpt>
      <trkpt lat="43.49103" lon="2.37603">
        <ele>258</ele>
        <time>2012-01-06T05:51:42Z</time>
        <course>268.871372117398</course>
        <speed>5.63415886815748</speed>
      </trkpt>
      <trkpt lat="43.49099" lon="2.3784">
        <ele>263</ele>
        <time>2012-01-06T05:52:16Z</time>
        <course>17.3616322190468</course>
        <speed>8.31563023335531</speed>
      </trkpt>
      <trkpt lat="43.49178" lon="2.37812">
        <ele>260</ele>
        <time>2012-01-06T05:52:27Z</time>
        <course>338.388183074549</course>
        <speed>8.31903285625694</speed>
      </trkpt>
      <trkpt lat="43.49459" lon="2.37938">
        <ele>250</ele>
        <time>2012-01-06T05:53:06Z</time>
        <course>310.329938757339</course>
        <speed>8.28191323354466</speed>
      </trkpt>
      <trkpt lat="43.49462" lon="2.37942">
        <ele>249</ele>
        <time>2012-01-06T05:53:07Z</time>
        <course>23.8323546284564</course>
        <speed>8.34380929146017</speed>
      </trkpt>
      <trkpt lat="43.49468" lon="2.37939">
        <ele>249</ele>
        <time>2012-01-06T05:53:07Z</time>
        <course>314.447501414103</course>
        <speed>8.33553586270304</speed>
      </trkpt>
      <trkpt lat="43.49481" lon="2.37954">
        <ele>249</ele>
        <time>2012-01-06T05:53:10Z</time>
        <course>308.598952908797</course>
        <speed>8.31726076157571</speed>
      </trkpt>
      <trkpt lat="43.49618" lon="2.38148">
        <ele>244</ele>
        <time>2012-01-06T05:53:36Z</time>
        <course>305.25185574126</course>
        <speed>8.31794793752071</speed>
      </trkpt>
      <trkpt lat="43.49633" lon="2.38172">
        <ele>243</ele>
        <time>2012-01-06T05:53:39Z</time>
        <course>256.375405870957</course>
        <speed>8.34557614830019</speed>
      </trkpt>
      <trkpt lat="43.4963" lon="2.38186">
        <ele>243</ele>
        <time>2012-01-06T05:53:40Z</time>
        <course>288.396346514504</course>
        <speed>8.30726918034855</speed>
      </trkpt>
      <trkpt lat="43.49635" lon="2.38203">
        <ele>243</ele>
        <time>2012-01-06T05:53:42Z</time>
        <course>354.946593933697</course>
        <speed>8.31432762332504</speed>
      </trkpt>
      <trkpt lat="43.49645" lon="2.38204">
        <ele>243</ele>
        <time>2012-01-06T05:53:43Z</time>
        <course>30.521589235617</course>
        <speed>8.29022529933761</speed>
      </trkpt>
      <trkpt lat="43.49654" lon="2.38198">
        <ele>242</ele>
        <time>2012-01-06T05:53:45Z</time>
        <course>308.8303061401</course>
        <speed>8.31997262288066</speed>
      </trkpt>
      <trkpt lat="43.49773" lon="2.38365">
        <ele>240</ele>
        <time>2012-01-06T05:54:08Z</time>
        <course>308.143243516773</course>
        <speed>8.316699230041</speed>
      </trkpt>
      <trkpt lat="43.49885" lon="2.38526">
        <ele>235</ele>
        <time>2012-01-06T05:54:29Z</time>
        <course>299.446258249707</course>
        <speed>8.31702305518082</speed>
      </trkpt>
      <trkpt lat="43.49909" lon="2.38574">
        <ele>231</ele>
        <time>2012-01-06T05:54:35Z</time>
        <course>252.692459179404</course>
        <speed>8.30853681273038</speed>
      </trkpt>
      <trkpt lat="43.49901" lon="2.38603">
        <ele>229</ele>
        <time>2012-01-06T05:54:38Z</time>
        <course>286.243934440128</course>
        <speed>8.31401273217724</speed>
      </trkpt>
      <trkpt lat="43.49909" lon="2.38634">
        <ele>227</ele>
        <time>2012-01-06T05:54:41Z</time>
        <course>258.885422589909</course>
        <speed>8.32510709833236</speed>
      </trkpt>
      <trkpt lat="43.49905" lon="2.38657">
        <ele>226</ele>
        <time>2012-01-06T05:54:43Z</time>
        <course>241.382342264858</course>
        <speed>8.31969700727388</speed>
      </trkpt>
      <trkpt lat="43.49849" lon="2.38773">
        <ele>224</ele>
        <time>2012-01-06T05:54:57Z</time>
        <course>249.361201766051</course>
        <speed>7.15742808289047</speed>
      </trkpt>
      <trkpt lat="43.49838" lon="2.38806">
        <ele>224</ele>
        <time>2012-01-06T05:55:01Z</time>
        <course>258.124398526526</course>
        <speed>7.15646648746915</speed>
      </trkpt>
      <trkpt lat="43.4983" lon="2.38849">
        <ele>224</ele>
        <time>2012-01-06T05:55:06Z</time>
        <course>263.037342783833</course>
        <speed>7.15993042319071</speed>
      </trkpt>
      <trkpt lat="43.49806" lon="2.39072">
        <ele>226</ele>
        <time>2012-01-06T05:55:31Z</time>
        <course>264.196142907107</course>
        <speed>7.84172554657175</speed>
      </trkpt>
      <trkpt lat="43.4977" lon="2.39476">
        <ele>227</ele>
        <time>2012-01-06T05:56:13Z</time>
        <course>262.777013152265</course>
        <speed>7.92004452832669</speed>
      </trkpt>
      <trkpt lat="43.49716" lon="2.39962">
        <ele>228</ele>
        <time>2012-01-06T05:57:03Z</time>
        <course>254.619950314651</course>
        <speed>7.10086448818554</speed>
      </trkpt>
      <trkpt lat="43.49707" lon="2.39999">
        <ele>228</ele>
        <time>2012-01-06T05:57:08Z</time>
        <course>223.974241346604</course>
        <speed>7.10139339972724</speed>
      </trkpt>
      <trkpt lat="43.49685" lon="2.40023">
        <ele>228</ele>
        <time>2012-01-06T05:57:12Z</time>
        <course>254.814781985797</course>
        <speed>7.09907563428946</speed>
      </trkpt>
      <trkpt lat="43.49679" lon="2.40048">
        <ele>228</ele>
        <time>2012-01-06T05:57:15Z</time>
        <course>277.574631742602</course>
        <speed>7.11917045256063</speed>
      </trkpt>
      <trkpt lat="43.49681" lon="2.40065">
        <ele>228</ele>
        <time>2012-01-06T05:57:17Z</time>
        <course>299.477220252307</course>
        <speed>7.12004446586467</speed>
      </trkpt>
      <trkpt lat="43.49691" lon="2.40085">
        <ele>229</ele>
        <time>2012-01-06T05:57:20Z</time>
        <course>282.147204201044</course>
        <speed>8.31422139684484</speed>
      </trkpt>
      <trkpt lat="43.49699" lon="2.40127">
        <ele>228</ele>
        <time>2012-01-06T05:57:24Z</time>
        <course>264.818566489396</course>
        <speed>8.31757672990744</speed>
      </trkpt>
      <trkpt lat="43.49691" lon="2.40227">
        <ele>228</ele>
        <time>2012-01-06T05:57:34Z</time>
        <course>271.655292389364</course>
        <speed>7.1330255772042</speed>
      </trkpt>
      <trkpt lat="43.49692" lon="2.40266">
        <ele>228</ele>
        <time>2012-01-06T05:57:38Z</time>
        <course>263.250699279606</course>
        <speed>7.13700733590858</speed>
      </trkpt>
      <trkpt lat="43.4956" lon="2.41561">
        <ele>237</ele>
        <time>2012-01-06T06:00:06Z</time>
        <course>262.330391908643</course>
        <speed>8.31657148596458</speed>
      </trkpt>
      <trkpt lat="43.49548" lon="2.41662">
        <ele>237</ele>
        <time>2012-01-06T06:00:16Z</time>
        <course>240.500871458263</course>
        <speed>8.33209788676307</speed>
      </trkpt>
      <trkpt lat="43.49544" lon="2.4167">
        <ele>237</ele>
        <time>2012-01-06T06:00:17Z</time>
        <course>262.923349269383</course>
        <speed>8.31736520825048</speed>
      </trkpt>
      <trkpt lat="43.49509" lon="2.41991">
        <ele>237</ele>
        <time>2012-01-06T06:00:48Z</time>
        <course>263.5756449448</course>
        <speed>6.96178661057356</speed>
      </trkpt>
      <trkpt lat="43.49387" lon="2.43251">
        <ele>247</ele>
        <time>2012-01-06T06:03:15Z</time>
        <course>267.505711184091</course>
        <speed>6.8817137720253</speed>
      </trkpt>
      <trkpt lat="43.49378" lon="2.43488">
        <ele>249</ele>
        <time>2012-01-06T06:03:43Z</time>
        <course>270.780208729175</course>
        <speed>7.41987592499132</speed>
      </trkpt>
      <trkpt lat="43.49379" lon="2.4357">
        <ele>249</ele>
        <time>2012-01-06T06:03:52Z</time>
        <course>279.703760661811</course>
        <speed>7.41794492515908</speed>
      </trkpt>
      <trkpt lat="43.49397" lon="2.43689">
        <ele>250</ele>
        <time>2012-01-06T06:04:05Z</time>
        <course>287.65912153365</course>
        <speed>8.32005072316949</speed>
      </trkpt>
      <trkpt lat="43.49435" lon="2.43824">
        <ele>248</ele>
        <time>2012-01-06T06:04:19Z</time>
        <course>271.551488396374</course>
        <speed>8.31604183491345</speed>
      </trkpt>
      <trkpt lat="43.49437" lon="2.43907">
        <ele>247</ele>
        <time>2012-01-06T06:04:27Z</time>
        <course>253.059839232062</course>
        <speed>8.31945943073445</speed>
      </trkpt>
      <trkpt lat="43.49412" lon="2.44">
        <ele>246</ele>
        <time>2012-01-06T06:04:37Z</time>
        <course>244.877505877777</course>
        <speed>8.31932054117442</speed>
      </trkpt>
      <trkpt lat="43.49364" lon="2.44116">
        <ele>245</ele>
        <time>2012-01-06T06:04:50Z</time>
        <course>251.298218112668</course>
        <speed>8.3181091623467</speed>
      </trkpt>
      <trkpt lat="43.49341" lon="2.44193">
        <ele>244</ele>
        <time>2012-01-06T06:04:58Z</time>
        <course>258.35840191951</course>
        <speed>8.31056674749231</speed>
      </trkpt>
      <trkpt lat="43.49335" lon="2.44226">
        <ele>244</ele>
        <time>2012-01-06T06:05:01Z</time>
        <course>261.64313050988</course>
        <speed>8.3197781016743</speed>
      </trkpt>
      <trkpt lat="43.49304" lon="2.44466">
        <ele>244</ele>
        <time>2012-01-06T06:05:25Z</time>
        <course>275.623153667878</course>
        <speed>6.06288315827335</speed>
      </trkpt>
      <trkpt lat="43.49306" lon="2.44489">
        <ele>244</ele>
        <time>2012-01-06T06:05:28Z</time>
        <course>265.966826535363</course>
        <speed>6.06781959399401</speed>
      </trkpt>
      <trkpt lat="43.49291" lon="2.44732">
        <ele>248</ele>
        <time>2012-01-06T06:06:00Z</time>
        <course>265.137926010727</course>
        <speed>6.48316195938902</speed>
      </trkpt>
      <trkpt lat="43.49278" lon="2.44906">
        <ele>250</ele>
        <time>2012-01-06T06:06:22Z</time>
        <course>258.685518287058</course>
        <speed>7.37136991673578</speed>
      </trkpt>
      <trkpt lat="43.49269" lon="2.44957">
        <ele>250</ele>
        <time>2012-01-06T06:06:28Z</time>
        <course>254.388752362694</course>
        <speed>7.3788181094969</speed>
      </trkpt>
      <trkpt lat="43.49236" lon="2.45091">
        <ele>251</ele>
        <time>2012-01-06T06:06:43Z</time>
        <course>247.60317922092</course>
        <speed>7.40214376501288</speed>
      </trkpt>
      <trkpt lat="43.49171" lon="2.4527">
        <ele>252</ele>
        <time>2012-01-06T06:07:05Z</time>
        <course>243.384746502917</course>
        <speed>8.31716896248166</speed>
      </trkpt>
      <trkpt lat="43.49152" lon="2.45313">
        <ele>251</ele>
        <time>2012-01-06T06:07:10Z</time>
        <course>237.477965384876</course>
        <speed>8.31890578568879</speed>
      </trkpt>
      <trkpt lat="43.49001" lon="2.45582">
        <ele>248</ele>
        <time>2012-01-06T06:07:43Z</time>
        <course>239.773617899758</course>
        <speed>4.88382302782303</speed>
      </trkpt>
      <trkpt lat="43.48942" lon="2.45697">
        <ele>252</ele>
        <time>2012-01-06T06:08:06Z</time>
        <course>251.453412840699</course>
        <speed>7.14561136239842</speed>
      </trkpt>
      <trkpt lat="43.48929" lon="2.45741">
        <ele>252</ele>
        <time>2012-01-06T06:08:11Z</time>
        <course>263.936029859284</course>
        <speed>7.13965885246795</speed>
      </trkpt>
      <trkpt lat="43.48892" lon="2.4614">
        <ele>255</ele>
        <time>2012-01-06T06:08:57Z</time>
        <course>253.20762171227</course>
        <speed>8.31244006757283</speed>
      </trkpt>
      <trkpt lat="43.48875" lon="2.46204">
        <ele>255</ele>
        <time>2012-01-06T06:09:03Z</time>
        <course>238.050908309101</course>
        <speed>8.31630773994426</speed>
      </trkpt>
      <trkpt lat="43.48847" lon="2.46255">
        <ele>255</ele>
        <time>2012-01-06T06:09:10Z</time>
        <course>228.431599660962</course>
        <speed>4.84248136538941</speed>
      </trkpt>
      <trkpt lat="43.48737" lon="2.46396">
        <ele>261</ele>
        <time>2012-01-06T06:09:44Z</time>
        <course>230.351184312751</course>
        <speed>6.05207664190172</speed>
      </trkpt>
      <trkpt lat="43.48635" lon="2.46536">
        <ele>264</ele>
        <time>2012-01-06T06:10:11Z</time>
        <course>234.774670064493</course>
        <speed>7.24468429359939</speed>
      </trkpt>
      <trkpt lat="43.48399" lon="2.46917">
        <ele>267</ele>
        <time>2012-01-06T06:11:06Z</time>
        <course>238.153308826081</course>
        <speed>8.3111150007218</speed>
      </trkpt>
      <trkpt lat="43.48375" lon="2.46961">
        <ele>267</ele>
        <time>2012-01-06T06:11:12Z</time>
        <course>246.111189101623</course>
        <speed>8.31599312140212</speed>
      </trkpt>
      <trkpt lat="43.48361" lon="2.46997">
        <ele>267</ele>
        <time>2012-01-06T06:11:16Z</time>
        <course>253.251745105458</course>
        <speed>8.31357655210133</speed>
      </trkpt>
      <trkpt lat="43.48347" lon="2.4705">
        <ele>267</ele>
        <time>2012-01-06T06:11:21Z</time>
        <course>262.267913592194</course>
        <speed>7.67686290298789</speed>
      </trkpt>
      <trkpt lat="43.48337" lon="2.47134">
        <ele>267</ele>
        <time>2012-01-06T06:11:30Z</time>
        <course>265.434472943331</course>
        <speed>7.67907796781652</speed>
      </trkpt>
      <trkpt lat="43.48282" lon="2.47938">
        <ele>270</ele>
        <time>2012-01-06T06:12:55Z</time>
        <course>258.143190264352</course>
        <speed>8.31844006833547</speed>
      </trkpt>
      <trkpt lat="43.48275" lon="2.47976">
        <ele>269</ele>
        <time>2012-01-06T06:12:59Z</time>
        <course>250.133313273682</course>
        <speed>8.31231354878763</speed>
      </trkpt>
      <trkpt lat="43.48262" lon="2.48017">
        <ele>269</ele>
        <time>2012-01-06T06:13:03Z</time>
        <course>244.447877945693</course>
        <speed>8.3194749734224</speed>
      </trkpt>
      <trkpt lat="43.48223" lon="2.4811">
        <ele>269</ele>
        <time>2012-01-06T06:13:13Z</time>
        <course>240.313556373781</course>
        <speed>5.02468325219333</speed>
      </trkpt>
      <trkpt lat="43.48184" lon="2.48188">
        <ele>271</ele>
        <time>2012-01-06T06:13:29Z</time>
        <course>232.095565404157</course>
        <speed>5.02175085347461</speed>
      </trkpt>
      <trkpt lat="43.48156" lon="2.48229">
        <ele>273</ele>
        <time>2012-01-06T06:13:38Z</time>
        <course>196.298900110498</course>
        <speed>7.14525036655687</speed>
      </trkpt>
      <trkpt lat="43.4815" lon="2.48231">
        <ele>273</ele>
        <time>2012-01-06T06:13:39Z</time>
        <course>228.736561790607</course>
        <speed>7.13811946888287</speed>
      </trkpt>
      <trkpt lat="43.4809" lon="2.48309">
        <ele>273</ele>
        <time>2012-01-06T06:13:51Z</time>
        <course>241.38840150891</course>
        <speed>7.14168708662538</speed>
      </trkpt>
      <trkpt lat="43.48079" lon="2.48332">
        <ele>274</ele>
        <time>2012-01-06T06:13:55Z</time>
        <course>230.836507681681</course>
        <speed>8.31946676778542</speed>
      </trkpt>
      <trkpt lat="43.47962" lon="2.48496">
        <ele>273</ele>
        <time>2012-01-06T06:14:17Z</time>
        <course>228.294134033507</course>
        <speed>8.31747256740066</speed>
      </trkpt>
      <trkpt lat="43.47852" lon="2.48637">
        <ele>271</ele>
        <time>2012-01-06T06:14:37Z</time>
        <course>237.740218204766</course>
        <speed>6.57242656064696</speed>
      </trkpt>
      <trkpt lat="43.47831" lon="2.48675">
        <ele>271</ele>
        <time>2012-01-06T06:14:43Z</time>
        <course>242.825714443567</course>
        <speed>6.57455634593731</speed>
      </trkpt>
      <trkpt lat="43.47778" lon="2.48793">
        <ele>273</ele>
        <time>2012-01-06T06:15:00Z</time>
        <course>262.112090120153</course>
        <speed>5.24857245621875</speed>
      </trkpt>
      <trkpt lat="43.47774" lon="2.48826">
        <ele>273</ele>
        <time>2012-01-06T06:15:05Z</time>
        <course>277.748314808791</course>
        <speed>5.2468372342544</speed>
      </trkpt>
      <trkpt lat="43.4779" lon="2.4896">
        <ele>277</ele>
        <time>2012-01-06T06:15:26Z</time>
        <course>268.177674983519</course>
        <speed>6.99980201288715</speed>
      </trkpt>
      <trkpt lat="43.47789" lon="2.48996">
        <ele>277</ele>
        <time>2012-01-06T06:15:30Z</time>
        <course>259.770839037472</course>
        <speed>6.99945961057762</speed>
      </trkpt>
      <trkpt lat="43.47783" lon="2.49034">
        <ele>277</ele>
        <time>2012-01-06T06:15:34Z</time>
        <course>250.965476790663</course>
        <speed>7.00248880966133</speed>
      </trkpt>
      <trkpt lat="43.47767" lon="2.49087">
        <ele>278</ele>
        <time>2012-01-06T06:15:41Z</time>
        <course>238.528568186184</course>
        <speed>6.23633467268276</speed>
      </trkpt>
      <trkpt lat="43.47752" lon="2.49115">
        <ele>278</ele>
        <time>2012-01-06T06:15:45Z</time>
        <course>233.027987925086</course>
        <speed>6.23019457965569</speed>
      </trkpt>
      <trkpt lat="43.47625" lon="2.49308">
        <ele>282</ele>
        <time>2012-01-06T06:16:19Z</time>
        <course>243.420900642912</course>
        <speed>6.60748796329707</speed>
      </trkpt>
      <trkpt lat="43.47611" lon="2.4934">
        <ele>282</ele>
        <time>2012-01-06T06:16:24Z</time>
        <course>252.29647992298</course>
        <speed>6.61013110884046</speed>
      </trkpt>
      <trkpt lat="43.47599" lon="2.49383">
        <ele>282</ele>
        <time>2012-01-06T06:16:29Z</time>
        <course>256.774084612982</course>
        <speed>6.60757307250546</speed>
      </trkpt>
      <trkpt lat="43.4754" lon="2.49671">
        <ele>286</ele>
        <time>2012-01-06T06:17:06Z</time>
        <course>266.81461983456</course>
        <speed>8.31879831942967</speed>
      </trkpt>
      <trkpt lat="43.47497" lon="2.50592">
        <ele>285</ele>
        <time>2012-01-06T06:18:35Z</time>
        <course>260.520677216787</course>
        <speed>6.90203364430707</speed>
      </trkpt>
      <trkpt lat="43.4749" lon="2.5064">
        <ele>285</ele>
        <time>2012-01-06T06:18:41Z</time>
        <course>248.73556230416</course>
        <speed>6.90303404312833</speed>
      </trkpt>
      <trkpt lat="43.47473" lon="2.5069">
        <ele>285</ele>
        <time>2012-01-06T06:18:48Z</time>
        <course>241.731294760584</course>
        <speed>6.89838890463426</speed>
      </trkpt>
      <trkpt lat="43.4723" lon="2.51209">
        <ele>291</ele>
        <time>2012-01-06T06:20:00Z</time>
        <course>246.004569877305</course>
        <speed>8.31411106515686</speed>
      </trkpt>
      <trkpt lat="43.47197" lon="2.51294">
        <ele>289</ele>
        <time>2012-01-06T06:20:09Z</time>
        <course>249.081441931404</course>
        <speed>8.31946607013</speed>
      </trkpt>
      <trkpt lat="43.47173" lon="2.51366">
        <ele>288</ele>
        <time>2012-01-06T06:20:17Z</time>
        <course>251.421417697045</course>
        <speed>7.28322663471951</speed>
      </trkpt>
      <trkpt lat="43.46891" lon="2.52336">
        <ele>294</ele>
        <time>2012-01-06T06:22:12Z</time>
        <course>256.66368110729</course>
        <speed>5.98190106646438</speed>
      </trkpt>
      <trkpt lat="43.46878" lon="2.52399">
        <ele>295</ele>
        <time>2012-01-06T06:22:21Z</time>
        <course>264.615373765795</course>
        <speed>5.98626242802189</speed>
      </trkpt>
      <trkpt lat="43.46873" lon="2.5246">
        <ele>296</ele>
        <time>2012-01-06T06:22:30Z</time>
        <course>271.924442326571</course>
        <speed>7.751953649024</speed>
      </trkpt>
      <trkpt lat="43.46875" lon="2.52528">
        <ele>296</ele>
        <time>2012-01-06T06:22:37Z</time>
        <course>279.309308500322</course>
        <speed>7.7540358551166</speed>
      </trkpt>
      <trkpt lat="43.4688" lon="2.52563">
        <ele>296</ele>
        <time>2012-01-06T06:22:40Z</time>
        <course>284.064258109234</course>
        <speed>7.75152251053882</speed>
      </trkpt>
      <trkpt lat="43.46929" lon="2.52787">
        <ele>297</ele>
        <time>2012-01-06T06:23:05Z</time>
        <course>285.849491560793</course>
        <speed>5.73891830220683</speed>
      </trkpt>
      <trkpt lat="43.46955" lon="2.52892">
        <ele>299</ele>
        <time>2012-01-06T06:23:20Z</time>
        <course>295.312682147402</course>
        <speed>5.74011226891142</speed>
      </trkpt>
      <trkpt lat="43.47014" lon="2.53035">
        <ele>302</ele>
        <time>2012-01-06T06:23:43Z</time>
        <course>283.989715648261</course>
        <speed>8.31889724868468</speed>
      </trkpt>
      <trkpt lat="43.47034" lon="2.53127">
        <ele>302</ele>
        <time>2012-01-06T06:23:53Z</time>
        <course>277.845860322686</course>
        <speed>8.32086717464121</speed>
      </trkpt>
      <trkpt lat="43.47047" lon="2.53235">
        <ele>302</ele>
        <time>2012-01-06T06:24:03Z</time>
        <course>264.852318358217</course>
        <speed>6.7264118363723</speed>
      </trkpt>
      <trkpt lat="43.47043" lon="2.53286">
        <ele>302</ele>
        <time>2012-01-06T06:24:09Z</time>
        <course>255.474712053628</course>
        <speed>6.71320905429102</speed>
      </trkpt>
      <trkpt lat="43.47036" lon="2.53317">
        <ele>302</ele>
        <time>2012-01-06T06:24:13Z</time>
        <course>247.020293048679</course>
        <speed>6.72297182474133</speed>
      </trkpt>
      <trkpt lat="43.46995" lon="2.53428">
        <ele>304</ele>
        <time>2012-01-06T06:24:28Z</time>
        <course>253.131673299736</course>
        <speed>8.3152361930477</speed>
      </trkpt>
      <trkpt lat="43.46981" lon="2.53481">
        <ele>302</ele>
        <time>2012-01-06T06:24:34Z</time>
        <course>265.672333424176</course>
        <speed>8.31631074335844</speed>
      </trkpt>
      <trkpt lat="43.46976" lon="2.53557">
        <ele>301</ele>
        <time>2012-01-06T06:24:41Z</time>
        <course>272.488147023477</course>
        <speed>7.61839233949203</speed>
      </trkpt>
      <trkpt lat="43.4698" lon="2.53662">
        <ele>301</ele>
        <time>2012-01-06T06:24:52Z</time>
        <course>284.301876654025</course>
        <speed>7.62872247027711</speed>
      </trkpt>
      <trkpt lat="43.46984" lon="2.5368">
        <ele>301</ele>
        <time>2012-01-06T06:24:54Z</time>
        <course>272.493365867201</course>
        <speed>7.61564627043925</speed>
      </trkpt>
      <trkpt lat="43.47" lon="2.54092">
        <ele>303</ele>
        <time>2012-01-06T06:25:38Z</time>
        <course>273.990320307639</course>
        <speed>5.10533755903278</speed>
      </trkpt>
      <trkpt lat="43.47012" lon="2.54288">
        <ele>308</ele>
        <time>2012-01-06T06:26:09Z</time>
        <course>272.554895376449</course>
        <speed>5.66857166538433</speed>
      </trkpt>
      <trkpt lat="43.47031" lon="2.54764">
        <ele>317</ele>
        <time>2012-01-06T06:27:17Z</time>
        <course>266.81437150016</course>
        <speed>4.68316079495164</speed>
      </trkpt>
      <trkpt lat="43.47028" lon="2.54826">
        <ele>318</ele>
        <time>2012-01-06T06:27:28Z</time>
        <course>260.497208835407</course>
        <speed>4.68304633417876</speed>
      </trkpt>
      <trkpt lat="43.47005" lon="2.54984">
        <ele>324</ele>
        <time>2012-01-06T06:27:55Z</time>
        <course>268.728805557746</course>
        <speed>3.15408879863028</speed>
      </trkpt>
      <trkpt lat="43.47004" lon="2.55036">
        <ele>327</ele>
        <time>2012-01-06T06:28:09Z</time>
        <course>277.323857557646</course>
        <speed>3.15340302824282</speed>
      </trkpt>
      <trkpt lat="43.47015" lon="2.55134">
        <ele>334</ele>
        <time>2012-01-06T06:28:34Z</time>
        <course>284.628150812577</course>
        <speed>4.82191512426804</speed>
      </trkpt>
      <trkpt lat="43.47067" lon="2.55362">
        <ele>341</ele>
        <time>2012-01-06T06:29:14Z</time>
        <course>275.944335827391</course>
        <speed>8.32404597300678</speed>
      </trkpt>
      <trkpt lat="43.47072" lon="2.55417">
        <ele>336</ele>
        <time>2012-01-06T06:29:19Z</time>
        <course>258.306793098206</course>
        <speed>8.32314278329902</speed>
      </trkpt>
      <trkpt lat="43.47061" lon="2.55478">
        <ele>332</ele>
        <time>2012-01-06T06:29:25Z</time>
        <course>253.078299265379</course>
        <speed>8.31485160146886</speed>
      </trkpt>
      <trkpt lat="43.47039" lon="2.55561">
        <ele>326</ele>
        <time>2012-01-06T06:29:34Z</time>
        <course>261.997901052972</course>
        <speed>8.31403795382055</speed>
      </trkpt>
      <trkpt lat="43.47033" lon="2.5561">
        <ele>323</ele>
        <time>2012-01-06T06:29:39Z</time>
        <course>272.486634918922</course>
        <speed>8.31636555028429</speed>
      </trkpt>
      <trkpt lat="43.4704" lon="2.55793">
        <ele>315</ele>
        <time>2012-01-06T06:29:57Z</time>
        <course>270.396558792929</course>
        <speed>8.31895802715133</speed>
      </trkpt>
      <trkpt lat="43.47041" lon="2.5595">
        <ele>313</ele>
        <time>2012-01-06T06:30:12Z</time>
        <course>267.292901115413</course>
        <speed>7.68644683743825</speed>
      </trkpt>
      <trkpt lat="43.47017" lon="2.56551">
        <ele>315</ele>
        <time>2012-01-06T06:31:15Z</time>
        <course>272.170079749956</course>
        <speed>7.3688404664854</speed>
      </trkpt>
      <trkpt lat="43.4703" lon="2.56935">
        <ele>317</ele>
        <time>2012-01-06T06:31:57Z</time>
        <course>256.556095742422</course>
        <speed>7.04058436940423</speed>
      </trkpt>
      <trkpt lat="43.47025" lon="2.56959">
        <ele>317</ele>
        <time>2012-01-06T06:32:00Z</time>
        <course>272.075711199405</course>
        <speed>7.04515861467528</speed>
      </trkpt>
      <trkpt lat="43.47033" lon="2.57208">
        <ele>319</ele>
        <time>2012-01-06T06:32:28Z</time>
        <course>252.126763723293</course>
        <speed>5.36689323480421</speed>
      </trkpt>
      <trkpt lat="43.47008" lon="2.57297">
        <ele>321</ele>
        <time>2012-01-06T06:32:43Z</time>
        <course>238.633265026444</course>
        <speed>5.36596783815868</speed>
      </trkpt>
      <trkpt lat="43.46991" lon="2.57329">
        <ele>322</ele>
        <time>2012-01-06T06:32:49Z</time>
        <course>246.008212314628</course>
        <speed>5.00581776840006</speed>
      </trkpt>
      <trkpt lat="43.46972" lon="2.57378">
        <ele>323</ele>
        <time>2012-01-06T06:32:58Z</time>
        <course>256.273095039001</course>
        <speed>5.00608448529571</speed>
      </trkpt>
      <trkpt lat="43.46962" lon="2.57425">
        <ele>324</ele>
        <time>2012-01-06T06:33:06Z</time>
        <course>265.618906806146</course>
        <speed>5.00586070304232</speed>
      </trkpt>
      <trkpt lat="43.46959" lon="2.5747">
        <ele>326</ele>
        <time>2012-01-06T06:33:13Z</time>
        <course>273.931719378053</course>
        <speed>8.32503084862847</speed>
      </trkpt>
      <trkpt lat="43.46962" lon="2.5752">
        <ele>325</ele>
        <time>2012-01-06T06:33:18Z</time>
        <course>284.003900842438</course>
        <speed>8.31004646421878</speed>
      </trkpt>
      <trkpt lat="43.46967" lon="2.57543">
        <ele>325</ele>
        <time>2012-01-06T06:33:20Z</time>
        <course>288.382133001077</course>
        <speed>8.31750650800235</speed>
      </trkpt>
      <trkpt lat="43.47032" lon="2.57767">
        <ele>325</ele>
        <time>2012-01-06T06:33:43Z</time>
        <course>278.010319617597</course>
        <speed>8.32501497192425</speed>
      </trkpt>
      <trkpt lat="43.47039" lon="2.57824">
        <ele>324</ele>
        <time>2012-01-06T06:33:49Z</time>
        <course>271.93714523958</course>
        <speed>8.3181347598842</speed>
      </trkpt>
      <trkpt lat="43.47042" lon="2.57925">
        <ele>324</ele>
        <time>2012-01-06T06:33:59Z</time>
        <course>262.899627824624</course>
        <speed>6.06972958750531</speed>
      </trkpt>
      <trkpt lat="43.47029" lon="2.58045">
        <ele>325</ele>
        <time>2012-01-06T06:34:15Z</time>
        <course>253.362614817988</course>
        <speed>6.06890974951587</speed>
      </trkpt>
      <trkpt lat="43.46977" lon="2.58245">
        <ele>329</ele>
        <time>2012-01-06T06:34:43Z</time>
        <course>248.271350559024</course>
        <speed>6.55485526943781</speed>
      </trkpt>
      <trkpt lat="43.46862" lon="2.58577">
        <ele>333</ele>
        <time>2012-01-06T06:35:28Z</time>
        <course>239.068075962795</course>
        <speed>4.35956136520073</speed>
      </trkpt>
      <trkpt lat="43.46838" lon="2.58623">
        <ele>335</ele>
        <time>2012-01-06T06:35:39Z</time>
        <course>228.433475565285</course>
        <speed>4.3599771942004</speed>
      </trkpt>
      <trkpt lat="43.46767" lon="2.58715">
        <ele>340</ele>
        <time>2012-01-06T06:36:04Z</time>
        <course>242.003706241044</course>
        <speed>4.9581555460567</speed>
      </trkpt>
      <trkpt lat="43.4673" lon="2.58795">
        <ele>342</ele>
        <time>2012-01-06T06:36:19Z</time>
        <course>255.528670902208</course>
        <speed>4.95976147658068</speed>
      </trkpt>
      <trkpt lat="43.46719" lon="2.58844">
        <ele>344</ele>
        <time>2012-01-06T06:36:28Z</time>
        <course>265.931167314468</course>
        <speed>5.96544689961113</speed>
      </trkpt>
      <trkpt lat="43.46714" lon="2.58925">
        <ele>345</ele>
        <time>2012-01-06T06:36:39Z</time>
        <course>280.589548418547</course>
        <speed>5.96309275400646</speed>
      </trkpt>
      <trkpt lat="43.46721" lon="2.58968">
        <ele>346</ele>
        <time>2012-01-06T06:36:44Z</time>
        <course>294.207084940074</course>
        <speed>8.32930150360841</speed>
      </trkpt>
      <trkpt lat="43.4673" lon="2.58991">
        <ele>345</ele>
        <time>2012-01-06T06:36:47Z</time>
        <course>301.989512691971</course>
        <speed>8.31801844131723</speed>
      </trkpt>
      <trkpt lat="43.46804" lon="2.59127">
        <ele>345</ele>
        <time>2012-01-06T06:37:03Z</time>
        <course>295.979388608377</course>
        <speed>5.76585857517896</speed>
      </trkpt>
      <trkpt lat="43.46886" lon="2.5932">
        <ele>349</ele>
        <time>2012-01-06T06:37:35Z</time>
        <course>287.100374964448</course>
        <speed>3.31414195947106</speed>
      </trkpt>
      <trkpt lat="43.46919" lon="2.59443">
        <ele>357</ele>
        <time>2012-01-06T06:38:07Z</time>
        <course>281.607106808193</course>
        <speed>3.91922343394007</speed>
      </trkpt>
      <trkpt lat="43.46931" lon="2.5951">
        <ele>360</ele>
        <time>2012-01-06T06:38:21Z</time>
        <course>274.797777223935</course>
        <speed>3.91865969088793</speed>
      </trkpt>
      <trkpt lat="43.4696" lon="2.59902">
        <ele>378</ele>
        <time>2012-01-06T06:39:42Z</time>
        <course>249.065476937962</course>
        <speed>3.02535422019487</speed>
      </trkpt>
      <trkpt lat="43.46956" lon="2.59914">
        <ele>378</ele>
        <time>2012-01-06T06:39:45Z</time>
        <course>268.254199430827</course>
        <speed>3.02415713382476</speed>
      </trkpt>
      <trkpt lat="43.46953" lon="2.60028">
        <ele>387</ele>
        <time>2012-01-06T06:40:16Z</time>
        <course>262.349271031447</course>
        <speed>6.70536328557638</speed>
      </trkpt>
      <trkpt lat="43.46944" lon="2.60105">
        <ele>387</ele>
        <time>2012-01-06T06:40:25Z</time>
        <course>255.970602551753</course>
        <speed>6.70395991314299</speed>
      </trkpt>
      <trkpt lat="43.46896" lon="2.60326">
        <ele>390</ele>
        <time>2012-01-06T06:40:53Z</time>
        <course>260.55538597405</course>
        <speed>8.32186903124495</speed>
      </trkpt>
      <trkpt lat="43.46885" lon="2.60402">
        <ele>387</ele>
        <time>2012-01-06T06:41:01Z</time>
        <course>287.019239410076</course>
        <speed>8.3145282471237</speed>
      </trkpt>
      <trkpt lat="43.46889" lon="2.60417">
        <ele>387</ele>
        <time>2012-01-06T06:41:02Z</time>
        <course>270.526559229066</course>
        <speed>8.31943000628588</speed>
      </trkpt>
      <trkpt lat="43.4689" lon="2.60538">
        <ele>384</ele>
        <time>2012-01-06T06:41:14Z</time>
        <course>274.698356727377</course>
        <speed>6.80713347131401</speed>
      </trkpt>
      <trkpt lat="43.46906" lon="2.6076">
        <ele>386</ele>
        <time>2012-01-06T06:41:40Z</time>
        <course>284.608551551746</course>
        <speed>8.31832532466937</speed>
      </trkpt>
      <trkpt lat="43.46926" lon="2.60848">
        <ele>384</ele>
        <time>2012-01-06T06:41:49Z</time>
        <course>295.208250515397</course>
        <speed>8.32460184772966</speed>
      </trkpt>
      <trkpt lat="43.46942" lon="2.60887">
        <ele>384</ele>
        <time>2012-01-06T06:41:54Z</time>
        <course>303.956826688191</course>
        <speed>8.31191766647523</speed>
      </trkpt>
      <trkpt lat="43.46969" lon="2.60933">
        <ele>383</ele>
        <time>2012-01-06T06:41:59Z</time>
        <course>313.609136412499</course>
        <speed>8.32087799920931</speed>
      </trkpt>
      <trkpt lat="43.47018" lon="2.60992">
        <ele>383</ele>
        <time>2012-01-06T06:42:08Z</time>
        <course>318.445625539884</course>
        <speed>8.31890542538297</speed>
      </trkpt>
      <trkpt lat="43.47144" lon="2.6112">
        <ele>378</ele>
        <time>2012-01-06T06:42:29Z</time>
        <course>307.786288740334</course>
        <speed>7.69663126494982</speed>
      </trkpt>
      <trkpt lat="43.47167" lon="2.61154">
        <ele>378</ele>
        <time>2012-01-06T06:42:34Z</time>
        <course>298.810184294532</course>
        <speed>7.69781806622724</speed>
      </trkpt>
      <trkpt lat="43.47191" lon="2.61204">
        <ele>378</ele>
        <time>2012-01-06T06:42:40Z</time>
        <course>285.948228445252</course>
        <speed>7.69217320842098</speed>
      </trkpt>
      <trkpt lat="43.4731" lon="2.61679">
        <ele>380</ele>
        <time>2012-01-06T06:43:33Z</time>
        <course>290.197101445827</course>
        <speed>5.49993093157543</speed>
      </trkpt>
      <trkpt lat="43.47337" lon="2.61763">
        <ele>381</ele>
        <time>2012-01-06T06:43:46Z</time>
        <course>296.001609804649</course>
        <speed>5.49903927149404</speed>
      </trkpt>
      <trkpt lat="43.47392" lon="2.61892">
        <ele>385</ele>
        <time>2012-01-06T06:44:08Z</time>
        <course>288.29033859625</course>
        <speed>8.31617190276289</speed>
      </trkpt>
      <trkpt lat="43.47429" lon="2.6202">
        <ele>384</ele>
        <time>2012-01-06T06:44:21Z</time>
        <course>295.186723552955</course>
        <speed>8.31886101290375</speed>
      </trkpt>
      <trkpt lat="43.47501" lon="2.62195">
        <ele>384</ele>
        <time>2012-01-06T06:44:41Z</time>
        <course>310.209575679488</course>
        <speed>4.60399405360627</speed>
      </trkpt>
      <trkpt lat="43.47535" lon="2.62241">
        <ele>386</ele>
        <time>2012-01-06T06:44:52Z</time>
        <course>314.793171476427</course>
        <speed>4.60373318197939</speed>
      </trkpt>
      <trkpt lat="43.47601" lon="2.62317">
        <ele>390</ele>
        <time>2012-01-06T06:45:13Z</time>
        <course>299.198193638267</course>
        <speed>5.20865314817153</speed>
      </trkpt>
      <trkpt lat="43.47623" lon="2.62362">
        <ele>391</ele>
        <time>2012-01-06T06:45:22Z</time>
        <course>283.761857552733</course>
        <speed>5.20834346834093</speed>
      </trkpt>
      <trkpt lat="43.47629" lon="2.6239">
        <ele>392</ele>
        <time>2012-01-06T06:45:26Z</time>
        <course>266.796551366381</course>
        <speed>5.2058248318253</speed>
      </trkpt>
      <trkpt lat="43.47625" lon="2.62472">
        <ele>394</ele>
        <time>2012-01-06T06:45:39Z</time>
        <course>251.757929885652</course>
        <speed>4.86116450347832</speed>
      </trkpt>
      <trkpt lat="43.47608" lon="2.62531">
        <ele>395</ele>
        <time>2012-01-06T06:45:49Z</time>
        <course>235.158528644429</course>
        <speed>4.86082858674253</speed>
      </trkpt>
      <trkpt lat="43.47594" lon="2.62554">
        <ele>396</ele>
        <time>2012-01-06T06:45:54Z</time>
        <course>221.758418219288</course>
        <speed>4.86203125316131</speed>
      </trkpt>
      <trkpt lat="43.47547" lon="2.62602">
        <ele>399</ele>
        <time>2012-01-06T06:46:08Z</time>
        <course>237.931159342295</course>
        <speed>8.31933491317756</speed>
      </trkpt>
      <trkpt lat="43.47524" lon="2.62644">
        <ele>395</ele>
        <time>2012-01-06T06:46:13Z</time>
        <course>251.730169232507</course>
        <speed>8.32518467733209</speed>
      </trkpt>
      <trkpt lat="43.47509" lon="2.62696">
        <ele>392</ele>
        <time>2012-01-06T06:46:18Z</time>
        <course>258.672999089514</course>
        <speed>8.31564027679072</speed>
      </trkpt>
      <trkpt lat="43.47502" lon="2.62736">
        <ele>390</ele>
        <time>2012-01-06T06:46:22Z</time>
        <course>267.058116306436</course>
        <speed>8.31482521973686</speed>
      </trkpt>
      <trkpt lat="43.47499" lon="2.62803">
        <ele>388</ele>
        <time>2012-01-06T06:46:29Z</time>
        <course>272.841305113032</course>
        <speed>8.31309219787649</speed>
      </trkpt>
      <trkpt lat="43.47501" lon="2.62849">
        <ele>387</ele>
        <time>2012-01-06T06:46:33Z</time>
        <course>281.046536581779</course>
        <speed>8.32446889634964</speed>
      </trkpt>
      <trkpt lat="43.47508" lon="2.6289">
        <ele>387</ele>
        <time>2012-01-06T06:46:37Z</time>
        <course>287.868183928788</course>
        <speed>7.28821468902319</speed>
      </trkpt>
      <trkpt lat="43.47554" lon="2.63053">
        <ele>388</ele>
        <time>2012-01-06T06:46:57Z</time>
        <course>281.025642181822</course>
        <speed>5.77364979517938</speed>
      </trkpt>
      <trkpt lat="43.47582" lon="2.63217">
        <ele>391</ele>
        <time>2012-01-06T06:47:20Z</time>
        <course>274.490642525215</course>
        <speed>6.4505912633739</speed>
      </trkpt>
      <trkpt lat="43.47642" lon="2.64068">
        <ele>401</ele>
        <time>2012-01-06T06:49:07Z</time>
        <course>252.789582496907</course>
        <speed>6.47535173690547</speed>
      </trkpt>
      <trkpt lat="43.47629" lon="2.64116">
        <ele>401</ele>
        <time>2012-01-06T06:49:13Z</time>
        <course>243.659352436555</course>
        <speed>6.48082367771669</speed>
      </trkpt>
      <trkpt lat="43.47486" lon="2.64447">
        <ele>406</ele>
        <time>2012-01-06T06:50:01Z</time>
        <course>251.315345773691</course>
        <speed>5.9856867721237</speed>
      </trkpt>
      <trkpt lat="43.47473" lon="2.64491">
        <ele>406</ele>
        <time>2012-01-06T06:50:08Z</time>
        <course>255.42824517732</course>
        <speed>5.98395070465313</speed>
      </trkpt>
      <trkpt lat="43.47401" lon="2.64809">
        <ele>412</ele>
        <time>2012-01-06T06:50:53Z</time>
        <course>263.870114619357</course>
        <speed>4.92778375503831</speed>
      </trkpt>
      <trkpt lat="43.47398" lon="2.64841">
        <ele>412</ele>
        <time>2012-01-06T06:50:58Z</time>
        <course>274.509911797977</course>
        <speed>4.92462824630567</speed>
      </trkpt>
      <trkpt lat="43.474" lon="2.6487">
        <ele>413</ele>
        <time>2012-01-06T06:51:03Z</time>
        <course>289.241983088952</course>
        <speed>4.92461632980738</speed>
      </trkpt>
      <trkpt lat="43.47418" lon="2.64929">
        <ele>415</ele>
        <time>2012-01-06T06:51:13Z</time>
        <course>298.859480078321</course>
        <speed>4.92727269230916</speed>
      </trkpt>
      <trkpt lat="43.47541" lon="2.65184">
        <ele>424</ele>
        <time>2012-01-06T06:52:03Z</time>
        <course>294.574090449011</course>
        <speed>6.4646520303711</speed>
      </trkpt>
      <trkpt lat="43.47569" lon="2.65254">
        <ele>424</ele>
        <time>2012-01-06T06:52:13Z</time>
        <course>284.145142928991</course>
        <speed>6.46522507716413</speed>
      </trkpt>
      <trkpt lat="43.47754" lon="2.66086">
        <ele>435</ele>
        <time>2012-01-06T06:54:02Z</time>
        <course>276.144259884065</course>
        <speed>6.09679864293021</speed>
      </trkpt>
      <trkpt lat="43.47786" lon="2.66423">
        <ele>440</ele>
        <time>2012-01-06T06:54:47Z</time>
        <course>282.377982039702</course>
        <speed>3.90780574386567</speed>
      </trkpt>
      <trkpt lat="43.47801" lon="2.66501">
        <ele>443</ele>
        <time>2012-01-06T06:55:03Z</time>
        <course>287.556640311399</course>
        <speed>3.90814908120931</speed>
      </trkpt>
      <trkpt lat="43.47854" lon="2.66692">
        <ele>453</ele>
        <time>2012-01-06T06:55:46Z</time>
        <course>281.846944866563</course>
        <speed>5.60991674024736</speed>
      </trkpt>
      <trkpt lat="43.4787" lon="2.66779">
        <ele>454</ele>
        <time>2012-01-06T06:55:59Z</time>
        <course>274.072761804882</course>
        <speed>5.61165203976852</speed>
      </trkpt>
      <trkpt lat="43.47874" lon="2.66843">
        <ele>456</ele>
        <time>2012-01-06T06:56:08Z</time>
        <course>266.360661649702</course>
        <speed>5.97178921219296</speed>
      </trkpt>
      <trkpt lat="43.4787" lon="2.66915">
        <ele>457</ele>
        <time>2012-01-06T06:56:17Z</time>
        <course>253.8230920534</course>
        <speed>5.96875966024091</speed>
      </trkpt>
      <trkpt lat="43.47767" lon="2.67322">
        <ele>464</ele>
        <time>2012-01-06T06:57:16Z</time>
        <course>264.339482353982</course>
        <speed>8.32049591627644</speed>
      </trkpt>
      <trkpt lat="43.47758" lon="2.67426">
        <ele>463</ele>
        <time>2012-01-06T06:57:26Z</time>
        <course>273.892549290395</course>
        <speed>8.31395409787195</speed>
      </trkpt>
      <trkpt lat="43.47762" lon="2.67493">
        <ele>463</ele>
        <time>2012-01-06T06:57:32Z</time>
        <course>281.878808449017</course>
        <speed>6.0099988171659</speed>
      </trkpt>
      <trkpt lat="43.47769" lon="2.67531">
        <ele>463</ele>
        <time>2012-01-06T06:57:38Z</time>
        <course>289.898649262324</course>
        <speed>6.00797335326594</speed>
      </trkpt>
      <trkpt lat="43.47795" lon="2.67613">
        <ele>465</ele>
        <time>2012-01-06T06:57:50Z</time>
        <course>293.790653045503</course>
        <speed>8.31803532863568</speed>
      </trkpt>
      <trkpt lat="43.47894" lon="2.67869">
        <ele>448</ele>
        <time>2012-01-06T06:58:18Z</time>
        <course>298.159808590441</course>
        <speed>8.31851008528998</speed>
      </trkpt>
      <trkpt lat="43.47963" lon="2.68016">
        <ele>435</ele>
        <time>2012-01-06T06:58:35Z</time>
        <course>291.198183784927</course>
        <speed>8.32179608456159</speed>
      </trkpt>
      <trkpt lat="43.4798" lon="2.68066">
        <ele>433</ele>
        <time>2012-01-06T06:58:40Z</time>
        <course>280.140594310635</course>
        <speed>8.31451753819069</speed>
      </trkpt>
      <trkpt lat="43.47988" lon="2.68117">
        <ele>432</ele>
        <time>2012-01-06T06:58:45Z</time>
        <course>273.553683397786</course>
        <speed>8.31249689445048</speed>
      </trkpt>
      <trkpt lat="43.47991" lon="2.68172">
        <ele>431</ele>
        <time>2012-01-06T06:58:51Z</time>
        <course>267.428202428839</course>
        <speed>8.31870921140682</speed>
      </trkpt>
      <trkpt lat="43.47979" lon="2.68482">
        <ele>421</ele>
        <time>2012-01-06T06:59:21Z</time>
        <course>271.392855900005</course>
        <speed>8.31700095259536</speed>
      </trkpt>
      <trkpt lat="43.47981" lon="2.68575">
        <ele>418</ele>
        <time>2012-01-06T06:59:30Z</time>
        <course>282.556696970086</course>
        <speed>8.32158986747813</speed>
      </trkpt>
      <trkpt lat="43.47998" lon="2.68662">
        <ele>416</ele>
        <time>2012-01-06T06:59:38Z</time>
        <course>289.513440995706</course>
        <speed>8.31729139971655</speed>
      </trkpt>
      <trkpt lat="43.48078" lon="2.68919">
        <ele>403</ele>
        <time>2012-01-06T07:00:05Z</time>
        <course>286.960964925856</course>
        <speed>8.31278477003512</speed>
      </trkpt>
      <trkpt lat="43.48097" lon="2.6899">
        <ele>402</ele>
        <time>2012-01-06T07:00:13Z</time>
        <course>279.797885446329</course>
        <speed>8.31237070748208</speed>
      </trkpt>
      <trkpt lat="43.48102" lon="2.69023">
        <ele>402</ele>
        <time>2012-01-06T07:00:16Z</time>
        <course>268.175855941956</course>
        <speed>8.3231183219675</speed>
      </trkpt>
      <trkpt lat="43.481" lon="2.69095">
        <ele>402</ele>
        <time>2012-01-06T07:00:23Z</time>
        <course>261.612358811177</course>
        <speed>8.3168349956705</speed>
      </trkpt>
      <trkpt lat="43.48084" lon="2.69219">
        <ele>401</ele>
        <time>2012-01-06T07:00:35Z</time>
        <course>258.284479515813</course>
        <speed>8.31921170355506</speed>
      </trkpt>
      <trkpt lat="43.48032" lon="2.69506">
        <ele>398</ele>
        <time>2012-01-06T07:01:04Z</time>
        <course>251.732339906137</course>
        <speed>8.31881968935524</speed>
      </trkpt>
      <trkpt lat="43.48008" lon="2.69589">
        <ele>396</ele>
        <time>2012-01-06T07:01:13Z</time>
        <course>247.111649538881</course>
        <speed>8.31806488995129</speed>
      </trkpt>
      <trkpt lat="43.47643" lon="2.70583">
        <ele>378</ele>
        <time>2012-01-06T07:03:01Z</time>
        <course>240.538768490614</course>
        <speed>8.31781937359322</speed>
      </trkpt>
      <trkpt lat="43.47566" lon="2.70739">
        <ele>373</ele>
        <time>2012-01-06T07:03:19Z</time>
        <course>233.723581106224</course>
        <speed>6.08779348621183</speed>
      </trkpt>
      <trkpt lat="43.47532" lon="2.70792">
        <ele>374</ele>
        <time>2012-01-06T07:03:28Z</time>
        <course>246.169403217073</course>
        <speed>6.08885757989326</speed>
      </trkpt>
      <trkpt lat="43.4751" lon="2.70849">
        <ele>375</ele>
        <time>2012-01-06T07:03:37Z</time>
        <course>240.635558529474</course>
        <speed>8.31726705965247</speed>
      </trkpt>
      <trkpt lat="43.47426" lon="2.7102">
        <ele>372</ele>
        <time>2012-01-06T07:03:57Z</time>
        <course>245.888518510698</course>
        <speed>8.32041551060136</speed>
      </trkpt>
      <trkpt lat="43.4736" lon="2.71189">
        <ele>368</ele>
        <time>2012-01-06T07:04:15Z</time>
        <course>221.130025451778</course>
        <speed>8.30421573575164</speed>
      </trkpt>
      <trkpt lat="43.47345" lon="2.71204">
        <ele>367</ele>
        <time>2012-01-06T07:04:18Z</time>
        <course>262.320374395953</course>
        <speed>8.31593930400734</speed>
      </trkpt>
      <trkpt lat="43.47339" lon="2.71255">
        <ele>366</ele>
        <time>2012-01-06T07:04:23Z</time>
        <course>243.973756035179</course>
        <speed>8.31588158307939</speed>
      </trkpt>
      <trkpt lat="43.47313" lon="2.71316">
        <ele>366</ele>
        <time>2012-01-06T07:04:30Z</time>
        <course>247.553955485179</course>
        <speed>7.31316643830377</speed>
      </trkpt>
      <trkpt lat="43.47255" lon="2.71477">
        <ele>367</ele>
        <time>2012-01-06T07:04:50Z</time>
        <course>248.888922762087</course>
        <speed>5.26409489740308</speed>
      </trkpt>
      <trkpt lat="43.47222" lon="2.71575">
        <ele>369</ele>
        <time>2012-01-06T07:05:06Z</time>
        <course>253.749183561632</course>
        <speed>5.26234145183104</speed>
      </trkpt>
      <trkpt lat="43.47207" lon="2.71634">
        <ele>371</ele>
        <time>2012-01-06T07:05:16Z</time>
        <course>258.155425140112</course>
        <speed>7.06288959845086</speed>
      </trkpt>
      <trkpt lat="43.4719" lon="2.71727">
        <ele>371</ele>
        <time>2012-01-06T07:05:27Z</time>
        <course>268.467252932398</course>
        <speed>7.06588136276554</speed>
      </trkpt>
      <trkpt lat="43.47189" lon="2.7177">
        <ele>372</ele>
        <time>2012-01-06T07:05:32Z</time>
        <course>275.337939305553</course>
        <speed>8.318689999231</speed>
      </trkpt>
      <trkpt lat="43.47193" lon="2.71819">
        <ele>371</ele>
        <time>2012-01-06T07:05:36Z</time>
        <course>276.887333516291</course>
        <speed>8.31882745653545</speed>
      </trkpt>
      <trkpt lat="43.47258" lon="2.72428">
        <ele>367</ele>
        <time>2012-01-06T07:06:36Z</time>
        <course>279.94225068596</course>
        <speed>8.31868577112758</speed>
      </trkpt>
      <trkpt lat="43.47283" lon="2.72591">
        <ele>364</ele>
        <time>2012-01-06T07:06:52Z</time>
        <course>287.142111665957</course>
        <speed>8.32016404224791</speed>
      </trkpt>
      <trkpt lat="43.47314" lon="2.72706">
        <ele>363</ele>
        <time>2012-01-06T07:07:04Z</time>
        <course>291.63063915657</course>
        <speed>8.31584918187466</speed>
      </trkpt>
      <trkpt lat="43.47366" lon="2.72856">
        <ele>363</ele>
        <time>2012-01-06T07:07:20Z</time>
        <course>296.293357550988</course>
        <speed>8.3156851722886</speed>
      </trkpt>
      <trkpt lat="43.47404" lon="2.72944">
        <ele>358</ele>
        <time>2012-01-06T07:07:30Z</time>
        <course>288.51626326963</course>
        <speed>8.30988064111837</speed>
      </trkpt>
      <trkpt lat="43.47416" lon="2.72985">
        <ele>356</ele>
        <time>2012-01-06T07:07:34Z</time>
        <course>282.447820592109</course>
        <speed>8.3148908727854</speed>
      </trkpt>
      <trkpt lat="43.47427" lon="2.73042">
        <ele>356</ele>
        <time>2012-01-06T07:07:40Z</time>
        <course>274.150371851397</course>
        <speed>8.32168987867309</speed>
      </trkpt>
      <trkpt lat="43.47434" lon="2.73152">
        <ele>356</ele>
        <time>2012-01-06T07:07:51Z</time>
        <course>287.120936430405</course>
        <speed>8.3187043304978</speed>
      </trkpt>
      <trkpt lat="43.47472" lon="2.73293">
        <ele>355</ele>
        <time>2012-01-06T07:08:05Z</time>
        <course>290.128418486292</course>
        <speed>8.31423363702692</speed>
      </trkpt>
      <trkpt lat="43.47497" lon="2.73371">
        <ele>353</ele>
        <time>2012-01-06T07:08:14Z</time>
        <course>295.911330851593</course>
        <speed>8.31942177795086</speed>
      </trkpt>
      <trkpt lat="43.47568" lon="2.73538">
        <ele>350</ele>
        <time>2012-01-06T07:08:32Z</time>
        <course>303.045941737481</course>
        <speed>7.83211745764106</speed>
      </trkpt>
      <trkpt lat="43.47747" lon="2.73852">
        <ele>351</ele>
        <time>2012-01-06T07:09:14Z</time>
        <course>298.109754370694</course>
        <speed>8.31869655860249</speed>
      </trkpt>
      <trkpt lat="43.47776" lon="2.73914">
        <ele>348</ele>
        <time>2012-01-06T07:09:21Z</time>
        <course>290.836424566274</course>
        <speed>8.31878285808671</speed>
      </trkpt>
      <trkpt lat="43.47796" lon="2.73974">
        <ele>346</ele>
        <time>2012-01-06T07:09:27Z</time>
        <course>281.446949620875</course>
        <speed>4.61156174271544</speed>
      </trkpt>
      <trkpt lat="43.47807" lon="2.74036">
        <ele>348</ele>
        <time>2012-01-06T07:09:38Z</time>
        <course>271.441443295813</course>
        <speed>4.609751972283</speed>
      </trkpt>
      <trkpt lat="43.47809" lon="2.74126">
        <ele>351</ele>
        <time>2012-01-06T07:09:54Z</time>
        <course>266.610439108894</course>
        <speed>6.17810099023128</speed>
      </trkpt>
      <trkpt lat="43.47798" lon="2.7434">
        <ele>354</ele>
        <time>2012-01-06T07:10:22Z</time>
        <course>268.332055511018</course>
        <speed>8.31929464013969</speed>
      </trkpt>
      <trkpt lat="43.47794" lon="2.74499">
        <ele>352</ele>
        <time>2012-01-06T07:10:37Z</time>
        <course>275.911333415268</course>
        <speed>5.58050987693418</speed>
      </trkpt>
      <trkpt lat="43.47805" lon="2.7462">
        <ele>354</ele>
        <time>2012-01-06T07:10:55Z</time>
        <course>273.363448614489</course>
        <speed>5.5826158476635</speed>
      </trkpt>
      <trkpt lat="43.47817" lon="2.74851">
        <ele>359</ele>
        <time>2012-01-06T07:11:28Z</time>
        <course>287.523925559302</course>
        <speed>3.80104702014763</speed>
      </trkpt>
      <trkpt lat="43.4783" lon="2.74898">
        <ele>361</ele>
        <time>2012-01-06T07:11:39Z</time>
        <course>298.799605732567</course>
        <speed>3.80311695299805</speed>
      </trkpt>
      <trkpt lat="43.47843" lon="2.74925">
        <ele>362</ele>
        <time>2012-01-06T07:11:46Z</time>
        <course>308.164064018283</course>
        <speed>3.80279012075004</speed>
      </trkpt>
      <trkpt lat="43.47885" lon="2.74986">
        <ele>367</ele>
        <time>2012-01-06T07:12:04Z</time>
        <course>315.766225359</course>
        <speed>4.18722857161651</speed>
      </trkpt>
      <trkpt lat="43.4793" lon="2.75036">
        <ele>370</ele>
        <time>2012-01-06T07:12:19Z</time>
        <course>328.262302337493</course>
        <speed>4.18623447633134</speed>
      </trkpt>
      <trkpt lat="43.47947" lon="2.75048">
        <ele>371</ele>
        <time>2012-01-06T07:12:24Z</time>
        <course>344.63747990946</course>
        <speed>4.18594369010175</speed>
      </trkpt>
      <trkpt lat="43.48014" lon="2.75069">
        <ele>375</ele>
        <time>2012-01-06T07:12:43Z</time>
        <course>331.220385219892</course>
        <speed>3.8568286048756</speed>
      </trkpt>
      <trkpt lat="43.48113" lon="2.75131">
        <ele>382</ele>
        <time>2012-01-06T07:13:14Z</time>
        <course>359.064105621578</course>
        <speed>8.31928159076949</speed>
      </trkpt>
      <trkpt lat="43.48328" lon="2.75135">
        <ele>371</ele>
        <time>2012-01-06T07:13:43Z</time>
        <course>5.57468147904843</course>
        <speed>8.31484559768887</speed>
      </trkpt>
      <trkpt lat="43.48409" lon="2.75126">
        <ele>366</ele>
        <time>2012-01-06T07:13:53Z</time>
        <course>346.691987754508</course>
        <speed>8.31561405233063</speed>
      </trkpt>
      <trkpt lat="43.48435" lon="2.75133">
        <ele>365</ele>
        <time>2012-01-06T07:13:57Z</time>
        <course>326.615380390656</course>
        <speed>8.32969127549864</speed>
      </trkpt>
      <trkpt lat="43.48451" lon="2.75145">
        <ele>363</ele>
        <time>2012-01-06T07:13:59Z</time>
        <course>308.036388745133</course>
        <speed>8.31969316335704</speed>
      </trkpt>
      <trkpt lat="43.48599" lon="2.7536">
        <ele>348</ele>
        <time>2012-01-06T07:14:28Z</time>
        <course>294.945314230665</course>
        <speed>8.3110437682136</speed>
      </trkpt>
      <trkpt lat="43.48608" lon="2.75382">
        <ele>346</ele>
        <time>2012-01-06T07:14:31Z</time>
        <course>256.303298891334</course>
        <speed>8.34687895718252</speed>
      </trkpt>
      <trkpt lat="43.48605" lon="2.75396">
        <ele>346</ele>
        <time>2012-01-06T07:14:32Z</time>
        <course>303.015045384236</course>
        <speed>8.35317179461167</speed>
      </trkpt>
      <trkpt lat="43.48609" lon="2.75403">
        <ele>345</ele>
        <time>2012-01-06T07:14:33Z</time>
        <course>310.457965349923</course>
        <speed>8.28247567616407</speed>
      </trkpt>
      <trkpt lat="43.48615" lon="2.75411">
        <ele>345</ele>
        <time>2012-01-06T07:14:34Z</time>
        <course>354.973934181444</course>
        <speed>8.31433497564763</speed>
      </trkpt>
      <trkpt lat="43.48625" lon="2.75412">
        <ele>344</ele>
        <time>2012-01-06T07:14:35Z</time>
        <course>331.835126335708</course>
        <speed>8.31518252018993</speed>
      </trkpt>
      <trkpt lat="43.48648" lon="2.75426">
        <ele>343</ele>
        <time>2012-01-06T07:14:39Z</time>
        <course>312.070179833086</course>
        <speed>8.31062132577176</speed>
      </trkpt>
      <trkpt lat="43.48675" lon="2.7546">
        <ele>341</ele>
        <time>2012-01-06T07:14:44Z</time>
        <course>308.040502193721</course>
        <speed>8.31797347362741</speed>
      </trkpt>
      <trkpt lat="43.48875" lon="2.7575">
        <ele>319</ele>
        <time>2012-01-06T07:15:22Z</time>
        <course>303.737915934327</course>
        <speed>8.32260198555371</speed>
      </trkpt>
      <trkpt lat="43.48885" lon="2.75767">
        <ele>318</ele>
        <time>2012-01-06T07:15:24Z</time>
        <course>281.661510606513</course>
        <speed>8.31115067620306</speed>
      </trkpt>
      <trkpt lat="43.48889" lon="2.75789">
        <ele>318</ele>
        <time>2012-01-06T07:15:27Z</time>
        <course>272.819940293899</course>
        <speed>8.31118663004652</speed>
      </trkpt>
      <trkpt lat="43.48891" lon="2.75835">
        <ele>318</ele>
        <time>2012-01-06T07:15:31Z</time>
        <course>257.607207304578</course>
        <speed>8.31885547227258</speed>
      </trkpt>
      <trkpt lat="43.48795" lon="2.76334">
        <ele>317</ele>
        <time>2012-01-06T07:16:21Z</time>
        <course>265.925686283084</course>
        <speed>8.31708553115283</speed>
      </trkpt>
      <trkpt lat="43.48789" lon="2.7643">
        <ele>315</ele>
        <time>2012-01-06T07:16:30Z</time>
        <course>262.530983883904</course>
        <speed>8.3189451699651</speed>
      </trkpt>
      <trkpt lat="43.48714" lon="2.77088">
        <ele>308</ele>
        <time>2012-01-06T07:17:35Z</time>
        <course>267.883499581589</course>
        <speed>5.94584346360561</speed>
      </trkpt>
      <trkpt lat="43.4871" lon="2.77212">
        <ele>310</ele>
        <time>2012-01-06T07:17:52Z</time>
        <course>259.818477431304</course>
        <speed>8.32381130128159</speed>
      </trkpt>
      <trkpt lat="43.48701" lon="2.77269">
        <ele>308</ele>
        <time>2012-01-06T07:17:58Z</time>
        <course>253.136355424462</course>
        <speed>8.31233182552105</speed>
      </trkpt>
      <trkpt lat="43.48697" lon="2.77284">
        <ele>307</ele>
        <time>2012-01-06T07:17:59Z</time>
        <course>236.57111915537</course>
        <speed>8.31449349170442</speed>
      </trkpt>
      <trkpt lat="43.48679" lon="2.77315">
        <ele>306</ele>
        <time>2012-01-06T07:18:03Z</time>
        <course>223.441115243049</course>
        <speed>8.31395569595333</speed>
      </trkpt>
      <trkpt lat="43.48627" lon="2.77371">
        <ele>304</ele>
        <time>2012-01-06T07:18:12Z</time>
        <course>211.6146638396</course>
        <speed>8.30866042944641</speed>
      </trkpt>
      <trkpt lat="43.48607" lon="2.77385">
        <ele>302</ele>
        <time>2012-01-06T07:18:15Z</time>
        <course>199.705315542103</course>
        <speed>8.32066037427796</speed>
      </trkpt>
      <trkpt lat="43.48553" lon="2.77407">
        <ele>297</ele>
        <time>2012-01-06T07:18:22Z</time>
        <course>238.508215349337</course>
        <speed>8.31337523319281</speed>
      </trkpt>
      <trkpt lat="43.48539" lon="2.77433">
        <ele>296</ele>
        <time>2012-01-06T07:18:25Z</time>
        <course>262.281750652495</course>
        <speed>6.37816009521212</speed>
      </trkpt>
      <trkpt lat="43.48534" lon="2.77475">
        <ele>296</ele>
        <time>2012-01-06T07:18:31Z</time>
        <course>269.995219711664</course>
        <speed>6.36977629963247</speed>
      </trkpt>
      <trkpt lat="43.48534" lon="2.7751">
        <ele>296</ele>
        <time>2012-01-06T07:18:35Z</time>
        <course>287.783733439369</course>
        <speed>6.37718014022298</speed>
      </trkpt>
      <trkpt lat="43.48545" lon="2.77549">
        <ele>297</ele>
        <time>2012-01-06T07:18:40Z</time>
        <course>309.90620544517</course>
        <speed>6.37442202213453</speed>
      </trkpt>
      <trkpt lat="43.48609" lon="2.77636">
        <ele>299</ele>
        <time>2012-01-06T07:18:56Z</time>
        <course>294.452420957626</course>
        <speed>6.24153922802287</speed>
      </trkpt>
      <trkpt lat="43.48625" lon="2.77676">
        <ele>299</ele>
        <time>2012-01-06T07:19:02Z</time>
        <course>283.546046891458</course>
        <speed>6.2430063895896</speed>
      </trkpt>
      <trkpt lat="43.48646" lon="2.77775">
        <ele>301</ele>
        <time>2012-01-06T07:19:15Z</time>
        <course>277.502001894842</course>
        <speed>8.3206899124418</speed>
      </trkpt>
      <trkpt lat="43.48659" lon="2.77887">
        <ele>299</ele>
        <time>2012-01-06T07:19:26Z</time>
        <course>274.382315706646</course>
        <speed>8.32194948715268</speed>
      </trkpt>
      <trkpt lat="43.48664" lon="2.77961">
        <ele>299</ele>
        <time>2012-01-06T07:19:34Z</time>
        <course>266.473528978971</course>
        <speed>6.36438568315885</speed>
      </trkpt>
      <trkpt lat="43.4866" lon="2.78035">
        <ele>299</ele>
        <time>2012-01-06T07:19:43Z</time>
        <course>330.982294935634</course>
        <speed>6.3584268445384</speed>
      </trkpt>
      <trkpt lat="43.48706" lon="2.78064">
        <ele>300</ele>
        <time>2012-01-06T07:19:52Z</time>
        <course>320.547975475267</course>
        <speed>6.36199681248722</speed>
      </trkpt>
      <trkpt lat="43.48813" lon="2.78164">
        <ele>303</ele>
        <time>2012-01-06T07:20:14Z</time>
        <course>329.137367060183</course>
        <speed>5.57104564739866</speed>
      </trkpt>
      <trkpt lat="43.48869" lon="2.78202">
        <ele>304</ele>
        <time>2012-01-06T07:20:27Z</time>
        <course>320.884899449816</course>
        <speed>5.57236906981074</speed>
      </trkpt>
      <trkpt lat="43.48908" lon="2.78238">
        <ele>306</ele>
        <time>2012-01-06T07:20:36Z</time>
        <course>311.536086235416</course>
        <speed>8.31304269358703</speed>
      </trkpt>
      <trkpt lat="43.4894" lon="2.78279">
        <ele>301</ele>
        <time>2012-01-06T07:20:42Z</time>
        <course>290.463772859498</course>
        <speed>8.31558095196714</speed>
      </trkpt>
      <trkpt lat="43.48965" lon="2.78355">
        <ele>295</ele>
        <time>2012-01-06T07:20:50Z</time>
        <course>312.871316028732</course>
        <speed>6.75060907432076</speed>
      </trkpt>
      <trkpt lat="43.49001" lon="2.78399">
        <ele>295</ele>
        <time>2012-01-06T07:20:58Z</time>
        <course>326.018020300158</course>
        <speed>6.75087682315734</speed>
      </trkpt>
      <trkpt lat="43.49035" lon="2.78425">
        <ele>296</ele>
        <time>2012-01-06T07:21:04Z</time>
        <course>339.884128015568</course>
        <speed>6.75348657084443</speed>
      </trkpt>
      <trkpt lat="43.491" lon="2.78452">
        <ele>297</ele>
        <time>2012-01-06T07:21:16Z</time>
        <course>322.005029327763</course>
        <speed>8.31457944616186</speed>
      </trkpt>
      <trkpt lat="43.49135" lon="2.78483">
        <ele>296</ele>
        <time>2012-01-06T07:21:21Z</time>
        <course>360</course>
        <speed>8.33399999937683</speed>
      </trkpt>
      <trkpt lat="43.49141" lon="2.78483">
        <ele>296</ele>
        <time>2012-01-06T07:21:22Z</time>
        <course>308.967983402904</course>
        <speed>8.31715544670089</speed>
      </trkpt>
      <trkpt lat="43.49281" lon="2.78679">
        <ele>294</ele>
        <time>2012-01-06T07:21:49Z</time>
        <course>300.578020552046</course>
        <speed>8.31480526864555</speed>
      </trkpt>
      <trkpt lat="43.49317" lon="2.78748">
        <ele>291</ele>
        <time>2012-01-06T07:21:57Z</time>
        <course>307.424604242779</course>
        <speed>8.31831597278788</speed>
      </trkpt>
      <trkpt lat="43.49342" lon="2.78785">
        <ele>290</ele>
        <time>2012-01-06T07:22:02Z</time>
        <course>310.660548637044</course>
        <speed>8.32104645556696</speed>
      </trkpt>
      <trkpt lat="43.49386" lon="2.78843">
        <ele>287</ele>
        <time>2012-01-06T07:22:10Z</time>
        <course>321.001093901505</course>
        <speed>8.31873995495745</speed>
      </trkpt>
      <trkpt lat="43.49434" lon="2.78887">
        <ele>286</ele>
        <time>2012-01-06T07:22:18Z</time>
        <course>335.210602104474</course>
        <speed>8.31321359157029</speed>
      </trkpt>
      <trkpt lat="43.49478" lon="2.7891">
        <ele>285</ele>
        <time>2012-01-06T07:22:24Z</time>
        <course>349.974797367511</course>
        <speed>8.32091831374959</speed>
      </trkpt>
      <trkpt lat="43.49563" lon="2.78927">
        <ele>284</ele>
        <time>2012-01-06T07:22:35Z</time>
        <course>4.57251115570514</course>
        <speed>8.31665878014429</speed>
      </trkpt>
      <trkpt lat="43.4974" lon="2.78911">
        <ele>275</ele>
        <time>2012-01-06T07:22:59Z</time>
        <course>354.285874192477</course>
        <speed>6.38234102527448</speed>
      </trkpt>
      <trkpt lat="43.49917" lon="2.78931">
        <ele>278</ele>
        <time>2012-01-06T07:23:30Z</time>
        <course>337.664720915583</course>
        <speed>8.32254015775316</speed>
      </trkpt>
      <trkpt lat="43.49986" lon="2.78963">
        <ele>277</ele>
        <time>2012-01-06T07:23:40Z</time>
        <course>325.664292977677</course>
        <speed>8.31416956439288</speed>
      </trkpt>
      <trkpt lat="43.50034" lon="2.79">
        <ele>277</ele>
        <time>2012-01-06T07:23:47Z</time>
        <course>312.068436205265</course>
        <speed>8.32029870414937</speed>
      </trkpt>
      <trkpt lat="43.5007" lon="2.79045">
        <ele>274</ele>
        <time>2012-01-06T07:23:54Z</time>
        <course>296.160641857748</course>
        <speed>8.31543522194098</speed>
      </trkpt>
      <trkpt lat="43.50114" lon="2.79146">
        <ele>271</ele>
        <time>2012-01-06T07:24:05Z</time>
        <course>316.935070846652</course>
        <speed>8.320669837856</speed>
      </trkpt>
      <trkpt lat="43.50151" lon="2.79185">
        <ele>271</ele>
        <time>2012-01-06T07:24:11Z</time>
        <course>332.453442400935</course>
        <speed>8.31501660998138</speed>
      </trkpt>
      <trkpt lat="43.50168" lon="2.79195">
        <ele>271</ele>
        <time>2012-01-06T07:24:14Z</time>
        <course>337.106002145126</course>
        <speed>8.31245639193286</speed>
      </trkpt>
      <trkpt lat="43.50189" lon="2.79205">
        <ele>271</ele>
        <time>2012-01-06T07:24:17Z</time>
        <course>355.772964095522</course>
        <speed>8.32320108721062</speed>
      </trkpt>
      <trkpt lat="43.50213" lon="2.79207">
        <ele>271</ele>
        <time>2012-01-06T07:24:20Z</time>
        <course>8.96657066739581</course>
        <speed>6.58198672510806</speed>
      </trkpt>
      <trkpt lat="43.50348" lon="2.79183">
        <ele>273</ele>
        <time>2012-01-06T07:24:43Z</time>
        <course>347.091108912675</course>
        <speed>7.28217378010453</speed>
      </trkpt>
      <trkpt lat="43.50472" lon="2.79215">
        <ele>274</ele>
        <time>2012-01-06T07:25:02Z</time>
        <course>341.789189990915</course>
        <speed>6.21698239302618</speed>
      </trkpt>
      <trkpt lat="43.50626" lon="2.79272">
        <ele>277</ele>
        <time>2012-01-06T07:25:31Z</time>
        <course>326.161431035047</course>
        <speed>8.31784692397656</speed>
      </trkpt>
      <trkpt lat="43.50764" lon="2.79376">
        <ele>268</ele>
        <time>2012-01-06T07:25:52Z</time>
        <course>304.564645399469</course>
        <speed>8.32316383611175</speed>
      </trkpt>
      <trkpt lat="43.50783" lon="2.79407">
        <ele>267</ele>
        <time>2012-01-06T07:25:56Z</time>
        <course>322.969065995275</course>
        <speed>8.32256637767943</speed>
      </trkpt>
      <trkpt lat="43.50829" lon="2.79446">
        <ele>266</ele>
        <time>2012-01-06T07:26:03Z</time>
        <course>342.283228363744</course>
        <speed>8.32369832768188</speed>
      </trkpt>
      <trkpt lat="43.50868" lon="2.7946">
        <ele>266</ele>
        <time>2012-01-06T07:26:08Z</time>
        <course>323.471841367641</course>
        <speed>6.81182007930158</speed>
      </trkpt>
      <trkpt lat="43.51216" lon="2.79749">
        <ele>271</ele>
        <time>2012-01-06T07:27:14Z</time>
        <course>317.371339445013</course>
        <speed>5.95990457945152</speed>
      </trkpt>
      <trkpt lat="43.51247" lon="2.79781">
        <ele>271</ele>
        <time>2012-01-06T07:27:22Z</time>
        <course>311.006047492545</course>
        <speed>5.96003134007633</speed>
      </trkpt>
      <trkpt lat="43.51285" lon="2.7983">
        <ele>273</ele>
        <time>2012-01-06T07:27:31Z</time>
        <course>302.25019023224</course>
        <speed>8.31857553538212</speed>
      </trkpt>
      <trkpt lat="43.51466" lon="2.80151">
        <ele>264</ele>
        <time>2012-01-06T07:28:11Z</time>
        <course>299.991926909139</course>
        <speed>8.32097301504599</speed>
      </trkpt>
      <trkpt lat="43.51532" lon="2.80279">
        <ele>261</ele>
        <time>2012-01-06T07:28:26Z</time>
        <course>289.465458672975</course>
        <speed>8.31852327443075</speed>
      </trkpt>
      <trkpt lat="43.51556" lon="2.80355">
        <ele>259</ele>
        <time>2012-01-06T07:28:34Z</time>
        <course>278.874808211102</course>
        <speed>8.32221544221266</speed>
      </trkpt>
      <trkpt lat="43.51562" lon="2.80398">
        <ele>258</ele>
        <time>2012-01-06T07:28:38Z</time>
        <course>284.671672417322</course>
        <speed>8.31700556251118</speed>
      </trkpt>
      <trkpt lat="43.5163" lon="2.80688">
        <ele>255</ele>
        <time>2012-01-06T07:29:08Z</time>
        <course>289.642271109001</course>
        <speed>8.31850226610402</speed>
      </trkpt>
      <trkpt lat="43.51683" lon="2.80854">
        <ele>253</ele>
        <time>2012-01-06T07:29:25Z</time>
        <course>294.022989721301</course>
        <speed>8.31680866189065</speed>
      </trkpt>
      <trkpt lat="43.51746" lon="2.81012">
        <ele>253</ele>
        <time>2012-01-06T07:29:43Z</time>
        <course>297.384462939688</course>
        <speed>7.0056767253126</speed>
      </trkpt>
      <trkpt lat="43.51901" lon="2.81346">
        <ele>256</ele>
        <time>2012-01-06T07:30:28Z</time>
        <course>292.114552658019</course>
        <speed>6.29563151719233</speed>
      </trkpt>
      <trkpt lat="43.51917" lon="2.8139">
        <ele>256</ele>
        <time>2012-01-06T07:30:35Z</time>
        <course>279.546424535587</course>
        <speed>6.30118406095259</speed>
      </trkpt>
      <trkpt lat="43.51944" lon="2.81569">
        <ele>259</ele>
        <time>2012-01-06T07:30:58Z</time>
        <course>269.269175802912</course>
        <speed>8.32050077393927</speed>
      </trkpt>
      <trkpt lat="43.51943" lon="2.81658">
        <ele>258</ele>
        <time>2012-01-06T07:31:07Z</time>
        <course>266.344912201276</course>
        <speed>8.31927519877856</speed>
      </trkpt>
      <trkpt lat="43.51936" lon="2.81781">
        <ele>258</ele>
        <time>2012-01-06T07:31:19Z</time>
        <course>253.477290850124</course>
        <speed>8.32529908783808</speed>
      </trkpt>
      <trkpt lat="43.51923" lon="2.8183">
        <ele>257</ele>
        <time>2012-01-06T07:31:24Z</time>
        <course>231.020202755836</course>
        <speed>8.31991902072458</speed>
      </trkpt>
      <trkpt lat="43.51795" lon="2.82007">
        <ele>256</ele>
        <time>2012-01-06T07:31:48Z</time>
        <course>242.275808023641</course>
        <speed>8.3154980593544</speed>
      </trkpt>
      <trkpt lat="43.51764" lon="2.82073">
        <ele>256</ele>
        <time>2012-01-06T07:31:55Z</time>
        <course>255.68027506707</course>
        <speed>8.31584673103356</speed>
      </trkpt>
      <trkpt lat="43.51751" lon="2.8213">
        <ele>256</ele>
        <time>2012-01-06T07:32:01Z</time>
        <course>267.993726523549</course>
        <speed>4.31598736429069</speed>
      </trkpt>
      <trkpt lat="43.5175" lon="2.82162">
        <ele>257</ele>
        <time>2012-01-06T07:32:07Z</time>
        <course>283.112571775673</course>
        <speed>4.31792155335245</speed>
      </trkpt>
      <trkpt lat="43.5176" lon="2.8221">
        <ele>259</ele>
        <time>2012-01-06T07:32:17Z</time>
        <course>295.32251298547</course>
        <speed>4.31597533740818</speed>
      </trkpt>
      <trkpt lat="43.51771" lon="2.82236">
        <ele>260</ele>
        <time>2012-01-06T07:32:22Z</time>
        <course>308.197933442441</course>
        <speed>4.31860446574177</speed>
      </trkpt>
      <trkpt lat="43.51809" lon="2.8229">
        <ele>263</ele>
        <time>2012-01-06T07:32:36Z</time>
        <course>313.353039862743</course>
        <speed>8.31961112651749</speed>
      </trkpt>
      <trkpt lat="43.51847" lon="2.82335">
        <ele>261</ele>
        <time>2012-01-06T07:32:43Z</time>
        <course>323.913502389904</course>
        <speed>8.31701022797589</speed>
      </trkpt>
      <trkpt lat="43.51874" lon="2.82357">
        <ele>261</ele>
        <time>2012-01-06T07:32:47Z</time>
        <course>332.109595503578</course>
        <speed>8.31922560905022</speed>
      </trkpt>
      <trkpt lat="43.52011" lon="2.82438">
        <ele>258</ele>
        <time>2012-01-06T07:33:07Z</time>
        <course>346.032529115857</course>
        <speed>8.31939526264571</speed>
      </trkpt>
      <trkpt lat="43.52083" lon="2.82458">
        <ele>255</ele>
        <time>2012-01-06T07:33:17Z</time>
        <course>342.256738760222</course>
        <speed>8.32103509012109</speed>
      </trkpt>
      <trkpt lat="43.52195" lon="2.82498">
        <ele>252</ele>
        <time>2012-01-06T07:33:32Z</time>
        <course>331.9509571506</course>
        <speed>6.97397658519078</speed>
      </trkpt>
      <trkpt lat="43.52232" lon="2.8252">
        <ele>252</ele>
        <time>2012-01-06T07:33:39Z</time>
        <course>316.801487817796</course>
        <speed>6.96894550794574</speed>
      </trkpt>
      <trkpt lat="43.52274" lon="2.82564">
        <ele>253</ele>
        <time>2012-01-06T07:33:47Z</time>
        <course>307.254292115497</course>
        <speed>8.31855857116966</speed>
      </trkpt>
      <trkpt lat="43.52304" lon="2.82608">
        <ele>251</ele>
        <time>2012-01-06T07:33:53Z</time>
        <course>301.356203198163</course>
        <speed>8.31926926818517</speed>
      </trkpt>
      <trkpt lat="43.52351" lon="2.82694">
        <ele>250</ele>
        <time>2012-01-06T07:34:03Z</time>
        <course>290.760311511556</course>
        <speed>8.31683874252104</speed>
      </trkpt>
      <trkpt lat="43.52368" lon="2.82744">
        <ele>248</ele>
        <time>2012-01-06T07:34:09Z</time>
        <course>274.49036830783</course>
        <speed>8.32042485033387</speed>
      </trkpt>
      <trkpt lat="43.52374" lon="2.82829">
        <ele>246</ele>
        <time>2012-01-06T07:34:17Z</time>
        <course>263.420146289397</course>
        <speed>8.31656944736425</speed>
      </trkpt>
      <trkpt lat="43.52361" lon="2.82955">
        <ele>243</ele>
        <time>2012-01-06T07:34:29Z</time>
        <course>277.329531513419</course>
        <speed>8.31855524814113</speed>
      </trkpt>
      <trkpt lat="43.52364" lon="2.82981">
        <ele>242</ele>
        <time>2012-01-06T07:34:32Z</time>
        <course>304.981155911118</course>
        <speed>8.31776778572856</speed>
      </trkpt>
      <trkpt lat="43.52445" lon="2.8311">
        <ele>242</ele>
        <time>2012-01-06T07:34:48Z</time>
        <course>323.543391945563</course>
        <speed>8.33405427625676</speed>
      </trkpt>
      <trkpt lat="43.52462" lon="2.83124">
        <ele>241</ele>
        <time>2012-01-06T07:34:51Z</time>
        <course>340.766234720543</course>
        <speed>8.31262126694201</speed>
      </trkpt>
      <trkpt lat="43.5248" lon="2.83131">
        <ele>241</ele>
        <time>2012-01-06T07:34:54Z</time>
        <course>352.581754453018</course>
        <speed>8.31885082552725</speed>
      </trkpt>
      <trkpt lat="43.52756" lon="2.83171">
        <ele>240</ele>
        <time>2012-01-06T07:35:31Z</time>
        <course>341.593672433779</course>
        <speed>8.32850271900685</speed>
      </trkpt>
      <trkpt lat="43.52783" lon="2.83181">
        <ele>239</ele>
        <time>2012-01-06T07:35:34Z</time>
        <course>326.946093449486</course>
        <speed>8.30964698838564</speed>
      </trkpt>
      <trkpt lat="43.52812" lon="2.83202">
        <ele>239</ele>
        <time>2012-01-06T07:35:39Z</time>
        <course>306.564205417127</course>
        <speed>8.32055336666397</speed>
      </trkpt>
      <trkpt lat="43.52838" lon="2.83241">
        <ele>239</ele>
        <time>2012-01-06T07:35:44Z</time>
        <course>296.591234147631</course>
        <speed>8.31771996504119</speed>
      </trkpt>
      <trkpt lat="43.52856" lon="2.83281">
        <ele>238</ele>
        <time>2012-01-06T07:35:48Z</time>
        <course>286.614579669535</course>
        <speed>8.32643799017839</speed>
      </trkpt>
      <trkpt lat="43.52867" lon="2.83322">
        <ele>238</ele>
        <time>2012-01-06T07:35:53Z</time>
        <course>275.037870725277</course>
        <speed>8.31584933402354</speed>
      </trkpt>
      <trkpt lat="43.52872" lon="2.83385">
        <ele>238</ele>
        <time>2012-01-06T07:35:59Z</time>
        <course>261.79658106424</course>
        <speed>8.32091392604225</speed>
      </trkpt>
      <trkpt lat="43.52861" lon="2.8347">
        <ele>236</ele>
        <time>2012-01-06T07:36:07Z</time>
        <course>246.421239333704</course>
        <speed>8.31203609101662</speed>
      </trkpt>
      <trkpt lat="43.52841" lon="2.83521">
        <ele>236</ele>
        <time>2012-01-06T07:36:13Z</time>
        <course>236.638947254885</course>
        <speed>6.55087465999287</speed>
      </trkpt>
      <trkpt lat="43.52786" lon="2.83614">
        <ele>237</ele>
        <time>2012-01-06T07:36:28Z</time>
        <course>224.94492516564</course>
        <speed>6.55221697375147</speed>
      </trkpt>
      <trkpt lat="43.5275" lon="2.83654">
        <ele>238</ele>
        <time>2012-01-06T07:36:35Z</time>
        <course>216.519270231203</course>
        <speed>6.08865789185038</speed>
      </trkpt>
      <trkpt lat="43.52693" lon="2.83701">
        <ele>239</ele>
        <time>2012-01-06T07:36:47Z</time>
        <course>202.735934000994</course>
        <speed>6.08867742051229</speed>
      </trkpt>
      <trkpt lat="43.52663" lon="2.83715">
        <ele>240</ele>
        <time>2012-01-06T07:36:53Z</time>
        <course>196.38663957197</course>
        <speed>8.31999613909046</speed>
      </trkpt>
      <trkpt lat="43.52483" lon="2.83774">
        <ele>236</ele>
        <time>2012-01-06T07:37:18Z</time>
        <course>207.445624036599</course>
        <speed>8.32639049804262</speed>
      </trkpt>
      <trkpt lat="43.52464" lon="2.83785">
        <ele>236</ele>
        <time>2012-01-06T07:37:21Z</time>
        <course>223.005134659153</course>
        <speed>8.3162751566437</speed>
      </trkpt>
      <trkpt lat="43.52365" lon="2.83888">
        <ele>236</ele>
        <time>2012-01-06T07:37:37Z</time>
        <course>231.73852470332</course>
        <speed>6.39852477239009</speed>
      </trkpt>
      <trkpt lat="43.52324" lon="2.83946">
        <ele>236</ele>
        <time>2012-01-06T07:37:48Z</time>
        <course>243.618160040192</course>
        <speed>6.40102709617916</speed>
      </trkpt>
      <trkpt lat="43.52292" lon="2.84018">
        <ele>238</ele>
        <time>2012-01-06T07:37:58Z</time>
        <course>249.596196283512</course>
        <speed>8.31366413198339</speed>
      </trkpt>
      <trkpt lat="43.52282" lon="2.84048">
        <ele>237</ele>
        <time>2012-01-06T07:38:01Z</time>
        <course>265.74419154291</course>
        <speed>8.31297633107768</speed>
      </trkpt>
      <trkpt lat="43.52281" lon="2.84063">
        <ele>237</ele>
        <time>2012-01-06T07:38:03Z</time>
        <course>276.94102788984</course>
        <speed>8.31740094891689</speed>
      </trkpt>
      <trkpt lat="43.52295" lon="2.84191">
        <ele>235</ele>
        <time>2012-01-06T07:38:15Z</time>
        <course>287.516102857843</course>
        <speed>6.02381821551911</speed>
      </trkpt>
      <trkpt lat="43.5231" lon="2.84244">
        <ele>235</ele>
        <time>2012-01-06T07:38:23Z</time>
        <course>309.913260533766</course>
        <speed>6.02183060695509</speed>
      </trkpt>
      <trkpt lat="43.52331" lon="2.84272">
        <ele>236</ele>
        <time>2012-01-06T07:38:28Z</time>
        <course>325.661598209063</course>
        <speed>6.03154108278707</speed>
      </trkpt>
      <trkpt lat="43.52352" lon="2.84288">
        <ele>237</ele>
        <time>2012-01-06T07:38:33Z</time>
        <course>344.446184713259</course>
        <speed>6.38272729558603</speed>
      </trkpt>
      <trkpt lat="43.5241" lon="2.84306">
        <ele>238</ele>
        <time>2012-01-06T07:38:43Z</time>
        <course>331.266521317553</course>
        <speed>6.38440781553398</speed>
      </trkpt>
      <trkpt lat="43.52464" lon="2.84339">
        <ele>239</ele>
        <time>2012-01-06T07:38:53Z</time>
        <course>322.575437475013</course>
        <speed>8.31939911585203</speed>
      </trkpt>
      <trkpt lat="43.5268" lon="2.84523">
        <ele>239</ele>
        <time>2012-01-06T07:39:27Z</time>
        <course>311.9979670802</course>
        <speed>8.31803213364171</speed>
      </trkpt>
      <trkpt lat="43.52962" lon="2.84871">
        <ele>229</ele>
        <time>2012-01-06T07:40:18Z</time>
        <course>292.838345756559</course>
        <speed>8.31920221254675</speed>
      </trkpt>
      <trkpt lat="43.53077" lon="2.85174">
        <ele>221</ele>
        <time>2012-01-06T07:40:51Z</time>
        <course>280.843625141458</course>
        <speed>8.30957482757843</speed>
      </trkpt>
      <trkpt lat="43.53082" lon="2.85203">
        <ele>220</ele>
        <time>2012-01-06T07:40:54Z</time>
        <course>273.172781209536</course>
        <speed>8.31745546308003</speed>
      </trkpt>
      <trkpt lat="43.53095" lon="2.85461">
        <ele>220</ele>
        <time>2012-01-06T07:41:19Z</time>
        <course>279.846397864339</course>
        <speed>8.31918791950973</speed>
      </trkpt>
      <trkpt lat="43.531" lon="2.85493">
        <ele>219</ele>
        <time>2012-01-06T07:41:22Z</time>
        <course>287.890759003352</course>
        <speed>8.32165388081279</speed>
      </trkpt>
      <trkpt lat="43.53125" lon="2.85579">
        <ele>218</ele>
        <time>2012-01-06T07:41:31Z</time>
        <course>312.999183919835</course>
        <speed>8.31833973805109</speed>
      </trkpt>
      <trkpt lat="43.53304" lon="2.85792">
        <ele>216</ele>
        <time>2012-01-06T07:42:03Z</time>
        <course>325.951632156887</course>
        <speed>4.97967835420233</speed>
      </trkpt>
      <trkpt lat="43.53344" lon="2.85822">
        <ele>217</ele>
        <time>2012-01-06T07:42:13Z</time>
        <course>317.176420945519</course>
        <speed>4.98233923739813</speed>
      </trkpt>
      <trkpt lat="43.53415" lon="2.85895">
        <ele>221</ele>
        <time>2012-01-06T07:42:33Z</time>
        <course>322.299342272062</course>
        <speed>8.31899064256858</speed>
      </trkpt>
      <trkpt lat="43.53499" lon="2.85967">
        <ele>221</ele>
        <time>2012-01-06T07:42:46Z</time>
        <course>325.576029877068</course>
        <speed>8.32478377766103</speed>
      </trkpt>
      <trkpt lat="43.53524" lon="2.85986">
        <ele>221</ele>
        <time>2012-01-06T07:42:50Z</time>
        <course>333.65540613102</course>
        <speed>8.32127803419005</speed>
      </trkpt>
      <trkpt lat="43.53575" lon="2.86014">
        <ele>221</ele>
        <time>2012-01-06T07:42:57Z</time>
        <course>347.826106314653</course>
        <speed>8.31371419590607</speed>
      </trkpt>
      <trkpt lat="43.53621" lon="2.86025">
        <ele>221</ele>
        <time>2012-01-06T07:43:03Z</time>
        <course>1.43599739201219</course>
        <speed>6.1367039672572</speed>
      </trkpt>
      <trkpt lat="43.53693" lon="2.86023">
        <ele>222</ele>
        <time>2012-01-06T07:43:16Z</time>
        <course>16.1249749354545</course>
        <speed>6.13576036933814</speed>
      </trkpt>
      <trkpt lat="43.53918" lon="2.85951">
        <ele>227</ele>
        <time>2012-01-06T07:43:58Z</time>
        <course>343.239210507836</course>
        <speed>8.30684178124124</speed>
      </trkpt>
      <trkpt lat="43.53939" lon="2.85958">
        <ele>225</ele>
        <time>2012-01-06T07:44:01Z</time>
        <course>326.914615480594</course>
        <speed>8.31991679993667</speed>
      </trkpt>
      <trkpt lat="43.53982" lon="2.85989">
        <ele>222</ele>
        <time>2012-01-06T07:44:07Z</time>
        <course>314.069964958731</course>
        <speed>8.31352657717657</speed>
      </trkpt>
      <trkpt lat="43.5401" lon="2.86021">
        <ele>220</ele>
        <time>2012-01-06T07:44:12Z</time>
        <course>293.664810156116</course>
        <speed>8.31671189403352</speed>
      </trkpt>
      <trkpt lat="43.54031" lon="2.86074">
        <ele>217</ele>
        <time>2012-01-06T07:44:18Z</time>
        <course>276.304352457169</course>
        <speed>8.32146172463565</speed>
      </trkpt>
      <trkpt lat="43.54038" lon="2.86144">
        <ele>215</ele>
        <time>2012-01-06T07:44:25Z</time>
        <course>262.042923589902</course>
        <speed>6.01016825417347</speed>
      </trkpt>
      <trkpt lat="43.54024" lon="2.86255">
        <ele>216</ele>
        <time>2012-01-06T07:44:40Z</time>
        <course>255.240960537993</course>
        <speed>6.01023528922097</speed>
      </trkpt>
      <trkpt lat="43.53962" lon="2.86516">
        <ele>221</ele>
        <time>2012-01-06T07:45:17Z</time>
        <course>268.369805998204</course>
        <speed>8.31598344868143</speed>
      </trkpt>
      <trkpt lat="43.53961" lon="2.86555">
        <ele>220</ele>
        <time>2012-01-06T07:45:21Z</time>
        <course>277.871022423434</course>
        <speed>8.31953971885185</speed>
      </trkpt>
      <trkpt lat="43.53966" lon="2.86595">
        <ele>219</ele>
        <time>2012-01-06T07:45:25Z</time>
        <course>290.243289007497</course>
        <speed>8.3117469605213</speed>
      </trkpt>
      <trkpt lat="43.53978" lon="2.86631">
        <ele>219</ele>
        <time>2012-01-06T07:45:28Z</time>
        <course>301.322613499902</course>
        <speed>8.32193297597028</speed>
      </trkpt>
      <trkpt lat="43.53989" lon="2.86651">
        <ele>219</ele>
        <time>2012-01-06T07:45:31Z</time>
        <course>322.404938461466</course>
        <speed>8.31640180493299</speed>
      </trkpt>
      <trkpt lat="43.54016" lon="2.86674">
        <ele>219</ele>
        <time>2012-01-06T07:45:35Z</time>
        <course>349.145069881677</course>
        <speed>8.31851270276899</speed>
      </trkpt>
      <trkpt lat="43.54049" lon="2.86681">
        <ele>219</ele>
        <time>2012-01-06T07:45:40Z</time>
        <course>20.0811998854191</course>
        <speed>8.31951413087311</speed>
      </trkpt>
      <trkpt lat="43.54195" lon="2.86622">
        <ele>219</ele>
        <time>2012-01-06T07:46:00Z</time>
        <course>16.088036514685</course>
        <speed>8.31587088069006</speed>
      </trkpt>
      <trkpt lat="43.54286" lon="2.86593">
        <ele>218</ele>
        <time>2012-01-06T07:46:12Z</time>
        <course>10.4323431271275</course>
        <speed>8.31486263523539</speed>
      </trkpt>
      <trkpt lat="43.54345" lon="2.86581">
        <ele>215</ele>
        <time>2012-01-06T07:46:20Z</time>
        <course>356.163290279474</course>
        <speed>8.32288526729816</speed>
      </trkpt>
      <trkpt lat="43.54372" lon="2.86583">
        <ele>215</ele>
        <time>2012-01-06T07:46:24Z</time>
        <course>339.459783406601</course>
        <speed>8.32749835639387</speed>
      </trkpt>
      <trkpt lat="43.54401" lon="2.86595">
        <ele>214</ele>
        <time>2012-01-06T07:46:28Z</time>
        <course>316.532958244353</course>
        <speed>8.31805776745994</speed>
      </trkpt>
      <trkpt lat="43.54444" lon="2.8664">
        <ele>213</ele>
        <time>2012-01-06T07:46:35Z</time>
        <course>293.576658266954</course>
        <speed>8.32293760203997</speed>
      </trkpt>
      <trkpt lat="43.54461" lon="2.86683">
        <ele>212</ele>
        <time>2012-01-06T07:46:40Z</time>
        <course>279.635264891581</course>
        <speed>8.31914817915272</speed>
      </trkpt>
      <trkpt lat="43.54467" lon="2.86722">
        <ele>212</ele>
        <time>2012-01-06T07:46:44Z</time>
        <course>269.994900893293</course>
        <speed>6.72533901762537</speed>
      </trkpt>
      <trkpt lat="43.54467" lon="2.86764">
        <ele>212</ele>
        <time>2012-01-06T07:46:49Z</time>
        <course>258.644001814222</course>
        <speed>6.72878141462538</speed>
      </trkpt>
      <trkpt lat="43.54459" lon="2.86808">
        <ele>212</ele>
        <time>2012-01-06T07:46:54Z</time>
        <course>248.816529394626</course>
        <speed>6.72410911744631</speed>
      </trkpt>
      <trkpt lat="43.54289" lon="2.87294">
        <ele>218</ele>
        <time>2012-01-06T07:47:59Z</time>
        <course>228.519771156123</course>
        <speed>8.30742966174406</speed>
      </trkpt>
      <trkpt lat="43.54269" lon="2.87319">
        <ele>215</ele>
        <time>2012-01-06T07:48:02Z</time>
        <course>205.894790710657</course>
        <speed>8.31361346109731</speed>
      </trkpt>
      <trkpt lat="43.54228" lon="2.87341">
        <ele>210</ele>
        <time>2012-01-06T07:48:08Z</time>
        <course>222.133448026874</course>
        <speed>8.33101700531124</speed>
      </trkpt>
      <trkpt lat="43.54209" lon="2.8736">
        <ele>208</ele>
        <time>2012-01-06T07:48:11Z</time>
        <course>246.143667952091</course>
        <speed>6.2160389229649</speed>
      </trkpt>
      <trkpt lat="43.54199" lon="2.87385">
        <ele>208</ele>
        <time>2012-01-06T07:48:15Z</time>
        <course>261.611721357289</course>
        <speed>6.22016572489262</speed>
      </trkpt>
      <trkpt lat="43.54195" lon="2.87415">
        <ele>208</ele>
        <time>2012-01-06T07:48:19Z</time>
        <course>277.407827024899</course>
        <speed>6.22074528449296</speed>
      </trkpt>
      <trkpt lat="43.54197" lon="2.87432">
        <ele>209</ele>
        <time>2012-01-06T07:48:21Z</time>
        <course>294.134444132486</course>
        <speed>6.21984614747324</speed>
      </trkpt>
      <trkpt lat="43.54212" lon="2.87469">
        <ele>209</ele>
        <time>2012-01-06T07:48:27Z</time>
        <course>319.583850999505</course>
        <speed>6.21407652745446</speed>
      </trkpt>
      <trkpt lat="43.54229" lon="2.87485">
        <ele>210</ele>
        <time>2012-01-06T07:48:31Z</time>
        <course>342.670671571074</course>
        <speed>3.05858176838007</speed>
      </trkpt>
      <trkpt lat="43.54258" lon="2.87495">
        <ele>212</ele>
        <time>2012-01-06T07:48:41Z</time>
        <course>1.85146288917805</course>
        <speed>3.05887214802846</speed>
      </trkpt>
      <trkpt lat="43.54314" lon="2.87493">
        <ele>218</ele>
        <time>2012-01-06T07:49:02Z</time>
        <course>352.266250854385</course>
        <speed>3.0581364233884</speed>
      </trkpt>
      <trkpt lat="43.54374" lon="2.87502">
        <ele>224</ele>
        <time>2012-01-06T07:49:24Z</time>
        <course>332.040024325846</course>
        <speed>8.31668197180531</speed>
      </trkpt>
      <trkpt lat="43.54403" lon="2.87519">
        <ele>223</ele>
        <time>2012-01-06T07:49:28Z</time>
        <course>320.752027117655</course>
        <speed>8.3179247372996</speed>
      </trkpt>
      <trkpt lat="43.54454" lon="2.87565">
        <ele>223</ele>
        <time>2012-01-06T07:49:36Z</time>
        <course>307.759576768247</course>
        <speed>8.32045734939584</speed>
      </trkpt>
      <trkpt lat="43.54494" lon="2.87622">
        <ele>220</ele>
        <time>2012-01-06T07:49:44Z</time>
        <course>303.319185844751</course>
        <speed>8.31991929871232</speed>
      </trkpt>
      <trkpt lat="43.54621" lon="2.87835">
        <ele>212</ele>
        <time>2012-01-06T07:50:10Z</time>
        <course>307.709080060303</course>
        <speed>7.29178181033903</speed>
      </trkpt>
      <trkpt lat="43.54682" lon="2.87922">
        <ele>212</ele>
        <time>2012-01-06T07:50:24Z</time>
        <course>294.674699837503</course>
        <speed>7.29825133247242</speed>
      </trkpt>
      <trkpt lat="43.54702" lon="2.8797">
        <ele>213</ele>
        <time>2012-01-06T07:50:30Z</time>
        <course>289.627252069328</course>
        <speed>8.31844755151308</speed>
      </trkpt>
      <trkpt lat="43.54724" lon="2.88038">
        <ele>211</ele>
        <time>2012-01-06T07:50:37Z</time>
        <course>284.316895531464</course>
        <speed>8.31950724795597</speed>
      </trkpt>
      <trkpt lat="43.54772" lon="2.88245">
        <ele>207</ele>
        <time>2012-01-06T07:50:58Z</time>
        <course>278.204806996773</course>
        <speed>8.32309497075455</speed>
      </trkpt>
      <trkpt lat="43.54783" lon="2.88329">
        <ele>205</ele>
        <time>2012-01-06T07:51:06Z</time>
        <course>288.565662162649</course>
        <speed>8.31697540828546</speed>
      </trkpt>
      <trkpt lat="43.54848" lon="2.88542">
        <ele>200</ele>
        <time>2012-01-06T07:51:29Z</time>
        <course>283.546203552469</course>
        <speed>8.32167795157637</speed>
      </trkpt>
      <trkpt lat="43.54862" lon="2.88606">
        <ele>198</ele>
        <time>2012-01-06T07:51:35Z</time>
        <course>268.957669429649</course>
        <speed>8.31491603363776</speed>
      </trkpt>
      <trkpt lat="43.54861" lon="2.88667">
        <ele>197</ele>
        <time>2012-01-06T07:51:41Z</time>
        <course>260.401396174524</course>
        <speed>8.31637869371202</speed>
      </trkpt>
      <trkpt lat="43.54831" lon="2.88863">
        <ele>194</ele>
        <time>2012-01-06T07:52:01Z</time>
        <course>264.97590163969</course>
        <speed>8.31699322302982</speed>
      </trkpt>
      <trkpt lat="43.54819" lon="2.89014">
        <ele>192</ele>
        <time>2012-01-06T07:52:15Z</time>
        <course>272.919078571999</course>
        <speed>8.32061957945627</speed>
      </trkpt>
      <trkpt lat="43.54828" lon="2.89207">
        <ele>190</ele>
        <time>2012-01-06T07:52:34Z</time>
        <course>279.173427815489</course>
        <speed>4.91848344280184</speed>
      </trkpt>
      <trkpt lat="43.54839" lon="2.89282">
        <ele>192</ele>
        <time>2012-01-06T07:52:46Z</time>
        <course>284.494765546816</course>
        <speed>4.91869436524519</speed>
      </trkpt>
      <trkpt lat="43.5487" lon="2.89414">
        <ele>196</ele>
        <time>2012-01-06T07:53:09Z</time>
        <course>277.526805730295</course>
        <speed>5.36366043833489</speed>
      </trkpt>
      <trkpt lat="43.54876" lon="2.89464">
        <ele>197</ele>
        <time>2012-01-06T07:53:17Z</time>
        <course>266.392708171635</course>
        <speed>5.36545417025249</speed>
      </trkpt>
      <trkpt lat="43.54874" lon="2.89499">
        <ele>197</ele>
        <time>2012-01-06T07:53:22Z</time>
        <course>257.464475986355</course>
        <speed>5.36211499287689</speed>
      </trkpt>
      <trkpt lat="43.54847" lon="2.89633">
        <ele>201</ele>
        <time>2012-01-06T07:53:43Z</time>
        <course>267.418463277234</course>
        <speed>8.32138462503146</speed>
      </trkpt>
      <trkpt lat="43.54845" lon="2.89682">
        <ele>201</ele>
        <time>2012-01-06T07:53:48Z</time>
        <course>282.983940158236</course>
        <speed>8.3248917512272</speed>
      </trkpt>
      <trkpt lat="43.54854" lon="2.89725">
        <ele>201</ele>
        <time>2012-01-06T07:53:52Z</time>
        <course>299.680094548075</course>
        <speed>8.31704757911106</speed>
      </trkpt>
      <trkpt lat="43.54869" lon="2.89754">
        <ele>201</ele>
        <time>2012-01-06T07:53:56Z</time>
        <course>318.934461821899</course>
        <speed>8.31522749015673</speed>
      </trkpt>
      <trkpt lat="43.54894" lon="2.89778">
        <ele>200</ele>
        <time>2012-01-06T07:54:00Z</time>
        <course>329.357272704296</course>
        <speed>8.3178797520461</speed>
      </trkpt>
      <trkpt lat="43.55055" lon="2.89883">
        <ele>200</ele>
        <time>2012-01-06T07:54:23Z</time>
        <course>314.731865974255</course>
        <speed>8.32441726314942</speed>
      </trkpt>
      <trkpt lat="43.55091" lon="2.89923">
        <ele>199</ele>
        <time>2012-01-06T07:54:30Z</time>
        <course>300.413598007121</course>
        <speed>8.30949631753736</speed>
      </trkpt>
      <trkpt lat="43.55107" lon="2.89953">
        <ele>199</ele>
        <time>2012-01-06T07:54:33Z</time>
        <course>290.572607205666</course>
        <speed>8.31434215437224</speed>
      </trkpt>
      <trkpt lat="43.55136" lon="2.90038">
        <ele>199</ele>
        <time>2012-01-06T07:54:42Z</time>
        <course>284.833482616005</course>
        <speed>8.31674676533863</speed>
      </trkpt>
      <trkpt lat="43.55149" lon="2.90092">
        <ele>196</ele>
        <time>2012-01-06T07:54:48Z</time>
        <course>265.59891255076</course>
        <speed>8.32298450057691</speed>
      </trkpt>
      <trkpt lat="43.55143" lon="2.90178">
        <ele>193</ele>
        <time>2012-01-06T07:54:56Z</time>
        <course>279.257288539951</course>
        <speed>8.3123791997961</speed>
      </trkpt>
      <trkpt lat="43.55147" lon="2.90205">
        <ele>193</ele>
        <time>2012-01-06T07:54:59Z</time>
        <course>291.807141894551</course>
        <speed>8.32887287153008</speed>
      </trkpt>
      <trkpt lat="43.55159" lon="2.90238">
        <ele>193</ele>
        <time>2012-01-06T07:55:02Z</time>
        <course>309.529584963721</course>
        <speed>8.31110629112672</speed>
      </trkpt>
      <trkpt lat="43.55186" lon="2.90274">
        <ele>193</ele>
        <time>2012-01-06T07:55:07Z</time>
        <course>333.99953779271</course>
        <speed>8.31343986344053</speed>
      </trkpt>
      <trkpt lat="43.55227" lon="2.90296">
        <ele>193</ele>
        <time>2012-01-06T07:55:13Z</time>
        <course>321.627191878204</course>
        <speed>8.31345012838529</speed>
      </trkpt>
      <trkpt lat="43.55258" lon="2.90323">
        <ele>192</ele>
        <time>2012-01-06T07:55:18Z</time>
        <course>302.082473003918</course>
        <speed>8.31779182456015</speed>
      </trkpt>
      <trkpt lat="43.55331" lon="2.90451">
        <ele>190</ele>
        <time>2012-01-06T07:55:34Z</time>
        <course>291.790491269828</course>
        <speed>8.3286697268261</speed>
      </trkpt>
      <trkpt lat="43.55343" lon="2.90484">
        <ele>189</ele>
        <time>2012-01-06T07:55:37Z</time>
        <course>281.606145126292</course>
        <speed>8.31742410772302</speed>
      </trkpt>
      <trkpt lat="43.55378" lon="2.90671">
        <ele>187</ele>
        <time>2012-01-06T07:55:56Z</time>
        <course>264.654410406045</course>
        <speed>8.32019013598708</speed>
      </trkpt>
      <trkpt lat="43.55369" lon="2.90777">
        <ele>184</ele>
        <time>2012-01-06T07:56:07Z</time>
        <course>272.462734932094</course>
        <speed>8.32618225221772</speed>
      </trkpt>
      <trkpt lat="43.55371" lon="2.90828">
        <ele>183</ele>
        <time>2012-01-06T07:56:11Z</time>
        <course>286.812163464519</course>
        <speed>8.32217186991311</speed>
      </trkpt>
      <trkpt lat="43.55393" lon="2.90908">
        <ele>181</ele>
        <time>2012-01-06T07:56:20Z</time>
        <course>301.152438978572</course>
        <speed>8.32068854745299</speed>
      </trkpt>
      <trkpt lat="43.55415" lon="2.90948">
        <ele>180</ele>
        <time>2012-01-06T07:56:25Z</time>
        <course>331.667375661073</course>
        <speed>6.42759969145061</speed>
      </trkpt>
      <trkpt lat="43.55442" lon="2.90964">
        <ele>180</ele>
        <time>2012-01-06T07:56:30Z</time>
        <course>346.500882357456</course>
        <speed>6.42632194139242</speed>
      </trkpt>
      <trkpt lat="43.55533" lon="2.90988">
        <ele>182</ele>
        <time>2012-01-06T07:56:46Z</time>
        <course>329.531467490794</course>
        <speed>8.31787355616097</speed>
      </trkpt>
      <trkpt lat="43.55677" lon="2.91081">
        <ele>178</ele>
        <time>2012-01-06T07:57:07Z</time>
        <course>9.404463513782</course>
        <speed>7.83613220060573</speed>
      </trkpt>
      <trkpt lat="43.5571" lon="2.91075">
        <ele>178</ele>
        <time>2012-01-06T07:57:12Z</time>
        <course>19.5914522792333</course>
        <speed>7.83225331248894</speed>
      </trkpt>
      <trkpt lat="43.55956" lon="2.90979">
        <ele>179</ele>
        <time>2012-01-06T07:57:48Z</time>
        <course>355.364574932105</course>
        <speed>8.32352649349529</speed>
      </trkpt>
      <trkpt lat="43.56001" lon="2.90983">
        <ele>177</ele>
        <time>2012-01-06T07:57:54Z</time>
        <course>336.181789647634</course>
        <speed>8.31512897682444</speed>
      </trkpt>
      <trkpt lat="43.56032" lon="2.90998">
        <ele>177</ele>
        <time>2012-01-06T07:57:58Z</time>
        <course>321.161887475213</course>
        <speed>8.31976354763418</speed>
      </trkpt>
      <trkpt lat="43.56066" lon="2.91028">
        <ele>176</ele>
        <time>2012-01-06T07:58:04Z</time>
        <course>302.584553312296</course>
        <speed>4.77095215457106</speed>
      </trkpt>
      <trkpt lat="43.56094" lon="2.91076">
        <ele>177</ele>
        <time>2012-01-06T07:58:14Z</time>
        <course>289.516988502204</course>
        <speed>4.76665357836179</speed>
      </trkpt>
      <trkpt lat="43.56105" lon="2.9111">
        <ele>178</ele>
        <time>2012-01-06T07:58:20Z</time>
        <course>276.523180292108</course>
        <speed>4.76881882511605</speed>
      </trkpt>
      <trkpt lat="43.56112" lon="2.91177">
        <ele>181</ele>
        <time>2012-01-06T07:58:32Z</time>
        <course>263.050851128319</course>
        <speed>8.31794831546128</speed>
      </trkpt>
      <trkpt lat="43.56105" lon="2.9124">
        <ele>179</ele>
        <time>2012-01-06T07:58:38Z</time>
        <course>250.992135061933</course>
        <speed>8.32500601262908</speed>
      </trkpt>
      <trkpt lat="43.56094" lon="2.91275">
        <ele>178</ele>
        <time>2012-01-06T07:58:42Z</time>
        <course>241.275398807754</course>
        <speed>8.32597862474453</speed>
      </trkpt>
      <trkpt lat="43.56076" lon="2.91311">
        <ele>177</ele>
        <time>2012-01-06T07:58:46Z</time>
        <course>222.371622220075</course>
        <speed>6.25796087330344</speed>
      </trkpt>
      <trkpt lat="43.56034" lon="2.91353">
        <ele>177</ele>
        <time>2012-01-06T07:58:55Z</time>
        <course>200.87693333955</course>
        <speed>6.26083815440663</speed>
      </trkpt>
      <trkpt lat="43.55979" lon="2.91376">
        <ele>179</ele>
        <time>2012-01-06T07:59:05Z</time>
        <course>207.12239086772</course>
        <speed>8.32086592164356</speed>
      </trkpt>
      <trkpt lat="43.55874" lon="2.91435">
        <ele>176</ele>
        <time>2012-01-06T07:59:20Z</time>
        <course>228.090447601197</course>
        <speed>4.84039699156816</speed>
      </trkpt>
      <trkpt lat="43.55865" lon="2.91446">
        <ele>176</ele>
        <time>2012-01-06T07:59:23Z</time>
        <course>251.990780458888</course>
        <speed>4.84308945179494</speed>
      </trkpt>
      <trkpt lat="43.55857" lon="2.91473">
        <ele>177</ele>
        <time>2012-01-06T07:59:28Z</time>
        <course>261.757664163869</course>
        <speed>4.8427506132213</speed>
      </trkpt>
      <trkpt lat="43.55845" lon="2.91564">
        <ele>180</ele>
        <time>2012-01-06T07:59:43Z</time>
        <course>256.192165025121</course>
        <speed>4.08302325436036</speed>
      </trkpt>
      <trkpt lat="43.5583" lon="2.91631">
        <ele>182</ele>
        <time>2012-01-06T07:59:57Z</time>
        <course>262.823148825538</course>
        <speed>4.08268918493827</speed>
      </trkpt>
      <trkpt lat="43.55819" lon="2.91727">
        <ele>187</ele>
        <time>2012-01-06T08:00:16Z</time>
        <course>245.477254196101</course>
        <speed>8.32101099191199</speed>
      </trkpt>
      <trkpt lat="43.55787" lon="2.91804">
        <ele>183</ele>
        <time>2012-01-06T08:00:25Z</time>
        <course>252.881269789598</course>
        <speed>8.32023434440817</speed>
      </trkpt>
      <trkpt lat="43.55764" lon="2.91886">
        <ele>180</ele>
        <time>2012-01-06T08:00:34Z</time>
        <course>259.252689247564</course>
        <speed>8.31605127806612</speed>
      </trkpt>
      <trkpt lat="43.55745" lon="2.91996">
        <ele>177</ele>
        <time>2012-01-06T08:00:45Z</time>
        <course>266.574848137188</course>
        <speed>8.32081153725946</speed>
      </trkpt>
      <trkpt lat="43.55736" lon="2.92162">
        <ele>174</ele>
        <time>2012-01-06T08:01:01Z</time>
        <course>272.672335377177</course>
        <speed>8.31869741438324</speed>
      </trkpt>
      <trkpt lat="43.55758" lon="2.92668">
        <ele>166</ele>
        <time>2012-01-06T08:01:50Z</time>
        <course>276.699918024261</course>
        <speed>8.31845367047872</speed>
      </trkpt>
      <trkpt lat="43.55764" lon="2.92724">
        <ele>165</ele>
        <time>2012-01-06T08:01:55Z</time>
        <course>282.951410087009</course>
        <speed>8.31588389555924</speed>
      </trkpt>
      <trkpt lat="43.55777" lon="2.92786">
        <ele>164</ele>
        <time>2012-01-06T08:02:01Z</time>
        <course>291.390641100065</course>
        <speed>8.31427102730853</speed>
      </trkpt>
      <trkpt lat="43.55807" lon="2.9287">
        <ele>163</ele>
        <time>2012-01-06T08:02:11Z</time>
        <course>299.884929031779</course>
        <speed>7.13149378234684</speed>
      </trkpt>
      <trkpt lat="43.55997" lon="2.93232">
        <ele>166</ele>
        <time>2012-01-06T08:03:01Z</time>
        <course>305.234971042684</course>
        <speed>8.31762145575508</speed>
      </trkpt>
      <trkpt lat="43.56026" lon="2.93277">
        <ele>165</ele>
        <time>2012-01-06T08:03:07Z</time>
        <course>311.681695326156</course>
        <speed>8.31929991555628</speed>
      </trkpt>
      <trkpt lat="43.56065" lon="2.93325">
        <ele>164</ele>
        <time>2012-01-06T08:03:14Z</time>
        <course>321.809123097172</course>
        <speed>8.32052808639993</speed>
      </trkpt>
      <trkpt lat="43.56159" lon="2.93406">
        <ele>164</ele>
        <time>2012-01-06T08:03:29Z</time>
        <course>315.715829584953</course>
        <speed>7.30831227761027</speed>
      </trkpt>
      <trkpt lat="43.56203" lon="2.93453">
        <ele>164</ele>
        <time>2012-01-06T08:03:37Z</time>
        <course>302.190955568407</course>
        <speed>7.30308853363272</speed>
      </trkpt>
      <trkpt lat="43.56249" lon="2.93533">
        <ele>165</ele>
        <time>2012-01-06T08:03:48Z</time>
        <course>306.357039246871</course>
        <speed>8.31738235686912</speed>
      </trkpt>
      <trkpt lat="43.56288" lon="2.93591">
        <ele>163</ele>
        <time>2012-01-06T08:03:56Z</time>
        <course>310.444234062988</course>
        <speed>8.3183595728693</speed>
      </trkpt>
      <trkpt lat="43.56408" lon="2.93745">
        <ele>160</ele>
        <time>2012-01-06T08:04:18Z</time>
        <course>301.884640039251</course>
        <speed>3.99377402862099</speed>
      </trkpt>
      <trkpt lat="43.56437" lon="2.93796">
        <ele>162</ele>
        <time>2012-01-06T08:04:31Z</time>
        <course>286.460190016228</course>
        <speed>3.99451390794288</speed>
      </trkpt>
      <trkpt lat="43.56467" lon="2.93907">
        <ele>168</ele>
        <time>2012-01-06T08:04:55Z</time>
        <course>275.20076059072</course>
        <speed>8.31260565650766</speed>
      </trkpt>
      <trkpt lat="43.56473" lon="2.93979">
        <ele>164</ele>
        <time>2012-01-06T08:05:02Z</time>
        <course>264.101292814314</course>
        <speed>8.32384208028567</speed>
      </trkpt>
      <trkpt lat="43.56468" lon="2.94032">
        <ele>162</ele>
        <time>2012-01-06T08:05:07Z</time>
        <course>250.51840462953</course>
        <speed>6.49259384802438</speed>
      </trkpt>
      <trkpt lat="43.56416" lon="2.94193">
        <ele>164</ele>
        <time>2012-01-06T08:05:29Z</time>
        <course>259.986893528734</course>
        <speed>5.96070886201671</speed>
      </trkpt>
      <trkpt lat="43.56411" lon="2.94224">
        <ele>164</ele>
        <time>2012-01-06T08:05:33Z</time>
        <course>269.991856174045</course>
        <speed>5.95798878406579</speed>
      </trkpt>
      <trkpt lat="43.56411" lon="2.94294">
        <ele>165</ele>
        <time>2012-01-06T08:05:43Z</time>
        <course>275.870332281538</course>
        <speed>5.95471412397445</speed>
      </trkpt>
      <trkpt lat="43.56419" lon="2.94379">
        <ele>167</ele>
        <time>2012-01-06T08:05:54Z</time>
        <course>282.691994000851</course>
        <speed>8.32153621361331</speed>
      </trkpt>
      <trkpt lat="43.56426" lon="2.94413">
        <ele>166</ele>
        <time>2012-01-06T08:05:58Z</time>
        <course>293.63449403167</course>
        <speed>8.31066052259664</speed>
      </trkpt>
      <trkpt lat="43.56438" lon="2.94443">
        <ele>165</ele>
        <time>2012-01-06T08:06:01Z</time>
        <course>308.003747678964</course>
        <speed>8.31333849668486</speed>
      </trkpt>
      <trkpt lat="43.56463" lon="2.94478">
        <ele>164</ele>
        <time>2012-01-06T08:06:06Z</time>
        <course>324.579461697011</course>
        <speed>8.31859029511153</speed>
      </trkpt>
      <trkpt lat="43.56535" lon="2.94534">
        <ele>162</ele>
        <time>2012-01-06T08:06:17Z</time>
        <course>318.551762610474</course>
        <speed>4.67911759125632</speed>
      </trkpt>
      <trkpt lat="43.56593" lon="2.9459">
        <ele>165</ele>
        <time>2012-01-06T08:06:34Z</time>
        <course>300.295842309913</course>
        <speed>4.67880609302045</speed>
      </trkpt>
      <trkpt lat="43.56647" lon="2.94691">
        <ele>169</ele>
        <time>2012-01-06T08:06:55Z</time>
        <course>292.513419679153</course>
        <speed>8.31392891218901</speed>
      </trkpt>
      <trkpt lat="43.56669" lon="2.94749">
        <ele>169</ele>
        <time>2012-01-06T08:07:01Z</time>
        <course>276.368262647409</course>
        <speed>8.32035359331247</speed>
      </trkpt>
      <trkpt lat="43.56678" lon="2.94837">
        <ele>169</ele>
        <time>2012-01-06T08:07:10Z</time>
        <course>269.109819745443</course>
        <speed>8.32256527110565</speed>
      </trkpt>
      <trkpt lat="43.56677" lon="2.94908">
        <ele>166</ele>
        <time>2012-01-06T08:07:17Z</time>
        <course>257.084348996564</course>
        <speed>8.31473766494542</speed>
      </trkpt>
      <trkpt lat="43.56664" lon="2.9497">
        <ele>164</ele>
        <time>2012-01-06T08:07:23Z</time>
        <course>246.887630937312</course>
        <speed>8.32284245761882</speed>
      </trkpt>
      <trkpt lat="43.56632" lon="2.95052">
        <ele>163</ele>
        <time>2012-01-06T08:07:32Z</time>
        <course>255.730106021261</course>
        <speed>8.32059897952718</speed>
      </trkpt>
      <trkpt lat="43.56622" lon="2.95095">
        <ele>163</ele>
        <time>2012-01-06T08:07:37Z</time>
        <course>266.866461520572</course>
        <speed>4.36252031665267</speed>
      </trkpt>
      <trkpt lat="43.5662" lon="2.95135">
        <ele>164</ele>
        <time>2012-01-06T08:07:44Z</time>
        <course>278.497536776138</course>
        <speed>4.36331046450847</speed>
      </trkpt>
      <trkpt lat="43.56633" lon="2.9523">
        <ele>168</ele>
        <time>2012-01-06T08:08:02Z</time>
        <course>268.789595665521</course>
        <speed>8.32654960600707</speed>
      </trkpt>
      <trkpt lat="43.56632" lon="2.95282">
        <ele>167</ele>
        <time>2012-01-06T08:08:07Z</time>
        <course>258.766143820322</course>
        <speed>8.31807025167113</speed>
      </trkpt>
      <trkpt lat="43.56599" lon="2.95464">
        <ele>165</ele>
        <time>2012-01-06T08:08:25Z</time>
        <course>267.300857144428</course>
        <speed>7.07067550332864</speed>
      </trkpt>
      <trkpt lat="43.56593" lon="2.95604">
        <ele>166</ele>
        <time>2012-01-06T08:08:41Z</time>
        <course>271.565167912668</course>
        <speed>3.72750512217228</speed>
      </trkpt>
      <trkpt lat="43.56596" lon="2.95723">
        <ele>171</ele>
        <time>2012-01-06T08:09:07Z</time>
        <course>276.566882925813</course>
        <speed>3.72685446764179</speed>
      </trkpt>
      <trkpt lat="43.56613" lon="2.95884">
        <ele>180</ele>
        <time>2012-01-06T08:09:42Z</time>
        <course>274.89054064223</course>
        <speed>8.31854693423589</speed>
      </trkpt>
      <trkpt lat="43.56653" lon="2.96389">
        <ele>176</ele>
        <time>2012-01-06T08:10:31Z</time>
        <course>278.99345497022</course>
        <speed>8.31913792693246</speed>
      </trkpt>
      <trkpt lat="43.56672" lon="2.9652">
        <ele>172</ele>
        <time>2012-01-06T08:10:44Z</time>
        <course>274.677180127742</course>
        <speed>8.32335306160932</speed>
      </trkpt>
      <trkpt lat="43.56678" lon="2.966">
        <ele>172</ele>
        <time>2012-01-06T08:10:52Z</time>
        <course>256.207778566043</course>
        <speed>8.31030723083693</speed>
      </trkpt>
      <trkpt lat="43.56667" lon="2.96649">
        <ele>172</ele>
        <time>2012-01-06T08:10:57Z</time>
        <course>247.490976773109</course>
        <speed>7.36021652653735</speed>
      </trkpt>
      <trkpt lat="43.56603" lon="2.96818">
        <ele>173</ele>
        <time>2012-01-06T08:11:18Z</time>
        <course>256.991544865684</course>
        <speed>8.3216096287422</speed>
      </trkpt>
      <trkpt lat="43.56584" lon="2.96908">
        <ele>172</ele>
        <time>2012-01-06T08:11:27Z</time>
        <course>266.079234989152</course>
        <speed>8.31533489943298</speed>
      </trkpt>
      <trkpt lat="43.56578" lon="2.97004">
        <ele>172</ele>
        <time>2012-01-06T08:11:36Z</time>
        <course>271.597001819913</course>
        <speed>8.32338668369004</speed>
      </trkpt>
      <trkpt lat="43.5658" lon="2.97082">
        <ele>166</ele>
        <time>2012-01-06T08:11:44Z</time>
        <course>259.30590493435</course>
        <speed>8.31653581929283</speed>
      </trkpt>
      <trkpt lat="43.56555" lon="2.97227">
        <ele>155</ele>
        <time>2012-01-06T08:11:58Z</time>
        <course>264.313393558157</course>
        <speed>8.32003090860348</speed>
      </trkpt>
      <trkpt lat="43.56548" lon="2.97304">
        <ele>153</ele>
        <time>2012-01-06T08:12:05Z</time>
        <course>277.327554775384</course>
        <speed>8.32851855613937</speed>
      </trkpt>
      <trkpt lat="43.56552" lon="2.97338">
        <ele>152</ele>
        <time>2012-01-06T08:12:09Z</time>
        <course>290.47178444586</course>
        <speed>8.31287377806972</speed>
      </trkpt>
      <trkpt lat="43.56566" lon="2.97379">
        <ele>151</ele>
        <time>2012-01-06T08:12:13Z</time>
        <course>305.280198217951</course>
        <speed>8.30362294991532</speed>
      </trkpt>
      <trkpt lat="43.56577" lon="2.97396">
        <ele>150</ele>
        <time>2012-01-06T08:12:15Z</time>
        <course>314.689689154156</course>
        <speed>8.32272282336803</speed>
      </trkpt>
      <trkpt lat="43.56596" lon="2.97417">
        <ele>150</ele>
        <time>2012-01-06T08:12:19Z</time>
        <course>329.266971486463</course>
        <speed>8.32729088015247</speed>
      </trkpt>
      <trkpt lat="43.56616" lon="2.9743">
        <ele>150</ele>
        <time>2012-01-06T08:12:22Z</time>
        <course>350.385288096038</course>
        <speed>8.31628704394321</speed>
      </trkpt>
      <trkpt lat="43.56643" lon="2.97435">
        <ele>150</ele>
        <time>2012-01-06T08:12:25Z</time>
        <course>3.08079620772158</course>
        <speed>8.31710438425325</speed>
      </trkpt>
      <trkpt lat="43.56694" lon="2.97432">
        <ele>150</ele>
        <time>2012-01-06T08:12:32Z</time>
        <course>341.901660446648</course>
        <speed>4.76125454217954</speed>
      </trkpt>
      <trkpt lat="43.56722" lon="2.97442">
        <ele>151</ele>
        <time>2012-01-06T08:12:39Z</time>
        <course>323.06429841919</course>
        <speed>4.75787396975499</speed>
      </trkpt>
      <trkpt lat="43.5675" lon="2.97465">
        <ele>152</ele>
        <time>2012-01-06T08:12:46Z</time>
        <course>304.552420563781</course>
        <speed>4.75818684604907</speed>
      </trkpt>
      <trkpt lat="43.5682" lon="2.97576">
        <ele>157</ele>
        <time>2012-01-06T08:13:11Z</time>
        <course>310.843905241596</course>
        <speed>6.24899167843787</speed>
      </trkpt>
      <trkpt lat="43.56858" lon="2.97624">
        <ele>157</ele>
        <time>2012-01-06T08:13:20Z</time>
        <course>291.025350280989</course>
        <speed>6.24937381774346</speed>
      </trkpt>
      <trkpt lat="43.56883" lon="2.97695">
        <ele>159</ele>
        <time>2012-01-06T08:13:31Z</time>
        <course>299.277017380802</course>
        <speed>2.553310160274</speed>
      </trkpt>
      <trkpt lat="43.56902" lon="2.97732">
        <ele>163</ele>
        <time>2012-01-06T08:13:45Z</time>
        <course>315.878745035683</course>
        <speed>2.55187051244717</speed>
      </trkpt>
      <trkpt lat="43.56919" lon="2.9775">
        <ele>165</ele>
        <time>2012-01-06T08:13:54Z</time>
        <course>345.33346572056</course>
        <speed>2.5524802835988</speed>
      </trkpt>
      <trkpt lat="43.56954" lon="2.9776">
        <ele>170</ele>
        <time>2012-01-06T08:14:10Z</time>
        <course>333.355572883738</course>
        <speed>2.5526061246075</speed>
      </trkpt>
      <trkpt lat="43.56996" lon="2.97783">
        <ele>176</ele>
        <time>2012-01-06T08:14:30Z</time>
        <course>312.413814707924</course>
        <speed>6.0460805142764</speed>
      </trkpt>
      <trkpt lat="43.57032" lon="2.97826">
        <ele>176</ele>
        <time>2012-01-06T08:14:38Z</time>
        <course>279.113460422571</course>
        <speed>6.04576589107499</speed>
      </trkpt>
      <trkpt lat="43.57037" lon="2.9786">
        <ele>177</ele>
        <time>2012-01-06T08:14:43Z</time>
        <course>259.689548388585</course>
        <speed>6.04480086597216</speed>
      </trkpt>
      <trkpt lat="43.57034" lon="2.97878">
        <ele>177</ele>
        <time>2012-01-06T08:14:45Z</time>
        <course>245.800548951877</course>
        <speed>6.05482574882514</speed>
      </trkpt>
      <trkpt lat="43.57027" lon="2.97895">
        <ele>178</ele>
        <time>2012-01-06T08:14:48Z</time>
        <course>228.870315211988</course>
        <speed>6.04967327745092</speed>
      </trkpt>
      <trkpt lat="43.56995" lon="2.97935">
        <ele>179</ele>
        <time>2012-01-06T08:14:56Z</time>
        <course>252.335112862763</course>
        <speed>5.06180547975088</speed>
      </trkpt>
      <trkpt lat="43.56981" lon="2.97983">
        <ele>180</ele>
        <time>2012-01-06T08:15:04Z</time>
        <course>262.82231258886</course>
        <speed>5.05861727723771</speed>
      </trkpt>
      <trkpt lat="43.56965" lon="2.98122">
        <ele>184</ele>
        <time>2012-01-06T08:15:26Z</time>
        <course>268.305810910791</course>
        <speed>4.20446077223614</speed>
      </trkpt>
      <trkpt lat="43.56964" lon="2.98159">
        <ele>185</ele>
        <time>2012-01-06T08:15:34Z</time>
        <course>278.858807138514</course>
        <speed>4.20310280153034</speed>
      </trkpt>
      <trkpt lat="43.5697" lon="2.98201">
        <ele>187</ele>
        <time>2012-01-06T08:15:42Z</time>
        <course>261.891120084691</course>
        <speed>4.20449056945528</speed>
      </trkpt>
      <trkpt lat="43.56964" lon="2.98247">
        <ele>189</ele>
        <time>2012-01-06T08:15:51Z</time>
        <course>253.578909740983</course>
        <speed>5.97408793227185</speed>
      </trkpt>
      <trkpt lat="43.56947" lon="2.9831">
        <ele>190</ele>
        <time>2012-01-06T08:16:00Z</time>
        <course>243.327805859642</course>
        <speed>5.97534715636726</speed>
      </trkpt>
      <trkpt lat="43.56924" lon="2.9836">
        <ele>191</ele>
        <time>2012-01-06T08:16:08Z</time>
        <course>227.397221871223</course>
        <speed>7.17255957991142</speed>
      </trkpt>
      <trkpt lat="43.56892" lon="2.98398">
        <ele>191</ele>
        <time>2012-01-06T08:16:14Z</time>
        <course>219.432351290651</course>
        <speed>7.17655247651145</speed>
      </trkpt>
      <trkpt lat="43.56833" lon="2.98451">
        <ele>192</ele>
        <time>2012-01-06T08:16:25Z</time>
        <course>231.300768819051</course>
        <speed>4.55783980967111</speed>
      </trkpt>
      <trkpt lat="43.56811" lon="2.98481">
        <ele>193</ele>
        <time>2012-01-06T08:16:33Z</time>
        <course>251.415242928357</course>
        <speed>4.56221772493211</speed>
      </trkpt>
      <trkpt lat="43.56795" lon="2.98533">
        <ele>195</ele>
        <time>2012-01-06T08:16:43Z</time>
        <course>274.891321366694</course>
        <speed>4.55865319049544</speed>
      </trkpt>
      <trkpt lat="43.56799" lon="2.98584">
        <ele>197</ele>
        <time>2012-01-06T08:16:52Z</time>
        <course>294.076944018222</course>
        <speed>5.91310225513447</speed>
      </trkpt>
      <trkpt lat="43.56808" lon="2.98606">
        <ele>197</ele>
        <time>2012-01-06T08:16:55Z</time>
        <course>315.138276659048</course>
        <speed>5.91491282405332</speed>
      </trkpt>
      <trkpt lat="43.56831" lon="2.98631">
        <ele>198</ele>
        <time>2012-01-06T08:17:01Z</time>
        <course>333.259333120751</course>
        <speed>5.91436888893606</speed>
      </trkpt>
      <trkpt lat="43.56951" lon="2.98697">
        <ele>201</ele>
        <time>2012-01-06T08:17:25Z</time>
        <course>325.342808315771</course>
        <speed>8.3197506557282</speed>
      </trkpt>
      <trkpt lat="43.57069" lon="2.98786">
        <ele>201</ele>
        <time>2012-01-06T08:17:43Z</time>
        <course>319.027594011868</course>
        <speed>8.31420494434095</speed>
      </trkpt>
      <trkpt lat="43.57107" lon="2.98822">
        <ele>199</ele>
        <time>2012-01-06T08:17:49Z</time>
        <course>304.512216888181</course>
        <speed>8.32054434043268</speed>
      </trkpt>
      <trkpt lat="43.57136" lon="2.98868">
        <ele>197</ele>
        <time>2012-01-06T08:17:55Z</time>
        <course>295.507581097098</course>
        <speed>8.31361594864776</speed>
      </trkpt>
      <trkpt lat="43.5715" lon="2.989">
        <ele>196</ele>
        <time>2012-01-06T08:17:59Z</time>
        <course>286.691949536653</course>
        <speed>8.32003068261423</speed>
      </trkpt>
      <trkpt lat="43.57161" lon="2.9894">
        <ele>194</ele>
        <time>2012-01-06T08:18:03Z</time>
        <course>282.63573187446</course>
        <speed>8.32056985513446</speed>
      </trkpt>
      <trkpt lat="43.57196" lon="2.9911">
        <ele>188</ele>
        <time>2012-01-06T08:18:20Z</time>
        <course>286.779362507143</course>
        <speed>8.31666581908306</speed>
      </trkpt>
      <trkpt lat="43.57209" lon="2.99157">
        <ele>186</ele>
        <time>2012-01-06T08:18:25Z</time>
        <course>289.083755294378</course>
        <speed>8.32060313681042</speed>
      </trkpt>
      <trkpt lat="43.57263" lon="2.99327">
        <ele>179</ele>
        <time>2012-01-06T08:18:43Z</time>
        <course>293.466921860824</course>
        <speed>8.32016252560203</speed>
      </trkpt>
      <trkpt lat="43.57318" lon="2.99465">
        <ele>176</ele>
        <time>2012-01-06T08:18:58Z</time>
        <course>296.024316083763</course>
        <speed>8.31948569000154</speed>
      </trkpt>
      <trkpt lat="43.5737" lon="2.99581">
        <ele>176</ele>
        <time>2012-01-06T08:19:11Z</time>
        <course>300.622157599705</course>
        <speed>8.31873677944997</speed>
      </trkpt>
      <trkpt lat="43.5742" lon="2.99673">
        <ele>174</ele>
        <time>2012-01-06T08:19:22Z</time>
        <course>306.477223410472</course>
        <speed>8.31827303132541</speed>
      </trkpt>
      <trkpt lat="43.57562" lon="2.99882">
        <ele>170</ele>
        <time>2012-01-06T08:19:50Z</time>
        <course>301.665417980054</course>
        <speed>2.67082853278247</speed>
      </trkpt>
      <trkpt lat="43.57596" lon="2.99942">
        <ele>176</ele>
        <time>2012-01-06T08:20:13Z</time>
        <course>292.783654568952</course>
        <speed>2.67173441165887</speed>
      </trkpt>
      <trkpt lat="43.57618" lon="2.99999">
        <ele>182</ele>
        <time>2012-01-06T08:20:32Z</time>
        <course>284.669478546475</course>
        <speed>4.88040444997143</speed>
      </trkpt>
      <trkpt lat="43.57739" lon="3.005">
        <ele>197</ele>
        <time>2012-01-06T08:22:00Z</time>
        <course>275.177802467409</course>
        <speed>4.8018393884801</speed>
      </trkpt>
      <trkpt lat="43.57741" lon="3.00524">
        <ele>197</ele>
        <time>2012-01-06T08:22:04Z</time>
        <course>287.442767180341</course>
        <speed>4.79924135743167</speed>
      </trkpt>
      <trkpt lat="43.57789" lon="3.0069">
        <ele>203</ele>
        <time>2012-01-06T08:22:34Z</time>
        <course>297.478259729557</course>
        <speed>4.32892326813293</speed>
      </trkpt>
      <trkpt lat="43.57811" lon="3.00736">
        <ele>205</ele>
        <time>2012-01-06T08:22:44Z</time>
        <course>310.28584229976</course>
        <speed>4.32904689814769</speed>
      </trkpt>
      <trkpt lat="43.57896" lon="3.00845">
        <ele>211</ele>
        <time>2012-01-06T08:23:14Z</time>
        <course>299.54192614732</course>
        <speed>5.11907627746087</speed>
      </trkpt>
      <trkpt lat="43.5798" lon="3.01006">
        <ele>216</ele>
        <time>2012-01-06T08:23:45Z</time>
        <course>288.984524250649</course>
        <speed>5.31361739799503</speed>
      </trkpt>
      <trkpt lat="43.57999" lon="3.01066">
        <ele>217</ele>
        <time>2012-01-06T08:23:55Z</time>
        <course>313.745985382828</course>
        <speed>5.31235399968879</speed>
      </trkpt>
      <trkpt lat="43.58036" lon="3.01108">
        <ele>219</ele>
        <time>2012-01-06T08:24:05Z</time>
        <course>299.101503450264</course>
        <speed>5.33716939272936</speed>
      </trkpt>
      <trkpt lat="43.58077" lon="3.01188">
        <ele>221</ele>
        <time>2012-01-06T08:24:20Z</time>
        <course>285.379149722021</course>
        <speed>5.33418959574714</speed>
      </trkpt>
      <trkpt lat="43.58096" lon="3.01263">
        <ele>223</ele>
        <time>2012-01-06T08:24:32Z</time>
        <course>269.997649829845</course>
        <speed>8.32711426981924</speed>
      </trkpt>
      <trkpt lat="43.58096" lon="3.01284">
        <ele>222</ele>
        <time>2012-01-06T08:24:34Z</time>
        <course>254.175156845899</course>
        <speed>8.30289553058823</speed>
      </trkpt>
      <trkpt lat="43.5809" lon="3.01307">
        <ele>222</ele>
        <time>2012-01-06T08:24:36Z</time>
        <course>233.235549687811</course>
        <speed>8.31673608633646</speed>
      </trkpt>
      <trkpt lat="43.58046" lon="3.01371">
        <ele>221</ele>
        <time>2012-01-06T08:24:44Z</time>
        <course>242.63988459614</course>
        <speed>8.32485368041994</speed>
      </trkpt>
      <trkpt lat="43.58036" lon="3.01392">
        <ele>220</ele>
        <time>2012-01-06T08:24:47Z</time>
        <course>257.732138624798</course>
        <speed>8.32304317169425</speed>
      </trkpt>
      <trkpt lat="43.58024" lon="3.01452">
        <ele>220</ele>
        <time>2012-01-06T08:24:53Z</time>
        <course>247.509575376415</course>
        <speed>8.30399312998887</speed>
      </trkpt>
      <trkpt lat="43.58016" lon="3.01473">
        <ele>220</ele>
        <time>2012-01-06T08:24:55Z</time>
        <course>230.948422449639</course>
        <speed>8.31967429989184</speed>
      </trkpt>
      <trkpt lat="43.57922" lon="3.01599">
        <ele>220</ele>
        <time>2012-01-06T08:25:13Z</time>
        <course>246.736710738689</course>
        <speed>8.31925389032103</speed>
      </trkpt>
      <trkpt lat="43.57905" lon="3.01642">
        <ele>219</ele>
        <time>2012-01-06T08:25:17Z</time>
        <course>265.500279953085</course>
        <speed>8.31762616798803</speed>
      </trkpt>
      <trkpt lat="43.57874" lon="3.02075">
        <ele>214</ele>
        <time>2012-01-06T08:26:00Z</time>
        <course>267.503919153011</course>
        <speed>8.311447215815</speed>
      </trkpt>
      <trkpt lat="43.57872" lon="3.02125">
        <ele>213</ele>
        <time>2012-01-06T08:26:04Z</time>
        <course>276.202294938492</course>
        <speed>8.3203150538641</speed>
      </trkpt>
      <trkpt lat="43.57875" lon="3.02155">
        <ele>213</ele>
        <time>2012-01-06T08:26:07Z</time>
        <course>287.726253840346</course>
        <speed>8.32088569115641</speed>
      </trkpt>
      <trkpt lat="43.57895" lon="3.02223">
        <ele>213</ele>
        <time>2012-01-06T08:26:14Z</time>
        <course>304.194944534808</course>
        <speed>8.33856441274881</speed>
      </trkpt>
      <trkpt lat="43.57905" lon="3.02239">
        <ele>213</ele>
        <time>2012-01-06T08:26:16Z</time>
        <course>314.520996228817</course>
        <speed>8.32200069964613</speed>
      </trkpt>
      <trkpt lat="43.57943" lon="3.02281">
        <ele>213</ele>
        <time>2012-01-06T08:26:23Z</time>
        <course>320.221676930073</course>
        <speed>8.31617243730584</speed>
      </trkpt>
      <trkpt lat="43.57985" lon="3.02319">
        <ele>213</ele>
        <time>2012-01-06T08:26:30Z</time>
        <course>283.369697963878</course>
        <speed>8.33058760161029</speed>
      </trkpt>
      <trkpt lat="43.57992" lon="3.02351">
        <ele>212</ele>
        <time>2012-01-06T08:26:33Z</time>
        <course>267.292076610565</course>
        <speed>8.31730421780005</speed>
      </trkpt>
      <trkpt lat="43.57991" lon="3.02374">
        <ele>212</ele>
        <time>2012-01-06T08:26:35Z</time>
        <course>247.593046375521</course>
        <speed>8.31249065613462</speed>
      </trkpt>
      <trkpt lat="43.5798" lon="3.02403">
        <ele>212</ele>
        <time>2012-01-06T08:26:38Z</time>
        <course>224.347900448094</course>
        <speed>8.30956003930489</speed>
      </trkpt>
      <trkpt lat="43.57964" lon="3.0242">
        <ele>212</ele>
        <time>2012-01-06T08:26:41Z</time>
        <course>204.327229646315</course>
        <speed>8.31666197957809</speed>
      </trkpt>
      <trkpt lat="43.57844" lon="3.02479">
        <ele>211</ele>
        <time>2012-01-06T08:26:58Z</time>
        <course>227.009469432952</course>
        <speed>7.12610995448052</speed>
      </trkpt>
      <trkpt lat="43.57832" lon="3.02493">
        <ele>211</ele>
        <time>2012-01-06T08:27:00Z</time>
        <course>242.358347218403</course>
        <speed>7.13043820175445</speed>
      </trkpt>
      <trkpt lat="43.57819" lon="3.0252">
        <ele>211</ele>
        <time>2012-01-06T08:27:04Z</time>
        <course>260.729750403898</course>
        <speed>7.13290180937097</speed>
      </trkpt>
      <trkpt lat="43.57813" lon="3.0256">
        <ele>211</ele>
        <time>2012-01-06T08:27:09Z</time>
        <course>273.455794769713</course>
        <speed>7.1237275134812</speed>
      </trkpt>
      <trkpt lat="43.57814" lon="3.02578">
        <ele>211</ele>
        <time>2012-01-06T08:27:11Z</time>
        <course>288.237283912299</course>
        <speed>7.12751259166133</speed>
      </trkpt>
      <trkpt lat="43.57824" lon="3.02611">
        <ele>212</ele>
        <time>2012-01-06T08:27:15Z</time>
        <course>295.498781025207</course>
        <speed>8.31817063162911</speed>
      </trkpt>
      <trkpt lat="43.57958" lon="3.02916">
        <ele>207</ele>
        <time>2012-01-06T08:27:49Z</time>
        <course>291.57633924975</course>
        <speed>8.31668231000147</speed>
      </trkpt>
      <trkpt lat="43.58017" lon="3.03078">
        <ele>199</ele>
        <time>2012-01-06T08:28:07Z</time>
        <course>282.440568258999</course>
        <speed>8.31989207073125</speed>
      </trkpt>
      <trkpt lat="43.58042" lon="3.03201">
        <ele>197</ele>
        <time>2012-01-06T08:28:19Z</time>
        <course>275.164385524357</course>
        <speed>8.32061918792804</speed>
      </trkpt>
      <trkpt lat="43.58049" lon="3.03285">
        <ele>189</ele>
        <time>2012-01-06T08:28:27Z</time>
        <course>268.813680652461</course>
        <speed>8.31917952456249</speed>
      </trkpt>
      <trkpt lat="43.58047" lon="3.03391">
        <ele>181</ele>
        <time>2012-01-06T08:28:38Z</time>
        <course>262.913475092519</course>
        <speed>8.31548455365595</speed>
      </trkpt>
      <trkpt lat="43.58039" lon="3.03461">
        <ele>181</ele>
        <time>2012-01-06T08:28:45Z</time>
        <course>257.876709572977</course>
        <speed>8.32297488545762</speed>
      </trkpt>
      <trkpt lat="43.58023" lon="3.03542">
        <ele>181</ele>
        <time>2012-01-06T08:28:53Z</time>
        <course>252.997899372549</course>
        <speed>8.32294083858913</speed>
      </trkpt>
      <trkpt lat="43.58005" lon="3.03606">
        <ele>179</ele>
        <time>2012-01-06T08:28:59Z</time>
        <course>251.53863570612</course>
        <speed>8.31866175299286</speed>
      </trkpt>
      <trkpt lat="43.57884" lon="3.04001">
        <ele>173</ele>
        <time>2012-01-06T08:29:41Z</time>
        <course>236.119612043376</course>
        <speed>5.82753760253315</speed>
      </trkpt>
      <trkpt lat="43.57834" lon="3.04082">
        <ele>174</ele>
        <time>2012-01-06T08:29:56Z</time>
        <course>252.731029957695</course>
        <speed>5.83060880975404</speed>
      </trkpt>
      <trkpt lat="43.57816" lon="3.04145">
        <ele>176</ele>
        <time>2012-01-06T08:30:05Z</time>
        <course>249.218213189196</course>
        <speed>7.62059361010813</speed>
      </trkpt>
      <trkpt lat="43.57731" lon="3.04389">
        <ele>177</ele>
        <time>2012-01-06T08:30:33Z</time>
        <course>243.073157875222</course>
        <speed>8.3146331927169</speed>
      </trkpt>
      <trkpt lat="43.57703" lon="3.04449">
        <ele>175</ele>
        <time>2012-01-06T08:30:40Z</time>
        <course>237.492489846306</course>
        <speed>8.3202488596469</speed>
      </trkpt>
      <trkpt lat="43.57655" lon="3.04531">
        <ele>173</ele>
        <time>2012-01-06T08:30:51Z</time>
        <course>243.894998080529</course>
        <speed>8.31756931746469</speed>
      </trkpt>
      <trkpt lat="43.57548" lon="3.04769">
        <ele>170</ele>
        <time>2012-01-06T08:31:18Z</time>
        <course>249.082908830795</course>
        <speed>8.31732523034963</speed>
      </trkpt>
      <trkpt lat="43.57528" lon="3.04826">
        <ele>169</ele>
        <time>2012-01-06T08:31:24Z</time>
        <course>267.4494570254</course>
        <speed>8.31769411120637</speed>
      </trkpt>
      <trkpt lat="43.57526" lon="3.04875">
        <ele>169</ele>
        <time>2012-01-06T08:31:29Z</time>
        <course>279.507640546724</course>
        <speed>8.32588582027637</speed>
      </trkpt>
      <trkpt lat="43.5753" lon="3.04901">
        <ele>169</ele>
        <time>2012-01-06T08:31:31Z</time>
        <course>290.518179315666</course>
        <speed>6.15847204937841</speed>
      </trkpt>
      <trkpt lat="43.57541" lon="3.04933">
        <ele>169</ele>
        <time>2012-01-06T08:31:36Z</time>
        <course>304.587096265412</course>
        <speed>6.1688890492951</speed>
      </trkpt>
      <trkpt lat="43.5756" lon="3.04963">
        <ele>170</ele>
        <time>2012-01-06T08:31:41Z</time>
        <course>315.791480120154</course>
        <speed>6.16386785765725</speed>
      </trkpt>
      <trkpt lat="43.5768" lon="3.0509">
        <ele>173</ele>
        <time>2012-01-06T08:32:08Z</time>
        <course>309.028925182886</course>
        <speed>8.31841231321477</speed>
      </trkpt>
      <trkpt lat="43.57718" lon="3.05141">
        <ele>172</ele>
        <time>2012-01-06T08:32:15Z</time>
        <course>294.410073725501</course>
        <speed>8.32097467348851</speed>
      </trkpt>
      <trkpt lat="43.57766" lon="3.05256">
        <ele>172</ele>
        <time>2012-01-06T08:32:28Z</time>
        <course>288.337077402562</course>
        <speed>7.02770847773596</speed>
      </trkpt>
      <trkpt lat="43.57842" lon="3.05505">
        <ele>174</ele>
        <time>2012-01-06T08:32:59Z</time>
        <course>287.117963460749</course>
        <speed>8.32455238203307</speed>
      </trkpt>
      <trkpt lat="43.57859" lon="3.05565">
        <ele>173</ele>
        <time>2012-01-06T08:33:05Z</time>
        <course>276.079482351201</course>
        <speed>8.31898025794672</speed>
      </trkpt>
      <trkpt lat="43.57864" lon="3.05616">
        <ele>172</ele>
        <time>2012-01-06T08:33:10Z</time>
        <course>268.590189639113</course>
        <speed>8.31533335770192</speed>
      </trkpt>
      <trkpt lat="43.57862" lon="3.05705">
        <ele>171</ele>
        <time>2012-01-06T08:33:19Z</time>
        <course>274.893750902235</course>
        <speed>6.10123108775253</speed>
      </trkpt>
      <trkpt lat="43.57871" lon="3.05819">
        <ele>172</ele>
        <time>2012-01-06T08:33:34Z</time>
        <course>263.024228805172</course>
        <speed>6.10271852423748</speed>
      </trkpt>
      <trkpt lat="43.57861" lon="3.05908">
        <ele>174</ele>
        <time>2012-01-06T08:33:46Z</time>
        <course>275.551794445625</course>
        <speed>6.20978408654264</speed>
      </trkpt>
      <trkpt lat="43.57874" lon="3.06053">
        <ele>176</ele>
        <time>2012-01-06T08:34:05Z</time>
        <course>277.548847170683</course>
        <speed>8.32555186018216</speed>
      </trkpt>
      <trkpt lat="43.57879" lon="3.06094">
        <ele>175</ele>
        <time>2012-01-06T08:34:09Z</time>
        <course>283.001041361769</course>
        <speed>8.31726575537932</speed>
      </trkpt>
      <trkpt lat="43.57906" lon="3.06221">
        <ele>172</ele>
        <time>2012-01-06T08:34:22Z</time>
        <course>288.055601112561</course>
        <speed>6.24249825370438</speed>
      </trkpt>
      <trkpt lat="43.57927" lon="3.06291">
        <ele>173</ele>
        <time>2012-01-06T08:34:31Z</time>
        <course>301.844546218103</course>
        <speed>6.24076307569023</speed>
      </trkpt>
      <trkpt lat="43.57943" lon="3.06319">
        <ele>173</ele>
        <time>2012-01-06T08:34:36Z</time>
        <course>309.416055226459</course>
        <speed>6.2475771520096</speed>
      </trkpt>
      <trkpt lat="43.58002" lon="3.06397">
        <ele>175</ele>
        <time>2012-01-06T08:34:51Z</time>
        <course>310.736014642537</course>
        <speed>7.19435062459956</speed>
      </trkpt>
      <trkpt lat="43.58342" lon="3.06825">
        <ele>179</ele>
        <time>2012-01-06T08:36:02Z</time>
        <course>309.794676902742</course>
        <speed>6.32829690513976</speed>
      </trkpt>
      <trkpt lat="43.58385" lon="3.06881">
        <ele>180</ele>
        <time>2012-01-06T08:36:12Z</time>
        <course>289.881768900013</course>
        <speed>6.32893048423284</speed>
      </trkpt>
      <trkpt lat="43.58389" lon="3.06893">
        <ele>180</ele>
        <time>2012-01-06T08:36:14Z</time>
        <course>341.470249684847</course>
        <speed>6.32006358928629</speed>
      </trkpt>
      <trkpt lat="43.584" lon="3.06897">
        <ele>180</ele>
        <time>2012-01-06T08:36:16Z</time>
        <course>307.440778849549</course>
        <speed>6.32653624676179</speed>
      </trkpt>
      <trkpt lat="43.58424" lon="3.06931">
        <ele>181</ele>
        <time>2012-01-06T08:36:22Z</time>
        <course>315.416449328738</course>
        <speed>4.8985529672756</speed>
      </trkpt>
      <trkpt lat="43.58453" lon="3.06962">
        <ele>182</ele>
        <time>2012-01-06T08:36:30Z</time>
        <course>308.060741366169</course>
        <speed>4.89926669101614</speed>
      </trkpt>
      <trkpt lat="43.58518" lon="3.07052">
        <ele>186</ele>
        <time>2012-01-06T08:36:51Z</time>
        <course>302.302106034159</course>
        <speed>8.31610687180824</speed>
      </trkpt>
      <trkpt lat="43.58574" lon="3.07148">
        <ele>184</ele>
        <time>2012-01-06T08:37:03Z</time>
        <course>296.353908239288</course>
        <speed>8.31768172116181</speed>
      </trkpt>
      <trkpt lat="43.58606" lon="3.07218">
        <ele>183</ele>
        <time>2012-01-06T08:37:11Z</time>
        <course>292.785614116417</course>
        <speed>8.31503164214446</speed>
      </trkpt>
      <trkpt lat="43.58644" lon="3.07316">
        <ele>180</ele>
        <time>2012-01-06T08:37:22Z</time>
        <course>287.297255334223</course>
        <speed>8.31657302270153</speed>
      </trkpt>
      <trkpt lat="43.58667" lon="3.07396">
        <ele>178</ele>
        <time>2012-01-06T08:37:30Z</time>
        <course>284.952227345411</course>
        <speed>8.31999485112147</speed>
      </trkpt>
      <trkpt lat="43.58685" lon="3.07469">
        <ele>177</ele>
        <time>2012-01-06T08:37:37Z</time>
        <course>279.059558562734</course>
        <speed>8.32045863977446</speed>
      </trkpt>
      <trkpt lat="43.58708" lon="3.07625">
        <ele>176</ele>
        <time>2012-01-06T08:37:53Z</time>
        <course>273.038786888374</course>
        <speed>7.24138046311543</speed>
      </trkpt>
      <trkpt lat="43.5875" lon="3.08457">
        <ele>181</ele>
        <time>2012-01-06T08:39:26Z</time>
        <course>277.341508639226</course>
        <speed>8.31665177153356</speed>
      </trkpt>
      <trkpt lat="43.58768" lon="3.08608">
        <ele>181</ele>
        <time>2012-01-06T08:39:40Z</time>
        <course>281.941425641703</course>
        <speed>5.4124205653037</speed>
      </trkpt>
      <trkpt lat="43.58785" lon="3.08695">
        <ele>182</ele>
        <time>2012-01-06T08:39:54Z</time>
        <course>285.786190101086</course>
        <speed>5.41320504705786</speed>
      </trkpt>
      <trkpt lat="43.58831" lon="3.08871">
        <ele>187</ele>
        <time>2012-01-06T08:40:22Z</time>
        <course>277.808640710868</course>
        <speed>8.3232785974069</speed>
      </trkpt>
      <trkpt lat="43.5884" lon="3.08942">
        <ele>187</ele>
        <time>2012-01-06T08:40:29Z</time>
        <course>267.294621649714</course>
        <speed>8.31898104904097</speed>
      </trkpt>
      <trkpt lat="43.58815" lon="3.09529">
        <ele>187</ele>
        <time>2012-01-06T08:41:25Z</time>
        <course>272.080968239591</course>
        <speed>8.31901308437707</speed>
      </trkpt>
      <trkpt lat="43.58818" lon="3.09618">
        <ele>185</ele>
        <time>2012-01-06T08:41:34Z</time>
        <course>279.456778542149</course>
        <speed>8.32417636984282</speed>
      </trkpt>
      <trkpt lat="43.58822" lon="3.09644">
        <ele>185</ele>
        <time>2012-01-06T08:41:37Z</time>
        <course>282.215278920593</course>
        <speed>8.31950604589255</speed>
      </trkpt>
      <trkpt lat="43.58833" lon="3.09699">
        <ele>185</ele>
        <time>2012-01-06T08:41:42Z</time>
        <course>290.852259347823</course>
        <speed>8.31649251028847</speed>
      </trkpt>
      <trkpt lat="43.58852" lon="3.09753">
        <ele>184</ele>
        <time>2012-01-06T08:41:48Z</time>
        <course>296.939738882409</course>
        <speed>8.31870793218122</speed>
      </trkpt>
      <trkpt lat="43.59018" lon="3.10106">
        <ele>181</ele>
        <time>2012-01-06T08:42:29Z</time>
        <course>305.116170528397</course>
        <speed>6.64458303768549</speed>
      </trkpt>
      <trkpt lat="43.59044" lon="3.10146">
        <ele>181</ele>
        <time>2012-01-06T08:42:35Z</time>
        <course>316.226290395009</course>
        <speed>6.64625382985717</speed>
      </trkpt>
      <trkpt lat="43.59127" lon="3.10232">
        <ele>183</ele>
        <time>2012-01-06T08:42:53Z</time>
        <course>305.790403510156</course>
        <speed>5.68458450774802</speed>
      </trkpt>
      <trkpt lat="43.59149" lon="3.10265">
        <ele>183</ele>
        <time>2012-01-06T08:42:59Z</time>
        <course>297.140428068463</course>
        <speed>5.68629907883461</speed>
      </trkpt>
      <trkpt lat="43.59195" lon="3.10362">
        <ele>186</ele>
        <time>2012-01-06T08:43:15Z</time>
        <course>286.48316299471</course>
        <speed>7.6318313036336</speed>
      </trkpt>
      <trkpt lat="43.59218" lon="3.10446">
        <ele>186</ele>
        <time>2012-01-06T08:43:25Z</time>
        <course>282.247935548972</course>
        <speed>7.6319840009032</speed>
      </trkpt>
      <trkpt lat="43.59254" lon="3.10625">
        <ele>187</ele>
        <time>2012-01-06T08:43:44Z</time>
        <course>276.662032298228</course>
        <speed>6.27239081317991</speed>
      </trkpt>
      <trkpt lat="43.59258" lon="3.10662">
        <ele>187</ele>
        <time>2012-01-06T08:43:49Z</time>
        <course>266.82256604952</course>
        <speed>6.26807722573324</speed>
      </trkpt>
      <trkpt lat="43.59256" lon="3.10701">
        <ele>188</ele>
        <time>2012-01-06T08:43:54Z</time>
        <course>301.702002002977</course>
        <speed>6.26716238866442</speed>
      </trkpt>
      <trkpt lat="43.59272" lon="3.10729">
        <ele>188</ele>
        <time>2012-01-06T08:43:59Z</time>
        <course>284.356357638418</course>
        <speed>6.27211309788675</speed>
      </trkpt>
      <trkpt lat="43.59281" lon="3.10767">
        <ele>189</ele>
        <time>2012-01-06T08:44:04Z</time>
        <course>277.732522506427</course>
        <speed>8.31985964255609</speed>
      </trkpt>
      <trkpt lat="43.59299" lon="3.1091">
        <ele>186</ele>
        <time>2012-01-06T08:44:18Z</time>
        <course>276.894356594084</course>
        <speed>6.73912790036878</speed>
      </trkpt>
      <trkpt lat="43.59358" lon="3.11433">
        <ele>191</ele>
        <time>2012-01-06T08:45:21Z</time>
        <course>204.829490658542</course>
        <speed>8.2934351266758</speed>
      </trkpt>
      <trkpt lat="43.59354" lon="3.11435">
        <ele>190</ele>
        <time>2012-01-06T08:45:22Z</time>
        <course>263.152243161132</course>
        <speed>8.32706592832851</speed>
      </trkpt>
      <trkpt lat="43.59353" lon="3.11444">
        <ele>190</ele>
        <time>2012-01-06T08:45:23Z</time>
        <course>332.12992686613</course>
        <speed>8.33486907471128</speed>
      </trkpt>
      <trkpt lat="43.5936" lon="3.11448">
        <ele>190</ele>
        <time>2012-01-06T08:45:24Z</time>
        <course>276.436587183185</course>
        <speed>8.31931068809492</speed>
      </trkpt>
      <trkpt lat="43.59403" lon="3.11857">
        <ele>183</ele>
        <time>2012-01-06T08:46:04Z</time>
        <course>261.422098051047</course>
        <speed>8.31178052751468</speed>
      </trkpt>
      <trkpt lat="43.59397" lon="3.119">
        <ele>182</ele>
        <time>2012-01-06T08:46:08Z</time>
        <course>180</course>
        <speed>8.29253731457927</speed>
      </trkpt>
      <trkpt lat="43.59392" lon="3.119">
        <ele>182</ele>
        <time>2012-01-06T08:46:09Z</time>
        <course>252.84262226023</course>
        <speed>8.29587955456801</speed>
      </trkpt>
      <trkpt lat="43.59388" lon="3.11914">
        <ele>182</ele>
        <time>2012-01-06T08:46:10Z</time>
        <course>304.875410873361</course>
        <speed>8.3112810568902</speed>
      </trkpt>
      <trkpt lat="43.59408" lon="3.11945">
        <ele>182</ele>
        <time>2012-01-06T08:46:14Z</time>
        <course>289.803417836533</course>
        <speed>8.30555512752653</speed>
      </trkpt>
      <trkpt lat="43.59414" lon="3.11963">
        <ele>182</ele>
        <time>2012-01-06T08:46:16Z</time>
        <course>279.310777019351</course>
        <speed>8.31763196172608</speed>
      </trkpt>
      <trkpt lat="43.59426" lon="3.12042">
        <ele>182</ele>
        <time>2012-01-06T08:46:24Z</time>
        <course>276.655841129373</course>
        <speed>7.42838228670613</speed>
      </trkpt>
      <trkpt lat="43.59493" lon="3.12656">
        <ele>185</ele>
        <time>2012-01-06T08:47:31Z</time>
        <course>279.636226248902</course>
        <speed>8.32029424854252</speed>
      </trkpt>
      <trkpt lat="43.5951" lon="3.12764">
        <ele>185</ele>
        <time>2012-01-06T08:47:42Z</time>
        <course>272.805538031811</course>
        <speed>8.30897908515065</speed>
      </trkpt>
      <trkpt lat="43.59512" lon="3.12808">
        <ele>185</ele>
        <time>2012-01-06T08:47:46Z</time>
        <course>255.466643321927</course>
        <speed>5.59236797103124</speed>
      </trkpt>
      <trkpt lat="43.59506" lon="3.12833">
        <ele>185</ele>
        <time>2012-01-06T08:47:50Z</time>
        <course>276.162759934916</course>
        <speed>5.60276644573354</speed>
      </trkpt>
      <trkpt lat="43.59507" lon="3.12843">
        <ele>185</ele>
        <time>2012-01-06T08:47:51Z</time>
        <course>307.314155131316</course>
        <speed>5.58606353347147</speed>
      </trkpt>
      <trkpt lat="43.59531" lon="3.12877">
        <ele>186</ele>
        <time>2012-01-06T08:47:58Z</time>
        <course>290.082869743151</course>
        <speed>5.58644158254556</speed>
      </trkpt>
      <trkpt lat="43.59552" lon="3.12939">
        <ele>188</ele>
        <time>2012-01-06T08:48:08Z</time>
        <course>284.872348368591</course>
        <speed>7.87833978353405</speed>
      </trkpt>
      <trkpt lat="43.5976" lon="3.13779">
        <ele>190</ele>
        <time>2012-01-06T08:49:39Z</time>
        <course>290.55484211473</course>
        <speed>8.31964787266682</speed>
      </trkpt>
      <trkpt lat="43.598" lon="3.13894">
        <ele>190</ele>
        <time>2012-01-06T08:49:51Z</time>
        <course>296.295152055678</course>
        <speed>7.7413546721369</speed>
      </trkpt>
      <trkpt lat="43.59844" lon="3.1399">
        <ele>190</ele>
        <time>2012-01-06T08:50:03Z</time>
        <course>300.40755292833</course>
        <speed>7.73999904628486</speed>
      </trkpt>
      <trkpt lat="43.60084" lon="3.1443">
        <ele>192</ele>
        <time>2012-01-06T08:51:00Z</time>
        <course>304.993684176134</course>
        <speed>8.31768076393368</speed>
      </trkpt>
      <trkpt lat="43.60136" lon="3.1451">
        <ele>192</ele>
        <time>2012-01-06T08:51:10Z</time>
        <course>314.432595589371</course>
        <speed>8.319842589242</speed>
      </trkpt>
      <trkpt lat="43.60197" lon="3.14577">
        <ele>192</ele>
        <time>2012-01-06T08:51:21Z</time>
        <course>322.908542295371</course>
        <speed>7.99239014280627</speed>
      </trkpt>
      <trkpt lat="43.60576" lon="3.14885">
        <ele>193</ele>
        <time>2012-01-06T08:52:22Z</time>
        <course>319.265469520923</course>
        <speed>8.3229757491864</speed>
      </trkpt>
      <trkpt lat="43.60603" lon="3.1491">
        <ele>193</ele>
        <time>2012-01-06T08:52:26Z</time>
        <course>298.260328451308</course>
        <speed>8.32174290983412</speed>
      </trkpt>
      <trkpt lat="43.60613" lon="3.1493">
        <ele>193</ele>
        <time>2012-01-06T08:52:29Z</time>
        <course>341.164740553233</course>
        <speed>8.32109443982529</speed>
      </trkpt>
      <trkpt lat="43.60673" lon="3.14952">
        <ele>193</ele>
        <time>2012-01-06T08:52:37Z</time>
        <course>332.740452000581</course>
        <speed>5.21306354202017</speed>
      </trkpt>
      <trkpt lat="43.60785" lon="3.15014">
        <ele>197</ele>
        <time>2012-01-06T08:53:03Z</time>
        <course>340.873007658013</course>
        <speed>8.31400659401959</speed>
      </trkpt>
      <trkpt lat="43.60836" lon="3.15033">
        <ele>196</ele>
        <time>2012-01-06T08:53:10Z</time>
        <course>328.171677901029</course>
        <speed>8.32554274807127</speed>
      </trkpt>
      <trkpt lat="43.60875" lon="3.15059">
        <ele>196</ele>
        <time>2012-01-06T08:53:15Z</time>
        <course>336.511747512093</course>
        <speed>8.31203826028472</speed>
      </trkpt>
      <trkpt lat="43.6092" lon="3.1508">
        <ele>196</ele>
        <time>2012-01-06T08:53:22Z</time>
        <course>339.515259831955</course>
        <speed>8.31924022130121</speed>
      </trkpt>
      <trkpt lat="43.61202" lon="3.15193">
        <ele>196</ele>
        <time>2012-01-06T08:54:01Z</time>
        <course>323.283798225121</course>
        <speed>6.45415021237142</speed>
      </trkpt>
      <trkpt lat="43.61525" lon="3.15451">
        <ele>202</ele>
        <time>2012-01-06T08:55:05Z</time>
        <course>336.745413653489</course>
        <speed>5.72699558011421</speed>
      </trkpt>
      <trkpt lat="43.61638" lon="3.15503">
        <ele>205</ele>
        <time>2012-01-06T08:55:28Z</time>
        <course>347.213851222421</course>
        <speed>8.31800173562583</speed>
      </trkpt>
      <trkpt lat="43.61881" lon="3.15562">
        <ele>202</ele>
        <time>2012-01-06T08:56:01Z</time>
        <course>334.950172657834</course>
        <speed>7.36042305313141</speed>
      </trkpt>
      <trkpt lat="43.61899" lon="3.15571">
        <ele>202</ele>
        <time>2012-01-06T08:56:04Z</time>
        <course>316.097648186602</course>
        <speed>7.35072903706497</speed>
      </trkpt>
      <trkpt lat="43.61933" lon="3.15606">
        <ele>202</ele>
        <time>2012-01-06T08:56:11Z</time>
        <course>269.998881143518</course>
        <speed>7.37404430219613</speed>
      </trkpt>
      <trkpt lat="43.61933" lon="3.15617">
        <ele>202</ele>
        <time>2012-01-06T08:56:12Z</time>
        <course>351.143666793932</course>
        <speed>7.33940447106527</speed>
      </trkpt>
      <trkpt lat="43.61945" lon="3.15619">
        <ele>202</ele>
        <time>2012-01-06T08:56:14Z</time>
        <course>313.616305267912</course>
        <speed>7.34804890068589</speed>
      </trkpt>
      <trkpt lat="43.62093" lon="3.15785">
        <ele>204</ele>
        <time>2012-01-06T08:56:43Z</time>
        <course>320.503606672478</course>
        <speed>6.57402621018048</speed>
      </trkpt>
      <trkpt lat="43.62135" lon="3.15822">
        <ele>204</ele>
        <time>2012-01-06T08:56:51Z</time>
        <course>323.889057361092</course>
        <speed>6.5754372707415</speed>
      </trkpt>
      <trkpt lat="43.62505" lon="3.1611">
        <ele>211</ele>
        <time>2012-01-06T08:58:03Z</time>
        <course>314.475951503762</course>
        <speed>8.31719665734373</speed>
      </trkpt>
      <trkpt lat="43.62528" lon="3.16135">
        <ele>210</ele>
        <time>2012-01-06T08:58:07Z</time>
        <course>282.047952441669</course>
        <speed>8.34498564980458</speed>
      </trkpt>
      <trkpt lat="43.62531" lon="3.1615">
        <ele>210</ele>
        <time>2012-01-06T08:58:08Z</time>
        <course>308.674980311658</course>
        <speed>8.34777502115996</speed>
      </trkpt>
      <trkpt lat="43.62537" lon="3.16158">
        <ele>210</ele>
        <time>2012-01-06T08:58:09Z</time>
        <course>6.68035301948117</course>
        <speed>8.34197790930961</speed>
      </trkpt>
      <trkpt lat="43.62545" lon="3.16157">
        <ele>210</ele>
        <time>2012-01-06T08:58:10Z</time>
        <course>336.678687478899</course>
        <speed>8.31805680791562</speed>
      </trkpt>
      <trkpt lat="43.62595" lon="3.1618">
        <ele>210</ele>
        <time>2012-01-06T08:58:17Z</time>
        <course>323.748431348385</course>
        <speed>8.31708951863074</speed>
      </trkpt>
      <trkpt lat="43.6276" lon="3.16309">
        <ele>205</ele>
        <time>2012-01-06T08:58:43Z</time>
        <course>352.87190601154</course>
        <speed>7.34449429660052</speed>
      </trkpt>
      <trkpt lat="43.62805" lon="3.16315">
        <ele>205</ele>
        <time>2012-01-06T08:58:50Z</time>
        <course>0.449650550354886</course>
        <speed>7.3399833898582</speed>
      </trkpt>
      <trkpt lat="43.63164" lon="3.16312">
        <ele>208</ele>
        <time>2012-01-06T08:59:44Z</time>
        <course>355.191405776556</course>
        <speed>5.58432836417681</speed>
      </trkpt>
      <trkpt lat="43.63231" lon="3.16318">
        <ele>209</ele>
        <time>2012-01-06T08:59:57Z</time>
        <course>1.75932838170632</course>
        <speed>5.58493105278214</speed>
      </trkpt>
      <trkpt lat="43.63384" lon="3.16313">
        <ele>214</ele>
        <time>2012-01-06T09:00:28Z</time>
        <course>9.77903618328102</course>
        <speed>3.86530858051064</speed>
      </trkpt>
      <trkpt lat="43.63444" lon="3.16302">
        <ele>217</ele>
        <time>2012-01-06T09:00:45Z</time>
        <course>2.42583526910922</course>
        <speed>3.86618829042731</speed>
      </trkpt>
      <trkpt lat="43.63555" lon="3.16297">
        <ele>225</ele>
        <time>2012-01-06T09:01:17Z</time>
        <course>353.767562740327</course>
        <speed>8.32063674017462</speed>
      </trkpt>
      <trkpt lat="43.63667" lon="3.1631">
        <ele>224</ele>
        <time>2012-01-06T09:01:32Z</time>
        <course>343.031172785749</course>
        <speed>8.31648194130619</speed>
      </trkpt>
      <trkpt lat="43.63812" lon="3.16357">
        <ele>216</ele>
        <time>2012-01-06T09:01:52Z</time>
        <course>336.757200304241</course>
        <speed>8.31674774302352</speed>
      </trkpt>
      <trkpt lat="43.63869" lon="3.16383">
        <ele>215</ele>
        <time>2012-01-06T09:02:00Z</time>
        <course>323.009078356057</course>
        <speed>8.31068403452626</speed>
      </trkpt>
      <trkpt lat="43.63889" lon="3.16399">
        <ele>215</ele>
        <time>2012-01-06T09:02:03Z</time>
        <course>318.8091300536</course>
        <speed>8.31798965419421</speed>
      </trkpt>
      <trkpt lat="43.64181" lon="3.1667">
        <ele>213</ele>
        <time>2012-01-06T09:02:50Z</time>
        <course>318.192111108249</course>
        <speed>7.37755902468578</speed>
      </trkpt>
      <trkpt lat="43.64297" lon="3.1678">
        <ele>214</ele>
        <time>2012-01-06T09:03:11Z</time>
        <course>309.986340180262</course>
        <speed>8.31980929671378</speed>
      </trkpt>
      <trkpt lat="43.64388" lon="3.16895">
        <ele>213</ele>
        <time>2012-01-06T09:03:28Z</time>
        <course>316.668330630066</course>
        <speed>8.31288958727994</speed>
      </trkpt>
      <trkpt lat="43.64412" lon="3.16919">
        <ele>212</ele>
        <time>2012-01-06T09:03:32Z</time>
        <course>328.396238579849</course>
        <speed>8.31200387870708</speed>
      </trkpt>
      <trkpt lat="43.64435" lon="3.16934">
        <ele>212</ele>
        <time>2012-01-06T09:03:35Z</time>
        <course>341.062381790398</course>
        <speed>8.31533024325485</speed>
      </trkpt>
      <trkpt lat="43.64468" lon="3.16946">
        <ele>212</ele>
        <time>2012-01-06T09:03:40Z</time>
        <course>1.42256160613657</course>
        <speed>8.3136329748764</speed>
      </trkpt>
      <trkpt lat="43.64506" lon="3.16945">
        <ele>212</ele>
        <time>2012-01-06T09:03:45Z</time>
        <course>14.2565617318033</course>
        <speed>3.78334062226858</speed>
      </trkpt>
      <trkpt lat="43.64532" lon="3.16938">
        <ele>213</ele>
        <time>2012-01-06T09:03:52Z</time>
        <course>31.4128451180667</course>
        <speed>3.77873320335377</speed>
      </trkpt>
      <trkpt lat="43.64549" lon="3.16927">
        <ele>215</ele>
        <time>2012-01-06T09:03:58Z</time>
        <course>39.5543513192133</course>
        <speed>3.78025583173134</speed>
      </trkpt>
      <trkpt lat="43.64573" lon="3.16906">
        <ele>216</ele>
        <time>2012-01-06T09:04:06Z</time>
        <course>49.9653434258079</course>
        <speed>3.78107892779081</speed>
      </trkpt>
      <trkpt lat="43.64596" lon="3.16877">
        <ele>219</ele>
        <time>2012-01-06T09:04:15Z</time>
        <course>62.3120958579846</course>
        <speed>6.23992644274476</speed>
      </trkpt>
      <trkpt lat="43.64718" lon="3.16631">
        <ele>223</ele>
        <time>2012-01-06T09:04:54Z</time>
        <course>70.050093851354</course>
        <speed>8.32663060757045</speed>
      </trkpt>
      <trkpt lat="43.6473" lon="3.16596">
        <ele>222</ele>
        <time>2012-01-06T09:04:58Z</time>
        <course>78.3075320270693</course>
        <speed>8.31651526794119</speed>
      </trkpt>
      <trkpt lat="43.64767" lon="3.16407">
        <ele>220</ele>
        <time>2012-01-06T09:05:17Z</time>
        <course>79.9072801883825</course>
        <speed>8.31802436837204</speed>
      </trkpt>
      <trkpt lat="43.64939" lon="3.15394">
        <ele>219</ele>
        <time>2012-01-06T09:06:57Z</time>
        <course>71.4820956313898</course>
        <speed>6.98407251172914</speed>
      </trkpt>
      <trkpt lat="43.64958" lon="3.15334">
        <ele>219</ele>
        <time>2012-01-06T09:07:05Z</time>
        <course>59.4007774266095</course>
        <speed>6.98368655479282</speed>
      </trkpt>
      <trkpt lat="43.65159" lon="3.14975">
        <ele>223</ele>
        <time>2012-01-06T09:07:57Z</time>
        <course>52.5651267259944</course>
        <speed>5.41667448644823</speed>
      </trkpt>
      <trkpt lat="43.6518" lon="3.14946">
        <ele>223</ele>
        <time>2012-01-06T09:08:03Z</time>
        <course>17.5038156438773</course>
        <speed>5.41698144228736</speed>
      </trkpt>
      <trkpt lat="43.65249" lon="3.14923">
        <ele>226</ele>
        <time>2012-01-06T09:08:18Z</time>
        <course>12.5566493170963</course>
        <speed>8.31933009594307</speed>
      </trkpt>
      <trkpt lat="43.65402" lon="3.14887">
        <ele>226</ele>
        <time>2012-01-06T09:08:38Z</time>
        <course>6.43047578590316</course>
        <speed>8.32028458840201</speed>
      </trkpt>
      <trkpt lat="43.65444" lon="3.14882">
        <ele>226</ele>
        <time>2012-01-06T09:08:44Z</time>
        <course>344.629689098489</course>
        <speed>8.32126206973921</speed>
      </trkpt>
      <trkpt lat="43.65475" lon="3.14891">
        <ele>226</ele>
        <time>2012-01-06T09:08:48Z</time>
        <course>333.100616120235</course>
        <speed>8.31654073480578</speed>
      </trkpt>
      <trkpt lat="43.6563" lon="3.14974">
        <ele>226</ele>
        <time>2012-01-06T09:09:10Z</time>
        <course>327.720636259444</course>
        <speed>8.32332780852082</speed>
      </trkpt>
      <trkpt lat="43.65675" lon="3.15004">
        <ele>225</ele>
        <time>2012-01-06T09:09:17Z</time>
        <course>320.101919719648</course>
        <speed>8.33135869421738</speed>
      </trkpt>
      <trkpt lat="43.65692" lon="3.15019">
        <ele>225</ele>
        <time>2012-01-06T09:09:20Z</time>
        <course>295.626585702686</course>
        <speed>8.28874552368818</speed>
      </trkpt>
      <trkpt lat="43.65697" lon="3.1503">
        <ele>225</ele>
        <time>2012-01-06T09:09:21Z</time>
        <course>355.830822371219</course>
        <speed>8.31491567521294</speed>
      </trkpt>
      <trkpt lat="43.65723" lon="3.15032">
        <ele>225</ele>
        <time>2012-01-06T09:09:24Z</time>
        <course>340.43418199301</course>
        <speed>6.80277508851075</speed>
      </trkpt>
      <trkpt lat="43.65763" lon="3.15047">
        <ele>225</ele>
        <time>2012-01-06T09:09:31Z</time>
        <course>333.460655292502</course>
        <speed>6.80732535930783</speed>
      </trkpt>
      <trkpt lat="43.65951" lon="3.15146">
        <ele>228</ele>
        <time>2012-01-06T09:10:04Z</time>
        <course>323.807190085864</course>
        <speed>5.67373858733995</speed>
      </trkpt>
      <trkpt lat="43.65986" lon="3.15173">
        <ele>229</ele>
        <time>2012-01-06T09:10:12Z</time>
        <course>310.203473213234</course>
        <speed>5.67344985632876</speed>
      </trkpt>
      <trkpt lat="43.66128" lon="3.1535">
        <ele>234</ele>
        <time>2012-01-06T09:10:49Z</time>
        <course>305.653931481895</course>
        <speed>7.17614156168752</speed>
      </trkpt>
      <trkpt lat="43.6616" lon="3.15397">
        <ele>234</ele>
        <time>2012-01-06T09:10:57Z</time>
        <course>297.638206979995</course>
        <speed>7.17436495919173</speed>
      </trkpt>
      <trkpt lat="43.66453" lon="3.15985">
        <ele>239</ele>
        <time>2012-01-06T09:12:17Z</time>
        <course>303.530631356785</course>
        <speed>8.31591750087514</speed>
      </trkpt>
      <trkpt lat="43.66487" lon="3.16039">
        <ele>238</ele>
        <time>2012-01-06T09:12:24Z</time>
        <course>310.109366197291</course>
        <speed>8.31819685309623</speed>
      </trkpt>
      <trkpt lat="43.66648" lon="3.1624">
        <ele>235</ele>
        <time>2012-01-06T09:12:53Z</time>
        <course>318.781073711855</course>
        <speed>7.61985248357879</speed>
      </trkpt>
      <trkpt lat="43.66974" lon="3.1654">
        <ele>237</ele>
        <time>2012-01-06T09:13:50Z</time>
        <course>310.489001827161</course>
        <speed>7.25728211159762</speed>
      </trkpt>
      <trkpt lat="43.67" lon="3.16572">
        <ele>237</ele>
        <time>2012-01-06T09:13:55Z</time>
        <course>300.839862107403</course>
        <speed>7.25267185740942</speed>
      </trkpt>
      <trkpt lat="43.67054" lon="3.16667">
        <ele>238</ele>
        <time>2012-01-06T09:14:08Z</time>
        <course>303.359999360875</course>
        <speed>7.24060024963873</speed>
      </trkpt>
      <trkpt lat="43.67133" lon="3.16793">
        <ele>239</ele>
        <time>2012-01-06T09:14:27Z</time>
        <course>313.488883431673</course>
        <speed>5.18342941917006</speed>
      </trkpt>
      <trkpt lat="43.67161" lon="3.16824">
        <ele>240</ele>
        <time>2012-01-06T09:14:35Z</time>
        <course>330.257179382703</course>
        <speed>5.1854936947228</speed>
      </trkpt>
      <trkpt lat="43.67211" lon="3.16854">
        <ele>242</ele>
        <time>2012-01-06T09:14:46Z</time>
        <course>351.592843016185</course>
        <speed>5.18419377855072</speed>
      </trkpt>
      <trkpt lat="43.67269" lon="3.16863">
        <ele>244</ele>
        <time>2012-01-06T09:14:59Z</time>
        <course>5.99974974931805</course>
        <speed>6.45412773451431</speed>
      </trkpt>
      <trkpt lat="43.67641" lon="3.16822">
        <ele>250</ele>
        <time>2012-01-06T09:16:03Z</time>
        <course>4.32880926410477</course>
        <speed>8.31801108575414</speed>
      </trkpt>
      <trkpt lat="43.67704" lon="3.16817">
        <ele>248</ele>
        <time>2012-01-06T09:16:11Z</time>
        <course>356.170148616713</course>
        <speed>8.3228248680367</speed>
      </trkpt>
      <trkpt lat="43.67761" lon="3.16821">
        <ele>248</ele>
        <time>2012-01-06T09:16:19Z</time>
        <course>344.842170654253</course>
        <speed>7.87216012015615</speed>
      </trkpt>
      <trkpt lat="43.68382" lon="3.16997">
        <ele>250</ele>
        <time>2012-01-06T09:17:49Z</time>
        <course>327.4870434951</course>
        <speed>8.31636855961338</speed>
      </trkpt>
      <trkpt lat="43.68466" lon="3.17053">
        <ele>250</ele>
        <time>2012-01-06T09:18:01Z</time>
        <course>25.5515946347365</course>
        <speed>8.32117332490309</speed>
      </trkpt>
      <trkpt lat="43.68506" lon="3.17033">
        <ele>250</ele>
        <time>2012-01-06T09:18:07Z</time>
        <course>4.55581932745368</course>
        <speed>8.29726100788287</speed>
      </trkpt>
      <trkpt lat="43.68518" lon="3.17032">
        <ele>250</ele>
        <time>2012-01-06T09:18:08Z</time>
        <course>344.541631938887</course>
        <speed>8.31869871221111</speed>
      </trkpt>
      <trkpt lat="43.68781" lon="3.17108">
        <ele>250</ele>
        <time>2012-01-06T09:18:44Z</time>
        <course>357.19016491887</course>
        <speed>7.17989842469371</speed>
      </trkpt>
      <trkpt lat="43.6882" lon="3.1711">
        <ele>250</ele>
        <time>2012-01-06T09:18:50Z</time>
        <course>17.0290318139586</course>
        <speed>7.18237300917608</speed>
      </trkpt>
      <trkpt lat="43.68845" lon="3.17102">
        <ele>250</ele>
        <time>2012-01-06T09:18:54Z</time>
        <course>38.5810263356235</course>
        <speed>7.1790220731158</speed>
      </trkpt>
      <trkpt lat="43.68887" lon="3.17067">
        <ele>251</ele>
        <time>2012-01-06T09:19:02Z</time>
        <course>49.9489068033498</course>
        <speed>7.29147139173495</speed>
      </trkpt>
      <trkpt lat="43.68982" lon="3.16949">
        <ele>252</ele>
        <time>2012-01-06T09:19:21Z</time>
        <course>51.8348732358727</course>
        <speed>4.89890766380416</speed>
      </trkpt>
      <trkpt lat="43.69242" lon="3.16604">
        <ele>266</ele>
        <time>2012-01-06T09:20:43Z</time>
        <course>37.4831446822666</course>
        <speed>8.31553539035932</speed>
      </trkpt>
      <trkpt lat="43.69322" lon="3.1654">
        <ele>266</ele>
        <time>2012-01-06T09:20:55Z</time>
        <course>24.0341291593134</course>
        <speed>8.31868398156388</speed>
      </trkpt>
      <trkpt lat="43.69408" lon="3.165">
        <ele>265</ele>
        <time>2012-01-06T09:21:07Z</time>
        <course>10.0685647463111</course>
        <speed>8.31597465921832</speed>
      </trkpt>
      <trkpt lat="43.69435" lon="3.16495">
        <ele>264</ele>
        <time>2012-01-06T09:21:11Z</time>
        <course>349.065051407189</course>
        <speed>8.3189683746329</speed>
      </trkpt>
      <trkpt lat="43.69937" lon="3.16596">
        <ele>257</ele>
        <time>2012-01-06T09:22:19Z</time>
        <course>339.728850407056</course>
        <speed>8.32982128903192</speed>
      </trkpt>
      <trkpt lat="43.6995" lon="3.16601">
        <ele>256</ele>
        <time>2012-01-06T09:22:21Z</time>
        <course>314.825817854057</course>
        <speed>8.31617107241982</speed>
      </trkpt>
      <trkpt lat="43.69971" lon="3.16623">
        <ele>256</ele>
        <time>2012-01-06T09:22:24Z</time>
        <course>298.863585836823</course>
        <speed>8.31810086469294</speed>
      </trkpt>
      <trkpt lat="43.69989" lon="3.16657">
        <ele>256</ele>
        <time>2012-01-06T09:22:28Z</time>
        <course>269.998882343968</course>
        <speed>8.33116735555921</speed>
      </trkpt>
      <trkpt lat="43.69989" lon="3.16671">
        <ele>255</ele>
        <time>2012-01-06T09:22:30Z</time>
        <course>265.855275425566</course>
        <speed>8.31788185153939</speed>
      </trkpt>
      <trkpt lat="43.69969" lon="3.1696">
        <ele>253</ele>
        <time>2012-01-06T09:22:58Z</time>
        <course>268.421212950213</course>
        <speed>5.02711528221486</speed>
      </trkpt>
      <trkpt lat="43.69966" lon="3.17074">
        <ele>256</ele>
        <time>2012-01-06T09:23:16Z</time>
        <course>274.489365393452</course>
        <speed>5.02709540891509</speed>
      </trkpt>
      <trkpt lat="43.69986" lon="3.17338">
        <ele>263</ele>
        <time>2012-01-06T09:23:58Z</time>
        <course>281.51112389733</course>
        <speed>6.06719263441025</speed>
      </trkpt>
      <trkpt lat="43.69995" lon="3.17384">
        <ele>263</ele>
        <time>2012-01-06T09:24:05Z</time>
        <course>295.148703978208</course>
        <speed>6.06647896161829</speed>
      </trkpt>
      <trkpt lat="43.70018" lon="3.17435">
        <ele>264</ele>
        <time>2012-01-06T09:24:13Z</time>
        <course>311.031866519933</course>
        <speed>6.06643799199159</speed>
      </trkpt>
      <trkpt lat="43.70069" lon="3.17496">
        <ele>266</ele>
        <time>2012-01-06T09:24:25Z</time>
        <course>317.04766393558</course>
        <speed>6.36538362142272</speed>
      </trkpt>
      <trkpt lat="43.70165" lon="3.17589">
        <ele>268</ele>
        <time>2012-01-06T09:24:45Z</time>
        <course>320.731585810815</course>
        <speed>5.44574862633907</speed>
      </trkpt>
      <trkpt lat="43.70252" lon="3.17663">
        <ele>271</ele>
        <time>2012-01-06T09:25:06Z</time>
        <course>303.304255202253</course>
        <speed>8.31770663408922</speed>
      </trkpt>
      <trkpt lat="43.70288" lon="3.1772">
        <ele>270</ele>
        <time>2012-01-06T09:25:13Z</time>
        <course>295.52048999905</course>
        <speed>8.31600721810583</speed>
      </trkpt>
      <trkpt lat="43.70316" lon="3.17781">
        <ele>270</ele>
        <time>2012-01-06T09:25:20Z</time>
        <course>285.180957112708</course>
        <speed>8.3230740715793</speed>
      </trkpt>
      <trkpt lat="43.70322" lon="3.17804">
        <ele>269</ele>
        <time>2012-01-06T09:25:23Z</time>
        <course>260.66940068188</course>
        <speed>8.31002829759103</speed>
      </trkpt>
      <trkpt lat="43.70316" lon="3.17842">
        <ele>269</ele>
        <time>2012-01-06T09:25:27Z</time>
        <course>272.834248492062</course>
        <speed>8.32820191748298</speed>
      </trkpt>
      <trkpt lat="43.70317" lon="3.17863">
        <ele>268</ele>
        <time>2012-01-06T09:25:29Z</time>
        <course>292.586995857428</course>
        <speed>8.32101514054219</speed>
      </trkpt>
      <trkpt lat="43.70341" lon="3.17923">
        <ele>268</ele>
        <time>2012-01-06T09:25:35Z</time>
        <course>297.22886034774</course>
        <speed>6.92546611695292</speed>
      </trkpt>
      <trkpt lat="43.70442" lon="3.18127">
        <ele>270</ele>
        <time>2012-01-06T09:26:04Z</time>
        <course>292.994115153239</course>
        <speed>8.3245563565277</speed>
      </trkpt>
      <trkpt lat="43.70462" lon="3.18176">
        <ele>269</ele>
        <time>2012-01-06T09:26:09Z</time>
        <course>288.503482730204</course>
        <speed>8.32147269620873</speed>
      </trkpt>
      <trkpt lat="43.705" lon="3.18294">
        <ele>269</ele>
        <time>2012-01-06T09:26:22Z</time>
        <course>284.426205628928</course>
        <speed>6.86498153372032</speed>
      </trkpt>
      <trkpt lat="43.70555" lon="3.18516">
        <ele>271</ele>
        <time>2012-01-06T09:26:49Z</time>
        <course>293.037571158028</course>
        <speed>6.05891440621422</speed>
      </trkpt>
      <trkpt lat="43.7065" lon="3.18748">
        <ele>275</ele>
        <time>2012-01-06T09:27:25Z</time>
        <course>289.291825426758</course>
        <speed>8.31990645400709</speed>
      </trkpt>
      <trkpt lat="43.70681" lon="3.1884">
        <ele>273</ele>
        <time>2012-01-06T09:27:34Z</time>
        <course>278.824137740961</course>
        <speed>8.3193707866848</speed>
      </trkpt>
      <trkpt lat="43.70697" lon="3.18947">
        <ele>271</ele>
        <time>2012-01-06T09:27:45Z</time>
        <course>276.268101343844</course>
        <speed>4.55045088767758</speed>
      </trkpt>
      <trkpt lat="43.70738" lon="3.19333">
        <ele>284</ele>
        <time>2012-01-06T09:28:54Z</time>
        <course>291.455338695305</course>
        <speed>7.30053069840109</speed>
      </trkpt>
      <trkpt lat="43.70766" lon="3.19407">
        <ele>284</ele>
        <time>2012-01-06T09:29:03Z</time>
        <course>301.097550334569</course>
        <speed>7.30877737805047</speed>
      </trkpt>
      <trkpt lat="43.70784" lon="3.19438">
        <ele>284</ele>
        <time>2012-01-06T09:29:07Z</time>
        <course>327.307920868764</course>
        <speed>7.30363288832546</speed>
      </trkpt>
      <trkpt lat="43.7082" lon="3.19462">
        <ele>285</ele>
        <time>2012-01-06T09:29:13Z</time>
        <course>343.49860199083</course>
        <speed>8.31382269958537</speed>
      </trkpt>
      <trkpt lat="43.70859" lon="3.19474">
        <ele>285</ele>
        <time>2012-01-06T09:29:19Z</time>
        <course>322.892324444259</course>
        <speed>8.32133894294858</speed>
      </trkpt>
      <trkpt lat="43.70873" lon="3.19485">
        <ele>285</ele>
        <time>2012-01-06T09:29:21Z</time>
        <course>293.153340185194</course>
        <speed>8.314902042319</speed>
      </trkpt>
      <trkpt lat="43.7088" lon="3.19502">
        <ele>285</ele>
        <time>2012-01-06T09:29:23Z</time>
        <course>273.785499202388</course>
        <speed>8.32037443758227</speed>
      </trkpt>
      <trkpt lat="43.70886" lon="3.19596">
        <ele>285</ele>
        <time>2012-01-06T09:29:32Z</time>
        <course>306.569008514009</course>
        <speed>4.54291446778747</speed>
      </trkpt>
      <trkpt lat="43.70891" lon="3.19603">
        <ele>285</ele>
        <time>2012-01-06T09:29:34Z</time>
        <course>342.205318417409</course>
        <speed>4.53172658261379</speed>
      </trkpt>
      <trkpt lat="43.709" lon="3.19606">
        <ele>285</ele>
        <time>2012-01-06T09:29:36Z</time>
        <course>7.56589975856621</course>
        <speed>4.5356550034793</speed>
      </trkpt>
      <trkpt lat="43.70929" lon="3.19602">
        <ele>287</ele>
        <time>2012-01-06T09:29:43Z</time>
        <course>11.1600238951982</course>
        <speed>4.53918945604422</speed>
      </trkpt>
      <trkpt lat="43.71012" lon="3.19585">
        <ele>291</ele>
        <time>2012-01-06T09:30:04Z</time>
        <course>357.33115022487</course>
        <speed>5.6182989045126</speed>
      </trkpt>
      <trkpt lat="43.71074" lon="3.19588">
        <ele>292</ele>
        <time>2012-01-06T09:30:16Z</time>
        <course>344.608671802895</course>
        <speed>5.61594516847922</speed>
      </trkpt>
      <trkpt lat="43.71123" lon="3.19602">
        <ele>294</ele>
        <time>2012-01-06T09:30:26Z</time>
        <course>331.839837074101</course>
        <speed>4.88754738942016</speed>
      </trkpt>
      <trkpt lat="43.71141" lon="3.19612">
        <ele>294</ele>
        <time>2012-01-06T09:30:30Z</time>
        <course>314.664068493346</course>
        <speed>4.88617550463443</speed>
      </trkpt>
      <trkpt lat="43.71161" lon="3.19633">
        <ele>295</ele>
        <time>2012-01-06T09:30:36Z</time>
        <course>296.846501017096</course>
        <speed>4.88669719358521</speed>
      </trkpt>
      <trkpt lat="43.71181" lon="3.19674">
        <ele>297</ele>
        <time>2012-01-06T09:30:44Z</time>
        <course>284.060140566485</course>
        <speed>4.8918934379759</speed>
      </trkpt>
      <trkpt lat="43.71188" lon="3.19703">
        <ele>298</ele>
        <time>2012-01-06T09:30:49Z</time>
        <course>276.663530615484</course>
        <speed>3.14015275122921</speed>
      </trkpt>
      <trkpt lat="43.71196" lon="3.19774">
        <ele>302</ele>
        <time>2012-01-06T09:31:07Z</time>
        <course>271.082446136467</course>
        <speed>3.14008884742724</speed>
      </trkpt>
      <trkpt lat="43.71198" lon="3.19883">
        <ele>310</ele>
        <time>2012-01-06T09:31:35Z</time>
        <course>261.861166378405</course>
        <speed>4.3677227574494</speed>
      </trkpt>
      <trkpt lat="43.71172" lon="3.20072">
        <ele>317</ele>
        <time>2012-01-06T09:32:11Z</time>
        <course>259.244018793661</course>
        <speed>3.6233137043315</speed>
      </trkpt>
      <trkpt lat="43.71138" lon="3.20258">
        <ele>327</ele>
        <time>2012-01-06T09:32:53Z</time>
        <course>267.66542066348</course>
        <speed>7.44535151186413</speed>
      </trkpt>
      <trkpt lat="43.71136" lon="3.20309">
        <ele>327</ele>
        <time>2012-01-06T09:32:59Z</time>
        <course>271.474017220269</course>
        <speed>7.44156347664439</speed>
      </trkpt>
      <trkpt lat="43.7114" lon="3.20469">
        <ele>328</ele>
        <time>2012-01-06T09:33:16Z</time>
        <course>268.482797821172</course>
        <speed>6.3270937604006</speed>
      </trkpt>
      <trkpt lat="43.71136" lon="3.20627">
        <ele>330</ele>
        <time>2012-01-06T09:33:36Z</time>
        <course>277.770312382272</course>
        <speed>5.35349065516862</speed>
      </trkpt>
      <trkpt lat="43.71146" lon="3.20703">
        <ele>331</ele>
        <time>2012-01-06T09:33:48Z</time>
        <course>286.893047794942</course>
        <speed>5.35070736037728</speed>
      </trkpt>
      <trkpt lat="43.71158" lon="3.20744">
        <ele>332</ele>
        <time>2012-01-06T09:33:54Z</time>
        <course>291.785385559361</course>
        <speed>5.35224900234514</speed>
      </trkpt>
      <trkpt lat="43.71254" lon="3.20993">
        <ele>339</ele>
        <time>2012-01-06T09:34:37Z</time>
        <course>285.478569407018</course>
        <speed>3.01755700071531</speed>
      </trkpt>
      <trkpt lat="43.71293" lon="3.21139">
        <ele>350</ele>
        <time>2012-01-06T09:35:18Z</time>
        <course>290.659046171251</course>
        <speed>4.19605516611867</speed>
      </trkpt>
      <trkpt lat="43.71333" lon="3.21249">
        <ele>354</ele>
        <time>2012-01-06T09:35:42Z</time>
        <course>283.172694176199</course>
        <speed>4.19715458022117</speed>
      </trkpt>
      <trkpt lat="43.71361" lon="3.21373">
        <ele>360</ele>
        <time>2012-01-06T09:36:07Z</time>
        <course>278.960460006199</course>
        <speed>3.72236186156854</speed>
      </trkpt>
      <trkpt lat="43.71391" lon="3.2157">
        <ele>370</ele>
        <time>2012-01-06T09:36:50Z</time>
        <course>274.700696261663</course>
        <speed>3.38908797764382</speed>
      </trkpt>
      <trkpt lat="43.71396" lon="3.21633">
        <ele>373</ele>
        <time>2012-01-06T09:37:05Z</time>
        <course>268.753972410666</course>
        <speed>3.3896469673895</speed>
      </trkpt>
      <trkpt lat="43.71392" lon="3.21826">
        <ele>385</ele>
        <time>2012-01-06T09:37:51Z</time>
        <course>273.045349402172</course>
        <speed>7.37542290688709</speed>
      </trkpt>
      <trkpt lat="43.71402" lon="3.2202">
        <ele>386</ele>
        <time>2012-01-06T09:38:12Z</time>
        <course>266.694231207062</course>
        <speed>3.30793154208028</speed>
      </trkpt>
      <trkpt lat="43.71396" lon="3.22128">
        <ele>392</ele>
        <time>2012-01-06T09:38:38Z</time>
        <course>258.528453793424</course>
        <speed>3.3072441133425</speed>
      </trkpt>
      <trkpt lat="43.7137" lon="3.22261">
        <ele>401</ele>
        <time>2012-01-06T09:39:12Z</time>
        <course>263.616626421421</course>
        <speed>4.73601438058154</speed>
      </trkpt>
      <trkpt lat="43.71356" lon="3.22391">
        <ele>405</ele>
        <time>2012-01-06T09:39:34Z</time>
        <course>267.666854669153</course>
        <speed>4.44928405360016</speed>
      </trkpt>
      <trkpt lat="43.71354" lon="3.22442">
        <ele>406</ele>
        <time>2012-01-06T09:39:43Z</time>
        <course>276.368640242741</course>
        <speed>4.44675043491612</speed>
      </trkpt>
      <trkpt lat="43.71361" lon="3.22507">
        <ele>409</ele>
        <time>2012-01-06T09:39:55Z</time>
        <course>283.456742120401</course>
        <speed>4.44647511955845</speed>
      </trkpt>
      <trkpt lat="43.71373" lon="3.22559">
        <ele>411</ele>
        <time>2012-01-06T09:40:05Z</time>
        <course>290.384243398583</course>
        <speed>4.28853424941448</speed>
      </trkpt>
      <trkpt lat="43.71458" lon="3.22796">
        <ele>421</ele>
        <time>2012-01-06T09:40:55Z</time>
        <course>284.510275035558</course>
        <speed>3.03937312278942</speed>
      </trkpt>
      <trkpt lat="43.71529" lon="3.2308">
        <ele>442</ele>
        <time>2012-01-06T09:42:14Z</time>
        <course>292.416128933328</course>
        <speed>5.43699698613601</speed>
      </trkpt>
      <trkpt lat="43.7157" lon="3.23183">
        <ele>444</ele>
        <time>2012-01-06T09:42:31Z</time>
        <course>271.691187687084</course>
        <speed>5.43617855729636</speed>
      </trkpt>
      <trkpt lat="43.71572" lon="3.23253">
        <ele>446</ele>
        <time>2012-01-06T09:42:42Z</time>
        <course>280.862413431054</course>
        <speed>5.31091148249238</speed>
      </trkpt>
      <trkpt lat="43.71582" lon="3.23307">
        <ele>447</ele>
        <time>2012-01-06T09:42:50Z</time>
        <course>293.875382866958</course>
        <speed>5.3089796804639</speed>
      </trkpt>
      <trkpt lat="43.71626" lon="3.2341">
        <ele>450</ele>
        <time>2012-01-06T09:43:08Z</time>
        <course>291.334536633145</course>
        <speed>3.76284163600056</speed>
      </trkpt>
      <trkpt lat="43.71729" lon="3.23683">
        <ele>465</ele>
        <time>2012-01-06T09:44:14Z</time>
        <course>295.990309758946</course>
        <speed>3.735296891572</speed>
      </trkpt>
      <trkpt lat="43.71977" lon="3.24209">
        <ele>496</ele>
        <time>2012-01-06T09:46:29Z</time>
        <course>281.951828975315</course>
        <speed>4.69317903882041</speed>
      </trkpt>
      <trkpt lat="43.71995" lon="3.24297">
        <ele>498</ele>
        <time>2012-01-06T09:46:45Z</time>
        <course>274.796167936999</course>
        <speed>4.69401422252508</speed>
      </trkpt>
      <trkpt lat="43.71998" lon="3.24334">
        <ele>500</ele>
        <time>2012-01-06T09:46:51Z</time>
        <course>264.275625825542</course>
        <speed>1.4320464696434</speed>
      </trkpt>
      <trkpt lat="43.71995" lon="3.24365">
        <ele>506</ele>
        <time>2012-01-06T09:47:09Z</time>
        <course>233.208699756501</course>
        <speed>1.43211692338605</speed>
      </trkpt>
      <trkpt lat="43.71982" lon="3.24383">
        <ele>510</ele>
        <time>2012-01-06T09:47:23Z</time>
        <course>216.826706189445</course>
        <speed>1.43226220004764</speed>
      </trkpt>
      <trkpt lat="43.71933" lon="3.24421">
        <ele>526</ele>
        <time>2012-01-06T09:48:06Z</time>
        <course>245.624494370362</course>
        <speed>3.23718633438242</speed>
      </trkpt>
      <trkpt lat="43.71926" lon="3.24437">
        <ele>527</ele>
        <time>2012-01-06T09:48:11Z</time>
        <course>273.948388658242</course>
        <speed>3.24334717002521</speed>
      </trkpt>
      <trkpt lat="43.71927" lon="3.24452">
        <ele>528</ele>
        <time>2012-01-06T09:48:15Z</time>
        <course>299.803809600045</course>
        <speed>3.24019093589847</speed>
      </trkpt>
      <trkpt lat="43.71953" lon="3.24499">
        <ele>531</ele>
        <time>2012-01-06T09:48:29Z</time>
        <course>278.035964985745</course>
        <speed>3.23962525109056</speed>
      </trkpt>
      <trkpt lat="43.71956" lon="3.24521">
        <ele>533</ele>
        <time>2012-01-06T09:48:35Z</time>
        <course>253.059482754487</course>
        <speed>3.23954125191469</speed>
      </trkpt>
      <trkpt lat="43.71951" lon="3.24538">
        <ele>534</ele>
        <time>2012-01-06T09:48:39Z</time>
        <course>240.01070218821</course>
        <speed>3.23970875225554</speed>
      </trkpt>
      <trkpt lat="43.71912" lon="3.24608">
        <ele>540</ele>
        <time>2012-01-06T09:49:01Z</time>
        <course>265.261828400463</course>
        <speed>8.31285987325768</speed>
      </trkpt>
      <trkpt lat="43.7191" lon="3.24633">
        <ele>538</ele>
        <time>2012-01-06T09:49:04Z</time>
        <course>275.91209027029</course>
        <speed>8.35830990741745</speed>
      </trkpt>
      <trkpt lat="43.71911" lon="3.24643">
        <ele>538</ele>
        <time>2012-01-06T09:49:05Z</time>
        <course>300.110152895369</course>
        <speed>8.32763716031713</speed>
      </trkpt>
      <trkpt lat="43.71925" lon="3.24668">
        <ele>536</ele>
        <time>2012-01-06T09:49:08Z</time>
        <course>325.718591629307</course>
        <speed>8.31634281402312</speed>
      </trkpt>
      <trkpt lat="43.71959" lon="3.24692">
        <ele>533</ele>
        <time>2012-01-06T09:49:13Z</time>
        <course>314.205529277893</course>
        <speed>8.3261195214071</speed>
      </trkpt>
      <trkpt lat="43.7199" lon="3.24725">
        <ele>531</ele>
        <time>2012-01-06T09:49:18Z</time>
        <course>295.629895394751</course>
        <speed>2.40851382484727</speed>
      </trkpt>
      <trkpt lat="43.72009" lon="3.24766">
        <ele>535</ele>
        <time>2012-01-06T09:49:34Z</time>
        <course>274.381709992061</course>
        <speed>2.40851550888481</speed>
      </trkpt>
      <trkpt lat="43.72013" lon="3.2482">
        <ele>541</ele>
        <time>2012-01-06T09:49:53Z</time>
        <course>266.244861593137</course>
        <speed>2.4078281214157</speed>
      </trkpt>
      <trkpt lat="43.72008" lon="3.24899">
        <ele>549</ele>
        <time>2012-01-06T09:50:19Z</time>
        <course>282.381996048404</course>
        <speed>2.88308100394043</speed>
      </trkpt>
      <trkpt lat="43.72022" lon="3.24965">
        <ele>554</ele>
        <time>2012-01-06T09:50:38Z</time>
        <course>273.891036178851</course>
        <speed>2.88410272077959</speed>
      </trkpt>
      <trkpt lat="43.72027" lon="3.25041">
        <ele>560</ele>
        <time>2012-01-06T09:50:59Z</time>
        <course>300.608206243683</course>
        <speed>8.33315273141421</speed>
      </trkpt>
      <trkpt lat="43.72035" lon="3.25055">
        <ele>558</ele>
        <time>2012-01-06T09:51:01Z</time>
        <course>326.228565090039</course>
        <speed>8.32623859865053</speed>
      </trkpt>
      <trkpt lat="43.72048" lon="3.25064">
        <ele>557</ele>
        <time>2012-01-06T09:51:03Z</time>
        <course>6.4306133107388</course>
        <speed>8.32196235980283</speed>
      </trkpt>
      <trkpt lat="43.72108" lon="3.25057">
        <ele>550</ele>
        <time>2012-01-06T09:51:11Z</time>
        <course>335.967169011537</course>
        <speed>8.32132838379854</speed>
      </trkpt>
      <trkpt lat="43.72134" lon="3.25069">
        <ele>548</ele>
        <time>2012-01-06T09:51:15Z</time>
        <course>308.136220303711</course>
        <speed>2.09065253361584</speed>
      </trkpt>
      <trkpt lat="43.72156" lon="3.25098">
        <ele>553</ele>
        <time>2012-01-06T09:51:31Z</time>
        <course>293.076414379343</course>
        <speed>2.09013688853976</speed>
      </trkpt>
      <trkpt lat="43.72184" lon="3.25166">
        <ele>562</ele>
        <time>2012-01-06T09:52:01Z</time>
        <course>302.712090947824</course>
        <speed>2.08980064463133</speed>
      </trkpt>
      <trkpt lat="43.72202" lon="3.25195">
        <ele>567</ele>
        <time>2012-01-06T09:52:16Z</time>
        <course>318.132516714994</course>
        <speed>3.15481120050244</speed>
      </trkpt>
      <trkpt lat="43.72257" lon="3.25246">
        <ele>573</ele>
        <time>2012-01-06T09:52:39Z</time>
        <course>311.007892953721</course>
        <speed>3.15496419571045</speed>
      </trkpt>
      <trkpt lat="43.72315" lon="3.25315">
        <ele>580</ele>
        <time>2012-01-06T09:53:06Z</time>
        <course>331.247403981067</course>
        <speed>4.73254494660936</speed>
      </trkpt>
      <trkpt lat="43.72352" lon="3.25336">
        <ele>581</ele>
        <time>2012-01-06T09:53:15Z</time>
        <course>339.780655103096</course>
        <speed>4.73184423564803</speed>
      </trkpt>
      <trkpt lat="43.72394" lon="3.25352">
        <ele>583</ele>
        <time>2012-01-06T09:53:26Z</time>
        <course>348.686700575831</course>
        <speed>4.7324642637728</speed>
      </trkpt>
      <trkpt lat="43.72452" lon="3.25364">
        <ele>586</ele>
        <time>2012-01-06T09:53:39Z</time>
        <course>356.117461599421</course>
        <speed>4.37982020397492</speed>
      </trkpt>
      <trkpt lat="43.72509" lon="3.25368">
        <ele>588</ele>
        <time>2012-01-06T09:53:54Z</time>
        <course>10.6885304211892</course>
        <speed>4.37980916990284</speed>
      </trkpt>
      <trkpt lat="43.72591" lon="3.25352">
        <ele>593</ele>
        <time>2012-01-06T09:54:15Z</time>
        <course>18.1099662045623</course>
        <speed>2.96296853846095</speed>
      </trkpt>
      <trkpt lat="43.72662" lon="3.25328">
        <ele>600</ele>
        <time>2012-01-06T09:54:42Z</time>
        <course>340.232108006467</course>
        <speed>2.96310593315695</speed>
      </trkpt>
      <trkpt lat="43.72697" lon="3.25341">
        <ele>604</ele>
        <time>2012-01-06T09:54:56Z</time>
        <course>292.831658155416</course>
        <speed>4.02086850571967</speed>
      </trkpt>
      <trkpt lat="43.72708" lon="3.25368">
        <ele>605</ele>
        <time>2012-01-06T09:55:02Z</time>
        <course>17.8768017345181</course>
        <speed>4.01830008548814</speed>
      </trkpt>
      <trkpt lat="43.72717" lon="3.25365">
        <ele>605</ele>
        <time>2012-01-06T09:55:05Z</time>
        <course>43.6532546393444</course>
        <speed>4.01935522556601</speed>
      </trkpt>
      <trkpt lat="43.72787" lon="3.25296">
        <ele>611</ele>
        <time>2012-01-06T09:55:28Z</time>
        <course>34.9033635550964</course>
        <speed>3.01671010770393</speed>
      </trkpt>
      <trkpt lat="43.72923" lon="3.25198">
        <ele>626</ele>
        <time>2012-01-06T09:56:25Z</time>
        <course>30.6132838622161</course>
        <speed>2.89603024143695</speed>
      </trkpt>
      <trkpt lat="43.72959" lon="3.25176">
        <ele>630</ele>
        <time>2012-01-06T09:56:40Z</time>
        <course>23.9348462381697</course>
        <speed>2.8972220904073</speed>
      </trkpt>
      <trkpt lat="43.73031" lon="3.25143">
        <ele>638</ele>
        <time>2012-01-06T09:57:09Z</time>
        <course>46.17985873123</course>
        <speed>5.00759563875238</speed>
      </trkpt>
      <trkpt lat="43.73097" lon="3.25072">
        <ele>641</ele>
        <time>2012-01-06T09:57:28Z</time>
        <course>30.524164952165</course>
        <speed>5.00367923007463</speed>
      </trkpt>
      <trkpt lat="43.7312" lon="3.25058">
        <ele>642</ele>
        <time>2012-01-06T09:57:33Z</time>
        <course>13.0135918305452</course>
        <speed>2.42037711583569</speed>
      </trkpt>
      <trkpt lat="43.73229" lon="3.25032">
        <ele>657</ele>
        <time>2012-01-06T09:58:24Z</time>
        <course>45.3459399989606</course>
        <speed>8.31951847817309</speed>
      </trkpt>
      <trkpt lat="43.73274" lon="3.24985">
        <ele>655</ele>
        <time>2012-01-06T09:58:31Z</time>
        <course>34.6911526696353</course>
        <speed>8.31011086448149</speed>
      </trkpt>
      <trkpt lat="43.73295" lon="3.2497">
        <ele>655</ele>
        <time>2012-01-06T09:58:35Z</time>
        <course>18.7366315022041</course>
        <speed>8.30568328664927</speed>
      </trkpt>
      <trkpt lat="43.73315" lon="3.24963">
        <ele>655</ele>
        <time>2012-01-06T09:58:37Z</time>
        <course>360</course>
        <speed>2.43892933618316</speed>
      </trkpt>
      <trkpt lat="43.73356" lon="3.24963">
        <ele>660</ele>
        <time>2012-01-06T09:58:56Z</time>
        <course>335.658931794354</course>
        <speed>2.43883121472201</speed>
      </trkpt>
      <trkpt lat="43.73416" lon="3.24991">
        <ele>669</ele>
        <time>2012-01-06T09:59:25Z</time>
        <course>345.189655148931</course>
        <speed>3.76667230957922</speed>
      </trkpt>
      <trkpt lat="43.7346" lon="3.25003">
        <ele>672</ele>
        <time>2012-01-06T09:59:38Z</time>
        <course>8.87505051136435</course>
        <speed>3.76837017390854</speed>
      </trkpt>
      <trkpt lat="43.73578" lon="3.24984">
        <ele>680</ele>
        <time>2012-01-06T10:00:13Z</time>
        <course>351.511029491059</course>
        <speed>2.93776077733644</speed>
      </trkpt>
      <trkpt lat="43.73734" lon="3.25008">
        <ele>696</ele>
        <time>2012-01-06T10:01:12Z</time>
        <course>14.0777474932211</course>
        <speed>5.95653947499323</speed>
      </trkpt>
      <trkpt lat="43.73823" lon="3.24985">
        <ele>698</ele>
        <time>2012-01-06T10:01:29Z</time>
        <course>354.958574267195</course>
        <speed>3.29288657925527</speed>
      </trkpt>
      <trkpt lat="43.73834" lon="3.24986">
        <ele>698</ele>
        <time>2012-01-06T10:01:33Z</time>
        <course>336.146182728799</course>
        <speed>3.28915272706986</speed>
      </trkpt>
      <trkpt lat="43.73924" lon="3.25027">
        <ele>707</ele>
        <time>2012-01-06T10:02:05Z</time>
        <course>354.800312543531</course>
        <speed>2.7394215855488</speed>
      </trkpt>
      <trkpt lat="43.73956" lon="3.2503">
        <ele>710</ele>
        <time>2012-01-06T10:02:18Z</time>
        <course>14.330053349356</course>
        <speed>2.74120083555614</speed>
      </trkpt>
      <trkpt lat="43.73975" lon="3.25025">
        <ele>712</ele>
        <time>2012-01-06T10:02:26Z</time>
        <course>37.3358126359094</course>
        <speed>2.73944945126318</speed>
      </trkpt>
      <trkpt lat="43.74003" lon="3.25003">
        <ele>716</ele>
        <time>2012-01-06T10:02:39Z</time>
        <course>59.0012235085824</course>
        <speed>2.73939202656746</speed>
      </trkpt>
      <trkpt lat="43.74017" lon="3.24979">
        <ele>719</ele>
        <time>2012-01-06T10:02:48Z</time>
        <course>78.3629644208726</course>
        <speed>8.31352155998943</speed>
      </trkpt>
      <trkpt lat="43.74027" lon="3.24929">
        <ele>718</ele>
        <time>2012-01-06T10:02:53Z</time>
        <course>91.877182041727</course>
        <speed>8.31306308018268</speed>
      </trkpt>
      <trkpt lat="43.74025" lon="3.24866">
        <ele>718</ele>
        <time>2012-01-06T10:02:59Z</time>
        <course>83.6486245918508</course>
        <speed>8.31997100721917</speed>
      </trkpt>
      <trkpt lat="43.74029" lon="3.24829">
        <ele>718</ele>
        <time>2012-01-06T10:03:03Z</time>
        <course>61.112712847968</course>
        <speed>5.06963533394889</speed>
      </trkpt>
      <trkpt lat="43.74044" lon="3.24801">
        <ele>718</ele>
        <time>2012-01-06T10:03:08Z</time>
        <course>30.2238166472625</course>
        <speed>5.06741252192491</speed>
      </trkpt>
      <trkpt lat="43.74064" lon="3.24789">
        <ele>719</ele>
        <time>2012-01-06T10:03:13Z</time>
        <course>354.029716014642</course>
        <speed>5.06971933450812</speed>
      </trkpt>
      <trkpt lat="43.74129" lon="3.24796">
        <ele>722</ele>
        <time>2012-01-06T10:03:27Z</time>
        <course>330.971598325546</course>
        <speed>3.95543699781835</speed>
      </trkpt>
      <trkpt lat="43.74157" lon="3.24812">
        <ele>723</ele>
        <time>2012-01-06T10:03:36Z</time>
        <course>315.836435050594</course>
        <speed>3.95202951490048</speed>
      </trkpt>
      <trkpt lat="43.74173" lon="3.24828">
        <ele>725</ele>
        <time>2012-01-06T10:03:41Z</time>
        <course>301.074770514902</course>
        <speed>3.95544623845702</speed>
      </trkpt>
      <trkpt lat="43.74197" lon="3.24869">
        <ele>727</ele>
        <time>2012-01-06T10:03:52Z</time>
        <course>293.723258854871</course>
        <speed>3.9558438331499</speed>
      </trkpt>
      <trkpt lat="43.74235" lon="3.24958">
        <ele>732</ele>
        <time>2012-01-06T10:04:13Z</time>
        <course>305.879667490149</course>
        <speed>4.52858381291096</speed>
      </trkpt>
      <trkpt lat="43.74261" lon="3.24995">
        <ele>733</ele>
        <time>2012-01-06T10:04:22Z</time>
        <course>315.828735914024</course>
        <speed>4.52426374291889</speed>
      </trkpt>
      <trkpt lat="43.74281" lon="3.25015">
        <ele>734</ele>
        <time>2012-01-06T10:04:28Z</time>
        <course>331.919990807278</course>
        <speed>4.52775415490355</speed>
      </trkpt>
      <trkpt lat="43.74383" lon="3.25071">
        <ele>740</ele>
        <time>2012-01-06T10:04:55Z</time>
        <course>341.408061169414</course>
        <speed>5.43446861156819</speed>
      </trkpt>
      <trkpt lat="43.74409" lon="3.2508">
        <ele>740</ele>
        <time>2012-01-06T10:05:01Z</time>
        <course>360</course>
        <speed>5.44090395461831</speed>
      </trkpt>
      <trkpt lat="43.74435" lon="3.2508">
        <ele>741</ele>
        <time>2012-01-06T10:05:06Z</time>
        <course>14.747640199091</course>
        <speed>5.43489474031667</speed>
      </trkpt>
      <trkpt lat="43.74483" lon="3.25067">
        <ele>743</ele>
        <time>2012-01-06T10:05:16Z</time>
        <course>29.2825602273588</course>
        <speed>8.32449435041239</speed>
      </trkpt>
      <trkpt lat="43.74509" lon="3.25052">
        <ele>742</ele>
        <time>2012-01-06T10:05:20Z</time>
        <course>44.1880975739674</course>
        <speed>8.30807634015262</speed>
      </trkpt>
      <trkpt lat="43.74525" lon="3.25036">
        <ele>742</ele>
        <time>2012-01-06T10:05:22Z</time>
        <course>59.7226431007219</course>
        <speed>8.3198482857654</speed>
      </trkpt>
      <trkpt lat="43.74546" lon="3.24999">
        <ele>742</ele>
        <time>2012-01-06T10:05:27Z</time>
        <course>69.4919026154485</course>
        <speed>8.3074268455981</speed>
      </trkpt>
      <trkpt lat="43.74554" lon="3.24977">
        <ele>742</ele>
        <time>2012-01-06T10:05:29Z</time>
        <course>81.8713868619475</course>
        <speed>8.31306538702282</speed>
      </trkpt>
      <trkpt lat="43.74559" lon="3.24941">
        <ele>741</ele>
        <time>2012-01-06T10:05:33Z</time>
        <course>93.105442669615</course>
        <speed>8.32028317061454</speed>
      </trkpt>
      <trkpt lat="43.74554" lon="3.24846">
        <ele>739</ele>
        <time>2012-01-06T10:05:42Z</time>
        <course>81.1631243314325</course>
        <speed>6.58562424146617</speed>
      </trkpt>
      <trkpt lat="43.74582" lon="3.24661">
        <ele>741</ele>
        <time>2012-01-06T10:06:05Z</time>
        <course>71.0772917213087</course>
        <speed>8.32828924851858</speed>
      </trkpt>
      <trkpt lat="43.74595" lon="3.24622">
        <ele>740</ele>
        <time>2012-01-06T10:06:09Z</time>
        <course>41.8126061475437</course>
        <speed>8.318173538197</speed>
      </trkpt>
      <trkpt lat="43.7462" lon="3.24599">
        <ele>740</ele>
        <time>2012-01-06T10:06:13Z</time>
        <course>2.4207056488881</course>
        <speed>8.32905653171721</speed>
      </trkpt>
      <trkpt lat="43.74643" lon="3.24598">
        <ele>740</ele>
        <time>2012-01-06T10:06:16Z</time>
        <course>340.649891551576</course>
        <speed>8.31829903386599</speed>
      </trkpt>
      <trkpt lat="43.74715" lon="3.24624">
        <ele>740</ele>
        <time>2012-01-06T10:06:26Z</time>
        <course>351.490431446246</course>
        <speed>8.32924910420405</speed>
      </trkpt>
      <trkpt lat="43.74741" lon="3.24628">
        <ele>738</ele>
        <time>2012-01-06T10:06:30Z</time>
        <course>5.5551761799699</course>
        <speed>8.31414655394521</speed>
      </trkpt>
      <trkpt lat="43.74771" lon="3.24625">
        <ele>736</ele>
        <time>2012-01-06T10:06:34Z</time>
        <course>15.7465594440162</course>
        <speed>8.31587691208352</speed>
      </trkpt>
      <trkpt lat="43.7484" lon="3.24605">
        <ele>733</ele>
        <time>2012-01-06T10:06:43Z</time>
        <course>360</course>
        <speed>6.7345454546122</speed>
      </trkpt>
      <trkpt lat="43.7486" lon="3.24605">
        <ele>733</ele>
        <time>2012-01-06T10:06:47Z</time>
        <course>333.165209838633</course>
        <speed>6.7290869892692</speed>
      </trkpt>
      <trkpt lat="43.74885" lon="3.24618">
        <ele>733</ele>
        <time>2012-01-06T10:06:51Z</time>
        <course>318.822198629406</course>
        <speed>6.73423121162522</speed>
      </trkpt>
      <trkpt lat="43.74974" lon="3.24698">
        <ele>735</ele>
        <time>2012-01-06T10:07:08Z</time>
        <course>336.016809933994</course>
        <speed>8.32473319841949</speed>
      </trkpt>
      <trkpt lat="43.75009" lon="3.24714">
        <ele>734</ele>
        <time>2012-01-06T10:07:13Z</time>
        <course>350.254627905069</course>
        <speed>8.31583662413688</speed>
      </trkpt>
      <trkpt lat="43.75043" lon="3.2472">
        <ele>733</ele>
        <time>2012-01-06T10:07:18Z</time>
        <course>7.39446542243388</course>
        <speed>8.31711813067845</speed>
      </trkpt>
      <trkpt lat="43.75088" lon="3.24714">
        <ele>732</ele>
        <time>2012-01-06T10:07:24Z</time>
        <course>25.2081961383685</course>
        <speed>8.31594812600472</speed>
      </trkpt>
      <trkpt lat="43.75179" lon="3.2467">
        <ele>729</ele>
        <time>2012-01-06T10:07:37Z</time>
        <course>4.63937609704156</course>
        <speed>8.32019547229129</speed>
      </trkpt>
      <trkpt lat="43.75287" lon="3.24661">
        <ele>727</ele>
        <time>2012-01-06T10:07:51Z</time>
        <course>20.0630755129714</course>
        <speed>8.32224494282066</speed>
      </trkpt>
      <trkpt lat="43.75335" lon="3.24643">
        <ele>726</ele>
        <time>2012-01-06T10:07:58Z</time>
        <course>32.5130945471803</course>
        <speed>8.31693559492111</speed>
      </trkpt>
      <trkpt lat="43.75416" lon="3.2459">
        <ele>726</ele>
        <time>2012-01-06T10:08:10Z</time>
        <course>42.8542011636903</course>
        <speed>5.24508999851942</speed>
      </trkpt>
      <trkpt lat="43.75437" lon="3.2457">
        <ele>726</ele>
        <time>2012-01-06T10:08:15Z</time>
        <course>55.0850321969383</course>
        <speed>5.2492785340042</speed>
      </trkpt>
      <trkpt lat="43.75454" lon="3.24545">
        <ele>727</ele>
        <time>2012-01-06T10:08:21Z</time>
        <course>62.2722640600243</course>
        <speed>5.2494020129027</speed>
      </trkpt>
      <trkpt lat="43.75496" lon="3.24463">
        <ele>730</ele>
        <time>2012-01-06T10:08:36Z</time>
        <course>45.4747739775509</course>
        <speed>5.36079357390957</speed>
      </trkpt>
      <trkpt lat="43.75519" lon="3.24439">
        <ele>730</ele>
        <time>2012-01-06T10:08:42Z</time>
        <course>26.8047057919643</course>
        <speed>5.35745554689585</speed>
      </trkpt>
      <trkpt lat="43.75546" lon="3.24425">
        <ele>731</ele>
        <time>2012-01-06T10:08:48Z</time>
        <course>7.70834322748424</course>
        <speed>5.35696049404945</speed>
      </trkpt>
      <trkpt lat="43.75618" lon="3.24415">
        <ele>734</ele>
        <time>2012-01-06T10:09:03Z</time>
        <course>19.7511487703228</course>
        <speed>3.17551458814874</speed>
      </trkpt>
      <trkpt lat="43.75637" lon="3.24408">
        <ele>735</ele>
        <time>2012-01-06T10:09:10Z</time>
        <course>41.8823280046279</course>
        <speed>3.17658065375318</speed>
      </trkpt>
      <trkpt lat="43.75662" lon="3.24385">
        <ele>738</ele>
        <time>2012-01-06T10:09:20Z</time>
        <course>64.4919892552443</course>
        <speed>3.17712212536686</speed>
      </trkpt>
      <trkpt lat="43.75682" lon="3.24342">
        <ele>741</ele>
        <time>2012-01-06T10:09:33Z</time>
        <course>73.7954453168822</course>
        <speed>3.17547549848252</speed>
      </trkpt>
      <trkpt lat="43.75699" lon="3.24282">
        <ele>746</ele>
        <time>2012-01-06T10:09:49Z</time>
        <course>85.3096113102139</course>
        <speed>5.04690639524779</speed>
      </trkpt>
      <trkpt lat="43.75701" lon="3.24257">
        <ele>746</ele>
        <time>2012-01-06T10:09:53Z</time>
        <course>95.6919649556819</course>
        <speed>5.04404659563049</speed>
      </trkpt>
      <trkpt lat="43.75685" lon="3.24092">
        <ele>751</ele>
        <time>2012-01-06T10:10:20Z</time>
        <course>90.0007044414144</course>
        <speed>2.71648879342068</speed>
      </trkpt>
      <trkpt lat="43.75685" lon="3.24081">
        <ele>751</ele>
        <time>2012-01-06T10:10:23Z</time>
        <course>66.2665507667764</course>
        <speed>2.7182073386056</speed>
      </trkpt>
      <trkpt lat="43.75694" lon="3.2406">
        <ele>753</ele>
        <time>2012-01-06T10:10:30Z</time>
        <course>29.6226271119877</course>
        <speed>2.71985501865419</speed>
      </trkpt>
      <trkpt lat="43.75706" lon="3.24053">
        <ele>755</ele>
        <time>2012-01-06T10:10:36Z</time>
        <course>352.072357176286</course>
        <speed>2.71989470773437</speed>
      </trkpt>
      <trkpt lat="43.7572" lon="3.24055">
        <ele>757</ele>
        <time>2012-01-06T10:10:42Z</time>
        <course>324.948317176338</course>
        <speed>2.71847808809572</speed>
      </trkpt>
      <trkpt lat="43.75859" lon="3.24155">
        <ele>775</ele>
        <time>2012-01-06T10:11:46Z</time>
        <course>341.008555810874</course>
        <speed>2.90962767228658</speed>
      </trkpt>
      <trkpt lat="43.75876" lon="3.24161">
        <ele>776</ele>
        <time>2012-01-06T10:11:52Z</time>
        <course>358.357081420392</course>
        <speed>2.90687103681222</speed>
      </trkpt>
      <trkpt lat="43.7591" lon="3.24162">
        <ele>780</ele>
        <time>2012-01-06T10:12:05Z</time>
        <course>19.6769130550766</course>
        <speed>2.90768678030099</speed>
      </trkpt>
      <trkpt lat="43.7594" lon="3.24151">
        <ele>783</ele>
        <time>2012-01-06T10:12:17Z</time>
        <course>34.863239883933</course>
        <speed>2.90780633253575</speed>
      </trkpt>
      <trkpt lat="43.75961" lon="3.24136">
        <ele>786</ele>
        <time>2012-01-06T10:12:26Z</time>
        <course>43.3247041300252</course>
        <speed>6.67872604856399</speed>
      </trkpt>
      <trkpt lat="43.76081" lon="3.2402">
        <ele>788</ele>
        <time>2012-01-06T10:12:50Z</time>
        <course>59.4758422166464</course>
        <speed>5.43955172473898</speed>
      </trkpt>
      <trkpt lat="43.76123" lon="3.23947">
        <ele>789</ele>
        <time>2012-01-06T10:13:04Z</time>
        <course>73.1554199120178</course>
        <speed>5.43479254879548</speed>
      </trkpt>
      <trkpt lat="43.76136" lon="3.23903">
        <ele>791</ele>
        <time>2012-01-06T10:13:11Z</time>
        <course>79.454119008438</course>
        <speed>8.31898537375495</speed>
      </trkpt>
      <trkpt lat="43.76164" lon="3.23749">
        <ele>791</ele>
        <time>2012-01-06T10:13:27Z</time>
        <course>65.0284968411136</course>
        <speed>8.31962451457447</speed>
      </trkpt>
      <trkpt lat="43.76204" lon="3.23661">
        <ele>786</ele>
        <time>2012-01-06T10:13:37Z</time>
        <course>70.2730549223577</course>
        <speed>8.32163110223503</speed>
      </trkpt>
      <trkpt lat="43.76225" lon="3.23601">
        <ele>784</ele>
        <time>2012-01-06T10:13:43Z</time>
        <course>82.9218132529479</course>
        <speed>8.31386061832554</speed>
      </trkpt>
      <trkpt lat="43.76229" lon="3.23568">
        <ele>781</ele>
        <time>2012-01-06T10:13:46Z</time>
        <course>88.6714058666298</course>
        <speed>8.32240694515186</speed>
      </trkpt>
      <trkpt lat="43.76231" lon="3.2348">
        <ele>776</ele>
        <time>2012-01-06T10:13:55Z</time>
        <course>60.6694875963742</course>
        <speed>8.30781905261826</speed>
      </trkpt>
      <trkpt lat="43.76248" lon="3.23449">
        <ele>774</ele>
        <time>2012-01-06T10:13:59Z</time>
        <course>21.7652582881613</course>
        <speed>4.52771829858879</speed>
      </trkpt>
      <trkpt lat="43.7627" lon="3.2344">
        <ele>775</ele>
        <time>2012-01-06T10:14:04Z</time>
        <course>342.747465693692</course>
        <speed>4.52771586580757</speed>
      </trkpt>
      <trkpt lat="43.76292" lon="3.23447">
        <ele>776</ele>
        <time>2012-01-06T10:14:10Z</time>
        <course>325.038978730888</course>
        <speed>4.52924571843823</speed>
      </trkpt>
      <trkpt lat="43.76366" lon="3.235">
        <ele>780</ele>
        <time>2012-01-06T10:14:30Z</time>
        <course>333.62215607655</course>
        <speed>5.67050169591443</speed>
      </trkpt>
      <trkpt lat="43.76429" lon="3.23532">
        <ele>781</ele>
        <time>2012-01-06T10:14:43Z</time>
        <course>342.691461497197</course>
        <speed>5.67150043806852</speed>
      </trkpt>
      <trkpt lat="43.76476" lon="3.23547">
        <ele>783</ele>
        <time>2012-01-06T10:14:53Z</time>
        <course>351.527134586494</course>
        <speed>8.31745552656729</speed>
      </trkpt>
      <trkpt lat="43.76535" lon="3.23556">
        <ele>780</ele>
        <time>2012-01-06T10:15:01Z</time>
        <course>14.8649752522867</course>
        <speed>8.32111113913489</speed>
      </trkpt>
      <trkpt lat="43.76627" lon="3.23531">
        <ele>777</ele>
        <time>2012-01-06T10:15:13Z</time>
        <course>353.805649901421</course>
        <speed>3.66165829768816</speed>
      </trkpt>
      <trkpt lat="43.76654" lon="3.23534">
        <ele>778</ele>
        <time>2012-01-06T10:15:21Z</time>
        <course>329.327448581465</course>
        <speed>3.66482314465446</speed>
      </trkpt>
      <trkpt lat="43.76682" lon="3.23551">
        <ele>781</ele>
        <time>2012-01-06T10:15:31Z</time>
        <course>315.302548133285</course>
        <speed>3.66297905002719</speed>
      </trkpt>
      <trkpt lat="43.76761" lon="3.23631">
        <ele>788</ele>
        <time>2012-01-06T10:16:00Z</time>
        <course>333.384749092014</course>
        <speed>8.31170729589175</speed>
      </trkpt>
      <trkpt lat="43.768" lon="3.23651">
        <ele>787</ele>
        <time>2012-01-06T10:16:06Z</time>
        <course>357.567201947676</course>
        <speed>8.32905354192905</speed>
      </trkpt>
      <trkpt lat="43.76823" lon="3.23652">
        <ele>787</ele>
        <time>2012-01-06T10:16:09Z</time>
        <course>8.66947229074141</course>
        <speed>8.31706334320002</speed>
      </trkpt>
      <trkpt lat="43.77041" lon="3.23618">
        <ele>787</ele>
        <time>2012-01-06T10:16:38Z</time>
        <course>354.224682777536</course>
        <speed>7.26170505582109</speed>
      </trkpt>
      <trkpt lat="43.7707" lon="3.23621">
        <ele>787</ele>
        <time>2012-01-06T10:16:43Z</time>
        <course>341.04015038403</course>
        <speed>7.26319468092897</speed>
      </trkpt>
      <trkpt lat="43.77107" lon="3.23634">
        <ele>787</ele>
        <time>2012-01-06T10:16:49Z</time>
        <course>322.105128004327</course>
        <speed>7.26023823238177</speed>
      </trkpt>
      <trkpt lat="43.77156" lon="3.23673">
        <ele>788</ele>
        <time>2012-01-06T10:16:57Z</time>
        <course>312.12887607095</course>
        <speed>8.32064273836318</speed>
      </trkpt>
      <trkpt lat="43.77202" lon="3.23725">
        <ele>787</ele>
        <time>2012-01-06T10:17:05Z</time>
        <course>298.351542581252</course>
        <speed>8.32078052363169</speed>
      </trkpt>
      <trkpt lat="43.77221" lon="3.23761">
        <ele>787</ele>
        <time>2012-01-06T10:17:09Z</time>
        <course>287.778466412079</course>
        <speed>7.27851688792529</speed>
      </trkpt>
      <trkpt lat="43.77253" lon="3.23863">
        <ele>787</ele>
        <time>2012-01-06T10:17:22Z</time>
        <course>301.700269715132</course>
        <speed>7.27791554560679</speed>
      </trkpt>
      <trkpt lat="43.77282" lon="3.23911">
        <ele>788</ele>
        <time>2012-01-06T10:17:29Z</time>
        <course>311.633113771582</course>
        <speed>8.3129380946927</speed>
      </trkpt>
      <trkpt lat="43.77322" lon="3.23957">
        <ele>787</ele>
        <time>2012-01-06T10:17:36Z</time>
        <course>324.7577239247</course>
        <speed>8.32402324355534</speed>
      </trkpt>
      <trkpt lat="43.7734" lon="3.2397">
        <ele>787</ele>
        <time>2012-01-06T10:17:38Z</time>
        <course>339.640684471904</course>
        <speed>8.31135520598601</speed>
      </trkpt>
      <trkpt lat="43.77369" lon="3.23981">
        <ele>787</ele>
        <time>2012-01-06T10:17:42Z</time>
        <course>358.856081888368</course>
        <speed>5.70804105130568</speed>
      </trkpt>
      <trkpt lat="43.77418" lon="3.23982">
        <ele>788</ele>
        <time>2012-01-06T10:17:52Z</time>
        <course>21.0269766531063</course>
        <speed>5.70391902672965</speed>
      </trkpt>
      <trkpt lat="43.77446" lon="3.23971">
        <ele>788</ele>
        <time>2012-01-06T10:17:58Z</time>
        <course>36.5954998496673</course>
        <speed>5.70735410368817</speed>
      </trkpt>
      <trkpt lat="43.77653" lon="3.23814">
        <ele>795</ele>
        <time>2012-01-06T10:18:43Z</time>
        <course>8.69736754809848</course>
        <speed>7.07892765023084</speed>
      </trkpt>
      <trkpt lat="43.77717" lon="3.23804">
        <ele>795</ele>
        <time>2012-01-06T10:18:54Z</time>
        <course>350.336628499606</course>
        <speed>7.07645871366917</speed>
      </trkpt>
      <trkpt lat="43.7774" lon="3.23808">
        <ele>795</ele>
        <time>2012-01-06T10:18:57Z</time>
        <course>320.358795851937</course>
        <speed>7.08294955511367</speed>
      </trkpt>
      <trkpt lat="43.77753" lon="3.23819">
        <ele>796</ele>
        <time>2012-01-06T10:19:00Z</time>
        <course>303.575922184224</course>
        <speed>3.99459558057708</speed>
      </trkpt>
      <trkpt lat="43.77779" lon="3.23859">
        <ele>798</ele>
        <time>2012-01-06T10:19:10Z</time>
        <course>318.460294119781</course>
        <speed>3.99328563276466</speed>
      </trkpt>
      <trkpt lat="43.778" lon="3.23878">
        <ele>799</ele>
        <time>2012-01-06T10:19:17Z</time>
        <course>333.912701854304</course>
        <speed>3.99625971211277</speed>
      </trkpt>
      <trkpt lat="43.77816" lon="3.23886">
        <ele>800</ele>
        <time>2012-01-06T10:19:22Z</time>
        <course>350.469972995994</course>
        <speed>3.99477941654378</speed>
      </trkpt>
      <trkpt lat="43.77851" lon="3.23892">
        <ele>803</ele>
        <time>2012-01-06T10:19:32Z</time>
        <course>5.72050307809944</course>
        <speed>4.90504428508748</speed>
      </trkpt>
      <trkpt lat="43.77939" lon="3.23883">
        <ele>806</ele>
        <time>2012-01-06T10:19:52Z</time>
        <course>336.877890828043</course>
        <speed>4.90630373624495</speed>
      </trkpt>
      <trkpt lat="43.77978" lon="3.239">
        <ele>808</ele>
        <time>2012-01-06T10:20:01Z</time>
        <course>310.190500140646</course>
        <speed>5.4616339866765</speed>
      </trkpt>
      <trkpt lat="43.78002" lon="3.23929">
        <ele>808</ele>
        <time>2012-01-06T10:20:08Z</time>
        <course>302.045090867771</course>
        <speed>5.46000139481619</speed>
      </trkpt>
      <trkpt lat="43.78048" lon="3.24004">
        <ele>811</ele>
        <time>2012-01-06T10:20:22Z</time>
        <course>308.564976665164</course>
        <speed>6.40580413304792</speed>
      </trkpt>
      <trkpt lat="43.78098" lon="3.24068">
        <ele>812</ele>
        <time>2012-01-06T10:20:34Z</time>
        <course>316.943834890406</course>
        <speed>6.40275711084461</speed>
      </trkpt>
      <trkpt lat="43.78141" lon="3.24109">
        <ele>813</ele>
        <time>2012-01-06T10:20:43Z</time>
        <course>321.762995999448</course>
        <speed>8.32066732217809</speed>
      </trkpt>
      <trkpt lat="43.78243" lon="3.24191">
        <ele>811</ele>
        <time>2012-01-06T10:20:59Z</time>
        <course>339.819218479736</course>
        <speed>5.70256456783389</speed>
      </trkpt>
      <trkpt lat="43.78259" lon="3.24197">
        <ele>811</ele>
        <time>2012-01-06T10:21:02Z</time>
        <course>360</course>
        <speed>5.70263929613965</speed>
      </trkpt>
      <trkpt lat="43.78294" lon="3.24197">
        <ele>812</ele>
        <time>2012-01-06T10:21:09Z</time>
        <course>7.37135741649671</course>
        <speed>5.70596911473271</speed>
      </trkpt>
      <trkpt lat="43.78438" lon="3.24178">
        <ele>816</ele>
        <time>2012-01-06T10:21:37Z</time>
        <course>332.026266072436</course>
        <speed>4.78054020083599</speed>
      </trkpt>
      <trkpt lat="43.78462" lon="3.24191">
        <ele>817</ele>
        <time>2012-01-06T10:21:43Z</time>
        <course>320.651083158517</course>
        <speed>4.77813083406977</speed>
      </trkpt>
      <trkpt lat="43.78523" lon="3.24242">
        <ele>820</ele>
        <time>2012-01-06T10:22:00Z</time>
        <course>330.178376811339</course>
        <speed>7.14354280834847</speed>
      </trkpt>
      <trkpt lat="43.786" lon="3.24287">
        <ele>820</ele>
        <time>2012-01-06T10:22:13Z</time>
        <course>343.835262941827</course>
        <speed>7.14520428910618</speed>
      </trkpt>
      <trkpt lat="43.78732" lon="3.24326">
        <ele>822</ele>
        <time>2012-01-06T10:22:34Z</time>
        <course>339.611794213235</course>
        <speed>8.31857218231453</speed>
      </trkpt>
      <trkpt lat="43.78798" lon="3.24351">
        <ele>818</ele>
        <time>2012-01-06T10:22:43Z</time>
        <course>3.07788723891242</course>
        <speed>8.3177292342386</speed>
      </trkpt>
      <trkpt lat="43.78871" lon="3.24347">
        <ele>814</ele>
        <time>2012-01-06T10:22:52Z</time>
        <course>348.240535702238</course>
        <speed>8.31772043222756</speed>
      </trkpt>
      <trkpt lat="43.78904" lon="3.24354">
        <ele>813</ele>
        <time>2012-01-06T10:22:57Z</time>
        <course>327.582881464581</course>
        <speed>8.30662581324995</speed>
      </trkpt>
      <trkpt lat="43.78921" lon="3.24365">
        <ele>813</ele>
        <time>2012-01-06T10:22:59Z</time>
        <course>316.192047930911</course>
        <speed>8.32202481252859</speed>
      </trkpt>
      <trkpt lat="43.78965" lon="3.24408">
        <ele>812</ele>
        <time>2012-01-06T10:23:07Z</time>
        <course>333.547241679515</course>
        <speed>8.32146318123404</speed>
      </trkpt>
      <trkpt lat="43.79038" lon="3.24445">
        <ele>810</ele>
        <time>2012-01-06T10:23:17Z</time>
        <course>26.9204261086963</course>
        <speed>8.30865822259898</speed>
      </trkpt>
      <trkpt lat="43.79067" lon="3.2443">
        <ele>810</ele>
        <time>2012-01-06T10:23:21Z</time>
        <course>38.7779294776917</course>
        <speed>4.42757844643647</speed>
      </trkpt>
      <trkpt lat="43.79155" lon="3.24358">
        <ele>815</ele>
        <time>2012-01-06T10:23:47Z</time>
        <course>53.5471039102955</course>
        <speed>5.48714913656833</speed>
      </trkpt>
      <trkpt lat="43.79229" lon="3.24256">
        <ele>818</ele>
        <time>2012-01-06T10:24:08Z</time>
        <course>35.3475337053731</course>
        <speed>3.88906165756986</speed>
      </trkpt>
      <trkpt lat="43.79265" lon="3.2423">
        <ele>820</ele>
        <time>2012-01-06T10:24:19Z</time>
        <course>15.5345431372881</course>
        <speed>3.89061835978571</speed>
      </trkpt>
      <trkpt lat="43.79318" lon="3.24215">
        <ele>824</ele>
        <time>2012-01-06T10:24:35Z</time>
        <course>5.05622820009331</course>
        <speed>5.83746496116257</speed>
      </trkpt>
      <trkpt lat="43.79529" lon="3.24196">
        <ele>829</ele>
        <time>2012-01-06T10:25:15Z</time>
        <course>19.6636330995585</course>
        <speed>8.31397596750896</speed>
      </trkpt>
      <trkpt lat="43.79584" lon="3.24176">
        <ele>828</ele>
        <time>2012-01-06T10:25:23Z</time>
        <course>17.862251713785</course>
        <speed>8.31707334724158</speed>
      </trkpt>
      <trkpt lat="43.79706" lon="3.24136">
        <ele>828</ele>
        <time>2012-01-06T10:25:40Z</time>
        <course>360</course>
        <speed>5.85323456791948</speed>
      </trkpt>
      <trkpt lat="43.79834" lon="3.24136">
        <ele>831</ele>
        <time>2012-01-06T10:26:04Z</time>
        <course>43.7937845838935</course>
        <speed>7.0266283400127</speed>
      </trkpt>
      <trkpt lat="43.79914" lon="3.24058">
        <ele>832</ele>
        <time>2012-01-06T10:26:19Z</time>
        <course>56.5370984842934</course>
        <speed>8.31314464448951</speed>
      </trkpt>
      <trkpt lat="43.79953" lon="3.23998">
        <ele>830</ele>
        <time>2012-01-06T10:26:27Z</time>
        <course>37.9016874166973</course>
        <speed>8.32395673597605</speed>
      </trkpt>
      <trkpt lat="43.79977" lon="3.23979">
        <ele>829</ele>
        <time>2012-01-06T10:26:31Z</time>
        <course>2.01156243290474</course>
        <speed>8.32190781002671</speed>
      </trkpt>
      <trkpt lat="43.80005" lon="3.23978">
        <ele>829</ele>
        <time>2012-01-06T10:26:35Z</time>
        <course>330.157647071987</course>
        <speed>4.30596933646961</speed>
      </trkpt>
      <trkpt lat="43.80017" lon="3.23985">
        <ele>829</ele>
        <time>2012-01-06T10:26:38Z</time>
        <course>307.475950536625</course>
        <speed>4.30642703107318</speed>
      </trkpt>
      <trkpt lat="43.80063" lon="3.24046">
        <ele>832</ele>
        <time>2012-01-06T10:26:54Z</time>
        <course>320.99215122257</course>
        <speed>4.30890307786838</speed>
      </trkpt>
      <trkpt lat="43.8008" lon="3.2406">
        <ele>834</ele>
        <time>2012-01-06T10:26:59Z</time>
        <course>348.30078808286</course>
        <speed>8.30939106031906</speed>
      </trkpt>
      <trkpt lat="43.80099" lon="3.24064">
        <ele>832</ele>
        <time>2012-01-06T10:27:02Z</time>
        <course>15.8942765393748</course>
        <speed>8.31162548467637</speed>
      </trkpt>
      <trkpt lat="43.80137" lon="3.24053">
        <ele>830</ele>
        <time>2012-01-06T10:27:07Z</time>
        <course>344.600169562041</course>
        <speed>8.31131497823908</speed>
      </trkpt>
      <trkpt lat="43.80162" lon="3.2406">
        <ele>829</ele>
        <time>2012-01-06T10:27:11Z</time>
        <course>299.453794010687</course>
        <speed>8.30579957067414</speed>
      </trkpt>
      <trkpt lat="43.80177" lon="3.24087">
        <ele>828</ele>
        <time>2012-01-06T10:27:14Z</time>
        <course>283.604431775257</course>
        <speed>5.47366931040651</speed>
      </trkpt>
      <trkpt lat="43.80182" lon="3.24108">
        <ele>828</ele>
        <time>2012-01-06T10:27:17Z</time>
        <course>264.273279056232</course>
        <speed>5.46817663751523</speed>
      </trkpt>
      <trkpt lat="43.80175" lon="3.24179">
        <ele>829</ele>
        <time>2012-01-06T10:27:28Z</time>
        <course>272.327128271942</course>
        <speed>5.47157462019529</speed>
      </trkpt>
      <trkpt lat="43.80176" lon="3.24204">
        <ele>830</ele>
        <time>2012-01-06T10:27:31Z</time>
        <course>284.850571622294</course>
        <speed>5.46346734542027</speed>
      </trkpt>
      <trkpt lat="43.80182" lon="3.24227">
        <ele>831</ele>
        <time>2012-01-06T10:27:35Z</time>
        <course>304.595023768238</course>
        <speed>8.30790134788663</speed>
      </trkpt>
      <trkpt lat="43.80201" lon="3.24255">
        <ele>830</ele>
        <time>2012-01-06T10:27:39Z</time>
        <course>320.879151326824</course>
        <speed>8.31987310052912</speed>
      </trkpt>
      <trkpt lat="43.80368" lon="3.24393">
        <ele>828</ele>
        <time>2012-01-06T10:28:05Z</time>
        <course>328.679920776932</course>
        <speed>8.31853939994156</speed>
      </trkpt>
      <trkpt lat="43.80478" lon="3.24461">
        <ele>827</ele>
        <time>2012-01-06T10:28:21Z</time>
        <course>324.326828499406</course>
        <speed>8.31912920401824</speed>
      </trkpt>
      <trkpt lat="43.80574" lon="3.24531">
        <ele>827</ele>
        <time>2012-01-06T10:28:35Z</time>
        <course>346.806407482783</course>
        <speed>8.31507854086224</speed>
      </trkpt>
      <trkpt lat="43.80658" lon="3.24551">
        <ele>821</ele>
        <time>2012-01-06T10:28:47Z</time>
        <course>324.581162977899</course>
        <speed>8.32302765183497</speed>
      </trkpt>
      <trkpt lat="43.80694" lon="3.24577">
        <ele>819</ele>
        <time>2012-01-06T10:28:52Z</time>
        <course>299.429809786419</course>
        <speed>7.28654543806915</speed>
      </trkpt>
      <trkpt lat="43.80714" lon="3.24613">
        <ele>819</ele>
        <time>2012-01-06T10:28:57Z</time>
        <course>282.715789359109</course>
        <speed>7.28463011948576</speed>
      </trkpt>
      <trkpt lat="43.8072" lon="3.2464">
        <ele>819</ele>
        <time>2012-01-06T10:29:00Z</time>
        <course>265.414306994056</course>
        <speed>7.2987834550371</speed>
      </trkpt>
      <trkpt lat="43.80717" lon="3.24678">
        <ele>819</ele>
        <time>2012-01-06T10:29:04Z</time>
        <course>259.048946593135</course>
        <speed>7.29767298725058</speed>
      </trkpt>
      <trkpt lat="43.80705" lon="3.24741">
        <ele>820</ele>
        <time>2012-01-06T10:29:11Z</time>
        <course>267.844590757708</course>
        <speed>8.30669759057277</speed>
      </trkpt>
      <trkpt lat="43.80704" lon="3.24768">
        <ele>819</ele>
        <time>2012-01-06T10:29:14Z</time>
        <course>289.298235244724</course>
        <speed>8.31425973647011</speed>
      </trkpt>
      <trkpt lat="43.80714" lon="3.24797">
        <ele>818</ele>
        <time>2012-01-06T10:29:17Z</time>
        <course>321.769429509312</course>
        <speed>8.33179657236629</speed>
      </trkpt>
      <trkpt lat="43.80729" lon="3.24809">
        <ele>818</ele>
        <time>2012-01-06T10:29:19Z</time>
        <course>12.0203500548797</course>
        <speed>8.32238113075728</speed>
      </trkpt>
      <trkpt lat="43.80766" lon="3.24801">
        <ele>817</ele>
        <time>2012-01-06T10:29:24Z</time>
        <course>44.5633248284542</course>
        <speed>8.32085312919363</speed>
      </trkpt>
      <trkpt lat="43.80798" lon="3.24769">
        <ele>816</ele>
        <time>2012-01-06T10:29:30Z</time>
        <course>69.433859792566</course>
        <speed>8.32199641774211</speed>
      </trkpt>
      <trkpt lat="43.80815" lon="3.24723">
        <ele>813</ele>
        <time>2012-01-06T10:29:35Z</time>
        <course>74.4677603545793</course>
        <speed>8.31938551170695</speed>
      </trkpt>
      <trkpt lat="43.80838" lon="3.24639">
        <ele>809</ele>
        <time>2012-01-06T10:29:43Z</time>
        <course>63.7920980819774</course>
        <speed>8.32396949815877</speed>
      </trkpt>
      <trkpt lat="43.80854" lon="3.24606">
        <ele>805</ele>
        <time>2012-01-06T10:29:47Z</time>
        <course>56.6348757319315</course>
        <speed>8.31132442271458</speed>
      </trkpt>
      <trkpt lat="43.80878" lon="3.24569">
        <ele>801</ele>
        <time>2012-01-06T10:29:52Z</time>
        <course>46.9087443193009</course>
        <speed>8.3229131737728</speed>
      </trkpt>
      <trkpt lat="43.80925" lon="3.24518">
        <ele>794</ele>
        <time>2012-01-06T10:30:00Z</time>
        <course>32.515079730119</course>
        <speed>8.32269969345173</speed>
      </trkpt>
      <trkpt lat="43.80959" lon="3.24496">
        <ele>791</ele>
        <time>2012-01-06T10:30:05Z</time>
        <course>23.8440614311405</course>
        <speed>8.31635139839747</speed>
      </trkpt>
      <trkpt lat="43.81095" lon="3.24435">
        <ele>780</ele>
        <time>2012-01-06T10:30:24Z</time>
        <course>6.42590539431383</course>
        <speed>8.32069042039591</speed>
      </trkpt>
      <trkpt lat="43.81165" lon="3.24427">
        <ele>773</ele>
        <time>2012-01-06T10:30:33Z</time>
        <course>346.158605834337</course>
        <speed>8.31266935288308</speed>
      </trkpt>
      <trkpt lat="43.81213" lon="3.24439">
        <ele>769</ele>
        <time>2012-01-06T10:30:40Z</time>
        <course>338.419972375826</course>
        <speed>7.54061658266179</speed>
      </trkpt>
      <trkpt lat="43.8138" lon="3.24506">
        <ele>770</ele>
        <time>2012-01-06T10:31:06Z</time>
        <course>335.565544312573</course>
        <speed>8.3177859725213</speed>
      </trkpt>
      <trkpt lat="43.81482" lon="3.24553">
        <ele>769</ele>
        <time>2012-01-06T10:31:20Z</time>
        <course>323.999268698037</course>
        <speed>6.1786919338743</speed>
      </trkpt>
      <trkpt lat="43.81501" lon="3.24567">
        <ele>769</ele>
        <time>2012-01-06T10:31:24Z</time>
        <course>302.639226929717</course>
        <speed>6.17253667238934</speed>
      </trkpt>
      <trkpt lat="43.81513" lon="3.24586">
        <ele>769</ele>
        <time>2012-01-06T10:31:27Z</time>
        <course>280.446256841684</course>
        <speed>6.16655356737083</speed>
      </trkpt>
      <trkpt lat="43.81517" lon="3.24608">
        <ele>770</ele>
        <time>2012-01-06T10:31:30Z</time>
        <course>267.627365857461</course>
        <speed>6.17767829612739</speed>
      </trkpt>
      <trkpt lat="43.81515" lon="3.24657">
        <ele>770</ele>
        <time>2012-01-06T10:31:36Z</time>
        <course>280.765475049679</course>
        <speed>6.1651635405927</speed>
      </trkpt>
      <trkpt lat="43.81518" lon="3.24673">
        <ele>771</ele>
        <time>2012-01-06T10:31:39Z</time>
        <course>302.834999739186</course>
        <speed>3.21748389531785</speed>
      </trkpt>
      <trkpt lat="43.81532" lon="3.24695">
        <ele>772</ele>
        <time>2012-01-06T10:31:46Z</time>
        <course>335.528283015413</course>
        <speed>3.21895010423198</speed>
      </trkpt>
      <trkpt lat="43.81545" lon="3.24701">
        <ele>774</ele>
        <time>2012-01-06T10:31:51Z</time>
        <course>10.6687647586476</course>
        <speed>3.21830190750693</speed>
      </trkpt>
      <trkpt lat="43.81634" lon="3.24684">
        <ele>782</ele>
        <time>2012-01-06T10:32:22Z</time>
        <course>343.444516066118</course>
        <speed>3.71258297838237</speed>
      </trkpt>
      <trkpt lat="43.81707" lon="3.24706">
        <ele>787</ele>
        <time>2012-01-06T10:32:44Z</time>
        <course>355.969371176063</course>
        <speed>3.71245186643804</speed>
      </trkpt>
      <trkpt lat="43.81777" lon="3.24711">
        <ele>792</ele>
        <time>2012-01-06T10:33:05Z</time>
        <course>32.3833334108424</course>
        <speed>3.54316197763859</speed>
      </trkpt>
      <trkpt lat="43.81805" lon="3.24693">
        <ele>794</ele>
        <time>2012-01-06T10:33:15Z</time>
        <course>53.1618791813751</course>
        <speed>3.54112435706456</speed>
      </trkpt>
      <trkpt lat="43.81839" lon="3.24647">
        <ele>797</ele>
        <time>2012-01-06T10:33:30Z</time>
        <course>35.389483464519</course>
        <speed>3.5412980466682</speed>
      </trkpt>
      <trkpt lat="43.81864" lon="3.24629">
        <ele>800</ele>
        <time>2012-01-06T10:33:38Z</time>
        <course>21.6929467971954</course>
        <speed>3.19325542989695</speed>
      </trkpt>
      <trkpt lat="43.81993" lon="3.24577">
        <ele>812</ele>
        <time>2012-01-06T10:34:25Z</time>
        <course>349.253836064534</course>
        <speed>4.81319938439195</speed>
      </trkpt>
      <trkpt lat="43.82019" lon="3.24582">
        <ele>813</ele>
        <time>2012-01-06T10:34:31Z</time>
        <course>326.234127869981</course>
        <speed>4.81074877590373</speed>
      </trkpt>
      <trkpt lat="43.8205" lon="3.24603">
        <ele>814</ele>
        <time>2012-01-06T10:34:39Z</time>
        <course>307.931567526028</course>
        <speed>4.81361974893549</speed>
      </trkpt>
      <trkpt lat="43.8207" lon="3.24629">
        <ele>815</ele>
        <time>2012-01-06T10:34:46Z</time>
        <course>286.704766280727</course>
        <speed>4.8101150326677</speed>
      </trkpt>
      <trkpt lat="43.82102" lon="3.24737">
        <ele>819</ele>
        <time>2012-01-06T10:35:05Z</time>
        <course>303.246473482945</course>
        <speed>5.12819813995841</speed>
      </trkpt>
      <trkpt lat="43.82113" lon="3.24754">
        <ele>819</ele>
        <time>2012-01-06T10:35:09Z</time>
        <course>319.766742108682</course>
        <speed>5.12363354336987</speed>
      </trkpt>
      <trkpt lat="43.82127" lon="3.24766">
        <ele>820</ele>
        <time>2012-01-06T10:35:12Z</time>
        <course>346.773738992447</course>
        <speed>5.13044680222601</speed>
      </trkpt>
      <trkpt lat="43.82169" lon="3.24776">
        <ele>821</ele>
        <time>2012-01-06T10:35:21Z</time>
        <course>2.82581010130751</course>
        <speed>5.12997839607099</speed>
      </trkpt>
      <trkpt lat="43.82209" lon="3.24774">
        <ele>823</ele>
        <time>2012-01-06T10:35:30Z</time>
        <course>14.9399274115799</course>
        <speed>3.57717981798478</speed>
      </trkpt>
      <trkpt lat="43.82246" lon="3.24764">
        <ele>825</ele>
        <time>2012-01-06T10:35:42Z</time>
        <course>30.4153391180366</course>
        <speed>3.5790359612857</speed>
      </trkpt>
      <trkpt lat="43.82283" lon="3.24742">
        <ele>828</ele>
        <time>2012-01-06T10:35:54Z</time>
        <course>14.7509814337068</course>
        <speed>3.57717344034976</speed>
      </trkpt>
      <trkpt lat="43.82313" lon="3.24734">
        <ele>831</ele>
        <time>2012-01-06T10:36:04Z</time>
        <course>347.0257265024</course>
        <speed>8.32637243578297</speed>
      </trkpt>
      <trkpt lat="43.82343" lon="3.24741">
        <ele>831</ele>
        <time>2012-01-06T10:36:08Z</time>
        <course>325.346227689156</course>
        <speed>8.31298954929758</speed>
      </trkpt>
      <trkpt lat="43.82383" lon="3.24769">
        <ele>831</ele>
        <time>2012-01-06T10:36:14Z</time>
        <course>299.473657154878</course>
        <speed>8.31766611733607</speed>
      </trkpt>
      <trkpt lat="43.82407" lon="3.24812">
        <ele>831</ele>
        <time>2012-01-06T10:36:19Z</time>
        <course>285.31946066219</course>
        <speed>7.18451904179563</speed>
      </trkpt>
      <trkpt lat="43.8243" lon="3.24897">
        <ele>831</ele>
        <time>2012-01-06T10:36:29Z</time>
        <course>291.538479109913</course>
        <speed>7.18757350895853</speed>
      </trkpt>
      <trkpt lat="43.82453" lon="3.24956">
        <ele>832</ele>
        <time>2012-01-06T10:36:37Z</time>
        <course>306.870299687879</course>
        <speed>8.31721042848258</speed>
      </trkpt>
      <trkpt lat="43.82473" lon="3.24983">
        <ele>832</ele>
        <time>2012-01-06T10:36:40Z</time>
        <course>329.349706079728</course>
        <speed>8.33148103100013</speed>
      </trkpt>
      <trkpt lat="43.82488" lon="3.24992">
        <ele>832</ele>
        <time>2012-01-06T10:36:43Z</time>
        <course>360</course>
        <speed>8.31212598428164</speed>
      </trkpt>
      <trkpt lat="43.82526" lon="3.24992">
        <ele>832</ele>
        <time>2012-01-06T10:36:48Z</time>
        <course>28.6129030762831</course>
        <speed>8.32209086850678</speed>
      </trkpt>
      <trkpt lat="43.82593" lon="3.24955">
        <ele>832</ele>
        <time>2012-01-06T10:36:57Z</time>
        <course>18.5299922361593</course>
        <speed>8.32003324094165</speed>
      </trkpt>
      <trkpt lat="43.82649" lon="3.24936">
        <ele>829</ele>
        <time>2012-01-06T10:37:05Z</time>
        <course>3.36571855157241</course>
        <speed>8.3193965764663</speed>
      </trkpt>
      <trkpt lat="43.82733" lon="3.24931">
        <ele>826</ele>
        <time>2012-01-06T10:37:16Z</time>
        <course>18.9091441317586</course>
        <speed>8.31624485011594</speed>
      </trkpt>
      <trkpt lat="43.82808" lon="3.24905">
        <ele>825</ele>
        <time>2012-01-06T10:37:26Z</time>
        <course>3.42734288341336</course>
        <speed>8.32304600668467</speed>
      </trkpt>
      <trkpt lat="43.82841" lon="3.24903">
        <ele>825</ele>
        <time>2012-01-06T10:37:31Z</time>
        <course>354.864970702511</course>
        <speed>6.61568223480429</speed>
      </trkpt>
      <trkpt lat="43.8305" lon="3.24922">
        <ele>828</ele>
        <time>2012-01-06T10:38:06Z</time>
        <course>347.064250249653</course>
        <speed>6.12537413016591</speed>
      </trkpt>
      <trkpt lat="43.83149" lon="3.24945">
        <ele>830</ele>
        <time>2012-01-06T10:38:24Z</time>
        <course>343.077276844113</course>
        <speed>5.7378062461565</speed>
      </trkpt>
      <trkpt lat="43.83266" lon="3.24981">
        <ele>833</ele>
        <time>2012-01-06T10:38:48Z</time>
        <course>349.643845995414</course>
        <speed>5.26196891224256</speed>
      </trkpt>
      <trkpt lat="43.83358" lon="3.24998">
        <ele>836</ele>
        <time>2012-01-06T10:39:07Z</time>
        <course>311.322815895241</course>
        <speed>8.32146922766697</speed>
      </trkpt>
      <trkpt lat="43.83378" lon="3.25021">
        <ele>835</ele>
        <time>2012-01-06T10:39:11Z</time>
        <course>281.894508349368</course>
        <speed>8.30864364653729</speed>
      </trkpt>
      <trkpt lat="43.83383" lon="3.25045">
        <ele>835</ele>
        <time>2012-01-06T10:39:13Z</time>
        <course>260.943240931493</course>
        <speed>8.31854457398448</speed>
      </trkpt>
      <trkpt lat="43.8336" lon="3.25191">
        <ele>834</ele>
        <time>2012-01-06T10:39:27Z</time>
        <course>263.588101743615</course>
        <speed>8.31817626993588</speed>
      </trkpt>
      <trkpt lat="43.83356" lon="3.25227">
        <ele>833</ele>
        <time>2012-01-06T10:39:31Z</time>
        <course>275.413894831257</course>
        <speed>8.31701894840256</speed>
      </trkpt>
      <trkpt lat="43.83359" lon="3.25259">
        <ele>832</ele>
        <time>2012-01-06T10:39:34Z</time>
        <course>289.11893411219</course>
        <speed>8.32776463656573</speed>
      </trkpt>
      <trkpt lat="43.83371" lon="3.25294">
        <ele>832</ele>
        <time>2012-01-06T10:39:38Z</time>
        <course>303.771717480327</course>
        <speed>8.31694617672303</speed>
      </trkpt>
      <trkpt lat="43.83457" lon="3.25424">
        <ele>829</ele>
        <time>2012-01-06T10:39:55Z</time>
        <course>297.433124706947</course>
        <speed>8.32111701653006</speed>
      </trkpt>
      <trkpt lat="43.83495" lon="3.25498">
        <ele>826</ele>
        <time>2012-01-06T10:40:03Z</time>
        <course>291.312669877184</course>
        <speed>8.3174068422429</speed>
      </trkpt>
      <trkpt lat="43.83517" lon="3.25555">
        <ele>824</ele>
        <time>2012-01-06T10:40:10Z</time>
        <course>286.423914876161</course>
        <speed>8.31670106028126</speed>
      </trkpt>
      <trkpt lat="43.83545" lon="3.25651">
        <ele>822</ele>
        <time>2012-01-06T10:40:20Z</time>
        <course>280.953365775861</course>
        <speed>8.3107417530399</speed>
      </trkpt>
      <trkpt lat="43.83554" lon="3.25698">
        <ele>822</ele>
        <time>2012-01-06T10:40:24Z</time>
        <course>274.700064362891</course>
        <speed>8.3177585996375</speed>
      </trkpt>
      <trkpt lat="43.83561" lon="3.25784">
        <ele>818</ele>
        <time>2012-01-06T10:40:33Z</time>
        <course>267.069083177722</course>
        <speed>8.31646343677589</speed>
      </trkpt>
      <trkpt lat="43.83551" lon="3.25982">
        <ele>811</ele>
        <time>2012-01-06T10:40:52Z</time>
        <course>261.061679557085</course>
        <speed>8.31050451984288</speed>
      </trkpt>
      <trkpt lat="43.83544" lon="3.26027">
        <ele>810</ele>
        <time>2012-01-06T10:40:56Z</time>
        <course>251.375308202823</course>
        <speed>8.31515245895776</speed>
      </trkpt>
      <trkpt lat="43.83523" lon="3.2609">
        <ele>808</ele>
        <time>2012-01-06T10:41:03Z</time>
        <course>262.006117263003</course>
        <speed>8.32456684002367</speed>
      </trkpt>
      <trkpt lat="43.83518" lon="3.26126">
        <ele>808</ele>
        <time>2012-01-06T10:41:07Z</time>
        <course>269.997228389781</course>
        <speed>8.31794654157466</speed>
      </trkpt>
      <trkpt lat="43.83518" lon="3.26192">
        <ele>805</ele>
        <time>2012-01-06T10:41:13Z</time>
        <course>276.407324340283</course>
        <speed>8.31795569531324</speed>
      </trkpt>
      <trkpt lat="43.83522" lon="3.26228">
        <ele>803</ele>
        <time>2012-01-06T10:41:16Z</time>
        <course>292.225981400583</course>
        <speed>8.32088670298782</speed>
      </trkpt>
      <trkpt lat="43.83541" lon="3.26275">
        <ele>801</ele>
        <time>2012-01-06T10:41:22Z</time>
        <course>316.639280100965</course>
        <speed>8.31397476281445</speed>
      </trkpt>
      <trkpt lat="43.83585" lon="3.26317">
        <ele>799</ele>
        <time>2012-01-06T10:41:29Z</time>
        <course>324.552711993594</course>
        <speed>8.3181405440738</speed>
      </trkpt>
      <trkpt lat="43.83724" lon="3.26417">
        <ele>795</ele>
        <time>2012-01-06T10:41:50Z</time>
        <course>308.952919994305</course>
        <speed>7.19967736858223</speed>
      </trkpt>
      <trkpt lat="43.83756" lon="3.26457">
        <ele>795</ele>
        <time>2012-01-06T10:41:56Z</time>
        <course>299.861553944478</course>
        <speed>7.20608368595665</speed>
      </trkpt>
      <trkpt lat="43.83781" lon="3.26501">
        <ele>795</ele>
        <time>2012-01-06T10:42:03Z</time>
        <course>290.752281104127</course>
        <speed>7.19808707640676</speed>
      </trkpt>
      <trkpt lat="43.83796" lon="3.26541">
        <ele>796</ele>
        <time>2012-01-06T10:42:08Z</time>
        <course>282.484324163093</course>
        <speed>8.31934134195668</speed>
      </trkpt>
      <trkpt lat="43.83837" lon="3.26728">
        <ele>790</ele>
        <time>2012-01-06T10:42:26Z</time>
        <course>297.890417007381</course>
        <speed>8.32066179377725</speed>
      </trkpt>
      <trkpt lat="43.83848" lon="3.26749">
        <ele>788</ele>
        <time>2012-01-06T10:42:29Z</time>
        <course>322.412322936836</course>
        <speed>8.30947809818494</speed>
      </trkpt>
      <trkpt lat="43.83857" lon="3.26756">
        <ele>788</ele>
        <time>2012-01-06T10:42:30Z</time>
        <course>340.462674272403</course>
        <speed>8.315869808365</speed>
      </trkpt>
      <trkpt lat="43.83963" lon="3.26794">
        <ele>781</ele>
        <time>2012-01-06T10:42:45Z</time>
        <course>347.74048965582</course>
        <speed>8.31111886002111</speed>
      </trkpt>
      <trkpt lat="43.84004" lon="3.26803">
        <ele>777</ele>
        <time>2012-01-06T10:42:50Z</time>
        <course>356.731172414568</course>
        <speed>8.32120934766784</speed>
      </trkpt>
      <trkpt lat="43.84056" lon="3.26806">
        <ele>772</ele>
        <time>2012-01-06T10:42:57Z</time>
        <course>10.9335389286299</course>
        <speed>8.3197412655245</speed>
      </trkpt>
      <trkpt lat="43.84097" lon="3.26798">
        <ele>770</ele>
        <time>2012-01-06T10:43:03Z</time>
        <course>43.5455846704893</course>
        <speed>8.32250906874797</speed>
      </trkpt>
      <trkpt lat="43.84122" lon="3.26774">
        <ele>769</ele>
        <time>2012-01-06T10:43:07Z</time>
        <course>55.0380395877667</course>
        <speed>8.32394322063217</speed>
      </trkpt>
      <trkpt lat="43.8414" lon="3.26748">
        <ele>769</ele>
        <time>2012-01-06T10:43:10Z</time>
        <course>28.3716619254995</course>
        <speed>8.31335752709147</speed>
      </trkpt>
      <trkpt lat="43.84151" lon="3.26742">
        <ele>768</ele>
        <time>2012-01-06T10:43:12Z</time>
        <course>343.056442181154</course>
        <speed>8.31295178563522</speed>
      </trkpt>
      <trkpt lat="43.84164" lon="3.26746">
        <ele>767</ele>
        <time>2012-01-06T10:43:14Z</time>
        <course>319.094815955679</course>
        <speed>8.3097833222774</speed>
      </trkpt>
      <trkpt lat="43.8418" lon="3.2676">
        <ele>766</ele>
        <time>2012-01-06T10:43:16Z</time>
        <course>306.176521307288</course>
        <speed>8.31698850463844</speed>
      </trkpt>
      <trkpt lat="43.84222" lon="3.26818">
        <ele>763</ele>
        <time>2012-01-06T10:43:24Z</time>
        <course>286.486391625211</course>
        <speed>8.32105780820205</speed>
      </trkpt>
      <trkpt lat="43.84239" lon="3.26876">
        <ele>761</ele>
        <time>2012-01-06T10:43:30Z</time>
        <course>303.949584426204</course>
        <speed>8.34174653781047</speed>
      </trkpt>
      <trkpt lat="43.84247" lon="3.26888">
        <ele>760</ele>
        <time>2012-01-06T10:43:32Z</time>
        <course>344.202118648782</course>
        <speed>8.31606046067178</speed>
      </trkpt>
      <trkpt lat="43.84261" lon="3.26892">
        <ele>760</ele>
        <time>2012-01-06T10:43:34Z</time>
        <course>16.2387329747483</course>
        <speed>8.32359985256987</speed>
      </trkpt>
      <trkpt lat="43.84278" lon="3.26887">
        <ele>759</ele>
        <time>2012-01-06T10:43:36Z</time>
        <course>57.4722202065513</course>
        <speed>8.32946029288834</speed>
      </trkpt>
      <trkpt lat="43.8429" lon="3.26868">
        <ele>758</ele>
        <time>2012-01-06T10:43:39Z</time>
        <course>75.6792679732407</course>
        <speed>8.32059395897476</speed>
      </trkpt>
      <trkpt lat="43.84312" lon="3.26781">
        <ele>756</ele>
        <time>2012-01-06T10:43:47Z</time>
        <course>61.9131121604938</course>
        <speed>8.31978974666357</speed>
      </trkpt>
      <trkpt lat="43.84349" lon="3.26711">
        <ele>756</ele>
        <time>2012-01-06T10:43:56Z</time>
        <course>4.35679807453166</course>
        <speed>8.31483588645403</speed>
      </trkpt>
      <trkpt lat="43.84388" lon="3.26708">
        <ele>756</ele>
        <time>2012-01-06T10:44:01Z</time>
        <course>339.952587983813</course>
        <speed>8.30624435867622</speed>
      </trkpt>
      <trkpt lat="43.84407" lon="3.26715">
        <ele>756</ele>
        <time>2012-01-06T10:44:04Z</time>
        <course>310.447607345305</course>
        <speed>8.31293283578222</speed>
      </trkpt>
      <trkpt lat="43.84445" lon="3.2676">
        <ele>756</ele>
        <time>2012-01-06T10:44:10Z</time>
        <course>33.1864836426911</course>
        <speed>8.31794126139629</speed>
      </trkpt>
      <trkpt lat="43.84548" lon="3.26692">
        <ele>756</ele>
        <time>2012-01-06T10:44:26Z</time>
        <course>36.0284607681461</course>
        <speed>8.31715806905048</speed>
      </trkpt>
      <trkpt lat="43.84642" lon="3.26623">
        <ele>756</ele>
        <time>2012-01-06T10:44:40Z</time>
        <course>354.758019252797</course>
        <speed>8.31790297905406</speed>
      </trkpt>
      <trkpt lat="43.84696" lon="3.26628">
        <ele>754</ele>
        <time>2012-01-06T10:44:47Z</time>
        <course>13.9132775535751</course>
        <speed>8.33296404214579</speed>
      </trkpt>
      <trkpt lat="43.84716" lon="3.26623">
        <ele>753</ele>
        <time>2012-01-06T10:44:50Z</time>
        <course>38.2774025709853</course>
        <speed>8.31677885504318</speed>
      </trkpt>
      <trkpt lat="43.8477" lon="3.2658">
        <ele>752</ele>
        <time>2012-01-06T10:44:58Z</time>
        <course>30.7357878609824</course>
        <speed>8.31190942866819</speed>
      </trkpt>
      <trkpt lat="43.848" lon="3.26562">
        <ele>749</ele>
        <time>2012-01-06T10:45:02Z</time>
        <course>41.1685086172557</course>
        <speed>8.32366781159076</speed>
      </trkpt>
      <trkpt lat="43.84834" lon="3.26532">
        <ele>746</ele>
        <time>2012-01-06T10:45:08Z</time>
        <course>14.9731656809664</course>
        <speed>8.3219179333581</speed>
      </trkpt>
      <trkpt lat="43.84897" lon="3.26515">
        <ele>742</ele>
        <time>2012-01-06T10:45:16Z</time>
        <course>29.1912940616807</course>
        <speed>7.02576521676888</speed>
      </trkpt>
      <trkpt lat="43.84952" lon="3.26484">
        <ele>742</ele>
        <time>2012-01-06T10:45:26Z</time>
        <course>57.7684635756263</course>
        <speed>7.02266996902366</speed>
      </trkpt>
      <trkpt lat="43.84977" lon="3.26444">
        <ele>743</ele>
        <time>2012-01-06T10:45:32Z</time>
        <course>41.736938236092</course>
        <speed>8.33165448791576</speed>
      </trkpt>
      <trkpt lat="43.84987" lon="3.26435">
        <ele>742</ele>
        <time>2012-01-06T10:45:33Z</time>
        <course>23.6543391702462</course>
        <speed>8.31654733645376</speed>
      </trkpt>
      <trkpt lat="43.8503" lon="3.26416">
        <ele>741</ele>
        <time>2012-01-06T10:45:39Z</time>
        <course>16.5632677199524</course>
        <speed>8.31883523450659</speed>
      </trkpt>
      <trkpt lat="43.8509" lon="3.26398">
        <ele>740</ele>
        <time>2012-01-06T10:45:48Z</time>
        <course>41.5169112890371</course>
        <speed>8.31579052041981</speed>
      </trkpt>
      <trkpt lat="43.85146" lon="3.26348">
        <ele>739</ele>
        <time>2012-01-06T10:45:56Z</time>
        <course>19.7611691729871</course>
        <speed>8.31550115938465</speed>
      </trkpt>
      <trkpt lat="43.85215" lon="3.26323">
        <ele>739</ele>
        <time>2012-01-06T10:46:06Z</time>
        <course>37.0064417937152</course>
        <speed>8.31892971087471</speed>
      </trkpt>
      <trkpt lat="43.8534" lon="3.26228">
        <ele>738</ele>
        <time>2012-01-06T10:46:25Z</time>
        <course>26.0548678484953</course>
        <speed>8.31496595860992</speed>
      </trkpt>
      <trkpt lat="43.85411" lon="3.26193">
        <ele>737</ele>
        <time>2012-01-06T10:46:35Z</time>
        <course>56.0927345913533</course>
        <speed>8.3332779079845</speed>
      </trkpt>
      <trkpt lat="43.85425" lon="3.26172">
        <ele>737</ele>
        <time>2012-01-06T10:46:38Z</time>
        <course>73.6854658058123</course>
        <speed>8.31603898575691</speed>
      </trkpt>
      <trkpt lat="43.85434" lon="3.26141">
        <ele>737</ele>
        <time>2012-01-06T10:46:41Z</time>
        <course>56.7404625898483</course>
        <speed>8.31710916772846</speed>
      </trkpt>
      <trkpt lat="43.85488" lon="3.26058">
        <ele>737</ele>
        <time>2012-01-06T10:46:52Z</time>
        <course>78.1063858603694</course>
        <speed>8.31762585690047</speed>
      </trkpt>
      <trkpt lat="43.85502" lon="3.25991">
        <ele>736</ele>
        <time>2012-01-06T10:46:59Z</time>
        <course>66.7636185513194</course>
        <speed>8.32010109753048</speed>
      </trkpt>
      <trkpt lat="43.85525" lon="3.25937">
        <ele>736</ele>
        <time>2012-01-06T10:47:05Z</time>
        <course>55.23893561586</course>
        <speed>6.28492741383347</speed>
      </trkpt>
      <trkpt lat="43.8564" lon="3.2577">
        <ele>739</ele>
        <time>2012-01-06T10:47:34Z</time>
        <course>45.9443211755541</course>
        <speed>8.31769016771876</speed>
      </trkpt>
      <trkpt lat="43.85688" lon="3.2572">
        <ele>738</ele>
        <time>2012-01-06T10:47:42Z</time>
        <course>56.6481228967282</course>
        <speed>8.31560033727715</speed>
      </trkpt>
      <trkpt lat="43.8572" lon="3.25671">
        <ele>738</ele>
        <time>2012-01-06T10:47:48Z</time>
        <course>47.9168451019961</course>
        <speed>7.54122584338311</speed>
      </trkpt>
      <trkpt lat="43.85789" lon="3.25594">
        <ele>738</ele>
        <time>2012-01-06T10:48:01Z</time>
        <course>18.5094522099578</course>
        <speed>7.53923552939291</speed>
      </trkpt>
      <trkpt lat="43.85872" lon="3.25566">
        <ele>739</ele>
        <time>2012-01-06T10:48:14Z</time>
        <course>55.8931935289927</course>
        <speed>5.4366290366218</speed>
      </trkpt>
      <trkpt lat="43.85913" lon="3.25505">
        <ele>740</ele>
        <time>2012-01-06T10:48:26Z</time>
        <course>37.6644387380528</course>
        <speed>5.43418468781129</speed>
      </trkpt>
      <trkpt lat="43.85922" lon="3.25498">
        <ele>741</ele>
        <time>2012-01-06T10:48:28Z</time>
        <course>9.09454857725405</course>
        <speed>5.43563752933289</speed>
      </trkpt>
      <trkpt lat="43.85953" lon="3.25493">
        <ele>742</ele>
        <time>2012-01-06T10:48:35Z</time>
        <course>41.2098448434548</course>
        <speed>6.03488628263648</speed>
      </trkpt>
      <trkpt lat="43.8597" lon="3.25478">
        <ele>742</ele>
        <time>2012-01-06T10:48:39Z</time>
        <course>31.5113012360902</course>
        <speed>6.02886585569883</speed>
      </trkpt>
      <trkpt lat="43.86038" lon="3.25436">
        <ele>744</ele>
        <time>2012-01-06T10:48:52Z</time>
        <course>61.2125583561218</course>
        <speed>6.63725699248441</speed>
      </trkpt>
      <trkpt lat="43.86074" lon="3.2537">
        <ele>744</ele>
        <time>2012-01-06T10:49:02Z</time>
        <course>67.3570676182319</course>
        <speed>6.63802938147871</speed>
      </trkpt>
      <trkpt lat="43.86115" lon="3.25271">
        <ele>746</ele>
        <time>2012-01-06T10:49:16Z</time>
        <course>43.6904228939531</course>
        <speed>5.39355572054486</speed>
      </trkpt>
      <trkpt lat="43.86168" lon="3.2522">
        <ele>747</ele>
        <time>2012-01-06T10:49:29Z</time>
        <course>85.2033232663142</course>
        <speed>5.39180908143303</speed>
      </trkpt>
      <trkpt lat="43.86172" lon="3.25172">
        <ele>749</ele>
        <time>2012-01-06T10:49:37Z</time>
        <course>80.2051316939984</course>
        <speed>4.97383259509922</speed>
      </trkpt>
      <trkpt lat="43.86184" lon="3.25102">
        <ele>750</ele>
        <time>2012-01-06T10:49:48Z</time>
        <course>38.8915164105312</course>
        <speed>4.97113841450863</speed>
      </trkpt>
      <trkpt lat="43.86216" lon="3.25076">
        <ele>752</ele>
        <time>2012-01-06T10:49:56Z</time>
        <course>52.3952599720061</course>
        <speed>4.97595266258708</speed>
      </trkpt>
      <trkpt lat="43.86229" lon="3.25059">
        <ele>753</ele>
        <time>2012-01-06T10:50:00Z</time>
        <course>83.5275399401032</course>
        <speed>5.0459600918068</speed>
      </trkpt>
      <trkpt lat="43.86237" lon="3.24988">
        <ele>754</ele>
        <time>2012-01-06T10:50:12Z</time>
        <course>60.7701058482175</course>
        <speed>5.05715565131848</speed>
      </trkpt>
      <trkpt lat="43.86242" lon="3.24979">
        <ele>755</ele>
        <time>2012-01-06T10:50:14Z</time>
        <course>32.5483201365003</course>
        <speed>5.04312845710528</speed>
      </trkpt>
      <trkpt lat="43.86256" lon="3.2497">
        <ele>755</ele>
        <time>2012-01-06T10:50:17Z</time>
        <course>56.946255923146</course>
        <speed>5.04539417536593</speed>
      </trkpt>
      <trkpt lat="43.86298" lon="3.24905">
        <ele>758</ele>
        <time>2012-01-06T10:50:31Z</time>
        <course>36.2749824905536</course>
        <speed>5.5373241465488</speed>
      </trkpt>
      <trkpt lat="43.86321" lon="3.24888">
        <ele>758</ele>
        <time>2012-01-06T10:50:36Z</time>
        <course>54.8173333290796</course>
        <speed>5.54169017294937</speed>
      </trkpt>
      <trkpt lat="43.86335" lon="3.24868">
        <ele>759</ele>
        <time>2012-01-06T10:50:40Z</time>
        <course>81.0244382718268</course>
        <speed>5.53846981647017</speed>
      </trkpt>
      <trkpt lat="43.86343" lon="3.24817">
        <ele>760</ele>
        <time>2012-01-06T10:50:48Z</time>
        <course>94.2173508592768</course>
        <speed>5.53970282618328</speed>
      </trkpt>
      <trkpt lat="43.86337" lon="3.24735">
        <ele>762</ele>
        <time>2012-01-06T10:51:00Z</time>
        <course>58.8576251846106</course>
        <speed>7.23818267779279</speed>
      </trkpt>
      <trkpt lat="43.86349" lon="3.24715">
        <ele>762</ele>
        <time>2012-01-06T10:51:02Z</time>
        <course>22.7704018519</course>
        <speed>7.23701978410599</speed>
      </trkpt>
      <trkpt lat="43.86446" lon="3.24674">
        <ele>763</ele>
        <time>2012-01-06T10:51:18Z</time>
        <course>70.8522608406533</course>
        <speed>8.30775012126974</speed>
      </trkpt>
      <trkpt lat="43.86456" lon="3.24645">
        <ele>762</ele>
        <time>2012-01-06T10:51:21Z</time>
        <course>21.1168318625355</course>
        <speed>8.30916944143828</speed>
      </trkpt>
      <trkpt lat="43.86474" lon="3.24638">
        <ele>761</ele>
        <time>2012-01-06T10:51:24Z</time>
        <course>7.20412754190561</course>
        <speed>8.31609186860714</speed>
      </trkpt>
      <trkpt lat="43.86529" lon="3.24631">
        <ele>760</ele>
        <time>2012-01-06T10:51:31Z</time>
        <course>337.518743020147</course>
        <speed>8.312281330269</speed>
      </trkpt>
      <trkpt lat="43.86553" lon="3.24641">
        <ele>760</ele>
        <time>2012-01-06T10:51:34Z</time>
        <course>4.3689350850059</course>
        <speed>8.31482651594614</speed>
      </trkpt>
      <trkpt lat="43.86566" lon="3.2464">
        <ele>759</ele>
        <time>2012-01-06T10:51:36Z</time>
        <course>32.1722194224229</course>
        <speed>8.30992450533739</speed>
      </trkpt>
      <trkpt lat="43.86596" lon="3.24621">
        <ele>759</ele>
        <time>2012-01-06T10:51:41Z</time>
        <course>42.9615918211311</course>
        <speed>8.31760674838113</speed>
      </trkpt>
      <trkpt lat="43.8666" lon="3.24561">
        <ele>759</ele>
        <time>2012-01-06T10:51:51Z</time>
        <course>71.4506426712231</course>
        <speed>5.10983589200278</speed>
      </trkpt>
      <trkpt lat="43.86671" lon="3.24528">
        <ele>759</ele>
        <time>2012-01-06T10:51:57Z</time>
        <course>61.5398757863039</course>
        <speed>5.10756199689324</speed>
      </trkpt>
      <trkpt lat="43.86685" lon="3.24502">
        <ele>760</ele>
        <time>2012-01-06T10:52:02Z</time>
        <course>77.4638700090328</course>
        <speed>5.11054917996178</speed>
      </trkpt>
      <trkpt lat="43.86704" lon="3.24416">
        <ele>763</ele>
        <time>2012-01-06T10:52:16Z</time>
        <course>62.8517008042533</course>
        <speed>5.25148675304889</speed>
      </trkpt>
      <trkpt lat="43.86731" lon="3.24363">
        <ele>764</ele>
        <time>2012-01-06T10:52:26Z</time>
        <course>90.0003944261725</course>
        <speed>5.25321886506405</speed>
      </trkpt>
      <trkpt lat="43.86731" lon="3.24351">
        <ele>764</ele>
        <time>2012-01-06T10:52:27Z</time>
        <course>107.128822086192</course>
        <speed>5.25207805307209</speed>
      </trkpt>
      <trkpt lat="43.86716" lon="3.24302">
        <ele>766</ele>
        <time>2012-01-06T10:52:36Z</time>
        <course>136.410136924109</course>
        <speed>5.25364888010462</speed>
      </trkpt>
      <trkpt lat="43.86692" lon="3.24279">
        <ele>767</ele>
        <time>2012-01-06T10:52:42Z</time>
        <course>91.792182765759</course>
        <speed>6.97036381817022</speed>
      </trkpt>
      <trkpt lat="43.86688" lon="3.2415">
        <ele>768</ele>
        <time>2012-01-06T10:52:57Z</time>
        <course>84.4367017098302</course>
        <speed>5.29756929975714</speed>
      </trkpt>
      <trkpt lat="43.86691" lon="3.24119">
        <ele>768</ele>
        <time>2012-01-06T10:53:01Z</time>
        <course>127.370248457948</course>
        <speed>5.29435468850229</speed>
      </trkpt>
      <trkpt lat="43.86669" lon="3.2409">
        <ele>769</ele>
        <time>2012-01-06T10:53:08Z</time>
        <course>106.048792134981</course>
        <speed>5.29803528851091</speed>
      </trkpt>
      <trkpt lat="43.86655" lon="3.24041">
        <ele>770</ele>
        <time>2012-01-06T10:53:16Z</time>
        <course>154.285295945559</course>
        <speed>5.29228346950466</speed>
      </trkpt>
      <trkpt lat="43.86622" lon="3.24025">
        <ele>772</ele>
        <time>2012-01-06T10:53:23Z</time>
        <course>128.063033010645</course>
        <speed>8.28604619905491</speed>
      </trkpt>
      <trkpt lat="43.86615" lon="3.24016">
        <ele>771</ele>
        <time>2012-01-06T10:53:24Z</time>
        <course>93.3898093672618</course>
        <speed>8.33200765833991</speed>
      </trkpt>
      <trkpt lat="43.86614" lon="3.23999">
        <ele>771</ele>
        <time>2012-01-06T10:53:26Z</time>
        <course>52.3379647298492</course>
        <speed>8.31351541221347</speed>
      </trkpt>
      <trkpt lat="43.86637" lon="3.23969">
        <ele>770</ele>
        <time>2012-01-06T10:53:30Z</time>
        <course>22.1146779275727</course>
        <speed>8.32924825659408</speed>
      </trkpt>
      <trkpt lat="43.86659" lon="3.2396">
        <ele>770</ele>
        <time>2012-01-06T10:53:33Z</time>
        <course>48.4626918374541</course>
        <speed>8.31658614560423</speed>
      </trkpt>
      <trkpt lat="43.86681" lon="3.23935">
        <ele>769</ele>
        <time>2012-01-06T10:53:37Z</time>
        <course>25.8801545136077</course>
        <speed>8.31803041677547</speed>
      </trkpt>
      <trkpt lat="43.86724" lon="3.23914">
        <ele>769</ele>
        <time>2012-01-06T10:53:43Z</time>
        <course>54.6879077940853</course>
        <speed>5.1756886761075</speed>
      </trkpt>
      <trkpt lat="43.86743" lon="3.23887">
        <ele>769</ele>
        <time>2012-01-06T10:53:49Z</time>
        <course>23.8226869520169</course>
        <speed>5.17322336281409</speed>
      </trkpt>
      <trkpt lat="43.86761" lon="3.23879">
        <ele>770</ele>
        <time>2012-01-06T10:53:53Z</time>
        <course>61.2309490576371</course>
        <speed>5.16364402213856</speed>
      </trkpt>
      <trkpt lat="43.86767" lon="3.23868">
        <ele>770</ele>
        <time>2012-01-06T10:53:55Z</time>
        <course>94.0186064410904</course>
        <speed>5.17319999045312</speed>
      </trkpt>
      <trkpt lat="43.86764" lon="3.23825">
        <ele>771</ele>
        <time>2012-01-06T10:54:02Z</time>
        <course>129.991584595336</course>
        <speed>5.17369491440854</speed>
      </trkpt>
      <trkpt lat="43.86759" lon="3.23819">
        <ele>772</ele>
        <time>2012-01-06T10:54:03Z</time>
        <course>167.277451787698</course>
        <speed>5.17168784544935</speed>
      </trkpt>
      <trkpt lat="43.86737" lon="3.23814">
        <ele>772</ele>
        <time>2012-01-06T10:54:08Z</time>
        <course>93.8398223305993</course>
        <speed>5.17939684443903</speed>
      </trkpt>
      <trkpt lat="43.86736" lon="3.23799">
        <ele>773</ele>
        <time>2012-01-06T10:54:10Z</time>
        <course>32.1053213873657</course>
        <speed>5.17822096804334</speed>
      </trkpt>
      <trkpt lat="43.86755" lon="3.23787">
        <ele>774</ele>
        <time>2012-01-06T10:54:15Z</time>
        <course>61.9087400043929</course>
        <speed>4.56761738548147</speed>
      </trkpt>
      <trkpt lat="43.8679" lon="3.23721">
        <ele>776</ele>
        <time>2012-01-06T10:54:29Z</time>
        <course>54.8334418411423</course>
        <speed>4.56502181013802</speed>
      </trkpt>
      <trkpt lat="43.86825" lon="3.23671">
        <ele>779</ele>
        <time>2012-01-06T10:54:41Z</time>
        <course>41.0013036308079</course>
        <speed>5.41780531966276</speed>
      </trkpt>
      <trkpt lat="43.86833" lon="3.23664">
        <ele>779</ele>
        <time>2012-01-06T10:54:43Z</time>
        <course>351.921812130977</course>
        <speed>5.41144919551097</speed>
      </trkpt>
      <trkpt lat="43.86847" lon="3.23666">
        <ele>779</ele>
        <time>2012-01-06T10:54:46Z</time>
        <course>36.0778029931968</course>
        <speed>5.41005581896284</speed>
      </trkpt>
      <trkpt lat="43.86877" lon="3.23644">
        <ele>780</ele>
        <time>2012-01-06T10:54:53Z</time>
        <course>60.893891003327</course>
        <speed>5.41148749650047</speed>
      </trkpt>
      <trkpt lat="43.86903" lon="3.23597">
        <ele>782</ele>
        <time>2012-01-06T10:55:02Z</time>
        <course>42.6985253831543</course>
        <speed>8.3203565519717</speed>
      </trkpt>
      <trkpt lat="43.86973" lon="3.23532">
        <ele>782</ele>
        <time>2012-01-06T10:55:13Z</time>
        <course>20.4370956752241</course>
        <speed>8.33368617920121</speed>
      </trkpt>
      <trkpt lat="43.86989" lon="3.23526">
        <ele>782</ele>
        <time>2012-01-06T10:55:15Z</time>
        <course>145.57813337007</course>
        <speed>8.31130124064212</speed>
      </trkpt>
      <trkpt lat="43.8696" lon="3.23506">
        <ele>780</ele>
        <time>2012-01-06T10:55:20Z</time>
        <course>174.463186501284</course>
        <speed>8.31907979588665</speed>
      </trkpt>
      <trkpt lat="43.86919" lon="3.23502">
        <ele>779</ele>
        <time>2012-01-06T10:55:25Z</time>
        <course>160.135051173419</course>
        <speed>8.31331665978819</speed>
      </trkpt>
      <trkpt lat="43.86897" lon="3.23494">
        <ele>779</ele>
        <time>2012-01-06T10:55:28Z</time>
        <course>102.608033285867</course>
        <speed>8.32124619808062</speed>
      </trkpt>
      <trkpt lat="43.86891" lon="3.23467">
        <ele>777</ele>
        <time>2012-01-06T10:55:31Z</time>
        <course>75.8772099211811</course>
        <speed>8.32288802006465</speed>
      </trkpt>
      <trkpt lat="43.86895" lon="3.23451">
        <ele>776</ele>
        <time>2012-01-06T10:55:33Z</time>
        <course>93.9715286309025</course>
        <speed>8.30526084084399</speed>
      </trkpt>
      <trkpt lat="43.86893" lon="3.23422">
        <ele>775</ele>
        <time>2012-01-06T10:55:35Z</time>
        <course>84.6943494025584</course>
        <speed>8.31952307288603</speed>
      </trkpt>
      <trkpt lat="43.86899" lon="3.23357">
        <ele>772</ele>
        <time>2012-01-06T10:55:42Z</time>
        <course>133.716236885845</course>
        <speed>8.30840075838885</speed>
      </trkpt>
      <trkpt lat="43.8688" lon="3.23337">
        <ele>770</ele>
        <time>2012-01-06T10:55:45Z</time>
        <course>145.418960499123</course>
        <speed>8.31713263838249</speed>
      </trkpt>
      <trkpt lat="43.86831" lon="3.23303">
        <ele>768</ele>
        <time>2012-01-06T10:55:52Z</time>
        <course>153.139512793148</course>
        <speed>8.31648210698088</speed>
      </trkpt>
      <trkpt lat="43.8678" lon="3.23277">
        <ele>766</ele>
        <time>2012-01-06T10:56:00Z</time>
        <course>125.16947951088</course>
        <speed>6.23802974297894</speed>
      </trkpt>
      <trkpt lat="43.86773" lon="3.23267">
        <ele>766</ele>
        <time>2012-01-06T10:56:01Z</time>
        <course>161.678244214616</course>
        <speed>6.21750200895045</speed>
      </trkpt>
      <trkpt lat="43.86752" lon="3.2326">
        <ele>766</ele>
        <time>2012-01-06T10:56:05Z</time>
        <course>116.717117045246</course>
        <speed>6.22291039666805</speed>
      </trkpt>
      <trkpt lat="43.86746" lon="3.23248">
        <ele>766</ele>
        <time>2012-01-06T10:56:07Z</time>
        <course>54.8303371302808</course>
        <speed>6.23804428757756</speed>
      </trkpt>
      <trkpt lat="43.86753" lon="3.23238">
        <ele>766</ele>
        <time>2012-01-06T10:56:09Z</time>
        <course>54.8303371302808</course>
        <speed>6.23804428757756</speed>
      </trkpt>
      <trkpt lat="43.86753" lon="3.23238">
        <ele>766</ele>
        <time>2012-01-06T10:56:10Z</time>
        <course>234.829680806301</course>
        <speed>6.23804428757756</speed>
      </trkpt>
      <trkpt lat="43.86746" lon="3.23248">
        <ele>767</ele>
        <time>2012-01-06T10:56:12Z</time>
        <course>296.716329422325</course>
        <speed>6.22291039666805</speed>
      </trkpt>
      <trkpt lat="43.86752" lon="3.2326">
        <ele>767</ele>
        <time>2012-01-06T10:56:14Z</time>
        <course>341.677785305794</course>
        <speed>6.21750200895045</speed>
      </trkpt>
      <trkpt lat="43.86773" lon="3.23267">
        <ele>767</ele>
        <time>2012-01-06T10:56:17Z</time>
        <course>305.168824723729</course>
        <speed>6.23802974297894</speed>
      </trkpt>
      <trkpt lat="43.8678" lon="3.23277">
        <ele>767</ele>
        <time>2012-01-06T10:56:19Z</time>
        <course>333.137814638367</course>
        <speed>6.22450104089497</speed>
      </trkpt>
      <trkpt lat="43.86831" lon="3.23303">
        <ele>768</ele>
        <time>2012-01-06T10:56:29Z</time>
        <course>325.416749512244</course>
        <speed>6.22509314038444</speed>
      </trkpt>
      <trkpt lat="43.8688" lon="3.23337">
        <ele>770</ele>
        <time>2012-01-06T10:56:39Z</time>
        <course>313.714940176381</course>
        <speed>3.56233849721242</speed>
      </trkpt>
      <trkpt lat="43.86899" lon="3.23357">
        <ele>771</ele>
        <time>2012-01-06T10:56:46Z</time>
        <course>264.690137501893</course>
        <speed>3.56389617039449</speed>
      </trkpt>
      <trkpt lat="43.86893" lon="3.23422">
        <ele>775</ele>
        <time>2012-01-06T10:57:01Z</time>
        <course>273.969649145092</course>
        <speed>3.56302029965979</speed>
      </trkpt>
      <trkpt lat="43.86895" lon="3.23451">
        <ele>776</ele>
        <time>2012-01-06T10:57:07Z</time>
        <course>259.146997420575</course>
        <speed>3.56562543925438</speed>
      </trkpt>
      <trkpt lat="43.86891" lon="3.23472">
        <ele>778</ele>
        <time>2012-01-06T10:57:12Z</time>
        <course>282.606588949572</course>
        <speed>5.08053717763956</speed>
      </trkpt>
      <trkpt lat="43.86895" lon="3.2349">
        <ele>778</ele>
        <time>2012-01-06T10:57:15Z</time>
        <course>310.783313327372</course>
        <speed>5.09468299018121</speed>
      </trkpt>
      <trkpt lat="43.86901" lon="3.23497">
        <ele>778</ele>
        <time>2012-01-06T10:57:17Z</time>
        <course>351.381009272398</course>
        <speed>5.08920092313165</speed>
      </trkpt>
      <trkpt lat="43.8696" lon="3.23506">
        <ele>780</ele>
        <time>2012-01-06T10:57:30Z</time>
        <course>325.576846338787</course>
        <speed>5.09023117001137</speed>
      </trkpt>
      <trkpt lat="43.86989" lon="3.23526">
        <ele>782</ele>
        <time>2012-01-06T10:57:37Z</time>
        <course>5.02292348925155</course>
        <speed>8.31697287778697</speed>
      </trkpt>
      <trkpt lat="43.87136" lon="3.23513">
        <ele>782</ele>
        <time>2012-01-06T10:57:57Z</time>
        <course>33.7351159260998</course>
        <speed>8.31784701915335</speed>
      </trkpt>
      <trkpt lat="43.872" lon="3.2347">
        <ele>779</ele>
        <time>2012-01-06T10:58:06Z</time>
        <course>50.2425740533405</course>
        <speed>8.31878862558073</speed>
      </trkpt>
      <trkpt lat="43.87243" lon="3.23418">
        <ele>777</ele>
        <time>2012-01-06T10:58:14Z</time>
        <course>68.8470555392211</course>
        <speed>8.31201525772332</speed>
      </trkpt>
      <trkpt lat="43.87253" lon="3.23392">
        <ele>775</ele>
        <time>2012-01-06T10:58:17Z</time>
        <course>90.0023223319207</course>
        <speed>8.31379846708593</speed>
      </trkpt>
      <trkpt lat="43.87253" lon="3.23318">
        <ele>772</ele>
        <time>2012-01-06T10:58:24Z</time>
        <course>54.8457417458767</course>
        <speed>8.33254506396227</speed>
      </trkpt>
      <trkpt lat="43.8726" lon="3.23308">
        <ele>771</ele>
        <time>2012-01-06T10:58:25Z</time>
        <course>27.2100058481155</course>
        <speed>8.3273739177259</speed>
      </trkpt>
      <trkpt lat="43.87289" lon="3.23293">
        <ele>770</ele>
        <time>2012-01-06T10:58:29Z</time>
        <course>15.8551054302772</course>
        <speed>8.31588772348011</speed>
      </trkpt>
      <trkpt lat="43.87303" lon="3.23289">
        <ele>769</ele>
        <time>2012-01-06T10:58:31Z</time>
        <course>348.755548293498</course>
        <speed>8.31621911046871</speed>
      </trkpt>
      <trkpt lat="43.87323" lon="3.23293">
        <ele>769</ele>
        <time>2012-01-06T10:58:34Z</time>
        <course>22.7695407726586</course>
        <speed>8.32307221098976</speed>
      </trkpt>
      <trkpt lat="43.87368" lon="3.23274">
        <ele>768</ele>
        <time>2012-01-06T10:58:40Z</time>
        <course>49.9381095142797</course>
        <speed>8.31418702739757</speed>
      </trkpt>
      <trkpt lat="43.87419" lon="3.23213">
        <ele>767</ele>
        <time>2012-01-06T10:58:49Z</time>
        <course>20.9256458810154</course>
        <speed>8.32807772689396</speed>
      </trkpt>
      <trkpt lat="43.87432" lon="3.23208">
        <ele>766</ele>
        <time>2012-01-06T10:58:51Z</time>
        <course>347.541632850357</course>
        <speed>8.30188827170727</speed>
      </trkpt>
      <trkpt lat="43.8745" lon="3.23212">
        <ele>766</ele>
        <time>2012-01-06T10:58:53Z</time>
        <course>15.1708410609179</course>
        <speed>8.30478560668416</speed>
      </trkpt>
      <trkpt lat="43.87461" lon="3.23209">
        <ele>766</ele>
        <time>2012-01-06T10:58:55Z</time>
        <course>55.3365743073569</course>
        <speed>8.31481052301343</speed>
      </trkpt>
      <trkpt lat="43.87472" lon="3.23193">
        <ele>766</ele>
        <time>2012-01-06T10:58:57Z</time>
        <course>73.6518798700551</course>
        <speed>8.3119704647042</speed>
      </trkpt>
      <trkpt lat="43.87486" lon="3.23145">
        <ele>765</ele>
        <time>2012-01-06T10:59:02Z</time>
        <course>64.7587648304781</course>
        <speed>8.30848163517974</speed>
      </trkpt>
      <trkpt lat="43.87501" lon="3.23113">
        <ele>765</ele>
        <time>2012-01-06T10:59:06Z</time>
        <course>36.4516740958665</course>
        <speed>8.31613517004815</speed>
      </trkpt>
      <trkpt lat="43.87571" lon="3.23061">
        <ele>759</ele>
        <time>2012-01-06T10:59:16Z</time>
        <course>54.6816754201588</course>
        <speed>8.32472447263835</speed>
      </trkpt>
      <trkpt lat="43.87602" lon="3.23017">
        <ele>757</ele>
        <time>2012-01-06T10:59:22Z</time>
        <course>44.8389584629425</course>
        <speed>8.31279262356979</speed>
      </trkpt>
      <trkpt lat="43.87625" lon="3.22994">
        <ele>757</ele>
        <time>2012-01-06T10:59:26Z</time>
        <course>29.41831496231</course>
        <speed>8.31727323817488</speed>
      </trkpt>
      <trkpt lat="43.87722" lon="3.22939">
        <ele>757</ele>
        <time>2012-01-06T10:59:40Z</time>
        <course>61.0559378518335</course>
        <speed>8.32657899220728</speed>
      </trkpt>
      <trkpt lat="43.87733" lon="3.22919">
        <ele>756</ele>
        <time>2012-01-06T10:59:42Z</time>
        <course>310.514699629942</course>
        <speed>8.31949845092253</speed>
      </trkpt>
      <trkpt lat="43.87852" lon="3.23059">
        <ele>752</ele>
        <time>2012-01-06T11:00:03Z</time>
        <course>322.101141376012</course>
        <speed>5.03321664736228</speed>
      </trkpt>
      <trkpt lat="43.87898" lon="3.23095">
        <ele>753</ele>
        <time>2012-01-06T11:00:15Z</time>
        <course>335.844345271917</course>
        <speed>5.03348445725318</speed>
      </trkpt>
      <trkpt lat="43.88162" lon="3.23214">
        <ele>764</ele>
        <time>2012-01-06T11:01:16Z</time>
        <course>332.294823564585</course>
        <speed>3.16801361032957</speed>
      </trkpt>
      <trkpt lat="43.88198" lon="3.23233">
        <ele>767</ele>
        <time>2012-01-06T11:01:30Z</time>
        <course>316.879105707856</course>
        <speed>3.17039027476211</speed>
      </trkpt>
      <trkpt lat="43.88215" lon="3.23249">
        <ele>769</ele>
        <time>2012-01-06T11:01:37Z</time>
        <course>293.51695706544</course>
        <speed>3.16861473911539</speed>
      </trkpt>
      <trkpt lat="43.8827" lon="3.23376">
        <ele>779</ele>
        <time>2012-01-06T11:02:14Z</time>
        <course>283.782866784809</course>
        <speed>2.98781659895065</speed>
      </trkpt>
      <trkpt lat="43.88312" lon="3.23548">
        <ele>792</ele>
        <time>2012-01-06T11:03:03Z</time>
        <course>312.323601163117</course>
        <speed>8.31792377597521</speed>
      </trkpt>
      <trkpt lat="43.88341" lon="3.2358">
        <ele>791</ele>
        <time>2012-01-06T11:03:08Z</time>
        <course>281.713099243496</course>
        <speed>8.31755293548335</speed>
      </trkpt>
      <trkpt lat="43.88354" lon="3.23643">
        <ele>790</ele>
        <time>2012-01-06T11:03:14Z</time>
        <course>269.998277001652</course>
        <speed>8.3227871549399</speed>
      </trkpt>
      <trkpt lat="43.88354" lon="3.23704">
        <ele>789</ele>
        <time>2012-01-06T11:03:20Z</time>
        <course>287.181151427265</course>
        <speed>8.32407022886293</speed>
      </trkpt>
      <trkpt lat="43.88358" lon="3.23717">
        <ele>788</ele>
        <time>2012-01-06T11:03:22Z</time>
        <course>292.600309417877</course>
        <speed>8.3222923400312</speed>
      </trkpt>
      <trkpt lat="43.88387" lon="3.23787">
        <ele>783</ele>
        <time>2012-01-06T11:03:29Z</time>
        <course>288.139729972536</course>
        <speed>8.32019326849692</speed>
      </trkpt>
      <trkpt lat="43.88417" lon="3.23879">
        <ele>777</ele>
        <time>2012-01-06T11:03:39Z</time>
        <course>316.306131597903</course>
        <speed>8.32055589751045</speed>
      </trkpt>
      <trkpt lat="43.88442" lon="3.23903">
        <ele>776</ele>
        <time>2012-01-06T11:03:43Z</time>
        <course>299.919858569168</course>
        <speed>8.31654055529471</speed>
      </trkpt>
      <trkpt lat="43.88501" lon="3.24006">
        <ele>774</ele>
        <time>2012-01-06T11:03:56Z</time>
        <course>317.623382032936</course>
        <speed>8.32381975037101</speed>
      </trkpt>
      <trkpt lat="43.88537" lon="3.24039">
        <ele>771</ele>
        <time>2012-01-06T11:04:01Z</time>
        <course>293.295452910051</course>
        <speed>8.30875203843157</speed>
      </trkpt>
      <trkpt lat="43.88549" lon="3.24067">
        <ele>770</ele>
        <time>2012-01-06T11:04:05Z</time>
        <course>285.871537686157</course>
        <speed>8.32144137010714</speed>
      </trkpt>
      <trkpt lat="43.88564" lon="3.2412">
        <ele>768</ele>
        <time>2012-01-06T11:04:10Z</time>
        <course>301.08162480169</course>
        <speed>8.31437540327897</speed>
      </trkpt>
      <trkpt lat="43.88573" lon="3.24135">
        <ele>767</ele>
        <time>2012-01-06T11:04:12Z</time>
        <course>319.410567942786</course>
        <speed>8.31745414442868</speed>
      </trkpt>
      <trkpt lat="43.88695" lon="3.2424">
        <ele>763</ele>
        <time>2012-01-06T11:04:31Z</time>
        <course>302.782887374038</course>
        <speed>8.3189347133812</speed>
      </trkpt>
      <trkpt lat="43.88779" lon="3.24371">
        <ele>755</ele>
        <time>2012-01-06T11:04:48Z</time>
        <course>323.867790425759</course>
        <speed>8.30516063752851</speed>
      </trkpt>
      <trkpt lat="43.88794" lon="3.24382">
        <ele>753</ele>
        <time>2012-01-06T11:04:50Z</time>
        <course>337.687208771372</course>
        <speed>8.32005559696166</speed>
      </trkpt>
      <trkpt lat="43.88942" lon="3.24443">
        <ele>744</ele>
        <time>2012-01-06T11:05:11Z</time>
        <course>320.199630516243</course>
        <speed>8.32228756523283</speed>
      </trkpt>
      <trkpt lat="43.88991" lon="3.24484">
        <ele>744</ele>
        <time>2012-01-06T11:05:19Z</time>
        <course>311.754130602416</course>
        <speed>8.31298973425697</speed>
      </trkpt>
      <trkpt lat="43.89015" lon="3.24511">
        <ele>744</ele>
        <time>2012-01-06T11:05:23Z</time>
        <course>290.06082158248</course>
        <speed>8.32637382540086</speed>
      </trkpt>
      <trkpt lat="43.89023" lon="3.24533">
        <ele>744</ele>
        <time>2012-01-06T11:05:25Z</time>
        <course>268.62916674721</course>
        <speed>8.30920496137732</speed>
      </trkpt>
      <trkpt lat="43.89022" lon="3.24575">
        <ele>743</ele>
        <time>2012-01-06T11:05:29Z</time>
        <course>279.009659709088</course>
        <speed>8.32954698813741</speed>
      </trkpt>
      <trkpt lat="43.89025" lon="3.24594">
        <ele>743</ele>
        <time>2012-01-06T11:05:31Z</time>
        <course>296.122864825158</course>
        <speed>8.31931082063238</speed>
      </trkpt>
      <trkpt lat="43.89067" lon="3.2468">
        <ele>743</ele>
        <time>2012-01-06T11:05:41Z</time>
        <course>346.020119038879</course>
        <speed>3.66439136367624</speed>
      </trkpt>
      <trkpt lat="43.89083" lon="3.24684">
        <ele>744</ele>
        <time>2012-01-06T11:05:46Z</time>
        <course>15.0416962022597</course>
        <speed>3.66291642613191</speed>
      </trkpt>
      <trkpt lat="43.89146" lon="3.24667">
        <ele>748</ele>
        <time>2012-01-06T11:06:05Z</time>
        <course>24.2165441766592</course>
        <speed>3.66285567898614</speed>
      </trkpt>
      <trkpt lat="43.89177" lon="3.24653">
        <ele>751</ele>
        <time>2012-01-06T11:06:15Z</time>
        <course>360</course>
        <speed>4.43003322272422</speed>
      </trkpt>
      <trkpt lat="43.89189" lon="3.24653">
        <ele>751</ele>
        <time>2012-01-06T11:06:18Z</time>
        <course>341.635130206357</course>
        <speed>4.43331711857323</speed>
      </trkpt>
      <trkpt lat="43.89198" lon="3.24656">
        <ele>752</ele>
        <time>2012-01-06T11:06:21Z</time>
        <course>312.102844416414</course>
        <speed>4.42548046518473</speed>
      </trkpt>
      <trkpt lat="43.89216" lon="3.24676">
        <ele>753</ele>
        <time>2012-01-06T11:06:26Z</time>
        <course>293.282262352473</course>
        <speed>4.42157361555797</speed>
      </trkpt>
      <trkpt lat="43.89228" lon="3.24704">
        <ele>754</ele>
        <time>2012-01-06T11:06:32Z</time>
        <course>289.509702496622</course>
        <speed>4.42483061063599</speed>
      </trkpt>
      <trkpt lat="43.8927" lon="3.24823">
        <ele>759</ele>
        <time>2012-01-06T11:06:56Z</time>
        <course>285.548696702665</course>
        <speed>4.32955872017321</speed>
      </trkpt>
      <trkpt lat="43.89326" lon="3.25025">
        <ele>767</ele>
        <time>2012-01-06T11:07:36Z</time>
        <course>292.170663092397</course>
        <speed>4.76522121061638</speed>
      </trkpt>
      <trkpt lat="43.89367" lon="3.25126">
        <ele>770</ele>
        <time>2012-01-06T11:07:56Z</time>
        <course>282.488759682286</course>
        <speed>4.76581365326001</speed>
      </trkpt>
      <trkpt lat="43.89399" lon="3.25271">
        <ele>775</ele>
        <time>2012-01-06T11:08:21Z</time>
        <course>277.980292473558</course>
        <speed>8.3156283038743</speed>
      </trkpt>
      <trkpt lat="43.89418" lon="3.25407">
        <ele>774</ele>
        <time>2012-01-06T11:08:35Z</time>
        <course>281.710556233906</course>
        <speed>7.01143312060158</speed>
      </trkpt>
      <trkpt lat="43.89437" lon="3.25499">
        <ele>774</ele>
        <time>2012-01-06T11:08:46Z</time>
        <course>290.955471242663</course>
        <speed>7.01243879984592</speed>
      </trkpt>
      <trkpt lat="43.89495" lon="3.25651">
        <ele>776</ele>
        <time>2012-01-06T11:09:05Z</time>
        <course>278.35601679822</course>
        <speed>8.31281538092515</speed>
      </trkpt>
      <trkpt lat="43.89501" lon="3.25692">
        <ele>776</ele>
        <time>2012-01-06T11:09:09Z</time>
        <course>271.757652060259</course>
        <speed>8.32029854659518</speed>
      </trkpt>
      <trkpt lat="43.89504" lon="3.2579">
        <ele>776</ele>
        <time>2012-01-06T11:09:19Z</time>
        <course>286.757557793497</course>
        <speed>3.90201230232058</speed>
      </trkpt>
      <trkpt lat="43.89525" lon="3.2586">
        <ele>779</ele>
        <time>2012-01-06T11:09:34Z</time>
        <course>265.897506235816</course>
        <speed>3.90140447073648</speed>
      </trkpt>
      <trkpt lat="43.89521" lon="3.25916">
        <ele>782</ele>
        <time>2012-01-06T11:09:46Z</time>
        <course>297.734853875742</course>
        <speed>8.31547042119782</speed>
      </trkpt>
      <trkpt lat="43.89532" lon="3.25937">
        <ele>781</ele>
        <time>2012-01-06T11:09:48Z</time>
        <course>330.111545404451</course>
        <speed>8.32139621493394</speed>
      </trkpt>
      <trkpt lat="43.89558" lon="3.25952">
        <ele>780</ele>
        <time>2012-01-06T11:09:52Z</time>
        <course>299.145161055117</course>
        <speed>8.31021974220729</speed>
      </trkpt>
      <trkpt lat="43.89578" lon="3.25988">
        <ele>779</ele>
        <time>2012-01-06T11:09:56Z</time>
        <course>290.335109961482</course>
        <speed>8.31718874887425</speed>
      </trkpt>
      <trkpt lat="43.89643" lon="3.26164">
        <ele>776</ele>
        <time>2012-01-06T11:10:15Z</time>
        <course>297.096821833415</course>
        <speed>8.32337711022674</speed>
      </trkpt>
      <trkpt lat="43.89669" lon="3.26215">
        <ele>774</ele>
        <time>2012-01-06T11:10:21Z</time>
        <course>287.323506597709</course>
        <speed>8.31573722292531</speed>
      </trkpt>
      <trkpt lat="43.89692" lon="3.26289">
        <ele>773</ele>
        <time>2012-01-06T11:10:29Z</time>
        <course>276.732878578115</course>
        <speed>5.56894615842506</speed>
      </trkpt>
      <trkpt lat="43.89698" lon="3.2634">
        <ele>774</ele>
        <time>2012-01-06T11:10:37Z</time>
        <course>283.875508638416</course>
        <speed>5.56674807873057</speed>
      </trkpt>
      <trkpt lat="43.89714" lon="3.26405">
        <ele>775</ele>
        <time>2012-01-06T11:10:47Z</time>
        <course>266.452910066468</course>
        <speed>5.56371543156958</speed>
      </trkpt>
      <trkpt lat="43.89709" lon="3.26486">
        <ele>777</ele>
        <time>2012-01-06T11:10:58Z</time>
        <course>279.495698749599</course>
        <speed>8.31088361296321</speed>
      </trkpt>
      <trkpt lat="43.89712" lon="3.26504">
        <ele>776</ele>
        <time>2012-01-06T11:11:00Z</time>
        <course>291.106970211259</course>
        <speed>8.30933696854348</speed>
      </trkpt>
      <trkpt lat="43.89717" lon="3.26517">
        <ele>776</ele>
        <time>2012-01-06T11:11:01Z</time>
        <course>308.188488435509</course>
        <speed>8.32204458603862</speed>
      </trkpt>
      <trkpt lat="43.89746" lon="3.26554">
        <ele>774</ele>
        <time>2012-01-06T11:11:07Z</time>
        <course>275.801184926848</course>
        <speed>8.3174063018987</speed>
      </trkpt>
      <trkpt lat="43.89754" lon="3.26633">
        <ele>773</ele>
        <time>2012-01-06T11:11:14Z</time>
        <course>295.424346211658</course>
        <speed>8.31332340121731</speed>
      </trkpt>
      <trkpt lat="43.89781" lon="3.2669">
        <ele>770</ele>
        <time>2012-01-06T11:11:21Z</time>
        <course>279.492749739953</course>
        <speed>8.32061868689898</speed>
      </trkpt>
      <trkpt lat="43.898" lon="3.26804">
        <ele>767</ele>
        <time>2012-01-06T11:11:32Z</time>
        <course>269.9993969809</course>
        <speed>8.30605073256661</speed>
      </trkpt>
      <trkpt lat="43.898" lon="3.26829">
        <ele>766</ele>
        <time>2012-01-06T11:11:35Z</time>
        <course>252.011403717577</course>
        <speed>8.3125553612369</speed>
      </trkpt>
      <trkpt lat="43.89789" lon="3.26863">
        <ele>766</ele>
        <time>2012-01-06T11:11:38Z</time>
        <course>298.972232517888</course>
        <speed>8.30832234671768</speed>
      </trkpt>
      <trkpt lat="43.89805" lon="3.26892">
        <ele>766</ele>
        <time>2012-01-06T11:11:42Z</time>
        <course>269.999132166322</course>
        <speed>8.30700122677488</speed>
      </trkpt>
      <trkpt lat="43.89805" lon="3.26928">
        <ele>766</ele>
        <time>2012-01-06T11:11:45Z</time>
        <course>252.839285209646</course>
        <speed>8.32236221360611</speed>
      </trkpt>
      <trkpt lat="43.89797" lon="3.26954">
        <ele>766</ele>
        <time>2012-01-06T11:11:48Z</time>
        <course>240.635687959426</course>
        <speed>5.85795168665381</speed>
      </trkpt>
      <trkpt lat="43.8976" lon="3.2702">
        <ele>767</ele>
        <time>2012-01-06T11:11:59Z</time>
        <course>251.502995910387</course>
        <speed>5.83829082885024</speed>
      </trkpt>
      <trkpt lat="43.89757" lon="3.27029">
        <ele>767</ele>
        <time>2012-01-06T11:12:01Z</time>
        <course>272.298240626776</course>
        <speed>5.86214714126365</speed>
      </trkpt>
      <trkpt lat="43.89758" lon="3.27054">
        <ele>768</ele>
        <time>2012-01-06T11:12:04Z</time>
        <course>285.537253467726</course>
        <speed>5.85554870597087</speed>
      </trkpt>
      <trkpt lat="43.89804" lon="3.2722">
        <ele>771</ele>
        <time>2012-01-06T11:12:28Z</time>
        <course>322.125864636812</course>
        <speed>4.95919866142335</speed>
      </trkpt>
      <trkpt lat="43.89845" lon="3.27252">
        <ele>772</ele>
        <time>2012-01-06T11:12:39Z</time>
        <course>297.728326592716</course>
        <speed>4.96132123639122</speed>
      </trkpt>
      <trkpt lat="43.89856" lon="3.27273">
        <ele>773</ele>
        <time>2012-01-06T11:12:43Z</time>
        <course>278.156082260954</course>
        <speed>4.95870490965666</speed>
      </trkpt>
      <trkpt lat="43.89869" lon="3.27364">
        <ele>776</ele>
        <time>2012-01-06T11:12:58Z</time>
        <course>268.144432897837</course>
        <speed>8.32374504820204</speed>
      </trkpt>
      <trkpt lat="43.89867" lon="3.27426">
        <ele>775</ele>
        <time>2012-01-06T11:13:04Z</time>
        <course>277.620234655604</course>
        <speed>8.30904455314197</speed>
      </trkpt>
      <trkpt lat="43.89871" lon="3.27456">
        <ele>775</ele>
        <time>2012-01-06T11:13:07Z</time>
        <course>295.277933509905</course>
        <speed>8.33716937397511</speed>
      </trkpt>
      <trkpt lat="43.89879" lon="3.27473">
        <ele>775</ele>
        <time>2012-01-06T11:13:09Z</time>
        <course>237.540669308608</course>
        <speed>8.31996131328876</speed>
      </trkpt>
      <trkpt lat="43.89834" lon="3.27544">
        <ele>775</ele>
        <time>2012-01-06T11:13:18Z</time>
        <course>229.134392992675</course>
        <speed>8.31378643679241</speed>
      </trkpt>
      <trkpt lat="43.89784" lon="3.27602">
        <ele>771</ele>
        <time>2012-01-06T11:13:27Z</time>
        <course>241.302141950372</course>
        <speed>8.32139448784099</speed>
      </trkpt>
      <trkpt lat="43.8976" lon="3.27646">
        <ele>769</ele>
        <time>2012-01-06T11:13:32Z</time>
        <course>266.011505090649</course>
        <speed>8.32157379653386</speed>
      </trkpt>
      <trkpt lat="43.89755" lon="3.27718">
        <ele>768</ele>
        <time>2012-01-06T11:13:39Z</time>
        <course>277.93439126486</course>
        <speed>8.31617261980602</speed>
      </trkpt>
      <trkpt lat="43.8976" lon="3.27754">
        <ele>767</ele>
        <time>2012-01-06T11:13:43Z</time>
        <course>290.048386018422</course>
        <speed>8.31384822811926</speed>
      </trkpt>
      <trkpt lat="43.89772" lon="3.27787">
        <ele>767</ele>
        <time>2012-01-06T11:13:46Z</time>
        <course>303.061983468612</course>
        <speed>5.53630479828118</speed>
      </trkpt>
      <trkpt lat="43.89796" lon="3.27824">
        <ele>768</ele>
        <time>2012-01-06T11:13:53Z</time>
        <course>313.191539406346</course>
        <speed>5.534183845727</speed>
      </trkpt>
      <trkpt lat="43.89825" lon="3.27855">
        <ele>769</ele>
        <time>2012-01-06T11:14:01Z</time>
        <course>304.532434791683</course>
        <speed>5.53445488343399</speed>
      </trkpt>
      <trkpt lat="43.89849" lon="3.2789">
        <ele>770</ele>
        <time>2012-01-06T11:14:08Z</time>
        <course>293.933335209895</course>
        <speed>8.32273852707996</speed>
      </trkpt>
      <trkpt lat="43.89872" lon="3.27942">
        <ele>769</ele>
        <time>2012-01-06T11:14:14Z</time>
        <course>289.167683546782</course>
        <speed>8.32089053748167</speed>
      </trkpt>
      <trkpt lat="43.89916" lon="3.28069">
        <ele>768</ele>
        <time>2012-01-06T11:14:27Z</time>
        <course>301.516205717851</course>
        <speed>4.20259636215568</speed>
      </trkpt>
      <trkpt lat="43.89949" lon="3.28123">
        <ele>770</ele>
        <time>2012-01-06T11:14:41Z</time>
        <course>315.097159190784</course>
        <speed>4.20050364513825</speed>
      </trkpt>
      <trkpt lat="43.89982" lon="3.28156">
        <ele>773</ele>
        <time>2012-01-06T11:14:51Z</time>
        <course>326.977263307876</course>
        <speed>5.37883595266335</speed>
      </trkpt>
      <trkpt lat="43.90005" lon="3.28171">
        <ele>773</ele>
        <time>2012-01-06T11:14:57Z</time>
        <course>357.51880522135</course>
        <speed>5.3718778937336</speed>
      </trkpt>
      <trkpt lat="43.90028" lon="3.28172">
        <ele>774</ele>
        <time>2012-01-06T11:15:01Z</time>
        <course>30.3280315904167</course>
        <speed>5.37257436477527</speed>
      </trkpt>
      <trkpt lat="43.90074" lon="3.28145">
        <ele>776</ele>
        <time>2012-01-06T11:15:12Z</time>
        <course>19.1202464759772</course>
        <speed>5.85511923947423</speed>
      </trkpt>
      <trkpt lat="43.90097" lon="3.28137">
        <ele>776</ele>
        <time>2012-01-06T11:15:16Z</time>
        <course>342.309961618268</course>
        <speed>5.85397926501756</speed>
      </trkpt>
      <trkpt lat="43.90122" lon="3.28145">
        <ele>777</ele>
        <time>2012-01-06T11:15:21Z</time>
        <course>312.181910983431</course>
        <speed>5.86168771719907</speed>
      </trkpt>
      <trkpt lat="43.9015" lon="3.28176">
        <ele>777</ele>
        <time>2012-01-06T11:15:28Z</time>
        <course>299.821573320054</course>
        <speed>5.85842076841317</speed>
      </trkpt>
      <trkpt lat="43.9023" lon="3.28316">
        <ele>781</ele>
        <time>2012-01-06T11:15:52Z</time>
        <course>306.957283611004</course>
        <speed>8.32919566257572</speed>
      </trkpt>
      <trkpt lat="43.90248" lon="3.2834">
        <ele>780</ele>
        <time>2012-01-06T11:15:56Z</time>
        <course>325.492285899381</course>
        <speed>8.31039242815295</speed>
      </trkpt>
      <trkpt lat="43.90277" lon="3.2836">
        <ele>780</ele>
        <time>2012-01-06T11:16:00Z</time>
        <course>339.205469000579</course>
        <speed>8.31556108780605</speed>
      </trkpt>
      <trkpt lat="43.90298" lon="3.28368">
        <ele>780</ele>
        <time>2012-01-06T11:16:03Z</time>
        <course>353.679309850504</course>
        <speed>8.31447255684163</speed>
      </trkpt>
      <trkpt lat="43.90352" lon="3.28374">
        <ele>780</ele>
        <time>2012-01-06T11:16:10Z</time>
        <course>327.883797788296</course>
        <speed>8.31952542888243</speed>
      </trkpt>
      <trkpt lat="43.90379" lon="3.28391">
        <ele>779</ele>
        <time>2012-01-06T11:16:14Z</time>
        <course>313.451065798713</course>
        <speed>8.30764350000202</speed>
      </trkpt>
      <trkpt lat="43.90396" lon="3.28409">
        <ele>779</ele>
        <time>2012-01-06T11:16:17Z</time>
        <course>292.050973239319</course>
        <speed>8.31465489902973</speed>
      </trkpt>
      <trkpt lat="43.90417" lon="3.28461">
        <ele>779</ele>
        <time>2012-01-06T11:16:23Z</time>
        <course>317.439305813141</course>
        <speed>5.59972764504173</speed>
      </trkpt>
      <trkpt lat="43.90455" lon="3.28496">
        <ele>780</ele>
        <time>2012-01-06T11:16:32Z</time>
        <course>292.502808878423</course>
        <speed>5.60036816953382</speed>
      </trkpt>
      <trkpt lat="43.90474" lon="3.28542">
        <ele>781</ele>
        <time>2012-01-06T11:16:39Z</time>
        <course>305.214618908169</course>
        <speed>5.59560778543258</speed>
      </trkpt>
      <trkpt lat="43.90493" lon="3.28569">
        <ele>782</ele>
        <time>2012-01-06T11:16:45Z</time>
        <course>290.612143170351</course>
        <speed>3.36619158280039</speed>
      </trkpt>
      <trkpt lat="43.90499" lon="3.28585">
        <ele>783</ele>
        <time>2012-01-06T11:16:49Z</time>
        <course>279.894254424039</course>
        <speed>3.36462863989557</speed>
      </trkpt>
      <trkpt lat="43.90503" lon="3.28608">
        <ele>784</ele>
        <time>2012-01-06T11:16:55Z</time>
        <course>269.998628969833</course>
        <speed>3.36527067484429</speed>
      </trkpt>
      <trkpt lat="43.90503" lon="3.2867">
        <ele>788</ele>
        <time>2012-01-06T11:17:09Z</time>
        <course>279.779591251375</course>
        <speed>3.36592214664046</speed>
      </trkpt>
      <trkpt lat="43.90514" lon="3.28734">
        <ele>792</ele>
        <time>2012-01-06T11:17:25Z</time>
        <course>268.631076022632</course>
        <speed>4.54646806690427</speed>
      </trkpt>
      <trkpt lat="43.90513" lon="3.28776">
        <ele>793</ele>
        <time>2012-01-06T11:17:32Z</time>
        <course>287.574205151112</course>
        <speed>4.55027414008988</speed>
      </trkpt>
      <trkpt lat="43.90519" lon="3.28795">
        <ele>794</ele>
        <time>2012-01-06T11:17:36Z</time>
        <course>301.219037521299</course>
        <speed>4.54453591872096</speed>
      </trkpt>
      <trkpt lat="43.90629" lon="3.28977">
        <ele>802</ele>
        <time>2012-01-06T11:18:18Z</time>
        <course>319.191769685763</course>
        <speed>5.34034256884376</speed>
      </trkpt>
      <trkpt lat="43.90711" lon="3.29048">
        <ele>805</ele>
        <time>2012-01-06T11:18:38Z</time>
        <course>310.505291683115</course>
        <speed>5.93488946905259</speed>
      </trkpt>
      <trkpt lat="43.90734" lon="3.29075">
        <ele>805</ele>
        <time>2012-01-06T11:18:44Z</time>
        <course>297.031256865213</course>
        <speed>5.93701485882215</speed>
      </trkpt>
      <trkpt lat="43.9082" lon="3.29244">
        <ele>809</ele>
        <time>2012-01-06T11:19:12Z</time>
        <course>303.095294683507</course>
        <speed>8.32614754286188</speed>
      </trkpt>
      <trkpt lat="43.90833" lon="3.29264">
        <ele>808</ele>
        <time>2012-01-06T11:19:14Z</time>
        <course>315.542292786385</course>
        <speed>8.31985416599627</speed>
      </trkpt>
      <trkpt lat="43.90895" lon="3.29325">
        <ele>806</ele>
        <time>2012-01-06T11:19:24Z</time>
        <course>296.907454953488</course>
        <speed>7.08217579058694</speed>
      </trkpt>
      <trkpt lat="43.90936" lon="3.29406">
        <ele>806</ele>
        <time>2012-01-06T11:19:36Z</time>
        <course>286.354097596302</course>
        <speed>7.08554928989615</speed>
      </trkpt>
      <trkpt lat="43.90948" lon="3.29447">
        <ele>807</ele>
        <time>2012-01-06T11:19:41Z</time>
        <course>275.840684314043</course>
        <speed>8.32319220501348</speed>
      </trkpt>
      <trkpt lat="43.90953" lon="3.29496">
        <ele>806</ele>
        <time>2012-01-06T11:19:45Z</time>
        <course>298.203697051575</course>
        <speed>8.32502338362776</speed>
      </trkpt>
      <trkpt lat="43.90976" lon="3.29539">
        <ele>804</ele>
        <time>2012-01-06T11:19:50Z</time>
        <course>289.224810605478</course>
        <speed>8.31144889510223</speed>
      </trkpt>
      <trkpt lat="43.90992" lon="3.29585">
        <ele>804</ele>
        <time>2012-01-06T11:19:55Z</time>
        <course>297.707230335958</course>
        <speed>8.31412631787825</speed>
      </trkpt>
      <trkpt lat="43.91003" lon="3.29606">
        <ele>802</ele>
        <time>2012-01-06T11:19:58Z</time>
        <course>309.063033549438</course>
        <speed>8.31832261867117</speed>
      </trkpt>
      <trkpt lat="43.91037" lon="3.29648">
        <ele>800</ele>
        <time>2012-01-06T11:20:04Z</time>
        <course>325.737865929891</course>
        <speed>8.32372265328752</speed>
      </trkpt>
      <trkpt lat="43.91078" lon="3.29676">
        <ele>798</ele>
        <time>2012-01-06T11:20:10Z</time>
        <course>299.116447952585</course>
        <speed>4.19273660929974</speed>
      </trkpt>
      <trkpt lat="43.91088" lon="3.29694">
        <ele>798</ele>
        <time>2012-01-06T11:20:14Z</time>
        <course>280.128200219127</course>
        <speed>4.19389162410622</speed>
      </trkpt>
      <trkpt lat="43.91106" lon="3.29795">
        <ele>803</ele>
        <time>2012-01-06T11:20:34Z</time>
        <course>294.830236727541</course>
        <speed>8.29488306439907</speed>
      </trkpt>
      <trkpt lat="43.91112" lon="3.29808">
        <ele>802</ele>
        <time>2012-01-06T11:20:36Z</time>
        <course>314.468069071636</course>
        <speed>8.3233554231688</speed>
      </trkpt>
      <trkpt lat="43.91159" lon="3.29856">
        <ele>802</ele>
        <time>2012-01-06T11:20:44Z</time>
        <course>308.115351563345</course>
        <speed>8.3136718452211</speed>
      </trkpt>
      <trkpt lat="43.91195" lon="3.29902">
        <ele>802</ele>
        <time>2012-01-06T11:20:50Z</time>
        <course>319.993625453979</course>
        <speed>8.31895964400291</speed>
      </trkpt>
      <trkpt lat="43.91321" lon="3.30008">
        <ele>794</ele>
        <time>2012-01-06T11:21:10Z</time>
        <course>296.61940163948</course>
        <speed>8.31256258125986</speed>
      </trkpt>
      <trkpt lat="43.9133" lon="3.30026">
        <ele>793</ele>
        <time>2012-01-06T11:21:12Z</time>
        <course>267.44824356091</course>
        <speed>8.31587203307032</speed>
      </trkpt>
      <trkpt lat="43.91328" lon="3.30071">
        <ele>792</ele>
        <time>2012-01-06T11:21:16Z</time>
        <course>299.80322946583</course>
        <speed>8.3166138419941</speed>
      </trkpt>
      <trkpt lat="43.9134" lon="3.30092">
        <ele>792</ele>
        <time>2012-01-06T11:21:19Z</time>
        <course>347.827304435432</course>
        <speed>8.32202969511272</speed>
      </trkpt>
      <trkpt lat="43.91377" lon="3.301">
        <ele>791</ele>
        <time>2012-01-06T11:21:24Z</time>
        <course>337.332851331987</course>
        <speed>8.31780972737276</speed>
      </trkpt>
      <trkpt lat="43.9142" lon="3.30118">
        <ele>790</ele>
        <time>2012-01-06T11:21:30Z</time>
        <course>325.774485533852</course>
        <speed>8.3290578532232</speed>
      </trkpt>
      <trkpt lat="43.91442" lon="3.30133">
        <ele>789</ele>
        <time>2012-01-06T11:21:33Z</time>
        <course>315.065259003935</course>
        <speed>8.30933567218932</speed>
      </trkpt>
      <trkpt lat="43.91469" lon="3.3016">
        <ele>788</ele>
        <time>2012-01-06T11:21:37Z</time>
        <course>297.254828476606</course>
        <speed>8.3177802055152</speed>
      </trkpt>
      <trkpt lat="43.91524" lon="3.30267">
        <ele>786</ele>
        <time>2012-01-06T11:21:50Z</time>
        <course>287.686484401846</course>
        <speed>8.316069114292</speed>
      </trkpt>
      <trkpt lat="43.91538" lon="3.30311">
        <ele>784</ele>
        <time>2012-01-06T11:21:55Z</time>
        <course>273.737973982997</course>
        <speed>8.31769945260888</speed>
      </trkpt>
      <trkpt lat="43.91544" lon="3.30403">
        <ele>782</ele>
        <time>2012-01-06T11:22:04Z</time>
        <course>257.878401710232</course>
        <speed>8.32162261242461</speed>
      </trkpt>
      <trkpt lat="43.91538" lon="3.30431">
        <ele>780</ele>
        <time>2012-01-06T11:22:06Z</time>
        <course>248.338908555221</course>
        <speed>8.31944350633471</speed>
      </trkpt>
      <trkpt lat="43.91496" lon="3.30537">
        <ele>775</ele>
        <time>2012-01-06T11:22:18Z</time>
        <course>259.414365798683</course>
        <speed>8.32494873763698</speed>
      </trkpt>
      <trkpt lat="43.91485" lon="3.30596">
        <ele>774</ele>
        <time>2012-01-06T11:22:24Z</time>
        <course>268.039641780427</course>
        <speed>8.31613417746135</speed>
      </trkpt>
      <trkpt lat="43.91479" lon="3.30772">
        <ele>772</ele>
        <time>2012-01-06T11:22:41Z</time>
        <course>261.553536741274</course>
        <speed>7.14084583865464</speed>
      </trkpt>
      <trkpt lat="43.91475" lon="3.30799">
        <ele>772</ele>
        <time>2012-01-06T11:22:44Z</time>
        <course>240.887456614035</course>
        <speed>7.14834137132857</speed>
      </trkpt>
      <trkpt lat="43.9142" lon="3.30898">
        <ele>773</ele>
        <time>2012-01-06T11:22:58Z</time>
        <course>261.190215334693</course>
        <speed>8.31936804742787</speed>
      </trkpt>
      <trkpt lat="43.91386" lon="3.31118">
        <ele>772</ele>
        <time>2012-01-06T11:23:20Z</time>
        <course>340.918930911459</course>
        <speed>5.67867435977869</speed>
      </trkpt>
      <trkpt lat="43.91611" lon="3.31196">
        <ele>778</ele>
        <time>2012-01-06T11:24:05Z</time>
        <course>355.923223277459</course>
        <speed>5.95693297199611</speed>
      </trkpt>
      <trkpt lat="43.91639" lon="3.31198">
        <ele>778</ele>
        <time>2012-01-06T11:24:10Z</time>
        <course>12.5026834979127</course>
        <speed>5.95772035330917</speed>
      </trkpt>
      <trkpt lat="43.91666" lon="3.31192">
        <ele>779</ele>
        <time>2012-01-06T11:24:15Z</time>
        <course>31.7727136690586</course>
        <speed>5.96269732249729</speed>
      </trkpt>
      <trkpt lat="43.91695" lon="3.31174">
        <ele>779</ele>
        <time>2012-01-06T11:24:21Z</time>
        <course>46.3720889247258</course>
        <speed>5.96063521641777</speed>
      </trkpt>
      <trkpt lat="43.91734" lon="3.31133">
        <ele>781</ele>
        <time>2012-01-06T11:24:30Z</time>
        <course>62.3324405085354</course>
        <speed>5.80289637545771</speed>
      </trkpt>
      <trkpt lat="43.92002" lon="3.30621">
        <ele>792</ele>
        <time>2012-01-06T11:25:58Z</time>
        <course>53.9205161007236</course>
        <speed>6.2350839094887</speed>
      </trkpt>
      <trkpt lat="43.92026" lon="3.30588">
        <ele>792</ele>
        <time>2012-01-06T11:26:04Z</time>
        <course>43.1558798300225</course>
        <speed>6.22721110518403</speed>
      </trkpt>
      <trkpt lat="43.92059" lon="3.30557">
        <ele>793</ele>
        <time>2012-01-06T11:26:11Z</time>
        <course>30.0945639193478</course>
        <speed>6.23349939555183</speed>
      </trkpt>
      <trkpt lat="43.9209" lon="3.30539">
        <ele>794</ele>
        <time>2012-01-06T11:26:17Z</time>
        <course>15.9172124806458</course>
        <speed>4.4917487745119</speed>
      </trkpt>
      <trkpt lat="43.92125" lon="3.30529">
        <ele>795</ele>
        <time>2012-01-06T11:26:26Z</time>
        <course>360</course>
        <speed>4.48969696970283</speed>
      </trkpt>
      <trkpt lat="43.92153" lon="3.30529">
        <ele>797</ele>
        <time>2012-01-06T11:26:33Z</time>
        <course>346.317049442561</course>
        <speed>4.4909626021823</speed>
      </trkpt>
      <trkpt lat="43.92194" lon="3.30539">
        <ele>799</ele>
        <time>2012-01-06T11:26:43Z</time>
        <course>330.5809908195</course>
        <speed>4.72078892979637</speed>
      </trkpt>
      <trkpt lat="43.92325" lon="3.30613">
        <ele>805</ele>
        <time>2012-01-06T11:27:16Z</time>
        <course>339.108404539409</course>
        <speed>4.25025237238195</speed>
      </trkpt>
      <trkpt lat="43.92359" lon="3.30626">
        <ele>806</ele>
        <time>2012-01-06T11:27:25Z</time>
        <course>352.886504211319</course>
        <speed>4.25239619702335</speed>
      </trkpt>
      <trkpt lat="43.92511" lon="3.30645">
        <ele>815</ele>
        <time>2012-01-06T11:28:05Z</time>
        <course>343.46748642834</course>
        <speed>4.64429816030577</speed>
      </trkpt>
      <trkpt lat="43.92622" lon="3.30678">
        <ele>820</ele>
        <time>2012-01-06T11:28:32Z</time>
        <course>334.324882098205</course>
        <speed>8.31287272083415</speed>
      </trkpt>
      <trkpt lat="43.92649" lon="3.30691">
        <ele>818</ele>
        <time>2012-01-06T11:28:36Z</time>
        <course>319.581112011093</course>
        <speed>8.31899366310516</speed>
      </trkpt>
      <trkpt lat="43.92683" lon="3.3072">
        <ele>816</ele>
        <time>2012-01-06T11:28:42Z</time>
        <course>303.428135854039</course>
        <speed>8.31587170118885</speed>
      </trkpt>
      <trkpt lat="43.92712" lon="3.30764">
        <ele>814</ele>
        <time>2012-01-06T11:28:47Z</time>
        <course>289.316570942848</course>
        <speed>8.31595020575142</speed>
      </trkpt>
      <trkpt lat="43.92726" lon="3.30804">
        <ele>813</ele>
        <time>2012-01-06T11:28:52Z</time>
        <course>279.819361445356</course>
        <speed>8.32279070284707</speed>
      </trkpt>
      <trkpt lat="43.9274" lon="3.30885">
        <ele>813</ele>
        <time>2012-01-06T11:29:00Z</time>
        <course>285.039306159646</course>
        <speed>8.31717846793733</speed>
      </trkpt>
      <trkpt lat="43.92751" lon="3.30926">
        <ele>811</ele>
        <time>2012-01-06T11:29:04Z</time>
        <course>300.018383653883</course>
        <speed>8.30551180168928</speed>
      </trkpt>
      <trkpt lat="43.92766" lon="3.30952">
        <ele>811</ele>
        <time>2012-01-06T11:29:07Z</time>
        <course>318.545428564184</course>
        <speed>8.31471918637071</speed>
      </trkpt>
      <trkpt lat="43.92792" lon="3.30975">
        <ele>810</ele>
        <time>2012-01-06T11:29:11Z</time>
        <course>353.299867134204</course>
        <speed>8.31495113857193</speed>
      </trkpt>
      <trkpt lat="43.92826" lon="3.30979">
        <ele>809</ele>
        <time>2012-01-06T11:29:16Z</time>
        <course>9.6467840259893</course>
        <speed>8.31675817452109</speed>
      </trkpt>
      <trkpt lat="43.92967" lon="3.30955">
        <ele>801</ele>
        <time>2012-01-06T11:29:35Z</time>
        <course>2.24269657502218</course>
        <speed>8.31287351750654</speed>
      </trkpt>
      <trkpt lat="43.93018" lon="3.30953">
        <ele>799</ele>
        <time>2012-01-06T11:29:42Z</time>
        <course>341.823241505911</course>
        <speed>8.31939729532769</speed>
      </trkpt>
      <trkpt lat="43.93091" lon="3.30977">
        <ele>797</ele>
        <time>2012-01-06T11:29:52Z</time>
        <course>357.400839183508</course>
        <speed>8.31955606656364</speed>
      </trkpt>
      <trkpt lat="43.93113" lon="3.30978">
        <ele>796</ele>
        <time>2012-01-06T11:29:54Z</time>
        <course>8.2253059600406</course>
        <speed>8.31623307641219</speed>
      </trkpt>
      <trkpt lat="43.93189" lon="3.30967">
        <ele>794</ele>
        <time>2012-01-06T11:30:05Z</time>
        <course>351.677122748814</course>
        <speed>8.31800477974189</speed>
      </trkpt>
      <trkpt lat="43.93667" lon="3.31037">
        <ele>782</ele>
        <time>2012-01-06T11:31:09Z</time>
        <course>341.350552580069</course>
        <speed>8.32125320508064</speed>
      </trkpt>
      <trkpt lat="43.93741" lon="3.31062">
        <ele>779</ele>
        <time>2012-01-06T11:31:19Z</time>
        <course>332.614420204665</course>
        <speed>8.31832307699596</speed>
      </trkpt>
      <trkpt lat="43.93876" lon="3.31132">
        <ele>774</ele>
        <time>2012-01-06T11:31:38Z</time>
        <course>339.013951400414</course>
        <speed>8.31976714606257</speed>
      </trkpt>
      <trkpt lat="43.93988" lon="3.31175">
        <ele>767</ele>
        <time>2012-01-06T11:31:54Z</time>
        <course>351.035240989361</course>
        <speed>8.33287029995072</speed>
      </trkpt>
      <trkpt lat="43.94007" lon="3.31178">
        <ele>765</ele>
        <time>2012-01-06T11:31:56Z</time>
        <course>5.90112839659512</course>
        <speed>8.32122176921579</speed>
      </trkpt>
      <trkpt lat="43.94094" lon="3.31169">
        <ele>760</ele>
        <time>2012-01-06T11:32:08Z</time>
        <course>352.551677626131</course>
        <speed>8.31649719289887</speed>
      </trkpt>
      <trkpt lat="43.94201" lon="3.31183">
        <ele>759</ele>
        <time>2012-01-06T11:32:22Z</time>
        <course>360</course>
        <speed>8.3201331115609</speed>
      </trkpt>
      <trkpt lat="43.94246" lon="3.31183">
        <ele>758</ele>
        <time>2012-01-06T11:32:28Z</time>
        <course>11.7478435629594</course>
        <speed>8.31818427788938</speed>
      </trkpt>
      <trkpt lat="43.9489" lon="3.31049">
        <ele>758</ele>
        <time>2012-01-06T11:33:55Z</time>
        <course>8.91033483812267</course>
        <speed>5.45494484469695</speed>
      </trkpt>
      <trkpt lat="43.94992" lon="3.31033">
        <ele>761</ele>
        <time>2012-01-06T11:34:16Z</time>
        <course>357.792246697238</course>
        <speed>7.56933134677505</speed>
      </trkpt>
      <trkpt lat="43.95355" lon="3.31047">
        <ele>763</ele>
        <time>2012-01-06T11:35:10Z</time>
        <course>2.65332269536099</course>
        <speed>5.21704811773981</speed>
      </trkpt>
      <trkpt lat="43.95657" lon="3.31033">
        <ele>773</ele>
        <time>2012-01-06T11:36:14Z</time>
        <course>343.615173480417</course>
        <speed>4.92371196850768</speed>
      </trkpt>
      <trkpt lat="43.95759" lon="3.31063">
        <ele>777</ele>
        <time>2012-01-06T11:36:38Z</time>
        <course>2.60178307446101</course>
        <speed>6.5225288240239</speed>
      </trkpt>
      <trkpt lat="43.95781" lon="3.31062">
        <ele>777</ele>
        <time>2012-01-06T11:36:41Z</time>
        <course>27.817241713043</course>
        <speed>6.52331457930836</speed>
      </trkpt>
      <trkpt lat="43.95817" lon="3.31043">
        <ele>777</ele>
        <time>2012-01-06T11:36:48Z</time>
        <course>46.8394504565861</course>
        <speed>6.52630925637681</speed>
      </trkpt>
      <trkpt lat="43.95832" lon="3.31027">
        <ele>778</ele>
        <time>2012-01-06T11:36:51Z</time>
        <course>58.8266013777796</course>
        <speed>6.52320191943476</speed>
      </trkpt>
      <trkpt lat="43.95907" lon="3.30903">
        <ele>780</ele>
        <time>2012-01-06T11:37:11Z</time>
        <course>312.151766750158</course>
        <speed>5.96015791400956</speed>
      </trkpt>
      <trkpt lat="43.96298" lon="3.31335">
        <ele>791</ele>
        <time>2012-01-06T11:38:44Z</time>
        <course>318.81907151687</course>
        <speed>8.32470514810284</speed>
      </trkpt>
      <trkpt lat="43.96338" lon="3.3137">
        <ele>790</ele>
        <time>2012-01-06T11:38:50Z</time>
        <course>306.874467438752</course>
        <speed>8.31260554857428</speed>
      </trkpt>
      <trkpt lat="43.96374" lon="3.31418">
        <ele>790</ele>
        <time>2012-01-06T11:38:57Z</time>
        <course>295.517429528288</course>
        <speed>8.31213635546027</speed>
      </trkpt>
      <trkpt lat="43.96395" lon="3.31462">
        <ele>789</ele>
        <time>2012-01-06T11:39:02Z</time>
        <course>279.463627492076</course>
        <speed>8.31369374936912</speed>
      </trkpt>
      <trkpt lat="43.96403" lon="3.3151">
        <ele>788</ele>
        <time>2012-01-06T11:39:07Z</time>
        <course>272.72654504295</course>
        <speed>8.31250660558358</speed>
      </trkpt>
      <trkpt lat="43.96405" lon="3.31552">
        <ele>788</ele>
        <time>2012-01-06T11:39:11Z</time>
        <course>268.103759029879</course>
        <speed>6.89658004560407</speed>
      </trkpt>
      <trkpt lat="43.96389" lon="3.32036">
        <ele>792</ele>
        <time>2012-01-06T11:40:07Z</time>
        <course>271.636300372886</course>
        <speed>4.94393357323305</speed>
      </trkpt>
      <trkpt lat="43.96392" lon="3.32141">
        <ele>794</ele>
        <time>2012-01-06T11:40:24Z</time>
        <course>278.973708349347</course>
        <speed>4.94291924914871</speed>
      </trkpt>
      <trkpt lat="43.96404" lon="3.32217">
        <ele>797</ele>
        <time>2012-01-06T11:40:37Z</time>
        <course>286.191241741863</course>
        <speed>3.68930329270684</speed>
      </trkpt>
      <trkpt lat="43.96431" lon="3.3231">
        <ele>802</ele>
        <time>2012-01-06T11:40:58Z</time>
        <course>297.702300829338</course>
        <speed>3.68871933752523</speed>
      </trkpt>
      <trkpt lat="43.96515" lon="3.3247">
        <ele>812</ele>
        <time>2012-01-06T11:41:41Z</time>
        <course>291.804119222526</course>
        <speed>4.86706661431637</speed>
      </trkpt>
      <trkpt lat="43.96529" lon="3.32505">
        <ele>813</ele>
        <time>2012-01-06T11:41:48Z</time>
        <course>282.772647210919</course>
        <speed>4.86756447927367</speed>
      </trkpt>
      <trkpt lat="43.96546" lon="3.3258">
        <ele>815</ele>
        <time>2012-01-06T11:42:01Z</time>
        <course>276.707829817264</course>
        <speed>4.8657659950751</speed>
      </trkpt>
      <trkpt lat="43.96618" lon="3.33192">
        <ele>833</ele>
        <time>2012-01-06T11:43:43Z</time>
        <course>278.791210303811</course>
        <speed>8.31755821073752</speed>
      </trkpt>
      <trkpt lat="43.96633" lon="3.33289">
        <ele>832</ele>
        <time>2012-01-06T11:43:52Z</time>
        <course>271.991295790775</course>
        <speed>8.31819505614478</speed>
      </trkpt>
      <trkpt lat="43.96641" lon="3.33519">
        <ele>831</ele>
        <time>2012-01-06T11:44:14Z</time>
        <course>275.356203649729</course>
        <speed>8.31215157557501</speed>
      </trkpt>
      <trkpt lat="43.96647" lon="3.33583">
        <ele>830</ele>
        <time>2012-01-06T11:44:21Z</time>
        <course>291.803781259448</course>
        <speed>8.31812129025242</speed>
      </trkpt>
      <trkpt lat="43.96655" lon="3.33603">
        <ele>830</ele>
        <time>2012-01-06T11:44:23Z</time>
        <course>298.075354359923</course>
        <speed>8.34154969578161</speed>
      </trkpt>
      <trkpt lat="43.96663" lon="3.33618">
        <ele>830</ele>
        <time>2012-01-06T11:44:25Z</time>
        <course>318.506861199822</course>
        <speed>8.31314620472326</speed>
      </trkpt>
      <trkpt lat="43.96689" lon="3.33641">
        <ele>830</ele>
        <time>2012-01-06T11:44:29Z</time>
        <course>348.69132367528</course>
        <speed>8.31595223501934</speed>
      </trkpt>
      <trkpt lat="43.96719" lon="3.33647">
        <ele>827</ele>
        <time>2012-01-06T11:44:33Z</time>
        <course>4.57343567114158</course>
        <speed>8.31868807012243</speed>
      </trkpt>
      <trkpt lat="43.96769" lon="3.33643">
        <ele>824</ele>
        <time>2012-01-06T11:44:40Z</time>
        <course>337.753048868818</course>
        <speed>8.32811511972739</speed>
      </trkpt>
      <trkpt lat="43.96791" lon="3.33652">
        <ele>823</ele>
        <time>2012-01-06T11:44:43Z</time>
        <course>317.492436957974</course>
        <speed>5.60525750761786</speed>
      </trkpt>
      <trkpt lat="43.96803" lon="3.33663">
        <ele>823</ele>
        <time>2012-01-06T11:44:45Z</time>
        <course>301.703512743352</course>
        <speed>5.60164451914274</speed>
      </trkpt>
      <trkpt lat="43.96866" lon="3.33765">
        <ele>826</ele>
        <time>2012-01-06T11:45:05Z</time>
        <course>294.777048755327</course>
        <speed>6.432753872726</speed>
      </trkpt>
      <trkpt lat="43.96878" lon="3.33791">
        <ele>826</ele>
        <time>2012-01-06T11:45:08Z</time>
        <course>280.438256282817</course>
        <speed>6.4283114215779</speed>
      </trkpt>
      <trkpt lat="43.96885" lon="3.33829">
        <ele>826</ele>
        <time>2012-01-06T11:45:13Z</time>
        <course>269.426624145711</course>
        <speed>6.42947901804034</speed>
      </trkpt>
      <trkpt lat="43.96884" lon="3.33929">
        <ele>828</ele>
        <time>2012-01-06T11:45:26Z</time>
        <course>284.471422709172</course>
        <speed>8.30845551503593</speed>
      </trkpt>
      <trkpt lat="43.96892" lon="3.3396">
        <ele>826</ele>
        <time>2012-01-06T11:45:29Z</time>
        <course>306.386702026576</course>
        <speed>8.33197698481934</speed>
      </trkpt>
      <trkpt lat="43.96906" lon="3.33979">
        <ele>825</ele>
        <time>2012-01-06T11:45:32Z</time>
        <course>334.724099875199</course>
        <speed>8.31701175994231</speed>
      </trkpt>
      <trkpt lat="43.96942" lon="3.33996">
        <ele>823</ele>
        <time>2012-01-06T11:45:37Z</time>
        <course>317.123391714491</course>
        <speed>8.31603049000518</speed>
      </trkpt>
      <trkpt lat="43.96956" lon="3.34009">
        <ele>823</ele>
        <time>2012-01-06T11:45:39Z</time>
        <course>290.083100418628</course>
        <speed>8.31718539534409</speed>
      </trkpt>
      <trkpt lat="43.9699" lon="3.34102">
        <ele>813</ele>
        <time>2012-01-06T11:45:49Z</time>
        <course>296.018166773603</course>
        <speed>8.31653419462797</speed>
      </trkpt>
      <trkpt lat="43.97031" lon="3.34186">
        <ele>805</ele>
        <time>2012-01-06T11:45:59Z</time>
        <course>316.686567408082</course>
        <speed>6.35145724795104</speed>
      </trkpt>
      <trkpt lat="43.97066" lon="3.34219">
        <ele>805</ele>
        <time>2012-01-06T11:46:06Z</time>
        <course>347.196540032717</course>
        <speed>6.35160572822385</speed>
      </trkpt>
      <trkpt lat="43.97088" lon="3.34224">
        <ele>806</ele>
        <time>2012-01-06T11:46:10Z</time>
        <course>8.91440619177334</course>
        <speed>6.35091156193433</speed>
      </trkpt>
      <trkpt lat="43.97139" lon="3.34216">
        <ele>807</ele>
        <time>2012-01-06T11:46:19Z</time>
        <course>347.0061117251</course>
        <speed>8.32015419149353</speed>
      </trkpt>
      <trkpt lat="43.97152" lon="3.34219">
        <ele>805</ele>
        <time>2012-01-06T11:46:21Z</time>
        <course>317.727919560408</course>
        <speed>8.29935976739348</speed>
      </trkpt>
      <trkpt lat="43.97163" lon="3.34229">
        <ele>803</ele>
        <time>2012-01-06T11:46:22Z</time>
        <course>284.036971720775</course>
        <speed>8.32710293766691</speed>
      </trkpt>
      <trkpt lat="43.97166" lon="3.34241">
        <ele>802</ele>
        <time>2012-01-06T11:46:24Z</time>
        <course>263.289734484718</course>
        <speed>8.29852938242481</speed>
      </trkpt>
      <trkpt lat="43.97164" lon="3.34258">
        <ele>800</ele>
        <time>2012-01-06T11:46:25Z</time>
        <course>259.045133467046</course>
        <speed>8.32154973347051</speed>
      </trkpt>
      <trkpt lat="43.97152" lon="3.3432">
        <ele>795</ele>
        <time>2012-01-06T11:46:32Z</time>
        <course>276.710116664524</course>
        <speed>8.32361548342756</speed>
      </trkpt>
      <trkpt lat="43.97156" lon="3.34354">
        <ele>792</ele>
        <time>2012-01-06T11:46:35Z</time>
        <course>309.807117720587</course>
        <speed>8.31074290983555</speed>
      </trkpt>
      <trkpt lat="43.97171" lon="3.34372">
        <ele>790</ele>
        <time>2012-01-06T11:46:38Z</time>
        <course>332.050222265247</course>
        <speed>8.31437314258186</speed>
      </trkpt>
      <trkpt lat="43.9722" lon="3.34398">
        <ele>787</ele>
        <time>2012-01-06T11:46:45Z</time>
        <course>300.069780806667</course>
        <speed>8.33361523527389</speed>
      </trkpt>
      <trkpt lat="43.97231" lon="3.34417">
        <ele>786</ele>
        <time>2012-01-06T11:46:47Z</time>
        <course>261.517642202968</course>
        <speed>8.32018456201238</speed>
      </trkpt>
      <trkpt lat="43.97214" lon="3.34531">
        <ele>782</ele>
        <time>2012-01-06T11:46:58Z</time>
        <course>276.115734333905</course>
        <speed>5.56229457710538</speed>
      </trkpt>
      <trkpt lat="43.97217" lon="3.34559">
        <ele>782</ele>
        <time>2012-01-06T11:47:02Z</time>
        <course>290.556933225394</course>
        <speed>5.56354166119561</speed>
      </trkpt>
      <trkpt lat="43.97226" lon="3.34583">
        <ele>783</ele>
        <time>2012-01-06T11:47:06Z</time>
        <course>307.236126797701</course>
        <speed>5.57024452975377</speed>
      </trkpt>
      <trkpt lat="43.97245" lon="3.34608">
        <ele>783</ele>
        <time>2012-01-06T11:47:11Z</time>
        <course>318.634074262411</course>
        <speed>5.56452103083582</speed>
      </trkpt>
      <trkpt lat="43.97312" lon="3.34667">
        <ele>786</ele>
        <time>2012-01-06T11:47:27Z</time>
        <course>304.115486968329</course>
        <speed>8.32408489357717</speed>
      </trkpt>
      <trkpt lat="43.97333" lon="3.34698">
        <ele>781</ele>
        <time>2012-01-06T11:47:31Z</time>
        <course>283.324945423909</course>
        <speed>8.30948673687609</speed>
      </trkpt>
      <trkpt lat="43.97342" lon="3.34736">
        <ele>778</ele>
        <time>2012-01-06T11:47:35Z</time>
        <course>266.185583387587</course>
        <speed>8.31953700620119</speed>
      </trkpt>
      <trkpt lat="43.97337" lon="3.34811">
        <ele>771</ele>
        <time>2012-01-06T11:47:42Z</time>
        <course>276.582137342879</course>
        <speed>8.32310492221612</speed>
      </trkpt>
      <trkpt lat="43.9734" lon="3.34837">
        <ele>770</ele>
        <time>2012-01-06T11:47:45Z</time>
        <course>287.199065948992</course>
        <speed>8.30946619214956</speed>
      </trkpt>
      <trkpt lat="43.97353" lon="3.34879">
        <ele>769</ele>
        <time>2012-01-06T11:47:49Z</time>
        <course>301.760398549898</course>
        <speed>8.32767331151246</speed>
      </trkpt>
      <trkpt lat="43.97366" lon="3.349">
        <ele>768</ele>
        <time>2012-01-06T11:47:52Z</time>
        <course>311.186735099648</course>
        <speed>8.31574227295094</speed>
      </trkpt>
      <trkpt lat="43.97429" lon="3.34972">
        <ele>766</ele>
        <time>2012-01-06T11:48:03Z</time>
        <course>298.156759636621</course>
        <speed>8.31462121191741</speed>
      </trkpt>
      <trkpt lat="43.97467" lon="3.35043">
        <ele>759</ele>
        <time>2012-01-06T11:48:11Z</time>
        <course>307.694981248817</course>
        <speed>8.32703078651966</speed>
      </trkpt>
      <trkpt lat="43.97484" lon="3.35065">
        <ele>757</ele>
        <time>2012-01-06T11:48:14Z</time>
        <course>325.376487834891</course>
        <speed>8.32499446094999</speed>
      </trkpt>
      <trkpt lat="43.97526" lon="3.35094">
        <ele>753</ele>
        <time>2012-01-06T11:48:21Z</time>
        <course>347.863391768054</course>
        <speed>8.31915888623775</speed>
      </trkpt>
      <trkpt lat="43.97619" lon="3.35114">
        <ele>752</ele>
        <time>2012-01-06T11:48:33Z</time>
        <course>331.699605758591</course>
        <speed>8.31795064641019</speed>
      </trkpt>
      <trkpt lat="43.97671" lon="3.35142">
        <ele>747</ele>
        <time>2012-01-06T11:48:41Z</time>
        <course>313.668175455543</course>
        <speed>8.32579301216141</speed>
      </trkpt>
      <trkpt lat="43.97692" lon="3.35164">
        <ele>744</ele>
        <time>2012-01-06T11:48:44Z</time>
        <course>305.256633061354</course>
        <speed>8.31364867992162</speed>
      </trkpt>
      <trkpt lat="43.97733" lon="3.35222">
        <ele>740</ele>
        <time>2012-01-06T11:48:52Z</time>
        <course>322.386280488958</course>
        <speed>8.31598402295749</speed>
      </trkpt>
      <trkpt lat="43.97794" lon="3.35269">
        <ele>737</ele>
        <time>2012-01-06T11:49:01Z</time>
        <course>294.904935803333</course>
        <speed>8.32662766933936</speed>
      </trkpt>
      <trkpt lat="43.97807" lon="3.35297">
        <ele>737</ele>
        <time>2012-01-06T11:49:04Z</time>
        <course>272.862382273889</course>
        <speed>8.32782898719616</speed>
      </trkpt>
      <trkpt lat="43.97809" lon="3.35337">
        <ele>736</ele>
        <time>2012-01-06T11:49:08Z</time>
        <course>263.829725466991</course>
        <speed>8.3106020309626</speed>
      </trkpt>
      <trkpt lat="43.97805" lon="3.35374">
        <ele>736</ele>
        <time>2012-01-06T11:49:12Z</time>
        <course>245.55583481117</course>
        <speed>8.32295409757644</speed>
      </trkpt>
      <trkpt lat="43.978" lon="3.35385">
        <ele>736</ele>
        <time>2012-01-06T11:49:13Z</time>
        <course>222.510162483233</course>
        <speed>8.31988056397677</speed>
      </trkpt>
      <trkpt lat="43.97788" lon="3.35396">
        <ele>736</ele>
        <time>2012-01-06T11:49:15Z</time>
        <course>185.710532682915</course>
        <speed>8.31398051557889</speed>
      </trkpt>
      <trkpt lat="43.97768" lon="3.35398">
        <ele>735</ele>
        <time>2012-01-06T11:49:18Z</time>
        <course>176.710806339386</course>
        <speed>8.31960804591489</speed>
      </trkpt>
      <trkpt lat="43.97681" lon="3.35393">
        <ele>735</ele>
        <time>2012-01-06T11:49:29Z</time>
        <course>154.885540344545</course>
        <speed>8.32083156125098</speed>
      </trkpt>
      <trkpt lat="43.97649" lon="3.35378">
        <ele>734</ele>
        <time>2012-01-06T11:49:34Z</time>
        <course>144.462953057622</course>
        <speed>8.31616575254158</speed>
      </trkpt>
      <trkpt lat="43.97565" lon="3.35318">
        <ele>733</ele>
        <time>2012-01-06T11:49:47Z</time>
        <course>160.463784151857</course>
        <speed>8.32612429848006</speed>
      </trkpt>
      <trkpt lat="43.97534" lon="3.35307">
        <ele>732</ele>
        <time>2012-01-06T11:49:51Z</time>
        <course>172.50434182458</course>
        <speed>8.31656421673959</speed>
      </trkpt>
      <trkpt lat="43.97496" lon="3.35302">
        <ele>731</ele>
        <time>2012-01-06T11:49:56Z</time>
        <course>189.462033879652</course>
        <speed>8.31291187503997</speed>
      </trkpt>
      <trkpt lat="43.97442" lon="3.35311">
        <ele>731</ele>
        <time>2012-01-06T11:50:03Z</time>
        <course>201.058673536778</course>
        <speed>8.31820738101633</speed>
      </trkpt>
      <trkpt lat="43.97268" lon="3.35378">
        <ele>726</ele>
        <time>2012-01-06T11:50:27Z</time>
        <course>207.029661994974</course>
        <speed>8.32183931573726</speed>
      </trkpt>
      <trkpt lat="43.97219" lon="3.35403">
        <ele>724</ele>
        <time>2012-01-06T11:50:34Z</time>
        <course>234.581386644704</course>
        <speed>8.32089098759369</speed>
      </trkpt>
      <trkpt lat="43.97187" lon="3.35448">
        <ele>724</ele>
        <time>2012-01-06T11:50:40Z</time>
        <course>253.609451204138</course>
        <speed>8.31314999603596</speed>
      </trkpt>
      <trkpt lat="43.97172" lon="3.35499">
        <ele>723</ele>
        <time>2012-01-06T11:50:46Z</time>
        <course>280.305204971544</course>
        <speed>8.32403982942853</speed>
      </trkpt>
      <trkpt lat="43.97184" lon="3.35565">
        <ele>723</ele>
        <time>2012-01-06T11:50:52Z</time>
        <course>285.243858051051</course>
        <speed>8.31899666535053</speed>
      </trkpt>
      <trkpt lat="43.97308" lon="3.3602">
        <ele>722</ele>
        <time>2012-01-06T11:51:39Z</time>
        <course>284.035511979123</course>
        <speed>7.26561096785441</speed>
      </trkpt>
      <trkpt lat="43.9743" lon="3.36508">
        <ele>725</ele>
        <time>2012-01-06T11:52:36Z</time>
        <course>276.340247174822</course>
        <speed>4.28734502444828</speed>
      </trkpt>
      <trkpt lat="43.97437" lon="3.36571">
        <ele>727</ele>
        <time>2012-01-06T11:52:48Z</time>
        <course>267.510211764978</course>
        <speed>4.28845924615197</speed>
      </trkpt>
      <trkpt lat="43.97434" lon="3.3664">
        <ele>730</ele>
        <time>2012-01-06T11:53:01Z</time>
        <course>271.101385693877</course>
        <speed>8.31959720542654</speed>
      </trkpt>
      <trkpt lat="43.97437" lon="3.36796">
        <ele>730</ele>
        <time>2012-01-06T11:53:16Z</time>
        <course>246.036771097281</course>
        <speed>8.32030676751871</speed>
      </trkpt>
      <trkpt lat="43.97425" lon="3.36823">
        <ele>729</ele>
        <time>2012-01-06T11:53:19Z</time>
        <course>235.04413442911</course>
        <speed>8.32084393108928</speed>
      </trkpt>
      <trkpt lat="43.97353" lon="3.36926">
        <ele>728</ele>
        <time>2012-01-06T11:53:32Z</time>
        <course>241.292988829686</course>
        <speed>7.43047813391993</speed>
      </trkpt>
      <trkpt lat="43.9733" lon="3.36968">
        <ele>728</ele>
        <time>2012-01-06T11:53:38Z</time>
        <course>253.810086399142</course>
        <speed>7.44613826045933</speed>
      </trkpt>
      <trkpt lat="43.97321" lon="3.36999">
        <ele>728</ele>
        <time>2012-01-06T11:53:42Z</time>
        <course>260.61377536962</course>
        <speed>7.43686534224552</speed>
      </trkpt>
      <trkpt lat="43.97301" lon="3.3712">
        <ele>729</ele>
        <time>2012-01-06T11:53:55Z</time>
        <course>248.885361750462</course>
        <speed>5.13220318628088</speed>
      </trkpt>
      <trkpt lat="43.97262" lon="3.37221">
        <ele>731</ele>
        <time>2012-01-06T11:54:13Z</time>
        <course>258.424043034114</course>
        <speed>5.13092204723265</speed>
      </trkpt>
      <trkpt lat="43.97245" lon="3.37304">
        <ele>734</ele>
        <time>2012-01-06T11:54:26Z</time>
        <course>267.754004473341</course>
        <speed>8.31879561852575</speed>
      </trkpt>
      <trkpt lat="43.97243" lon="3.37355">
        <ele>734</ele>
        <time>2012-01-06T11:54:31Z</time>
        <course>273.103040930698</course>
        <speed>8.32040997772492</speed>
      </trkpt>
      <trkpt lat="43.97252" lon="3.37521">
        <ele>734</ele>
        <time>2012-01-06T11:54:47Z</time>
        <course>281.976592172962</course>
        <speed>6.10034589054519</speed>
      </trkpt>
      <trkpt lat="43.97259" lon="3.37554">
        <ele>734</ele>
        <time>2012-01-06T11:54:52Z</time>
        <course>291.105567714811</course>
        <speed>6.09957975403237</speed>
      </trkpt>
      <trkpt lat="43.97281" lon="3.37611">
        <ele>735</ele>
        <time>2012-01-06T11:55:00Z</time>
        <course>284.036746920757</course>
        <speed>6.09532853459241</speed>
      </trkpt>
      <trkpt lat="43.9729" lon="3.37647">
        <ele>736</ele>
        <time>2012-01-06T11:55:05Z</time>
        <course>275.885205377771</course>
        <speed>7.37872432575263</speed>
      </trkpt>
      <trkpt lat="43.9733" lon="3.38035">
        <ele>738</ele>
        <time>2012-01-06T11:55:48Z</time>
        <course>279.554403448636</course>
        <speed>7.09565754367797</speed>
      </trkpt>
      <trkpt lat="43.97347" lon="3.38136">
        <ele>738</ele>
        <time>2012-01-06T11:55:59Z</time>
        <course>265.814817057806</course>
        <speed>7.10263770960065</speed>
      </trkpt>
      <trkpt lat="43.97344" lon="3.38177">
        <ele>739</ele>
        <time>2012-01-06T11:56:04Z</time>
        <course>240.64123559412</course>
        <speed>3.86660017210358</speed>
      </trkpt>
      <trkpt lat="43.97335" lon="3.38193">
        <ele>739</ele>
        <time>2012-01-06T11:56:08Z</time>
        <course>219.471276833345</course>
        <speed>3.86599099910597</speed>
      </trkpt>
      <trkpt lat="43.97318" lon="3.38207">
        <ele>741</ele>
        <time>2012-01-06T11:56:14Z</time>
        <course>195.375586188495</course>
        <speed>3.86604983955061</speed>
      </trkpt>
      <trkpt lat="43.97278" lon="3.38218">
        <ele>743</ele>
        <time>2012-01-06T11:56:26Z</time>
        <course>216.026102868</course>
        <speed>3.86448726896066</speed>
      </trkpt>
      <trkpt lat="43.97267" lon="3.38226">
        <ele>744</ele>
        <time>2012-01-06T11:56:29Z</time>
        <course>241.555877819573</course>
        <speed>3.86821618735762</speed>
      </trkpt>
      <trkpt lat="43.97254" lon="3.3825">
        <ele>746</ele>
        <time>2012-01-06T11:56:35Z</time>
        <course>265.162820080133</course>
        <speed>4.71944234280029</speed>
      </trkpt>
      <trkpt lat="43.97243" lon="3.3838">
        <ele>750</ele>
        <time>2012-01-06T11:56:58Z</time>
        <course>270.447274245486</course>
        <speed>8.31582804807597</speed>
      </trkpt>
      <trkpt lat="43.97244" lon="3.38508">
        <ele>746</ele>
        <time>2012-01-06T11:57:10Z</time>
        <course>262.568168917585</course>
        <speed>5.66448290694759</speed>
      </trkpt>
      <trkpt lat="43.97241" lon="3.38531">
        <ele>746</ele>
        <time>2012-01-06T11:57:13Z</time>
        <course>251.002291424986</course>
        <speed>5.66833636841094</speed>
      </trkpt>
      <trkpt lat="43.9722" lon="3.38592">
        <ele>747</ele>
        <time>2012-01-06T11:57:23Z</time>
        <course>248.156758819414</course>
        <speed>5.66799455215891</speed>
      </trkpt>
      <trkpt lat="43.97121" lon="3.38839">
        <ele>753</ele>
        <time>2012-01-06T11:58:03Z</time>
        <course>243.433394489052</course>
        <speed>3.6819445995373</speed>
      </trkpt>
      <trkpt lat="43.97102" lon="3.38877">
        <ele>755</ele>
        <time>2012-01-06T11:58:13Z</time>
        <course>229.633573363845</course>
        <speed>3.68335655836875</speed>
      </trkpt>
      <trkpt lat="43.97085" lon="3.38897">
        <ele>756</ele>
        <time>2012-01-06T11:58:19Z</time>
        <course>217.873127052411</course>
        <speed>3.68520639486045</speed>
      </trkpt>
      <trkpt lat="43.97076" lon="3.38904">
        <ele>757</ele>
        <time>2012-01-06T11:58:23Z</time>
        <course>197.699227458851</course>
        <speed>3.68038234926564</speed>
      </trkpt>
      <trkpt lat="43.97029" lon="3.38919">
        <ele>761</ele>
        <time>2012-01-06T11:58:37Z</time>
        <course>231.544115894595</course>
        <speed>3.73874464970287</speed>
      </trkpt>
      <trkpt lat="43.97002" lon="3.38953">
        <ele>763</ele>
        <time>2012-01-06T11:58:48Z</time>
        <course>255.698497977909</course>
        <speed>3.73976455438241</speed>
      </trkpt>
      <trkpt lat="43.96989" lon="3.39004">
        <ele>766</ele>
        <time>2012-01-06T11:59:00Z</time>
        <course>268.492313068471</course>
        <speed>3.74050139020533</speed>
      </trkpt>
      <trkpt lat="43.96988" lon="3.39042">
        <ele>768</ele>
        <time>2012-01-06T11:59:08Z</time>
        <course>275.552881393219</course>
        <speed>4.47469628821461</speed>
      </trkpt>
      <trkpt lat="43.97002" lon="3.39186">
        <ele>773</ele>
        <time>2012-01-06T11:59:34Z</time>
        <course>281.004088475812</course>
        <speed>4.05750334998561</speed>
      </trkpt>
      <trkpt lat="43.97016" lon="3.39258">
        <ele>776</ele>
        <time>2012-01-06T11:59:48Z</time>
        <course>269.999920030102</course>
        <speed>4.06045092224291</speed>
      </trkpt>
      <trkpt lat="43.97016" lon="3.39281">
        <ele>777</ele>
        <time>2012-01-06T11:59:53Z</time>
        <course>258.501528674707</course>
        <speed>4.05763133980393</speed>
      </trkpt>
      <trkpt lat="43.96956" lon="3.39576">
        <ele>790</ele>
        <time>2012-01-06T12:00:53Z</time>
        <course>250.878530155458</course>
        <speed>3.41241048295531</speed>
      </trkpt>
      <trkpt lat="43.9693" lon="3.39651">
        <ele>794</ele>
        <time>2012-01-06T12:01:13Z</time>
        <course>226.329558168483</course>
        <speed>3.41412513652502</speed>
      </trkpt>
      <trkpt lat="43.96888" lon="3.39695">
        <ele>799</ele>
        <time>2012-01-06T12:01:30Z</time>
        <course>242.557671655124</course>
        <speed>4.67669667044221</speed>
      </trkpt>
      <trkpt lat="43.96834" lon="3.39799">
        <ele>803</ele>
        <time>2012-01-06T12:01:52Z</time>
        <course>228.009778980552</course>
        <speed>5.5857663029069</speed>
      </trkpt>
      <trkpt lat="43.96798" lon="3.39839">
        <ele>804</ele>
        <time>2012-01-06T12:02:01Z</time>
        <course>254.666457940538</course>
        <speed>5.58256339229634</speed>
      </trkpt>
      <trkpt lat="43.9671" lon="3.4016">
        <ele>811</ele>
        <time>2012-01-06T12:02:50Z</time>
        <course>242.741627652644</course>
        <speed>8.32214865899191</speed>
      </trkpt>
      <trkpt lat="43.96676" lon="3.40226">
        <ele>810</ele>
        <time>2012-01-06T12:02:58Z</time>
        <course>251.562858580429</course>
        <speed>8.32806045382456</speed>
      </trkpt>
      <trkpt lat="43.96668" lon="3.4025">
        <ele>810</ele>
        <time>2012-01-06T12:03:01Z</time>
        <course>266.53120054922</course>
        <speed>8.32896845035603</speed>
      </trkpt>
      <trkpt lat="43.96666" lon="3.40283">
        <ele>810</ele>
        <time>2012-01-06T12:03:04Z</time>
        <course>279.889466161909</course>
        <speed>8.31935682409229</speed>
      </trkpt>
      <trkpt lat="43.96719" lon="3.40587">
        <ele>806</ele>
        <time>2012-01-06T12:03:34Z</time>
        <course>287.785540294899</course>
        <speed>8.31660700909373</speed>
      </trkpt>
      <trkpt lat="43.96736" lon="3.4064">
        <ele>804</ele>
        <time>2012-01-06T12:03:39Z</time>
        <course>296.567444373451</course>
        <speed>8.30991438456501</speed>
      </trkpt>
      <trkpt lat="43.96752" lon="3.40672">
        <ele>802</ele>
        <time>2012-01-06T12:03:43Z</time>
        <course>313.155412111923</course>
        <speed>8.30572697549337</speed>
      </trkpt>
      <trkpt lat="43.96767" lon="3.40688">
        <ele>801</ele>
        <time>2012-01-06T12:03:46Z</time>
        <course>330.947924368484</course>
        <speed>8.31709294923775</speed>
      </trkpt>
      <trkpt lat="43.96785" lon="3.40698">
        <ele>801</ele>
        <time>2012-01-06T12:03:48Z</time>
        <course>346.219582169216</course>
        <speed>5.54256403397247</speed>
      </trkpt>
      <trkpt lat="43.96891" lon="3.40724">
        <ele>804</ele>
        <time>2012-01-06T12:04:10Z</time>
        <course>309.474888160144</course>
        <speed>8.33085987216046</speed>
      </trkpt>
      <trkpt lat="43.96905" lon="3.40741">
        <ele>801</ele>
        <time>2012-01-06T12:04:12Z</time>
        <course>287.475991865024</course>
        <speed>8.31341509966178</speed>
      </trkpt>
      <trkpt lat="43.96922" lon="3.40795">
        <ele>795</ele>
        <time>2012-01-06T12:04:18Z</time>
        <course>304.69738208748</course>
        <speed>8.33867634592761</speed>
      </trkpt>
      <trkpt lat="43.96931" lon="3.40808">
        <ele>793</ele>
        <time>2012-01-06T12:04:20Z</time>
        <course>325.307051908785</course>
        <speed>8.31930720770597</speed>
      </trkpt>
      <trkpt lat="43.96944" lon="3.40817">
        <ele>791</ele>
        <time>2012-01-06T12:04:22Z</time>
        <course>360</course>
        <speed>8.32359550570047</speed>
      </trkpt>
      <trkpt lat="43.96964" lon="3.40817">
        <ele>789</ele>
        <time>2012-01-06T12:04:24Z</time>
        <course>41.9849809086327</course>
        <speed>4.77957990510551</speed>
      </trkpt>
      <trkpt lat="43.96974" lon="3.40808">
        <ele>789</ele>
        <time>2012-01-06T12:04:27Z</time>
        <course>62.0187937566947</course>
        <speed>4.77604016047405</speed>
      </trkpt>
      <trkpt lat="43.96991" lon="3.40776">
        <ele>790</ele>
        <time>2012-01-06T12:04:34Z</time>
        <course>48.8119369528663</course>
        <speed>4.77325290673792</speed>
      </trkpt>
      <trkpt lat="43.96998" lon="3.40768">
        <ele>791</ele>
        <time>2012-01-06T12:04:36Z</time>
        <course>15.2540358140818</course>
        <speed>4.77258069342595</speed>
      </trkpt>
      <trkpt lat="43.97009" lon="3.40765">
        <ele>791</ele>
        <time>2012-01-06T12:04:38Z</time>
        <course>349.695891136133</course>
        <speed>4.77806383451941</speed>
      </trkpt>
      <trkpt lat="43.9702" lon="3.40767">
        <ele>791</ele>
        <time>2012-01-06T12:04:41Z</time>
        <course>319.400582508626</course>
        <speed>4.77666881862595</speed>
      </trkpt>
      <trkpt lat="43.97062" lon="3.40803">
        <ele>794</ele>
        <time>2012-01-06T12:04:53Z</time>
        <course>332.104290922267</course>
        <speed>2.75035812978025</speed>
      </trkpt>
      <trkpt lat="43.97079" lon="3.40812">
        <ele>796</ele>
        <time>2012-01-06T12:05:00Z</time>
        <course>356.531986764084</course>
        <speed>2.74939815972911</speed>
      </trkpt>
      <trkpt lat="43.97112" lon="3.40814">
        <ele>799</ele>
        <time>2012-01-06T12:05:13Z</time>
        <course>16.1434498288386</course>
        <speed>2.74902471013464</speed>
      </trkpt>
      <trkpt lat="43.9715" lon="3.40803">
        <ele>804</ele>
        <time>2012-01-06T12:05:29Z</time>
        <course>342.646896762116</course>
        <speed>2.74861161726131</speed>
      </trkpt>
      <trkpt lat="43.97166" lon="3.40808">
        <ele>806</ele>
        <time>2012-01-06T12:05:36Z</time>
        <course>299.055912668409</course>
        <speed>8.30356189101343</speed>
      </trkpt>
      <trkpt lat="43.97176" lon="3.40826">
        <ele>802</ele>
        <time>2012-01-06T12:05:38Z</time>
        <course>281.535090532421</course>
        <speed>8.31242042060286</speed>
      </trkpt>
      <trkpt lat="43.97186" lon="3.40875">
        <ele>795</ele>
        <time>2012-01-06T12:05:43Z</time>
        <course>273.691400589576</course>
        <speed>8.3245477522626</speed>
      </trkpt>
      <trkpt lat="43.9719" lon="3.40937">
        <ele>786</ele>
        <time>2012-01-06T12:05:49Z</time>
        <course>269.432401974106</course>
        <speed>8.31907775912345</speed>
      </trkpt>
      <trkpt lat="43.97189" lon="3.41038">
        <ele>771</ele>
        <time>2012-01-06T12:05:58Z</time>
        <course>280.620168046334</course>
        <speed>8.31601695584444</speed>
      </trkpt>
      <trkpt lat="43.97192" lon="3.41054">
        <ele>769</ele>
        <time>2012-01-06T12:06:00Z</time>
        <course>300.466829815354</course>
        <speed>8.32157191396713</speed>
      </trkpt>
      <trkpt lat="43.97202" lon="3.41071">
        <ele>766</ele>
        <time>2012-01-06T12:06:02Z</time>
        <course>344.74561551382</course>
        <speed>2.63907188776919</speed>
      </trkpt>
      <trkpt lat="43.97224" lon="3.41077">
        <ele>768</ele>
        <time>2012-01-06T12:06:11Z</time>
        <course>18.7772414630887</course>
        <speed>2.63833418080995</speed>
      </trkpt>
      <trkpt lat="43.97274" lon="3.4106">
        <ele>774</ele>
        <time>2012-01-06T12:06:33Z</time>
        <course>358.3153818888</course>
        <speed>2.6389149764759</speed>
      </trkpt>
      <trkpt lat="43.97342" lon="3.41062">
        <ele>783</ele>
        <time>2012-01-06T12:07:02Z</time>
        <course>309.473507316832</course>
        <speed>8.33058594186197</speed>
      </trkpt>
      <trkpt lat="43.97356" lon="3.41079">
        <ele>781</ele>
        <time>2012-01-06T12:07:04Z</time>
        <course>278.530984350487</course>
        <speed>8.31422021779298</speed>
      </trkpt>
      <trkpt lat="43.97362" lon="3.41119">
        <ele>780</ele>
        <time>2012-01-06T12:07:08Z</time>
        <course>292.620596584911</course>
        <speed>8.33727994341144</speed>
      </trkpt>
      <trkpt lat="43.97367" lon="3.41131">
        <ele>779</ele>
        <time>2012-01-06T12:07:10Z</time>
        <course>315.001014490033</course>
        <speed>8.333263731101</speed>
      </trkpt>
      <trkpt lat="43.97381" lon="3.41145">
        <ele>778</ele>
        <time>2012-01-06T12:07:12Z</time>
        <course>341.565656432974</course>
        <speed>8.29397081679124</speed>
      </trkpt>
      <trkpt lat="43.9739" lon="3.41148">
        <ele>777</ele>
        <time>2012-01-06T12:07:13Z</time>
        <course>16.2319115077421</course>
        <speed>8.3201205454076</speed>
      </trkpt>
      <trkpt lat="43.97469" lon="3.41125">
        <ele>773</ele>
        <time>2012-01-06T12:07:24Z</time>
        <course>350.909964680055</course>
        <speed>8.32248413502211</speed>
      </trkpt>
      <trkpt lat="43.97494" lon="3.41129">
        <ele>769</ele>
        <time>2012-01-06T12:07:27Z</time>
        <course>306.870619093965</course>
        <speed>8.32432028056156</speed>
      </trkpt>
      <trkpt lat="43.975" lon="3.41137">
        <ele>768</ele>
        <time>2012-01-06T12:07:28Z</time>
        <course>282.095039107112</course>
        <speed>8.34365380283479</speed>
      </trkpt>
      <trkpt lat="43.97503" lon="3.41151">
        <ele>767</ele>
        <time>2012-01-06T12:07:30Z</time>
        <course>257.988111092586</course>
        <speed>8.32115002710574</speed>
      </trkpt>
      <trkpt lat="43.97493" lon="3.41198">
        <ele>762</ele>
        <time>2012-01-06T12:07:34Z</time>
        <course>269.999928242524</course>
        <speed>8.31459144424769</speed>
      </trkpt>
      <trkpt lat="43.97493" lon="3.41232">
        <ele>759</ele>
        <time>2012-01-06T12:07:38Z</time>
        <course>283.134300008348</course>
        <speed>8.3232787952577</speed>
      </trkpt>
      <trkpt lat="43.975" lon="3.41262">
        <ele>757</ele>
        <time>2012-01-06T12:07:41Z</time>
        <course>301.329309701611</course>
        <speed>8.30663484976836</speed>
      </trkpt>
      <trkpt lat="43.97514" lon="3.41285">
        <ele>756</ele>
        <time>2012-01-06T12:07:44Z</time>
        <course>315.785448269445</course>
        <speed>8.32354596846507</speed>
      </trkpt>
      <trkpt lat="43.97551" lon="3.41321">
        <ele>756</ele>
        <time>2012-01-06T12:07:50Z</time>
        <course>308.211423310132</course>
        <speed>8.32023912878784</speed>
      </trkpt>
      <trkpt lat="43.97625" lon="3.41415">
        <ele>755</ele>
        <time>2012-01-06T12:08:03Z</time>
        <course>320.28161199167</course>
        <speed>8.31536405234715</speed>
      </trkpt>
      <trkpt lat="43.9769" lon="3.41469">
        <ele>754</ele>
        <time>2012-01-06T12:08:13Z</time>
        <course>302.471505391636</course>
        <speed>8.32763797592264</speed>
      </trkpt>
      <trkpt lat="43.97711" lon="3.41502">
        <ele>754</ele>
        <time>2012-01-06T12:08:17Z</time>
        <course>313.939356495925</course>
        <speed>8.31481866828641</speed>
      </trkpt>
      <trkpt lat="43.97764" lon="3.41557">
        <ele>749</ele>
        <time>2012-01-06T12:08:26Z</time>
        <course>307.093063269837</course>
        <speed>8.3137656718438</speed>
      </trkpt>
      <trkpt lat="43.97795" lon="3.41598">
        <ele>746</ele>
        <time>2012-01-06T12:08:32Z</time>
        <course>329.036450516775</course>
        <speed>5.37456104100341</speed>
      </trkpt>
      <trkpt lat="43.9782" lon="3.41613">
        <ele>746</ele>
        <time>2012-01-06T12:08:38Z</time>
        <course>349.286949152315</course>
        <speed>5.3748270529449</speed>
      </trkpt>
      <trkpt lat="43.97857" lon="3.4162">
        <ele>747</ele>
        <time>2012-01-06T12:08:45Z</time>
        <course>324.462492910515</course>
        <speed>5.38200320427019</speed>
      </trkpt>
      <trkpt lat="43.97871" lon="3.4163">
        <ele>748</ele>
        <time>2012-01-06T12:08:49Z</time>
        <course>295.463462821224</course>
        <speed>5.36951724708391</speed>
      </trkpt>
      <trkpt lat="43.97881" lon="3.41651">
        <ele>749</ele>
        <time>2012-01-06T12:08:52Z</time>
        <course>276.340211814616</course>
        <speed>8.32208520087547</speed>
      </trkpt>
      <trkpt lat="43.97883" lon="3.41669">
        <ele>748</ele>
        <time>2012-01-06T12:08:54Z</time>
        <course>255.963645855377</course>
        <speed>8.31647007562743</speed>
      </trkpt>
      <trkpt lat="43.97876" lon="3.41697">
        <ele>748</ele>
        <time>2012-01-06T12:08:57Z</time>
        <course>223.264091319034</course>
        <speed>8.3266935616317</speed>
      </trkpt>
      <trkpt lat="43.97859" lon="3.41713">
        <ele>747</ele>
        <time>2012-01-06T12:09:00Z</time>
        <course>182.862383430369</course>
        <speed>8.32898146978646</speed>
      </trkpt>
      <trkpt lat="43.97839" lon="3.41714">
        <ele>747</ele>
        <time>2012-01-06T12:09:02Z</time>
        <course>160.974550462219</course>
        <speed>8.3213209671308</speed>
      </trkpt>
      <trkpt lat="43.9781" lon="3.41704">
        <ele>747</ele>
        <time>2012-01-06T12:09:06Z</time>
        <course>150.945676510159</course>
        <speed>8.31689858494328</speed>
      </trkpt>
      <trkpt lat="43.97756" lon="3.41674">
        <ele>746</ele>
        <time>2012-01-06T12:09:14Z</time>
        <course>134.119056253225</course>
        <speed>6.41275907181821</speed>
      </trkpt>
      <trkpt lat="43.97692" lon="3.41608">
        <ele>747</ele>
        <time>2012-01-06T12:09:28Z</time>
        <course>142.125489335044</course>
        <speed>6.41159084864071</speed>
      </trkpt>
      <trkpt lat="43.97656" lon="3.4158">
        <ele>748</ele>
        <time>2012-01-06T12:09:35Z</time>
        <course>156.460446900552</course>
        <speed>8.3180485729168</speed>
      </trkpt>
      <trkpt lat="43.97555" lon="3.41536">
        <ele>744</ele>
        <time>2012-01-06T12:09:49Z</time>
        <course>141.695174332892</course>
        <speed>8.31627971052888</speed>
      </trkpt>
      <trkpt lat="43.97436" lon="3.41442">
        <ele>738</ele>
        <time>2012-01-06T12:10:07Z</time>
        <course>158.499294486747</course>
        <speed>8.32199476408039</speed>
      </trkpt>
      <trkpt lat="43.9737" lon="3.41416">
        <ele>733</ele>
        <time>2012-01-06T12:10:17Z</time>
        <course>180</course>
        <speed>8.3198984770437</speed>
      </trkpt>
      <trkpt lat="43.97311" lon="3.41416">
        <ele>729</ele>
        <time>2012-01-06T12:10:25Z</time>
        <course>204.00965428593</course>
        <speed>5.12822429514233</speed>
      </trkpt>
      <trkpt lat="43.97201" lon="3.41465">
        <ele>733</ele>
        <time>2012-01-06T12:10:50Z</time>
        <course>182.436507516881</course>
        <speed>8.32020465060653</speed>
      </trkpt>
      <trkpt lat="43.97154" lon="3.41467">
        <ele>729</ele>
        <time>2012-01-06T12:10:56Z</time>
        <course>175.364860791113</course>
        <speed>8.32006871595239</speed>
      </trkpt>
      <trkpt lat="43.97043" lon="3.41458">
        <ele>720</ele>
        <time>2012-01-06T12:11:11Z</time>
        <course>198.433712566603</course>
        <speed>8.31075285081611</speed>
      </trkpt>
      <trkpt lat="43.97031" lon="3.41462">
        <ele>718</ele>
        <time>2012-01-06T12:11:12Z</time>
        <course>228.01064067103</course>
        <speed>8.31506234883216</speed>
      </trkpt>
      <trkpt lat="43.97013" lon="3.41482">
        <ele>716</ele>
        <time>2012-01-06T12:11:15Z</time>
        <course>204.442325167541</course>
        <speed>8.29718449337017</speed>
      </trkpt>
      <trkpt lat="43.97002" lon="3.41487">
        <ele>715</ele>
        <time>2012-01-06T12:11:17Z</time>
        <course>155.557736586858</course>
        <speed>8.32403845844706</speed>
      </trkpt>
      <trkpt lat="43.9698" lon="3.41477">
        <ele>712</ele>
        <time>2012-01-06T12:11:20Z</time>
        <course>119.652079682134</course>
        <speed>8.31580297594044</speed>
      </trkpt>
      <trkpt lat="43.96943" lon="3.41412">
        <ele>707</ele>
        <time>2012-01-06T12:11:28Z</time>
        <course>144.464657976612</course>
        <speed>8.32956374844625</speed>
      </trkpt>
      <trkpt lat="43.96922" lon="3.41397">
        <ele>704</ele>
        <time>2012-01-06T12:11:31Z</time>
        <course>174.401174159826</course>
        <speed>8.3180236063661</speed>
      </trkpt>
      <trkpt lat="43.96871" lon="3.41392">
        <ele>700</ele>
        <time>2012-01-06T12:11:38Z</time>
        <course>201.799542152954</course>
        <speed>8.29902877095356</speed>
      </trkpt>
      <trkpt lat="43.96856" lon="3.41398">
        <ele>699</ele>
        <time>2012-01-06T12:11:40Z</time>
        <course>226.545347870967</course>
        <speed>8.31753897605177</speed>
      </trkpt>
      <trkpt lat="43.96838" lon="3.41417">
        <ele>697</ele>
        <time>2012-01-06T12:11:43Z</time>
        <course>252.34808027518</course>
        <speed>4.62436220537851</speed>
      </trkpt>
      <trkpt lat="43.96824" lon="3.41461">
        <ele>698</ele>
        <time>2012-01-06T12:11:51Z</time>
        <course>273.814329304417</course>
        <speed>4.62484619167505</speed>
      </trkpt>
      <trkpt lat="43.96826" lon="3.41491">
        <ele>699</ele>
        <time>2012-01-06T12:11:57Z</time>
        <course>289.291717369879</course>
        <speed>4.61978751308793</speed>
      </trkpt>
      <trkpt lat="43.96833" lon="3.41511">
        <ele>700</ele>
        <time>2012-01-06T12:12:00Z</time>
        <course>307.944541673846</course>
        <speed>4.62530549879414</speed>
      </trkpt>
      <trkpt lat="43.96879" lon="3.4157">
        <ele>703</ele>
        <time>2012-01-06T12:12:16Z</time>
        <course>291.542429779259</course>
        <speed>8.32202708125584</speed>
      </trkpt>
      <trkpt lat="43.96909" lon="3.41646">
        <ele>702</ele>
        <time>2012-01-06T12:12:24Z</time>
        <course>308.886775843263</course>
        <speed>8.31117762299982</speed>
      </trkpt>
      <trkpt lat="43.96934" lon="3.41677">
        <ele>702</ele>
        <time>2012-01-06T12:12:28Z</time>
        <course>325.01002507194</course>
        <speed>8.31718866264025</speed>
      </trkpt>
      <trkpt lat="43.96984" lon="3.41712">
        <ele>699</ele>
        <time>2012-01-06T12:12:36Z</time>
        <course>302.737184125511</course>
        <speed>8.34024198382394</speed>
      </trkpt>
      <trkpt lat="43.96993" lon="3.41726">
        <ele>698</ele>
        <time>2012-01-06T12:12:38Z</time>
        <course>273.814312301488</course>
        <speed>8.30854169562748</speed>
      </trkpt>
      <trkpt lat="43.96994" lon="3.41741">
        <ele>698</ele>
        <time>2012-01-06T12:12:39Z</time>
        <course>247.164703654821</course>
        <speed>8.30392886509456</speed>
      </trkpt>
      <trkpt lat="43.96986" lon="3.4176">
        <ele>697</ele>
        <time>2012-01-06T12:12:41Z</time>
        <course>220.91211694121</course>
        <speed>8.32399279128275</speed>
      </trkpt>
      <trkpt lat="43.96971" lon="3.41773">
        <ele>696</ele>
        <time>2012-01-06T12:12:44Z</time>
        <course>211.60542635333</course>
        <speed>8.31526747772985</speed>
      </trkpt>
      <trkpt lat="43.96958" lon="3.41781">
        <ele>695</ele>
        <time>2012-01-06T12:12:45Z</time>
        <course>191.688406814132</course>
        <speed>8.31124985770843</speed>
      </trkpt>
      <trkpt lat="43.96929" lon="3.41787">
        <ele>694</ele>
        <time>2012-01-06T12:12:49Z</time>
        <course>180</course>
        <speed>8.31667359664469</speed>
      </trkpt>
      <trkpt lat="43.96893" lon="3.41787">
        <ele>692</ele>
        <time>2012-01-06T12:12:54Z</time>
        <course>168.080441587729</course>
        <speed>8.31873462921545</speed>
      </trkpt>
      <trkpt lat="43.96803" lon="3.41768">
        <ele>688</ele>
        <time>2012-01-06T12:13:06Z</time>
        <course>180</course>
        <speed>8.32599423643234</speed>
      </trkpt>
      <trkpt lat="43.96777" lon="3.41768">
        <ele>686</ele>
        <time>2012-01-06T12:13:10Z</time>
        <course>207.213517408212</course>
        <speed>8.310780481189</speed>
      </trkpt>
      <trkpt lat="43.96742" lon="3.41786">
        <ele>683</ele>
        <time>2012-01-06T12:13:15Z</time>
        <course>219.119080036591</course>
        <speed>8.31777895726067</speed>
      </trkpt>
      <trkpt lat="43.96667" lon="3.41847">
        <ele>677</ele>
        <time>2012-01-06T12:13:26Z</time>
        <course>238.389225970267</course>
        <speed>5.30208765366431</speed>
      </trkpt>
      <trkpt lat="43.96651" lon="3.41873">
        <ele>677</ele>
        <time>2012-01-06T12:13:32Z</time>
        <course>261.86880100575</course>
        <speed>5.30125380146978</speed>
      </trkpt>
      <trkpt lat="43.96648" lon="3.41894">
        <ele>678</ele>
        <time>2012-01-06T12:13:35Z</time>
        <course>269.99965563708</course>
        <speed>5.30396333620229</speed>
      </trkpt>
      <trkpt lat="43.96648" lon="3.4197">
        <ele>680</ele>
        <time>2012-01-06T12:13:46Z</time>
        <course>254.621526396194</course>
        <speed>8.32246094684649</speed>
      </trkpt>
      <trkpt lat="43.96626" lon="3.4205">
        <ele>677</ele>
        <time>2012-01-06T12:13:54Z</time>
        <course>251.21946663479</course>
        <speed>8.3132684771523</speed>
      </trkpt>
      <trkpt lat="43.96609" lon="3.421">
        <ele>676</ele>
        <time>2012-01-06T12:14:00Z</time>
        <course>244.945627208638</course>
        <speed>8.31598806757175</speed>
      </trkpt>
      <trkpt lat="43.96566" lon="3.42192">
        <ele>666</ele>
        <time>2012-01-06T12:14:10Z</time>
        <course>258.109554149785</course>
        <speed>8.31117091377772</speed>
      </trkpt>
      <trkpt lat="43.96558" lon="3.4223">
        <ele>663</ele>
        <time>2012-01-06T12:14:14Z</time>
        <course>275.572773566401</course>
        <speed>6.18531029917317</speed>
      </trkpt>
      <trkpt lat="43.96562" lon="3.42271">
        <ele>663</ele>
        <time>2012-01-06T12:14:20Z</time>
        <course>298.181581756085</course>
        <speed>6.189870075031</speed>
      </trkpt>
      <trkpt lat="43.96592" lon="3.42327">
        <ele>664</ele>
        <time>2012-01-06T12:14:29Z</time>
        <course>287.880782990572</course>
        <speed>6.18899396616978</speed>
      </trkpt>
      <trkpt lat="43.96602" lon="3.42358">
        <ele>665</ele>
        <time>2012-01-06T12:14:33Z</time>
        <course>276.532377792213</course>
        <speed>8.32075735936215</speed>
      </trkpt>
      <trkpt lat="43.96617" lon="3.42489">
        <ele>662</ele>
        <time>2012-01-06T12:14:46Z</time>
        <course>270.773978981292</course>
        <speed>8.31384700440129</speed>
      </trkpt>
      <trkpt lat="43.96618" lon="3.42563">
        <ele>656</ele>
        <time>2012-01-06T12:14:53Z</time>
        <course>259.378536665574</course>
        <speed>8.31677940455329</speed>
      </trkpt>
      <trkpt lat="43.966" lon="3.42659">
        <ele>650</ele>
        <time>2012-01-06T12:15:02Z</time>
        <course>264.804677706986</course>
        <speed>8.32635896070532</speed>
      </trkpt>
      <trkpt lat="43.96596" lon="3.42703">
        <ele>648</ele>
        <time>2012-01-06T12:15:07Z</time>
        <course>271.877842228143</course>
        <speed>8.31988132519099</speed>
      </trkpt>
      <trkpt lat="43.96598" lon="3.42764">
        <ele>646</ele>
        <time>2012-01-06T12:15:12Z</time>
        <course>282.849079749168</course>
        <speed>8.31684808097982</speed>
      </trkpt>
      <trkpt lat="43.96611" lon="3.42821">
        <ele>645</ele>
        <time>2012-01-06T12:15:18Z</time>
        <course>274.085954664967</course>
        <speed>8.31429734724296</speed>
      </trkpt>
      <trkpt lat="43.96614" lon="3.42863">
        <ele>644</ele>
        <time>2012-01-06T12:15:22Z</time>
        <course>308.663328303076</course>
        <speed>8.30407616584934</speed>
      </trkpt>
      <trkpt lat="43.9663" lon="3.42883">
        <ele>644</ele>
        <time>2012-01-06T12:15:25Z</time>
        <course>341.898255590037</course>
        <speed>8.31379012482864</speed>
      </trkpt>
      <trkpt lat="43.96682" lon="3.429">
        <ele>644</ele>
        <time>2012-01-06T12:15:32Z</time>
        <course>318.183007749605</course>
        <speed>3.90238895423988</speed>
      </trkpt>
      <trkpt lat="43.9672" lon="3.42934">
        <ele>646</ele>
        <time>2012-01-06T12:15:45Z</time>
        <course>358.85435914541</course>
        <speed>3.90208960056901</speed>
      </trkpt>
      <trkpt lat="43.9677" lon="3.42935">
        <ele>650</ele>
        <time>2012-01-06T12:15:59Z</time>
        <course>298.813268697236</course>
        <speed>8.3185834445498</speed>
      </trkpt>
      <trkpt lat="43.96781" lon="3.42955">
        <ele>648</ele>
        <time>2012-01-06T12:16:02Z</time>
        <course>262.874176127242</course>
        <speed>8.32550021109338</speed>
      </trkpt>
      <trkpt lat="43.96779" lon="3.42971">
        <ele>647</ele>
        <time>2012-01-06T12:16:03Z</time>
        <course>234.685809010836</course>
        <speed>8.31199248957686</speed>
      </trkpt>
      <trkpt lat="43.96762" lon="3.42995">
        <ele>645</ele>
        <time>2012-01-06T12:16:07Z</time>
        <course>213.132443034212</course>
        <speed>8.3157757871514</speed>
      </trkpt>
      <trkpt lat="43.9669" lon="3.43042">
        <ele>640</ele>
        <time>2012-01-06T12:16:17Z</time>
        <course>207.549931284107</course>
        <speed>8.32322497655873</speed>
      </trkpt>
      <trkpt lat="43.96667" lon="3.43054">
        <ele>636</ele>
        <time>2012-01-06T12:16:21Z</time>
        <course>192.456603553398</course>
        <speed>8.3201927548266</speed>
      </trkpt>
      <trkpt lat="43.96581" lon="3.43073">
        <ele>626</ele>
        <time>2012-01-06T12:16:32Z</time>
        <course>216.023543537683</course>
        <speed>8.31118703161293</speed>
      </trkpt>
      <trkpt lat="43.96559" lon="3.43089">
        <ele>624</ele>
        <time>2012-01-06T12:16:35Z</time>
        <course>234.778530700731</course>
        <speed>8.31612667140518</speed>
      </trkpt>
      <trkpt lat="43.96547" lon="3.43106">
        <ele>623</ele>
        <time>2012-01-06T12:16:38Z</time>
        <course>253.73736440818</course>
        <speed>8.31777107086964</speed>
      </trkpt>
      <trkpt lat="43.96533" lon="3.43154">
        <ele>621</ele>
        <time>2012-01-06T12:16:43Z</time>
        <course>264.558683344165</course>
        <speed>8.32537814733945</speed>
      </trkpt>
      <trkpt lat="43.96529" lon="3.43196">
        <ele>620</ele>
        <time>2012-01-06T12:16:47Z</time>
        <course>274.398957282629</course>
        <speed>8.32088364906416</speed>
      </trkpt>
      <trkpt lat="43.96535" lon="3.43274">
        <ele>617</ele>
        <time>2012-01-06T12:16:54Z</time>
        <course>260.536223634508</course>
        <speed>8.31351576192218</speed>
      </trkpt>
      <trkpt lat="43.96531" lon="3.43298">
        <ele>616</ele>
        <time>2012-01-06T12:16:57Z</time>
        <course>244.302850273272</course>
        <speed>8.31941710666713</speed>
      </trkpt>
      <trkpt lat="43.96391" lon="3.43589">
        <ele>606</ele>
        <time>2012-01-06T12:17:30Z</time>
        <course>253.512350436745</course>
        <speed>8.31677184689934</speed>
      </trkpt>
      <trkpt lat="43.96362" lon="3.43687">
        <ele>597</ele>
        <time>2012-01-06T12:17:41Z</time>
        <course>262.145175668067</course>
        <speed>8.31578696404033</speed>
      </trkpt>
      <trkpt lat="43.96358" lon="3.43716">
        <ele>595</ele>
        <time>2012-01-06T12:17:43Z</time>
        <course>292.62328108673</course>
        <speed>4.25719107526235</speed>
      </trkpt>
      <trkpt lat="43.96368" lon="3.4374">
        <ele>596</ele>
        <time>2012-01-06T12:17:49Z</time>
        <course>322.70069966919</course>
        <speed>4.25141391695102</speed>
      </trkpt>
      <trkpt lat="43.96389" lon="3.43756">
        <ele>597</ele>
        <time>2012-01-06T12:17:55Z</time>
        <course>352.876167825159</course>
        <speed>4.25024193165536</speed>
      </trkpt>
      <trkpt lat="43.96397" lon="3.43757">
        <ele>597</ele>
        <time>2012-01-06T12:17:57Z</time>
        <course>7.55522263224834</course>
        <speed>4.25322123295217</speed>
      </trkpt>
      <trkpt lat="43.96495" lon="3.43744">
        <ele>603</ele>
        <time>2012-01-06T12:18:23Z</time>
        <course>26.9489604563282</course>
        <speed>8.32103997458125</speed>
      </trkpt>
      <trkpt lat="43.96554" lon="3.43714">
        <ele>599</ele>
        <time>2012-01-06T12:18:31Z</time>
        <course>352.875954715407</course>
        <speed>8.3027962953946</speed>
      </trkpt>
      <trkpt lat="43.9657" lon="3.43716">
        <ele>598</ele>
        <time>2012-01-06T12:18:33Z</time>
        <course>317.730165628163</course>
        <speed>8.29960354683201</speed>
      </trkpt>
      <trkpt lat="43.96581" lon="3.43726">
        <ele>598</ele>
        <time>2012-01-06T12:18:35Z</time>
        <course>297.649056165494</course>
        <speed>8.30901723718271</speed>
      </trkpt>
      <trkpt lat="43.96592" lon="3.43747">
        <ele>597</ele>
        <time>2012-01-06T12:18:38Z</time>
        <course>281.31131290159</course>
        <speed>8.3009230743337</speed>
      </trkpt>
      <trkpt lat="43.96596" lon="3.43767">
        <ele>597</ele>
        <time>2012-01-06T12:18:40Z</time>
        <course>275.389278418638</course>
        <speed>8.31737818312529</speed>
      </trkpt>
      <trkpt lat="43.96611" lon="3.43926">
        <ele>597</ele>
        <time>2012-01-06T12:18:55Z</time>
        <course>295.667701260541</course>
        <speed>3.38731301804746</speed>
      </trkpt>
      <trkpt lat="43.96648" lon="3.44003">
        <ele>602</ele>
        <time>2012-01-06T12:19:17Z</time>
        <course>282.427170156896</course>
        <speed>3.38700852047156</speed>
      </trkpt>
      <trkpt lat="43.96661" lon="3.44062">
        <ele>606</ele>
        <time>2012-01-06T12:19:31Z</time>
        <course>275.782741048429</course>
        <speed>2.95803847502886</speed>
      </trkpt>
      <trkpt lat="43.96669" lon="3.44141">
        <ele>611</ele>
        <time>2012-01-06T12:19:53Z</time>
        <course>269.492403820542</course>
        <speed>2.95752182904244</speed>
      </trkpt>
      <trkpt lat="43.96668" lon="3.44254">
        <ele>620</ele>
        <time>2012-01-06T12:20:23Z</time>
        <course>286.349698461961</course>
        <speed>8.3149743368099</speed>
      </trkpt>
      <trkpt lat="43.9669" lon="3.44329">
        <ele>619</ele>
        <time>2012-01-06T12:20:31Z</time>
        <course>300.966697322628</course>
        <speed>8.3298282656353</speed>
      </trkpt>
      <trkpt lat="43.96696" lon="3.44339">
        <ele>619</ele>
        <time>2012-01-06T12:20:33Z</time>
        <course>340.348269062128</course>
        <speed>8.32255657984262</speed>
      </trkpt>
      <trkpt lat="43.9671" lon="3.44344">
        <ele>618</ele>
        <time>2012-01-06T12:20:34Z</time>
        <course>26.5624281128754</course>
        <speed>8.33621264195672</speed>
      </trkpt>
      <trkpt lat="43.96716" lon="3.44341">
        <ele>618</ele>
        <time>2012-01-06T12:20:35Z</time>
        <course>60.6395272812472</course>
        <speed>8.32860074292582</speed>
      </trkpt>
      <trkpt lat="43.96725" lon="3.44325">
        <ele>618</ele>
        <time>2012-01-06T12:20:37Z</time>
        <course>88.5562239737817</course>
        <speed>8.31713065495877</speed>
      </trkpt>
      <trkpt lat="43.96728" lon="3.44206">
        <ele>617</ele>
        <time>2012-01-06T12:20:49Z</time>
        <course>75.4640986017026</course>
        <speed>8.31595517558289</speed>
      </trkpt>
      <trkpt lat="43.96735" lon="3.44179">
        <ele>617</ele>
        <time>2012-01-06T12:20:51Z</time>
        <course>53.1270765105294</course>
        <speed>8.32483027458636</speed>
      </trkpt>
      <trkpt lat="43.96741" lon="3.44171">
        <ele>617</ele>
        <time>2012-01-06T12:20:53Z</time>
        <course>23.9601638297162</course>
        <speed>2.48227041009946</speed>
      </trkpt>
      <trkpt lat="43.9675" lon="3.44167">
        <ele>618</ele>
        <time>2012-01-06T12:20:57Z</time>
        <course>341.566892815139</course>
        <speed>2.48419879044852</speed>
      </trkpt>
      <trkpt lat="43.96765" lon="3.44172">
        <ele>620</ele>
        <time>2012-01-06T12:21:04Z</time>
        <course>305.540467395192</course>
        <speed>2.48290995920271</speed>
      </trkpt>
      <trkpt lat="43.9678" lon="3.44193">
        <ele>623</ele>
        <time>2012-01-06T12:21:13Z</time>
        <course>295.203277260287</course>
        <speed>2.48382911213356</speed>
      </trkpt>
      <trkpt lat="43.96796" lon="3.44227">
        <ele>626</ele>
        <time>2012-01-06T12:21:26Z</time>
        <course>286.700555373504</course>
        <speed>2.48369818655013</speed>
      </trkpt>
      <trkpt lat="43.96817" lon="3.44297">
        <ele>634</ele>
        <time>2012-01-06T12:21:51Z</time>
        <course>270.690010208478</course>
        <speed>4.55032889428421</speed>
      </trkpt>
      <trkpt lat="43.96818" lon="3.4438">
        <ele>636</ele>
        <time>2012-01-06T12:22:05Z</time>
        <course>277.496440037319</course>
        <speed>4.55000331685007</speed>
      </trkpt>
      <trkpt lat="43.96823" lon="3.44418">
        <ele>638</ele>
        <time>2012-01-06T12:22:12Z</time>
        <course>281.161950840656</course>
        <speed>4.55079660925151</speed>
      </trkpt>
      <trkpt lat="43.96972" lon="3.45173">
        <ele>664</ele>
        <time>2012-01-06T12:24:30Z</time>
        <course>263.088110759318</course>
        <speed>8.31150511523379</speed>
      </trkpt>
      <trkpt lat="43.96968" lon="3.45206">
        <ele>659</ele>
        <time>2012-01-06T12:24:33Z</time>
        <course>243.433020090588</course>
        <speed>8.31710165492889</speed>
      </trkpt>
      <trkpt lat="43.96956" lon="3.4523">
        <ele>655</ele>
        <time>2012-01-06T12:24:36Z</time>
        <course>234.159873666979</course>
        <speed>8.3239506740443</speed>
      </trkpt>
      <trkpt lat="43.96917" lon="3.45284">
        <ele>645</ele>
        <time>2012-01-06T12:24:43Z</time>
        <course>260.536830826766</course>
        <speed>8.34823161998953</speed>
      </trkpt>
      <trkpt lat="43.96915" lon="3.45296">
        <ele>643</ele>
        <time>2012-01-06T12:24:44Z</time>
        <course>282.265711261104</course>
        <speed>8.31815457471457</speed>
      </trkpt>
      <trkpt lat="43.9692" lon="3.45319">
        <ele>641</ele>
        <time>2012-01-06T12:24:47Z</time>
        <course>321.342468897496</course>
        <speed>8.32614119956875</speed>
      </trkpt>
      <trkpt lat="43.96945" lon="3.45339">
        <ele>638</ele>
        <time>2012-01-06T12:24:50Z</time>
        <course>344.055700366155</course>
        <speed>8.31929724153486</speed>
      </trkpt>
      <trkpt lat="43.97022" lon="3.45361">
        <ele>629</ele>
        <time>2012-01-06T12:25:01Z</time>
        <course>349.624808573793</course>
        <speed>8.31528211743819</speed>
      </trkpt>
      <trkpt lat="43.97093" lon="3.45374">
        <ele>627</ele>
        <time>2012-01-06T12:25:10Z</time>
        <course>4.39842875919213</course>
        <speed>8.31478143264085</speed>
      </trkpt>
      <trkpt lat="43.97106" lon="3.45373">
        <ele>627</ele>
        <time>2012-01-06T12:25:12Z</time>
        <course>26.563735640909</course>
        <speed>8.31912447593052</speed>
      </trkpt>
      <trkpt lat="43.97152" lon="3.4535">
        <ele>627</ele>
        <time>2012-01-06T12:25:19Z</time>
        <course>17.35313576506</course>
        <speed>5.3915069660154</speed>
      </trkpt>
      <trkpt lat="43.97184" lon="3.4534">
        <ele>627</ele>
        <time>2012-01-06T12:25:26Z</time>
        <course>6.3398597569045</course>
        <speed>5.39393718948998</speed>
      </trkpt>
      <trkpt lat="43.97202" lon="3.45338">
        <ele>628</ele>
        <time>2012-01-06T12:25:29Z</time>
        <course>348.232286609555</course>
        <speed>5.39337786852848</speed>
      </trkpt>
      <trkpt lat="43.97226" lon="3.45343">
        <ele>629</ele>
        <time>2012-01-06T12:25:34Z</time>
        <course>336.502437126673</course>
        <speed>5.38823576528116</speed>
      </trkpt>
      <trkpt lat="43.97249" lon="3.45353">
        <ele>630</ele>
        <time>2012-01-06T12:25:39Z</time>
        <course>324.783594045417</course>
        <speed>8.32540357105977</speed>
      </trkpt>
      <trkpt lat="43.97283" lon="3.45377">
        <ele>622</ele>
        <time>2012-01-06T12:25:44Z</time>
        <course>297.108893408535</course>
        <speed>8.31832356315612</speed>
      </trkpt>
      <trkpt lat="43.97326" lon="3.45461">
        <ele>607</ele>
        <time>2012-01-06T12:25:54Z</time>
        <course>313.026176446035</course>
        <speed>4.23370609772472</speed>
      </trkpt>
      <trkpt lat="43.9734" lon="3.45476">
        <ele>607</ele>
        <time>2012-01-06T12:25:59Z</time>
        <course>334.231496310173</course>
        <speed>4.23779039454982</speed>
      </trkpt>
      <trkpt lat="43.97369" lon="3.4549">
        <ele>609</ele>
        <time>2012-01-06T12:26:07Z</time>
        <course>318.815072878163</course>
        <speed>4.23598629153745</speed>
      </trkpt>
      <trkpt lat="43.97385" lon="3.45504">
        <ele>610</ele>
        <time>2012-01-06T12:26:12Z</time>
        <course>295.560695104073</course>
        <speed>4.23874701369927</speed>
      </trkpt>
      <trkpt lat="43.97396" lon="3.45527">
        <ele>611</ele>
        <time>2012-01-06T12:26:17Z</time>
        <course>276.709985699457</course>
        <speed>4.2384715037904</speed>
      </trkpt>
      <trkpt lat="43.974" lon="3.45561">
        <ele>613</ele>
        <time>2012-01-06T12:26:24Z</time>
        <course>250.276954324559</course>
        <speed>8.32172500925885</speed>
      </trkpt>
      <trkpt lat="43.97381" lon="3.45614">
        <ele>607</ele>
        <time>2012-01-06T12:26:29Z</time>
        <course>261.118946280439</course>
        <speed>8.31304044139365</speed>
      </trkpt>
      <trkpt lat="43.97376" lon="3.45646">
        <ele>604</ele>
        <time>2012-01-06T12:26:32Z</time>
        <course>283.392860418527</course>
        <speed>8.32403422130601</speed>
      </trkpt>
      <trkpt lat="43.97386" lon="3.45688">
        <ele>600</ele>
        <time>2012-01-06T12:26:37Z</time>
        <course>289.385010376051</course>
        <speed>8.31620997813116</speed>
      </trkpt>
      <trkpt lat="43.97405" lon="3.45742">
        <ele>598</ele>
        <time>2012-01-06T12:26:42Z</time>
        <course>264.173343989905</course>
        <speed>8.31434208781854</speed>
      </trkpt>
      <trkpt lat="43.974" lon="3.45791">
        <ele>598</ele>
        <time>2012-01-06T12:26:47Z</time>
        <course>269.181349882737</course>
        <speed>8.31926798295398</speed>
      </trkpt>
      <trkpt lat="43.97399" lon="3.45861">
        <ele>597</ele>
        <time>2012-01-06T12:26:54Z</time>
        <course>261.157775242455</course>
        <speed>8.31077168039971</speed>
      </trkpt>
      <trkpt lat="43.97392" lon="3.45906">
        <ele>593</ele>
        <time>2012-01-06T12:26:58Z</time>
        <course>270.753692434268</course>
        <speed>8.31545260916407</speed>
      </trkpt>
      <trkpt lat="43.97393" lon="3.45982">
        <ele>586</ele>
        <time>2012-01-06T12:27:06Z</time>
        <course>275.710478655293</course>
        <speed>8.31674592296051</speed>
      </trkpt>
      <trkpt lat="43.97406" lon="3.46112">
        <ele>576</ele>
        <time>2012-01-06T12:27:18Z</time>
        <course>286.887189112215</course>
        <speed>5.2487301251491</speed>
      </trkpt>
      <trkpt lat="43.97423" lon="3.46168">
        <ele>577</ele>
        <time>2012-01-06T12:27:28Z</time>
        <course>306.870767475764</course>
        <speed>5.25002753860132</speed>
      </trkpt>
      <trkpt lat="43.97429" lon="3.46176">
        <ele>577</ele>
        <time>2012-01-06T12:27:29Z</time>
        <course>320.195295937894</course>
        <speed>5.25285555134335</speed>
      </trkpt>
      <trkpt lat="43.97441" lon="3.46186">
        <ele>578</ele>
        <time>2012-01-06T12:27:32Z</time>
        <course>9.86552374982053</course>
        <speed>5.24582291948287</speed>
      </trkpt>
      <trkpt lat="43.97464" lon="3.46182">
        <ele>578</ele>
        <time>2012-01-06T12:27:37Z</time>
        <course>44.2553449033371</course>
        <speed>5.25088285480345</speed>
      </trkpt>
      <trkpt lat="43.97542" lon="3.46106">
        <ele>582</ele>
        <time>2012-01-06T12:27:57Z</time>
        <course>23.56504122802</course>
        <speed>8.31895100671478</speed>
      </trkpt>
      <trkpt lat="43.97636" lon="3.46065">
        <ele>575</ele>
        <time>2012-01-06T12:28:10Z</time>
        <course>32.7348681954478</course>
        <speed>8.32079097187656</speed>
      </trkpt>
      <trkpt lat="43.97692" lon="3.46029">
        <ele>575</ele>
        <time>2012-01-06T12:28:19Z</time>
        <course>345.379310684308</course>
        <speed>8.30800045166721</speed>
      </trkpt>
      <trkpt lat="43.97715" lon="3.46035">
        <ele>575</ele>
        <time>2012-01-06T12:28:22Z</time>
        <course>305.537982247596</course>
        <speed>8.32373622218503</speed>
      </trkpt>
      <trkpt lat="43.97735" lon="3.46063">
        <ele>575</ele>
        <time>2012-01-06T12:28:26Z</time>
        <course>284.743706822951</course>
        <speed>8.33870931759539</speed>
      </trkpt>
      <trkpt lat="43.9774" lon="3.46082">
        <ele>573</ele>
        <time>2012-01-06T12:28:28Z</time>
        <course>264.805493578549</course>
        <speed>8.28588303084981</speed>
      </trkpt>
      <trkpt lat="43.97739" lon="3.46093">
        <ele>572</ele>
        <time>2012-01-06T12:28:29Z</time>
        <course>255.801156471162</course>
        <speed>8.31590663998368</speed>
      </trkpt>
      <trkpt lat="43.97718" lon="3.46176">
        <ele>565</ele>
        <time>2012-01-06T12:28:37Z</time>
        <course>252.058945448773</course>
        <speed>8.31848528057771</speed>
      </trkpt>
      <trkpt lat="43.97639" lon="3.4642">
        <ele>544</ele>
        <time>2012-01-06T12:29:03Z</time>
        <course>255.514804798133</course>
        <speed>8.31596311921012</speed>
      </trkpt>
      <trkpt lat="43.97608" lon="3.4654">
        <ele>535</ele>
        <time>2012-01-06T12:29:15Z</time>
        <course>266.347538184352</course>
        <speed>8.32000930461537</speed>
      </trkpt>
      <trkpt lat="43.97602" lon="3.46634">
        <ele>530</ele>
        <time>2012-01-06T12:29:24Z</time>
        <course>276.709936841991</course>
        <speed>8.29793327643693</speed>
      </trkpt>
      <trkpt lat="43.97604" lon="3.46651">
        <ele>530</ele>
        <time>2012-01-06T12:29:26Z</time>
        <course>292.890861654299</course>
        <speed>8.31091001832049</speed>
      </trkpt>
      <trkpt lat="43.97623" lon="3.46696">
        <ele>528</ele>
        <time>2012-01-06T12:29:31Z</time>
        <course>307.476618211509</course>
        <speed>7.41070017301533</speed>
      </trkpt>
      <trkpt lat="43.97646" lon="3.46726">
        <ele>528</ele>
        <time>2012-01-06T12:29:36Z</time>
        <course>341.147096395399</course>
        <speed>7.39976171847934</speed>
      </trkpt>
      <trkpt lat="43.97687" lon="3.4674">
        <ele>528</ele>
        <time>2012-01-06T12:29:42Z</time>
        <course>12.699449961936</course>
        <speed>7.40740181832031</speed>
      </trkpt>
      <trkpt lat="43.97758" lon="3.46724">
        <ele>529</ele>
        <time>2012-01-06T12:29:53Z</time>
        <course>5.61753393312915</course>
        <speed>8.31735417052461</speed>
      </trkpt>
      <trkpt lat="43.97819" lon="3.46718">
        <ele>523</ele>
        <time>2012-01-06T12:30:01Z</time>
        <course>332.844311843764</course>
        <speed>8.31896527127222</speed>
      </trkpt>
      <trkpt lat="43.98012" lon="3.46817">
        <ele>507</ele>
        <time>2012-01-06T12:30:28Z</time>
        <course>343.810819823149</course>
        <speed>4.64872772597168</speed>
      </trkpt>
      <trkpt lat="43.98043" lon="3.46826">
        <ele>508</ele>
        <time>2012-01-06T12:30:36Z</time>
        <course>357.20729884619</course>
        <speed>4.64701914126383</speed>
      </trkpt>
      <trkpt lat="43.98125" lon="3.4683">
        <ele>512</ele>
        <time>2012-01-06T12:30:56Z</time>
        <course>315.00001262724</course>
        <speed>8.33290248056469</speed>
      </trkpt>
      <trkpt lat="43.98132" lon="3.46837">
        <ele>511</ele>
        <time>2012-01-06T12:30:57Z</time>
        <course>288.434951599116</course>
        <speed>8.30457457999518</speed>
      </trkpt>
      <trkpt lat="43.98138" lon="3.46855">
        <ele>510</ele>
        <time>2012-01-06T12:30:59Z</time>
        <course>258.69005594782</course>
        <speed>8.33225211717214</speed>
      </trkpt>
      <trkpt lat="43.98133" lon="3.4688">
        <ele>508</ele>
        <time>2012-01-06T12:31:01Z</time>
        <course>216.384332206775</course>
        <speed>8.32642998547579</speed>
      </trkpt>
      <trkpt lat="43.98114" lon="3.46894">
        <ele>507</ele>
        <time>2012-01-06T12:31:04Z</time>
        <course>198.853111290582</course>
        <speed>8.31814107051861</speed>
      </trkpt>
      <trkpt lat="43.97991" lon="3.46936">
        <ele>498</ele>
        <time>2012-01-06T12:31:21Z</time>
        <course>191.560071653841</course>
        <speed>8.31979473869344</speed>
      </trkpt>
      <trkpt lat="43.97903" lon="3.46954">
        <ele>486</ele>
        <time>2012-01-06T12:31:33Z</time>
        <course>202.405210046263</course>
        <speed>8.32078962415496</speed>
      </trkpt>
      <trkpt lat="43.97789" lon="3.47001">
        <ele>471</ele>
        <time>2012-01-06T12:31:49Z</time>
        <course>221.185592699409</course>
        <speed>8.3208293852968</speed>
      </trkpt>
      <trkpt lat="43.97757" lon="3.47029">
        <ele>469</ele>
        <time>2012-01-06T12:31:54Z</time>
        <course>253.610236312114</course>
        <speed>8.32031264287095</speed>
      </trkpt>
      <trkpt lat="43.97747" lon="3.47063">
        <ele>468</ele>
        <time>2012-01-06T12:31:57Z</time>
        <course>267.95452890356</course>
        <speed>8.33357145090598</speed>
      </trkpt>
      <trkpt lat="43.97746" lon="3.47091">
        <ele>467</ele>
        <time>2012-01-06T12:32:00Z</time>
        <course>290.225018490659</course>
        <speed>8.32606770495725</speed>
      </trkpt>
      <trkpt lat="43.9776" lon="3.47129">
        <ele>466</ele>
        <time>2012-01-06T12:32:04Z</time>
        <course>297.128145229799</course>
        <speed>8.3168501600412</speed>
      </trkpt>
      <trkpt lat="43.97843" lon="3.47291">
        <ele>462</ele>
        <time>2012-01-06T12:32:23Z</time>
        <course>308.991140513399</course>
        <speed>8.31409633216313</speed>
      </trkpt>
      <trkpt lat="43.97877" lon="3.47333">
        <ele>460</ele>
        <time>2012-01-06T12:32:29Z</time>
        <course>289.536732796283</course>
        <speed>8.32468066839656</speed>
      </trkpt>
      <trkpt lat="43.97888" lon="3.47364">
        <ele>458</ele>
        <time>2012-01-06T12:32:33Z</time>
        <course>264.644080301394</course>
        <speed>8.32384773608928</speed>
      </trkpt>
      <trkpt lat="43.97882" lon="3.47428">
        <ele>457</ele>
        <time>2012-01-06T12:32:39Z</time>
        <course>276.340166667186</course>
        <speed>8.3152924156592</speed>
      </trkpt>
      <trkpt lat="43.97889" lon="3.47491">
        <ele>453</ele>
        <time>2012-01-06T12:32:45Z</time>
        <course>258.439758847428</course>
        <speed>8.31291672907272</speed>
      </trkpt>
      <trkpt lat="43.9788" lon="3.47535">
        <ele>451</ele>
        <time>2012-01-06T12:32:49Z</time>
        <course>251.965514355289</course>
        <speed>8.32175372974858</speed>
      </trkpt>
      <trkpt lat="43.97852" lon="3.47621">
        <ele>446</ele>
        <time>2012-01-06T12:32:58Z</time>
        <course>265.710772548263</course>
        <speed>8.30957334711534</speed>
      </trkpt>
      <trkpt lat="43.97849" lon="3.47661">
        <ele>443</ele>
        <time>2012-01-06T12:33:02Z</time>
        <course>281.309950633195</course>
        <speed>8.31440482088212</speed>
      </trkpt>
      <trkpt lat="43.9786" lon="3.47716">
        <ele>439</ele>
        <time>2012-01-06T12:33:08Z</time>
        <course>272.489545531749</course>
        <speed>8.33699816089372</speed>
      </trkpt>
      <trkpt lat="43.97861" lon="3.47739">
        <ele>438</ele>
        <time>2012-01-06T12:33:10Z</time>
        <course>251.564852495889</course>
        <speed>8.31815788695791</speed>
      </trkpt>
      <trkpt lat="43.97838" lon="3.47808">
        <ele>433</ele>
        <time>2012-01-06T12:33:17Z</time>
        <course>271.363890874195</course>
        <speed>5.49060171829564</speed>
      </trkpt>
      <trkpt lat="43.97839" lon="3.4785">
        <ele>433</ele>
        <time>2012-01-06T12:33:23Z</time>
        <course>280.203936300427</course>
        <speed>5.4877270577344</speed>
      </trkpt>
      <trkpt lat="43.97857" lon="3.4795">
        <ele>436</ele>
        <time>2012-01-06T12:33:38Z</time>
        <course>275.710525672558</course>
        <speed>8.31413403101626</speed>
      </trkpt>
      <trkpt lat="43.97867" lon="3.4805">
        <ele>430</ele>
        <time>2012-01-06T12:33:48Z</time>
        <course>263.490677679548</course>
        <speed>8.31942317992497</speed>
      </trkpt>
      <trkpt lat="43.97833" lon="3.48348">
        <ele>415</ele>
        <time>2012-01-06T12:34:17Z</time>
        <course>273.945184117353</course>
        <speed>8.3197479244596</speed>
      </trkpt>
      <trkpt lat="43.97835" lon="3.48377">
        <ele>414</ele>
        <time>2012-01-06T12:34:20Z</time>
        <course>281.842093502393</course>
        <speed>8.31533323132827</speed>
      </trkpt>
      <trkpt lat="43.97848" lon="3.48439">
        <ele>413</ele>
        <time>2012-01-06T12:34:26Z</time>
        <course>260.059245135507</course>
        <speed>8.31567721445026</speed>
      </trkpt>
      <trkpt lat="43.97831" lon="3.48536">
        <ele>412</ele>
        <time>2012-01-06T12:34:36Z</time>
        <course>266.185843181377</course>
        <speed>8.32652351982604</speed>
      </trkpt>
      <trkpt lat="43.97828" lon="3.48581">
        <ele>411</ele>
        <time>2012-01-06T12:34:40Z</time>
        <course>277.696027106309</course>
        <speed>8.31579793037497</speed>
      </trkpt>
      <trkpt lat="43.97838" lon="3.48655">
        <ele>409</ele>
        <time>2012-01-06T12:34:47Z</time>
        <course>271.527369283181</course>
        <speed>8.31777740717489</speed>
      </trkpt>
      <trkpt lat="43.97842" lon="3.48805">
        <ele>407</ele>
        <time>2012-01-06T12:35:02Z</time>
        <course>261.192893151168</course>
        <speed>8.32008124832449</speed>
      </trkpt>
      <trkpt lat="43.97809" lon="3.49018">
        <ele>396</ele>
        <time>2012-01-06T12:35:23Z</time>
        <course>257.600045086238</course>
        <speed>8.31985533546857</speed>
      </trkpt>
      <trkpt lat="43.97778" lon="3.49159">
        <ele>390</ele>
        <time>2012-01-06T12:35:37Z</time>
        <course>254.1805682766</course>
        <speed>8.31657893830843</speed>
      </trkpt>
      <trkpt lat="43.97761" lon="3.49219">
        <ele>387</ele>
        <time>2012-01-06T12:35:43Z</time>
        <course>258.588740344473</course>
        <speed>8.32017263217173</speed>
      </trkpt>
      <trkpt lat="43.97739" lon="3.49328">
        <ele>384</ele>
        <time>2012-01-06T12:35:54Z</time>
        <course>264.780374349047</course>
        <speed>8.31641768063924</speed>
      </trkpt>
      <trkpt lat="43.9772" lon="3.49536">
        <ele>371</ele>
        <time>2012-01-06T12:36:14Z</time>
        <course>267.273530385639</course>
        <speed>8.32094853842195</speed>
      </trkpt>
      <trkpt lat="43.97716" lon="3.4962">
        <ele>363</ele>
        <time>2012-01-06T12:36:22Z</time>
        <course>245.771902175041</course>
        <speed>8.30936931535993</speed>
      </trkpt>
      <trkpt lat="43.97698" lon="3.4966">
        <ele>360</ele>
        <time>2012-01-06T12:36:27Z</time>
        <course>234.11727754599</course>
        <speed>4.75597151228161</speed>
      </trkpt>
      <trkpt lat="43.9763" lon="3.49754">
        <ele>364</ele>
        <time>2012-01-06T12:36:49Z</time>
        <course>246.279091093627</course>
        <speed>8.32264937574331</speed>
      </trkpt>
      <trkpt lat="43.97601" lon="3.4982">
        <ele>363</ele>
        <time>2012-01-06T12:36:57Z</time>
        <course>259.58151905548</course>
        <speed>8.31682045704261</speed>
      </trkpt>
      <trkpt lat="43.9756" lon="3.50043">
        <ele>362</ele>
        <time>2012-01-06T12:37:19Z</time>
        <course>272.385905316903</course>
        <speed>8.32205879175935</speed>
      </trkpt>
      <trkpt lat="43.97562" lon="3.50091">
        <ele>360</ele>
        <time>2012-01-06T12:37:23Z</time>
        <course>279.757872009058</course>
        <speed>8.31709296054617</speed>
      </trkpt>
      <trkpt lat="43.97589" lon="3.50248">
        <ele>354</ele>
        <time>2012-01-06T12:37:39Z</time>
        <course>272.489519454181</course>
        <speed>5.94374265913258</speed>
      </trkpt>
      <trkpt lat="43.97591" lon="3.50294">
        <ele>354</ele>
        <time>2012-01-06T12:37:45Z</time>
        <course>267.101218951311</course>
        <speed>5.94637832890195</speed>
      </trkpt>
      <trkpt lat="43.97587" lon="3.50373">
        <ele>356</ele>
        <time>2012-01-06T12:37:56Z</time>
        <course>276.20348956848</course>
        <speed>8.32245306931467</speed>
      </trkpt>
      <trkpt lat="43.97592" lon="3.50419">
        <ele>355</ele>
        <time>2012-01-06T12:38:00Z</time>
        <course>269.999928750642</course>
        <speed>8.31640916980493</speed>
      </trkpt>
      <trkpt lat="43.97592" lon="3.50458">
        <ele>355</ele>
        <time>2012-01-06T12:38:04Z</time>
        <course>265.135038298639</course>
        <speed>8.3177449107797</speed>
      </trkpt>
      <trkpt lat="43.97576" lon="3.50646">
        <ele>354</ele>
        <time>2012-01-06T12:38:22Z</time>
        <course>260.166084507999</course>
        <speed>8.31395034707933</speed>
      </trkpt>
      <trkpt lat="43.97563" lon="3.50721">
        <ele>350</ele>
        <time>2012-01-06T12:38:29Z</time>
        <course>243.434342172103</course>
        <speed>8.31231803781631</speed>
      </trkpt>
      <trkpt lat="43.97542" lon="3.50763">
        <ele>349</ele>
        <time>2012-01-06T12:38:34Z</time>
        <course>249.813606428661</course>
        <speed>8.31910579605536</speed>
      </trkpt>
      <trkpt lat="43.97517" lon="3.50831">
        <ele>347</ele>
        <time>2012-01-06T12:38:42Z</time>
        <course>253.768880220622</course>
        <speed>8.31847149314195</speed>
      </trkpt>
      <trkpt lat="43.97432" lon="3.51123">
        <ele>342</ele>
        <time>2012-01-06T12:39:12Z</time>
        <course>239.655837523874</course>
        <speed>5.39763017276113</speed>
      </trkpt>
      <trkpt lat="43.97408" lon="3.51164">
        <ele>343</ele>
        <time>2012-01-06T12:39:20Z</time>
        <course>226.331176582271</course>
        <speed>5.40185581778465</speed>
      </trkpt>
      <trkpt lat="43.97387" lon="3.51186">
        <ele>343</ele>
        <time>2012-01-06T12:39:25Z</time>
        <course>217.475011902686</course>
        <speed>5.3966543089008</speed>
      </trkpt>
      <trkpt lat="43.97327" lon="3.51232">
        <ele>346</ele>
        <time>2012-01-06T12:39:39Z</time>
        <course>215.438446812367</course>
        <speed>8.31820356271703</speed>
      </trkpt>
      <trkpt lat="43.97216" lon="3.51311">
        <ele>344</ele>
        <time>2012-01-06T12:39:56Z</time>
        <course>206.173969543575</course>
        <speed>8.31840185746668</speed>
      </trkpt>
      <trkpt lat="43.97157" lon="3.5134">
        <ele>341</ele>
        <time>2012-01-06T12:40:04Z</time>
        <course>196.25923469096</course>
        <speed>8.32061166084151</speed>
      </trkpt>
      <trkpt lat="43.97109" lon="3.51354">
        <ele>339</ele>
        <time>2012-01-06T12:40:11Z</time>
        <course>202.872043807552</course>
        <speed>8.31813732943931</speed>
      </trkpt>
      <trkpt lat="43.96981" lon="3.51408">
        <ele>335</ele>
        <time>2012-01-06T12:40:29Z</time>
        <course>209.647706649127</course>
        <speed>8.32135656968068</speed>
      </trkpt>
      <trkpt lat="43.96916" lon="3.51445">
        <ele>333</ele>
        <time>2012-01-06T12:40:38Z</time>
        <course>231.337674785572</course>
        <speed>8.33283074985855</speed>
      </trkpt>
      <trkpt lat="43.969" lon="3.51465">
        <ele>333</ele>
        <time>2012-01-06T12:40:41Z</time>
        <course>239.377956171827</course>
        <speed>8.31738553123862</speed>
      </trkpt>
      <trkpt lat="43.96755" lon="3.5171">
        <ele>333</ele>
        <time>2012-01-06T12:41:12Z</time>
        <course>219.286045550327</course>
        <speed>8.31482793887693</speed>
      </trkpt>
      <trkpt lat="43.967" lon="3.51755">
        <ele>329</ele>
        <time>2012-01-06T12:41:20Z</time>
        <course>232.370233682131</course>
        <speed>8.32109881447698</speed>
      </trkpt>
      <trkpt lat="43.96663" lon="3.51803">
        <ele>326</ele>
        <time>2012-01-06T12:41:27Z</time>
        <course>246.568585187041</course>
        <speed>5.18637421585111</speed>
      </trkpt>
      <trkpt lat="43.9665" lon="3.51833">
        <ele>326</ele>
        <time>2012-01-06T12:41:32Z</time>
        <course>266.185314201083</course>
        <speed>5.18196914942124</speed>
      </trkpt>
      <trkpt lat="43.96648" lon="3.51863">
        <ele>327</ele>
        <time>2012-01-06T12:41:37Z</time>
        <course>278.97364273295</course>
        <speed>5.18573663740729</speed>
      </trkpt>
      <trkpt lat="43.96651" lon="3.51882">
        <ele>328</ele>
        <time>2012-01-06T12:41:40Z</time>
        <course>293.501056413504</course>
        <speed>5.1784865279452</speed>
      </trkpt>
      <trkpt lat="43.96661" lon="3.51905">
        <ele>328</ele>
        <time>2012-01-06T12:41:44Z</time>
        <course>306.38715015558</course>
        <speed>5.18275090762438</speed>
      </trkpt>
      <trkpt lat="43.96731" lon="3.52">
        <ele>332</ele>
        <time>2012-01-06T12:42:05Z</time>
        <course>294.104443679154</course>
        <speed>8.32179590503328</speed>
      </trkpt>
      <trkpt lat="43.96748" lon="3.52038">
        <ele>329</ele>
        <time>2012-01-06T12:42:09Z</time>
        <course>271.789971053918</course>
        <speed>8.3171097427726</speed>
      </trkpt>
      <trkpt lat="43.96749" lon="3.5207">
        <ele>327</ele>
        <time>2012-01-06T12:42:12Z</time>
        <course>257.150678842254</course>
        <speed>8.31667249565742</speed>
      </trkpt>
      <trkpt lat="43.96736" lon="3.52127">
        <ele>324</ele>
        <time>2012-01-06T12:42:18Z</time>
        <course>267.273205084917</course>
        <speed>8.3120454523287</speed>
      </trkpt>
      <trkpt lat="43.96734" lon="3.52169">
        <ele>323</ele>
        <time>2012-01-06T12:42:22Z</time>
        <course>276.106809267774</course>
        <speed>8.31835308026889</speed>
      </trkpt>
      <trkpt lat="43.9676" lon="3.52412">
        <ele>321</ele>
        <time>2012-01-06T12:42:46Z</time>
        <course>280.886335778088</course>
        <speed>8.32089362757523</speed>
      </trkpt>
      <trkpt lat="43.96775" lon="3.5249">
        <ele>320</ele>
        <time>2012-01-06T12:42:54Z</time>
        <course>287.448764050355</course>
        <speed>8.32265233460811</speed>
      </trkpt>
      <trkpt lat="43.96786" lon="3.52525">
        <ele>320</ele>
        <time>2012-01-06T12:42:57Z</time>
        <course>309.096689141741</course>
        <speed>8.3181619933698</speed>
      </trkpt>
      <trkpt lat="43.96799" lon="3.52541">
        <ele>320</ele>
        <time>2012-01-06T12:43:00Z</time>
        <course>334.801076205245</course>
        <speed>3.64615903011441</speed>
      </trkpt>
      <trkpt lat="43.96816" lon="3.52549">
        <ele>321</ele>
        <time>2012-01-06T12:43:05Z</time>
        <course>1.30183062967108</course>
        <speed>3.64648325922711</speed>
      </trkpt>
      <trkpt lat="43.9686" lon="3.52548">
        <ele>324</ele>
        <time>2012-01-06T12:43:18Z</time>
        <course>339.625224050157</course>
        <speed>3.64652845610049</speed>
      </trkpt>
      <trkpt lat="43.96895" lon="3.52561">
        <ele>327</ele>
        <time>2012-01-06T12:43:29Z</time>
        <course>322.831112064924</course>
        <speed>8.3174172199385</speed>
      </trkpt>
      <trkpt lat="43.96986" lon="3.5263">
        <ele>323</ele>
        <time>2012-01-06T12:43:43Z</time>
        <course>299.983442262715</course>
        <speed>8.32785232552851</speed>
      </trkpt>
      <trkpt lat="43.97001" lon="3.52656">
        <ele>321</ele>
        <time>2012-01-06T12:43:47Z</time>
        <course>289.654975843648</course>
        <speed>8.31881281571113</speed>
      </trkpt>
      <trkpt lat="43.97021" lon="3.52712">
        <ele>318</ele>
        <time>2012-01-06T12:43:53Z</time>
        <course>307.748684860869</course>
        <speed>8.31329238837049</speed>
      </trkpt>
      <trkpt lat="43.97045" lon="3.52743">
        <ele>316</ele>
        <time>2012-01-06T12:43:57Z</time>
        <course>332.527135905718</course>
        <speed>6.06578065427392</speed>
      </trkpt>
      <trkpt lat="43.9707" lon="3.52756">
        <ele>316</ele>
        <time>2012-01-06T12:44:02Z</time>
        <course>345.038613298381</course>
        <speed>6.06289169850585</speed>
      </trkpt>
      <trkpt lat="43.97186" lon="3.52787">
        <ele>319</ele>
        <time>2012-01-06T12:44:23Z</time>
        <course>325.306262069692</course>
        <speed>8.31923616984643</speed>
      </trkpt>
      <trkpt lat="43.97199" lon="3.52796">
        <ele>318</ele>
        <time>2012-01-06T12:44:25Z</time>
        <course>289.984011665441</course>
        <speed>8.31724897497098</speed>
      </trkpt>
      <trkpt lat="43.97207" lon="3.52818">
        <ele>317</ele>
        <time>2012-01-06T12:44:28Z</time>
        <course>268.925304443113</course>
        <speed>8.31686173264398</speed>
      </trkpt>
      <trkpt lat="43.97204" lon="3.52978">
        <ele>312</ele>
        <time>2012-01-06T12:44:43Z</time>
        <course>261.253306476137</course>
        <speed>8.30553320952276</speed>
      </trkpt>
      <trkpt lat="43.972" lon="3.53004">
        <ele>312</ele>
        <time>2012-01-06T12:44:46Z</time>
        <course>235.006473960777</course>
        <speed>8.32539093337515</speed>
      </trkpt>
      <trkpt lat="43.97186" lon="3.53024">
        <ele>312</ele>
        <time>2012-01-06T12:44:48Z</time>
        <course>187.650184701997</course>
        <speed>8.32007710835653</speed>
      </trkpt>
      <trkpt lat="43.97119" lon="3.53033">
        <ele>312</ele>
        <time>2012-01-06T12:44:57Z</time>
        <course>212.003739803882</course>
        <speed>5.11679827219445</speed>
      </trkpt>
      <trkpt lat="43.97103" lon="3.53043">
        <ele>312</ele>
        <time>2012-01-06T12:45:01Z</time>
        <course>247.618521518719</course>
        <speed>5.11867932115873</speed>
      </trkpt>
      <trkpt lat="43.97096" lon="3.5306">
        <ele>313</ele>
        <time>2012-01-06T12:45:04Z</time>
        <course>263.167922504163</course>
        <speed>5.11028581870913</speed>
      </trkpt>
      <trkpt lat="43.97073" lon="3.53252">
        <ele>318</ele>
        <time>2012-01-06T12:45:35Z</time>
        <course>244.883566294578</course>
        <speed>8.3217095230942</speed>
      </trkpt>
      <trkpt lat="43.97058" lon="3.53284">
        <ele>316</ele>
        <time>2012-01-06T12:45:38Z</time>
        <course>236.307823787928</course>
        <speed>8.31764520662083</speed>
      </trkpt>
      <trkpt lat="43.97014" lon="3.5335">
        <ele>312</ele>
        <time>2012-01-06T12:45:47Z</time>
        <course>247.283906508943</course>
        <speed>4.63124149876329</speed>
      </trkpt>
      <trkpt lat="43.96996" lon="3.53393">
        <ele>313</ele>
        <time>2012-01-06T12:45:56Z</time>
        <course>264.427234351233</course>
        <speed>4.63431876102046</speed>
      </trkpt>
      <trkpt lat="43.96992" lon="3.53434">
        <ele>314</ele>
        <time>2012-01-06T12:46:03Z</time>
        <course>278.972959108417</course>
        <speed>4.6326192136368</speed>
      </trkpt>
      <trkpt lat="43.97007" lon="3.53529">
        <ele>318</ele>
        <time>2012-01-06T12:46:20Z</time>
        <course>273.468371947652</course>
        <speed>8.32849366272984</speed>
      </trkpt>
      <trkpt lat="43.97009" lon="3.53562">
        <ele>317</ele>
        <time>2012-01-06T12:46:23Z</time>
        <course>264.919856856278</course>
        <speed>8.31684690538085</speed>
      </trkpt>
      <trkpt lat="43.97005" lon="3.53607">
        <ele>316</ele>
        <time>2012-01-06T12:46:27Z</time>
        <course>252.580606047007</course>
        <speed>8.3164688317697</speed>
      </trkpt>
      <trkpt lat="43.96989" lon="3.53658">
        <ele>315</ele>
        <time>2012-01-06T12:46:32Z</time>
        <course>241.667190559951</course>
        <speed>8.32098106209881</speed>
      </trkpt>
      <trkpt lat="43.96927" lon="3.53773">
        <ele>307</ele>
        <time>2012-01-06T12:46:46Z</time>
        <course>259.379340381196</course>
        <speed>4.78228664218918</speed>
      </trkpt>
      <trkpt lat="43.96921" lon="3.53805">
        <ele>307</ele>
        <time>2012-01-06T12:46:52Z</time>
        <course>268.754356526523</course>
        <speed>4.77987728474734</speed>
      </trkpt>
      <trkpt lat="43.9692" lon="3.53851">
        <ele>309</ele>
        <time>2012-01-06T12:47:00Z</time>
        <course>280.492148131725</course>
        <speed>4.77951545623158</speed>
      </trkpt>
      <trkpt lat="43.9693" lon="3.53905">
        <ele>311</ele>
        <time>2012-01-06T12:47:09Z</time>
        <course>289.058972632495</course>
        <speed>8.3118255034381</speed>
      </trkpt>
      <trkpt lat="43.96949" lon="3.5396">
        <ele>311</ele>
        <time>2012-01-06T12:47:15Z</time>
        <course>298.572223417154</course>
        <speed>8.31603497827914</speed>
      </trkpt>
      <trkpt lat="43.97004" lon="3.54061">
        <ele>311</ele>
        <time>2012-01-06T12:47:27Z</time>
        <course>289.349312941867</course>
        <speed>6.19720100731973</speed>
      </trkpt>
      <trkpt lat="43.9705" lon="3.54192">
        <ele>313</ele>
        <time>2012-01-06T12:47:46Z</time>
        <course>280.713722187172</course>
        <speed>8.31391257248153</speed>
      </trkpt>
      <trkpt lat="43.97057" lon="3.54229">
        <ele>313</ele>
        <time>2012-01-06T12:47:49Z</time>
        <course>272.815544741009</course>
        <speed>8.31583137193348</speed>
      </trkpt>
      <trkpt lat="43.9706" lon="3.5429">
        <ele>313</ele>
        <time>2012-01-06T12:47:55Z</time>
        <course>268.682413497246</course>
        <speed>8.31681028555905</speed>
      </trkpt>
      <trkpt lat="43.97056" lon="3.54464">
        <ele>313</ele>
        <time>2012-01-06T12:48:12Z</time>
        <course>258.565239277364</course>
        <speed>8.31640039316454</speed>
      </trkpt>
      <trkpt lat="43.97038" lon="3.54553">
        <ele>309</ele>
        <time>2012-01-06T12:48:21Z</time>
        <course>253.958680375957</course>
        <speed>8.32057726062055</speed>
      </trkpt>
      <trkpt lat="43.97015" lon="3.54633">
        <ele>307</ele>
        <time>2012-01-06T12:48:29Z</time>
        <course>272.361210941564</course>
        <speed>8.31919194852766</speed>
      </trkpt>
      <trkpt lat="43.97019" lon="3.5473">
        <ele>302</ele>
        <time>2012-01-06T12:48:39Z</time>
        <course>268.890568380055</course>
        <speed>8.31678676326671</speed>
      </trkpt>
      <trkpt lat="43.97016" lon="3.54885">
        <ele>296</ele>
        <time>2012-01-06T12:48:53Z</time>
        <course>281.88937140188</course>
        <speed>2.76053287451717</speed>
      </trkpt>
      <trkpt lat="43.97024" lon="3.54923">
        <ele>299</ele>
        <time>2012-01-06T12:49:05Z</time>
        <course>302.382202110004</course>
        <speed>2.76153959023456</speed>
      </trkpt>
      <trkpt lat="43.97076" lon="3.55005">
        <ele>308</ele>
        <time>2012-01-06T12:49:37Z</time>
        <course>291.105908121161</course>
        <speed>8.31602477785604</speed>
      </trkpt>
      <trkpt lat="43.97098" lon="3.55062">
        <ele>307</ele>
        <time>2012-01-06T12:49:43Z</time>
        <course>281.31037004589</course>
        <speed>8.32106150922489</speed>
      </trkpt>
      <trkpt lat="43.97114" lon="3.55142">
        <ele>306</ele>
        <time>2012-01-06T12:49:51Z</time>
        <course>278.606401712524</course>
        <speed>8.32052313239966</speed>
      </trkpt>
      <trkpt lat="43.97142" lon="3.55327">
        <ele>304</ele>
        <time>2012-01-06T12:50:09Z</time>
        <course>267.797190502819</course>
        <speed>8.32890857399907</speed>
      </trkpt>
      <trkpt lat="43.97141" lon="3.55353">
        <ele>301</ele>
        <time>2012-01-06T12:50:11Z</time>
        <course>249.675662528579</course>
        <speed>8.31638789219042</speed>
      </trkpt>
      <trkpt lat="43.97131" lon="3.5538">
        <ele>299</ele>
        <time>2012-01-06T12:50:14Z</time>
        <course>233.308399869615</course>
        <speed>8.3153929570858</speed>
      </trkpt>
      <trkpt lat="43.97093" lon="3.55431">
        <ele>293</ele>
        <time>2012-01-06T12:50:21Z</time>
        <course>244.720709124678</course>
        <speed>8.31743587159376</speed>
      </trkpt>
      <trkpt lat="43.97076" lon="3.55467">
        <ele>290</ele>
        <time>2012-01-06T12:50:26Z</time>
        <course>254.527291385273</course>
        <speed>8.31585608031242</speed>
      </trkpt>
      <trkpt lat="43.97045" lon="3.55579">
        <ele>288</ele>
        <time>2012-01-06T12:50:37Z</time>
        <course>268.753922886919</course>
        <speed>8.31735518403512</speed>
      </trkpt>
      <trkpt lat="43.97041" lon="3.55763">
        <ele>287</ele>
        <time>2012-01-06T12:50:55Z</time>
        <course>278.673572576981</course>
        <speed>3.20479595183977</speed>
      </trkpt>
      <trkpt lat="43.9705" lon="3.55822">
        <ele>290</ele>
        <time>2012-01-06T12:51:10Z</time>
        <course>289.799774161832</course>
        <speed>3.20500288610338</speed>
      </trkpt>
      <trkpt lat="43.97086" lon="3.55922">
        <ele>298</ele>
        <time>2012-01-06T12:51:38Z</time>
        <course>278.130463593665</course>
        <speed>8.32311153933309</speed>
      </trkpt>
      <trkpt lat="43.97093" lon="3.55971">
        <ele>296</ele>
        <time>2012-01-06T12:51:43Z</time>
        <course>273.591835305862</course>
        <speed>8.3185418040716</speed>
      </trkpt>
      <trkpt lat="43.97107" lon="3.56194">
        <ele>290</ele>
        <time>2012-01-06T12:52:04Z</time>
        <course>267.838613626705</course>
        <speed>8.32223394975824</speed>
      </trkpt>
      <trkpt lat="43.97105" lon="3.56247">
        <ele>288</ele>
        <time>2012-01-06T12:52:09Z</time>
        <course>260.105179340186</course>
        <speed>8.31574342258988</speed>
      </trkpt>
      <trkpt lat="43.9709" lon="3.56333">
        <ele>286</ele>
        <time>2012-01-06T12:52:18Z</time>
        <course>244.947235995791</course>
        <speed>8.31551441002496</speed>
      </trkpt>
      <trkpt lat="43.97047" lon="3.56425">
        <ele>277</ele>
        <time>2012-01-06T12:52:28Z</time>
        <course>255.962727338506</course>
        <speed>8.32725369698773</speed>
      </trkpt>
      <trkpt lat="43.97041" lon="3.56449">
        <ele>276</ele>
        <time>2012-01-06T12:52:31Z</time>
        <course>266.905597315747</course>
        <speed>5.21499405439897</speed>
      </trkpt>
      <trkpt lat="43.97039" lon="3.56486">
        <ele>276</ele>
        <time>2012-01-06T12:52:36Z</time>
        <course>276.520018676626</course>
        <speed>5.21937671837737</speed>
      </trkpt>
      <trkpt lat="43.97047" lon="3.56556">
        <ele>278</ele>
        <time>2012-01-06T12:52:47Z</time>
        <course>269.999796710995</course>
        <speed>5.21561814895983</speed>
      </trkpt>
      <trkpt lat="43.97047" lon="3.56616">
        <ele>280</ele>
        <time>2012-01-06T12:52:56Z</time>
        <course>258.406897940841</course>
        <speed>8.31577935930676</speed>
      </trkpt>
      <trkpt lat="43.97039" lon="3.56655">
        <ele>277</ele>
        <time>2012-01-06T12:53:00Z</time>
        <course>247.749380408301</course>
        <speed>8.31119843853783</speed>
      </trkpt>
      <trkpt lat="43.97021" lon="3.56699">
        <ele>274</ele>
        <time>2012-01-06T12:53:05Z</time>
        <course>265.364070349549</course>
        <speed>8.31767203635536</speed>
      </trkpt>
      <trkpt lat="43.97018" lon="3.56736">
        <ele>272</ele>
        <time>2012-01-06T12:53:09Z</time>
        <course>278.185114663438</course>
        <speed>7.12565324682158</speed>
      </trkpt>
      <trkpt lat="43.97039" lon="3.56882">
        <ele>273</ele>
        <time>2012-01-06T12:53:25Z</time>
        <course>287.745757711909</course>
        <speed>4.39366280831991</speed>
      </trkpt>
      <trkpt lat="43.97047" lon="3.56907">
        <ele>273</ele>
        <time>2012-01-06T12:53:30Z</time>
        <course>297.364722724105</course>
        <speed>4.395065183595</speed>
      </trkpt>
      <trkpt lat="43.97106" lon="3.57021">
        <ele>279</ele>
        <time>2012-01-06T12:53:56Z</time>
        <course>283.571161243434</course>
        <speed>8.32024796301227</speed>
      </trkpt>
      <trkpt lat="43.97113" lon="3.5705">
        <ele>278</ele>
        <time>2012-01-06T12:53:59Z</time>
        <course>275.877537170854</course>
        <speed>8.32338680591695</speed>
      </trkpt>
      <trkpt lat="43.9712" lon="3.57118">
        <ele>276</ele>
        <time>2012-01-06T12:54:06Z</time>
        <course>265.235912500198</course>
        <speed>8.31031552691173</speed>
      </trkpt>
      <trkpt lat="43.97116" lon="3.57166">
        <ele>275</ele>
        <time>2012-01-06T12:54:10Z</time>
        <course>249.361002341766</course>
        <speed>8.31348265290208</speed>
      </trkpt>
      <trkpt lat="43.97087" lon="3.57243">
        <ele>269</ele>
        <time>2012-01-06T12:54:19Z</time>
        <course>255.761593982661</course>
        <speed>8.31829351315917</speed>
      </trkpt>
      <trkpt lat="43.9707" lon="3.5731">
        <ele>265</ele>
        <time>2012-01-06T12:54:25Z</time>
        <course>261.192138453823</course>
        <speed>8.32110764963714</speed>
      </trkpt>
      <trkpt lat="43.97048" lon="3.57452">
        <ele>265</ele>
        <time>2012-01-06T12:54:39Z</time>
        <course>269.999939064863</course>
        <speed>7.34444064666085</speed>
      </trkpt>
      <trkpt lat="43.97048" lon="3.5747">
        <ele>265</ele>
        <time>2012-01-06T12:54:41Z</time>
        <course>283.393324411757</course>
        <speed>7.34002489463283</speed>
      </trkpt>
      <trkpt lat="43.97053" lon="3.57491">
        <ele>265</ele>
        <time>2012-01-06T12:54:44Z</time>
        <course>296.566525131196</course>
        <speed>7.34930678011568</speed>
      </trkpt>
      <trkpt lat="43.97067" lon="3.57519">
        <ele>265</ele>
        <time>2012-01-06T12:54:47Z</time>
        <course>316.737317674118</course>
        <speed>7.34225792205486</speed>
      </trkpt>
      <trkpt lat="43.97135" lon="3.57583">
        <ele>266</ele>
        <time>2012-01-06T12:55:00Z</time>
        <course>326.31145368745</course>
        <speed>4.79149946029706</speed>
      </trkpt>
      <trkpt lat="43.97153" lon="3.57595">
        <ele>266</ele>
        <time>2012-01-06T12:55:04Z</time>
        <course>337.834690688623</course>
        <speed>4.79163873982634</speed>
      </trkpt>
      <trkpt lat="43.97207" lon="3.57617">
        <ele>269</ele>
        <time>2012-01-06T12:55:18Z</time>
        <course>288.4357610209</course>
        <speed>4.78785774849498</speed>
      </trkpt>
      <trkpt lat="43.97216" lon="3.57644">
        <ele>270</ele>
        <time>2012-01-06T12:55:22Z</time>
        <course>278.063301677029</course>
        <speed>8.316845409584</speed>
      </trkpt>
      <trkpt lat="43.97233" lon="3.57764">
        <ele>265</ele>
        <time>2012-01-06T12:55:34Z</time>
        <course>284.931989280613</course>
        <speed>8.32486338961421</speed>
      </trkpt>
      <trkpt lat="43.97245" lon="3.57809">
        <ele>264</ele>
        <time>2012-01-06T12:55:39Z</time>
        <course>292.93301313493</course>
        <speed>8.31687375030015</speed>
      </trkpt>
      <trkpt lat="43.97256" lon="3.57835">
        <ele>263</ele>
        <time>2012-01-06T12:55:42Z</time>
        <course>300.559241351326</course>
        <speed>8.31754425094623</speed>
      </trkpt>
      <trkpt lat="43.97367" lon="3.58023">
        <ele>259</ele>
        <time>2012-01-06T12:56:05Z</time>
        <course>289.290602009213</course>
        <speed>8.31068375446533</speed>
      </trkpt>
      <trkpt lat="43.97381" lon="3.58063">
        <ele>257</ele>
        <time>2012-01-06T12:56:09Z</time>
        <course>267.510301476913</course>
        <speed>8.30011258050191</speed>
      </trkpt>
      <trkpt lat="43.9738" lon="3.58086">
        <ele>257</ele>
        <time>2012-01-06T12:56:12Z</time>
        <course>254.232052260731</course>
        <speed>8.31636553301406</speed>
      </trkpt>
      <trkpt lat="43.97356" lon="3.58171">
        <ele>255</ele>
        <time>2012-01-06T12:56:20Z</time>
        <course>259.176408337597</course>
        <speed>8.32318899312302</speed>
      </trkpt>
      <trkpt lat="43.97343" lon="3.58239">
        <ele>254</ele>
        <time>2012-01-06T12:56:27Z</time>
        <course>272.296373300558</course>
        <speed>8.31917001855756</speed>
      </trkpt>
      <trkpt lat="43.97357" lon="3.58588">
        <ele>253</ele>
        <time>2012-01-06T12:57:01Z</time>
        <course>273.664623294728</course>
        <speed>8.31858209819335</speed>
      </trkpt>
      <trkpt lat="43.97375" lon="3.58869">
        <ele>250</ele>
        <time>2012-01-06T12:57:28Z</time>
        <course>261.092596964635</course>
        <speed>8.32088030180035</speed>
      </trkpt>
      <trkpt lat="43.97354" lon="3.59003">
        <ele>247</ele>
        <time>2012-01-06T12:57:41Z</time>
        <course>256.091428208191</course>
        <speed>8.32227689370944</speed>
      </trkpt>
      <trkpt lat="43.97328" lon="3.59108">
        <ele>245</ele>
        <time>2012-01-06T12:57:52Z</time>
        <course>260.271846711413</course>
        <speed>8.3156984358386</speed>
      </trkpt>
      <trkpt lat="43.97316" lon="3.59178">
        <ele>245</ele>
        <time>2012-01-06T12:57:59Z</time>
        <course>275.314539876773</course>
        <speed>8.31482107662434</speed>
      </trkpt>
      <trkpt lat="43.97324" lon="3.59264">
        <ele>245</ele>
        <time>2012-01-06T12:58:07Z</time>
        <course>249.443158797381</course>
        <speed>8.29191095638624</speed>
      </trkpt>
      <trkpt lat="43.97321" lon="3.59272">
        <ele>245</ele>
        <time>2012-01-06T12:58:08Z</time>
        <course>273.179914159957</course>
        <speed>8.2972801228565</speed>
      </trkpt>
      <trkpt lat="43.97322" lon="3.5929">
        <ele>245</ele>
        <time>2012-01-06T12:58:10Z</time>
        <course>306.87098837739</course>
        <speed>8.29951138996162</speed>
      </trkpt>
      <trkpt lat="43.97331" lon="3.59302">
        <ele>245</ele>
        <time>2012-01-06T12:58:11Z</time>
        <course>347.90570194931</course>
        <speed>8.32841120661537</speed>
      </trkpt>
      <trkpt lat="43.97345" lon="3.59305">
        <ele>244</ele>
        <time>2012-01-06T12:58:13Z</time>
        <course>311.348799040735</course>
        <speed>8.31059565619063</speed>
      </trkpt>
      <trkpt lat="43.97367" lon="3.5933">
        <ele>244</ele>
        <time>2012-01-06T12:58:17Z</time>
        <course>305.838373825541</course>
        <speed>8.31683810423721</speed>
      </trkpt>
      <trkpt lat="43.97432" lon="3.5942">
        <ele>242</ele>
        <time>2012-01-06T12:58:29Z</time>
        <course>310.696272365699</course>
        <speed>8.31827676537334</speed>
      </trkpt>
      <trkpt lat="43.97475" lon="3.5947">
        <ele>241</ele>
        <time>2012-01-06T12:58:37Z</time>
        <course>317.726313789216</course>
        <speed>8.31772862318329</speed>
      </trkpt>
      <trkpt lat="43.97783" lon="3.5975">
        <ele>238</ele>
        <time>2012-01-06T12:59:26Z</time>
        <course>314.775375808458</course>
        <speed>8.317325138633</speed>
      </trkpt>
      <trkpt lat="43.9791" lon="3.59878">
        <ele>236</ele>
        <time>2012-01-06T12:59:47Z</time>
        <course>320.55991059808</course>
        <speed>8.31923801901937</speed>
      </trkpt>
      <trkpt lat="43.98096" lon="3.60031">
        <ele>232</ele>
        <time>2012-01-06T13:00:16Z</time>
        <course>317.236956124825</course>
        <speed>8.31875080886092</speed>
      </trkpt>
      <trkpt lat="43.98229" lon="3.60154">
        <ele>231</ele>
        <time>2012-01-06T13:00:37Z</time>
        <course>314.808407517284</course>
        <speed>8.317474342842</speed>
      </trkpt>
      <trkpt lat="43.98378" lon="3.60304">
        <ele>229</ele>
        <time>2012-01-06T13:01:02Z</time>
        <course>322.199335192721</course>
        <speed>8.31792196032757</speed>
      </trkpt>
      <trkpt lat="43.98485" lon="3.60387">
        <ele>229</ele>
        <time>2012-01-06T13:01:18Z</time>
        <course>330.751312652622</course>
        <speed>8.31952961901724</speed>
      </trkpt>
      <trkpt lat="43.9856" lon="3.60429">
        <ele>228</ele>
        <time>2012-01-06T13:01:29Z</time>
        <course>302.471347345142</course>
        <speed>8.3269587548694</speed>
      </trkpt>
      <trkpt lat="43.98567" lon="3.6044">
        <ele>228</ele>
        <time>2012-01-06T13:01:30Z</time>
        <course>351.72872498032</course>
        <speed>7.7111120837717</speed>
      </trkpt>
      <trkpt lat="43.98794" lon="3.60473">
        <ele>229</ele>
        <time>2012-01-06T13:02:03Z</time>
        <course>339.806063588085</course>
        <speed>6.9349720372706</speed>
      </trkpt>
      <trkpt lat="43.98881" lon="3.60505">
        <ele>230</ele>
        <time>2012-01-06T13:02:18Z</time>
        <course>322.624952290625</course>
        <speed>8.32209920616983</speed>
      </trkpt>
      <trkpt lat="43.98953" lon="3.6056">
        <ele>229</ele>
        <time>2012-01-06T13:02:28Z</time>
        <course>308.247405732628</course>
        <speed>8.31685691518462</speed>
      </trkpt>
      <trkpt lat="43.9902" lon="3.60645">
        <ele>228</ele>
        <time>2012-01-06T13:02:41Z</time>
        <course>295.035314541345</course>
        <speed>8.31989218555145</speed>
      </trkpt>
      <trkpt lat="43.99105" lon="3.60827">
        <ele>223</ele>
        <time>2012-01-06T13:03:01Z</time>
        <course>299.37718857507</course>
        <speed>8.31666756883388</speed>
      </trkpt>
      <trkpt lat="43.9919" lon="3.60978">
        <ele>223</ele>
        <time>2012-01-06T13:03:20Z</time>
        <course>285.781581218227</course>
        <speed>6.11605077256425</speed>
      </trkpt>
      <trkpt lat="43.99203" lon="3.61024">
        <ele>223</ele>
        <time>2012-01-06T13:03:26Z</time>
        <course>274.399022378209</course>
        <speed>6.11223673902281</speed>
      </trkpt>
      <trkpt lat="43.99206" lon="3.61063">
        <ele>224</ele>
        <time>2012-01-06T13:03:31Z</time>
        <course>272.290859252671</course>
        <speed>6.11199919729785</speed>
      </trkpt>
      <trkpt lat="43.99208" lon="3.61113">
        <ele>225</ele>
        <time>2012-01-06T13:03:38Z</time>
        <course>255.963206095793</course>
        <speed>8.30752722239779</speed>
      </trkpt>
      <trkpt lat="43.992" lon="3.61145">
        <ele>225</ele>
        <time>2012-01-06T13:03:41Z</time>
        <course>297.647155184194</course>
        <speed>8.30662192031741</speed>
      </trkpt>
      <trkpt lat="43.99211" lon="3.61166">
        <ele>225</ele>
        <time>2012-01-06T13:03:44Z</time>
        <course>281.041578523367</course>
        <speed>8.32377246355035</speed>
      </trkpt>
      <trkpt lat="43.99219" lon="3.61207">
        <ele>225</ele>
        <time>2012-01-06T13:03:48Z</time>
        <course>272.086151051302</course>
        <speed>8.31850397889882</speed>
      </trkpt>
      <trkpt lat="43.99238" lon="3.61729">
        <ele>225</ele>
        <time>2012-01-06T13:04:38Z</time>
        <course>262.746601629806</course>
        <speed>8.31500363813234</speed>
      </trkpt>
      <trkpt lat="43.99231" lon="3.61784">
        <ele>225</ele>
        <time>2012-01-06T13:04:43Z</time>
        <course>256.440400901867</course>
        <speed>8.31905868425625</speed>
      </trkpt>
      <trkpt lat="43.9919" lon="3.61954">
        <ele>225</ele>
        <time>2012-01-06T13:05:01Z</time>
        <course>264.052997939736</course>
        <speed>7.3434184890864</speed>
      </trkpt>
      <trkpt lat="43.99185" lon="3.62002">
        <ele>225</ele>
        <time>2012-01-06T13:05:06Z</time>
        <course>270.335184176376</course>
        <speed>7.34174541387992</speed>
      </trkpt>
      <trkpt lat="43.99188" lon="3.62517">
        <ele>228</ele>
        <time>2012-01-06T13:06:02Z</time>
        <course>271.749386764022</course>
        <speed>8.31911551708814</speed>
      </trkpt>
      <trkpt lat="43.99192" lon="3.62648">
        <ele>226</ele>
        <time>2012-01-06T13:06:15Z</time>
        <course>261.027071779679</course>
        <speed>8.31596947284129</speed>
      </trkpt>
      <trkpt lat="43.99186" lon="3.62686">
        <ele>225</ele>
        <time>2012-01-06T13:06:18Z</time>
        <course>215.536484003276</course>
        <speed>8.32890515187977</speed>
      </trkpt>
      <trkpt lat="43.99172" lon="3.62696">
        <ele>225</ele>
        <time>2012-01-06T13:06:21Z</time>
        <course>255.067992645708</course>
        <speed>8.30446896766911</speed>
      </trkpt>
      <trkpt lat="43.99168" lon="3.62711">
        <ele>225</ele>
        <time>2012-01-06T13:06:22Z</time>
        <course>286.390272512276</course>
        <speed>8.29511040573056</speed>
      </trkpt>
      <trkpt lat="43.99173" lon="3.62728">
        <ele>225</ele>
        <time>2012-01-06T13:06:24Z</time>
        <course>315.00130298907</course>
        <speed>8.33240067156072</speed>
      </trkpt>
      <trkpt lat="43.9918" lon="3.62735">
        <ele>225</ele>
        <time>2012-01-06T13:06:25Z</time>
        <course>7.59429360866617</course>
        <speed>8.33060236257357</speed>
      </trkpt>
      <trkpt lat="43.99195" lon="3.62733">
        <ele>225</ele>
        <time>2012-01-06T13:06:27Z</time>
        <course>62.1015676494225</course>
        <speed>8.31208829696318</speed>
      </trkpt>
      <trkpt lat="43.99204" lon="3.62716">
        <ele>225</ele>
        <time>2012-01-06T13:06:29Z</time>
        <course>101.310397555315</course>
        <speed>8.33923528728487</speed>
      </trkpt>
      <trkpt lat="43.992" lon="3.62696">
        <ele>225</ele>
        <time>2012-01-06T13:06:31Z</time>
        <course>89.999919391075</course>
        <speed>8.30957223632036</speed>
      </trkpt>
      <trkpt lat="43.992" lon="3.62667">
        <ele>225</ele>
        <time>2012-01-06T13:06:34Z</time>
        <course>86.1281895620416</course>
        <speed>8.31732781865685</speed>
      </trkpt>
      <trkpt lat="43.99209" lon="3.62534">
        <ele>224</ele>
        <time>2012-01-06T13:06:47Z</time>
        <course>93.1941397710146</course>
        <speed>8.32025013993772</speed>
      </trkpt>
      <trkpt lat="43.99197" lon="3.62319">
        <ele>224</ele>
        <time>2012-01-06T13:07:07Z</time>
        <course>88.4595730349775</course>
        <speed>6.55792301717775</speed>
      </trkpt>
      <trkpt lat="43.99202" lon="3.62133">
        <ele>226</ele>
        <time>2012-01-06T13:07:30Z</time>
        <course>94.6106928092054</course>
        <speed>7.20745625033755</speed>
      </trkpt>
      <trkpt lat="43.99197" lon="3.62071">
        <ele>226</ele>
        <time>2012-01-06T13:07:37Z</time>
        <course>88.2639393907278</course>
        <speed>7.2013248003416</speed>
      </trkpt>
      <trkpt lat="43.992" lon="3.61972">
        <ele>227</ele>
        <time>2012-01-06T13:07:48Z</time>
        <course>81.2533212428098</course>
        <speed>8.32453514534406</speed>
      </trkpt>
      <trkpt lat="43.99206" lon="3.61933">
        <ele>227</ele>
        <time>2012-01-06T13:07:52Z</time>
        <course>76.7742426106109</course>
        <speed>8.31851967217531</speed>
      </trkpt>
      <trkpt lat="43.99253" lon="3.61733">
        <ele>227</ele>
        <time>2012-01-06T13:08:12Z</time>
        <course>86.9869432679576</course>
        <speed>8.32228345799328</speed>
      </trkpt>
      <trkpt lat="43.99255" lon="3.61695">
        <ele>226</ele>
        <time>2012-01-06T13:08:16Z</time>
        <course>88.6026250267783</course>
        <speed>8.32372805537115</speed>
      </trkpt>
      <trkpt lat="43.99256" lon="3.61654">
        <ele>226</ele>
        <time>2012-01-06T13:08:20Z</time>
        <course>99.1625424076373</course>
        <speed>8.31797466236909</speed>
      </trkpt>
      <trkpt lat="43.99241" lon="3.61561">
        <ele>225</ele>
        <time>2012-01-06T13:08:29Z</time>
        <course>92.7004599712686</course>
        <speed>6.73448374718509</speed>
      </trkpt>
      <trkpt lat="43.99236" lon="3.61455">
        <ele>226</ele>
        <time>2012-01-06T13:08:41Z</time>
        <course>92.7004599712686</course>
        <speed>6.73448374718509</speed>
      </trkpt>
      <trkpt lat="43.99236" lon="3.61455">
        <ele>226</ele>
        <time>2012-01-06T13:08:42Z</time>
        <course>93.1296662878632</course>
        <speed>8.3196428476235</speed>
      </trkpt>
      <trkpt lat="43.99222" lon="3.61199">
        <ele>225</ele>
        <time>2012-01-06T13:09:07Z</time>
        <course>77.7988384253126</course>
        <speed>8.32507653278613</speed>
      </trkpt>
      <trkpt lat="43.9923" lon="3.61162">
        <ele>225</ele>
        <time>2012-01-06T13:09:11Z</time>
        <course>70.559011303105</course>
        <speed>8.31741459423338</speed>
      </trkpt>
      <trkpt lat="43.99236" lon="3.61145">
        <ele>225</ele>
        <time>2012-01-06T13:09:13Z</time>
        <course>109.179834909276</course>
        <speed>8.30210254305682</speed>
      </trkpt>
      <trkpt lat="43.99228" lon="3.61122">
        <ele>225</ele>
        <time>2012-01-06T13:09:15Z</time>
        <course>156.038549673535</course>
        <speed>8.33301365662861</speed>
      </trkpt>
      <trkpt lat="43.99219" lon="3.61118">
        <ele>225</ele>
        <time>2012-01-06T13:09:16Z</time>
        <course>204.774104672084</course>
        <speed>8.3175594079667</speed>
      </trkpt>
      <trkpt lat="43.99206" lon="3.61124">
        <ele>225</ele>
        <time>2012-01-06T13:09:18Z</time>
        <course>254.05394583996</course>
        <speed>8.32425657595928</speed>
      </trkpt>
      <trkpt lat="43.992" lon="3.61145">
        <ele>225</ele>
        <time>2012-01-06T13:09:20Z</time>
        <course>297.647155184194</course>
        <speed>8.30662192031741</speed>
      </trkpt>
      <trkpt lat="43.99211" lon="3.61166">
        <ele>225</ele>
        <time>2012-01-06T13:09:23Z</time>
        <course>281.041578523367</course>
        <speed>8.32377246355035</speed>
      </trkpt>
      <trkpt lat="43.99219" lon="3.61207">
        <ele>225</ele>
        <time>2012-01-06T13:09:27Z</time>
        <course>272.086151051302</course>
        <speed>8.31850397889882</speed>
      </trkpt>
      <trkpt lat="43.99238" lon="3.61729">
        <ele>225</ele>
        <time>2012-01-06T13:10:17Z</time>
        <course>262.746601629806</course>
        <speed>8.31500363813234</speed>
      </trkpt>
      <trkpt lat="43.99231" lon="3.61784">
        <ele>225</ele>
        <time>2012-01-06T13:10:22Z</time>
        <course>256.143429981114</course>
        <speed>8.3181071891208</speed>
      </trkpt>
      <trkpt lat="43.99194" lon="3.61934">
        <ele>225</ele>
        <time>2012-01-06T13:10:38Z</time>
        <course>260.909448669942</course>
        <speed>7.37811720663648</speed>
      </trkpt>
      <trkpt lat="43.99186" lon="3.61984">
        <ele>225</ele>
        <time>2012-01-06T13:10:43Z</time>
        <course>270.216463567979</course>
        <speed>7.3733737033047</speed>
      </trkpt>
      <trkpt lat="43.99188" lon="3.62517">
        <ele>228</ele>
        <time>2012-01-06T13:11:41Z</time>
        <course>271.580643910285</course>
        <speed>8.3156926635324</speed>
      </trkpt>
      <trkpt lat="43.99192" lon="3.62662">
        <ele>226</ele>
        <time>2012-01-06T13:11:55Z</time>
        <course>255.963202235753</course>
        <speed>7.38616358738562</speed>
      </trkpt>
      <trkpt lat="43.99186" lon="3.62686">
        <ele>226</ele>
        <time>2012-01-06T13:11:58Z</time>
        <course>215.536484003276</course>
        <speed>7.3800425396403</speed>
      </trkpt>
      <trkpt lat="43.99172" lon="3.62696">
        <ele>226</ele>
        <time>2012-01-06T13:12:00Z</time>
        <course>255.067992645708</course>
        <speed>7.39241746254938</speed>
      </trkpt>
      <trkpt lat="43.99168" lon="3.62711">
        <ele>226</ele>
        <time>2012-01-06T13:12:02Z</time>
        <course>286.390272512276</course>
        <speed>7.37806302419251</speed>
      </trkpt>
      <trkpt lat="43.99173" lon="3.62728">
        <ele>226</ele>
        <time>2012-01-06T13:12:04Z</time>
        <course>327.53002754856</course>
        <speed>7.38643754563412</speed>
      </trkpt>
      <trkpt lat="43.99195" lon="3.62742">
        <ele>226</ele>
        <time>2012-01-06T13:12:07Z</time>
        <course>294.776241126164</course>
        <speed>7.39368575835645</speed>
      </trkpt>
      <trkpt lat="43.99207" lon="3.62768">
        <ele>226</ele>
        <time>2012-01-06T13:12:11Z</time>
        <course>288.361397100877</course>
        <speed>7.39039767342275</speed>
      </trkpt>
      <trkpt lat="43.99283" lon="3.62997">
        <ele>228</ele>
        <time>2012-01-06T13:12:38Z</time>
        <course>286.293748965325</course>
        <speed>6.57514072140891</speed>
      </trkpt>
      <trkpt lat="43.99385" lon="3.63346">
        <ele>232</ele>
        <time>2012-01-06T13:13:24Z</time>
        <course>275.042899350014</course>
        <speed>8.32331645051952</speed>
      </trkpt>
      <trkpt lat="43.99388" lon="3.6338">
        <ele>229</ele>
        <time>2012-01-06T13:13:27Z</time>
        <course>266.760259103817</course>
        <speed>8.31699273969346</speed>
      </trkpt>
      <trkpt lat="43.99385" lon="3.63433">
        <ele>226</ele>
        <time>2012-01-06T13:13:32Z</time>
        <course>260.930826865996</course>
        <speed>8.31743262440993</speed>
      </trkpt>
      <trkpt lat="43.99351" lon="3.63646">
        <ele>213</ele>
        <time>2012-01-06T13:13:53Z</time>
        <course>264.193101653423</course>
        <speed>7.01540088910604</speed>
      </trkpt>
      <trkpt lat="43.99345" lon="3.63705">
        <ele>213</ele>
        <time>2012-01-06T13:14:00Z</time>
        <course>274.635988878958</course>
        <speed>7.01195187292838</speed>
      </trkpt>
      <trkpt lat="43.99351" lon="3.63779">
        <ele>214</ele>
        <time>2012-01-06T13:14:09Z</time>
        <course>284.932520450636</course>
        <speed>4.30590038027388</speed>
      </trkpt>
      <trkpt lat="43.99367" lon="3.63839">
        <ele>216</ele>
        <time>2012-01-06T13:14:20Z</time>
        <course>289.360559030298</course>
        <speed>4.30479374066502</speed>
      </trkpt>
      <trkpt lat="43.99406" lon="3.6395">
        <ele>221</ele>
        <time>2012-01-06T13:14:43Z</time>
        <course>295.515588171828</course>
        <speed>5.27633503698598</speed>
      </trkpt>
      <trkpt lat="43.99427" lon="3.63994">
        <ele>222</ele>
        <time>2012-01-06T13:14:51Z</time>
        <course>329.038127060002</course>
        <speed>5.27363378313129</speed>
      </trkpt>
      <trkpt lat="43.99447" lon="3.64006">
        <ele>222</ele>
        <time>2012-01-06T13:14:56Z</time>
        <course>360</course>
        <speed>5.26635071060784</speed>
      </trkpt>
      <trkpt lat="43.99457" lon="3.64006">
        <ele>223</ele>
        <time>2012-01-06T13:14:58Z</time>
        <course>19.7207792257707</course>
        <speed>5.27499004749578</speed>
      </trkpt>
      <trkpt lat="43.9951" lon="3.63987">
        <ele>225</ele>
        <time>2012-01-06T13:15:10Z</time>
        <course>3.17956269214944</course>
        <speed>5.30969977836787</speed>
      </trkpt>
      <trkpt lat="43.99528" lon="3.63986">
        <ele>225</ele>
        <time>2012-01-06T13:15:13Z</time>
        <course>343.497011375972</course>
        <speed>5.30733639871054</speed>
      </trkpt>
      <trkpt lat="43.99555" lon="3.63994">
        <ele>226</ele>
        <time>2012-01-06T13:15:19Z</time>
        <course>326.312332256749</course>
        <speed>5.30692605040221</speed>
      </trkpt>
      <trkpt lat="43.99573" lon="3.64006">
        <ele>227</ele>
        <time>2012-01-06T13:15:23Z</time>
        <course>312.61677283931</course>
        <speed>5.30121748788766</speed>
      </trkpt>
      <trkpt lat="43.99596" lon="3.64031">
        <ele>228</ele>
        <time>2012-01-06T13:15:29Z</time>
        <course>306.798527742323</course>
        <speed>8.31906022698225</speed>
      </trkpt>
      <trkpt lat="43.99688" lon="3.64154">
        <ele>223</ele>
        <time>2012-01-06T13:15:47Z</time>
        <course>299.580842295619</course>
        <speed>8.31650055496605</speed>
      </trkpt>
      <trkpt lat="43.9973" lon="3.64228">
        <ele>219</ele>
        <time>2012-01-06T13:15:56Z</time>
        <course>285.257009292251</course>
        <speed>8.32188537568925</speed>
      </trkpt>
      <trkpt lat="43.99745" lon="3.64283">
        <ele>218</ele>
        <time>2012-01-06T13:16:01Z</time>
        <course>272.203076960379</course>
        <speed>8.32526559378021</speed>
      </trkpt>
      <trkpt lat="43.99747" lon="3.64335">
        <ele>217</ele>
        <time>2012-01-06T13:16:06Z</time>
        <course>261.633315183233</course>
        <speed>8.33047728259438</speed>
      </trkpt>
      <trkpt lat="43.99742" lon="3.64369">
        <ele>216</ele>
        <time>2012-01-06T13:16:10Z</time>
        <course>256.271988227172</course>
        <speed>8.32126907784155</speed>
      </trkpt>
      <trkpt lat="43.9971" lon="3.645">
        <ele>214</ele>
        <time>2012-01-06T13:16:23Z</time>
        <course>261.313019666987</course>
        <speed>8.32224807171302</speed>
      </trkpt>
      <trkpt lat="43.99699" lon="3.64572">
        <ele>210</ele>
        <time>2012-01-06T13:16:30Z</time>
        <course>267.613899873906</course>
        <speed>8.31907264138894</speed>
      </trkpt>
      <trkpt lat="43.99698" lon="3.64596">
        <ele>209</ele>
        <time>2012-01-06T13:16:32Z</time>
        <course>276.341061473327</course>
        <speed>8.31009808100641</speed>
      </trkpt>
      <trkpt lat="43.99703" lon="3.64641">
        <ele>208</ele>
        <time>2012-01-06T13:16:37Z</time>
        <course>288.436940043968</course>
        <speed>8.31727872596943</speed>
      </trkpt>
      <trkpt lat="43.99712" lon="3.64668">
        <ele>208</ele>
        <time>2012-01-06T13:16:39Z</time>
        <course>301.76241148341</course>
        <speed>8.3257718453765</speed>
      </trkpt>
      <trkpt lat="43.99725" lon="3.64689">
        <ele>208</ele>
        <time>2012-01-06T13:16:42Z</time>
        <course>320.197716112826</course>
        <speed>8.31382781930796</speed>
      </trkpt>
      <trkpt lat="43.99749" lon="3.64709">
        <ele>208</ele>
        <time>2012-01-06T13:16:46Z</time>
        <course>329.325890064124</course>
        <speed>8.3174898876858</speed>
      </trkpt>
      <trkpt lat="43.99808" lon="3.64744">
        <ele>208</ele>
        <time>2012-01-06T13:16:54Z</time>
        <course>317.295025311798</course>
        <speed>5.69467108703772</speed>
      </trkpt>
      <trkpt lat="43.99938" lon="3.64864">
        <ele>212</ele>
        <time>2012-01-06T13:17:25Z</time>
        <course>308.258840196103</course>
        <speed>8.32269047600608</speed>
      </trkpt>
      <trkpt lat="43.99979" lon="3.64916">
        <ele>210</ele>
        <time>2012-01-06T13:17:32Z</time>
        <course>300.967911000915</course>
        <speed>8.31970260395845</speed>
      </trkpt>
      <trkpt lat="44.00006" lon="3.64961">
        <ele>210</ele>
        <time>2012-01-06T13:17:38Z</time>
        <course>290.228008952035</course>
        <speed>8.32355642739524</speed>
      </trkpt>
      <trkpt lat="44.0002" lon="3.64999">
        <ele>209</ele>
        <time>2012-01-06T13:17:42Z</time>
        <course>280.622086075867</course>
        <speed>8.31810098516322</speed>
      </trkpt>
      <trkpt lat="44.00047" lon="3.65143">
        <ele>209</ele>
        <time>2012-01-06T13:17:56Z</time>
        <course>286.147079620798</course>
        <speed>8.31001778362203</speed>
      </trkpt>
      <trkpt lat="44.00058" lon="3.65181">
        <ele>206</ele>
        <time>2012-01-06T13:18:00Z</time>
        <course>291.717905276013</course>
        <speed>8.31916239203609</speed>
      </trkpt>
      <trkpt lat="44.00103" lon="3.65294">
        <ele>199</ele>
        <time>2012-01-06T13:18:13Z</time>
        <course>280.786379571083</course>
        <speed>6.39563638854791</speed>
      </trkpt>
      <trkpt lat="44.00111" lon="3.65336">
        <ele>199</ele>
        <time>2012-01-06T13:18:18Z</time>
        <course>275.153652722417</course>
        <speed>6.39840271549398</speed>
      </trkpt>
      <trkpt lat="44.00122" lon="3.65458">
        <ele>201</ele>
        <time>2012-01-06T13:18:33Z</time>
        <course>279.622077970968</course>
        <speed>8.31775098258645</speed>
      </trkpt>
      <trkpt lat="44.00142" lon="3.65576">
        <ele>200</ele>
        <time>2012-01-06T13:18:45Z</time>
        <course>268.33979235072</course>
        <speed>8.31283797707734</speed>
      </trkpt>
      <trkpt lat="44.0014" lon="3.65645">
        <ele>200</ele>
        <time>2012-01-06T13:18:52Z</time>
        <course>255.806921175263</course>
        <speed>5.33372481214506</speed>
      </trkpt>
      <trkpt lat="44.00118" lon="3.65732">
        <ele>202</ele>
        <time>2012-01-06T13:19:06Z</time>
        <course>237.167020673952</course>
        <speed>5.33414287295809</speed>
      </trkpt>
      <trkpt lat="44.00098" lon="3.65763">
        <ele>203</ele>
        <time>2012-01-06T13:19:12Z</time>
        <course>223.631409926368</course>
        <speed>8.31283062086487</speed>
      </trkpt>
      <trkpt lat="44.00055" lon="3.65804">
        <ele>203</ele>
        <time>2012-01-06T13:19:19Z</time>
        <course>253.440529930985</course>
        <speed>8.31203698460315</speed>
      </trkpt>
      <trkpt lat="44.00044" lon="3.65841">
        <ele>203</ele>
        <time>2012-01-06T13:19:23Z</time>
        <course>278.974485005281</course>
        <speed>8.31481838223922</speed>
      </trkpt>
      <trkpt lat="44.00056" lon="3.65917">
        <ele>203</ele>
        <time>2012-01-06T13:19:30Z</time>
        <course>295.148765189509</course>
        <speed>8.32166800067679</speed>
      </trkpt>
      <trkpt lat="44.00079" lon="3.65966">
        <ele>200</ele>
        <time>2012-01-06T13:19:36Z</time>
        <course>280.982850909044</course>
        <speed>8.31610448376591</speed>
      </trkpt>
      <trkpt lat="44.00092" lon="3.66033">
        <ele>198</ele>
        <time>2012-01-06T13:19:42Z</time>
        <course>299.986114177221</course>
        <speed>5.23391780437772</speed>
      </trkpt>
      <trkpt lat="44.00107" lon="3.66059">
        <ele>198</ele>
        <time>2012-01-06T13:19:47Z</time>
        <course>273.180486482234</course>
        <speed>5.22845396883803</speed>
      </trkpt>
      <trkpt lat="44.00108" lon="3.66077">
        <ele>199</ele>
        <time>2012-01-06T13:19:50Z</time>
        <course>242.496108357773</course>
        <speed>5.23129759616187</speed>
      </trkpt>
      <trkpt lat="43.99969" lon="3.66344">
        <ele>207</ele>
        <time>2012-01-06T13:20:41Z</time>
        <course>260.444916908624</course>
        <speed>8.31803155078202</speed>
      </trkpt>
      <trkpt lat="43.99902" lon="3.66742">
        <ele>207</ele>
        <time>2012-01-06T13:21:20Z</time>
        <course>265.688846842823</course>
        <speed>6.4195981744541</speed>
      </trkpt>
      <trkpt lat="43.99883" lon="3.66994">
        <ele>210</ele>
        <time>2012-01-06T13:21:51Z</time>
        <course>264.417901079409</course>
        <speed>8.31706971901806</speed>
      </trkpt>
      <trkpt lat="43.99857" lon="3.6726">
        <ele>205</ele>
        <time>2012-01-06T13:22:17Z</time>
        <course>253.298919190825</course>
        <speed>8.31168500253852</speed>
      </trkpt>
      <trkpt lat="43.99842" lon="3.6731">
        <ele>203</ele>
        <time>2012-01-06T13:22:22Z</time>
        <course>249.692037380001</course>
        <speed>8.31947336218082</speed>
      </trkpt>
      <trkpt lat="43.99711" lon="3.67664">
        <ele>190</ele>
        <time>2012-01-06T13:23:01Z</time>
        <course>234.779541238171</course>
        <speed>3.94177607920572</speed>
      </trkpt>
      <trkpt lat="43.99699" lon="3.67681">
        <ele>191</ele>
        <time>2012-01-06T13:23:06Z</time>
        <course>222.271307498266</course>
        <speed>3.94053186564886</speed>
      </trkpt>
      <trkpt lat="43.99578" lon="3.67791">
        <ele>200</ele>
        <time>2012-01-06T13:23:46Z</time>
        <course>172.875616954225</course>
        <speed>8.34156044673993</speed>
      </trkpt>
      <trkpt lat="43.9957" lon="3.6779">
        <ele>199</ele>
        <time>2012-01-06T13:23:47Z</time>
        <course>135.002492827454</course>
        <speed>8.33221559627893</speed>
      </trkpt>
      <trkpt lat="43.99556" lon="3.67776">
        <ele>198</ele>
        <time>2012-01-06T13:23:50Z</time>
        <course>120.701631217014</course>
        <speed>8.32321043985158</speed>
      </trkpt>
      <trkpt lat="43.99518" lon="3.67712">
        <ele>194</ele>
        <time>2012-01-06T13:23:58Z</time>
        <course>139.637711083937</course>
        <speed>8.32259049529385</speed>
      </trkpt>
      <trkpt lat="43.99498" lon="3.67695">
        <ele>193</ele>
        <time>2012-01-06T13:24:01Z</time>
        <course>161.566385557821</course>
        <speed>7.09963314481129</speed>
      </trkpt>
      <trkpt lat="43.99477" lon="3.67688">
        <ele>193</ele>
        <time>2012-01-06T13:24:04Z</time>
        <course>189.007904257271</course>
        <speed>7.09273922592506</speed>
      </trkpt>
      <trkpt lat="43.99395" lon="3.67701">
        <ele>194</ele>
        <time>2012-01-06T13:24:17Z</time>
        <course>214.157993091654</course>
        <speed>7.10946188387901</speed>
      </trkpt>
      <trkpt lat="43.99367" lon="3.6772">
        <ele>194</ele>
        <time>2012-01-06T13:24:22Z</time>
        <course>225.937633636824</course>
        <speed>7.11273617829373</speed>
      </trkpt>
      <trkpt lat="43.99307" lon="3.67782">
        <ele>195</ele>
        <time>2012-01-06T13:24:34Z</time>
        <course>229.116834507861</course>
        <speed>8.32184349180245</speed>
      </trkpt>
      <trkpt lat="43.99249" lon="3.67849">
        <ele>195</ele>
        <time>2012-01-06T13:24:44Z</time>
        <course>245.853445457189</course>
        <speed>8.32798211606753</speed>
      </trkpt>
      <trkpt lat="43.99236" lon="3.67878">
        <ele>195</ele>
        <time>2012-01-06T13:24:47Z</time>
        <course>257.507409524709</course>
        <speed>8.32002310848411</speed>
      </trkpt>
      <trkpt lat="43.99199" lon="3.68045">
        <ele>192</ele>
        <time>2012-01-06T13:25:04Z</time>
        <course>263.345433585615</course>
        <speed>8.32070554902638</speed>
      </trkpt>
      <trkpt lat="43.99192" lon="3.68105">
        <ele>190</ele>
        <time>2012-01-06T13:25:10Z</time>
        <course>271.10190056464</course>
        <speed>8.3171370727825</speed>
      </trkpt>
      <trkpt lat="43.99193" lon="3.68157">
        <ele>189</ele>
        <time>2012-01-06T13:25:15Z</time>
        <course>283.449350683311</course>
        <speed>8.31595815294982</speed>
      </trkpt>
      <trkpt lat="43.99204" lon="3.68203">
        <ele>189</ele>
        <time>2012-01-06T13:25:19Z</time>
        <course>290.062639166191</course>
        <speed>8.31794439223685</speed>
      </trkpt>
      <trkpt lat="43.99334" lon="3.68559">
        <ele>187</ele>
        <time>2012-01-06T13:25:58Z</time>
        <course>287.103890550302</course>
        <speed>4.05491011535682</speed>
      </trkpt>
      <trkpt lat="43.9935" lon="3.68611">
        <ele>189</ele>
        <time>2012-01-06T13:26:09Z</time>
        <course>276.78953351952</course>
        <speed>4.05627318163412</speed>
      </trkpt>
      <trkpt lat="43.99355" lon="3.68653">
        <ele>191</ele>
        <time>2012-01-06T13:26:17Z</time>
        <course>264.685259397094</course>
        <speed>4.05393301520894</speed>
      </trkpt>
      <trkpt lat="43.99351" lon="3.68696">
        <ele>193</ele>
        <time>2012-01-06T13:26:26Z</time>
        <course>255.962990481157</course>
        <speed>4.75678321130059</speed>
      </trkpt>
      <trkpt lat="43.99345" lon="3.6872">
        <ele>193</ele>
        <time>2012-01-06T13:26:30Z</time>
        <course>242.524301997329</course>
        <speed>4.76054082494602</speed>
      </trkpt>
      <trkpt lat="43.99319" lon="3.6877">
        <ele>195</ele>
        <time>2012-01-06T13:26:40Z</time>
        <course>230.709022806037</course>
        <speed>4.75609704439453</speed>
      </trkpt>
      <trkpt lat="43.99301" lon="3.68792">
        <ele>196</ele>
        <time>2012-01-06T13:26:46Z</time>
        <course>222.509014665891</course>
        <speed>4.75739716038254</speed>
      </trkpt>
      <trkpt lat="43.99253" lon="3.68836">
        <ele>199</ele>
        <time>2012-01-06T13:26:59Z</time>
        <course>212.827274269542</course>
        <speed>8.3100494392689</speed>
      </trkpt>
      <trkpt lat="43.99222" lon="3.68856">
        <ele>198</ele>
        <time>2012-01-06T13:27:04Z</time>
        <course>203.859249662249</course>
        <speed>8.31788361427216</speed>
      </trkpt>
      <trkpt lat="43.9917" lon="3.68879">
        <ele>198</ele>
        <time>2012-01-06T13:27:11Z</time>
        <course>180</course>
        <speed>8.30803738299154</speed>
      </trkpt>
      <trkpt lat="43.99146" lon="3.68879">
        <ele>198</ele>
        <time>2012-01-06T13:27:14Z</time>
        <course>162.591206329548</course>
        <speed>8.31786229889373</speed>
      </trkpt>
      <trkpt lat="43.99028" lon="3.68842">
        <ele>193</ele>
        <time>2012-01-06T13:27:31Z</time>
        <course>170.537856362664</course>
        <speed>8.31942173289712</speed>
      </trkpt>
      <trkpt lat="43.9886" lon="3.68814">
        <ele>184</ele>
        <time>2012-01-06T13:27:53Z</time>
        <course>157.932447328786</course>
        <speed>6.51867078812835</speed>
      </trkpt>
      <trkpt lat="43.98823" lon="3.68799">
        <ele>184</ele>
        <time>2012-01-06T13:28:00Z</time>
        <course>144.637952861208</course>
        <speed>6.52240190807531</speed>
      </trkpt>
      <trkpt lat="43.98792" lon="3.68777">
        <ele>185</ele>
        <time>2012-01-06T13:28:06Z</time>
        <course>140.984915005672</course>
        <speed>6.51917494778341</speed>
      </trkpt>
      <trkpt lat="43.98518" lon="3.68555">
        <ele>190</ele>
        <time>2012-01-06T13:29:00Z</time>
        <course>144.188878144629</course>
        <speed>8.31872473730427</speed>
      </trkpt>
      <trkpt lat="43.98439" lon="3.68498">
        <ele>187</ele>
        <time>2012-01-06T13:29:12Z</time>
        <course>153.434984579508</course>
        <speed>8.308011067235</speed>
      </trkpt>
      <trkpt lat="43.98411" lon="3.68484">
        <ele>187</ele>
        <time>2012-01-06T13:29:16Z</time>
        <course>166.86599183488</course>
        <speed>8.32575473359791</speed>
      </trkpt>
      <trkpt lat="43.98381" lon="3.68477">
        <ele>187</ele>
        <time>2012-01-06T13:29:20Z</time>
        <course>180</course>
        <speed>8.31914438522436</speed>
      </trkpt>
      <trkpt lat="43.98353" lon="3.68477">
        <ele>187</ele>
        <time>2012-01-06T13:29:23Z</time>
        <course>193.570428885037</course>
        <speed>8.32244999017732</speed>
      </trkpt>
      <trkpt lat="43.98324" lon="3.68484">
        <ele>187</ele>
        <time>2012-01-06T13:29:27Z</time>
        <course>209.604449820431</course>
        <speed>8.31827827441455</speed>
      </trkpt>
      <trkpt lat="43.9828" lon="3.68509">
        <ele>187</ele>
        <time>2012-01-06T13:29:34Z</time>
        <course>228.094060697224</course>
        <speed>6.3583485781701</speed>
      </trkpt>
      <trkpt lat="43.98245" lon="3.68548">
        <ele>187</ele>
        <time>2012-01-06T13:29:42Z</time>
        <course>239.858615190743</course>
        <speed>6.35734006799451</speed>
      </trkpt>
      <trkpt lat="43.98227" lon="3.68579">
        <ele>188</ele>
        <time>2012-01-06T13:29:47Z</time>
        <course>251.565049687692</course>
        <speed>6.35309274099644</speed>
      </trkpt>
      <trkpt lat="43.98209" lon="3.68633">
        <ele>189</ele>
        <time>2012-01-06T13:29:54Z</time>
        <course>260.340103480847</course>
        <speed>8.32263097345903</speed>
      </trkpt>
      <trkpt lat="43.98201" lon="3.6868">
        <ele>188</ele>
        <time>2012-01-06T13:29:59Z</time>
        <course>270.784818699028</course>
        <speed>8.31615091756715</speed>
      </trkpt>
      <trkpt lat="43.98202" lon="3.68753">
        <ele>187</ele>
        <time>2012-01-06T13:30:06Z</time>
        <course>279.462312637962</course>
        <speed>8.31711554127383</speed>
      </trkpt>
      <trkpt lat="43.9825" lon="3.69041">
        <ele>184</ele>
        <time>2012-01-06T13:30:34Z</time>
        <course>271.005089394109</course>
        <speed>4.08501873372517</speed>
      </trkpt>
      <trkpt lat="43.98251" lon="3.69098">
        <ele>186</ele>
        <time>2012-01-06T13:30:45Z</time>
        <course>254.744883711241</course>
        <speed>4.0859254460054</speed>
      </trkpt>
      <trkpt lat="43.98236" lon="3.69153">
        <ele>188</ele>
        <time>2012-01-06T13:30:57Z</time>
        <course>239.656750813043</course>
        <speed>4.08704066715506</speed>
      </trkpt>
      <trkpt lat="43.98212" lon="3.69194">
        <ele>191</ele>
        <time>2012-01-06T13:31:07Z</time>
        <course>227.489551403638</course>
        <speed>7.16094079267551</speed>
      </trkpt>
      <trkpt lat="43.98201" lon="3.69206">
        <ele>191</ele>
        <time>2012-01-06T13:31:09Z</time>
        <course>210.963752727185</course>
        <speed>7.17025440317574</speed>
      </trkpt>
      <trkpt lat="43.98176" lon="3.69221">
        <ele>191</ele>
        <time>2012-01-06T13:31:14Z</time>
        <course>188.615645126759</course>
        <speed>7.17643786666567</speed>
      </trkpt>
      <trkpt lat="43.98143" lon="3.69226">
        <ele>191</ele>
        <time>2012-01-06T13:31:19Z</time>
        <course>168.111350761713</course>
        <speed>7.17770759446719</speed>
      </trkpt>
      <trkpt lat="43.98105" lon="3.69218">
        <ele>192</ele>
        <time>2012-01-06T13:31:25Z</time>
        <course>157.380170067154</course>
        <speed>8.31591459114262</speed>
      </trkpt>
      <trkpt lat="43.98045" lon="3.69193">
        <ele>192</ele>
        <time>2012-01-06T13:31:33Z</time>
        <course>146.309998461892</course>
        <speed>8.31711883775715</speed>
      </trkpt>
      <trkpt lat="43.98012" lon="3.69171">
        <ele>192</ele>
        <time>2012-01-06T13:31:38Z</time>
        <course>137.689914600815</course>
        <speed>8.31553439463393</speed>
      </trkpt>
      <trkpt lat="43.97934" lon="3.691">
        <ele>192</ele>
        <time>2012-01-06T13:31:50Z</time>
        <course>124.562749512284</course>
        <speed>7.30398918022886</speed>
      </trkpt>
      <trkpt lat="43.97872" lon="3.6901">
        <ele>192</ele>
        <time>2012-01-06T13:32:04Z</time>
        <course>118.610670438449</course>
        <speed>7.30934270308931</speed>
      </trkpt>
      <trkpt lat="43.97848" lon="3.68966">
        <ele>193</ele>
        <time>2012-01-06T13:32:10Z</time>
        <course>110.100919282681</course>
        <speed>8.31948591183458</speed>
      </trkpt>
      <trkpt lat="43.97762" lon="3.68731">
        <ele>186</ele>
        <time>2012-01-06T13:32:35Z</time>
        <course>117.324246355641</course>
        <speed>8.31880809715457</speed>
      </trkpt>
      <trkpt lat="43.97731" lon="3.68671">
        <ele>184</ele>
        <time>2012-01-06T13:32:42Z</time>
        <course>127.69462888029</course>
        <speed>8.32686991199866</speed>
      </trkpt>
      <trkpt lat="43.97714" lon="3.68649">
        <ele>184</ele>
        <time>2012-01-06T13:32:46Z</time>
        <course>145.305248370421</course>
        <speed>8.31909451032713</speed>
      </trkpt>
      <trkpt lat="43.97688" lon="3.68631">
        <ele>184</ele>
        <time>2012-01-06T13:32:49Z</time>
        <course>168.440062372828</course>
        <speed>8.31980308809244</speed>
      </trkpt>
      <trkpt lat="43.97644" lon="3.68622">
        <ele>182</ele>
        <time>2012-01-06T13:32:55Z</time>
        <course>186.115389291435</course>
        <speed>8.32158557755562</speed>
      </trkpt>
      <trkpt lat="43.97616" lon="3.68625">
        <ele>181</ele>
        <time>2012-01-06T13:32:59Z</time>
        <course>198.777453025016</course>
        <speed>8.319845784845</speed>
      </trkpt>
      <trkpt lat="43.97416" lon="3.68693">
        <ele>176</ele>
        <time>2012-01-06T13:33:27Z</time>
        <course>205.640162328769</course>
        <speed>6.17452343153482</speed>
      </trkpt>
      <trkpt lat="43.97366" lon="3.68717">
        <ele>177</ele>
        <time>2012-01-06T13:33:36Z</time>
        <course>229.084397540022</course>
        <speed>6.17653310423122</speed>
      </trkpt>
      <trkpt lat="43.97327" lon="3.68762">
        <ele>178</ele>
        <time>2012-01-06T13:33:45Z</time>
        <course>232.494090701639</course>
        <speed>5.55936625211207</speed>
      </trkpt>
      <trkpt lat="43.97195" lon="3.68934">
        <ele>183</ele>
        <time>2012-01-06T13:34:21Z</time>
        <course>235.302886009143</course>
        <speed>8.31927804251775</speed>
      </trkpt>
      <trkpt lat="43.97105" lon="3.69064">
        <ele>181</ele>
        <time>2012-01-06T13:34:39Z</time>
        <course>238.975159203369</course>
        <speed>8.31655305744334</speed>
      </trkpt>
      <trkpt lat="43.97019" lon="3.69207">
        <ele>177</ele>
        <time>2012-01-06T13:34:57Z</time>
        <course>233.127934678279</course>
        <speed>5.82069982877221</speed>
      </trkpt>
      <trkpt lat="43.96995" lon="3.69239">
        <ele>177</ele>
        <time>2012-01-06T13:35:03Z</time>
        <course>224.997720260264</course>
        <speed>5.82581575740851</speed>
      </trkpt>
      <trkpt lat="43.96977" lon="3.69257">
        <ele>178</ele>
        <time>2012-01-06T13:35:07Z</time>
        <course>209.246820688478</course>
        <speed>5.81580670782166</speed>
      </trkpt>
      <trkpt lat="43.96952" lon="3.69271">
        <ele>178</ele>
        <time>2012-01-06T13:35:12Z</time>
        <course>185.314084861138</course>
        <speed>5.81878078601409</speed>
      </trkpt>
      <trkpt lat="43.96909" lon="3.69275">
        <ele>180</ele>
        <time>2012-01-06T13:35:21Z</time>
        <course>159.970850742087</course>
        <speed>8.31723312629937</speed>
      </trkpt>
      <trkpt lat="43.96813" lon="3.6924">
        <ele>179</ele>
        <time>2012-01-06T13:35:34Z</time>
        <course>151.846479408275</course>
        <speed>8.32148127143357</speed>
      </trkpt>
      <trkpt lat="43.96742" lon="3.69202">
        <ele>179</ele>
        <time>2012-01-06T13:35:44Z</time>
        <course>146.692447046364</course>
        <speed>8.32160902956034</speed>
      </trkpt>
      <trkpt lat="43.96707" lon="3.69179">
        <ele>179</ele>
        <time>2012-01-06T13:35:49Z</time>
        <course>133.073023407691</course>
        <speed>8.31778543091636</speed>
      </trkpt>
      <trkpt lat="43.96664" lon="3.69133">
        <ele>176</ele>
        <time>2012-01-06T13:35:57Z</time>
        <course>122.474565012165</course>
        <speed>8.3088193303342</speed>
      </trkpt>
      <trkpt lat="43.96643" lon="3.691">
        <ele>175</ele>
        <time>2012-01-06T13:36:01Z</time>
        <course>111.450481127483</course>
        <speed>8.32386870658083</speed>
      </trkpt>
      <trkpt lat="43.96621" lon="3.69044">
        <ele>173</ele>
        <time>2012-01-06T13:36:07Z</time>
        <course>101.391284487576</course>
        <speed>8.31716824039868</speed>
      </trkpt>
      <trkpt lat="43.96593" lon="3.68905">
        <ele>168</ele>
        <time>2012-01-06T13:36:21Z</time>
        <course>63.4319125793583</course>
        <speed>8.34715391451027</speed>
      </trkpt>
      <trkpt lat="43.96596" lon="3.68899">
        <ele>167</ele>
        <time>2012-01-06T13:36:21Z</time>
        <course>99.6902527688529</course>
        <speed>8.32130605668221</speed>
      </trkpt>
      <trkpt lat="43.96589" lon="3.68858">
        <ele>167</ele>
        <time>2012-01-06T13:36:26Z</time>
        <course>108.437355784899</course>
        <speed>8.30635826718379</speed>
      </trkpt>
      <trkpt lat="43.96583" lon="3.6884">
        <ele>167</ele>
        <time>2012-01-06T13:36:27Z</time>
        <course>117.353212248954</course>
        <speed>8.32708305607987</speed>
      </trkpt>
      <trkpt lat="43.96568" lon="3.68811">
        <ele>167</ele>
        <time>2012-01-06T13:36:31Z</time>
        <course>139.767709163567</course>
        <speed>8.31143397776952</speed>
      </trkpt>
      <trkpt lat="43.96542" lon="3.68789">
        <ele>167</ele>
        <time>2012-01-06T13:36:35Z</time>
        <course>180</course>
        <speed>4.60216432862944</speed>
      </trkpt>
      <trkpt lat="43.9648" lon="3.68789">
        <ele>169</ele>
        <time>2012-01-06T13:36:50Z</time>
        <course>233.125864894448</course>
        <speed>4.62037757126382</speed>
      </trkpt>
      <trkpt lat="43.96477" lon="3.68793">
        <ele>169</ele>
        <time>2012-01-06T13:36:51Z</time>
        <course>185.078791378397</course>
        <speed>4.60112379438178</speed>
      </trkpt>
      <trkpt lat="43.96432" lon="3.68797">
        <ele>172</ele>
        <time>2012-01-06T13:37:02Z</time>
        <course>207.915354969183</course>
        <speed>7.27373260299805</speed>
      </trkpt>
      <trkpt lat="43.96315" lon="3.68859">
        <ele>173</ele>
        <time>2012-01-06T13:37:21Z</time>
        <course>190.927223598971</course>
        <speed>6.67787271680867</speed>
      </trkpt>
      <trkpt lat="43.9617" lon="3.68887">
        <ele>175</ele>
        <time>2012-01-06T13:37:45Z</time>
        <course>177.8394022585</course>
        <speed>5.93306363971406</speed>
      </trkpt>
      <trkpt lat="43.96117" lon="3.68885">
        <ele>176</ele>
        <time>2012-01-06T13:37:55Z</time>
        <course>163.499214886445</course>
        <speed>5.93368989657304</speed>
      </trkpt>
      <trkpt lat="43.9609" lon="3.68877">
        <ele>176</ele>
        <time>2012-01-06T13:38:00Z</time>
        <course>146.316320680614</course>
        <speed>5.92796151734607</speed>
      </trkpt>
      <trkpt lat="43.96042" lon="3.68845">
        <ele>178</ele>
        <time>2012-01-06T13:38:10Z</time>
        <course>139.851299943264</course>
        <speed>8.32059024478658</speed>
      </trkpt>
      <trkpt lat="43.95978" lon="3.68791">
        <ele>176</ele>
        <time>2012-01-06T13:38:20Z</time>
        <course>135.279839964377</course>
        <speed>8.3188079779672</speed>
      </trkpt>
      <trkpt lat="43.95872" lon="3.68686">
        <ele>174</ele>
        <time>2012-01-06T13:38:38Z</time>
        <course>157.073751914691</course>
        <speed>5.9334618146696</speed>
      </trkpt>
      <trkpt lat="43.95846" lon="3.68675">
        <ele>174</ele>
        <time>2012-01-06T13:38:43Z</time>
        <course>170.220385963977</course>
        <speed>5.93638763689799</speed>
      </trkpt>
      <trkpt lat="43.95817" lon="3.6867">
        <ele>175</ele>
        <time>2012-01-06T13:38:48Z</time>
        <course>191.020120477253</course>
        <speed>5.93403727714878</speed>
      </trkpt>
      <trkpt lat="43.9574" lon="3.68685">
        <ele>177</ele>
        <time>2012-01-06T13:39:03Z</time>
        <course>184.287742745222</course>
        <speed>6.63873721321709</speed>
      </trkpt>
      <trkpt lat="43.9566" lon="3.68691">
        <ele>178</ele>
        <time>2012-01-06T13:39:16Z</time>
        <course>189.036237068282</course>
        <speed>6.63836276037616</speed>
      </trkpt>
      <trkpt lat="43.95528" lon="3.68712">
        <ele>180</ele>
        <time>2012-01-06T13:39:39Z</time>
        <course>166.509285327488</course>
        <speed>8.31609834384493</speed>
      </trkpt>
      <trkpt lat="43.95453" lon="3.68694">
        <ele>178</ele>
        <time>2012-01-06T13:39:49Z</time>
        <course>153.979421149514</course>
        <speed>8.31668672178817</speed>
      </trkpt>
      <trkpt lat="43.9541" lon="3.68673">
        <ele>178</ele>
        <time>2012-01-06T13:39:55Z</time>
        <course>141.253781380265</course>
        <speed>8.3218196559523</speed>
      </trkpt>
      <trkpt lat="43.95339" lon="3.68616">
        <ele>172</ele>
        <time>2012-01-06T13:40:06Z</time>
        <course>147.106144747409</course>
        <speed>8.31358244041497</speed>
      </trkpt>
      <trkpt lat="43.95288" lon="3.68583">
        <ele>169</ele>
        <time>2012-01-06T13:40:13Z</time>
        <course>153.822166628928</course>
        <speed>8.32248974041889</speed>
      </trkpt>
      <trkpt lat="43.95227" lon="3.68553">
        <ele>167</ele>
        <time>2012-01-06T13:40:22Z</time>
        <course>163.933580585015</course>
        <speed>8.3175730208363</speed>
      </trkpt>
      <trkpt lat="43.95168" lon="3.68536">
        <ele>166</ele>
        <time>2012-01-06T13:40:30Z</time>
        <course>169.001856254229</course>
        <speed>7.14082302662909</speed>
      </trkpt>
      <trkpt lat="43.9506" lon="3.68515">
        <ele>167</ele>
        <time>2012-01-06T13:40:47Z</time>
        <course>155.135326884033</course>
        <speed>8.31747208378822</speed>
      </trkpt>
      <trkpt lat="43.94812" lon="3.684">
        <ele>165</ele>
        <time>2012-01-06T13:41:22Z</time>
        <course>158.397065883331</course>
        <speed>8.32107536935718</speed>
      </trkpt>
      <trkpt lat="43.94759" lon="3.68379">
        <ele>162</ele>
        <time>2012-01-06T13:41:29Z</time>
        <course>170.079751242723</course>
        <speed>8.31158011629037</speed>
      </trkpt>
      <trkpt lat="43.94719" lon="3.68372">
        <ele>161</ele>
        <time>2012-01-06T13:41:35Z</time>
        <course>206.550636833337</course>
        <speed>3.49604965914101</speed>
      </trkpt>
      <trkpt lat="43.94687" lon="3.68388">
        <ele>163</ele>
        <time>2012-01-06T13:41:45Z</time>
        <course>232.107208718362</course>
        <speed>3.49434421229519</speed>
      </trkpt>
      <trkpt lat="43.94666" lon="3.68415">
        <ele>165</ele>
        <time>2012-01-06T13:41:54Z</time>
        <course>244.910290165547</course>
        <speed>3.49469716218918</speed>
      </trkpt>
      <trkpt lat="43.94615" lon="3.68524">
        <ele>173</ele>
        <time>2012-01-06T13:42:24Z</time>
        <course>254.280888932716</course>
        <speed>4.61946139766095</speed>
      </trkpt>
      <trkpt lat="43.94597" lon="3.68588">
        <ele>175</ele>
        <time>2012-01-06T13:42:36Z</time>
        <course>264.569331286117</course>
        <speed>4.6194782779305</speed>
      </trkpt>
      <trkpt lat="43.9458" lon="3.68767">
        <ele>181</ele>
        <time>2012-01-06T13:43:07Z</time>
        <course>259.687839854024</course>
        <speed>2.93942379633718</speed>
      </trkpt>
      <trkpt lat="43.9457" lon="3.68822">
        <ele>185</ele>
        <time>2012-01-06T13:43:23Z</time>
        <course>246.787001269349</course>
        <speed>2.93801670440873</speed>
      </trkpt>
      <trkpt lat="43.94552" lon="3.68864">
        <ele>188</ele>
        <time>2012-01-06T13:43:36Z</time>
        <course>236.911007934662</course>
        <speed>2.93950957953396</speed>
      </trkpt>
      <trkpt lat="43.94524" lon="3.68907">
        <ele>193</ele>
        <time>2012-01-06T13:43:52Z</time>
        <course>217.8556744147</course>
        <speed>8.30592241800859</speed>
      </trkpt>
      <trkpt lat="43.94506" lon="3.68921">
        <ele>191</ele>
        <time>2012-01-06T13:43:55Z</time>
        <course>197.580714933883</course>
        <speed>8.31518941604469</speed>
      </trkpt>
      <trkpt lat="43.94465" lon="3.68934">
        <ele>188</ele>
        <time>2012-01-06T13:44:00Z</time>
        <course>185.706508950394</course>
        <speed>8.31400452070784</speed>
      </trkpt>
      <trkpt lat="43.94435" lon="3.68937">
        <ele>187</ele>
        <time>2012-01-06T13:44:04Z</time>
        <course>176.549317234688</course>
        <speed>8.31855671800572</speed>
      </trkpt>
      <trkpt lat="43.94319" lon="3.6893">
        <ele>175</ele>
        <time>2012-01-06T13:44:20Z</time>
        <course>190.483411959096</course>
        <speed>8.31536710451633</speed>
      </trkpt>
      <trkpt lat="43.94265" lon="3.6894">
        <ele>174</ele>
        <time>2012-01-06T13:44:27Z</time>
        <course>198.421267117244</course>
        <speed>8.31096484322299</speed>
      </trkpt>
      <trkpt lat="43.94241" lon="3.68948">
        <ele>174</ele>
        <time>2012-01-06T13:44:30Z</time>
        <course>206.813893985388</course>
        <speed>8.31800319346297</speed>
      </trkpt>
      <trkpt lat="43.94071" lon="3.69034">
        <ele>173</ele>
        <time>2012-01-06T13:44:55Z</time>
        <course>194.731138672825</course>
        <speed>8.31276544857711</speed>
      </trkpt>
      <trkpt lat="43.94033" lon="3.69044">
        <ele>170</ele>
        <time>2012-01-06T13:45:00Z</time>
        <course>180</course>
        <speed>8.3191443850337</speed>
      </trkpt>
      <trkpt lat="43.93921" lon="3.69044">
        <ele>165</ele>
        <time>2012-01-06T13:45:15Z</time>
        <course>190.774426135353</course>
        <speed>8.32285187036447</speed>
      </trkpt>
      <trkpt lat="43.939" lon="3.69048">
        <ele>164</ele>
        <time>2012-01-06T13:45:18Z</time>
        <course>201.78275245558</course>
        <speed>8.29934647234946</speed>
      </trkpt>
      <trkpt lat="43.93885" lon="3.69054">
        <ele>163</ele>
        <time>2012-01-06T13:45:20Z</time>
        <course>221.959793167229</course>
        <speed>8.31055093403695</speed>
      </trkpt>
      <trkpt lat="43.93855" lon="3.69081">
        <ele>162</ele>
        <time>2012-01-06T13:45:24Z</time>
        <course>244.632035374779</course>
        <speed>8.30934626317677</speed>
      </trkpt>
      <trkpt lat="43.93837" lon="3.69119">
        <ele>162</ele>
        <time>2012-01-06T13:45:29Z</time>
        <course>259.204986412276</course>
        <speed>4.32909162280731</speed>
      </trkpt>
      <trkpt lat="43.93829" lon="3.69161">
        <ele>163</ele>
        <time>2012-01-06T13:45:37Z</time>
        <course>268.552974507495</course>
        <speed>4.33079793844478</speed>
      </trkpt>
      <trkpt lat="43.93826" lon="3.6928">
        <ele>168</ele>
        <time>2012-01-06T13:45:59Z</time>
        <course>259.148810337027</course>
        <speed>7.01164801700485</speed>
      </trkpt>
      <trkpt lat="43.93817" lon="3.69327">
        <ele>168</ele>
        <time>2012-01-06T13:46:04Z</time>
        <course>249.755954722537</course>
        <speed>7.01331931714483</speed>
      </trkpt>
      <trkpt lat="43.93789" lon="3.69403">
        <ele>169</ele>
        <time>2012-01-06T13:46:14Z</time>
        <course>245.53392855462</course>
        <speed>8.31368494676218</speed>
      </trkpt>
      <trkpt lat="43.93764" lon="3.69458">
        <ele>168</ele>
        <time>2012-01-06T13:46:20Z</time>
        <course>241.087399812218</course>
        <speed>8.31667358605247</speed>
      </trkpt>
      <trkpt lat="43.937" lon="3.69574">
        <ele>168</ele>
        <time>2012-01-06T13:46:34Z</time>
        <course>235.14674914852</course>
        <speed>8.3172260396907</speed>
      </trkpt>
      <trkpt lat="43.93652" lon="3.69643">
        <ele>164</ele>
        <time>2012-01-06T13:46:44Z</time>
        <course>240.158463167753</course>
        <speed>8.31933150592433</speed>
      </trkpt>
      <trkpt lat="43.93601" lon="3.69732">
        <ele>161</ele>
        <time>2012-01-06T13:46:55Z</time>
        <course>232.400782417203</course>
        <speed>8.31767208886949</speed>
      </trkpt>
      <trkpt lat="43.93561" lon="3.69784">
        <ele>159</ele>
        <time>2012-01-06T13:47:02Z</time>
        <course>238.392094247774</course>
        <speed>8.31586684919965</speed>
      </trkpt>
      <trkpt lat="43.93494" lon="3.69893">
        <ele>158</ele>
        <time>2012-01-06T13:47:16Z</time>
        <course>234.919191008838</course>
        <speed>8.31632489952931</speed>
      </trkpt>
      <trkpt lat="43.93447" lon="3.6996">
        <ele>157</ele>
        <time>2012-01-06T13:47:25Z</time>
        <course>245.287706817434</course>
        <speed>8.32008338552924</speed>
      </trkpt>
      <trkpt lat="43.93373" lon="3.70121">
        <ele>157</ele>
        <time>2012-01-06T13:47:43Z</time>
        <course>251.139589590374</course>
        <speed>8.31673193995028</speed>
      </trkpt>
      <trkpt lat="43.93344" lon="3.70206">
        <ele>155</ele>
        <time>2012-01-06T13:47:52Z</time>
        <course>244.312323007652</course>
        <speed>8.31504879436471</speed>
      </trkpt>
      <trkpt lat="43.93295" lon="3.70308">
        <ele>154</ele>
        <time>2012-01-06T13:48:04Z</time>
        <course>235.271690518668</course>
        <speed>8.31729210700145</speed>
      </trkpt>
      <trkpt lat="43.93277" lon="3.70334">
        <ele>153</ele>
        <time>2012-01-06T13:48:07Z</time>
        <course>221.784862801943</course>
        <speed>8.31659851755349</speed>
      </trkpt>
      <trkpt lat="43.93258" lon="3.70351">
        <ele>153</ele>
        <time>2012-01-06T13:48:10Z</time>
        <course>217.135206758604</course>
        <speed>8.31861505003744</speed>
      </trkpt>
      <trkpt lat="43.93167" lon="3.7042">
        <ele>153</ele>
        <time>2012-01-06T13:48:24Z</time>
        <course>173.667894626024</course>
        <speed>8.29154250562222</speed>
      </trkpt>
      <trkpt lat="43.93158" lon="3.70419">
        <ele>152</ele>
        <time>2012-01-06T13:48:26Z</time>
        <course>252.624723027367</course>
        <speed>8.30804711371283</speed>
      </trkpt>
      <trkpt lat="43.93153" lon="3.70435">
        <ele>152</ele>
        <time>2012-01-06T13:48:27Z</time>
        <course>219.252580584422</course>
        <speed>8.31287363462252</speed>
      </trkpt>
      <trkpt lat="43.9312" lon="3.70462">
        <ele>151</ele>
        <time>2012-01-06T13:48:32Z</time>
        <course>227.564317164961</course>
        <speed>8.31344134336292</speed>
      </trkpt>
      <trkpt lat="43.93078" lon="3.70508">
        <ele>151</ele>
        <time>2012-01-06T13:48:39Z</time>
        <course>220.198597054994</course>
        <speed>8.33322730049</speed>
      </trkpt>
      <trkpt lat="43.93065" lon="3.70519">
        <ele>151</ele>
        <time>2012-01-06T13:48:41Z</time>
        <course>192.079016770385</course>
        <speed>8.32855063114838</speed>
      </trkpt>
      <trkpt lat="43.93051" lon="3.70522">
        <ele>151</ele>
        <time>2012-01-06T13:48:43Z</time>
        <course>156.066134501253</course>
        <speed>8.33381807074941</speed>
      </trkpt>
      <trkpt lat="43.93042" lon="3.70518">
        <ele>151</ele>
        <time>2012-01-06T13:48:45Z</time>
        <course>198.411736672912</course>
        <speed>8.29430123102934</speed>
      </trkpt>
      <trkpt lat="43.93033" lon="3.70521">
        <ele>151</ele>
        <time>2012-01-06T13:48:46Z</time>
        <course>232.393730202732</course>
        <speed>8.31803335652997</speed>
      </trkpt>
      <trkpt lat="43.93023" lon="3.70534">
        <ele>151</ele>
        <time>2012-01-06T13:48:48Z</time>
        <course>260.524886051938</course>
        <speed>8.35342445752141</speed>
      </trkpt>
      <trkpt lat="43.93021" lon="3.70546">
        <ele>151</ele>
        <time>2012-01-06T13:48:49Z</time>
        <course>280.798275431231</course>
        <speed>8.31747161687918</speed>
      </trkpt>
      <trkpt lat="43.93025" lon="3.70567">
        <ele>151</ele>
        <time>2012-01-06T13:48:51Z</time>
        <course>320.232370683806</course>
        <speed>8.31631130739962</speed>
      </trkpt>
      <trkpt lat="43.93037" lon="3.70577">
        <ele>151</ele>
        <time>2012-01-06T13:48:53Z</time>
        <course>278.140504223136</course>
        <speed>8.30693810788745</speed>
      </trkpt>
      <trkpt lat="43.93041" lon="3.70605">
        <ele>151</ele>
        <time>2012-01-06T13:48:56Z</time>
        <course>262.603297189009</course>
        <speed>8.31608316200965</speed>
      </trkpt>
      <trkpt lat="43.93034" lon="3.70659">
        <ele>151</ele>
        <time>2012-01-06T13:49:01Z</time>
        <course>275.409939892063</course>
        <speed>8.31872858850494</speed>
      </trkpt>
      <trkpt lat="43.93041" lon="3.70733">
        <ele>149</ele>
        <time>2012-01-06T13:49:08Z</time>
        <course>290.770551794415</course>
        <speed>8.32324065777052</speed>
      </trkpt>
      <trkpt lat="43.93066" lon="3.70799">
        <ele>149</ele>
        <time>2012-01-06T13:49:15Z</time>
        <course>300.99423031264</course>
        <speed>8.31947390499428</speed>
      </trkpt>
      <trkpt lat="43.93171" lon="3.70974">
        <ele>148</ele>
        <time>2012-01-06T13:49:37Z</time>
        <course>297.305529391156</course>
        <speed>8.32098562784353</speed>
      </trkpt>
      <trkpt lat="43.93204" lon="3.71038">
        <ele>147</ele>
        <time>2012-01-06T13:49:45Z</time>
        <course>288.456344074355</course>
        <speed>8.30403624335826</speed>
      </trkpt>
      <trkpt lat="43.93211" lon="3.71059">
        <ele>147</ele>
        <time>2012-01-06T13:49:47Z</time>
        <course>275.446844938543</course>
        <speed>8.30953178608302</speed>
      </trkpt>
      <trkpt lat="43.93213" lon="3.7108">
        <ele>147</ele>
        <time>2012-01-06T13:49:49Z</time>
        <course>262.865867310646</course>
        <speed>8.330353305493</speed>
      </trkpt>
      <trkpt lat="43.93211" lon="3.71096">
        <ele>147</ele>
        <time>2012-01-06T13:49:51Z</time>
        <course>245.528469482975</course>
        <speed>6.36663465107014</speed>
      </trkpt>
      <trkpt lat="43.93201" lon="3.71118">
        <ele>147</ele>
        <time>2012-01-06T13:49:54Z</time>
        <course>219.834519981911</course>
        <speed>6.37504571144932</speed>
      </trkpt>
      <trkpt lat="43.93116" lon="3.71189">
        <ele>149</ele>
        <time>2012-01-06T13:50:11Z</time>
        <course>269.452090432303</course>
        <speed>4.74770420331884</speed>
      </trkpt>
      <trkpt lat="43.93115" lon="3.71294">
        <ele>152</ele>
        <time>2012-01-06T13:50:29Z</time>
        <course>276.143854076151</course>
        <speed>4.74756152795448</speed>
      </trkpt>
      <trkpt lat="43.93125" lon="3.71387">
        <ele>155</ele>
        <time>2012-01-06T13:50:45Z</time>
        <course>269.998859828628</course>
        <speed>6.97429835541413</speed>
      </trkpt>
      <trkpt lat="43.93125" lon="3.71465">
        <ele>155</ele>
        <time>2012-01-06T13:50:54Z</time>
        <course>266.628410286148</course>
        <speed>6.97597704008317</speed>
      </trkpt>
      <trkpt lat="43.93122" lon="3.71516">
        <ele>156</ele>
        <time>2012-01-06T13:50:59Z</time>
        <course>258.062766520408</course>
        <speed>7.48294309829246</speed>
      </trkpt>
      <trkpt lat="43.93103" lon="3.71606">
        <ele>156</ele>
        <time>2012-01-06T13:51:10Z</time>
        <course>263.796092155804</course>
        <speed>7.48380778964082</speed>
      </trkpt>
      <trkpt lat="43.93089" lon="3.71735">
        <ele>157</ele>
        <time>2012-01-06T13:51:23Z</time>
        <course>255.086225322006</course>
        <speed>8.31849371263983</speed>
      </trkpt>
      <trkpt lat="43.93064" lon="3.71829">
        <ele>156</ele>
        <time>2012-01-06T13:51:33Z</time>
        <course>250.31916150601</course>
        <speed>8.31866734958653</speed>
      </trkpt>
      <trkpt lat="43.93004" lon="3.71997">
        <ele>156</ele>
        <time>2012-01-06T13:51:51Z</time>
        <course>259.834621850057</course>
        <speed>8.31740282456896</speed>
      </trkpt>
      <trkpt lat="43.92958" lon="3.72254">
        <ele>153</ele>
        <time>2012-01-06T13:52:17Z</time>
        <course>240.7679460751</course>
        <speed>8.31882056119629</speed>
      </trkpt>
      <trkpt lat="43.92939" lon="3.72288">
        <ele>153</ele>
        <time>2012-01-06T13:52:21Z</time>
        <course>217.002910181774</course>
        <speed>8.31652893151836</speed>
      </trkpt>
      <trkpt lat="43.92886" lon="3.72328">
        <ele>153</ele>
        <time>2012-01-06T13:52:29Z</time>
        <course>236.271847557688</course>
        <speed>8.30349726188777</speed>
      </trkpt>
      <trkpt lat="43.92876" lon="3.72343">
        <ele>153</ele>
        <time>2012-01-06T13:52:31Z</time>
        <course>267.609899310703</course>
        <speed>8.31061290461644</speed>
      </trkpt>
      <trkpt lat="43.92874" lon="3.72391">
        <ele>153</ele>
        <time>2012-01-06T13:52:35Z</time>
        <course>276.080381922676</course>
        <speed>8.31985470285554</speed>
      </trkpt>
      <trkpt lat="43.92879" lon="3.72438">
        <ele>153</ele>
        <time>2012-01-06T13:52:40Z</time>
        <course>290.106864959823</course>
        <speed>8.32172219490271</speed>
      </trkpt>
      <trkpt lat="43.92913" lon="3.72531">
        <ele>153</ele>
        <time>2012-01-06T13:52:50Z</time>
        <course>286.192206809699</course>
        <speed>5.81351700377342</speed>
      </trkpt>
      <trkpt lat="43.92942" lon="3.72631">
        <ele>154</ele>
        <time>2012-01-06T13:53:05Z</time>
        <course>277.025225741061</course>
        <speed>5.81193069844955</speed>
      </trkpt>
      <trkpt lat="43.9295" lon="3.72696">
        <ele>156</ele>
        <time>2012-01-06T13:53:14Z</time>
        <course>282.370411938397</course>
        <speed>8.31722799992514</speed>
      </trkpt>
      <trkpt lat="43.92973" lon="3.72801">
        <ele>153</ele>
        <time>2012-01-06T13:53:24Z</time>
        <course>276.174707231487</course>
        <speed>8.31719654684541</speed>
      </trkpt>
      <trkpt lat="43.93001" lon="3.7306">
        <ele>149</ele>
        <time>2012-01-06T13:53:50Z</time>
        <course>295.671143276267</course>
        <speed>5.23818221242747</speed>
      </trkpt>
      <trkpt lat="43.93013" lon="3.73085">
        <ele>149</ele>
        <time>2012-01-06T13:53:54Z</time>
        <course>305.027483748219</course>
        <speed>5.2394542367422</speed>
      </trkpt>
      <trkpt lat="43.93055" lon="3.73145">
        <ele>151</ele>
        <time>2012-01-06T13:54:07Z</time>
        <course>283.9076326071</course>
        <speed>5.23905161354776</speed>
      </trkpt>
      <trkpt lat="43.93078" lon="3.73238">
        <ele>154</ele>
        <time>2012-01-06T13:54:22Z</time>
        <course>287.51610247706</course>
        <speed>7.07459824574164</speed>
      </trkpt>
      <trkpt lat="43.93107" lon="3.7333">
        <ele>154</ele>
        <time>2012-01-06T13:54:33Z</time>
        <course>279.938420293727</course>
        <speed>7.06906183712712</speed>
      </trkpt>
      <trkpt lat="43.93114" lon="3.7337">
        <ele>155</ele>
        <time>2012-01-06T13:54:38Z</time>
        <course>269.999165003985</course>
        <speed>8.3238463563633</speed>
      </trkpt>
      <trkpt lat="43.93114" lon="3.73427">
        <ele>155</ele>
        <time>2012-01-06T13:54:44Z</time>
        <course>256.059697568196</course>
        <speed>8.32105977290521</speed>
      </trkpt>
      <trkpt lat="43.93085" lon="3.73544">
        <ele>155</ele>
        <time>2012-01-06T13:54:55Z</time>
        <course>260.633562153266</course>
        <speed>6.05191320268432</speed>
      </trkpt>
      <trkpt lat="43.93071" lon="3.73629">
        <ele>156</ele>
        <time>2012-01-06T13:55:07Z</time>
        <course>271.246342891648</course>
        <speed>6.04743445836916</speed>
      </trkpt>
      <trkpt lat="43.93072" lon="3.73675">
        <ele>157</ele>
        <time>2012-01-06T13:55:13Z</time>
        <course>281.903744864584</course>
        <speed>5.1432928753988</speed>
      </trkpt>
      <trkpt lat="43.93076" lon="3.73694">
        <ele>157</ele>
        <time>2012-01-06T13:55:16Z</time>
        <course>296.59515912083</course>
        <speed>5.1410187250507</speed>
      </trkpt>
      <trkpt lat="43.93086" lon="3.73714">
        <ele>158</ele>
        <time>2012-01-06T13:55:20Z</time>
        <course>311.670813580281</course>
        <speed>5.14206636324263</speed>
      </trkpt>
      <trkpt lat="43.93102" lon="3.73732">
        <ele>158</ele>
        <time>2012-01-06T13:55:24Z</time>
        <course>317.986173250099</course>
        <speed>5.13702047898861</speed>
      </trkpt>
      <trkpt lat="43.93204" lon="3.73824">
        <ele>163</ele>
        <time>2012-01-06T13:55:51Z</time>
        <course>314.767394258026</course>
        <speed>5.39019423897729</speed>
      </trkpt>
      <trkpt lat="43.93311" lon="3.73932">
        <ele>167</ele>
        <time>2012-01-06T13:56:18Z</time>
        <course>317.495433567207</course>
        <speed>4.31642269072251</speed>
      </trkpt>
      <trkpt lat="43.93408" lon="3.74021">
        <ele>173</ele>
        <time>2012-01-06T13:56:48Z</time>
        <course>303.053962389356</course>
        <speed>4.93353605113212</speed>
      </trkpt>
      <trkpt lat="43.93421" lon="3.74041">
        <ele>173</ele>
        <time>2012-01-06T13:56:52Z</time>
        <course>287.987481914527</course>
        <speed>4.93872017385845</speed>
      </trkpt>
      <trkpt lat="43.93445" lon="3.74115">
        <ele>175</ele>
        <time>2012-01-06T13:57:05Z</time>
        <course>305.164585877678</course>
        <speed>4.93603969371179</speed>
      </trkpt>
      <trkpt lat="43.93464" lon="3.74142">
        <ele>177</ele>
        <time>2012-01-06T13:57:12Z</time>
        <course>345.978773576873</course>
        <speed>8.32141190832613</speed>
      </trkpt>
      <trkpt lat="43.93508" lon="3.74153">
        <ele>177</ele>
        <time>2012-01-06T13:57:18Z</time>
        <course>296.590454691822</course>
        <speed>8.32628696976811</speed>
      </trkpt>
      <trkpt lat="43.93513" lon="3.74163">
        <ele>177</ele>
        <time>2012-01-06T13:57:19Z</time>
        <course>264.2829543481</course>
        <speed>8.32868417462132</speed>
      </trkpt>
      <trkpt lat="43.93512" lon="3.74173">
        <ele>177</ele>
        <time>2012-01-06T13:57:20Z</time>
        <course>252.878187012129</course>
        <speed>8.3179881824132</speed>
      </trkpt>
      <trkpt lat="43.93488" lon="3.74251">
        <ele>177</ele>
        <time>2012-01-06T13:57:28Z</time>
        <course>273.818149348173</course>
        <speed>8.31340155953638</speed>
      </trkpt>
      <trkpt lat="43.93489" lon="3.74266">
        <ele>177</ele>
        <time>2012-01-06T13:57:29Z</time>
        <course>315.032041354569</course>
        <speed>4.36443477719224</speed>
      </trkpt>
      <trkpt lat="43.93497" lon="3.74274">
        <ele>177</ele>
        <time>2012-01-06T13:57:32Z</time>
        <course>352.732893084586</course>
        <speed>4.36691304187129</speed>
      </trkpt>
      <trkpt lat="43.93544" lon="3.7428">
        <ele>179</ele>
        <time>2012-01-06T13:57:44Z</time>
        <course>332.675433139939</course>
        <speed>4.36945709675311</speed>
      </trkpt>
      <trkpt lat="43.93573" lon="3.74295">
        <ele>181</ele>
        <time>2012-01-06T13:57:52Z</time>
        <course>7.34460163450941</course>
        <speed>4.36812950064625</speed>
      </trkpt>
      <trkpt lat="43.93604" lon="3.74291">
        <ele>183</ele>
        <time>2012-01-06T13:58:00Z</time>
        <course>17.15903961828</course>
        <speed>5.33318561139367</speed>
      </trkpt>
      <trkpt lat="43.93659" lon="3.74274">
        <ele>184</ele>
        <time>2012-01-06T13:58:11Z</time>
        <course>357.14052713656</course>
        <speed>5.33294981195199</speed>
      </trkpt>
      <trkpt lat="43.93699" lon="3.74276">
        <ele>186</ele>
        <time>2012-01-06T13:58:20Z</time>
        <course>340.67749979139</course>
        <speed>4.74326360460903</speed>
      </trkpt>
      <trkpt lat="43.93907" lon="3.74349">
        <ele>195</ele>
        <time>2012-01-06T13:59:10Z</time>
        <course>332.969504083688</course>
        <speed>6.12156322042959</speed>
      </trkpt>
      <trkpt lat="43.94048" lon="3.74421">
        <ele>198</ele>
        <time>2012-01-06T13:59:37Z</time>
        <course>330.333102711181</course>
        <speed>4.6821969696715</speed>
      </trkpt>
      <trkpt lat="43.94155" lon="3.74482">
        <ele>203</ele>
        <time>2012-01-06T14:00:05Z</time>
        <course>319.350282119463</course>
        <speed>4.95372939904323</speed>
      </trkpt>
      <trkpt lat="43.9429" lon="3.74598">
        <ele>209</ele>
        <time>2012-01-06T14:00:40Z</time>
        <course>299.649132050611</course>
        <speed>7.0520265639135</speed>
      </trkpt>
      <trkpt lat="43.94352" lon="3.74707">
        <ele>210</ele>
        <time>2012-01-06T14:00:56Z</time>
        <course>296.897942623658</course>
        <speed>8.31783207090392</speed>
      </trkpt>
      <trkpt lat="43.94425" lon="3.74851">
        <ele>209</ele>
        <time>2012-01-06T14:01:13Z</time>
        <course>277.67171428031</course>
        <speed>8.31533965765826</speed>
      </trkpt>
      <trkpt lat="43.94432" lon="3.74903">
        <ele>209</ele>
        <time>2012-01-06T14:01:18Z</time>
        <course>272.371711430303</course>
        <speed>8.3192268638049</speed>
      </trkpt>
      <trkpt lat="43.94439" lon="3.75072">
        <ele>209</ele>
        <time>2012-01-06T14:01:34Z</time>
        <course>282.102878606317</course>
        <speed>4.74103124187428</speed>
      </trkpt>
      <trkpt lat="43.94445" lon="3.751">
        <ele>209</ele>
        <time>2012-01-06T14:01:39Z</time>
        <course>290.819814358985</course>
        <speed>4.73647974156019</speed>
      </trkpt>
      <trkpt lat="43.94464" lon="3.7515">
        <ele>211</ele>
        <time>2012-01-06T14:01:49Z</time>
        <course>298.409532048087</course>
        <speed>4.739642653405</speed>
      </trkpt>
      <trkpt lat="43.94484" lon="3.75187">
        <ele>213</ele>
        <time>2012-01-06T14:01:57Z</time>
        <course>305.887982032479</course>
        <speed>7.03940570547153</speed>
      </trkpt>
      <trkpt lat="43.94531" lon="3.75252">
        <ele>213</ele>
        <time>2012-01-06T14:02:07Z</time>
        <course>288.864670707692</course>
        <speed>7.03579451457431</speed>
      </trkpt>
      <trkpt lat="43.94545" lon="3.75293">
        <ele>214</ele>
        <time>2012-01-06T14:02:12Z</time>
        <course>302.636569243313</course>
        <speed>4.78734117480701</speed>
      </trkpt>
      <trkpt lat="43.94561" lon="3.75318">
        <ele>214</ele>
        <time>2012-01-06T14:02:18Z</time>
        <course>287.888547391745</course>
        <speed>4.78896226619815</speed>
      </trkpt>
      <trkpt lat="43.94601" lon="3.75442">
        <ele>219</ele>
        <time>2012-01-06T14:02:41Z</time>
        <course>333.449944617074</course>
        <speed>6.24873802397233</speed>
      </trkpt>
      <trkpt lat="43.94611" lon="3.75447">
        <ele>219</ele>
        <time>2012-01-06T14:02:42Z</time>
        <course>360</course>
        <speed>6.23356097578014</speed>
      </trkpt>
      <trkpt lat="43.94634" lon="3.75447">
        <ele>219</ele>
        <time>2012-01-06T14:02:47Z</time>
        <course>269.85289542584</course>
        <speed>6.23320744796134</speed>
      </trkpt>
      <trkpt lat="43.94633" lon="3.75848">
        <ele>225</ele>
        <time>2012-01-06T14:03:38Z</time>
        <course>285.86077611658</course>
        <speed>8.32280054284547</speed>
      </trkpt>
      <trkpt lat="43.94656" lon="3.75929">
        <ele>224</ele>
        <time>2012-01-06T14:03:46Z</time>
        <course>293.713701515354</course>
        <speed>8.31940973781006</speed>
      </trkpt>
      <trkpt lat="43.94746" lon="3.76134">
        <ele>223</ele>
        <time>2012-01-06T14:04:09Z</time>
        <course>289.300670524006</course>
        <speed>8.31365344078154</speed>
      </trkpt>
      <trkpt lat="43.94753" lon="3.76154">
        <ele>222</ele>
        <time>2012-01-06T14:04:12Z</time>
        <course>278.750971936215</course>
        <speed>8.30880372091087</speed>
      </trkpt>
      <trkpt lat="43.94759" lon="3.76193">
        <ele>222</ele>
        <time>2012-01-06T14:04:15Z</time>
        <course>275.231900969327</course>
        <speed>8.31863092557646</speed>
      </trkpt>
      <trkpt lat="43.94902" lon="3.77751">
        <ele>207</ele>
        <time>2012-01-06T14:06:47Z</time>
        <course>274.906967720439</course>
        <speed>8.15598749908067</speed>
      </trkpt>
      <trkpt lat="43.95009" lon="3.78995">
        <ele>208</ele>
        <time>2012-01-06T14:08:49Z</time>
        <course>277.96072803636</course>
        <speed>6.39574358271698</speed>
      </trkpt>
      <trkpt lat="43.95022" lon="3.79088">
        <ele>209</ele>
        <time>2012-01-06T14:09:01Z</time>
        <course>283.439959282521</course>
        <speed>6.39347599445007</speed>
      </trkpt>
      <trkpt lat="43.95452" lon="3.80886">
        <ele>232</ele>
        <time>2012-01-06T14:12:58Z</time>
        <course>282.058207627529</course>
        <speed>8.31789904127702</speed>
      </trkpt>
      <trkpt lat="43.95621" lon="3.81677">
        <ele>220</ele>
        <time>2012-01-06T14:14:18Z</time>
        <course>283.014658090892</course>
        <speed>8.31755583569505</speed>
      </trkpt>
      <trkpt lat="43.95722" lon="3.82114">
        <ele>213</ele>
        <time>2012-01-06T14:15:02Z</time>
        <course>283.543220941735</course>
        <speed>8.31893141166807</speed>
      </trkpt>
      <trkpt lat="43.95874" lon="3.82745">
        <ele>200</ele>
        <time>2012-01-06T14:16:06Z</time>
        <course>276.282738106832</course>
        <speed>8.31694363365079</speed>
      </trkpt>
      <trkpt lat="43.95898" lon="3.82963">
        <ele>197</ele>
        <time>2012-01-06T14:16:27Z</time>
        <course>271.316689119293</course>
        <speed>8.31843142419538</speed>
      </trkpt>
      <trkpt lat="43.959" lon="3.8305">
        <ele>195</ele>
        <time>2012-01-06T14:16:35Z</time>
        <course>263.478207035149</course>
        <speed>8.31276961686595</speed>
      </trkpt>
      <trkpt lat="43.95896" lon="3.83085">
        <ele>194</ele>
        <time>2012-01-06T14:16:39Z</time>
        <course>256.289156572288</course>
        <speed>8.32371056582745</speed>
      </trkpt>
      <trkpt lat="43.95886" lon="3.83126">
        <ele>194</ele>
        <time>2012-01-06T14:16:43Z</time>
        <course>245.64032729161</course>
        <speed>8.31912179592741</speed>
      </trkpt>
      <trkpt lat="43.95843" lon="3.83221">
        <ele>191</ele>
        <time>2012-01-06T14:16:54Z</time>
        <course>255.198820603305</course>
        <speed>8.31647183772684</speed>
      </trkpt>
      <trkpt lat="43.95829" lon="3.83274">
        <ele>190</ele>
        <time>2012-01-06T14:16:59Z</time>
        <course>261.867241517028</course>
        <speed>8.32481555936586</speed>
      </trkpt>
      <trkpt lat="43.95822" lon="3.83323">
        <ele>189</ele>
        <time>2012-01-06T14:17:04Z</time>
        <course>267.170935836739</course>
        <speed>8.32077665266033</speed>
      </trkpt>
      <trkpt lat="43.95814" lon="3.83485">
        <ele>188</ele>
        <time>2012-01-06T14:17:20Z</time>
        <course>275.417428323996</course>
        <speed>8.31825045177709</speed>
      </trkpt>
      <trkpt lat="43.95879" lon="3.8417">
        <ele>179</ele>
        <time>2012-01-06T14:18:26Z</time>
        <course>277.172643609535</course>
        <speed>8.3184446547908</speed>
      </trkpt>
      <trkpt lat="43.95898" lon="3.84321">
        <ele>177</ele>
        <time>2012-01-06T14:18:41Z</time>
        <course>282.383733400488</course>
        <speed>8.32187798489066</speed>
      </trkpt>
      <trkpt lat="43.95907" lon="3.84362">
        <ele>176</ele>
        <time>2012-01-06T14:18:45Z</time>
        <course>286.854369024353</course>
        <speed>8.31909977893275</speed>
      </trkpt>
      <trkpt lat="43.9598" lon="3.84603">
        <ele>175</ele>
        <time>2012-01-06T14:19:10Z</time>
        <course>301.729638659231</course>
        <speed>7.29424972679472</speed>
      </trkpt>
      <trkpt lat="43.96014" lon="3.84658">
        <ele>175</ele>
        <time>2012-01-06T14:19:18Z</time>
        <course>309.261118112524</course>
        <speed>7.29125993446832</speed>
      </trkpt>
      <trkpt lat="43.96166" lon="3.84844">
        <ele>177</ele>
        <time>2012-01-06T14:19:49Z</time>
        <course>297.76316173598</course>
        <speed>6.36738263072027</speed>
      </trkpt>
      <trkpt lat="43.96196" lon="3.84901">
        <ele>177</ele>
        <time>2012-01-06T14:19:58Z</time>
        <course>292.419793992879</course>
        <speed>6.36871794062455</speed>
      </trkpt>
      <trkpt lat="43.96229" lon="3.84981">
        <ele>179</ele>
        <time>2012-01-06T14:20:09Z</time>
        <course>295.993208015894</course>
        <speed>8.31875925350697</speed>
      </trkpt>
      <trkpt lat="43.96268" lon="3.85061">
        <ele>177</ele>
        <time>2012-01-06T14:20:19Z</time>
        <course>298.062435663109</course>
        <speed>8.31831663528971</speed>
      </trkpt>
      <trkpt lat="43.96389" lon="3.85288">
        <ele>175</ele>
        <time>2012-01-06T14:20:46Z</time>
        <course>294.626945846632</course>
        <speed>8.32062041857518</speed>
      </trkpt>
      <trkpt lat="43.96411" lon="3.85336">
        <ele>173</ele>
        <time>2012-01-06T14:20:51Z</time>
        <course>278.532049473457</course>
        <speed>8.33670304929576</speed>
      </trkpt>
      <trkpt lat="43.96414" lon="3.85356">
        <ele>173</ele>
        <time>2012-01-06T14:20:53Z</time>
        <course>228.36170300413</course>
        <speed>8.28881841794034</speed>
      </trkpt>
      <trkpt lat="43.96406" lon="3.85365">
        <ele>172</ele>
        <time>2012-01-06T14:20:55Z</time>
        <course>292.623176191991</course>
        <speed>8.33828506100209</speed>
      </trkpt>
      <trkpt lat="43.96411" lon="3.85377">
        <ele>172</ele>
        <time>2012-01-06T14:20:56Z</time>
        <course>246.497829830336</course>
        <speed>8.32999292436207</speed>
      </trkpt>
      <trkpt lat="43.96401" lon="3.854">
        <ele>172</ele>
        <time>2012-01-06T14:20:58Z</time>
        <course>231.301559432858</course>
        <speed>8.31867462512647</speed>
      </trkpt>
      <trkpt lat="43.96228" lon="3.85616">
        <ele>165</ele>
        <time>2012-01-06T14:21:30Z</time>
        <course>238.835298462505</course>
        <speed>8.31806945014115</speed>
      </trkpt>
      <trkpt lat="43.96202" lon="3.85659">
        <ele>164</ele>
        <time>2012-01-06T14:21:35Z</time>
        <course>171.871558163046</course>
        <speed>8.31852682780702</speed>
      </trkpt>
      <trkpt lat="43.96195" lon="3.85658">
        <ele>164</ele>
        <time>2012-01-06T14:21:36Z</time>
        <course>243.430134033463</course>
        <speed>8.32375276915363</speed>
      </trkpt>
      <trkpt lat="43.9619" lon="3.85668">
        <ele>164</ele>
        <time>2012-01-06T14:21:37Z</time>
        <course>225.584268786911</course>
        <speed>8.31516980422876</speed>
      </trkpt>
      <trkpt lat="43.96142" lon="3.85717">
        <ele>163</ele>
        <time>2012-01-06T14:21:45Z</time>
        <course>239.737766107767</course>
        <speed>8.3194115852074</speed>
      </trkpt>
      <trkpt lat="43.96114" lon="3.85765">
        <ele>162</ele>
        <time>2012-01-06T14:21:51Z</time>
        <course>226.629689753559</course>
        <speed>8.31440647789212</speed>
      </trkpt>
      <trkpt lat="43.96063" lon="3.85819">
        <ele>161</ele>
        <time>2012-01-06T14:21:59Z</time>
        <course>231.921822307089</course>
        <speed>8.31754612463423</speed>
      </trkpt>
      <trkpt lat="43.95904" lon="3.86022">
        <ele>159</ele>
        <time>2012-01-06T14:22:28Z</time>
        <course>222.605858608175</course>
        <speed>6.04162005321752</speed>
      </trkpt>
      <trkpt lat="43.95854" lon="3.86068">
        <ele>160</ele>
        <time>2012-01-06T14:22:39Z</time>
        <course>184.968318141727</course>
        <speed>6.03953308151554</speed>
      </trkpt>
      <trkpt lat="43.95831" lon="3.8607">
        <ele>160</ele>
        <time>2012-01-06T14:22:44Z</time>
        <course>165.967674968862</course>
        <speed>6.04848404655058</speed>
      </trkpt>
      <trkpt lat="43.95819" lon="3.86067">
        <ele>161</ele>
        <time>2012-01-06T14:22:46Z</time>
        <course>209.047475055229</course>
        <speed>8.34951603811328</speed>
      </trkpt>
      <trkpt lat="43.9581" lon="3.86072">
        <ele>160</ele>
        <time>2012-01-06T14:22:47Z</time>
        <course>248.743685949292</course>
        <speed>8.30704334353305</speed>
      </trkpt>
      <trkpt lat="43.95803" lon="3.8609">
        <ele>160</ele>
        <time>2012-01-06T14:22:49Z</time>
        <course>235.94589631193</course>
        <speed>8.31791406407185</speed>
      </trkpt>
      <trkpt lat="43.95778" lon="3.86127">
        <ele>159</ele>
        <time>2012-01-06T14:22:54Z</time>
        <course>258.089249728018</course>
        <speed>8.32003150947666</speed>
      </trkpt>
      <trkpt lat="43.95743" lon="3.86293">
        <ele>157</ele>
        <time>2012-01-06T14:23:11Z</time>
        <course>260.004506331132</course>
        <speed>8.31698329729008</speed>
      </trkpt>
      <trkpt lat="43.95709" lon="3.86486">
        <ele>156</ele>
        <time>2012-01-06T14:23:30Z</time>
        <course>257.580677942335</course>
        <speed>8.31765440688206</speed>
      </trkpt>
      <trkpt lat="43.95674" lon="3.86645">
        <ele>155</ele>
        <time>2012-01-06T14:23:46Z</time>
        <course>252.736012397178</course>
        <speed>8.31921782291315</speed>
      </trkpt>
      <trkpt lat="43.95601" lon="3.8688">
        <ele>152</ele>
        <time>2012-01-06T14:24:10Z</time>
        <course>261.698917584525</course>
        <speed>8.31769022701149</speed>
      </trkpt>
      <trkpt lat="43.9558" lon="3.87024">
        <ele>152</ele>
        <time>2012-01-06T14:24:24Z</time>
        <course>255.958345750664</course>
        <speed>8.31935658840577</speed>
      </trkpt>
      <trkpt lat="43.95559" lon="3.87108">
        <ele>152</ele>
        <time>2012-01-06T14:24:33Z</time>
        <course>246.669345462575</course>
        <speed>8.31886944223051</speed>
      </trkpt>
      <trkpt lat="43.95412" lon="3.87449">
        <ele>152</ele>
        <time>2012-01-06T14:25:11Z</time>
        <course>232.113590296895</course>
        <speed>7.18570647352785</speed>
      </trkpt>
      <trkpt lat="43.95384" lon="3.87485">
        <ele>152</ele>
        <time>2012-01-06T14:25:17Z</time>
        <course>267.50925211949</course>
        <speed>7.20016507027594</speed>
      </trkpt>
      <trkpt lat="43.95383" lon="3.87508">
        <ele>152</ele>
        <time>2012-01-06T14:25:20Z</time>
        <course>252.174095683604</course>
        <speed>7.19352345147219</speed>
      </trkpt>
      <trkpt lat="43.95374" lon="3.87536">
        <ele>152</ele>
        <time>2012-01-06T14:25:23Z</time>
        <course>246.903509951955</course>
        <speed>7.187107477145</speed>
      </trkpt>
      <trkpt lat="43.9489" lon="3.88672">
        <ele>161</ele>
        <time>2012-01-06T14:27:50Z</time>
        <course>247.368258261223</course>
        <speed>8.32424473955984</speed>
      </trkpt>
      <trkpt lat="43.9487" lon="3.8872">
        <ele>160</ele>
        <time>2012-01-06T14:27:55Z</time>
        <course>256.693629624153</course>
        <speed>8.31450502639193</speed>
      </trkpt>
      <trkpt lat="43.94857" lon="3.88775">
        <ele>160</ele>
        <time>2012-01-06T14:28:01Z</time>
        <course>267.9433981437</course>
        <speed>8.3171944430413</speed>
      </trkpt>
      <trkpt lat="43.94847" lon="3.89054">
        <ele>158</ele>
        <time>2012-01-06T14:28:28Z</time>
        <course>273.272015770066</course>
        <speed>8.3103259803573</speed>
      </trkpt>
      <trkpt lat="43.94849" lon="3.89089">
        <ele>157</ele>
        <time>2012-01-06T14:28:31Z</time>
        <course>283.609791334921</course>
        <speed>8.31853934703007</speed>
      </trkpt>
      <trkpt lat="43.94902" lon="3.89308">
        <ele>154</ele>
        <time>2012-01-06T14:28:53Z</time>
        <course>269.99925654749</course>
        <speed>8.32017561552736</speed>
      </trkpt>
      <trkpt lat="43.94902" lon="3.89386">
        <ele>151</ele>
        <time>2012-01-06T14:29:01Z</time>
        <course>260.448524327619</course>
        <speed>8.31840195631458</speed>
      </trkpt>
      <trkpt lat="43.9478" lon="3.90112">
        <ele>128</ele>
        <time>2012-01-06T14:30:13Z</time>
        <course>258.920882374556</course>
        <speed>7.96353319134058</speed>
      </trkpt>
      <trkpt lat="43.94358" lon="3.92273">
        <ele>132</ele>
        <time>2012-01-06T14:33:58Z</time>
        <course>261.794529369721</course>
        <speed>8.32170151636309</speed>
      </trkpt>
      <trkpt lat="43.94341" lon="3.92391">
        <ele>130</ele>
        <time>2012-01-06T14:34:09Z</time>
        <course>274.279853543522</course>
        <speed>8.31845996558556</speed>
      </trkpt>
      <trkpt lat="43.94506" lon="3.94585">
        <ele>110</ele>
        <time>2012-01-06T14:37:41Z</time>
        <course>269.999626718255</course>
        <speed>8.3093342678732</speed>
      </trkpt>
      <trkpt lat="43.94506" lon="3.9462">
        <ele>108</ele>
        <time>2012-01-06T14:37:45Z</time>
        <course>263.654765356193</course>
        <speed>8.31991846723137</speed>
      </trkpt>
      <trkpt lat="43.94499" lon="3.94683">
        <ele>106</ele>
        <time>2012-01-06T14:37:51Z</time>
        <course>285.077910452726</course>
        <speed>8.31780670469493</speed>
      </trkpt>
      <trkpt lat="43.94513" lon="3.94735">
        <ele>104</ele>
        <time>2012-01-06T14:37:56Z</time>
        <course>265.597430996747</course>
        <speed>8.3236834561049</speed>
      </trkpt>
      <trkpt lat="43.94507" lon="3.94813">
        <ele>102</ele>
        <time>2012-01-06T14:38:04Z</time>
        <course>260.9844560995</course>
        <speed>8.31403038559578</speed>
      </trkpt>
      <trkpt lat="43.94494" lon="3.94895">
        <ele>100</ele>
        <time>2012-01-06T14:38:12Z</time>
        <course>257.948423974447</course>
        <speed>8.32233917132358</speed>
      </trkpt>
      <trkpt lat="43.94478" lon="3.9497">
        <ele>98</ele>
        <time>2012-01-06T14:38:19Z</time>
        <course>252.271665855425</course>
        <speed>8.31404360725224</speed>
      </trkpt>
      <trkpt lat="43.94455" lon="3.95042">
        <ele>96</ele>
        <time>2012-01-06T14:38:27Z</time>
        <course>246.996188581881</course>
        <speed>8.32741860657457</speed>
      </trkpt>
      <trkpt lat="43.94441" lon="3.95075">
        <ele>95</ele>
        <time>2012-01-06T14:38:31Z</time>
        <course>229.992384036628</course>
        <speed>8.31377717116532</speed>
      </trkpt>
      <trkpt lat="43.94415" lon="3.95106">
        <ele>95</ele>
        <time>2012-01-06T14:38:35Z</time>
        <course>218.432926111861</course>
        <speed>8.32134952030125</speed>
      </trkpt>
      <trkpt lat="43.94381" lon="3.95133">
        <ele>95</ele>
        <time>2012-01-06T14:38:40Z</time>
        <course>205.693106740334</course>
        <speed>7.70732554114306</speed>
      </trkpt>
      <trkpt lat="43.94354" lon="3.95146">
        <ele>95</ele>
        <time>2012-01-06T14:38:44Z</time>
        <course>191.104661717218</course>
        <speed>7.70177709397531</speed>
      </trkpt>
      <trkpt lat="43.94298" lon="3.95157">
        <ele>95</ele>
        <time>2012-01-06T14:38:53Z</time>
        <course>177.160214315627</course>
        <speed>7.70792881419895</speed>
      </trkpt>
      <trkpt lat="43.94157" lon="3.9515">
        <ele>96</ele>
        <time>2012-01-06T14:39:13Z</time>
        <course>194.458616720095</course>
        <speed>7.29934654814618</speed>
      </trkpt>
      <trkpt lat="43.94126" lon="3.95158">
        <ele>96</ele>
        <time>2012-01-06T14:39:18Z</time>
        <course>208.475012020682</course>
        <speed>7.28754334331142</speed>
      </trkpt>
      <trkpt lat="43.94091" lon="3.95177">
        <ele>96</ele>
        <time>2012-01-06T14:39:23Z</time>
        <course>218.082972741537</course>
        <speed>7.28826710633221</speed>
      </trkpt>
      <trkpt lat="43.9404" lon="3.95217">
        <ele>97</ele>
        <time>2012-01-06T14:39:32Z</time>
        <course>222.44761917722</course>
        <speed>6.38482530690601</speed>
      </trkpt>
      <trkpt lat="43.93969" lon="3.95282">
        <ele>98</ele>
        <time>2012-01-06T14:39:47Z</time>
        <course>237.823712185128</course>
        <speed>6.3872906252585</speed>
      </trkpt>
      <trkpt lat="43.93947" lon="3.95317">
        <ele>99</ele>
        <time>2012-01-06T14:39:53Z</time>
        <course>245.725080041077</course>
        <speed>8.31481601212003</speed>
      </trkpt>
      <trkpt lat="43.93906" lon="3.95408">
        <ele>99</ele>
        <time>2012-01-06T14:40:03Z</time>
        <course>247.128783198708</course>
        <speed>8.31871134952067</speed>
      </trkpt>
      <trkpt lat="43.93839" lon="3.95567">
        <ele>99</ele>
        <time>2012-01-06T14:40:21Z</time>
        <course>248.360936428797</course>
        <speed>8.31907173574543</speed>
      </trkpt>
      <trkpt lat="43.93692" lon="3.95938">
        <ele>99</ele>
        <time>2012-01-06T14:41:02Z</time>
        <course>250.59622152032</course>
        <speed>8.32040529560369</speed>
      </trkpt>
      <trkpt lat="43.93673" lon="3.95992">
        <ele>99</ele>
        <time>2012-01-06T14:41:08Z</time>
        <course>257.353139055293</course>
        <speed>8.3230827694136</speed>
      </trkpt>
      <trkpt lat="43.9366" lon="3.9605">
        <ele>99</ele>
        <time>2012-01-06T14:41:13Z</time>
        <course>265.420660497855</course>
        <speed>8.31722199751116</speed>
      </trkpt>
      <trkpt lat="43.93656" lon="3.961">
        <ele>99</ele>
        <time>2012-01-06T14:41:18Z</time>
        <course>271.146306844093</course>
        <speed>8.32113378776601</speed>
      </trkpt>
      <trkpt lat="43.93657" lon="3.9615">
        <ele>99</ele>
        <time>2012-01-06T14:41:23Z</time>
        <course>273.810185006293</course>
        <speed>8.31887742733532</speed>
      </trkpt>
      <trkpt lat="43.93697" lon="3.9675">
        <ele>99</ele>
        <time>2012-01-06T14:42:21Z</time>
        <course>266.950872853122</course>
        <speed>8.31552204913295</speed>
      </trkpt>
      <trkpt lat="43.93692" lon="3.96844">
        <ele>98</ele>
        <time>2012-01-06T14:42:30Z</time>
        <course>257.334158416686</course>
        <speed>8.31375310670204</speed>
      </trkpt>
      <trkpt lat="43.93681" lon="3.96893">
        <ele>98</ele>
        <time>2012-01-06T14:42:35Z</time>
        <course>251.375644649894</course>
        <speed>8.3221421100244</speed>
      </trkpt>
      <trkpt lat="43.93647" lon="3.96994">
        <ele>96</ele>
        <time>2012-01-06T14:42:46Z</time>
        <course>243.559187624823</course>
        <speed>8.31769229194897</speed>
      </trkpt>
      <trkpt lat="43.93498" lon="3.97294">
        <ele>91</ele>
        <time>2012-01-06T14:43:21Z</time>
        <course>245.422700849766</course>
        <speed>8.32054921175066</speed>
      </trkpt>
      <trkpt lat="43.93424" lon="3.97456">
        <ele>90</ele>
        <time>2012-01-06T14:43:39Z</time>
        <course>238.142378369948</course>
        <speed>7.79555087275779</speed>
      </trkpt>
      <trkpt lat="43.93406" lon="3.97485">
        <ele>90</ele>
        <time>2012-01-06T14:43:43Z</time>
        <course>243.915691936957</course>
        <speed>7.7860954282502</speed>
      </trkpt>
      <trkpt lat="43.93274" lon="3.97755">
        <ele>91</ele>
        <time>2012-01-06T14:44:17Z</time>
        <course>238.577360148257</course>
        <speed>8.31751882764248</speed>
      </trkpt>
      <trkpt lat="43.93238" lon="3.97814">
        <ele>89</ele>
        <time>2012-01-06T14:44:24Z</time>
        <course>224.963325727185</course>
        <speed>8.31597104754083</speed>
      </trkpt>
      <trkpt lat="43.93193" lon="3.97859">
        <ele>88</ele>
        <time>2012-01-06T14:44:32Z</time>
        <course>211.627353232107</course>
        <speed>6.57809879760971</speed>
      </trkpt>
      <trkpt lat="43.93133" lon="3.97896">
        <ele>88</ele>
        <time>2012-01-06T14:44:43Z</time>
        <course>199.864769484807</course>
        <speed>6.57589736844835</speed>
      </trkpt>
      <trkpt lat="43.92934" lon="3.97968">
        <ele>92</ele>
        <time>2012-01-06T14:45:17Z</time>
        <course>206.043002165093</course>
        <speed>8.3145746059192</speed>
      </trkpt>
      <trkpt lat="43.92887" lon="3.97991">
        <ele>92</ele>
        <time>2012-01-06T14:45:24Z</time>
        <course>217.309173937743</course>
        <speed>8.32181707595995</speed>
      </trkpt>
      <trkpt lat="43.92849" lon="3.9802">
        <ele>92</ele>
        <time>2012-01-06T14:45:30Z</time>
        <course>227.600464617447</course>
        <speed>8.31393184179791</speed>
      </trkpt>
      <trkpt lat="43.92818" lon="3.98054">
        <ele>91</ele>
        <time>2012-01-06T14:45:35Z</time>
        <course>234.863921755424</course>
        <speed>8.32404039159063</speed>
      </trkpt>
      <trkpt lat="43.92792" lon="3.98091">
        <ele>91</ele>
        <time>2012-01-06T14:45:40Z</time>
        <course>240.765753582532</course>
        <speed>8.31896548102056</speed>
      </trkpt>
      <trkpt lat="43.92773" lon="3.98125">
        <ele>91</ele>
        <time>2012-01-06T14:45:44Z</time>
        <course>245.397966091667</course>
        <speed>8.32021232743289</speed>
      </trkpt>
      <trkpt lat="43.92709" lon="3.98265">
        <ele>89</ele>
        <time>2012-01-06T14:46:00Z</time>
        <course>237.424125565981</course>
        <speed>6.98293271052535</speed>
      </trkpt>
      <trkpt lat="43.92672" lon="3.98323">
        <ele>89</ele>
        <time>2012-01-06T14:46:09Z</time>
        <course>221.701816510145</course>
        <speed>6.9854185525685</speed>
      </trkpt>
      <trkpt lat="43.92402" lon="3.98564">
        <ele>93</ele>
        <time>2012-01-06T14:47:00Z</time>
        <course>228.316595730284</course>
        <speed>7.42275492791812</speed>
      </trkpt>
      <trkpt lat="43.92346" lon="3.98627">
        <ele>93</ele>
        <time>2012-01-06T14:47:11Z</time>
        <course>234.288888370683</course>
        <speed>7.42484080213933</speed>
      </trkpt>
      <trkpt lat="43.92186" lon="3.9885">
        <ele>95</ele>
        <time>2012-01-06T14:47:45Z</time>
        <course>230.519728082365</course>
        <speed>8.31953099866956</speed>
      </trkpt>
      <trkpt lat="43.92149" lon="3.98895">
        <ele>94</ele>
        <time>2012-01-06T14:47:51Z</time>
        <course>225.827216914017</course>
        <speed>8.31858218704569</speed>
      </trkpt>
      <trkpt lat="43.91769" lon="3.99287">
        <ele>94</ele>
        <time>2012-01-06T14:48:55Z</time>
        <course>230.134469763534</course>
        <speed>8.31846187897494</speed>
      </trkpt>
      <trkpt lat="43.91734" lon="3.99329">
        <ele>93</ele>
        <time>2012-01-06T14:49:01Z</time>
        <course>215.695991697833</course>
        <speed>8.32289205794408</speed>
      </trkpt>
      <trkpt lat="43.91709" lon="3.99347">
        <ele>93</ele>
        <time>2012-01-06T14:49:05Z</time>
        <course>187.578616707359</course>
        <speed>8.33069816638892</speed>
      </trkpt>
      <trkpt lat="43.91694" lon="3.99349">
        <ele>93</ele>
        <time>2012-01-06T14:49:07Z</time>
        <course>241.337778038469</course>
        <speed>8.30405085151525</speed>
      </trkpt>
      <trkpt lat="43.91688" lon="3.9936">
        <ele>93</ele>
        <time>2012-01-06T14:49:08Z</time>
        <course>199.815595170535</course>
        <speed>8.31679427259371</speed>
      </trkpt>
      <trkpt lat="43.91652" lon="3.99373">
        <ele>92</ele>
        <time>2012-01-06T14:49:13Z</time>
        <course>224.937726340209</course>
        <speed>8.32795859275172</speed>
      </trkpt>
      <trkpt lat="43.91643" lon="3.99382">
        <ele>91</ele>
        <time>2012-01-06T14:49:14Z</time>
        <course>205.720185711515</course>
        <speed>8.32140365520367</speed>
      </trkpt>
      <trkpt lat="43.91614" lon="3.99396">
        <ele>91</ele>
        <time>2012-01-06T14:49:19Z</time>
        <course>213.629728452806</course>
        <speed>8.32015781892811</speed>
      </trkpt>
      <trkpt lat="43.915" lon="3.99472">
        <ele>88</ele>
        <time>2012-01-06T14:49:35Z</time>
        <course>216.899608672133</course>
        <speed>8.31800470796977</speed>
      </trkpt>
      <trkpt lat="43.91403" lon="3.99545">
        <ele>86</ele>
        <time>2012-01-06T14:49:50Z</time>
        <course>221.79965204142</course>
        <speed>8.316956735581</speed>
      </trkpt>
      <trkpt lat="43.91268" lon="3.99666">
        <ele>84</ele>
        <time>2012-01-06T14:50:12Z</time>
        <course>229.114911496274</course>
        <speed>8.31882340038187</speed>
      </trkpt>
      <trkpt lat="43.9123" lon="3.9971">
        <ele>83</ele>
        <time>2012-01-06T14:50:18Z</time>
        <course>242.742974364574</course>
        <speed>8.31943647330654</speed>
      </trkpt>
      <trkpt lat="43.91193" lon="3.99782">
        <ele>83</ele>
        <time>2012-01-06T14:50:27Z</time>
        <course>251.942879994118</course>
        <speed>7.77190213321791</speed>
      </trkpt>
      <trkpt lat="43.91088" lon="4.00105">
        <ele>84</ele>
        <time>2012-01-06T14:51:03Z</time>
        <course>243.658499584611</course>
        <speed>8.31900792328207</speed>
      </trkpt>
      <trkpt lat="43.91048" lon="4.00186">
        <ele>82</ele>
        <time>2012-01-06T14:51:13Z</time>
        <course>230.258287308537</course>
        <speed>8.31341103188836</speed>
      </trkpt>
      <trkpt lat="43.91014" lon="4.00227">
        <ele>82</ele>
        <time>2012-01-06T14:51:19Z</time>
        <course>216.396742550053</course>
        <speed>8.32045248662116</speed>
      </trkpt>
      <trkpt lat="43.90968" lon="4.00261">
        <ele>81</ele>
        <time>2012-01-06T14:51:26Z</time>
        <course>201.534061105663</course>
        <speed>8.31745544921511</speed>
      </trkpt>
      <trkpt lat="43.90829" lon="4.00316">
        <ele>80</ele>
        <time>2012-01-06T14:51:45Z</time>
        <course>180</course>
        <speed>8.33399999998316</speed>
      </trkpt>
      <trkpt lat="43.9082" lon="4.00316">
        <ele>79</ele>
        <time>2012-01-06T14:51:46Z</time>
        <course>208.112541987056</course>
        <speed>8.31685088702043</speed>
      </trkpt>
      <trkpt lat="43.90792" lon="4.00331">
        <ele>79</ele>
        <time>2012-01-06T14:51:50Z</time>
        <course>221.907455272483</course>
        <speed>8.31182947148283</speed>
      </trkpt>
      <trkpt lat="43.90762" lon="4.00358">
        <ele>78</ele>
        <time>2012-01-06T14:51:55Z</time>
        <course>233.968913563165</course>
        <speed>8.31647683275442</speed>
      </trkpt>
      <trkpt lat="43.90696" lon="4.00449">
        <ele>77</ele>
        <time>2012-01-06T14:52:07Z</time>
        <course>219.478467029913</course>
        <speed>8.3193600771076</speed>
      </trkpt>
      <trkpt lat="43.9065" lon="4.00487">
        <ele>75</ele>
        <time>2012-01-06T14:52:15Z</time>
        <course>160.3987098336</course>
        <speed>8.32308339865256</speed>
      </trkpt>
      <trkpt lat="43.90622" lon="4.00477">
        <ele>74</ele>
        <time>2012-01-06T14:52:18Z</time>
        <course>124.12402966642</course>
        <speed>8.32176877906857</speed>
      </trkpt>
      <trkpt lat="43.90597" lon="4.0044">
        <ele>73</ele>
        <time>2012-01-06T14:52:23Z</time>
        <course>174.575499959747</course>
        <speed>6.27079630397315</speed>
      </trkpt>
      <trkpt lat="43.90576" lon="4.00438">
        <ele>73</ele>
        <time>2012-01-06T14:52:27Z</time>
        <course>231.62753464134</course>
        <speed>6.26823807668795</speed>
      </trkpt>
      <trkpt lat="43.90561" lon="4.00457">
        <ele>73</ele>
        <time>2012-01-06T14:52:31Z</time>
        <course>261.444011269323</course>
        <speed>6.26642109379725</speed>
      </trkpt>
      <trkpt lat="43.90558" lon="4.00477">
        <ele>74</ele>
        <time>2012-01-06T14:52:33Z</time>
        <course>280.334342303409</course>
        <speed>6.26393338665366</speed>
      </trkpt>
      <trkpt lat="43.9056" lon="4.00488">
        <ele>74</ele>
        <time>2012-01-06T14:52:35Z</time>
        <course>254.888502379194</course>
        <speed>6.27725562628288</speed>
      </trkpt>
      <trkpt lat="43.90553" lon="4.00514">
        <ele>74</ele>
        <time>2012-01-06T14:52:38Z</time>
        <course>224.914809890703</course>
        <speed>6.26602210005551</speed>
      </trkpt>
      <trkpt lat="43.90532" lon="4.00535">
        <ele>75</ele>
        <time>2012-01-06T14:52:43Z</time>
        <course>198.501844674741</course>
        <speed>8.31972270263193</speed>
      </trkpt>
      <trkpt lat="43.90389" lon="4.00583">
        <ele>75</ele>
        <time>2012-01-06T14:53:02Z</time>
        <course>193.142693579463</course>
        <speed>8.31804369482436</speed>
      </trkpt>
      <trkpt lat="43.89847" lon="4.0071">
        <ele>72</ele>
        <time>2012-01-06T14:54:16Z</time>
        <course>200.968267860081</course>
        <speed>6.23938165162363</speed>
      </trkpt>
      <trkpt lat="43.89743" lon="4.0075">
        <ele>74</ele>
        <time>2012-01-06T14:54:35Z</time>
        <course>208.772454103062</course>
        <speed>8.32032289231923</speed>
      </trkpt>
      <trkpt lat="43.89616" lon="4.0082">
        <ele>73</ele>
        <time>2012-01-06T14:54:53Z</time>
        <course>217.344985409297</course>
        <speed>8.31989814796695</speed>
      </trkpt>
      <trkpt lat="43.89522" lon="4.00892">
        <ele>72</ele>
        <time>2012-01-06T14:55:08Z</time>
        <course>224.885607448223</course>
        <speed>8.3177704005554</speed>
      </trkpt>
      <trkpt lat="43.89372" lon="4.01042">
        <ele>71</ele>
        <time>2012-01-06T14:55:32Z</time>
        <course>221.234438029061</course>
        <speed>6.00821767316506</speed>
      </trkpt>
      <trkpt lat="43.89322" lon="4.01086">
        <ele>72</ele>
        <time>2012-01-06T14:55:43Z</time>
        <course>217.143417451824</course>
        <speed>6.00990749923257</speed>
      </trkpt>
      <trkpt lat="43.89251" lon="4.0114">
        <ele>74</ele>
        <time>2012-01-06T14:55:58Z</time>
        <course>198.365388858015</course>
        <speed>8.32817096803771</speed>
      </trkpt>
      <trkpt lat="43.89233" lon="4.01146">
        <ele>73</ele>
        <time>2012-01-06T14:56:01Z</time>
        <course>175.255638546168</course>
        <speed>8.32300518849368</speed>
      </trkpt>
      <trkpt lat="43.89209" lon="4.01144">
        <ele>73</ele>
        <time>2012-01-06T14:56:04Z</time>
        <course>239.31771771138</course>
        <speed>8.31478259946393</speed>
      </trkpt>
      <trkpt lat="43.89196" lon="4.01166">
        <ele>72</ele>
        <time>2012-01-06T14:56:07Z</time>
        <course>226.214439956439</course>
        <speed>8.33010858648186</speed>
      </trkpt>
      <trkpt lat="43.89175" lon="4.01188">
        <ele>72</ele>
        <time>2012-01-06T14:56:10Z</time>
        <course>218.040242713803</course>
        <speed>8.32160117429872</speed>
      </trkpt>
      <trkpt lat="43.89091" lon="4.01254">
        <ele>71</ele>
        <time>2012-01-06T14:56:23Z</time>
        <course>223.422629172842</course>
        <speed>8.32028315389039</speed>
      </trkpt>
      <trkpt lat="43.8899" lon="4.0135">
        <ele>69</ele>
        <time>2012-01-06T14:56:40Z</time>
        <course>218.153489838265</course>
        <speed>5.83764510762845</speed>
      </trkpt>
      <trkpt lat="43.88843" lon="4.01466">
        <ele>73</ele>
        <time>2012-01-06T14:57:12Z</time>
        <course>224.087368943384</course>
        <speed>8.31377287607313</speed>
      </trkpt>
      <trkpt lat="43.88806" lon="4.01502">
        <ele>72</ele>
        <time>2012-01-06T14:57:18Z</time>
        <course>230.864072552445</course>
        <speed>8.32025598047542</speed>
      </trkpt>
      <trkpt lat="43.88725" lon="4.01602">
        <ele>71</ele>
        <time>2012-01-06T14:57:32Z</time>
        <course>233.845611081518</course>
        <speed>5.43089548680772</speed>
      </trkpt>
      <trkpt lat="43.88653" lon="4.01701">
        <ele>74</ele>
        <time>2012-01-06T14:57:53Z</time>
        <course>240.139716743535</course>
        <speed>4.36236410090847</speed>
      </trkpt>
      <trkpt lat="43.88621" lon="4.01757">
        <ele>76</ele>
        <time>2012-01-06T14:58:06Z</time>
        <course>247.027248238202</course>
        <speed>4.36055290566119</speed>
      </trkpt>
      <trkpt lat="43.88567" lon="4.01885">
        <ele>82</ele>
        <time>2012-01-06T14:58:33Z</time>
        <course>254.806193324227</course>
        <speed>3.59831522850928</speed>
      </trkpt>
      <trkpt lat="43.88547" lon="4.01959">
        <ele>86</ele>
        <time>2012-01-06T14:58:51Z</time>
        <course>259.133885243306</course>
        <speed>3.59875210911127</speed>
      </trkpt>
      <trkpt lat="43.8853" lon="4.02048">
        <ele>91</ele>
        <time>2012-01-06T14:59:11Z</time>
        <course>264.69062846666</course>
        <speed>8.31902551103395</speed>
      </trkpt>
      <trkpt lat="43.88519" lon="4.02167">
        <ele>84</ele>
        <time>2012-01-06T14:59:23Z</time>
        <course>272.512483919117</course>
        <speed>8.3198882915621</speed>
      </trkpt>
      <trkpt lat="43.88526" lon="4.02327">
        <ele>76</ele>
        <time>2012-01-06T14:59:38Z</time>
        <course>280.869045590274</course>
        <speed>8.31626133586029</speed>
      </trkpt>
      <trkpt lat="43.88552" lon="4.02463">
        <ele>73</ele>
        <time>2012-01-06T14:59:52Z</time>
        <course>288.678284733148</course>
        <speed>8.31883928611584</speed>
      </trkpt>
      <trkpt lat="43.88587" lon="4.02567">
        <ele>70</ele>
        <time>2012-01-06T15:00:03Z</time>
        <course>294.423512988426</course>
        <speed>8.31464264230488</speed>
      </trkpt>
      <trkpt lat="43.8862" lon="4.0264">
        <ele>68</ele>
        <time>2012-01-06T15:00:11Z</time>
        <course>299.078509806531</course>
        <speed>8.3178982691295</speed>
      </trkpt>
      <trkpt lat="43.88718" lon="4.02817">
        <ele>65</ele>
        <time>2012-01-06T15:00:33Z</time>
        <course>293.969567987831</course>
        <speed>8.32062845124427</speed>
      </trkpt>
      <trkpt lat="43.88745" lon="4.02878">
        <ele>64</ele>
        <time>2012-01-06T15:00:40Z</time>
        <course>282.433756283074</course>
        <speed>8.31086662435593</speed>
      </trkpt>
      <trkpt lat="43.88754" lon="4.02919">
        <ele>64</ele>
        <time>2012-01-06T15:00:44Z</time>
        <course>275.62301489931</course>
        <speed>8.31032079242446</speed>
      </trkpt>
      <trkpt lat="43.88759" lon="4.0297">
        <ele>64</ele>
        <time>2012-01-06T15:00:49Z</time>
        <course>268.747784622729</course>
        <speed>8.31953690958348</speed>
      </trkpt>
      <trkpt lat="43.88758" lon="4.03016">
        <ele>63</ele>
        <time>2012-01-06T15:00:53Z</time>
        <course>261.376841620491</course>
        <speed>8.32354210871504</speed>
      </trkpt>
      <trkpt lat="43.8875" lon="4.03069">
        <ele>63</ele>
        <time>2012-01-06T15:00:58Z</time>
        <course>256.363158005004</course>
        <speed>8.31903815210571</speed>
      </trkpt>
      <trkpt lat="43.88626" lon="4.03583">
        <ele>62</ele>
        <time>2012-01-06T15:01:51Z</time>
        <course>257.048369030241</course>
        <speed>8.31938192864764</speed>
      </trkpt>
      <trkpt lat="43.88548" lon="4.03924">
        <ele>60</ele>
        <time>2012-01-06T15:02:25Z</time>
        <course>244.277108185352</course>
        <speed>6.7066148530119</speed>
      </trkpt>
      <trkpt lat="43.88513" lon="4.03997">
        <ele>60</ele>
        <time>2012-01-06T15:02:35Z</time>
        <course>235.613716710954</course>
        <speed>6.70891280737325</speed>
      </trkpt>
      <trkpt lat="43.88402" lon="4.0416">
        <ele>63</ele>
        <time>2012-01-06T15:03:02Z</time>
        <course>245.819570076036</course>
        <speed>8.32485752788554</speed>
      </trkpt>
      <trkpt lat="43.88381" lon="4.04207">
        <ele>62</ele>
        <time>2012-01-06T15:03:08Z</time>
        <course>254.284581472515</course>
        <speed>8.32565503601931</speed>
      </trkpt>
      <trkpt lat="43.88374" lon="4.04232">
        <ele>61</ele>
        <time>2012-01-06T15:03:10Z</time>
        <course>257.559533724554</course>
        <speed>8.31135179596326</speed>
      </trkpt>
      <trkpt lat="43.88365" lon="4.04273">
        <ele>61</ele>
        <time>2012-01-06T15:03:14Z</time>
        <course>266.264429197478</course>
        <speed>8.32242081929918</speed>
      </trkpt>
      <trkpt lat="43.8836" lon="4.0435">
        <ele>60</ele>
        <time>2012-01-06T15:03:22Z</time>
        <course>276.228295247114</course>
        <speed>8.3164707961097</speed>
      </trkpt>
      <trkpt lat="43.8838" lon="4.04534">
        <ele>60</ele>
        <time>2012-01-06T15:03:40Z</time>
        <course>270.691300367145</course>
        <speed>8.32083873940021</speed>
      </trkpt>
      <trkpt lat="43.88381" lon="4.04617">
        <ele>60</ele>
        <time>2012-01-06T15:03:48Z</time>
        <course>261.942338666449</course>
        <speed>8.31263743834022</speed>
      </trkpt>
      <trkpt lat="43.88371" lon="4.04688">
        <ele>60</ele>
        <time>2012-01-06T15:03:55Z</time>
        <course>252.636466892419</course>
        <speed>8.31665071959448</speed>
      </trkpt>
      <trkpt lat="43.88343" lon="4.04778">
        <ele>60</ele>
        <time>2012-01-06T15:04:04Z</time>
        <course>241.178624695376</course>
        <speed>8.32038952308976</speed>
      </trkpt>
      <trkpt lat="43.88268" lon="4.04915">
        <ele>60</ele>
        <time>2012-01-06T15:04:21Z</time>
        <course>235.621811253436</course>
        <speed>6.6460809113969</speed>
      </trkpt>
      <trkpt lat="43.88121" lon="4.05131">
        <ele>63</ele>
        <time>2012-01-06T15:04:56Z</time>
        <course>225.395689240132</course>
        <speed>7.60869368595693</speed>
      </trkpt>
      <trkpt lat="43.87966" lon="4.05289">
        <ele>64</ele>
        <time>2012-01-06T15:05:24Z</time>
        <course>231.880005964596</course>
        <speed>6.15807874526641</speed>
      </trkpt>
      <trkpt lat="43.87934" lon="4.0533">
        <ele>64</ele>
        <time>2012-01-06T15:05:32Z</time>
        <course>237.606193999784</course>
        <speed>6.15598158965371</speed>
      </trkpt>
      <trkpt lat="43.87828" lon="4.05498">
        <ele>68</ele>
        <time>2012-01-06T15:06:01Z</time>
        <course>229.755672644891</course>
        <speed>8.32006889876547</speed>
      </trkpt>
      <trkpt lat="43.87727" lon="4.05618">
        <ele>68</ele>
        <time>2012-01-06T15:06:19Z</time>
        <course>239.962598083906</course>
        <speed>8.31323926079438</speed>
      </trkpt>
      <trkpt lat="43.87704" lon="4.05658">
        <ele>67</ele>
        <time>2012-01-06T15:06:24Z</time>
        <course>251.46825192996</course>
        <speed>8.31658479459559</speed>
      </trkpt>
      <trkpt lat="43.87692" lon="4.05694">
        <ele>67</ele>
        <time>2012-01-06T15:06:28Z</time>
        <course>262.834428078881</course>
        <speed>8.31653439287094</speed>
      </trkpt>
      <trkpt lat="43.87687" lon="4.05734">
        <ele>67</ele>
        <time>2012-01-06T15:06:32Z</time>
        <course>272.502045890401</course>
        <speed>8.31359832320543</speed>
      </trkpt>
      <trkpt lat="43.87689" lon="4.0578">
        <ele>64</ele>
        <time>2012-01-06T15:06:36Z</time>
        <course>279.766384219782</course>
        <speed>8.32018293371767</speed>
      </trkpt>
      <trkpt lat="43.8772" lon="4.05961">
        <ele>55</ele>
        <time>2012-01-06T15:06:54Z</time>
        <course>286.027069121466</course>
        <speed>8.31897579010672</speed>
      </trkpt>
      <trkpt lat="43.8774" lon="4.06031">
        <ele>55</ele>
        <time>2012-01-06T15:07:01Z</time>
        <course>290.966839009263</course>
        <speed>8.31657364476214</speed>
      </trkpt>
      <trkpt lat="43.87809" lon="4.06212">
        <ele>55</ele>
        <time>2012-01-06T15:07:21Z</time>
        <course>278.115075344808</course>
        <speed>6.80986548861637</speed>
      </trkpt>
      <trkpt lat="43.87856" lon="4.06543">
        <ele>58</ele>
        <time>2012-01-06T15:08:01Z</time>
        <course>276.904269394333</course>
        <speed>8.32127012637226</speed>
      </trkpt>
      <trkpt lat="43.87866" lon="4.06626">
        <ele>54</ele>
        <time>2012-01-06T15:08:09Z</time>
        <course>271.224054900692</course>
        <speed>8.31383426567574</speed>
      </trkpt>
      <trkpt lat="43.87867" lon="4.06673">
        <ele>53</ele>
        <time>2012-01-06T15:08:13Z</time>
        <course>268.273018663064</course>
        <speed>8.31754820175617</speed>
      </trkpt>
      <trkpt lat="43.87859" lon="4.06941">
        <ele>47</ele>
        <time>2012-01-06T15:08:39Z</time>
        <course>264.140935000329</course>
        <speed>8.30997466827221</speed>
      </trkpt>
      <trkpt lat="43.87854" lon="4.0699">
        <ele>46</ele>
        <time>2012-01-06T15:08:44Z</time>
        <course>256.535746352049</course>
        <speed>8.31650240096834</speed>
      </trkpt>
      <trkpt lat="43.87839" lon="4.07053">
        <ele>45</ele>
        <time>2012-01-06T15:08:50Z</time>
        <course>247.330552747707</course>
        <speed>8.3225864148086</speed>
      </trkpt>
      <trkpt lat="43.87812" lon="4.07118">
        <ele>45</ele>
        <time>2012-01-06T15:08:58Z</time>
        <course>244.100260478342</course>
        <speed>8.31731968455767</speed>
      </trkpt>
      <trkpt lat="43.877" lon="4.0735">
        <ele>43</ele>
        <time>2012-01-06T15:09:25Z</time>
        <course>242.513687400193</course>
        <speed>6.16610287274189</speed>
      </trkpt>
      <trkpt lat="43.8761" lon="4.07524">
        <ele>46</ele>
        <time>2012-01-06T15:09:52Z</time>
        <course>236.672030030772</course>
        <speed>7.87592320934496</speed>
      </trkpt>
      <trkpt lat="43.87593" lon="4.0755">
        <ele>46</ele>
        <time>2012-01-06T15:09:56Z</time>
        <course>231.045015425849</course>
        <speed>7.88628999032453</speed>
      </trkpt>
      <trkpt lat="43.87368" lon="4.0783">
        <ele>47</ele>
        <time>2012-01-06T15:10:39Z</time>
        <course>236.150033818094</course>
        <speed>6.22200450911098</speed>
      </trkpt>
      <trkpt lat="43.87312" lon="4.07914">
        <ele>48</ele>
        <time>2012-01-06T15:10:53Z</time>
        <course>249.044667880035</course>
        <speed>6.22219725785137</speed>
      </trkpt>
      <trkpt lat="43.87226" lon="4.0814">
        <ele>52</ele>
        <time>2012-01-06T15:11:26Z</time>
        <course>242.853216420623</course>
        <speed>4.70471975755903</speed>
      </trkpt>
      <trkpt lat="43.87091" lon="4.08405">
        <ele>62</ele>
        <time>2012-01-06T15:12:21Z</time>
        <course>247.78593933116</course>
        <speed>5.1905953691344</speed>
      </trkpt>
      <trkpt lat="43.87063" lon="4.08474">
        <ele>63</ele>
        <time>2012-01-06T15:12:34Z</time>
        <course>253.377180622108</course>
        <speed>5.19120778645523</speed>
      </trkpt>
      <trkpt lat="43.87028" lon="4.08592">
        <ele>67</ele>
        <time>2012-01-06T15:12:53Z</time>
        <course>256.245912798061</course>
        <speed>4.18130931579796</speed>
      </trkpt>
      <trkpt lat="43.86941" lon="4.0895">
        <ele>82</ele>
        <time>2012-01-06T15:14:06Z</time>
        <course>263.870317436572</course>
        <speed>2.98016196622281</speed>
      </trkpt>
      <trkpt lat="43.86933" lon="4.09025">
        <ele>87</ele>
        <time>2012-01-06T15:14:26Z</time>
        <course>269.99867594945</course>
        <speed>2.98045715412206</speed>
      </trkpt>
      <trkpt lat="43.86933" lon="4.09066">
        <ele>90</ele>
        <time>2012-01-06T15:14:37Z</time>
        <course>276.706517281432</course>
        <speed>2.97993525012923</speed>
      </trkpt>
      <trkpt lat="43.86942" lon="4.09143">
        <ele>96</ele>
        <time>2012-01-06T15:14:58Z</time>
        <course>285.65356954999</course>
        <speed>3.37865232053214</speed>
      </trkpt>
      <trkpt lat="43.86964" lon="4.09222">
        <ele>100</ele>
        <time>2012-01-06T15:15:18Z</time>
        <course>291.924590438873</course>
        <speed>3.37806356635362</speed>
      </trkpt>
      <trkpt lat="43.86994" lon="4.09297">
        <ele>106</ele>
        <time>2012-01-06T15:15:38Z</time>
        <course>294.935966606088</course>
        <speed>4.25770694191244</speed>
      </trkpt>
      <trkpt lat="43.87055" lon="4.09429">
        <ele>112</ele>
        <time>2012-01-06T15:16:08Z</time>
        <course>285.733003521075</course>
        <speed>4.6908951754415</speed>
      </trkpt>
      <trkpt lat="43.87076" lon="4.09504">
        <ele>114</ele>
        <time>2012-01-06T15:16:22Z</time>
        <course>278.687738974091</course>
        <speed>4.6899195025105</speed>
      </trkpt>
      <trkpt lat="43.87088" lon="4.09583">
        <ele>117</ele>
        <time>2012-01-06T15:16:36Z</time>
        <course>272.47519599643</course>
        <speed>8.32015216944183</speed>
      </trkpt>
      <trkpt lat="43.87092" lon="4.09676">
        <ele>117</ele>
        <time>2012-01-06T15:16:44Z</time>
        <course>269.137438254602</course>
        <speed>8.32294871129074</speed>
      </trkpt>
      <trkpt lat="43.87091" lon="4.09743">
        <ele>117</ele>
        <time>2012-01-06T15:16:51Z</time>
        <course>260.250608649271</course>
        <speed>8.31337460016217</speed>
      </trkpt>
      <trkpt lat="43.87084" lon="4.09784">
        <ele>117</ele>
        <time>2012-01-06T15:16:55Z</time>
        <course>248.559552552864</course>
        <speed>8.3178770492208</speed>
      </trkpt>
      <trkpt lat="43.87068" lon="4.09825">
        <ele>117</ele>
        <time>2012-01-06T15:16:59Z</time>
        <course>241.381465956312</course>
        <speed>8.31937598837539</speed>
      </trkpt>
      <trkpt lat="43.87023" lon="4.09908">
        <ele>117</ele>
        <time>2012-01-06T15:17:09Z</time>
        <course>197.001404382508</course>
        <speed>6.08918573197127</speed>
      </trkpt>
      <trkpt lat="43.8701" lon="4.09912">
        <ele>117</ele>
        <time>2012-01-06T15:17:12Z</time>
        <course>231.163338642697</course>
        <speed>6.10537012348222</speed>
      </trkpt>
      <trkpt lat="43.87002" lon="4.09922">
        <ele>117</ele>
        <time>2012-01-06T15:17:14Z</time>
        <course>250.230765504914</course>
        <speed>6.07568414577224</speed>
      </trkpt>
      <trkpt lat="43.86997" lon="4.09936">
        <ele>117</ele>
        <time>2012-01-06T15:17:16Z</time>
        <course>268.481787352679</course>
        <speed>6.09226436835015</speed>
      </trkpt>
      <trkpt lat="43.86996" lon="4.09974">
        <ele>118</ele>
        <time>2012-01-06T15:17:21Z</time>
        <course>247.622919485204</course>
        <speed>6.08516592856122</speed>
      </trkpt>
      <trkpt lat="43.86987" lon="4.09996">
        <ele>118</ele>
        <time>2012-01-06T15:17:24Z</time>
        <course>239.350348291666</course>
        <speed>6.08963015732393</speed>
      </trkpt>
      <trkpt lat="43.86914" lon="4.1012">
        <ele>121</ele>
        <time>2012-01-06T15:17:45Z</time>
        <course>229.661250726427</course>
        <speed>8.32544132421935</speed>
      </trkpt>
      <trkpt lat="43.86887" lon="4.10152">
        <ele>121</ele>
        <time>2012-01-06T15:17:50Z</time>
        <course>221.693032247486</course>
        <speed>8.32323305719934</speed>
      </trkpt>
      <trkpt lat="43.86858" lon="4.10178">
        <ele>121</ele>
        <time>2012-01-06T15:17:55Z</time>
        <course>213.517936665335</course>
        <speed>8.32193998155708</speed>
      </trkpt>
      <trkpt lat="43.86831" lon="4.10196">
        <ele>121</ele>
        <time>2012-01-06T15:17:59Z</time>
        <course>197.992818151927</course>
        <speed>3.99499498359019</speed>
      </trkpt>
      <trkpt lat="43.86779" lon="4.10213">
        <ele>124</ele>
        <time>2012-01-06T15:18:14Z</time>
        <course>186.162810660458</course>
        <speed>3.99313898861547</speed>
      </trkpt>
      <trkpt lat="43.86733" lon="4.10218">
        <ele>127</ele>
        <time>2012-01-06T15:18:26Z</time>
        <course>178.276076680239</course>
        <speed>8.31708619690737</speed>
      </trkpt>
      <trkpt lat="43.86568" lon="4.10213">
        <ele>126</ele>
        <time>2012-01-06T15:18:48Z</time>
        <course>190.96672400627</course>
        <speed>7.31443595896299</speed>
      </trkpt>
      <trkpt lat="43.86486" lon="4.10229">
        <ele>126</ele>
        <time>2012-01-06T15:19:01Z</time>
        <course>202.30218023082</course>
        <speed>7.3159901349309</speed>
      </trkpt>
      <trkpt lat="43.8644" lon="4.10248">
        <ele>127</ele>
        <time>2012-01-06T15:19:08Z</time>
        <course>210.908901740966</course>
        <speed>4.42732152109503</speed>
      </trkpt>
      <trkpt lat="43.86372" lon="4.10289">
        <ele>130</ele>
        <time>2012-01-06T15:19:27Z</time>
        <course>221.082707463334</course>
        <speed>4.42703271205656</speed>
      </trkpt>
      <trkpt lat="43.86331" lon="4.10325">
        <ele>133</ele>
        <time>2012-01-06T15:19:39Z</time>
        <course>228.609369880541</course>
        <speed>5.18194162197038</speed>
      </trkpt>
      <trkpt lat="43.86275" lon="4.10389">
        <ele>135</ele>
        <time>2012-01-06T15:19:55Z</time>
        <course>237.480589724341</course>
        <speed>5.17956065520905</speed>
      </trkpt>
      <trkpt lat="43.86225" lon="4.10468">
        <ele>138</ele>
        <time>2012-01-06T15:20:11Z</time>
        <course>245.766218613638</course>
        <speed>8.31924659911622</speed>
      </trkpt>
      <trkpt lat="43.86183" lon="4.10562">
        <ele>135</ele>
        <time>2012-01-06T15:20:22Z</time>
        <course>249.576218480162</course>
        <speed>8.31608772942506</speed>
      </trkpt>
      <trkpt lat="43.86132" lon="4.107">
        <ele>131</ele>
        <time>2012-01-06T15:20:36Z</time>
        <course>252.950734554722</course>
        <speed>8.32028772264329</speed>
      </trkpt>
      <trkpt lat="43.86097" lon="4.10815">
        <ele>127</ele>
        <time>2012-01-06T15:20:49Z</time>
        <course>257.379080943167</course>
        <speed>8.31790254619083</speed>
      </trkpt>
      <trkpt lat="43.86083" lon="4.10878">
        <ele>125</ele>
        <time>2012-01-06T15:20:55Z</time>
        <course>264.445180393807</course>
        <speed>8.31713079724053</speed>
      </trkpt>
      <trkpt lat="43.86059" lon="4.11127">
        <ele>118</ele>
        <time>2012-01-06T15:21:19Z</time>
        <course>261.894696108039</course>
        <speed>8.31818485108219</speed>
      </trkpt>
      <trkpt lat="43.86046" lon="4.11219">
        <ele>116</ele>
        <time>2012-01-06T15:21:28Z</time>
        <course>257.378967252105</course>
        <speed>8.3101129023428</speed>
      </trkpt>
      <trkpt lat="43.86036" lon="4.11264">
        <ele>115</ele>
        <time>2012-01-06T15:21:33Z</time>
        <course>244.060693074057</course>
        <speed>8.3220852906639</speed>
      </trkpt>
      <trkpt lat="43.86008" lon="4.11322">
        <ele>112</ele>
        <time>2012-01-06T15:21:39Z</time>
        <course>235.65285299359</course>
        <speed>8.32112038497428</speed>
      </trkpt>
      <trkpt lat="43.85949" lon="4.11409">
        <ele>108</ele>
        <time>2012-01-06T15:21:51Z</time>
        <course>250.059738797804</course>
        <speed>8.32281917169294</speed>
      </trkpt>
      <trkpt lat="43.85922" lon="4.11484">
        <ele>106</ele>
        <time>2012-01-06T15:21:59Z</time>
        <course>261.402302202613</course>
        <speed>8.31897445375116</speed>
      </trkpt>
      <trkpt lat="43.8591" lon="4.11564">
        <ele>106</ele>
        <time>2012-01-06T15:22:07Z</time>
        <course>266.723160629073</course>
        <speed>8.32005796108316</speed>
      </trkpt>
      <trkpt lat="43.85899" lon="4.11758">
        <ele>105</ele>
        <time>2012-01-06T15:22:26Z</time>
        <course>267.645598901814</course>
        <speed>8.32010757389216</speed>
      </trkpt>
      <trkpt lat="43.85892" lon="4.1193">
        <ele>104</ele>
        <time>2012-01-06T15:22:42Z</time>
        <course>270.585652905659</course>
        <speed>7.86068682685039</speed>
      </trkpt>
      <trkpt lat="43.85893" lon="4.12028">
        <ele>104</ele>
        <time>2012-01-06T15:22:52Z</time>
        <course>277.979697967533</course>
        <speed>7.85874768625945</speed>
      </trkpt>
      <trkpt lat="43.85938" lon="4.12351">
        <ele>105</ele>
        <time>2012-01-06T15:23:26Z</time>
        <course>273.9840378785</course>
        <speed>7.06100566058341</speed>
      </trkpt>
      <trkpt lat="43.85967" lon="4.12769">
        <ele>108</ele>
        <time>2012-01-06T15:24:13Z</time>
        <course>277.137911215744</course>
        <speed>8.31841989959345</speed>
      </trkpt>
      <trkpt lat="43.85994" lon="4.12986">
        <ele>108</ele>
        <time>2012-01-06T15:24:35Z</time>
        <course>272.425842120643</course>
        <speed>7.25452520706904</speed>
      </trkpt>
      <trkpt lat="43.85998" lon="4.13081">
        <ele>108</ele>
        <time>2012-01-06T15:24:45Z</time>
        <course>261.364710873309</course>
        <speed>7.25149044951252</speed>
      </trkpt>
      <trkpt lat="43.85987" lon="4.13154">
        <ele>109</ele>
        <time>2012-01-06T15:24:53Z</time>
        <course>256.653145103867</course>
        <speed>4.06745961395642</speed>
      </trkpt>
      <trkpt lat="43.85923" lon="4.13426">
        <ele>121</ele>
        <time>2012-01-06T15:25:50Z</time>
        <course>262.975953972666</course>
        <speed>7.29201307922675</speed>
      </trkpt>
      <trkpt lat="43.85912" lon="4.13516">
        <ele>121</ele>
        <time>2012-01-06T15:26:00Z</time>
        <course>272.680268630588</course>
        <speed>7.2913006122198</speed>
      </trkpt>
      <trkpt lat="43.85916" lon="4.13602">
        <ele>122</ele>
        <time>2012-01-06T15:26:09Z</time>
        <course>276.562876902235</course>
        <speed>8.31661051126005</speed>
      </trkpt>
      <trkpt lat="43.85936" lon="4.13777">
        <ele>117</ele>
        <time>2012-01-06T15:26:26Z</time>
        <course>281.389868696015</course>
        <speed>8.31472307542849</speed>
      </trkpt>
      <trkpt lat="43.85957" lon="4.13882">
        <ele>115</ele>
        <time>2012-01-06T15:26:37Z</time>
        <course>288.777905144789</course>
        <speed>8.31629276486578</speed>
      </trkpt>
      <trkpt lat="43.85984" lon="4.13962">
        <ele>114</ele>
        <time>2012-01-06T15:26:45Z</time>
        <course>295.978646172062</course>
        <speed>6.80502543315168</speed>
      </trkpt>
      <trkpt lat="43.86119" lon="4.14241">
        <ele>117</ele>
        <time>2012-01-06T15:27:25Z</time>
        <course>290.360403768819</course>
        <speed>2.86586712656971</speed>
      </trkpt>
      <trkpt lat="43.86133" lon="4.14279">
        <ele>120</ele>
        <time>2012-01-06T15:27:37Z</time>
        <course>283.856401872914</course>
        <speed>2.86533047199174</speed>
      </trkpt>
      <trkpt lat="43.86145" lon="4.14328">
        <ele>124</ele>
        <time>2012-01-06T15:27:51Z</time>
        <course>276.486354415173</course>
        <speed>2.86655388413087</speed>
      </trkpt>
      <trkpt lat="43.86152" lon="4.1439">
        <ele>129</ele>
        <time>2012-01-06T15:28:09Z</time>
        <course>269.998274197621</course>
        <speed>8.31113786318753</speed>
      </trkpt>
      <trkpt lat="43.86152" lon="4.1444">
        <ele>128</ele>
        <time>2012-01-06T15:28:14Z</time>
        <course>261.809071418715</course>
        <speed>8.31619274148463</speed>
      </trkpt>
      <trkpt lat="43.86144" lon="4.14496">
        <ele>127</ele>
        <time>2012-01-06T15:28:19Z</time>
        <course>257.150380178122</course>
        <speed>8.31857849910566</speed>
      </trkpt>
      <trkpt lat="43.86101" lon="4.14686">
        <ele>125</ele>
        <time>2012-01-06T15:28:38Z</time>
        <course>260.584592234451</course>
        <speed>8.32338779138622</speed>
      </trkpt>
      <trkpt lat="43.86088" lon="4.14765">
        <ele>122</ele>
        <time>2012-01-06T15:28:46Z</time>
        <course>265.199095878437</course>
        <speed>8.31480469586467</speed>
      </trkpt>
      <trkpt lat="43.86083" lon="4.14825">
        <ele>121</ele>
        <time>2012-01-06T15:28:52Z</time>
        <course>271.15219391593</course>
        <speed>8.31716674587039</speed>
      </trkpt>
      <trkpt lat="43.8609" lon="4.15172">
        <ele>121</ele>
        <time>2012-01-06T15:29:25Z</time>
        <course>269.997120533687</course>
        <speed>4.78415595776261</speed>
      </trkpt>
      <trkpt lat="43.8609" lon="4.15255">
        <ele>123</ele>
        <time>2012-01-06T15:29:39Z</time>
        <course>265.254432074808</course>
        <speed>4.78332055151669</speed>
      </trkpt>
      <trkpt lat="43.86083" lon="4.1534">
        <ele>126</ele>
        <time>2012-01-06T15:29:53Z</time>
        <course>258.860428004349</course>
        <speed>3.79102958807492</speed>
      </trkpt>
      <trkpt lat="43.86066" lon="4.15427">
        <ele>130</ele>
        <time>2012-01-06T15:30:13Z</time>
        <course>253.40451980558</course>
        <speed>3.79074369707207</speed>
      </trkpt>
      <trkpt lat="43.86045" lon="4.15498">
        <ele>134</ele>
        <time>2012-01-06T15:30:29Z</time>
        <course>249.84977374016</course>
        <speed>5.15123291316875</speed>
      </trkpt>
      <trkpt lat="43.85966" lon="4.15715">
        <ele>140</ele>
        <time>2012-01-06T15:31:07Z</time>
        <course>257.568082608739</course>
        <speed>6.26736150558885</speed>
      </trkpt>
      <trkpt lat="43.85952" lon="4.15779">
        <ele>140</ele>
        <time>2012-01-06T15:31:15Z</time>
        <course>264.245319770019</course>
        <speed>6.27046196131296</speed>
      </trkpt>
      <trkpt lat="43.85949" lon="4.15809">
        <ele>141</ele>
        <time>2012-01-06T15:31:19Z</time>
        <course>271.047598548018</course>
        <speed>6.27043491546038</speed>
      </trkpt>
      <trkpt lat="43.8595" lon="4.15864">
        <ele>142</ele>
        <time>2012-01-06T15:31:26Z</time>
        <course>278.698829309948</course>
        <speed>5.35477549846177</speed>
      </trkpt>
      <trkpt lat="43.85962" lon="4.15943">
        <ele>143</ele>
        <time>2012-01-06T15:31:38Z</time>
        <course>260.288956099717</course>
        <speed>5.35950831221119</speed>
      </trkpt>
      <trkpt lat="43.85953" lon="4.15996">
        <ele>145</ele>
        <time>2012-01-06T15:31:46Z</time>
        <course>287.477031022245</course>
        <speed>5.52242333939108</speed>
      </trkpt>
      <trkpt lat="43.85958" lon="4.16012">
        <ele>145</ele>
        <time>2012-01-06T15:31:49Z</time>
        <course>309.384288323244</course>
        <speed>5.51413181119888</speed>
      </trkpt>
      <trkpt lat="43.8598" lon="4.16039">
        <ele>146</ele>
        <time>2012-01-06T15:31:55Z</time>
        <course>290.120623714524</course>
        <speed>5.51438936674265</speed>
      </trkpt>
      <trkpt lat="43.85992" lon="4.16072">
        <ele>146</ele>
        <time>2012-01-06T15:32:00Z</time>
        <course>281.732128865834</course>
        <speed>5.51383872079697</speed>
      </trkpt>
      <trkpt lat="43.86012" lon="4.16169">
        <ele>149</ele>
        <time>2012-01-06T15:32:15Z</time>
        <course>277.928980765018</course>
        <speed>5.58127741058414</speed>
      </trkpt>
      <trkpt lat="43.86025" lon="4.16263">
        <ele>150</ele>
        <time>2012-01-06T15:32:28Z</time>
        <course>273.229745064539</course>
        <speed>5.58003709985213</speed>
      </trkpt>
      <trkpt lat="43.86031" lon="4.1637">
        <ele>153</ele>
        <time>2012-01-06T15:32:44Z</time>
        <course>268.728357584377</course>
        <speed>8.31744364294077</speed>
      </trkpt>
      <trkpt lat="43.86029" lon="4.16461">
        <ele>152</ele>
        <time>2012-01-06T15:32:53Z</time>
        <course>266.07052905251</course>
        <speed>8.31772795703476</speed>
      </trkpt>
      <trkpt lat="43.86016" lon="4.16652">
        <ele>151</ele>
        <time>2012-01-06T15:33:11Z</time>
        <course>261.404018753057</course>
        <speed>7.03466946312011</speed>
      </trkpt>
      <trkpt lat="43.86007" lon="4.16712">
        <ele>151</ele>
        <time>2012-01-06T15:33:18Z</time>
        <course>253.179646679929</course>
        <speed>7.03891929254413</speed>
      </trkpt>
      <trkpt lat="43.85986" lon="4.16782">
        <ele>152</ele>
        <time>2012-01-06T15:33:27Z</time>
        <course>248.218869946515</course>
        <speed>8.31269294418195</speed>
      </trkpt>
      <trkpt lat="43.85963" lon="4.1684">
        <ele>151</ele>
        <time>2012-01-06T15:33:33Z</time>
        <course>241.198445647106</course>
        <speed>8.31905644743171</speed>
      </trkpt>
      <trkpt lat="43.85849" lon="4.17049">
        <ele>150</ele>
        <time>2012-01-06T15:33:58Z</time>
        <course>244.300309223054</course>
        <speed>8.32053100344814</speed>
      </trkpt>
      <trkpt lat="43.85796" lon="4.1716">
        <ele>149</ele>
        <time>2012-01-06T15:34:11Z</time>
        <course>246.013652693236</course>
        <speed>5.81675083137304</speed>
      </trkpt>
      <trkpt lat="43.85687" lon="4.17407">
        <ele>154</ele>
        <time>2012-01-06T15:34:51Z</time>
        <course>250.828937098351</course>
        <speed>5.67830672125846</speed>
      </trkpt>
      <trkpt lat="43.85637" lon="4.17552">
        <ele>157</ele>
        <time>2012-01-06T15:35:14Z</time>
        <course>256.52636817878</course>
        <speed>6.59315582998748</speed>
      </trkpt>
      <trkpt lat="43.85594" lon="4.17733">
        <ele>159</ele>
        <time>2012-01-06T15:35:37Z</time>
        <course>258.050354902956</course>
        <speed>5.51290410072646</speed>
      </trkpt>
      <trkpt lat="43.85525" lon="4.18062">
        <ele>166</ele>
        <time>2012-01-06T15:36:27Z</time>
        <course>260.579769568673</course>
        <speed>8.31707678517074</speed>
      </trkpt>
      <trkpt lat="43.855" lon="4.18214">
        <ele>165</ele>
        <time>2012-01-06T15:36:42Z</time>
        <course>268.415192760405</course>
        <speed>6.32135514395596</speed>
      </trkpt>
      <trkpt lat="43.85498" lon="4.18287">
        <ele>165</ele>
        <time>2012-01-06T15:36:51Z</time>
        <course>278.970084624219</course>
        <speed>6.32500531846271</speed>
      </trkpt>
      <trkpt lat="43.85511" lon="4.1837">
        <ele>167</ele>
        <time>2012-01-06T15:37:02Z</time>
        <course>289.354868508777</course>
        <speed>8.3195822447322</speed>
      </trkpt>
      <trkpt lat="43.85534" lon="4.18436">
        <ele>166</ele>
        <time>2012-01-06T15:37:09Z</time>
        <course>292.892358926573</course>
        <speed>8.31861214004935</speed>
      </trkpt>
      <trkpt lat="43.85844" lon="4.19175">
        <ele>156</ele>
        <time>2012-01-06T15:38:31Z</time>
        <course>289.872960448546</course>
        <speed>8.31837682219573</speed>
      </trkpt>
      <trkpt lat="43.85905" lon="4.19345">
        <ele>153</ele>
        <time>2012-01-06T15:38:49Z</time>
        <course>292.374932903925</course>
        <speed>8.31763773027948</speed>
      </trkpt>
      <trkpt lat="43.86017" lon="4.19619">
        <ele>147</ele>
        <time>2012-01-06T15:39:20Z</time>
        <course>289.398364118424</course>
        <speed>7.03412695096907</speed>
      </trkpt>
      <trkpt lat="43.8606" lon="4.19742">
        <ele>148</ele>
        <time>2012-01-06T15:39:35Z</time>
        <course>286.923178545441</course>
        <speed>8.31438914663437</speed>
      </trkpt>
      <trkpt lat="43.86089" lon="4.19838">
        <ele>146</ele>
        <time>2012-01-06T15:39:45Z</time>
        <course>284.795197858924</course>
        <speed>8.31717078669259</speed>
      </trkpt>
      <trkpt lat="43.86158" lon="4.20101">
        <ele>144</ele>
        <time>2012-01-06T15:40:12Z</time>
        <course>283.199306919801</course>
        <speed>5.75486784797072</speed>
      </trkpt>
      <trkpt lat="43.86175" lon="4.20174">
        <ele>145</ele>
        <time>2012-01-06T15:40:23Z</time>
        <course>279.000707003052</course>
        <speed>5.75577017446475</speed>
      </trkpt>
      <trkpt lat="43.86189" lon="4.20263">
        <ele>147</ele>
        <time>2012-01-06T15:40:36Z</time>
        <course>272.026427008583</course>
        <speed>5.45257709745087</speed>
      </trkpt>
      <trkpt lat="43.86194" lon="4.20405">
        <ele>150</ele>
        <time>2012-01-06T15:40:57Z</time>
        <course>269.57704808085</course>
        <speed>7.04713469691583</speed>
      </trkpt>
      <trkpt lat="43.86193" lon="4.20543">
        <ele>151</ele>
        <time>2012-01-06T15:41:12Z</time>
        <course>269.168354386386</course>
        <speed>6.72323539533059</speed>
      </trkpt>
      <trkpt lat="43.8619" lon="4.20753">
        <ele>153</ele>
        <time>2012-01-06T15:41:37Z</time>
        <course>265.509374108081</course>
        <speed>8.31779875551774</speed>
      </trkpt>
      <trkpt lat="43.86184" lon="4.2083">
        <ele>150</ele>
        <time>2012-01-06T15:41:45Z</time>
        <course>262.255159773907</course>
        <speed>8.31724930039185</speed>
      </trkpt>
      <trkpt lat="43.86155" lon="4.21045">
        <ele>142</ele>
        <time>2012-01-06T15:42:06Z</time>
        <course>260.358985433823</course>
        <speed>7.27005770132056</speed>
      </trkpt>
      <trkpt lat="43.8607" lon="4.2155">
        <ele>145</ele>
        <time>2012-01-06T15:43:03Z</time>
        <course>247.600022141851</course>
        <speed>8.32279070429418</speed>
      </trkpt>
      <trkpt lat="43.86052" lon="4.21594">
        <ele>145</ele>
        <time>2012-01-06T15:43:08Z</time>
        <course>202.468733324226</course>
        <speed>8.33722570354069</speed>
      </trkpt>
      <trkpt lat="43.8604" lon="4.21599">
        <ele>145</ele>
        <time>2012-01-06T15:43:10Z</time>
        <course>245.878008204957</course>
        <speed>8.30462691091645</speed>
      </trkpt>
      <trkpt lat="43.86032" lon="4.21617">
        <ele>145</ele>
        <time>2012-01-06T15:43:12Z</time>
        <course>272.745954298883</course>
        <speed>8.30643265318869</speed>
      </trkpt>
      <trkpt lat="43.86033" lon="4.21638">
        <ele>145</ele>
        <time>2012-01-06T15:43:14Z</time>
        <course>305.19252106718</course>
        <speed>8.33342295672585</speed>
      </trkpt>
      <trkpt lat="43.8604" lon="4.21648">
        <ele>145</ele>
        <time>2012-01-06T15:43:15Z</time>
        <course>277.177161545476</course>
        <speed>8.34009787015533</speed>
      </trkpt>
      <trkpt lat="43.86042" lon="4.21664">
        <ele>145</ele>
        <time>2012-01-06T15:43:17Z</time>
        <course>268.438988542147</course>
        <speed>8.30967358862316</speed>
      </trkpt>
      <trkpt lat="43.86041" lon="4.21701">
        <ele>145</ele>
        <time>2012-01-06T15:43:20Z</time>
        <course>261.903309666586</course>
        <speed>6.39781454525431</speed>
      </trkpt>
      <trkpt lat="43.86018" lon="4.21864">
        <ele>147</ele>
        <time>2012-01-06T15:43:41Z</time>
        <course>261.222356858583</course>
        <speed>7.2961079615916</speed>
      </trkpt>
      <trkpt lat="43.85727" lon="4.23778">
        <ele>158</ele>
        <time>2012-01-06T15:47:16Z</time>
        <course>261.783271449154</course>
        <speed>8.01399808779994</speed>
      </trkpt>
      <trkpt lat="43.85635" lon="4.24422">
        <ele>159</ele>
        <time>2012-01-06T15:48:21Z</time>
        <course>261.224756816371</course>
        <speed>7.41238978325677</speed>
      </trkpt>
      <trkpt lat="43.85574" lon="4.24821">
        <ele>161</ele>
        <time>2012-01-06T15:49:05Z</time>
        <course>262.027192660691</course>
        <speed>7.0128584143848</speed>
      </trkpt>
      <trkpt lat="43.85483" lon="4.25478">
        <ele>166</ele>
        <time>2012-01-06T15:50:22Z</time>
        <course>260.790849938383</course>
        <speed>8.31799836486547</speed>
      </trkpt>
      <trkpt lat="43.85342" lon="4.26358">
        <ele>165</ele>
        <time>2012-01-06T15:51:49Z</time>
        <course>262.134845267481</course>
        <speed>8.31772743038317</speed>
      </trkpt>
      <trkpt lat="43.85297" lon="4.26687">
        <ele>162</ele>
        <time>2012-01-06T15:52:21Z</time>
        <course>264.464412658053</course>
        <speed>6.62336372595907</speed>
      </trkpt>
      <trkpt lat="43.8526" lon="4.27073">
        <ele>166</ele>
        <time>2012-01-06T15:53:08Z</time>
        <course>259.853489190083</course>
        <speed>5.36862960166996</speed>
      </trkpt>
      <trkpt lat="43.85249" lon="4.27135">
        <ele>167</ele>
        <time>2012-01-06T15:53:18Z</time>
        <course>254.41208376763</course>
        <speed>5.3711324992274</speed>
      </trkpt>
      <trkpt lat="43.85236" lon="4.27182">
        <ele>168</ele>
        <time>2012-01-06T15:53:25Z</time>
        <course>249.703919712086</course>
        <speed>5.37223507492155</speed>
      </trkpt>
      <trkpt lat="43.85214" lon="4.27242">
        <ele>170</ele>
        <time>2012-01-06T15:53:35Z</time>
        <course>245.894110669224</course>
        <speed>5.49740846813659</speed>
      </trkpt>
      <trkpt lat="43.85159" lon="4.27366">
        <ele>173</ele>
        <time>2012-01-06T15:53:56Z</time>
        <course>253.078631228427</course>
        <speed>8.31621328277137</speed>
      </trkpt>
      <trkpt lat="43.8514" lon="4.27429">
        <ele>171</ele>
        <time>2012-01-06T15:54:03Z</time>
        <course>257.953728517269</course>
        <speed>8.31895820204154</speed>
      </trkpt>
      <trkpt lat="43.85129" lon="4.27481">
        <ele>170</ele>
        <time>2012-01-06T15:54:08Z</time>
        <course>264.250520235447</course>
        <speed>8.31845556440822</speed>
      </trkpt>
      <trkpt lat="43.85086" lon="4.27913">
        <ele>163</ele>
        <time>2012-01-06T15:54:50Z</time>
        <course>271.719572144815</course>
        <speed>8.31888271839889</speed>
      </trkpt>
      <trkpt lat="43.85093" lon="4.28147">
        <ele>158</ele>
        <time>2012-01-06T15:55:13Z</time>
        <course>266.53283294171</course>
        <speed>6.57485853492275</speed>
      </trkpt>
      <trkpt lat="43.85087" lon="4.28247">
        <ele>159</ele>
        <time>2012-01-06T15:55:25Z</time>
        <course>260.563835949959</course>
        <speed>6.57268759735066</speed>
      </trkpt>
      <trkpt lat="43.85073" lon="4.28332">
        <ele>160</ele>
        <time>2012-01-06T15:55:36Z</time>
        <course>255.61391562649</course>
        <speed>8.31361987895817</speed>
      </trkpt>
      <trkpt lat="43.85058" lon="4.28391">
        <ele>158</ele>
        <time>2012-01-06T15:55:42Z</time>
        <course>246.614588042411</course>
        <speed>8.32073978393342</speed>
      </trkpt>
      <trkpt lat="43.85001" lon="4.28524">
        <ele>154</ele>
        <time>2012-01-06T15:55:57Z</time>
        <course>250.799261763626</course>
        <speed>7.35984048143816</speed>
      </trkpt>
      <trkpt lat="43.84882" lon="4.28869">
        <ele>156</ele>
        <time>2012-01-06T15:56:38Z</time>
        <course>247.262172720812</course>
        <speed>8.3178718252871</speed>
      </trkpt>
      <trkpt lat="43.84811" lon="4.2904">
        <ele>152</ele>
        <time>2012-01-06T15:56:57Z</time>
        <course>251.931354540082</course>
        <speed>7.21497264373333</speed>
      </trkpt>
      <trkpt lat="43.84779" lon="4.29139">
        <ele>152</ele>
        <time>2012-01-06T15:57:09Z</time>
        <course>248.27257344821</course>
        <speed>7.21440431700854</speed>
      </trkpt>
      <trkpt lat="43.84704" lon="4.29329">
        <ele>154</ele>
        <time>2012-01-06T15:57:33Z</time>
        <course>253.483487487048</course>
        <speed>8.31571139368793</speed>
      </trkpt>
      <trkpt lat="43.84662" lon="4.29472">
        <ele>152</ele>
        <time>2012-01-06T15:57:48Z</time>
        <course>248.670662617474</course>
        <speed>8.3170009102866</speed>
      </trkpt>
      <trkpt lat="43.84621" lon="4.29578">
        <ele>149</ele>
        <time>2012-01-06T15:58:00Z</time>
        <course>251.573862679849</course>
        <speed>8.32211345923265</speed>
      </trkpt>
      <trkpt lat="43.84588" lon="4.29678">
        <ele>147</ele>
        <time>2012-01-06T15:58:10Z</time>
        <course>254.101500405731</course>
        <speed>8.31895397725831</speed>
      </trkpt>
      <trkpt lat="43.84473" lon="4.30086">
        <ele>147</ele>
        <time>2012-01-06T15:58:53Z</time>
        <course>255.338005337578</course>
        <speed>8.31998653559898</speed>
      </trkpt>
      <trkpt lat="43.8443" lon="4.30252">
        <ele>147</ele>
        <time>2012-01-06T15:59:10Z</time>
        <course>261.499399260246</course>
        <speed>8.31869840671183</speed>
      </trkpt>
      <trkpt lat="43.84365" lon="4.30692">
        <ele>137</ele>
        <time>2012-01-06T15:59:53Z</time>
        <course>271.417438610818</course>
        <speed>8.31902305500841</speed>
      </trkpt>
      <trkpt lat="43.84368" lon="4.30814">
        <ele>136</ele>
        <time>2012-01-06T16:00:05Z</time>
        <course>237.744679450444</course>
        <speed>8.31752540041492</speed>
      </trkpt>
      <trkpt lat="43.84353" lon="4.30838">
        <ele>136</ele>
        <time>2012-01-06T16:00:08Z</time>
        <course>259.896179861962</course>
        <speed>8.29959042620371</speed>
      </trkpt>
      <trkpt lat="43.8435" lon="4.30855">
        <ele>135</ele>
        <time>2012-01-06T16:00:09Z</time>
        <course>283.447649274042</course>
        <speed>8.32585999362667</speed>
      </trkpt>
      <trkpt lat="43.84359" lon="4.30893">
        <ele>135</ele>
        <time>2012-01-06T16:00:13Z</time>
        <course>264.417953379172</course>
        <speed>8.32795027784224</speed>
      </trkpt>
      <trkpt lat="43.84356" lon="4.30924">
        <ele>134</ele>
        <time>2012-01-06T16:00:16Z</time>
        <course>236.960354989527</course>
        <speed>8.31948041225652</speed>
      </trkpt>
      <trkpt lat="43.84318" lon="4.30983">
        <ele>134</ele>
        <time>2012-01-06T16:00:24Z</time>
        <course>249.68057524326</course>
        <speed>8.3246661424238</speed>
      </trkpt>
      <trkpt lat="43.84296" lon="4.31043">
        <ele>131</ele>
        <time>2012-01-06T16:00:30Z</time>
        <course>252.736415684733</course>
        <speed>8.31868686886975</speed>
      </trkpt>
      <trkpt lat="43.84272" lon="4.31121">
        <ele>128</ele>
        <time>2012-01-06T16:00:38Z</time>
        <course>257.031760106853</course>
        <speed>8.31956076221808</speed>
      </trkpt>
      <trkpt lat="43.84241" lon="4.31257">
        <ele>125</ele>
        <time>2012-01-06T16:00:52Z</time>
        <course>245.560160763891</course>
        <speed>8.32290833147698</speed>
      </trkpt>
      <trkpt lat="43.84232" lon="4.31277">
        <ele>124</ele>
        <time>2012-01-06T16:00:54Z</time>
        <course>237.179291566795</course>
        <speed>8.31883959028537</speed>
      </trkpt>
      <trkpt lat="43.84179" lon="4.3136">
        <ele>122</ele>
        <time>2012-01-06T16:01:05Z</time>
        <course>255.009854127437</course>
        <speed>7.73700728171656</speed>
      </trkpt>
      <trkpt lat="43.84157" lon="4.31443">
        <ele>122</ele>
        <time>2012-01-06T16:01:14Z</time>
        <course>260.714837034121</course>
        <speed>7.73315067678992</speed>
      </trkpt>
      <trkpt lat="43.84119" lon="4.31678">
        <ele>123</ele>
        <time>2012-01-06T16:01:39Z</time>
        <course>253.901568569514</course>
        <speed>8.32333624810542</speed>
      </trkpt>
      <trkpt lat="43.84111" lon="4.31706">
        <ele>122</ele>
        <time>2012-01-06T16:01:42Z</time>
        <course>250.794526509014</course>
        <speed>8.32384050890889</speed>
      </trkpt>
      <trkpt lat="43.84091" lon="4.31764">
        <ele>121</ele>
        <time>2012-01-06T16:01:48Z</time>
        <course>243.20228051244</course>
        <speed>8.31580677794161</speed>
      </trkpt>
      <trkpt lat="43.84069" lon="4.31808">
        <ele>120</ele>
        <time>2012-01-06T16:01:54Z</time>
        <course>237.313652829692</course>
        <speed>8.31857862111524</speed>
      </trkpt>
      <trkpt lat="43.84022" lon="4.31882">
        <ele>118</ele>
        <time>2012-01-06T16:02:03Z</time>
        <course>252.477969545088</course>
        <speed>8.31878549221391</speed>
      </trkpt>
      <trkpt lat="43.84007" lon="4.3193">
        <ele>117</ele>
        <time>2012-01-06T16:02:08Z</time>
        <course>256.822125851859</course>
        <speed>8.31931649433867</speed>
      </trkpt>
      <trkpt lat="43.83966" lon="4.32107">
        <ele>116</ele>
        <time>2012-01-06T16:02:26Z</time>
        <course>249.238074198209</course>
        <speed>8.31754713610031</speed>
      </trkpt>
      <trkpt lat="43.83861" lon="4.32387">
        <ele>115</ele>
        <time>2012-01-06T16:02:56Z</time>
        <course>247.800394644963</course>
        <speed>8.31727540940955</speed>
      </trkpt>
      <trkpt lat="43.83796" lon="4.32548">
        <ele>109</ele>
        <time>2012-01-06T16:03:14Z</time>
        <course>252.725867115726</course>
        <speed>8.31418373261006</speed>
      </trkpt>
      <trkpt lat="43.8378" lon="4.326">
        <ele>107</ele>
        <time>2012-01-06T16:03:20Z</time>
        <course>263.098109547966</course>
        <speed>8.31848115254013</speed>
      </trkpt>
      <trkpt lat="43.83739" lon="4.32943">
        <ele>98</ele>
        <time>2012-01-06T16:03:53Z</time>
        <course>258.07453479951</course>
        <speed>8.31812663495905</speed>
      </trkpt>
      <trkpt lat="43.83706" lon="4.33101">
        <ele>93</ele>
        <time>2012-01-06T16:04:09Z</time>
        <course>264.458853178124</course>
        <speed>8.31851700770677</speed>
      </trkpt>
      <trkpt lat="43.83664" lon="4.3354">
        <ele>88</ele>
        <time>2012-01-06T16:04:52Z</time>
        <course>259.84860535063</course>
        <speed>8.32265363096973</speed>
      </trkpt>
      <trkpt lat="43.83647" lon="4.33636">
        <ele>86</ele>
        <time>2012-01-06T16:05:01Z</time>
        <course>274.375847267535</course>
        <speed>8.32424686186115</speed>
      </trkpt>
      <trkpt lat="43.83652" lon="4.33702">
        <ele>85</ele>
        <time>2012-01-06T16:05:08Z</time>
        <course>280.407923191495</course>
        <speed>8.31835616588312</speed>
      </trkpt>
      <trkpt lat="43.83752" lon="4.34251">
        <ele>67</ele>
        <time>2012-01-06T16:06:02Z</time>
        <course>269.997230832335</course>
        <speed>8.31293833639181</speed>
      </trkpt>
      <trkpt lat="43.83752" lon="4.34318">
        <ele>65</ele>
        <time>2012-01-06T16:06:09Z</time>
        <course>238.768694517224</course>
        <speed>8.30730306665484</speed>
      </trkpt>
      <trkpt lat="43.8374" lon="4.34338">
        <ele>65</ele>
        <time>2012-01-06T16:06:11Z</time>
        <course>259.000874844757</course>
        <speed>8.32718074444005</speed>
      </trkpt>
      <trkpt lat="43.83735" lon="4.34364">
        <ele>64</ele>
        <time>2012-01-06T16:06:14Z</time>
        <course>262.454199670694</course>
        <speed>8.31954108980006</speed>
      </trkpt>
      <trkpt lat="43.83713" lon="4.34532">
        <ele>61</ele>
        <time>2012-01-06T16:06:30Z</time>
        <course>275.094351908944</course>
        <speed>8.31965345973996</speed>
      </trkpt>
      <trkpt lat="43.83716" lon="4.34566">
        <ele>60</ele>
        <time>2012-01-06T16:06:33Z</time>
        <course>291.575842892167</course>
        <speed>8.32259388430791</speed>
      </trkpt>
      <trkpt lat="43.83725" lon="4.34589">
        <ele>60</ele>
        <time>2012-01-06T16:06:36Z</time>
        <course>278.730907525463</course>
        <speed>8.31869412326585</speed>
      </trkpt>
      <trkpt lat="43.83803" lon="4.35101">
        <ele>56</ele>
        <time>2012-01-06T16:07:26Z</time>
        <course>265.551532152108</course>
        <speed>6.28004958640827</speed>
      </trkpt>
      <trkpt lat="43.83796" lon="4.35192">
        <ele>57</ele>
        <time>2012-01-06T16:07:38Z</time>
        <course>307.156891842345</course>
        <speed>6.27132448979448</speed>
      </trkpt>
      <trkpt lat="43.83808" lon="4.35208">
        <ele>57</ele>
        <time>2012-01-06T16:07:41Z</time>
        <course>328.52998693676</course>
        <speed>6.27780533435619</speed>
      </trkpt>
      <trkpt lat="43.83884" lon="4.35255">
        <ele>59</ele>
        <time>2012-01-06T16:07:56Z</time>
        <course>275.02010994835</course>
        <speed>8.32643044857734</speed>
      </trkpt>
      <trkpt lat="43.83886" lon="4.35278">
        <ele>58</ele>
        <time>2012-01-06T16:07:58Z</time>
        <course>240.268911549118</course>
        <speed>8.30503204060927</speed>
      </trkpt>
      <trkpt lat="43.83873" lon="4.35301">
        <ele>58</ele>
        <time>2012-01-06T16:08:01Z</time>
        <course>247.192459938311</course>
        <speed>8.31784801075652</speed>
      </trkpt>
      <trkpt lat="43.83816" lon="4.35438">
        <ele>58</ele>
        <time>2012-01-06T16:08:16Z</time>
        <course>278.106964392393</course>
        <speed>8.31608911014196</speed>
      </trkpt>
      <trkpt lat="43.83827" lon="4.35516">
        <ele>56</ele>
        <time>2012-01-06T16:08:24Z</time>
        <course>285.863339791857</course>
        <speed>8.31691313041177</speed>
      </trkpt>
      <trkpt lat="43.83836" lon="4.35548">
        <ele>56</ele>
        <time>2012-01-06T16:08:27Z</time>
        <course>279.715845392335</course>
        <speed>8.31793930535229</speed>
      </trkpt>
      <trkpt lat="43.83846" lon="4.35607">
        <ele>55</ele>
        <time>2012-01-06T16:08:33Z</time>
        <course>279.715845392335</course>
        <speed>8.31793930535229</speed>
      </trkpt>
      <trkpt lat="43.83846" lon="4.35607">
        <ele>55</ele>
        <time>2012-01-06T16:08:34Z</time>
        <course>278.826894647257</course>
        <speed>7.88926206769575</speed>
      </trkpt>
      <trkpt lat="43.83915" lon="4.36055">
        <ele>56</ele>
        <time>2012-01-06T16:09:20Z</time>
        <course>252.729840869453</course>
        <speed>8.32932188887378</speed>
      </trkpt>
      <trkpt lat="43.83907" lon="4.36081">
        <ele>55</ele>
        <time>2012-01-06T16:09:23Z</time>
        <course>245.22203232461</course>
        <speed>8.31657109813093</speed>
      </trkpt>
      <trkpt lat="43.8387" lon="4.36162">
        <ele>53</ele>
        <time>2012-01-06T16:09:32Z</time>
        <course>263.139346719305</course>
        <speed>8.32157264805751</speed>
      </trkpt>
      <trkpt lat="43.83865" lon="4.36204">
        <ele>52</ele>
        <time>2012-01-06T16:09:36Z</time>
        <course>255.175729952514</course>
        <speed>8.30940395230892</speed>
      </trkpt>
      <trkpt lat="43.83854" lon="4.36246">
        <ele>51</ele>
        <time>2012-01-06T16:09:41Z</time>
        <course>268.493469291209</course>
        <speed>8.32287063254979</speed>
      </trkpt>
      <trkpt lat="43.83852" lon="4.36323">
        <ele>51</ele>
        <time>2012-01-06T16:09:48Z</time>
        <course>346.10222636959</course>
        <speed>8.31255172953059</speed>
      </trkpt>
      <trkpt lat="43.83888" lon="4.36332">
        <ele>51</ele>
        <time>2012-01-06T16:09:53Z</time>
        <course>293.073043069815</course>
        <speed>8.32167673697866</speed>
      </trkpt>
      <trkpt lat="43.83923" lon="4.36415">
        <ele>51</ele>
        <time>2012-01-06T16:10:02Z</time>
        <course>318.469874385009</course>
        <speed>8.32042336156121</speed>
      </trkpt>
      <trkpt lat="43.83961" lon="4.36449">
        <ele>51</ele>
        <time>2012-01-06T16:10:08Z</time>
        <course>309.21244034866</course>
        <speed>6.78643736130469</speed>
      </trkpt>
      <trkpt lat="43.83982" lon="4.36475">
        <ele>51</ele>
        <time>2012-01-06T16:10:13Z</time>
        <course>300.719440287098</course>
        <speed>6.78837981045158</speed>
      </trkpt>
      <trkpt lat="43.84002" lon="4.36509">
        <ele>51</ele>
        <time>2012-01-06T16:10:18Z</time>
        <course>313.957145746016</course>
        <speed>6.78605556515318</speed>
      </trkpt>
      <trkpt lat="43.84023" lon="4.36531">
        <ele>52</ele>
        <time>2012-01-06T16:10:22Z</time>
        <course>307.548294910069</course>
        <speed>6.78814824485315</speed>
      </trkpt>
      <trkpt lat="43.84192" lon="4.36753">
        <ele>55</ele>
        <time>2012-01-06T16:11:01Z</time>
        <course>302.677768555065</course>
        <speed>8.31844199701491</speed>
      </trkpt>
      <trkpt lat="43.84307" lon="4.36934">
        <ele>53</ele>
        <time>2012-01-06T16:11:24Z</time>
        <course>278.207896282707</course>
        <speed>8.28852189828783</speed>
      </trkpt>
      <trkpt lat="43.84309" lon="4.36948">
        <ele>52</ele>
        <time>2012-01-06T16:11:25Z</time>
        <course>253.906574988433</course>
        <speed>8.26609595383722</speed>
      </trkpt>
      <trkpt lat="43.84307" lon="4.36955">
        <ele>52</ele>
        <time>2012-01-06T16:11:26Z</time>
        <course>208.376451103988</course>
        <speed>8.31332839130206</speed>
      </trkpt>
      <trkpt lat="43.84296" lon="4.36961">
        <ele>52</ele>
        <time>2012-01-06T16:11:27Z</time>
        <course>230.710537606734</course>
        <speed>8.31590805698377</speed>
      </trkpt>
      <trkpt lat="43.84232" lon="4.3704">
        <ele>52</ele>
        <time>2012-01-06T16:11:39Z</time>
        <course>236.756438218999</course>
        <speed>8.32036162949949</speed>
      </trkpt>
      <trkpt lat="43.84171" lon="4.37134">
        <ele>51</ele>
        <time>2012-01-06T16:11:51Z</time>
        <course>214.002035526047</course>
        <speed>8.31815985180717</speed>
      </trkpt>
      <trkpt lat="43.84058" lon="4.37211">
        <ele>49</ele>
        <time>2012-01-06T16:12:08Z</time>
        <course>284.274283356716</course>
        <speed>8.31939162284762</speed>
      </trkpt>
      <trkpt lat="43.8409" lon="4.37338">
        <ele>49</ele>
        <time>2012-01-06T16:12:21Z</time>
        <course>289.098524458918</course>
        <speed>7.1155630436807</speed>
      </trkpt>
      <trkpt lat="43.84114" lon="4.37408">
        <ele>49</ele>
        <time>2012-01-06T16:12:30Z</time>
        <course>281.914813215721</course>
        <speed>7.11276404179411</speed>
      </trkpt>
      <trkpt lat="43.84128" lon="4.37475">
        <ele>50</ele>
        <time>2012-01-06T16:12:37Z</time>
        <course>276.772323904011</course>
        <speed>8.31624311196289</speed>
      </trkpt>
      <trkpt lat="43.8414" lon="4.37577">
        <ele>49</ele>
        <time>2012-01-06T16:12:47Z</time>
        <course>283.442186340924</course>
        <speed>8.31779926250728</speed>
      </trkpt>
      <trkpt lat="43.84273" lon="4.38138">
        <ele>48</ele>
        <time>2012-01-06T16:13:44Z</time>
        <course>281.233178966504</course>
        <speed>8.32086157079324</speed>
      </trkpt>
      <trkpt lat="43.84285" lon="4.38199">
        <ele>47</ele>
        <time>2012-01-06T16:13:50Z</time>
        <course>269.999243432889</course>
        <speed>8.32100893247394</speed>
      </trkpt>
      <trkpt lat="43.84285" lon="4.38218">
        <ele>47</ele>
        <time>2012-01-06T16:13:52Z</time>
        <course>261.001825586423</course>
        <speed>8.31782432081344</speed>
      </trkpt>
      <trkpt lat="43.84184" lon="4.38864">
        <ele>43</ele>
        <time>2012-01-06T16:14:56Z</time>
        <course>245.341221795057</course>
        <speed>8.33658919264562</speed>
      </trkpt>
      <trkpt lat="43.84179" lon="4.38875">
        <ele>42</ele>
        <time>2012-01-06T16:14:57Z</time>
        <course>258.900392591856</course>
        <speed>8.31611001832254</speed>
      </trkpt>
      <trkpt lat="43.84159" lon="4.38978">
        <ele>42</ele>
        <time>2012-01-06T16:15:07Z</time>
        <course>210.712867301022</course>
        <speed>8.29307082091611</speed>
      </trkpt>
      <trkpt lat="43.84149" lon="4.38984">
        <ele>42</ele>
        <time>2012-01-06T16:15:09Z</time>
        <course>238.783730235226</course>
        <speed>7.55453062529736</speed>
      </trkpt>
      <trkpt lat="43.84143" lon="4.38994">
        <ele>42</ele>
        <time>2012-01-06T16:15:10Z</time>
        <course>263.596169138711</course>
        <speed>7.56296675433308</speed>
      </trkpt>
      <trkpt lat="43.84141" lon="4.39012">
        <ele>42</ele>
        <time>2012-01-06T16:15:12Z</time>
        <course>290.743595978398</course>
        <speed>7.56705807340917</speed>
      </trkpt>
      <trkpt lat="43.84147" lon="4.39028">
        <ele>42</ele>
        <time>2012-01-06T16:15:14Z</time>
        <course>335.646495835225</course>
        <speed>7.56959599523905</speed>
      </trkpt>
      <trkpt lat="43.84182" lon="4.39044">
        <ele>42</ele>
        <time>2012-01-06T16:15:20Z</time>
        <course>324.35790251991</course>
        <speed>7.57401651210481</speed>
      </trkpt>
      <trkpt lat="43.84211" lon="4.39065">
        <ele>42</ele>
        <time>2012-01-06T16:15:24Z</time>
        <course>317.155976580665</course>
        <speed>7.56980671028283</speed>
      </trkpt>
      <trkpt lat="43.84274" lon="4.39124">
        <ele>43</ele>
        <time>2012-01-06T16:15:36Z</time>
        <course>309.719058305763</course>
        <speed>6.97209086749115</speed>
      </trkpt>
      <trkpt lat="43.84694" lon="4.39634">
        <ele>49</ele>
        <time>2012-01-06T16:17:04Z</time>
        <course>282.20250992837</course>
        <speed>8.30087179659886</speed>
      </trkpt>
      <trkpt lat="43.84697" lon="4.39648">
        <ele>49</ele>
        <time>2012-01-06T16:17:06Z</time>
        <course>297.123491276323</course>
        <speed>8.31627390459429</speed>
      </trkpt>
      <trkpt lat="43.84763" lon="4.39778">
        <ele>49</ele>
        <time>2012-01-06T16:17:21Z</time>
        <course>302.553091441496</course>
        <speed>5.97660331402104</speed>
      </trkpt>
      <trkpt lat="43.84794" lon="4.39827">
        <ele>50</ele>
        <time>2012-01-06T16:17:30Z</time>
        <course>307.750430381301</course>
        <speed>5.97622197276164</speed>
      </trkpt>
      <trkpt lat="43.8486" lon="4.39913">
        <ele>52</ele>
        <time>2012-01-06T16:17:47Z</time>
        <course>311.334173795201</course>
        <speed>6.9747039497463</speed>
      </trkpt>
      <trkpt lat="43.84894" lon="4.39952">
        <ele>52</ele>
        <time>2012-01-06T16:17:54Z</time>
        <course>319.648856191869</course>
        <speed>6.98053533026656</speed>
      </trkpt>
      <trkpt lat="43.84936" lon="4.39988">
        <ele>53</ele>
        <time>2012-01-06T16:18:02Z</time>
        <course>330.786397370638</course>
        <speed>7.36200343245013</speed>
      </trkpt>
      <trkpt lat="43.85014" lon="4.40032">
        <ele>53</ele>
        <time>2012-01-06T16:18:14Z</time>
        <course>344.327396978618</course>
        <speed>7.36614421506352</speed>
      </trkpt>
      <trkpt lat="43.85067" lon="4.40047">
        <ele>54</ele>
        <time>2012-01-06T16:18:23Z</time>
        <course>356.825022623862</course>
        <speed>5.53728624922199</speed>
      </trkpt>
      <trkpt lat="43.8521" lon="4.40055">
        <ele>58</ele>
        <time>2012-01-06T16:18:51Z</time>
        <course>350.984804602088</course>
        <speed>8.32270868557403</speed>
      </trkpt>
      <trkpt lat="43.8526" lon="4.40063">
        <ele>58</ele>
        <time>2012-01-06T16:18:58Z</time>
        <course>338.130160448789</course>
        <speed>8.32496986975407</speed>
      </trkpt>
      <trkpt lat="43.85302" lon="4.4008">
        <ele>58</ele>
        <time>2012-01-06T16:19:04Z</time>
        <course>325.891300183332</course>
        <speed>8.31165988551363</speed>
      </trkpt>
      <trkpt lat="43.85343" lon="4.40108">
        <ele>58</ele>
        <time>2012-01-06T16:19:10Z</time>
        <course>315.892202066725</course>
        <speed>8.3190425371645</speed>
      </trkpt>
      <trkpt lat="43.85431" lon="4.40194">
        <ele>58</ele>
        <time>2012-01-06T16:19:24Z</time>
        <course>335.732497240561</course>
        <speed>6.6995092163476</speed>
      </trkpt>
      <trkpt lat="43.85442" lon="4.40199">
        <ele>58</ele>
        <time>2012-01-06T16:19:26Z</time>
        <course>313.288018384309</course>
        <speed>6.71378310869578</speed>
      </trkpt>
      <trkpt lat="43.85671" lon="4.40444">
        <ele>62</ele>
        <time>2012-01-06T16:20:14Z</time>
        <course>301.162402479508</course>
        <speed>8.31044014735022</speed>
      </trkpt>
      <trkpt lat="43.85692" lon="4.40479">
        <ele>62</ele>
        <time>2012-01-06T16:20:19Z</time>
        <course>283.672684976095</course>
        <speed>8.30635483451661</speed>
      </trkpt>
      <trkpt lat="43.85699" lon="4.40508">
        <ele>62</ele>
        <time>2012-01-06T16:20:21Z</time>
        <course>329.730550859102</course>
        <speed>8.30747050813848</speed>
      </trkpt>
      <trkpt lat="43.85716" lon="4.40518">
        <ele>62</ele>
        <time>2012-01-06T16:20:24Z</time>
        <course>360</course>
        <speed>8.33399999995891</speed>
      </trkpt>
      <trkpt lat="43.85734" lon="4.40518">
        <ele>62</ele>
        <time>2012-01-06T16:20:26Z</time>
        <course>322.52154505309</course>
        <speed>8.32889005479436</speed>
      </trkpt>
      <trkpt lat="43.85756" lon="4.40535">
        <ele>62</ele>
        <time>2012-01-06T16:20:30Z</time>
        <course>304.900291682073</course>
        <speed>5.96340295389929</speed>
      </trkpt>
      <trkpt lat="43.85819" lon="4.40626">
        <ele>64</ele>
        <time>2012-01-06T16:20:47Z</time>
        <course>297.417850119141</course>
        <speed>8.3210460481304</speed>
      </trkpt>
      <trkpt lat="43.85871" lon="4.40727">
        <ele>64</ele>
        <time>2012-01-06T16:20:59Z</time>
        <course>291.743925140774</course>
        <speed>8.32506603063429</speed>
      </trkpt>
      <trkpt lat="43.8589" lon="4.40775">
        <ele>64</ele>
        <time>2012-01-06T16:21:04Z</time>
        <course>286.427451262039</course>
        <speed>6.04663819276885</speed>
      </trkpt>
      <trkpt lat="43.85926" lon="4.40898">
        <ele>66</ele>
        <time>2012-01-06T16:21:21Z</time>
        <course>279.888860475389</course>
        <speed>8.3198175574732</speed>
      </trkpt>
      <trkpt lat="43.85944" lon="4.41002">
        <ele>64</ele>
        <time>2012-01-06T16:21:32Z</time>
        <course>274.667898440239</course>
        <speed>8.32134689465964</speed>
      </trkpt>
      <trkpt lat="43.8595" lon="4.41076">
        <ele>64</ele>
        <time>2012-01-06T16:21:39Z</time>
        <course>269.446517692768</course>
        <speed>8.32201118071349</speed>
      </trkpt>
      <trkpt lat="43.85949" lon="4.41181">
        <ele>63</ele>
        <time>2012-01-06T16:21:49Z</time>
        <course>267.046804676337</course>
        <speed>8.31800749516283</speed>
      </trkpt>
      <trkpt lat="43.85934" lon="4.41475">
        <ele>62</ele>
        <time>2012-01-06T16:22:17Z</time>
        <course>260.560013182537</course>
        <speed>8.32217295013348</speed>
      </trkpt>
      <trkpt lat="43.85918" lon="4.41572">
        <ele>60</ele>
        <time>2012-01-06T16:22:27Z</time>
        <course>248.668377964937</course>
        <speed>8.31634609125821</speed>
      </trkpt>
      <trkpt lat="43.85887" lon="4.41652">
        <ele>60</ele>
        <time>2012-01-06T16:22:36Z</time>
        <course>237.910578676907</course>
        <speed>8.31134898947059</speed>
      </trkpt>
      <trkpt lat="43.85859" lon="4.41697">
        <ele>59</ele>
        <time>2012-01-06T16:22:41Z</time>
        <course>230.575456350548</course>
        <speed>8.31359542259369</speed>
      </trkpt>
      <trkpt lat="43.85828" lon="4.41735">
        <ele>59</ele>
        <time>2012-01-06T16:22:47Z</time>
        <course>225.249415212789</course>
        <speed>8.31669598037351</speed>
      </trkpt>
      <trkpt lat="43.85768" lon="4.41796">
        <ele>59</ele>
        <time>2012-01-06T16:22:57Z</time>
        <course>239.25408193931</course>
        <speed>8.32141781655571</speed>
      </trkpt>
      <trkpt lat="43.85732" lon="4.41857">
        <ele>57</ele>
        <time>2012-01-06T16:23:05Z</time>
        <course>173.210309391758</course>
        <speed>8.32352312530196</speed>
      </trkpt>
      <trkpt lat="43.85707" lon="4.41854">
        <ele>57</ele>
        <time>2012-01-06T16:23:08Z</time>
        <course>217.656503623876</course>
        <speed>8.30886131511036</speed>
      </trkpt>
      <trkpt lat="43.85698" lon="4.41861">
        <ele>57</ele>
        <time>2012-01-06T16:23:09Z</time>
        <course>241.739145723533</course>
        <speed>8.30508596900876</speed>
      </trkpt>
      <trkpt lat="43.8569" lon="4.41876">
        <ele>57</ele>
        <time>2012-01-06T16:23:11Z</time>
        <course>261.805657990026</course>
        <speed>8.32690266961259</speed>
      </trkpt>
      <trkpt lat="43.85687" lon="4.41897">
        <ele>56</ele>
        <time>2012-01-06T16:23:13Z</time>
        <course>283.493880522418</course>
        <speed>8.31921640482945</speed>
      </trkpt>
      <trkpt lat="43.85692" lon="4.41918">
        <ele>56</ele>
        <time>2012-01-06T16:23:15Z</time>
        <course>308.879747791026</course>
        <speed>8.31090559525668</speed>
      </trkpt>
      <trkpt lat="43.857" lon="4.41928">
        <ele>56</ele>
        <time>2012-01-06T16:23:17Z</time>
        <course>335.155016471869</course>
        <speed>8.33477466044422</speed>
      </trkpt>
      <trkpt lat="43.85715" lon="4.41935">
        <ele>56</ele>
        <time>2012-01-06T16:23:19Z</time>
        <course>271.176599425001</course>
        <speed>8.32141669246593</speed>
      </trkpt>
      <trkpt lat="43.85716" lon="4.41984">
        <ele>56</ele>
        <time>2012-01-06T16:23:24Z</time>
        <course>264.893838784969</course>
        <speed>8.31487550779041</speed>
      </trkpt>
      <trkpt lat="43.85709" lon="4.42063">
        <ele>56</ele>
        <time>2012-01-06T16:23:31Z</time>
        <course>272.135881794834</course>
        <speed>8.3156822853938</speed>
      </trkpt>
      <trkpt lat="43.85711" lon="4.42117">
        <ele>55</ele>
        <time>2012-01-06T16:23:36Z</time>
        <course>279.89330988607</course>
        <speed>8.32010715329585</speed>
      </trkpt>
      <trkpt lat="43.8572" lon="4.42169">
        <ele>54</ele>
        <time>2012-01-06T16:23:42Z</time>
        <course>286.208912755821</course>
        <speed>8.32566912989011</speed>
      </trkpt>
      <trkpt lat="43.85735" lon="4.42221">
        <ele>54</ele>
        <time>2012-01-06T16:23:47Z</time>
        <course>293.866432246558</course>
        <speed>8.32493711652</speed>
      </trkpt>
      <trkpt lat="43.85753" lon="4.42262">
        <ele>54</ele>
        <time>2012-01-06T16:23:52Z</time>
        <course>296.904417677284</course>
        <speed>8.31824492274195</speed>
      </trkpt>
      <trkpt lat="43.85888" lon="4.4253">
        <ele>54</ele>
        <time>2012-01-06T16:24:23Z</time>
        <course>300.502323644201</course>
        <speed>8.31712181367872</speed>
      </trkpt>
      <trkpt lat="43.85988" lon="4.42701">
        <ele>54</ele>
        <time>2012-01-06T16:24:44Z</time>
        <course>290.997211011</course>
        <speed>8.30983918929863</speed>
      </trkpt>
      <trkpt lat="43.85996" lon="4.42722">
        <ele>53</ele>
        <time>2012-01-06T16:24:47Z</time>
        <course>269.999370726187</course>
        <speed>8.33633743836195</speed>
      </trkpt>
      <trkpt lat="43.85996" lon="4.4274">
        <ele>53</ele>
        <time>2012-01-06T16:24:48Z</time>
        <course>292.772387667167</course>
        <speed>8.34922127073799</speed>
      </trkpt>
      <trkpt lat="43.86001" lon="4.42752">
        <ele>53</ele>
        <time>2012-01-06T16:24:50Z</time>
        <course>325.818005713881</course>
        <speed>8.31882081044115</speed>
      </trkpt>
      <trkpt lat="43.86039" lon="4.42778">
        <ele>53</ele>
        <time>2012-01-06T16:24:55Z</time>
        <course>297.209686157639</course>
        <speed>8.31751791751694</speed>
      </trkpt>
      <trkpt lat="43.86088" lon="4.42874">
        <ele>53</ele>
        <time>2012-01-06T16:25:07Z</time>
        <course>289.87883450745</course>
        <speed>8.32068298723969</speed>
      </trkpt>
      <trkpt lat="43.86116" lon="4.42952">
        <ele>52</ele>
        <time>2012-01-06T16:25:15Z</time>
        <course>285.312761939061</course>
        <speed>8.31929653124861</speed>
      </trkpt>
      <trkpt lat="43.86181" lon="4.43191">
        <ele>52</ele>
        <time>2012-01-06T16:25:40Z</time>
        <course>287.468869003182</course>
        <speed>8.31622122357311</speed>
      </trkpt>
      <trkpt lat="43.86216" lon="4.43303">
        <ele>52</ele>
        <time>2012-01-06T16:25:51Z</time>
        <course>290.869893166729</course>
        <speed>8.31861297161669</speed>
      </trkpt>
      <trkpt lat="43.86399" lon="4.43786">
        <ele>52</ele>
        <time>2012-01-06T16:26:44Z</time>
        <course>288.966684314513</course>
        <speed>7.09183879421181</speed>
      </trkpt>
      <trkpt lat="43.86577" lon="4.44307">
        <ele>56</ele>
        <time>2012-01-06T16:27:49Z</time>
        <course>286.403238934803</course>
        <speed>8.31587358005281</speed>
      </trkpt>
      <trkpt lat="43.86608" lon="4.44413">
        <ele>56</ele>
        <time>2012-01-06T16:28:00Z</time>
        <course>248.063779708987</course>
        <speed>8.32886282280511</speed>
      </trkpt>
      <trkpt lat="43.866" lon="4.44433">
        <ele>56</ele>
        <time>2012-01-06T16:28:02Z</time>
        <course>280.074070346656</course>
        <speed>6.80646385412066</speed>
      </trkpt>
      <trkpt lat="43.86603" lon="4.4445">
        <ele>56</ele>
        <time>2012-01-06T16:28:04Z</time>
        <course>303.081784036575</course>
        <speed>6.82836415377748</speed>
      </trkpt>
      <trkpt lat="43.86614" lon="4.44467">
        <ele>56</ele>
        <time>2012-01-06T16:28:07Z</time>
        <course>332.262088018097</course>
        <speed>6.83095930435229</speed>
      </trkpt>
      <trkpt lat="43.86631" lon="4.44476">
        <ele>56</ele>
        <time>2012-01-06T16:28:10Z</time>
        <course>300.424332256443</course>
        <speed>6.83217421598547</speed>
      </trkpt>
      <trkpt lat="43.86638" lon="4.44488">
        <ele>56</ele>
        <time>2012-01-06T16:28:12Z</time>
        <course>290.839093445478</course>
        <speed>6.82227387149498</speed>
      </trkpt>
      <trkpt lat="43.86725" lon="4.44718">
        <ele>59</ele>
        <time>2012-01-06T16:28:42Z</time>
        <course>288.939541390329</course>
        <speed>8.31860252933479</speed>
      </trkpt>
      <trkpt lat="43.8707" lon="4.45728">
        <ele>58</ele>
        <time>2012-01-06T16:30:30Z</time>
        <course>295.376702414307</course>
        <speed>7.89945163288464</speed>
      </trkpt>
      <trkpt lat="43.87441" lon="4.46514">
        <ele>60</ele>
        <time>2012-01-06T16:32:05Z</time>
        <course>292.462668019335</course>
        <speed>6.06220131576278</speed>
      </trkpt>
      <trkpt lat="43.87478" lon="4.46604">
        <ele>61</ele>
        <time>2012-01-06T16:32:19Z</time>
        <course>286.032795789895</course>
        <speed>6.0617850576855</speed>
      </trkpt>
      <trkpt lat="43.87482" lon="4.46618">
        <ele>61</ele>
        <time>2012-01-06T16:32:21Z</time>
        <course>262.361330123364</course>
        <speed>6.04902525622015</speed>
      </trkpt>
      <trkpt lat="43.8748" lon="4.46633">
        <ele>62</ele>
        <time>2012-01-06T16:32:23Z</time>
        <course>298.438941289503</course>
        <speed>7.26123891530855</speed>
      </trkpt>
      <trkpt lat="43.87487" lon="4.46646">
        <ele>62</ele>
        <time>2012-01-06T16:32:25Z</time>
        <course>337.49721518921</course>
        <speed>7.28946972631664</speed>
      </trkpt>
      <trkpt lat="43.87499" lon="4.46651">
        <ele>62</ele>
        <time>2012-01-06T16:32:27Z</time>
        <course>308.820066287207</course>
        <speed>7.27863312251934</speed>
      </trkpt>
      <trkpt lat="43.87519" lon="4.46676">
        <ele>62</ele>
        <time>2012-01-06T16:32:31Z</time>
        <course>295.066948475263</course>
        <speed>7.27432615889324</speed>
      </trkpt>
      <trkpt lat="43.87559" lon="4.46762">
        <ele>63</ele>
        <time>2012-01-06T16:32:42Z</time>
        <course>290.728309472765</course>
        <speed>7.98808644482438</speed>
      </trkpt>
      <trkpt lat="43.87594" lon="4.46855">
        <ele>63</ele>
        <time>2012-01-06T16:32:52Z</time>
        <course>283.215671457406</course>
        <speed>7.99004563730312</speed>
      </trkpt>
      <trkpt lat="43.87841" lon="4.4791">
        <ele>65</ele>
        <time>2012-01-06T16:34:44Z</time>
        <course>284.798250920637</course>
        <speed>6.56103261035841</speed>
      </trkpt>
      <trkpt lat="43.87887" lon="4.48085">
        <ele>67</ele>
        <time>2012-01-06T16:35:06Z</time>
        <course>285.752362046568</course>
        <speed>6.91032722881011</speed>
      </trkpt>
      <trkpt lat="43.87951" lon="4.48313">
        <ele>69</ele>
        <time>2012-01-06T16:35:35Z</time>
        <course>288.793390240286</course>
        <speed>8.31857312608201</speed>
      </trkpt>
      <trkpt lat="43.87994" lon="4.4844">
        <ele>68</ele>
        <time>2012-01-06T16:35:48Z</time>
        <course>329.168574942011</course>
        <speed>6.30554856700959</speed>
      </trkpt>
      <trkpt lat="43.87999" lon="4.48443">
        <ele>68</ele>
        <time>2012-01-06T16:35:49Z</time>
        <course>286.640734530881</course>
        <speed>6.29058303696035</speed>
      </trkpt>
      <trkpt lat="43.88082" lon="4.48722">
        <ele>72</ele>
        <time>2012-01-06T16:36:28Z</time>
        <course>290.228111360781</course>
        <speed>7.02038369920501</speed>
      </trkpt>
      <trkpt lat="43.88126" lon="4.48842">
        <ele>73</ele>
        <time>2012-01-06T16:36:43Z</time>
        <course>293.565124874056</course>
        <speed>8.31672333019084</speed>
      </trkpt>
      <trkpt lat="43.88205" lon="4.49024">
        <ele>73</ele>
        <time>2012-01-06T16:37:03Z</time>
        <course>296.671863509321</course>
        <speed>6.29033839788048</speed>
      </trkpt>
      <trkpt lat="43.88332" lon="4.49278">
        <ele>77</ele>
        <time>2012-01-06T16:37:43Z</time>
        <course>279.507664233217</course>
        <speed>8.28942348353933</speed>
      </trkpt>
      <trkpt lat="43.88334" lon="4.4929">
        <ele>77</ele>
        <time>2012-01-06T16:37:44Z</time>
        <course>296.604879970662</course>
        <speed>8.31759795686757</speed>
      </trkpt>
      <trkpt lat="43.88526" lon="4.49675">
        <ele>77</ele>
        <time>2012-01-06T16:38:29Z</time>
        <course>299.092134448136</course>
        <speed>7.8250025611116</speed>
      </trkpt>
      <trkpt lat="43.88562" lon="4.4974">
        <ele>77</ele>
        <time>2012-01-06T16:38:38Z</time>
        <course>296.516225359921</course>
        <speed>7.82533507566338</speed>
      </trkpt>
      <trkpt lat="43.89014" lon="4.50649">
        <ele>80</ele>
        <time>2012-01-06T16:40:31Z</time>
        <course>303.800957879836</course>
        <speed>7.39597386243493</speed>
      </trkpt>
      <trkpt lat="43.89046" lon="4.50697">
        <ele>80</ele>
        <time>2012-01-06T16:40:38Z</time>
        <course>309.993033251124</course>
        <speed>7.39242158286577</speed>
      </trkpt>
      <trkpt lat="43.89336" lon="4.51044">
        <ele>83</ele>
        <time>2012-01-06T16:41:35Z</time>
        <course>281.865928270728</course>
        <speed>8.31921792733904</speed>
      </trkpt>
      <trkpt lat="43.89345" lon="4.51087">
        <ele>81</ele>
        <time>2012-01-06T16:41:39Z</time>
        <course>250.784061615006</course>
        <speed>8.3176305529619</speed>
      </trkpt>
      <trkpt lat="43.89303" lon="4.51208">
        <ele>78</ele>
        <time>2012-01-06T16:41:52Z</time>
        <course>248.115134414513</course>
        <speed>8.31625673964723</speed>
      </trkpt>
      <trkpt lat="43.89241" lon="4.51363">
        <ele>74</ele>
        <time>2012-01-06T16:42:09Z</time>
        <course>256.855714235114</course>
        <speed>8.31771868881877</speed>
      </trkpt>
      <trkpt lat="43.89231" lon="4.51406">
        <ele>73</ele>
        <time>2012-01-06T16:42:14Z</time>
        <course>266.668233876427</course>
        <speed>8.31817457157413</speed>
      </trkpt>
      <trkpt lat="43.8922" lon="4.51596">
        <ele>72</ele>
        <time>2012-01-06T16:42:32Z</time>
        <course>261.586931183344</course>
        <speed>8.31673420075539</speed>
      </trkpt>
      <trkpt lat="43.89191" lon="4.51793">
        <ele>72</ele>
        <time>2012-01-06T16:42:52Z</time>
        <course>268.497178706765</course>
        <speed>8.31627964377214</speed>
      </trkpt>
      <trkpt lat="43.89186" lon="4.51985">
        <ele>71</ele>
        <time>2012-01-06T16:43:10Z</time>
        <course>265.48176435696</course>
        <speed>8.31977838493351</speed>
      </trkpt>
      <trkpt lat="43.89164" lon="4.52265">
        <ele>71</ele>
        <time>2012-01-06T16:43:37Z</time>
        <course>260.911564136273</course>
        <speed>8.31761420848815</speed>
      </trkpt>
      <trkpt lat="43.89139" lon="4.52422">
        <ele>71</ele>
        <time>2012-01-06T16:43:53Z</time>
        <course>263.84943147731</course>
        <speed>8.31854341829091</speed>
      </trkpt>
      <trkpt lat="43.89083" lon="4.52945">
        <ele>70</ele>
        <time>2012-01-06T16:44:44Z</time>
        <course>261.463734599055</course>
        <speed>8.31817134482259</speed>
      </trkpt>
      <trkpt lat="43.89006" lon="4.53461">
        <ele>70</ele>
        <time>2012-01-06T16:45:34Z</time>
        <course>263.70779417708</course>
        <speed>8.3133484526623</speed>
      </trkpt>
      <trkpt lat="43.88997" lon="4.53543">
        <ele>69</ele>
        <time>2012-01-06T16:45:42Z</time>
        <course>267.85464240168</course>
        <speed>8.31780304382382</speed>
      </trkpt>
      <trkpt lat="43.88988" lon="4.53785">
        <ele>69</ele>
        <time>2012-01-06T16:46:06Z</time>
        <course>265.415713751418</course>
        <speed>6.90702449538616</speed>
      </trkpt>
      <trkpt lat="43.88959" lon="4.54149">
        <ele>72</ele>
        <time>2012-01-06T16:46:48Z</time>
        <course>262.677050033887</course>
        <speed>6.7957921375587</speed>
      </trkpt>
      <trkpt lat="43.88931" lon="4.54368">
        <ele>74</ele>
        <time>2012-01-06T16:47:14Z</time>
        <course>259.04511794797</course>
        <speed>8.31698319104312</speed>
      </trkpt>
      <trkpt lat="43.88879" lon="4.54638">
        <ele>72</ele>
        <time>2012-01-06T16:47:41Z</time>
        <course>266.098548326717</course>
        <speed>7.89020848072902</speed>
      </trkpt>
      <trkpt lat="43.88848" lon="4.55096">
        <ele>73</ele>
        <time>2012-01-06T16:48:28Z</time>
        <course>253.068502114202</course>
        <speed>8.3177788851299</speed>
      </trkpt>
      <trkpt lat="43.88818" lon="4.55195">
        <ele>73</ele>
        <time>2012-01-06T16:48:38Z</time>
        <course>259.032855902032</course>
        <speed>8.31986368571218</speed>
      </trkpt>
      <trkpt lat="43.88791" lon="4.55335">
        <ele>73</ele>
        <time>2012-01-06T16:48:52Z</time>
        <course>252.043734605591</course>
        <speed>8.31787592884382</speed>
      </trkpt>
      <trkpt lat="43.88761" lon="4.55428">
        <ele>73</ele>
        <time>2012-01-06T16:49:02Z</time>
        <course>259.065940220476</course>
        <speed>8.32063589846485</speed>
      </trkpt>
      <trkpt lat="43.88756" lon="4.55454">
        <ele>73</ele>
        <time>2012-01-06T16:49:05Z</time>
        <course>269.112864474738</course>
        <speed>8.31736448834042</speed>
      </trkpt>
      <trkpt lat="43.88755" lon="4.55519">
        <ele>72</ele>
        <time>2012-01-06T16:49:11Z</time>
        <course>274.10167341902</course>
        <speed>8.31493611315346</speed>
      </trkpt>
      <trkpt lat="43.88761" lon="4.55603">
        <ele>71</ele>
        <time>2012-01-06T16:49:19Z</time>
        <course>264.263335087505</course>
        <speed>8.33521172525505</speed>
      </trkpt>
      <trkpt lat="43.88759" lon="4.55623">
        <ele>70</ele>
        <time>2012-01-06T16:49:21Z</time>
        <course>253.985885260855</course>
        <speed>8.33690305455579</speed>
      </trkpt>
      <trkpt lat="43.88753" lon="4.55644">
        <ele>69</ele>
        <time>2012-01-06T16:49:23Z</time>
        <course>242.380713908128</course>
        <speed>8.32068815169725</speed>
      </trkpt>
      <trkpt lat="43.88728" lon="4.55692">
        <ele>66</ele>
        <time>2012-01-06T16:49:29Z</time>
        <course>228.522743714453</course>
        <speed>8.31543901304126</speed>
      </trkpt>
      <trkpt lat="43.88706" lon="4.55717">
        <ele>65</ele>
        <time>2012-01-06T16:49:33Z</time>
        <course>221.931782447361</course>
        <speed>8.31640958492078</speed>
      </trkpt>
      <trkpt lat="43.88624" lon="4.55791">
        <ele>56</ele>
        <time>2012-01-06T16:49:46Z</time>
        <course>226.948222611694</course>
        <speed>8.3162788097005</speed>
      </trkpt>
      <trkpt lat="43.88571" lon="4.55848">
        <ele>48</ele>
        <time>2012-01-06T16:49:55Z</time>
        <course>249.355051428798</course>
        <speed>8.33344868348482</speed>
      </trkpt>
      <trkpt lat="43.88562" lon="4.55872">
        <ele>46</ele>
        <time>2012-01-06T16:49:57Z</time>
        <course>258.636947111347</course>
        <speed>8.31134196306812</speed>
      </trkpt>
      <trkpt lat="43.88552" lon="4.55922">
        <ele>43</ele>
        <time>2012-01-06T16:50:02Z</time>
        <course>240.342705239392</course>
        <speed>8.32028156440615</speed>
      </trkpt>
      <trkpt lat="43.88501" lon="4.56012">
        <ele>39</ele>
        <time>2012-01-06T16:50:13Z</time>
        <course>245.183135644586</course>
        <speed>8.31784378567402</speed>
      </trkpt>
      <trkpt lat="43.88426" lon="4.56175">
        <ele>33</ele>
        <time>2012-01-06T16:50:32Z</time>
        <course>208.221663547398</course>
        <speed>6.99906139883353</speed>
      </trkpt>
      <trkpt lat="43.88337" lon="4.56223">
        <ele>34</ele>
        <time>2012-01-06T16:50:47Z</time>
        <course>237.67653055618</course>
        <speed>8.32272240532684</speed>
      </trkpt>
      <trkpt lat="43.8832" lon="4.5625">
        <ele>33</ele>
        <time>2012-01-06T16:50:50Z</time>
        <course>206.451990267707</course>
        <speed>8.31799284468116</speed>
      </trkpt>
      <trkpt lat="43.883" lon="4.5626">
        <ele>32</ele>
        <time>2012-01-06T16:50:53Z</time>
        <course>265.89062940067</course>
        <speed>8.31898624904762</speed>
      </trkpt>
      <trkpt lat="43.88291" lon="4.56386">
        <ele>29</ele>
        <time>2012-01-06T16:51:05Z</time>
        <course>275.107873303472</course>
        <speed>8.31920883103706</speed>
      </trkpt>
      <trkpt lat="43.88313" lon="4.56633">
        <ele>24</ele>
        <time>2012-01-06T16:51:29Z</time>
        <course>272.495295301267</course>
        <speed>8.32021817658338</speed>
      </trkpt>
      <trkpt lat="43.88323" lon="4.56863">
        <ele>23</ele>
        <time>2012-01-06T16:51:52Z</time>
        <course>267.664942727664</course>
        <speed>8.31378617960469</speed>
      </trkpt>
      <trkpt lat="43.8832" lon="4.56937">
        <ele>22</ele>
        <time>2012-01-06T16:51:59Z</time>
        <course>247.734144464576</course>
        <speed>8.30765798178667</speed>
      </trkpt>
      <trkpt lat="43.88309" lon="4.56964">
        <ele>22</ele>
        <time>2012-01-06T16:52:02Z</time>
        <course>233.479948758704</course>
        <speed>8.30603878107988</speed>
      </trkpt>
      <trkpt lat="43.88295" lon="4.56983">
        <ele>22</ele>
        <time>2012-01-06T16:52:04Z</time>
        <course>227.115869181836</course>
        <speed>8.31901744856117</speed>
      </trkpt>
      <trkpt lat="43.88125" lon="4.57167">
        <ele>21</ele>
        <time>2012-01-06T16:52:33Z</time>
        <course>235.350269242576</course>
        <speed>7.16572659899685</speed>
      </trkpt>
      <trkpt lat="43.88048" lon="4.57279">
        <ele>22</ele>
        <time>2012-01-06T16:52:50Z</time>
        <course>257.735681292649</course>
        <speed>8.31703667737661</speed>
      </trkpt>
      <trkpt lat="43.88032" lon="4.57353">
        <ele>20</ele>
        <time>2012-01-06T16:52:58Z</time>
        <course>247.511185206682</course>
        <speed>8.31894162456834</speed>
      </trkpt>
      <trkpt lat="43.8799" lon="4.57455">
        <ele>19</ele>
        <time>2012-01-06T16:53:09Z</time>
        <course>266.165019069459</course>
        <speed>8.32102073230058</speed>
      </trkpt>
      <trkpt lat="43.87988" lon="4.57485">
        <ele>18</ele>
        <time>2012-01-06T16:53:12Z</time>
        <course>282.232086860462</course>
        <speed>8.31147244382336</speed>
      </trkpt>
      <trkpt lat="43.87999" lon="4.57536">
        <ele>18</ele>
        <time>2012-01-06T16:53:17Z</time>
        <course>250.981878541682</course>
        <speed>8.32249468450569</speed>
      </trkpt>
      <trkpt lat="43.87987" lon="4.57571">
        <ele>17</ele>
        <time>2012-01-06T16:53:21Z</time>
        <course>231.618383753649</course>
        <speed>8.31370999194502</speed>
      </trkpt>
      <trkpt lat="43.87961" lon="4.57604">
        <ele>17</ele>
        <time>2012-01-06T16:53:26Z</time>
        <course>230.300752007205</course>
        <speed>7.23061226577509</speed>
      </trkpt>
      <trkpt lat="43.87871" lon="4.57713">
        <ele>18</ele>
        <time>2012-01-06T16:53:44Z</time>
        <course>223.399485580106</course>
        <speed>8.31730654330614</speed>
      </trkpt>
      <trkpt lat="43.8781" lon="4.57771">
        <ele>18</ele>
        <time>2012-01-06T16:53:54Z</time>
        <course>219.502059337356</course>
        <speed>8.31877740934223</speed>
      </trkpt>
      <trkpt lat="43.87435" lon="4.58082">
        <ele>18</ele>
        <time>2012-01-06T16:54:52Z</time>
        <course>221.221543550621</course>
        <speed>8.31882401366354</speed>
      </trkpt>
      <trkpt lat="43.87046" lon="4.58425">
        <ele>16</ele>
        <time>2012-01-06T16:55:54Z</time>
        <course>298.761226510759</course>
        <speed>8.30816706179473</speed>
      </trkpt>
      <trkpt lat="43.87052" lon="4.58436">
        <ele>15</ele>
        <time>2012-01-06T16:55:55Z</time>
        <course>282.436710679443</course>
        <speed>8.31841003920777</speed>
      </trkpt>
      <trkpt lat="43.87102" lon="4.58664">
        <ele>15</ele>
        <time>2012-01-06T16:56:18Z</time>
        <course>278.796782352102</course>
        <speed>8.31901944926098</speed>
      </trkpt>
      <trkpt lat="43.87116" lon="4.58755">
        <ele>15</ele>
        <time>2012-01-06T16:56:27Z</time>
        <course>288.469542337992</course>
        <speed>8.31836634426139</speed>
      </trkpt>
      <trkpt lat="43.87208" lon="4.59032">
        <ele>15</ele>
        <time>2012-01-06T16:56:56Z</time>
        <course>308.828929622708</course>
        <speed>8.30995464695863</speed>
      </trkpt>
      <trkpt lat="43.87228" lon="4.59057">
        <ele>15</ele>
        <time>2012-01-06T16:57:00Z</time>
        <course>325.652923048187</course>
        <speed>8.30249285067736</speed>
      </trkpt>
      <trkpt lat="43.87244" lon="4.59068">
        <ele>15</ele>
        <time>2012-01-06T16:57:02Z</time>
        <course>352.192697927514</course>
        <speed>8.31773266475229</speed>
      </trkpt>
      <trkpt lat="43.87331" lon="4.5908">
        <ele>15</ele>
        <time>2012-01-06T16:57:14Z</time>
        <course>244.564599927239</course>
        <speed>8.32308643547366</speed>
      </trkpt>
      <trkpt lat="43.87305" lon="4.59135">
        <ele>13</ele>
        <time>2012-01-06T16:57:20Z</time>
        <course>224.828187883272</course>
        <speed>8.32492358334882</speed>
      </trkpt>
      <trkpt lat="43.87294" lon="4.59146">
        <ele>13</ele>
        <time>2012-01-06T16:57:22Z</time>
        <course>177.595114622822</course>
        <speed>8.3173647065116</speed>
      </trkpt>
      <trkpt lat="43.87223" lon="4.59143">
        <ele>12</ele>
        <time>2012-01-06T16:57:32Z</time>
        <course>197.825658002299</course>
        <speed>8.32505372798574</speed>
      </trkpt>
      <trkpt lat="43.87189" lon="4.59154">
        <ele>12</ele>
        <time>2012-01-06T16:57:36Z</time>
        <course>233.67163524004</course>
        <speed>8.31503692979024</speed>
      </trkpt>
      <trkpt lat="43.87132" lon="4.59232">
        <ele>12</ele>
        <time>2012-01-06T16:57:47Z</time>
        <course>246.239340984806</course>
        <speed>8.32924285758054</speed>
      </trkpt>
      <trkpt lat="43.87118" lon="4.59264">
        <ele>11</ele>
        <time>2012-01-06T16:57:51Z</time>
        <course>269.999714094723</course>
        <speed>8.28686754383821</speed>
      </trkpt>
      <trkpt lat="43.87118" lon="4.59273">
        <ele>11</ele>
        <time>2012-01-06T16:57:52Z</time>
        <course>187.385895728071</course>
        <speed>8.30755285682491</speed>
      </trkpt>
      <trkpt lat="43.87095" lon="4.59276">
        <ele>11</ele>
        <time>2012-01-06T16:57:55Z</time>
        <course>220.737657919835</course>
        <speed>8.32787423315201</speed>
      </trkpt>
      <trkpt lat="43.8708" lon="4.59289">
        <ele>11</ele>
        <time>2012-01-06T16:57:57Z</time>
        <course>239.207178958915</course>
        <speed>8.3193663515967</speed>
      </trkpt>
      <trkpt lat="43.8699" lon="4.59441">
        <ele>11</ele>
        <time>2012-01-06T16:58:16Z</time>
        <course>228.864385749686</course>
        <speed>8.31618955952236</speed>
      </trkpt>
      <trkpt lat="43.86885" lon="4.59562">
        <ele>10</ele>
        <time>2012-01-06T16:58:34Z</time>
        <course>221.12399755595</course>
        <speed>7.08147049235821</speed>
      </trkpt>
      <trkpt lat="43.86852" lon="4.59591">
        <ele>10</ele>
        <time>2012-01-06T16:58:40Z</time>
        <course>205.318782819093</course>
        <speed>7.08965668859544</speed>
      </trkpt>
      <trkpt lat="43.86831" lon="4.59601">
        <ele>10</ele>
        <time>2012-01-06T16:58:44Z</time>
        <course>248.458051918885</course>
        <speed>7.07908667167018</speed>
      </trkpt>
      <trkpt lat="43.86811" lon="4.59652">
        <ele>11</ele>
        <time>2012-01-06T16:58:50Z</time>
        <course>255.526929521207</course>
        <speed>8.310867152276</speed>
      </trkpt>
      <trkpt lat="43.86801" lon="4.59691">
        <ele>11</ele>
        <time>2012-01-06T16:58:54Z</time>
        <course>264.35907965283</course>
        <speed>8.31859973512534</speed>
      </trkpt>
      <trkpt lat="43.86786" lon="4.59844">
        <ele>11</ele>
        <time>2012-01-06T16:59:09Z</time>
        <course>254.37612828025</course>
        <speed>8.31941459086645</speed>
      </trkpt>
      <trkpt lat="43.86766" lon="4.59916">
        <ele>11</ele>
        <time>2012-01-06T16:59:17Z</time>
        <course>260.005435628234</course>
        <speed>8.32002859463648</speed>
      </trkpt>
      <trkpt lat="43.86745" lon="4.60036">
        <ele>11</ele>
        <time>2012-01-06T16:59:29Z</time>
        <course>270.585289662326</course>
        <speed>8.31748182119893</speed>
      </trkpt>
      <trkpt lat="43.86746" lon="4.60134">
        <ele>11</ele>
        <time>2012-01-06T16:59:38Z</time>
        <course>275.094400230496</course>
        <speed>8.3134508421939</speed>
      </trkpt>
      <trkpt lat="43.86753" lon="4.60213">
        <ele>11</ele>
        <time>2012-01-06T16:59:46Z</time>
        <course>289.295815278499</course>
        <speed>8.3162343245931</speed>
      </trkpt>
      <trkpt lat="43.86761" lon="4.60236">
        <ele>11</ele>
        <time>2012-01-06T16:59:48Z</time>
        <course>300.303091667149</course>
        <speed>8.31485648797048</speed>
      </trkpt>
      <trkpt lat="43.86797" lon="4.60298">
        <ele>11</ele>
        <time>2012-01-06T16:59:56Z</time>
        <course>290.678549214715</course>
        <speed>8.3273828005645</speed>
      </trkpt>
      <trkpt lat="43.86809" lon="4.6033">
        <ele>11</ele>
        <time>2012-01-06T16:59:59Z</time>
        <course>267.379676042195</course>
        <speed>8.32986582728445</speed>
      </trkpt>
      <trkpt lat="43.86808" lon="4.60352">
        <ele>11</ele>
        <time>2012-01-06T17:00:01Z</time>
        <course>253.288141544248</course>
        <speed>8.31923118460475</speed>
      </trkpt>
      <trkpt lat="43.86791" lon="4.60409">
        <ele>11</ele>
        <time>2012-01-06T17:00:07Z</time>
        <course>264.922310772979</course>
        <speed>8.31543016376214</speed>
      </trkpt>
      <trkpt lat="43.86785" lon="4.60477">
        <ele>11</ele>
        <time>2012-01-06T17:00:14Z</time>
        <course>231.817234948202</course>
        <speed>8.32619157143856</speed>
      </trkpt>
      <trkpt lat="43.8676" lon="4.60509">
        <ele>11</ele>
        <time>2012-01-06T17:00:18Z</time>
        <course>220.962695323608</course>
        <speed>8.31675183746951</speed>
      </trkpt>
      <trkpt lat="43.86625" lon="4.60627">
        <ele>11</ele>
        <time>2012-01-06T17:00:40Z</time>
        <course>231.598733361307</course>
        <speed>8.32102578823149</speed>
      </trkpt>
      <trkpt lat="43.86588" lon="4.60674">
        <ele>11</ele>
        <time>2012-01-06T17:00:46Z</time>
        <course>241.535438243652</course>
        <speed>8.30599429086223</speed>
      </trkpt>
      <trkpt lat="43.86574" lon="4.607">
        <ele>11</ele>
        <time>2012-01-06T17:00:50Z</time>
        <course>249.975505783043</course>
        <speed>8.31474223506946</speed>
      </trkpt>
      <trkpt lat="43.86536" lon="4.60805">
        <ele>11</ele>
        <time>2012-01-06T17:01:01Z</time>
        <course>260.365699270801</course>
        <speed>8.32091335260801</speed>
      </trkpt>
      <trkpt lat="43.86521" lon="4.60894">
        <ele>10</ele>
        <time>2012-01-06T17:01:10Z</time>
        <course>243.276844295554</course>
        <speed>8.29743003730286</speed>
      </trkpt>
      <trkpt lat="43.86517" lon="4.60902">
        <ele>10</ele>
        <time>2012-01-06T17:01:11Z</time>
        <course>212.292630383212</course>
        <speed>8.30141303271779</speed>
      </trkpt>
      <trkpt lat="43.86506" lon="4.60909">
        <ele>10</ele>
        <time>2012-01-06T17:01:12Z</time>
        <course>180</course>
        <speed>8.31714093054443</speed>
      </trkpt>
      <trkpt lat="43.86284" lon="4.60909">
        <ele>10</ele>
        <time>2012-01-06T17:01:42Z</time>
        <course>219.603898594113</course>
        <speed>8.27456113295333</speed>
      </trkpt>
      <trkpt lat="43.86278" lon="4.60914">
        <ele>10</ele>
        <time>2012-01-06T17:01:43Z</time>
        <course>259.305231602914</course>
        <speed>8.33031453405296</speed>
      </trkpt>
      <trkpt lat="43.86275" lon="4.6093">
        <ele>10</ele>
        <time>2012-01-06T17:01:44Z</time>
        <course>271.669851310952</course>
        <speed>8.31967953629302</speed>
      </trkpt>
      <trkpt lat="43.86277" lon="4.60999">
        <ele>10</ele>
        <time>2012-01-06T17:01:51Z</time>
        <course>185.453034064446</course>
        <speed>8.32199610298233</speed>
      </trkpt>
      <trkpt lat="43.86225" lon="4.61004">
        <ele>10</ele>
        <time>2012-01-06T17:01:58Z</time>
        <course>167.661610752304</course>
        <speed>8.31866907340972</speed>
      </trkpt>
      <trkpt lat="43.86166" lon="4.60991">
        <ele>9</ele>
        <time>2012-01-06T17:02:06Z</time>
        <course>160.596123902017</course>
        <speed>8.31736457580428</speed>
      </trkpt>
      <trkpt lat="43.86104" lon="4.60969">
        <ele>9</ele>
        <time>2012-01-06T17:02:15Z</time>
        <course>249.59615026656</course>
        <speed>6.41080926367871</speed>
      </trkpt>
      <trkpt lat="43.86049" lon="4.61118">
        <ele>11</ele>
        <time>2012-01-06T17:02:36Z</time>
        <course>235.663164184426</course>
        <speed>6.52777996708047</speed>
      </trkpt>
      <trkpt lat="43.86009" lon="4.61177">
        <ele>11</ele>
        <time>2012-01-06T17:02:45Z</time>
        <course>135.21755814789</course>
        <speed>6.52875548872479</speed>
      </trkpt>
      <trkpt lat="43.8595" lon="4.61118">
        <ele>13</ele>
        <time>2012-01-06T17:02:58Z</time>
        <course>130.496546117883</course>
        <speed>8.31803197815442</speed>
      </trkpt>
      <trkpt lat="43.859" lon="4.61059">
        <ele>12</ele>
        <time>2012-01-06T17:03:07Z</time>
        <course>92.509384544563</course>
        <speed>8.31608418718731</speed>
      </trkpt>
      <trkpt lat="43.85899" lon="4.61036">
        <ele>12</ele>
        <time>2012-01-06T17:03:09Z</time>
        <course>83.5724997727331</course>
        <speed>8.31754956836378</speed>
      </trkpt>
      <trkpt lat="43.85915" lon="4.60893">
        <ele>11</ele>
        <time>2012-01-06T17:03:23Z</time>
        <course>83.5724997727331</course>
        <speed>8.31754956836378</speed>
      </trkpt>
      <trkpt lat="43.85915" lon="4.60893">
        <ele>11</ele>
        <time>2012-01-06T17:03:24Z</time>
        <course>263.562428937967</course>
        <speed>6.18712065010625</speed>
      </trkpt>
      <trkpt lat="43.85899" lon="4.61036">
        <ele>13</ele>
        <time>2012-01-06T17:03:43Z</time>
        <course>272.507763779368</course>
        <speed>8.31608418718731</speed>
      </trkpt>
      <trkpt lat="43.859" lon="4.61059">
        <ele>13</ele>
        <time>2012-01-06T17:03:45Z</time>
        <course>312.387389650743</course>
        <speed>8.31698828218929</speed>
      </trkpt>
      <trkpt lat="43.86006" lon="4.61176">
        <ele>13</ele>
        <time>2012-01-06T17:04:03Z</time>
        <course>348.772238267417</course>
        <speed>8.37831779195468</speed>
      </trkpt>
      <trkpt lat="43.86011" lon="4.61177">
        <ele>12</ele>
        <time>2012-01-06T17:04:04Z</time>
        <course>49.983712636582</course>
        <speed>8.34891069501861</speed>
      </trkpt>
      <trkpt lat="43.86016" lon="4.61171">
        <ele>12</ele>
        <time>2012-01-06T17:04:04Z</time>
        <course>57.9017181547755</course>
        <speed>8.32430263995041</speed>
      </trkpt>
      <trkpt lat="43.86049" lon="4.61118">
        <ele>11</ele>
        <time>2012-01-06T17:04:11Z</time>
        <course>69.6065000332217</course>
        <speed>8.31973509901728</speed>
      </trkpt>
      <trkpt lat="43.86104" lon="4.60969">
        <ele>9</ele>
        <time>2012-01-06T17:04:27Z</time>
        <course>340.594603068645</course>
        <speed>7.1759300830602</speed>
      </trkpt>
      <trkpt lat="43.86166" lon="4.60991">
        <ele>9</ele>
        <time>2012-01-06T17:04:37Z</time>
        <course>347.182552503624</course>
        <speed>7.16986707694253</speed>
      </trkpt>
      <trkpt lat="43.86214" lon="4.61002">
        <ele>10</ele>
        <time>2012-01-06T17:04:45Z</time>
        <course>360</course>
        <speed>8.31830508468967</speed>
      </trkpt>
      <trkpt lat="43.86267" lon="4.61002">
        <ele>10</ele>
        <time>2012-01-06T17:04:52Z</time>
        <course>16.586673255413</course>
        <speed>8.29851935739989</speed>
      </trkpt>
      <trkpt lat="43.86277" lon="4.60999">
        <ele>10</ele>
        <time>2012-01-06T17:04:53Z</time>
        <course>91.6745658568004</course>
        <speed>8.31967953629302</speed>
      </trkpt>
      <trkpt lat="43.86275" lon="4.6093">
        <ele>10</ele>
        <time>2012-01-06T17:05:00Z</time>
        <course>79.3063247853908</course>
        <speed>8.33031453405296</speed>
      </trkpt>
      <trkpt lat="43.86278" lon="4.60914">
        <ele>10</ele>
        <time>2012-01-06T17:05:01Z</time>
        <course>39.604240085638</course>
        <speed>7.70107669799616</speed>
      </trkpt>
      <trkpt lat="43.86284" lon="4.60909">
        <ele>10</ele>
        <time>2012-01-06T17:05:02Z</time>
        <course>360</course>
        <speed>7.7137711069402</speed>
      </trkpt>
      <trkpt lat="43.86506" lon="4.60909">
        <ele>11</ele>
        <time>2012-01-06T17:05:34Z</time>
        <course>26.4077561812388</course>
        <speed>8.28909476312172</speed>
      </trkpt>
      <trkpt lat="43.86514" lon="4.60905">
        <ele>11</ele>
        <time>2012-01-06T17:05:36Z</time>
        <course>57.350511791429</course>
        <speed>8.33643382648006</speed>
      </trkpt>
      <trkpt lat="43.86521" lon="4.60894">
        <ele>11</ele>
        <time>2012-01-06T17:05:37Z</time>
        <course>80.371652493477</course>
        <speed>8.32091335260801</speed>
      </trkpt>
      <trkpt lat="43.86536" lon="4.60805">
        <ele>11</ele>
        <time>2012-01-06T17:05:46Z</time>
        <course>69.9825134145025</course>
        <speed>8.31474223506946</speed>
      </trkpt>
      <trkpt lat="43.86574" lon="4.607">
        <ele>11</ele>
        <time>2012-01-06T17:05:57Z</time>
        <course>61.5371696196192</course>
        <speed>8.30599429086223</speed>
      </trkpt>
      <trkpt lat="43.86588" lon="4.60674">
        <ele>11</ele>
        <time>2012-01-06T17:06:00Z</time>
        <course>51.6018563359437</course>
        <speed>8.32102578823149</speed>
      </trkpt>
      <trkpt lat="43.86625" lon="4.60627">
        <ele>11</ele>
        <time>2012-01-06T17:06:07Z</time>
        <course>40.9704782313865</course>
        <speed>8.31675183746951</speed>
      </trkpt>
      <trkpt lat="43.8676" lon="4.60509">
        <ele>11</ele>
        <time>2012-01-06T17:06:28Z</time>
        <course>51.8193309956894</course>
        <speed>8.32619157143856</speed>
      </trkpt>
      <trkpt lat="43.86785" lon="4.60477">
        <ele>11</ele>
        <time>2012-01-06T17:06:33Z</time>
        <course>84.9267588745544</course>
        <speed>8.31543016376214</speed>
      </trkpt>
      <trkpt lat="43.86791" lon="4.60409">
        <ele>11</ele>
        <time>2012-01-06T17:06:39Z</time>
        <course>73.2918663687429</course>
        <speed>8.31923118460475</speed>
      </trkpt>
      <trkpt lat="43.86808" lon="4.60352">
        <ele>11</ele>
        <time>2012-01-06T17:06:45Z</time>
        <course>87.3811125666557</course>
        <speed>7.99064052210093</speed>
      </trkpt>
      <trkpt lat="43.86809" lon="4.6033">
        <ele>11</ele>
        <time>2012-01-06T17:06:48Z</time>
        <course>306.407960267517</course>
        <speed>8.00473412045016</speed>
      </trkpt>
      <trkpt lat="43.87125" lon="4.60761">
        <ele>12</ele>
        <time>2012-01-06T17:07:49Z</time>
        <course>261.89850668179</course>
        <speed>8.31448115645443</speed>
      </trkpt>
      <trkpt lat="43.87111" lon="4.6086">
        <ele>11</ele>
        <time>2012-01-06T17:07:59Z</time>
        <course>268.306595365708</course>
        <speed>8.31749263460908</speed>
      </trkpt>
      <trkpt lat="43.87105" lon="4.61065">
        <ele>11</ele>
        <time>2012-01-06T17:08:19Z</time>
        <course>241.353774586932</course>
        <speed>7.20690315906284</speed>
      </trkpt>
      <trkpt lat="43.87086" lon="4.611">
        <ele>11</ele>
        <time>2012-01-06T17:08:23Z</time>
        <course>214.655837921949</course>
        <speed>7.21095390684643</speed>
      </trkpt>
      <trkpt lat="43.8704" lon="4.61132">
        <ele>11</ele>
        <time>2012-01-06T17:08:31Z</time>
        <course>260.150539146309</course>
        <speed>7.21020378807837</speed>
      </trkpt>
      <trkpt lat="43.87005" lon="4.61335">
        <ele>13</ele>
        <time>2012-01-06T17:08:54Z</time>
        <course>247.761789085517</course>
        <speed>8.32379186458265</speed>
      </trkpt>
      <trkpt lat="43.86979" lon="4.61399">
        <ele>12</ele>
        <time>2012-01-06T17:09:02Z</time>
        <course>261.501283453739</course>
        <speed>8.31741163081223</speed>
      </trkpt>
      <trkpt lat="43.86916" lon="4.61824">
        <ele>12</ele>
        <time>2012-01-06T17:09:43Z</time>
        <course>268.557398578099</course>
        <speed>8.32802710061373</speed>
      </trkpt>
      <trkpt lat="43.86915" lon="4.61864">
        <ele>11</ele>
        <time>2012-01-06T17:09:47Z</time>
        <course>251.453222325913</course>
        <speed>8.31749195140648</speed>
      </trkpt>
      <trkpt lat="43.86903" lon="4.619">
        <ele>11</ele>
        <time>2012-01-06T17:09:51Z</time>
        <course>216.429535657671</course>
        <speed>8.32418306933865</speed>
      </trkpt>
      <trkpt lat="43.86868" lon="4.61926">
        <ele>11</ele>
        <time>2012-01-06T17:09:56Z</time>
        <course>249.68212872801</course>
        <speed>8.31482256762683</speed>
      </trkpt>
      <trkpt lat="43.86836" lon="4.62013">
        <ele>11</ele>
        <time>2012-01-06T17:10:06Z</time>
        <course>141.894134313267</course>
        <speed>7.17136060149749</speed>
      </trkpt>
      <trkpt lat="43.8676" lon="4.61953">
        <ele>11</ele>
        <time>2012-01-06T17:10:19Z</time>
        <course>153.412895235595</course>
        <speed>7.17019468240946</speed>
      </trkpt>
      <trkpt lat="43.86631" lon="4.61888">
        <ele>13</ele>
        <time>2012-01-06T17:10:41Z</time>
        <course>170.058113503226</course>
        <speed>6.3687878985964</speed>
      </trkpt>
      <trkpt lat="43.86614" lon="4.61885">
        <ele>13</ele>
        <time>2012-01-06T17:10:44Z</time>
        <course>209.578053516013</course>
        <speed>6.37321195646302</speed>
      </trkpt>
      <trkpt lat="43.86607" lon="4.61889">
        <ele>13</ele>
        <time>2012-01-06T17:10:45Z</time>
        <course>245.076446429953</course>
        <speed>6.37423024724655</speed>
      </trkpt>
      <trkpt lat="43.86601" lon="4.61902">
        <ele>13</ele>
        <time>2012-01-06T17:10:47Z</time>
        <course>266.751230691476</course>
        <speed>6.36762132472281</speed>
      </trkpt>
      <trkpt lat="43.86597" lon="4.61973">
        <ele>14</ele>
        <time>2012-01-06T17:10:56Z</time>
        <course>255.523469084855</course>
        <speed>6.36495523555374</speed>
      </trkpt>
      <trkpt lat="43.86587" lon="4.62012">
        <ele>15</ele>
        <time>2012-01-06T17:11:01Z</time>
        <course>244.384422094961</course>
        <speed>8.33153163356137</speed>
      </trkpt>
      <trkpt lat="43.86577" lon="4.62033">
        <ele>14</ele>
        <time>2012-01-06T17:11:03Z</time>
        <course>310.164649545607</course>
        <speed>8.31950798976974</speed>
      </trkpt>
      <trkpt lat="43.86712" lon="4.62194">
        <ele>12</ele>
        <time>2012-01-06T17:11:27Z</time>
        <course>304.101664813972</course>
        <speed>7.13609326469889</speed>
      </trkpt>
      <trkpt lat="43.86786" lon="4.62304">
        <ele>13</ele>
        <time>2012-01-06T17:11:44Z</time>
        <course>300.937475753214</course>
        <speed>8.31784633330668</speed>
      </trkpt>
      <trkpt lat="43.86867" lon="4.6244">
        <ele>13</ele>
        <time>2012-01-06T17:12:01Z</time>
        <course>296.228555919274</course>
        <speed>7.57021848904879</speed>
      </trkpt>
      <trkpt lat="43.86914" lon="4.62536">
        <ele>13</ele>
        <time>2012-01-06T17:12:13Z</time>
        <course>293.268224848393</course>
        <speed>7.57174518375911</speed>
      </trkpt>
      <trkpt lat="43.86964" lon="4.62653">
        <ele>14</ele>
        <time>2012-01-06T17:12:28Z</time>
        <course>289.408012898007</course>
        <speed>6.89484063554244</speed>
      </trkpt>
      <trkpt lat="43.8704" lon="4.6287">
        <ele>16</ele>
        <time>2012-01-06T17:12:56Z</time>
        <course>284.260423178743</course>
        <speed>8.31860951769918</speed>
      </trkpt>
      <trkpt lat="43.87087" lon="4.63056">
        <ele>16</ele>
        <time>2012-01-06T17:13:15Z</time>
        <course>280.730277565129</course>
        <speed>8.31587421407027</speed>
      </trkpt>
      <trkpt lat="43.87113" lon="4.63194">
        <ele>14</ele>
        <time>2012-01-06T17:13:28Z</time>
        <course>277.845670725219</course>
        <speed>8.3134159363085</speed>
      </trkpt>
      <trkpt lat="43.87123" lon="4.63267">
        <ele>14</ele>
        <time>2012-01-06T17:13:36Z</time>
        <course>276.330883335023</course>
        <speed>8.31612328709478</speed>
      </trkpt>
      <trkpt lat="43.87139" lon="4.63412">
        <ele>14</ele>
        <time>2012-01-06T17:13:50Z</time>
        <course>273.783412133691</course>
        <speed>8.31860415747167</speed>
      </trkpt>
      <trkpt lat="43.87172" lon="4.63912">
        <ele>13</ele>
        <time>2012-01-06T17:14:38Z</time>
        <course>274.368633230762</course>
        <speed>8.31764016039208</speed>
      </trkpt>
      <trkpt lat="43.87185" lon="4.64083">
        <ele>11</ele>
        <time>2012-01-06T17:14:55Z</time>
        <course>277.441978685386</course>
        <speed>7.53294542436589</speed>
      </trkpt>
      <trkpt lat="43.87195" lon="4.6416">
        <ele>11</ele>
        <time>2012-01-06T17:15:03Z</time>
        <course>281.444230144795</course>
        <speed>7.52975417825715</speed>
      </trkpt>
      <trkpt lat="43.87226" lon="4.64314">
        <ele>12</ele>
        <time>2012-01-06T17:15:20Z</time>
        <course>286.080570580004</course>
        <speed>8.31840841440065</speed>
      </trkpt>
      <trkpt lat="43.87271" lon="4.64471">
        <ele>12</ele>
        <time>2012-01-06T17:15:36Z</time>
        <course>290.012326723532</course>
        <speed>8.31861997806467</speed>
      </trkpt>
      <trkpt lat="43.87292" lon="4.64529">
        <ele>11</ele>
        <time>2012-01-06T17:15:43Z</time>
        <course>295.25187580215</course>
        <speed>8.31726296956968</speed>
      </trkpt>
      <trkpt lat="43.8736" lon="4.64674">
        <ele>11</ele>
        <time>2012-01-06T17:15:59Z</time>
        <course>299.886857090278</course>
        <speed>7.08435167018774</speed>
      </trkpt>
      <trkpt lat="43.87424" lon="4.64786">
        <ele>12</ele>
        <time>2012-01-06T17:16:15Z</time>
        <course>303.628156253927</course>
        <speed>7.11667795500589</speed>
      </trkpt>
      <trkpt lat="43.87465" lon="4.64848">
        <ele>12</ele>
        <time>2012-01-06T17:16:25Z</time>
        <course>307.974641580671</course>
        <speed>7.11441058628365</speed>
      </trkpt>
      <trkpt lat="43.87576" lon="4.64991">
        <ele>14</ele>
        <time>2012-01-06T17:16:48Z</time>
        <course>305.074046656723</course>
        <speed>8.31912063371384</speed>
      </trkpt>
      <trkpt lat="43.87657" lon="4.65107">
        <ele>13</ele>
        <time>2012-01-06T17:17:04Z</time>
        <course>302.073332962557</course>
        <speed>8.31626384370187</speed>
      </trkpt>
      <trkpt lat="43.87748" lon="4.65253">
        <ele>13</ele>
        <time>2012-01-06T17:17:23Z</time>
        <course>298.581429402785</course>
        <speed>7.37187019492401</speed>
      </trkpt>
      <trkpt lat="43.87832" lon="4.65408">
        <ele>14</ele>
        <time>2012-01-06T17:17:44Z</time>
        <course>281.369287586674</course>
        <speed>8.31227918822939</speed>
      </trkpt>
      <trkpt lat="43.87835" lon="4.65423">
        <ele>13</ele>
        <time>2012-01-06T17:17:45Z</time>
        <course>295.521077160511</course>
        <speed>8.31947479143277</speed>
      </trkpt>
      <trkpt lat="43.8793" lon="4.65623">
        <ele>13</ele>
        <time>2012-01-06T17:18:08Z</time>
        <course>290.579588661895</course>
        <speed>7.12413609496193</speed>
      </trkpt>
      <trkpt lat="43.88078" lon="4.66019">
        <ele>16</ele>
        <time>2012-01-06T17:18:58Z</time>
        <course>285.031510132521</course>
        <speed>8.31987904600006</speed>
      </trkpt>
      <trkpt lat="43.88136" lon="4.66236">
        <ele>13</ele>
        <time>2012-01-06T17:19:21Z</time>
        <course>282.346907198653</course>
        <speed>8.3206821659761</speed>
      </trkpt>
      <trkpt lat="43.88175" lon="4.66415">
        <ele>13</ele>
        <time>2012-01-06T17:19:39Z</time>
        <course>281.363650033164</course>
        <speed>8.31850887582699</speed>
      </trkpt>
      <trkpt lat="43.88457" lon="4.6782">
        <ele>12</ele>
        <time>2012-01-06T17:21:59Z</time>
        <course>287.295021592087</course>
        <speed>6.76878498938919</speed>
      </trkpt>
      <trkpt lat="43.88519" lon="4.6802">
        <ele>14</ele>
        <time>2012-01-06T17:22:25Z</time>
        <course>275.465339688942</course>
        <speed>8.31597211460272</speed>
      </trkpt>
      <trkpt lat="43.88521" lon="4.68041">
        <ele>13</ele>
        <time>2012-01-06T17:22:27Z</time>
        <course>290.016552910045</course>
        <speed>8.31648948785486</speed>
      </trkpt>
      <trkpt lat="43.88554" lon="4.68132">
        <ele>13</ele>
        <time>2012-01-06T17:22:37Z</time>
        <course>293.037973353902</course>
        <speed>8.31683853323103</speed>
      </trkpt>
      <trkpt lat="43.88612" lon="4.68269">
        <ele>13</ele>
        <time>2012-01-06T17:22:52Z</time>
        <course>301.205158549264</course>
        <speed>7.26086220585317</speed>
      </trkpt>
      <trkpt lat="43.88691" lon="4.684">
        <ele>14</ele>
        <time>2012-01-06T17:23:11Z</time>
        <course>304.179593575678</course>
        <speed>8.32032870660683</speed>
      </trkpt>
      <trkpt lat="43.88739" lon="4.68471">
        <ele>13</ele>
        <time>2012-01-06T17:23:20Z</time>
        <course>307.801493910179</course>
        <speed>8.31703317948402</speed>
      </trkpt>
      <trkpt lat="43.88834" lon="4.68594">
        <ele>13</ele>
        <time>2012-01-06T17:23:38Z</time>
        <course>315.124863351066</course>
        <speed>7.57123911560978</speed>
      </trkpt>
      <trkpt lat="43.88878" lon="4.68638">
        <ele>13</ele>
        <time>2012-01-06T17:23:46Z</time>
        <course>320.211643616774</course>
        <speed>7.57532173794812</speed>
      </trkpt>
      <trkpt lat="43.88988" lon="4.6873">
        <ele>14</ele>
        <time>2012-01-06T17:24:04Z</time>
        <course>322.82856630048</course>
        <speed>7.88901930627723</speed>
      </trkpt>
      <trkpt lat="43.89277" lon="4.6895">
        <ele>15</ele>
        <time>2012-01-06T17:24:51Z</time>
        <course>317.661477527392</course>
        <speed>8.31786068763505</speed>
      </trkpt>
      <trkpt lat="43.89441" lon="4.691">
        <ele>14</ele>
        <time>2012-01-06T17:25:17Z</time>
        <course>313.050914038381</course>
        <speed>8.31882730450042</speed>
      </trkpt>
      <trkpt lat="43.89535" lon="4.69201">
        <ele>14</ele>
        <time>2012-01-06T17:25:33Z</time>
        <course>308.810327411114</course>
        <speed>7.43878402306425</speed>
      </trkpt>
      <trkpt lat="43.89648" lon="4.69342">
        <ele>15</ele>
        <time>2012-01-06T17:25:56Z</time>
        <course>307.414742710166</course>
        <speed>8.31803944857738</speed>
      </trkpt>
      <trkpt lat="43.89908" lon="4.69683">
        <ele>15</ele>
        <time>2012-01-06T17:26:43Z</time>
        <course>295.42256584024</course>
        <speed>6.94880483597375</speed>
      </trkpt>
      <trkpt lat="43.89917" lon="4.69702">
        <ele>15</ele>
        <time>2012-01-06T17:26:46Z</time>
        <course>304.24659941771</course>
        <speed>6.95158278204215</speed>
      </trkpt>
      <trkpt lat="43.90031" lon="4.6987">
        <ele>17</ele>
        <time>2012-01-06T17:27:13Z</time>
        <course>295.274063770591</course>
        <speed>6.38370106545434</speed>
      </trkpt>
      <trkpt lat="43.90055" lon="4.69921">
        <ele>17</ele>
        <time>2012-01-06T17:27:20Z</time>
        <course>276.503567920847</course>
        <speed>6.38011559113662</speed>
      </trkpt>
      <trkpt lat="43.9006" lon="4.69965">
        <ele>18</ele>
        <time>2012-01-06T17:27:26Z</time>
        <course>308.752893272858</course>
        <speed>6.36370936557254</speed>
      </trkpt>
      <trkpt lat="43.90068" lon="4.69975">
        <ele>18</ele>
        <time>2012-01-06T17:27:28Z</time>
        <course>345.575500710284</course>
        <speed>6.38208771992826</speed>
      </trkpt>
      <trkpt lat="43.90099" lon="4.69983">
        <ele>19</ele>
        <time>2012-01-06T17:27:33Z</time>
        <course>302.088750333455</course>
        <speed>8.32313852414683</speed>
      </trkpt>
      <trkpt lat="43.90139" lon="4.70047">
        <ele>19</ele>
        <time>2012-01-06T17:27:41Z</time>
        <course>299.1919503083</course>
        <speed>8.31782428878898</speed>
      </trkpt>
      <trkpt lat="43.90266" lon="4.70275">
        <ele>19</ele>
        <time>2012-01-06T17:28:09Z</time>
        <course>296.063711200143</course>
        <speed>8.31744172565829</speed>
      </trkpt>
      <trkpt lat="43.90345" lon="4.70437">
        <ele>16</ele>
        <time>2012-01-06T17:28:28Z</time>
        <course>292.391358292399</course>
        <speed>7.44541323525418</speed>
      </trkpt>
      <trkpt lat="43.90421" lon="4.70622">
        <ele>17</ele>
        <time>2012-01-06T17:28:51Z</time>
        <course>289.146884468601</course>
        <speed>8.3189220619017</speed>
      </trkpt>
      <trkpt lat="43.90667" lon="4.71332">
        <ele>17</ele>
        <time>2012-01-06T17:30:07Z</time>
        <course>286.794558125512</course>
        <speed>8.3189295316307</speed>
      </trkpt>
      <trkpt lat="43.90751" lon="4.71611">
        <ele>17</ele>
        <time>2012-01-06T17:30:36Z</time>
        <course>281.8729469348</course>
        <speed>8.32447218614962</speed>
      </trkpt>
      <trkpt lat="43.90764" lon="4.71673">
        <ele>17</ele>
        <time>2012-01-06T17:30:42Z</time>
        <course>288.482244094317</course>
        <speed>8.32176675409395</speed>
      </trkpt>
      <trkpt lat="43.90774" lon="4.71703">
        <ele>17</ele>
        <time>2012-01-06T17:30:45Z</time>
        <course>281.629603089489</course>
        <speed>8.31888068992365</speed>
      </trkpt>
      <trkpt lat="43.90805" lon="4.71854">
        <ele>17</ele>
        <time>2012-01-06T17:31:00Z</time>
        <course>286.510818275145</course>
        <speed>8.32070726711485</speed>
      </trkpt>
      <trkpt lat="43.90839" lon="4.71969">
        <ele>15</ele>
        <time>2012-01-06T17:31:12Z</time>
        <course>292.322714212674</course>
        <speed>8.32100665903985</speed>
      </trkpt>
      <trkpt lat="43.90882" lon="4.72074">
        <ele>15</ele>
        <time>2012-01-06T17:31:24Z</time>
        <course>297.133722509065</course>
        <speed>8.31827770532968</speed>
      </trkpt>
      <trkpt lat="43.90905" lon="4.72119">
        <ele>15</ele>
        <time>2012-01-06T17:31:29Z</time>
        <course>301.4658618159</course>
        <speed>8.32052196201103</speed>
      </trkpt>
      <trkpt lat="43.90952" lon="4.72196">
        <ele>15</ele>
        <time>2012-01-06T17:31:39Z</time>
        <course>305.60739574445</course>
        <speed>8.3145371380374</speed>
      </trkpt>
      <trkpt lat="43.91007" lon="4.72273">
        <ele>15</ele>
        <time>2012-01-06T17:31:49Z</time>
        <course>312.428879768932</course>
        <speed>8.3201403312383</speed>
      </trkpt>
      <trkpt lat="43.911" lon="4.72375">
        <ele>15</ele>
        <time>2012-01-06T17:32:05Z</time>
        <course>319.155245965132</course>
        <speed>8.32040626944691</speed>
      </trkpt>
      <trkpt lat="43.9119" lon="4.72453">
        <ele>15</ele>
        <time>2012-01-06T17:32:19Z</time>
        <course>325.662693320333</course>
        <speed>8.00076599685767</speed>
      </trkpt>
      <trkpt lat="43.92001" lon="4.73008">
        <ele>17</ele>
        <time>2012-01-06T17:34:25Z</time>
        <course>321.10686917509</course>
        <speed>7.53914703374699</speed>
      </trkpt>
      <trkpt lat="43.92074" lon="4.73067">
        <ele>17</ele>
        <time>2012-01-06T17:34:37Z</time>
        <course>317.438195099805</course>
        <speed>7.53981331215387</speed>
      </trkpt>
      <trkpt lat="43.92149" lon="4.73136">
        <ele>18</ele>
        <time>2012-01-06T17:34:51Z</time>
        <course>313.653069606441</course>
        <speed>6.46501643680416</speed>
      </trkpt>
      <trkpt lat="43.92249" lon="4.73241">
        <ele>20</ele>
        <time>2012-01-06T17:35:12Z</time>
        <course>310.085675870849</course>
        <speed>6.93719372834654</speed>
      </trkpt>
      <trkpt lat="43.9266" lon="4.7373">
        <ele>26</ele>
        <time>2012-01-06T17:36:39Z</time>
        <course>303.990193303229</course>
        <speed>8.31951462932866</speed>
      </trkpt>
      <trkpt lat="43.92728" lon="4.73831">
        <ele>24</ele>
        <time>2012-01-06T17:36:52Z</time>
        <course>298.560718059916</course>
        <speed>6.90884751182374</speed>
      </trkpt>
      <trkpt lat="43.92834" lon="4.74026">
        <ele>26</ele>
        <time>2012-01-06T17:37:20Z</time>
        <course>304.516478235347</course>
        <speed>6.84939865213159</speed>
      </trkpt>
      <trkpt lat="43.92891" lon="4.74109">
        <ele>26</ele>
        <time>2012-01-06T17:37:34Z</time>
        <course>309.407715442227</course>
        <speed>6.85200536147989</speed>
      </trkpt>
      <trkpt lat="43.92955" lon="4.74187">
        <ele>28</ele>
        <time>2012-01-06T17:37:48Z</time>
        <course>314.207198206449</course>
        <speed>8.31917623591783</speed>
      </trkpt>
      <trkpt lat="43.93057" lon="4.74292">
        <ele>28</ele>
        <time>2012-01-06T17:38:05Z</time>
        <course>322.374928773251</course>
        <speed>8.31854089348838</speed>
      </trkpt>
      <trkpt lat="43.93241" lon="4.74434">
        <ele>27</ele>
        <time>2012-01-06T17:38:33Z</time>
        <course>318.249989260449</course>
        <speed>8.31413313108584</speed>
      </trkpt>
      <trkpt lat="43.93288" lon="4.74476">
        <ele>24</ele>
        <time>2012-01-06T17:38:40Z</time>
        <course>310.433509290711</course>
        <speed>8.31792102771578</speed>
      </trkpt>
      <trkpt lat="43.93328" lon="4.74523">
        <ele>23</ele>
        <time>2012-01-06T17:38:47Z</time>
        <course>302.035048295154</course>
        <speed>8.31942591251757</speed>
      </trkpt>
      <trkpt lat="43.93373" lon="4.74595">
        <ele>22</ele>
        <time>2012-01-06T17:38:56Z</time>
        <course>297.722614424867</course>
        <speed>8.31926120360257</speed>
      </trkpt>
      <trkpt lat="43.9352" lon="4.74875">
        <ele>19</ele>
        <time>2012-01-06T17:39:30Z</time>
        <course>293.841511338143</course>
        <speed>7.47389001883736</speed>
      </trkpt>
      <trkpt lat="43.93603" lon="4.75063">
        <ele>20</ele>
        <time>2012-01-06T17:39:53Z</time>
        <course>290.986530258011</course>
        <speed>4.64345880651252</speed>
      </trkpt>
      <trkpt lat="43.93667" lon="4.7523">
        <ele>26</ele>
        <time>2012-01-06T17:40:26Z</time>
        <course>288.241631356358</course>
        <speed>8.32166503100428</speed>
      </trkpt>
      <trkpt lat="43.93694" lon="4.75312">
        <ele>24</ele>
        <time>2012-01-06T17:40:35Z</time>
        <course>285.536079300683</course>
        <speed>8.31699031529623</speed>
      </trkpt>
      <trkpt lat="43.93759" lon="4.75546">
        <ele>19</ele>
        <time>2012-01-06T17:40:59Z</time>
        <course>281.642242479439</course>
        <speed>8.31822576243129</speed>
      </trkpt>
      <trkpt lat="43.93801" lon="4.7575">
        <ele>16</ele>
        <time>2012-01-06T17:41:19Z</time>
        <course>278.009182313799</course>
        <speed>8.31850015263622</speed>
      </trkpt>
      <trkpt lat="43.93837" lon="4.76006">
        <ele>14</ele>
        <time>2012-01-06T17:41:44Z</time>
        <course>274.22900446836</course>
        <speed>6.44997861613912</speed>
      </trkpt>
      <trkpt lat="43.93856" lon="4.76263">
        <ele>17</ele>
        <time>2012-01-06T17:42:16Z</time>
        <course>272.070470748124</course>
        <speed>8.31812222805424</speed>
      </trkpt>
      <trkpt lat="43.93867" lon="4.76567">
        <ele>14</ele>
        <time>2012-01-06T17:42:46Z</time>
        <course>275.329297951363</course>
        <speed>7.19080435026742</speed>
      </trkpt>
      <trkpt lat="43.93878" lon="4.76685">
        <ele>14</ele>
        <time>2012-01-06T17:42:59Z</time>
        <course>279.37275245696</course>
        <speed>7.18962537054589</speed>
      </trkpt>
      <trkpt lat="43.9391" lon="4.76879">
        <ele>16</ele>
        <time>2012-01-06T17:43:21Z</time>
        <course>283.402368192873</course>
        <speed>7.29056027199115</speed>
      </trkpt>
      <trkpt lat="43.9395" lon="4.77047">
        <ele>17</ele>
        <time>2012-01-06T17:43:40Z</time>
        <course>285.772628324727</course>
        <speed>7.00642493377076</speed>
      </trkpt>
      <trkpt lat="43.9402" lon="4.77295">
        <ele>19</ele>
        <time>2012-01-06T17:44:11Z</time>
        <course>287.740761302187</course>
        <speed>7.00810903334135</speed>
      </trkpt>
      <trkpt lat="43.94059" lon="4.77417">
        <ele>20</ele>
        <time>2012-01-06T17:44:26Z</time>
        <course>290.787622374175</course>
        <speed>8.31700980678805</speed>
      </trkpt>
      <trkpt lat="43.94092" lon="4.77504">
        <ele>19</ele>
        <time>2012-01-06T17:44:35Z</time>
        <course>294.161864378301</course>
        <speed>8.31793795602778</speed>
      </trkpt>
      <trkpt lat="43.94157" lon="4.77649">
        <ele>18</ele>
        <time>2012-01-06T17:44:52Z</time>
        <course>290.44771672004</course>
        <speed>8.32323070552894</speed>
      </trkpt>
      <trkpt lat="43.94176" lon="4.777">
        <ele>17</ele>
        <time>2012-01-06T17:44:57Z</time>
        <course>286.102711230263</course>
        <speed>8.31548434426034</speed>
      </trkpt>
      <trkpt lat="43.94191" lon="4.77752">
        <ele>17</ele>
        <time>2012-01-06T17:45:03Z</time>
        <course>280.427992445345</course>
        <speed>8.31531809699636</speed>
      </trkpt>
      <trkpt lat="43.94207" lon="4.77839">
        <ele>17</ele>
        <time>2012-01-06T17:45:11Z</time>
        <course>285.653673339545</course>
        <speed>8.31856450612852</speed>
      </trkpt>
      <trkpt lat="43.94221" lon="4.77889">
        <ele>17</ele>
        <time>2012-01-06T17:45:17Z</time>
        <course>292.849376459354</course>
        <speed>8.31988159728449</speed>
      </trkpt>
      <trkpt lat="43.94245" lon="4.77946">
        <ele>17</ele>
        <time>2012-01-06T17:45:23Z</time>
        <course>300.275216786239</course>
        <speed>8.32098519380437</speed>
      </trkpt>
      <trkpt lat="43.94287" lon="4.78018">
        <ele>17</ele>
        <time>2012-01-06T17:45:32Z</time>
        <course>310.669357998085</course>
        <speed>6.28283339801848</speed>
      </trkpt>
      <trkpt lat="43.94372" lon="4.78117">
        <ele>19</ele>
        <time>2012-01-06T17:45:51Z</time>
        <course>301.044058338814</course>
        <speed>8.31776504917364</speed>
      </trkpt>
      <trkpt lat="43.94452" lon="4.7825">
        <ele>18</ele>
        <time>2012-01-06T17:46:08Z</time>
        <course>303.993554352149</course>
        <speed>7.34828449626756</speed>
      </trkpt>
      <trkpt lat="43.94545" lon="4.78388">
        <ele>19</ele>
        <time>2012-01-06T17:46:29Z</time>
        <course>307.927300881766</course>
        <speed>8.31819373279808</speed>
      </trkpt>
      <trkpt lat="43.94633" lon="4.78501">
        <ele>17</ele>
        <time>2012-01-06T17:46:45Z</time>
        <course>314.558260442881</course>
        <speed>8.32000377304992</speed>
      </trkpt>
      <trkpt lat="43.94757" lon="4.78627">
        <ele>17</ele>
        <time>2012-01-06T17:47:05Z</time>
        <course>65.9921665948857</course>
        <speed>5.89543740001736</speed>
      </trkpt>
      <trkpt lat="43.94826" lon="4.78472">
        <ele>20</ele>
        <time>2012-01-06T17:47:30Z</time>
        <course>57.709604233484</course>
        <speed>6.48087241439871</speed>
      </trkpt>
      <trkpt lat="43.94838" lon="4.78453">
        <ele>20</ele>
        <time>2012-01-06T17:47:33Z</time>
        <course>46.0255584381798</course>
        <speed>6.47792479211253</speed>
      </trkpt>
      <trkpt lat="43.94865" lon="4.78425">
        <ele>20</ele>
        <time>2012-01-06T17:47:39Z</time>
        <course>333.447731906899</course>
        <speed>6.47933099899636</speed>
      </trkpt>
      <trkpt lat="43.94887" lon="4.78436">
        <ele>21</ele>
        <time>2012-01-06T17:47:43Z</time>
        <course>313.742637792296</course>
        <speed>6.46879608147526</speed>
      </trkpt>
      <trkpt lat="43.94909" lon="4.78459">
        <ele>21</ele>
        <time>2012-01-06T17:47:48Z</time>
        <course>286.707633807186</course>
        <speed>6.46784389282945</speed>
      </trkpt>
      <trkpt lat="43.94918" lon="4.78489">
        <ele>22</ele>
        <time>2012-01-06T17:47:52Z</time>
        <course>264.090363478301</course>
        <speed>8.3115982200128</speed>
      </trkpt>
      <trkpt lat="43.94915" lon="4.78518">
        <ele>21</ele>
        <time>2012-01-06T17:47:54Z</time>
        <course>247.634558609325</course>
        <speed>8.31906481819396</speed>
      </trkpt>
      <trkpt lat="43.94871" lon="4.78625">
        <ele>20</ele>
        <time>2012-01-06T17:48:06Z</time>
        <course>243.495784959982</course>
        <speed>8.31811595313881</speed>
      </trkpt>
      <trkpt lat="43.94723" lon="4.78922">
        <ele>17</ele>
        <time>2012-01-06T17:48:41Z</time>
        <course>243.745533757825</course>
        <speed>7.84966062709081</speed>
      </trkpt>
      <trkpt lat="43.94383" lon="4.79612">
        <ele>19</ele>
        <time>2012-01-06T17:50:06Z</time>
        <course>253.799068638058</course>
        <speed>5.75119188583646</speed>
      </trkpt>
      <trkpt lat="43.94374" lon="4.79643">
        <ele>19</ele>
        <time>2012-01-06T17:50:11Z</time>
        <course>266.051566843978</course>
        <speed>5.74107020991577</speed>
      </trkpt>
      <trkpt lat="43.94372" lon="4.79672">
        <ele>20</ele>
        <time>2012-01-06T17:50:15Z</time>
        <course>282.415216411386</course>
        <speed>5.74588682952258</speed>
      </trkpt>
      <trkpt lat="43.94394" lon="4.79772">
        <ele>22</ele>
        <time>2012-01-06T17:50:30Z</time>
        <course>266.630504676725</course>
        <speed>8.32120017486916</speed>
      </trkpt>
      <trkpt lat="43.94391" lon="4.79823">
        <ele>21</ele>
        <time>2012-01-06T17:50:34Z</time>
        <course>244.063102837914</course>
        <speed>8.3160256316963</speed>
      </trkpt>
      <trkpt lat="43.94339" lon="4.7993">
        <ele>20</ele>
        <time>2012-01-06T17:50:47Z</time>
        <course>252.55124749039</course>
        <speed>8.3164935260892</speed>
      </trkpt>
      <trkpt lat="43.94301" lon="4.80051">
        <ele>20</ele>
        <time>2012-01-06T17:51:00Z</time>
        <course>262.562127440666</course>
        <speed>6.24085728659085</speed>
      </trkpt>
      <trkpt lat="43.94292" lon="4.8012">
        <ele>20</ele>
        <time>2012-01-06T17:51:09Z</time>
        <course>265.997607322091</course>
        <speed>6.24223478285417</speed>
      </trkpt>
      <trkpt lat="43.94276" lon="4.80349">
        <ele>24</ele>
        <time>2012-01-06T17:51:38Z</time>
        <course>263.434968382682</course>
        <speed>8.31907848108257</speed>
      </trkpt>
      <trkpt lat="43.94246" lon="4.8061">
        <ele>23</ele>
        <time>2012-01-06T17:52:03Z</time>
        <course>266.629119442147</course>
        <speed>7.15340789491972</speed>
      </trkpt>
      <trkpt lat="43.94237" lon="4.80763">
        <ele>24</ele>
        <time>2012-01-06T17:52:21Z</time>
        <course>269.999073744932</course>
        <speed>8.31946309228351</speed>
      </trkpt>
      <trkpt lat="43.94237" lon="4.80844">
        <ele>23</ele>
        <time>2012-01-06T17:52:28Z</time>
        <course>279.734777561203</course>
        <speed>8.31978121192687</speed>
      </trkpt>
      <trkpt lat="43.94243" lon="4.80879">
        <ele>23</ele>
        <time>2012-01-06T17:52:32Z</time>
        <course>281.82403819573</course>
        <speed>8.31876293151265</speed>
      </trkpt>
      <trkpt lat="43.9436" lon="4.81438">
        <ele>23</ele>
        <time>2012-01-06T17:53:28Z</time>
        <course>288.699549636335</course>
        <speed>8.31396041082458</speed>
      </trkpt>
      <trkpt lat="43.94383" lon="4.81506">
        <ele>22</ele>
        <time>2012-01-06T17:53:35Z</time>
        <course>301.177482520261</course>
        <speed>8.31956245872856</speed>
      </trkpt>
      <trkpt lat="43.94409" lon="4.81549">
        <ele>22</ele>
        <time>2012-01-06T17:53:41Z</time>
        <course>315.509654635001</course>
        <speed>8.00816398943846</speed>
      </trkpt>
      <trkpt lat="43.94468" lon="4.81607">
        <ele>22</ele>
        <time>2012-01-06T17:53:51Z</time>
        <course>324.335698544075</course>
        <speed>8.00579679277509</speed>
      </trkpt>
      <trkpt lat="43.94812" lon="4.81854">
        <ele>23</ele>
        <time>2012-01-06T17:54:44Z</time>
        <course>326.783000869293</course>
        <speed>8.31503721814338</speed>
      </trkpt>
      <trkpt lat="43.9487" lon="4.81892">
        <ele>23</ele>
        <time>2012-01-06T17:54:53Z</time>
        <course>348.696229153191</course>
        <speed>8.33658831258014</speed>
      </trkpt>
      <trkpt lat="43.94885" lon="4.81895">
        <ele>23</ele>
        <time>2012-01-06T17:54:55Z</time>
        <course>329.434594107275</course>
        <speed>8.32812920251794</speed>
      </trkpt>
      <trkpt lat="43.94907" lon="4.81908">
        <ele>23</ele>
        <time>2012-01-06T17:54:58Z</time>
        <course>324.639065719761</course>
        <speed>8.3197144415152</speed>
      </trkpt>
      <trkpt lat="43.95007" lon="4.81979">
        <ele>22</ele>
        <time>2012-01-06T17:55:13Z</time>
        <course>280.890798648286</course>
        <speed>7.66168079107794</speed>
      </trkpt>
      <trkpt lat="43.95012" lon="4.82005">
        <ele>22</ele>
        <time>2012-01-06T17:55:16Z</time>
        <course>274.006083873794</course>
        <speed>7.64793962809279</speed>
      </trkpt>
      <trkpt lat="43.9503" lon="4.82262">
        <ele>23</ele>
        <time>2012-01-06T17:55:43Z</time>
        <course>276.341496563279</course>
        <speed>8.31977169869235</speed>
      </trkpt>
      <trkpt lat="43.95053" lon="4.82469">
        <ele>22</ele>
        <time>2012-01-06T17:56:03Z</time>
        <course>286.628025546719</course>
        <speed>8.31295229680703</speed>
      </trkpt>
      <trkpt lat="43.95073" lon="4.82536">
        <ele>21</ele>
        <time>2012-01-06T17:56:10Z</time>
        <course>294.78422414608</course>
        <speed>8.31668801423754</speed>
      </trkpt>
      <trkpt lat="43.95151" lon="4.82705">
        <ele>21</ele>
        <time>2012-01-06T17:56:29Z</time>
        <course>243.42393573522</course>
        <speed>8.31458816140118</speed>
      </trkpt>
      <trkpt lat="43.95144" lon="4.82719">
        <ele>20</ele>
        <time>2012-01-06T17:56:31Z</time>
        <course>264.916781416054</course>
        <speed>8.31942430241956</speed>
      </trkpt>
      <trkpt lat="43.95132" lon="4.82854">
        <ele>20</ele>
        <time>2012-01-06T17:56:44Z</time>
        <course>257.22731291663</course>
        <speed>8.3152080800851</speed>
      </trkpt>
      <trkpt lat="43.95103" lon="4.82982">
        <ele>20</ele>
        <time>2012-01-06T17:56:57Z</time>
        <course>264.802448515536</course>
        <speed>7.73526724451797</speed>
      </trkpt>
      <trkpt lat="43.95097" lon="4.83048">
        <ele>20</ele>
        <time>2012-01-06T17:57:04Z</time>
        <course>273.181063922069</course>
        <speed>7.7233367640479</speed>
      </trkpt>
      <trkpt lat="43.95099" lon="4.83084">
        <ele>20</ele>
        <time>2012-01-06T17:57:08Z</time>
        <course>279.846441849805</course>
        <speed>7.73119074098955</speed>
      </trkpt>
      <trkpt lat="43.95137" lon="4.83303">
        <ele>21</ele>
        <time>2012-01-06T17:57:31Z</time>
        <course>284.448803982934</course>
        <speed>8.31993785561567</speed>
      </trkpt>
      <trkpt lat="43.95188" lon="4.83501">
        <ele>21</ele>
        <time>2012-01-06T17:57:51Z</time>
        <course>278.640365283401</course>
        <speed>8.32340799153695</speed>
      </trkpt>
      <trkpt lat="43.952" lon="4.8358">
        <ele>21</ele>
        <time>2012-01-06T17:57:59Z</time>
        <course>281.361064969298</course>
        <speed>8.31983682613132</speed>
      </trkpt>
      <trkpt lat="43.95246" lon="4.83809">
        <ele>21</ele>
        <time>2012-01-06T17:58:22Z</time>
        <course>271.523053805153</course>
        <speed>8.31828833356342</speed>
      </trkpt>
      <trkpt lat="43.95253" lon="4.84072">
        <ele>21</ele>
        <time>2012-01-06T17:58:47Z</time>
        <course>268.513680273591</course>
        <speed>7.36738873590592</speed>
      </trkpt>
      <trkpt lat="43.95248" lon="4.84265">
        <ele>22</ele>
        <time>2012-01-06T17:59:08Z</time>
        <course>264.14672221031</course>
        <speed>8.31974385708694</speed>
      </trkpt>
      <trkpt lat="43.95227" lon="4.8447">
        <ele>20</ele>
        <time>2012-01-06T17:59:28Z</time>
        <course>250.907388814999</course>
        <speed>6.69095824541061</speed>
      </trkpt>
      <trkpt lat="43.95163" lon="4.84655">
        <ele>22</ele>
        <time>2012-01-06T17:59:52Z</time>
        <course>256.232532372469</course>
        <speed>8.31426966628696</speed>
      </trkpt>
      <trkpt lat="43.95151" lon="4.84704">
        <ele>21</ele>
        <time>2012-01-06T17:59:57Z</time>
        <course>264.312169844728</course>
        <speed>8.31778207411643</speed>
      </trkpt>
      <trkpt lat="43.95112" lon="4.85096">
        <ele>21</ele>
        <time>2012-01-06T18:00:36Z</time>
        <course>260.128855481197</course>
        <speed>8.31435145062836</speed>
      </trkpt>
      <trkpt lat="43.951" lon="4.85165">
        <ele>20</ele>
        <time>2012-01-06T18:00:42Z</time>
        <course>237.515839877783</course>
        <speed>8.32968981773923</speed>
      </trkpt>
      <trkpt lat="43.95086" lon="4.85187">
        <ele>20</ele>
        <time>2012-01-06T18:00:45Z</time>
        <course>281.31523910851</course>
        <speed>8.30287712734813</speed>
      </trkpt>
      <trkpt lat="43.95089" lon="4.85202">
        <ele>20</ele>
        <time>2012-01-06T18:00:47Z</time>
        <course>309.819395568263</course>
        <speed>8.34346624846644</speed>
      </trkpt>
      <trkpt lat="43.95094" lon="4.85208">
        <ele>20</ele>
        <time>2012-01-06T18:00:48Z</time>
        <course>278.03042069206</course>
        <speed>8.32266455757126</speed>
      </trkpt>
      <trkpt lat="43.95105" lon="4.85286">
        <ele>20</ele>
        <time>2012-01-06T18:00:55Z</time>
        <course>262.426925975721</course>
        <speed>7.04337385993193</speed>
      </trkpt>
      <trkpt lat="43.95069" lon="4.85557">
        <ele>22</ele>
        <time>2012-01-06T18:01:26Z</time>
        <course>266.097162832289</course>
        <speed>6.74756966673019</speed>
      </trkpt>
      <trkpt lat="43.95066" lon="4.85601">
        <ele>22</ele>
        <time>2012-01-06T18:01:32Z</time>
        <course>275.103174204054</course>
        <speed>6.7410944545706</speed>
      </trkpt>
      <trkpt lat="43.95081" lon="4.85769">
        <ele>24</ele>
        <time>2012-01-06T18:01:52Z</time>
        <course>261.865726415769</course>
        <speed>7.22675247303061</speed>
      </trkpt>
      <trkpt lat="43.95078" lon="4.8579">
        <ele>24</ele>
        <time>2012-01-06T18:01:54Z</time>
        <course>243.423323874693</course>
        <speed>7.23921077973304</speed>
      </trkpt>
      <trkpt lat="43.95067" lon="4.85812">
        <ele>24</ele>
        <time>2012-01-06T18:01:57Z</time>
        <course>210.452863054887</course>
        <speed>7.22343122603414</speed>
      </trkpt>
      <trkpt lat="43.9505" lon="4.85822">
        <ele>24</ele>
        <time>2012-01-06T18:02:00Z</time>
        <course>151.569412418392</course>
        <speed>7.22850837913516</speed>
      </trkpt>
      <trkpt lat="43.95026" lon="4.85809">
        <ele>24</ele>
        <time>2012-01-06T18:02:04Z</time>
        <course>180</course>
        <speed>7.22279999993043</speed>
      </trkpt>
      <trkpt lat="43.95013" lon="4.85809">
        <ele>24</ele>
        <time>2012-01-06T18:02:06Z</time>
        <course>202.921275532823</course>
        <speed>7.22528498202872</speed>
      </trkpt>
      <trkpt lat="43.94987" lon="4.8582">
        <ele>25</ele>
        <time>2012-01-06T18:02:10Z</time>
        <course>234.278629098934</course>
        <speed>8.31587509420732</speed>
      </trkpt>
      <trkpt lat="43.94964" lon="4.85852">
        <ele>24</ele>
        <time>2012-01-06T18:02:14Z</time>
        <course>258.683751986778</course>
        <speed>8.32153543180948</speed>
      </trkpt>
      <trkpt lat="43.94955" lon="4.85897">
        <ele>23</ele>
        <time>2012-01-06T18:02:19Z</time>
        <course>270.95479048181</course>
        <speed>8.32122034049049</speed>
      </trkpt>
      <trkpt lat="43.94956" lon="4.85957">
        <ele>23</ele>
        <time>2012-01-06T18:02:25Z</time>
        <course>278.534888508278</course>
        <speed>7.02957807504322</speed>
      </trkpt>
      <trkpt lat="43.94962" lon="4.85997">
        <ele>23</ele>
        <time>2012-01-06T18:02:29Z</time>
        <course>285.716292681002</course>
        <speed>7.02924528209816</speed>
      </trkpt>
      <trkpt lat="43.94971" lon="4.86029">
        <ele>23</ele>
        <time>2012-01-06T18:02:33Z</time>
        <course>301.341664437241</course>
        <speed>7.02484085921364</speed>
      </trkpt>
      <trkpt lat="43.94999" lon="4.86075">
        <ele>24</ele>
        <time>2012-01-06T18:02:40Z</time>
        <course>285.429542556714</course>
        <speed>8.30933353509349</speed>
      </trkpt>
      <trkpt lat="43.95007" lon="4.86104">
        <ele>24</ele>
        <time>2012-01-06T18:02:43Z</time>
        <course>264.641110640169</course>
        <speed>8.32781612330432</speed>
      </trkpt>
      <trkpt lat="43.95004" lon="4.86136">
        <ele>24</ele>
        <time>2012-01-06T18:02:46Z</time>
        <course>258.081525640111</course>
        <speed>8.31686379988199</speed>
      </trkpt>
      <trkpt lat="43.94977" lon="4.86264">
        <ele>24</ele>
        <time>2012-01-06T18:02:59Z</time>
        <course>261.940370283301</course>
        <speed>8.31793943298259</speed>
      </trkpt>
      <trkpt lat="43.94962" lon="4.8637">
        <ele>22</ele>
        <time>2012-01-06T18:03:09Z</time>
        <course>271.975444663347</course>
        <speed>8.32503490409927</speed>
      </trkpt>
      <trkpt lat="43.94964" lon="4.86428">
        <ele>22</ele>
        <time>2012-01-06T18:03:15Z</time>
        <course>276.56177483177</course>
        <speed>5.57186195476612</speed>
      </trkpt>
      <trkpt lat="43.94987" lon="4.86628">
        <ele>26</ele>
        <time>2012-01-06T18:03:44Z</time>
        <course>262.564509633674</course>
        <speed>5.70111898831362</speed>
      </trkpt>
      <trkpt lat="43.94984" lon="4.86651">
        <ele>26</ele>
        <time>2012-01-06T18:03:47Z</time>
        <course>245.397165099668</course>
        <speed>5.70120846233024</speed>
      </trkpt>
      <trkpt lat="43.9493" lon="4.86769">
        <ele>29</ele>
        <time>2012-01-06T18:04:07Z</time>
        <course>248.540135365889</course>
        <speed>8.31759451216343</speed>
      </trkpt>
      <trkpt lat="43.94875" lon="4.86909">
        <ele>29</ele>
        <time>2012-01-06T18:04:22Z</time>
        <course>251.929049378055</course>
        <speed>8.32126350754711</speed>
      </trkpt>
      <trkpt lat="43.94845" lon="4.87001">
        <ele>28</ele>
        <time>2012-01-06T18:04:32Z</time>
        <course>248.795151650852</course>
        <speed>8.31872516170326</speed>
      </trkpt>
      <trkpt lat="43.94521" lon="4.87837">
        <ele>28</ele>
        <time>2012-01-06T18:06:03Z</time>
        <course>254.280355915769</course>
        <speed>7.62445836730176</speed>
      </trkpt>
      <trkpt lat="43.94503" lon="4.87901">
        <ele>28</ele>
        <time>2012-01-06T18:06:11Z</time>
        <course>257.615516128511</course>
        <speed>7.62476369712859</speed>
      </trkpt>
      <trkpt lat="43.9446" lon="4.88097">
        <ele>29</ele>
        <time>2012-01-06T18:06:32Z</time>
        <course>243.418527528649</course>
        <speed>8.32539225498644</speed>
      </trkpt>
      <trkpt lat="43.94455" lon="4.88107">
        <ele>29</ele>
        <time>2012-01-06T18:06:33Z</time>
        <course>258.045789232834</course>
        <speed>8.31762212800899</speed>
      </trkpt>
      <trkpt lat="43.94422" lon="4.88263">
        <ele>29</ele>
        <time>2012-01-06T18:06:49Z</time>
        <course>255.200943276293</course>
        <speed>7.43465399068454</speed>
      </trkpt>
      <trkpt lat="43.9437" lon="4.8846">
        <ele>30</ele>
        <time>2012-01-06T18:07:11Z</time>
        <course>267.13524321917</course>
        <speed>8.31103983185606</speed>
      </trkpt>
      <trkpt lat="43.94369" lon="4.8848">
        <ele>30</ele>
        <time>2012-01-06T18:07:13Z</time>
        <course>251.781866880391</course>
        <speed>8.3186072378495</speed>
      </trkpt>
      <trkpt lat="43.94201" lon="4.88991">
        <ele>30</ele>
        <time>2012-01-06T18:08:07Z</time>
        <course>256.579898697807</course>
        <speed>8.31697145667957</speed>
      </trkpt>
      <trkpt lat="43.9416" lon="4.89163">
        <ele>27</ele>
        <time>2012-01-06T18:08:25Z</time>
        <course>259.498392875454</course>
        <speed>6.12471618317272</speed>
      </trkpt>
      <trkpt lat="43.94135" lon="4.89298">
        <ele>29</ele>
        <time>2012-01-06T18:08:43Z</time>
        <course>262.918955089548</course>
        <speed>8.31955196133469</speed>
      </trkpt>
      <trkpt lat="43.94118" lon="4.89435">
        <ele>27</ele>
        <time>2012-01-06T18:08:56Z</time>
        <course>260.290139283982</course>
        <speed>8.31601574368793</speed>
      </trkpt>
      <trkpt lat="43.94098" lon="4.89552">
        <ele>27</ele>
        <time>2012-01-06T18:09:08Z</time>
        <course>254.645189277589</course>
        <speed>8.31936057928272</speed>
      </trkpt>
      <trkpt lat="43.94067" lon="4.89665">
        <ele>27</ele>
        <time>2012-01-06T18:09:20Z</time>
        <course>252.673240822743</course>
        <speed>7.45937689547039</speed>
      </trkpt>
      <trkpt lat="43.94043" lon="4.89742">
        <ele>27</ele>
        <time>2012-01-06T18:09:29Z</time>
        <course>230.169621998656</course>
        <speed>7.49265834325639</speed>
      </trkpt>
      <trkpt lat="43.94038" lon="4.89748">
        <ele>27</ele>
        <time>2012-01-06T18:09:30Z</time>
        <course>255.950426761568</course>
        <speed>7.45452458717014</speed>
      </trkpt>
      <trkpt lat="43.94009" lon="4.89864">
        <ele>28</ele>
        <time>2012-01-06T18:09:43Z</time>
        <course>265.328476263039</course>
        <speed>7.7392545832441</speed>
      </trkpt>
      <trkpt lat="43.93982" lon="4.90195">
        <ele>29</ele>
        <time>2012-01-06T18:10:17Z</time>
        <course>254.040665985079</course>
        <speed>6.41041318549534</speed>
      </trkpt>
      <trkpt lat="43.93976" lon="4.90216">
        <ele>29</ele>
        <time>2012-01-06T18:10:20Z</time>
        <course>263.823369160359</course>
        <speed>6.39680720838115</speed>
      </trkpt>
      <trkpt lat="43.93968" lon="4.9029">
        <ele>30</ele>
        <time>2012-01-06T18:10:29Z</time>
        <course>246.782361579109</course>
        <speed>6.39017928567459</speed>
      </trkpt>
      <trkpt lat="43.93962" lon="4.90304">
        <ele>30</ele>
        <time>2012-01-06T18:10:31Z</time>
        <course>233.104913259195</course>
        <speed>6.41849580335677</speed>
      </trkpt>
      <trkpt lat="43.93956" lon="4.90312">
        <ele>30</ele>
        <time>2012-01-06T18:10:33Z</time>
        <course>274.188222846788</course>
        <speed>6.40288203268637</speed>
      </trkpt>
      <trkpt lat="43.93959" lon="4.90353">
        <ele>31</ele>
        <time>2012-01-06T18:10:38Z</time>
        <course>259.749118005588</course>
        <speed>5.66529802401172</speed>
      </trkpt>
      <trkpt lat="43.93931" lon="4.90508">
        <ele>34</ele>
        <time>2012-01-06T18:11:01Z</time>
        <course>262.952573240263</course>
        <speed>7.55257930576163</speed>
      </trkpt>
      <trkpt lat="43.93901" lon="4.90751">
        <ele>35</ele>
        <time>2012-01-06T18:11:27Z</time>
        <course>252.881821638783</course>
        <speed>7.11435551876671</speed>
      </trkpt>
      <trkpt lat="43.93893" lon="4.90777">
        <ele>35</ele>
        <time>2012-01-06T18:11:30Z</time>
        <course>197.087490757011</course>
        <speed>7.11342376254414</speed>
      </trkpt>
      <trkpt lat="43.9388" lon="4.90781">
        <ele>35</ele>
        <time>2012-01-06T18:11:32Z</time>
        <course>240.922234018389</course>
        <speed>7.10590557791875</speed>
      </trkpt>
      <trkpt lat="43.93875" lon="4.9079">
        <ele>35</ele>
        <time>2012-01-06T18:11:33Z</time>
        <course>272.864866882707</course>
        <speed>7.09806784389405</speed>
      </trkpt>
      <trkpt lat="43.93876" lon="4.9081">
        <ele>35</ele>
        <time>2012-01-06T18:11:36Z</time>
        <course>254.730793589616</course>
        <speed>7.10328510681273</speed>
      </trkpt>
      <trkpt lat="43.9387" lon="4.90832">
        <ele>35</ele>
        <time>2012-01-06T18:11:38Z</time>
        <course>229.208938228145</course>
        <speed>7.11127953063642</speed>
      </trkpt>
      <trkpt lat="43.93845" lon="4.90861">
        <ele>36</ele>
        <time>2012-01-06T18:11:43Z</time>
        <course>265.231644797185</course>
        <speed>5.00828734598451</speed>
      </trkpt>
      <trkpt lat="43.93844" lon="4.90873">
        <ele>36</ele>
        <time>2012-01-06T18:11:45Z</time>
        <course>287.118051073246</course>
        <speed>5.0052687260209</speed>
      </trkpt>
      <trkpt lat="43.93848" lon="4.90886">
        <ele>36</ele>
        <time>2012-01-06T18:11:47Z</time>
        <course>323.998628420914</course>
        <speed>4.99924903742267</speed>
      </trkpt>
      <trkpt lat="43.93859" lon="4.90894">
        <ele>37</ele>
        <time>2012-01-06T18:11:50Z</time>
        <course>289.670975150257</course>
        <speed>5.00173332812265</speed>
      </trkpt>
      <trkpt lat="43.93864" lon="4.90908">
        <ele>37</ele>
        <time>2012-01-06T18:11:53Z</time>
        <course>273.273161346681</course>
        <speed>5.00775716676744</speed>
      </trkpt>
      <trkpt lat="43.93866" lon="4.90943">
        <ele>38</ele>
        <time>2012-01-06T18:11:58Z</time>
        <course>259.303790273154</course>
        <speed>5.00571637367119</speed>
      </trkpt>
      <trkpt lat="43.9378" lon="4.91399">
        <ele>51</ele>
        <time>2012-01-06T18:13:14Z</time>
        <course>253.375896818837</course>
        <speed>3.68409787970395</speed>
      </trkpt>
      <trkpt lat="43.93746" lon="4.91513">
        <ele>57</ele>
        <time>2012-01-06T18:13:41Z</time>
        <course>247.084994033761</course>
        <speed>3.68416560469555</speed>
      </trkpt>
      <trkpt lat="43.93567" lon="4.91937">
        <ele>82</ele>
        <time>2012-01-06T18:15:27Z</time>
        <course>246.120599965902</course>
        <speed>4.23003547742982</speed>
      </trkpt>
      <trkpt lat="43.9346" lon="4.92179">
        <ele>93</ele>
        <time>2012-01-06T18:16:21Z</time>
        <course>222.992251264788</course>
        <speed>6.12287962886934</speed>
      </trkpt>
      <trkpt lat="43.93445" lon="4.92193">
        <ele>93</ele>
        <time>2012-01-06T18:16:24Z</time>
        <course>201.778590274516</course>
        <speed>6.11842552756782</speed>
      </trkpt>
      <trkpt lat="43.93425" lon="4.92201">
        <ele>93</ele>
        <time>2012-01-06T18:16:28Z</time>
        <course>178.124343393649</course>
        <speed>6.11932233566652</speed>
      </trkpt>
      <trkpt lat="43.93364" lon="4.92199">
        <ele>95</ele>
        <time>2012-01-06T18:16:39Z</time>
        <course>191.099912784263</course>
        <speed>4.70409478530745</speed>
      </trkpt>
      <trkpt lat="43.93308" lon="4.9221">
        <ele>97</ele>
        <time>2012-01-06T18:16:52Z</time>
        <course>205.851762126302</course>
        <speed>4.70268854320307</speed>
      </trkpt>
      <trkpt lat="43.93207" lon="4.92259">
        <ele>102</ele>
        <time>2012-01-06T18:17:18Z</time>
        <course>224.963438232261</course>
        <speed>3.83180092934647</speed>
      </trkpt>
      <trkpt lat="43.93188" lon="4.92278">
        <ele>103</ele>
        <time>2012-01-06T18:17:25Z</time>
        <course>240.770872204968</course>
        <speed>3.83082155988513</speed>
      </trkpt>
      <trkpt lat="43.93169" lon="4.92312">
        <ele>105</ele>
        <time>2012-01-06T18:17:34Z</time>
        <course>258.392779069898</course>
        <speed>3.83130082430526</speed>
      </trkpt>
      <trkpt lat="43.93161" lon="4.92351">
        <ele>107</ele>
        <time>2012-01-06T18:17:42Z</time>
        <course>269.999521018791</course>
        <speed>3.83284312233779</speed>
      </trkpt>
      <trkpt lat="43.93161" lon="4.92384">
        <ele>109</ele>
        <time>2012-01-06T18:17:49Z</time>
        <course>280.34611399379</course>
        <speed>8.31749960933352</speed>
      </trkpt>
      <trkpt lat="43.93217" lon="4.92691">
        <ele>104</ele>
        <time>2012-01-06T18:18:19Z</time>
        <course>264.603182417488</course>
        <speed>8.32204185972074</speed>
      </trkpt>
      <trkpt lat="43.93212" lon="4.92744">
        <ele>103</ele>
        <time>2012-01-06T18:18:25Z</time>
        <course>253.060816496353</course>
        <speed>8.31928319856756</speed>
      </trkpt>
      <trkpt lat="43.93077" lon="4.93188">
        <ele>99</ele>
        <time>2012-01-06T18:19:11Z</time>
        <course>247.211496179431</course>
        <speed>4.63213104760822</speed>
      </trkpt>
      <trkpt lat="43.92952" lon="4.93486">
        <ele>110</ele>
        <time>2012-01-06T18:20:10Z</time>
        <course>244.198881080354</course>
        <speed>5.5326293082562</speed>
      </trkpt>
      <trkpt lat="43.92938" lon="4.93515">
        <ele>110</ele>
        <time>2012-01-06T18:20:15Z</time>
        <course>221.593501246633</course>
        <speed>5.52304502208392</speed>
      </trkpt>
      <trkpt lat="43.92929" lon="4.93523">
        <ele>111</ele>
        <time>2012-01-06T18:20:18Z</time>
        <course>211.969069918876</course>
        <speed>5.53900949724431</speed>
      </trkpt>
      <trkpt lat="43.92921" lon="4.93528">
        <ele>111</ele>
        <time>2012-01-06T18:20:19Z</time>
        <course>251.540654532</course>
        <speed>5.51152956379358</speed>
      </trkpt>
      <trkpt lat="43.92918" lon="4.93537">
        <ele>111</ele>
        <time>2012-01-06T18:20:21Z</time>
        <course>273.9502975609</course>
        <speed>5.52473777231443</speed>
      </trkpt>
      <trkpt lat="43.9292" lon="4.93566">
        <ele>112</ele>
        <time>2012-01-06T18:20:25Z</time>
        <course>256.74118099553</course>
        <speed>5.52606017038435</speed>
      </trkpt>
      <trkpt lat="43.92916" lon="4.93583">
        <ele>112</ele>
        <time>2012-01-06T18:20:28Z</time>
        <course>248.934913043531</course>
        <speed>5.5242752710595</speed>
      </trkpt>
      <trkpt lat="43.92906" lon="4.93609">
        <ele>113</ele>
        <time>2012-01-06T18:20:32Z</time>
        <course>254.927054730341</course>
        <speed>8.3187255059845</speed>
      </trkpt>
      <trkpt lat="43.92849" lon="4.93821">
        <ele>113</ele>
        <time>2012-01-06T18:20:54Z</time>
        <course>249.33373114853</course>
        <speed>8.31816998769504</speed>
      </trkpt>
      <trkpt lat="43.9282" lon="4.93898">
        <ele>110</ele>
        <time>2012-01-06T18:21:02Z</time>
        <course>229.356481037326</course>
        <speed>8.32536313235386</speed>
      </trkpt>
      <trkpt lat="43.9279" lon="4.93933">
        <ele>109</ele>
        <time>2012-01-06T18:21:07Z</time>
        <course>199.413255354176</course>
        <speed>8.32954795571426</speed>
      </trkpt>
      <trkpt lat="43.92773" lon="4.93939">
        <ele>108</ele>
        <time>2012-01-06T18:21:10Z</time>
        <course>174.377862950508</course>
        <speed>8.3169135357597</speed>
      </trkpt>
      <trkpt lat="43.92702" lon="4.93932">
        <ele>105</ele>
        <time>2012-01-06T18:21:19Z</time>
        <course>189.767597219099</course>
        <speed>8.32623102994731</speed>
      </trkpt>
      <trkpt lat="43.92673" lon="4.93937">
        <ele>104</ele>
        <time>2012-01-06T18:21:23Z</time>
        <course>226.571769211346</course>
        <speed>8.32075766494776</speed>
      </trkpt>
      <trkpt lat="43.92587" lon="4.94028">
        <ele>101</ele>
        <time>2012-01-06T18:21:37Z</time>
        <course>239.891444045345</course>
        <speed>8.30209143244305</speed>
      </trkpt>
      <trkpt lat="43.92576" lon="4.94047">
        <ele>99</ele>
        <time>2012-01-06T18:21:40Z</time>
        <course>266.982091422247</course>
        <speed>8.33159332829044</speed>
      </trkpt>
      <trkpt lat="43.92575" lon="4.94066">
        <ele>98</ele>
        <time>2012-01-06T18:21:42Z</time>
        <course>298.338515941003</course>
        <speed>8.32722928729102</speed>
      </trkpt>
      <trkpt lat="43.92589" lon="4.94092">
        <ele>97</ele>
        <time>2012-01-06T18:21:45Z</time>
        <course>325.150650454741</course>
        <speed>8.31911249696416</speed>
      </trkpt>
      <trkpt lat="43.92665" lon="4.94145">
        <ele>91</ele>
        <time>2012-01-06T18:21:56Z</time>
        <course>303.730731989397</course>
        <speed>8.30365589561016</speed>
      </trkpt>
      <trkpt lat="43.92675" lon="4.9416">
        <ele>90</ele>
        <time>2012-01-06T18:21:58Z</time>
        <course>280.175436708066</course>
        <speed>8.31694745841444</speed>
      </trkpt>
      <trkpt lat="43.9272" lon="4.94411">
        <ele>81</ele>
        <time>2012-01-06T18:22:23Z</time>
        <course>279.384416404769</course>
        <speed>8.31550332288223</speed>
      </trkpt>
      <trkpt lat="43.92737" lon="4.94514">
        <ele>75</ele>
        <time>2012-01-06T18:22:33Z</time>
        <course>292.196092218543</course>
        <speed>8.33083918521684</speed>
      </trkpt>
      <trkpt lat="43.92748" lon="4.94541">
        <ele>74</ele>
        <time>2012-01-06T18:22:36Z</time>
        <course>323.656408148718</course>
        <speed>6.98876983228436</speed>
      </trkpt>
      <trkpt lat="43.92767" lon="4.94555">
        <ele>74</ele>
        <time>2012-01-06T18:22:40Z</time>
        <course>341.348520778757</course>
        <speed>6.9879139614804</speed>
      </trkpt>
      <trkpt lat="43.92838" lon="4.94579">
        <ele>75</ele>
        <time>2012-01-06T18:22:51Z</time>
        <course>324.904523025167</course>
        <speed>8.32564204667308</speed>
      </trkpt>
      <trkpt lat="43.92865" lon="4.94598">
        <ele>72</ele>
        <time>2012-01-06T18:22:55Z</time>
        <course>305.255770076865</course>
        <speed>8.31874938709428</speed>
      </trkpt>
      <trkpt lat="43.92889" lon="4.94632">
        <ele>70</ele>
        <time>2012-01-06T18:23:00Z</time>
        <course>285.966773591537</course>
        <speed>8.31274619157394</speed>
      </trkpt>
      <trkpt lat="43.92893" lon="4.94646">
        <ele>69</ele>
        <time>2012-01-06T18:23:01Z</time>
        <course>265.90836301023</course>
        <speed>8.33999348265395</speed>
      </trkpt>
      <trkpt lat="43.92892" lon="4.9466">
        <ele>68</ele>
        <time>2012-01-06T18:23:03Z</time>
        <course>245.193540649781</course>
        <speed>8.29312395454453</speed>
      </trkpt>
      <trkpt lat="43.92886" lon="4.94673">
        <ele>68</ele>
        <time>2012-01-06T18:23:04Z</time>
        <course>216.83046976889</course>
        <speed>8.35003719673769</speed>
      </trkpt>
      <trkpt lat="43.92878" lon="4.94679">
        <ele>67</ele>
        <time>2012-01-06T18:23:05Z</time>
        <course>213.565718377866</course>
        <speed>8.31808549637307</speed>
      </trkpt>
      <trkpt lat="43.9272" lon="4.94784">
        <ele>55</ele>
        <time>2012-01-06T18:23:29Z</time>
        <course>223.04673803039</course>
        <speed>8.32392252401453</speed>
      </trkpt>
      <trkpt lat="43.92689" lon="4.94813">
        <ele>53</ele>
        <time>2012-01-06T18:23:34Z</time>
        <course>245.522471364192</course>
        <speed>8.32808080024552</speed>
      </trkpt>
      <trkpt lat="43.92679" lon="4.94835">
        <ele>52</ele>
        <time>2012-01-06T18:23:36Z</time>
        <course>262.393050929787</course>
        <speed>8.32413172381083</speed>
      </trkpt>
      <trkpt lat="43.92673" lon="4.9488">
        <ele>51</ele>
        <time>2012-01-06T18:23:41Z</time>
        <course>269.999045362466</course>
        <speed>8.32218557072237</speed>
      </trkpt>
      <trkpt lat="43.92673" lon="4.9494">
        <ele>50</ele>
        <time>2012-01-06T18:23:46Z</time>
        <course>272.410213091879</course>
        <speed>8.31741938240518</speed>
      </trkpt>
      <trkpt lat="43.92685" lon="4.95225">
        <ele>48</ele>
        <time>2012-01-06T18:24:14Z</time>
        <course>268.107461292618</course>
        <speed>8.32248392540001</speed>
      </trkpt>
      <trkpt lat="43.92682" lon="4.95316">
        <ele>47</ele>
        <time>2012-01-06T18:24:23Z</time>
        <course>263.805687061306</course>
        <speed>8.31492514142604</speed>
      </trkpt>
      <trkpt lat="43.92669" lon="4.95436">
        <ele>47</ele>
        <time>2012-01-06T18:24:34Z</time>
        <course>259.443450624055</course>
        <speed>8.00525133927622</speed>
      </trkpt>
      <trkpt lat="43.92653" lon="4.95522">
        <ele>47</ele>
        <time>2012-01-06T18:24:43Z</time>
        <course>256.750725672168</course>
        <speed>8.00951608949078</speed>
      </trkpt>
      <trkpt lat="43.92384" lon="4.96668">
        <ele>49</ele>
        <time>2012-01-06T18:26:44Z</time>
        <course>256.090918737518</course>
        <speed>6.33922474727706</speed>
      </trkpt>
      <trkpt lat="43.92362" lon="4.96757">
        <ele>50</ele>
        <time>2012-01-06T18:26:55Z</time>
        <course>262.970413988606</course>
        <speed>6.34343744301217</speed>
      </trkpt>
      <trkpt lat="43.92354" lon="4.96822">
        <ele>51</ele>
        <time>2012-01-06T18:27:04Z</time>
        <course>267.899747063123</course>
        <speed>8.31824385647255</speed>
      </trkpt>
      <trkpt lat="43.92351" lon="4.96904">
        <ele>51</ele>
        <time>2012-01-06T18:27:12Z</time>
        <course>276.556480567629</course>
        <speed>8.32284392198306</speed>
      </trkpt>
      <trkpt lat="43.92358" lon="4.96965">
        <ele>51</ele>
        <time>2012-01-06T18:27:18Z</time>
        <course>285.148253293594</course>
        <speed>8.32353942272388</speed>
      </trkpt>
      <trkpt lat="43.92368" lon="4.97002">
        <ele>51</ele>
        <time>2012-01-06T18:27:21Z</time>
        <course>278.596351519545</course>
        <speed>8.31869192738283</speed>
      </trkpt>
      <trkpt lat="43.92384" lon="4.97108">
        <ele>51</ele>
        <time>2012-01-06T18:27:32Z</time>
        <course>280.345242685293</course>
        <speed>7.70067262708707</speed>
      </trkpt>
      <trkpt lat="43.92494" lon="4.97711">
        <ele>53</ele>
        <time>2012-01-06T18:28:37Z</time>
        <course>279.708811475353</course>
        <speed>8.3177177271104</speed>
      </trkpt>
      <trkpt lat="43.92593" lon="4.9829">
        <ele>51</ele>
        <time>2012-01-06T18:29:34Z</time>
        <course>280.232015788365</course>
        <speed>7.80258035827675</speed>
      </trkpt>
      <trkpt lat="43.92659" lon="4.98656">
        <ele>52</ele>
        <time>2012-01-06T18:30:12Z</time>
        <course>292.651241872779</course>
        <speed>8.34222329085469</speed>
      </trkpt>
      <trkpt lat="43.92664" lon="4.98668">
        <ele>52</ele>
        <time>2012-01-06T18:30:14Z</time>
        <course>279.234164324243</course>
        <speed>8.31781744005068</speed>
      </trkpt>
      <trkpt lat="43.92702" lon="4.98902">
        <ele>52</ele>
        <time>2012-01-06T18:30:37Z</time>
        <course>280.481000024592</course>
        <speed>8.03094459544616</speed>
      </trkpt>
      <trkpt lat="43.92827" lon="4.99578">
        <ele>53</ele>
        <time>2012-01-06T18:31:46Z</time>
        <course>262.864553821833</course>
        <speed>8.33087746936004</speed>
      </trkpt>
      <trkpt lat="43.92826" lon="4.99586">
        <ele>52</ele>
        <time>2012-01-06T18:31:47Z</time>
        <course>240.031646143126</course>
        <speed>8.32799689186476</speed>
      </trkpt>
      <trkpt lat="43.92807" lon="4.99619">
        <ele>52</ele>
        <time>2012-01-06T18:31:51Z</time>
        <course>237.322411529024</course>
        <speed>8.31722688982991</speed>
      </trkpt>
      <trkpt lat="43.9275" lon="4.99708">
        <ele>52</ele>
        <time>2012-01-06T18:32:03Z</time>
        <course>222.666207266882</course>
        <speed>7.95717787501133</speed>
      </trkpt>
      <trkpt lat="43.92737" lon="4.9972">
        <ele>52</ele>
        <time>2012-01-06T18:32:05Z</time>
        <course>167.489553374194</course>
        <speed>7.97486509710704</speed>
      </trkpt>
      <trkpt lat="43.92728" lon="4.99718">
        <ele>52</ele>
        <time>2012-01-06T18:32:06Z</time>
        <course>216.828107638531</course>
        <speed>7.95559498236705</speed>
      </trkpt>
      <trkpt lat="43.9272" lon="4.99724">
        <ele>52</ele>
        <time>2012-01-06T18:32:07Z</time>
        <course>262.222823519853</course>
        <speed>7.96428522045931</speed>
      </trkpt>
      <trkpt lat="43.92717" lon="4.99746">
        <ele>52</ele>
        <time>2012-01-06T18:32:10Z</time>
        <course>298.177014229222</course>
        <speed>7.9528159763753</speed>
      </trkpt>
      <trkpt lat="43.9274" lon="4.99789">
        <ele>52</ele>
        <time>2012-01-06T18:32:15Z</time>
        <course>278.985637375849</course>
        <speed>7.94233253177574</speed>
      </trkpt>
      <trkpt lat="43.92743" lon="4.99808">
        <ele>52</ele>
        <time>2012-01-06T18:32:17Z</time>
        <course>269.560151644583</course>
        <speed>7.95144186013823</speed>
      </trkpt>
      <trkpt lat="43.9274" lon="5.00205">
        <ele>53</ele>
        <time>2012-01-06T18:32:57Z</time>
        <course>263.649604382846</course>
        <speed>6.62544005394871</speed>
      </trkpt>
      <trkpt lat="43.92735" lon="5.0025">
        <ele>53</ele>
        <time>2012-01-06T18:33:03Z</time>
        <course>246.128464058492</course>
        <speed>6.62948971556703</speed>
      </trkpt>
      <trkpt lat="43.92716" lon="5.00293">
        <ele>53</ele>
        <time>2012-01-06T18:33:09Z</time>
        <course>227.969227616885</course>
        <speed>6.63669444373302</speed>
      </trkpt>
      <trkpt lat="43.92707" lon="5.00303">
        <ele>54</ele>
        <time>2012-01-06T18:33:11Z</time>
        <course>173.300363042219</course>
        <speed>6.62870318404972</speed>
      </trkpt>
      <trkpt lat="43.9269" lon="5.00301">
        <ele>54</ele>
        <time>2012-01-06T18:33:13Z</time>
        <course>141.00827595718</course>
        <speed>6.62189898885345</speed>
      </trkpt>
      <trkpt lat="43.92653" lon="5.00271">
        <ele>55</ele>
        <time>2012-01-06T18:33:21Z</time>
        <course>248.410970430981</course>
        <speed>8.31697747413555</speed>
      </trkpt>
      <trkpt lat="43.92621" lon="5.00352">
        <ele>54</ele>
        <time>2012-01-06T18:33:29Z</time>
        <course>281.327034726777</course>
        <speed>8.30607336010629</speed>
      </trkpt>
      <trkpt lat="43.92624" lon="5.00367">
        <ele>54</ele>
        <time>2012-01-06T18:33:31Z</time>
        <course>235.102096675429</course>
        <speed>8.32361039323689</speed>
      </trkpt>
      <trkpt lat="43.92585" lon="5.00423">
        <ele>54</ele>
        <time>2012-01-06T18:33:38Z</time>
        <course>142.169450771062</course>
        <speed>8.30656767648179</speed>
      </trkpt>
      <trkpt lat="43.92576" lon="5.00416">
        <ele>54</ele>
        <time>2012-01-06T18:33:40Z</time>
        <course>222.979018918401</course>
        <speed>8.33359922990551</speed>
      </trkpt>
      <trkpt lat="43.92561" lon="5.0043">
        <ele>54</ele>
        <time>2012-01-06T18:33:42Z</time>
        <course>90.0000162309579</course>
        <speed>7.27574467785995</speed>
      </trkpt>
      <trkpt lat="43.92561" lon="5.00429">
        <ele>54</ele>
        <time>2012-01-06T18:33:42Z</time>
        <course>40.8691336601967</course>
        <speed>7.49950680492058</speed>
      </trkpt>
      <trkpt lat="43.92576" lon="5.00416">
        <ele>54</ele>
        <time>2012-01-06T18:33:45Z</time>
        <course>322.169224318231</course>
        <speed>7.49219829643456</speed>
      </trkpt>
      <trkpt lat="43.92585" lon="5.00423">
        <ele>54</ele>
        <time>2012-01-06T18:33:47Z</time>
        <course>55.10390060984</course>
        <speed>7.49325022179619</speed>
      </trkpt>
      <trkpt lat="43.92624" lon="5.00367">
        <ele>54</ele>
        <time>2012-01-06T18:33:55Z</time>
        <course>101.327516378927</course>
        <speed>7.50548797599966</speed>
      </trkpt>
      <trkpt lat="43.92621" lon="5.00352">
        <ele>54</ele>
        <time>2012-01-06T18:33:56Z</time>
        <course>68.4135646339166</course>
        <speed>7.49117829230649</speed>
      </trkpt>
      <trkpt lat="43.92653" lon="5.00271">
        <ele>55</ele>
        <time>2012-01-06T18:34:06Z</time>
        <course>322.317075944378</course>
        <speed>8.3231727036225</speed>
      </trkpt>
      <trkpt lat="43.92706" lon="5.00312">
        <ele>54</ele>
        <time>2012-01-06T18:34:14Z</time>
        <course>294.47671225952</course>
        <speed>8.32805626951158</speed>
      </trkpt>
      <trkpt lat="43.92711" lon="5.00323">
        <ele>54</ele>
        <time>2012-01-06T18:34:16Z</time>
        <course>360</course>
        <speed>8.31914438466407</speed>
      </trkpt>
      <trkpt lat="43.92725" lon="5.00323">
        <ele>54</ele>
        <time>2012-01-06T18:34:18Z</time>
        <course>313.068044895513</course>
        <speed>8.32630088468974</speed>
      </trkpt>
      <trkpt lat="43.92739" lon="5.00338">
        <ele>54</ele>
        <time>2012-01-06T18:34:20Z</time>
        <course>277.133745327646</course>
        <speed>8.31676954048413</speed>
      </trkpt>
      <trkpt lat="43.92754" lon="5.00458">
        <ele>54</ele>
        <time>2012-01-06T18:34:32Z</time>
        <course>273.456662672395</course>
        <speed>8.31792229169618</speed>
      </trkpt>
      <trkpt lat="43.92761" lon="5.00574">
        <ele>54</ele>
        <time>2012-01-06T18:34:43Z</time>
        <course>263.529071202728</course>
        <speed>8.31575685751452</speed>
      </trkpt>
      <trkpt lat="43.92743" lon="5.00733">
        <ele>54</ele>
        <time>2012-01-06T18:34:58Z</time>
        <course>271.364662054971</course>
        <speed>7.24811825895876</speed>
      </trkpt>
      <trkpt lat="43.92745" lon="5.00817">
        <ele>54</ele>
        <time>2012-01-06T18:35:08Z</time>
        <course>281.141566886336</course>
        <speed>7.24507908451359</speed>
      </trkpt>
      <trkpt lat="43.92793" lon="5.01061">
        <ele>56</ele>
        <time>2012-01-06T18:35:36Z</time>
        <course>273.310397355386</course>
        <speed>8.31719206641554</speed>
      </trkpt>
      <trkpt lat="43.92803" lon="5.01234">
        <ele>55</ele>
        <time>2012-01-06T18:35:52Z</time>
        <course>280.504435956187</course>
        <speed>7.05594664922524</speed>
      </trkpt>
      <trkpt lat="43.92828" lon="5.01369">
        <ele>56</ele>
        <time>2012-01-06T18:36:08Z</time>
        <course>288.459134818452</course>
        <speed>8.32520269391321</speed>
      </trkpt>
      <trkpt lat="43.92846" lon="5.01423">
        <ele>55</ele>
        <time>2012-01-06T18:36:14Z</time>
        <course>279.304819019107</course>
        <speed>8.32035279660035</speed>
      </trkpt>
      <trkpt lat="43.92864" lon="5.01533">
        <ele>55</ele>
        <time>2012-01-06T18:36:25Z</time>
        <course>277.132935598485</course>
        <speed>8.31896386912525</speed>
      </trkpt>
      <trkpt lat="43.92882" lon="5.01677">
        <ele>55</ele>
        <time>2012-01-06T18:36:39Z</time>
        <course>284.216711220556</course>
        <speed>8.32193191084806</speed>
      </trkpt>
      <trkpt lat="43.92903" lon="5.0176">
        <ele>55</ele>
        <time>2012-01-06T18:36:47Z</time>
        <course>270.60249866864</course>
        <speed>8.31895779226158</speed>
      </trkpt>
      <trkpt lat="43.92904" lon="5.01855">
        <ele>55</ele>
        <time>2012-01-06T18:36:56Z</time>
        <course>275.566053670582</course>
        <speed>8.31855412215736</speed>
      </trkpt>
      <trkpt lat="43.92915" lon="5.01968">
        <ele>53</ele>
        <time>2012-01-06T18:37:07Z</time>
        <course>269.999330391696</course>
        <speed>8.32447010720199</speed>
      </trkpt>
      <trkpt lat="43.92915" lon="5.02012">
        <ele>53</ele>
        <time>2012-01-06T18:37:12Z</time>
        <course>257.453319781148</course>
        <speed>6.1182133236491</speed>
      </trkpt>
      <trkpt lat="43.92905" lon="5.02057">
        <ele>53</ele>
        <time>2012-01-06T18:37:18Z</time>
        <course>246.819710045352</course>
        <speed>6.11297750010198</speed>
      </trkpt>
      <trkpt lat="43.92846" lon="5.02195">
        <ele>56</ele>
        <time>2012-01-06T18:37:39Z</time>
        <course>250.359733119367</course>
        <speed>7.04369312918392</speed>
      </trkpt>
      <trkpt lat="43.92758" lon="5.02442">
        <ele>58</ele>
        <time>2012-01-06T18:38:10Z</time>
        <course>248.43532375184</course>
        <speed>8.31929150234312</speed>
      </trkpt>
      <trkpt lat="43.92657" lon="5.02698">
        <ele>57</ele>
        <time>2012-01-06T18:38:38Z</time>
        <course>246.993579578265</course>
        <speed>7.43572626631602</speed>
      </trkpt>
      <trkpt lat="43.92618" lon="5.0279">
        <ele>57</ele>
        <time>2012-01-06T18:38:50Z</time>
        <course>239.52470582748</course>
        <speed>7.4370261457452</speed>
      </trkpt>
      <trkpt lat="43.92571" lon="5.0287">
        <ele>58</ele>
        <time>2012-01-06T18:39:01Z</time>
        <course>330.414850593727</course>
        <speed>8.32061622811085</speed>
      </trkpt>
      <trkpt lat="43.92622" lon="5.02899">
        <ele>57</ele>
        <time>2012-01-06T18:39:08Z</time>
        <course>321.211657008195</course>
        <speed>8.31922755660411</speed>
      </trkpt>
      <trkpt lat="43.92745" lon="5.02998">
        <ele>56</ele>
        <time>2012-01-06T18:39:27Z</time>
        <course>326.806287480714</course>
        <speed>8.31879541440505</speed>
      </trkpt>
      <trkpt lat="43.92832" lon="5.03055">
        <ele>55</ele>
        <time>2012-01-06T18:39:40Z</time>
        <course>334.355081476099</course>
        <speed>8.31947786932285</speed>
      </trkpt>
      <trkpt lat="43.92884" lon="5.0308">
        <ele>54</ele>
        <time>2012-01-06T18:39:47Z</time>
        <course>351.316337768037</course>
        <speed>8.32077437074836</speed>
      </trkpt>
      <trkpt lat="43.92969" lon="5.03093">
        <ele>54</ele>
        <time>2012-01-06T18:39:59Z</time>
        <course>8.79964610180817</course>
        <speed>7.63730718740117</speed>
      </trkpt>
      <trkpt lat="43.93169" lon="5.03062">
        <ele>55</ele>
        <time>2012-01-06T18:40:28Z</time>
        <course>10.3037362301601</course>
        <speed>8.31835119623358</speed>
      </trkpt>
      <trkpt lat="43.95275" lon="5.02679">
        <ele>52</ele>
        <time>2012-01-06T18:45:12Z</time>
        <course>11.4119961537359</course>
        <speed>8.31761998709676</speed>
      </trkpt>
      <trkpt lat="43.95587" lon="5.02616">
        <ele>50</ele>
        <time>2012-01-06T18:45:54Z</time>
        <course>3.77698660288049</course>
        <speed>7.11219655463598</speed>
      </trkpt>
      <trkpt lat="43.95693" lon="5.02609">
        <ele>51</ele>
        <time>2012-01-06T18:46:10Z</time>
        <course>357.27450739194</course>
        <speed>8.31661830753779</speed>
      </trkpt>
      <trkpt lat="43.95777" lon="5.02613">
        <ele>51</ele>
        <time>2012-01-06T18:46:22Z</time>
        <course>348.40443544869</course>
        <speed>8.3191109408871</speed>
      </trkpt>
      <trkpt lat="43.96006" lon="5.0266">
        <ele>51</ele>
        <time>2012-01-06T18:46:52Z</time>
        <course>360</course>
        <speed>8.31667359671125</speed>
      </trkpt>
      <trkpt lat="43.96078" lon="5.0266">
        <ele>50</ele>
        <time>2012-01-06T18:47:02Z</time>
        <course>10.2326395918521</course>
        <speed>8.31745044305469</speed>
      </trkpt>
      <trkpt lat="43.9615" lon="5.02647">
        <ele>50</ele>
        <time>2012-01-06T18:47:12Z</time>
        <course>18.8824384759149</course>
        <speed>8.314915228725</speed>
      </trkpt>
      <trkpt lat="43.96188" lon="5.02634">
        <ele>50</ele>
        <time>2012-01-06T18:47:17Z</time>
        <course>24.7477406708808</course>
        <speed>8.31648508494684</speed>
      </trkpt>
      <trkpt lat="43.96342" lon="5.02563">
        <ele>50</ele>
        <time>2012-01-06T18:47:39Z</time>
        <course>27.7550838171186</course>
        <speed>8.31947959905884</speed>
      </trkpt>
      <trkpt lat="43.96494" lon="5.02483">
        <ele>47</ele>
        <time>2012-01-06T18:48:00Z</time>
        <course>36.6524890670695</course>
        <speed>7.02583548907213</speed>
      </trkpt>
      <trkpt lat="43.9658" lon="5.02419">
        <ele>48</ele>
        <time>2012-01-06T18:48:16Z</time>
        <course>43.2115188641022</course>
        <speed>7.84780752680908</speed>
      </trkpt>
      <trkpt lat="43.96828" lon="5.02186">
        <ele>49</ele>
        <time>2012-01-06T18:48:58Z</time>
        <course>38.0862268806255</course>
        <speed>8.32538261481543</speed>
      </trkpt>
      <trkpt lat="43.96865" lon="5.02157">
        <ele>48</ele>
        <time>2012-01-06T18:49:04Z</time>
        <course>33.6878012522688</course>
        <speed>8.31515059494511</speed>
      </trkpt>
      <trkpt lat="43.9691" lon="5.02127">
        <ele>48</ele>
        <time>2012-01-06T18:49:11Z</time>
        <course>28.4949122737388</course>
        <speed>8.31907417101252</speed>
      </trkpt>
      <trkpt lat="43.9733" lon="5.01899">
        <ele>48</ele>
        <time>2012-01-06T18:50:11Z</time>
        <course>21.2498850944354</course>
        <speed>8.32137514451647</speed>
      </trkpt>
      <trkpt lat="43.9742" lon="5.01864">
        <ele>48</ele>
        <time>2012-01-06T18:50:23Z</time>
        <course>16.9358808800136</course>
        <speed>8.31756510384069</speed>
      </trkpt>
      <trkpt lat="43.97686" lon="5.01783">
        <ele>48</ele>
        <time>2012-01-06T18:51:00Z</time>
        <course>9.90407217224792</course>
        <speed>8.32028702566705</speed>
      </trkpt>
      <trkpt lat="43.97749" lon="5.01772">
        <ele>47</ele>
        <time>2012-01-06T18:51:08Z</time>
        <course>2.52610271461035</course>
        <speed>8.31679529473618</speed>
      </trkpt>
      <trkpt lat="43.97885" lon="5.01766">
        <ele>46</ele>
        <time>2012-01-06T18:51:26Z</time>
        <course>359.644130616126</course>
        <speed>6.23145199927655</speed>
      </trkpt>
      <trkpt lat="43.98046" lon="5.01767">
        <ele>49</ele>
        <time>2012-01-06T18:51:55Z</time>
        <course>21.5409566064588</course>
        <speed>8.31362619723994</speed>
      </trkpt>
      <trkpt lat="43.98084" lon="5.01752">
        <ele>48</ele>
        <time>2012-01-06T18:52:00Z</time>
        <course>39.0355015211241</course>
        <speed>8.32174783076975</speed>
      </trkpt>
      <trkpt lat="43.98121" lon="5.01722">
        <ele>48</ele>
        <time>2012-01-06T18:52:06Z</time>
        <course>360</course>
        <speed>8.31321695750693</speed>
      </trkpt>
      <trkpt lat="43.98151" lon="5.01722">
        <ele>48</ele>
        <time>2012-01-06T18:52:10Z</time>
        <course>47.2906052577918</course>
        <speed>6.55316574841489</speed>
      </trkpt>
      <trkpt lat="43.98163" lon="5.01709">
        <ele>48</ele>
        <time>2012-01-06T18:52:13Z</time>
        <course>68.1985882488952</course>
        <speed>6.53439388302754</speed>
      </trkpt>
      <trkpt lat="43.98167" lon="5.01699">
        <ele>48</ele>
        <time>2012-01-06T18:52:14Z</time>
        <course>95.1944319247406</course>
        <speed>6.56686464652281</speed>
      </trkpt>
      <trkpt lat="43.98166" lon="5.01688">
        <ele>48</ele>
        <time>2012-01-06T18:52:15Z</time>
        <course>42.7093899896822</course>
        <speed>6.55644169649011</speed>
      </trkpt>
      <trkpt lat="43.98192" lon="5.01664">
        <ele>48</ele>
        <time>2012-01-06T18:52:21Z</time>
        <course>30.9637578457532</course>
        <speed>6.55599636343929</speed>
      </trkpt>
      <trkpt lat="43.98257" lon="5.01625">
        <ele>50</ele>
        <time>2012-01-06T18:52:33Z</time>
        <course>60.2551170701096</course>
        <speed>8.31067137952168</speed>
      </trkpt>
      <trkpt lat="43.98261" lon="5.01618">
        <ele>49</ele>
        <time>2012-01-06T18:52:34Z</time>
        <course>35.1806684715994</course>
        <speed>8.32008919758596</speed>
      </trkpt>
      <trkpt lat="43.98383" lon="5.01532">
        <ele>49</ele>
        <time>2012-01-06T18:52:52Z</time>
        <course>34.7016970700941</course>
        <speed>8.31827004000871</speed>
      </trkpt>
      <trkpt lat="43.98809" lon="5.01237">
        <ele>44</ele>
        <time>2012-01-06T18:53:55Z</time>
        <course>30.9632343709193</course>
        <speed>7.31510992576419</speed>
      </trkpt>
      <trkpt lat="43.98864" lon="5.01204">
        <ele>44</ele>
        <time>2012-01-06T18:54:04Z</time>
        <course>24.5068635639933</course>
        <speed>7.31575788002913</speed>
      </trkpt>
      <trkpt lat="43.98932" lon="5.01173">
        <ele>45</ele>
        <time>2012-01-06T18:54:15Z</time>
        <course>16.6988081854372</course>
        <speed>7.07178265243786</speed>
      </trkpt>
      <trkpt lat="43.98972" lon="5.01161">
        <ele>45</ele>
        <time>2012-01-06T18:54:22Z</time>
        <course>7.47132100645305</course>
        <speed>7.07736663123895</speed>
      </trkpt>
      <trkpt lat="43.99033" lon="5.01153">
        <ele>46</ele>
        <time>2012-01-06T18:54:31Z</time>
        <course>2.27355257844973</course>
        <speed>8.31874341277108</speed>
      </trkpt>
      <trkpt lat="43.99713" lon="5.01126">
        <ele>46</ele>
        <time>2012-01-06T18:56:02Z</time>
        <course>330.948109246389</course>
        <speed>8.3487597753496</speed>
      </trkpt>
      <trkpt lat="43.99722" lon="5.01131">
        <ele>46</ele>
        <time>2012-01-06T18:56:04Z</time>
        <course>5.47670201920835</course>
        <speed>8.32245269440093</speed>
      </trkpt>
      <trkpt lat="43.99795" lon="5.01124">
        <ele>46</ele>
        <time>2012-01-06T18:56:13Z</time>
        <course>359.464615778142</course>
        <speed>8.32057991440237</speed>
      </trkpt>
      <trkpt lat="43.99902" lon="5.01125">
        <ele>46</ele>
        <time>2012-01-06T18:56:28Z</time>
        <course>351.194525033574</course>
        <speed>8.32113780614415</speed>
      </trkpt>
      <trkpt lat="43.99973" lon="5.01136">
        <ele>46</ele>
        <time>2012-01-06T18:56:37Z</time>
        <course>342.899872569536</course>
        <speed>8.32360597774674</speed>
      </trkpt>
      <trkpt lat="44.00025" lon="5.01152">
        <ele>46</ele>
        <time>2012-01-06T18:56:44Z</time>
        <course>327.99894456824</course>
        <speed>7.15353500288099</speed>
      </trkpt>
      <trkpt lat="44.00057" lon="5.01172">
        <ele>46</ele>
        <time>2012-01-06T18:56:50Z</time>
        <course>279.092038042256</course>
        <speed>7.14534444232223</speed>
      </trkpt>
      <trkpt lat="44.00065" lon="5.01222">
        <ele>46</ele>
        <time>2012-01-06T18:56:55Z</time>
        <course>264.507031630086</course>
        <speed>7.1438562379812</speed>
      </trkpt>
      <trkpt lat="44.0006" lon="5.01274">
        <ele>47</ele>
        <time>2012-01-06T18:57:01Z</time>
        <course>275.043471167158</course>
        <speed>7.14899279043752</speed>
      </trkpt>
      <trkpt lat="44.00063" lon="5.01308">
        <ele>47</ele>
        <time>2012-01-06T18:57:05Z</time>
        <course>281.507317008042</course>
        <speed>7.14379280098236</speed>
      </trkpt>
      <trkpt lat="44.00086" lon="5.01421">
        <ele>48</ele>
        <time>2012-01-06T18:57:18Z</time>
        <course>270.000090398509</course>
        <speed>7.30560193447301</speed>
      </trkpt>
      <trkpt lat="44.00086" lon="5.01438">
        <ele>48</ele>
        <time>2012-01-06T18:57:20Z</time>
        <course>289.009556431734</course>
        <speed>7.2907339203011</speed>
      </trkpt>
      <trkpt lat="44.00117" lon="5.01528">
        <ele>48</ele>
        <time>2012-01-06T18:57:31Z</time>
        <course>295.205382471505</course>
        <speed>7.29244326578187</speed>
      </trkpt>
      <trkpt lat="44.00141" lon="5.01579">
        <ele>49</ele>
        <time>2012-01-06T18:57:38Z</time>
        <course>302.010368860215</course>
        <speed>7.35333137091503</speed>
      </trkpt>
      <trkpt lat="44.00166" lon="5.01619">
        <ele>49</ele>
        <time>2012-01-06T18:57:44Z</time>
        <course>311.145289931122</course>
        <speed>7.35195602526371</speed>
      </trkpt>
      <trkpt lat="44.00242" lon="5.01706">
        <ele>50</ele>
        <time>2012-01-06T18:57:58Z</time>
        <course>318.595174866141</course>
        <speed>7.60203224818298</speed>
      </trkpt>
      <trkpt lat="44.00403" lon="5.01848">
        <ele>51</ele>
        <time>2012-01-06T18:58:26Z</time>
        <course>335.561199498287</course>
        <speed>7.39076092177547</speed>
      </trkpt>
      <trkpt lat="44.00414" lon="5.01853">
        <ele>51</ele>
        <time>2012-01-06T18:58:28Z</time>
        <course>316.89010680927</course>
        <speed>7.39810459079557</speed>
      </trkpt>
      <trkpt lat="44.00524" lon="5.01956">
        <ele>52</ele>
        <time>2012-01-06T18:58:48Z</time>
        <course>313.789365198364</course>
        <speed>6.9317474951811</speed>
      </trkpt>
      <trkpt lat="44.00593" lon="5.02028">
        <ele>52</ele>
        <time>2012-01-06T18:59:02Z</time>
        <course>306.371349394427</course>
        <speed>6.93406633355098</speed>
      </trkpt>
      <trkpt lat="44.0066" lon="5.02119">
        <ele>54</ele>
        <time>2012-01-06T18:59:17Z</time>
        <course>300.038260809631</course>
        <speed>7.47830589505758</speed>
      </trkpt>
      <trkpt lat="44.0076" lon="5.02292">
        <ele>55</ele>
        <time>2012-01-06T18:59:41Z</time>
        <course>305.001219485456</course>
        <speed>6.50927620394752</speed>
      </trkpt>
      <trkpt lat="44.00802" lon="5.02352">
        <ele>55</ele>
        <time>2012-01-06T18:59:51Z</time>
        <course>284.04082957815</course>
        <speed>6.50865942575015</speed>
      </trkpt>
      <trkpt lat="44.00806" lon="5.02368">
        <ele>56</ele>
        <time>2012-01-06T18:59:53Z</time>
        <course>309.598012835472</course>
        <speed>6.50839074014089</speed>
      </trkpt>
      <trkpt lat="44.00849" lon="5.0242">
        <ele>57</ele>
        <time>2012-01-06T19:00:03Z</time>
        <course>310.924434698367</course>
        <speed>7.01761632319975</speed>
      </trkpt>
      <trkpt lat="44.00875" lon="5.0245">
        <ele>57</ele>
        <time>2012-01-06T19:00:08Z</time>
        <course>317.844653579034</course>
        <speed>7.02156388345263</speed>
      </trkpt>
      <trkpt lat="44.00928" lon="5.02498">
        <ele>58</ele>
        <time>2012-01-06T19:00:18Z</time>
        <course>327.355882894571</course>
        <speed>8.31948662272327</speed>
      </trkpt>
      <trkpt lat="44.01109" lon="5.02614">
        <ele>58</ele>
        <time>2012-01-06T19:00:45Z</time>
        <course>322.023858830629</course>
        <speed>7.46499528623034</speed>
      </trkpt>
      <trkpt lat="44.01383" lon="5.02828">
        <ele>60</ele>
        <time>2012-01-06T19:01:31Z</time>
        <course>317.163966455479</course>
        <speed>6.54885808590378</speed>
      </trkpt>
      <trkpt lat="44.01549" lon="5.02982">
        <ele>63</ele>
        <time>2012-01-06T19:02:05Z</time>
        <course>323.444273194191</course>
        <speed>7.66566166590155</speed>
      </trkpt>
      <trkpt lat="44.01735" lon="5.0312">
        <ele>64</ele>
        <time>2012-01-06T19:02:36Z</time>
        <course>316.927614763505</course>
        <speed>6.8396394979995</speed>
      </trkpt>
      <trkpt lat="44.01797" lon="5.03178">
        <ele>64</ele>
        <time>2012-01-06T19:02:48Z</time>
        <course>312.365140227595</course>
        <speed>6.83975153847601</speed>
      </trkpt>
      <trkpt lat="44.01869" lon="5.03257">
        <ele>66</ele>
        <time>2012-01-06T19:03:03Z</time>
        <course>306.014364754803</course>
        <speed>7.65049932745571</speed>
      </trkpt>
      <trkpt lat="44.02015" lon="5.03458">
        <ele>67</ele>
        <time>2012-01-06T19:03:33Z</time>
        <course>314.016367416288</course>
        <speed>7.02801753117904</speed>
      </trkpt>
      <trkpt lat="44.02071" lon="5.03516">
        <ele>67</ele>
        <time>2012-01-06T19:03:44Z</time>
        <course>324.266488911128</course>
        <speed>7.02977965923361</speed>
      </trkpt>
      <trkpt lat="44.02096" lon="5.03534">
        <ele>68</ele>
        <time>2012-01-06T19:03:48Z</time>
        <course>331.42978555806</course>
        <speed>7.67513503902779</speed>
      </trkpt>
      <trkpt lat="44.02296" lon="5.03643">
        <ele>69</ele>
        <time>2012-01-06T19:04:19Z</time>
        <course>339.369209555705</course>
        <speed>7.16943729617688</speed>
      </trkpt>
      <trkpt lat="44.02365" lon="5.03669">
        <ele>69</ele>
        <time>2012-01-06T19:04:30Z</time>
        <course>350.302102756014</course>
        <speed>7.17130843272052</speed>
      </trkpt>
      <trkpt lat="44.02517" lon="5.03695">
        <ele>71</ele>
        <time>2012-01-06T19:04:54Z</time>
        <course>353.406438988494</course>
        <speed>8.31810650921716</speed>
      </trkpt>
      <trkpt lat="44.02638" lon="5.03709">
        <ele>71</ele>
        <time>2012-01-06T19:05:10Z</time>
        <course>349.390877323248</course>
        <speed>7.01696558770401</speed>
      </trkpt>
      <trkpt lat="44.02734" lon="5.03727">
        <ele>72</ele>
        <time>2012-01-06T19:05:26Z</time>
        <course>345.978163356232</course>
        <speed>8.3205224582103</speed>
      </trkpt>
      <trkpt lat="44.0285" lon="5.03756">
        <ele>72</ele>
        <time>2012-01-06T19:05:41Z</time>
        <course>344.97297772125</course>
        <speed>7.30073106960961</speed>
      </trkpt>
      <trkpt lat="44.03103" lon="5.03824">
        <ele>74</ele>
        <time>2012-01-06T19:06:21Z</time>
        <course>338.774324219865</course>
        <speed>8.31745063084753</speed>
      </trkpt>
      <trkpt lat="44.03283" lon="5.03894">
        <ele>74</ele>
        <time>2012-01-06T19:06:46Z</time>
        <course>326.344143818912</course>
        <speed>7.51027363721958</speed>
      </trkpt>
      <trkpt lat="44.0331" lon="5.03912">
        <ele>74</ele>
        <time>2012-01-06T19:06:50Z</time>
        <course>300.289079950681</course>
        <speed>7.50474124894928</speed>
      </trkpt>
      <trkpt lat="44.03324" lon="5.03936">
        <ele>74</ele>
        <time>2012-01-06T19:06:53Z</time>
        <course>271.366311664</course>
        <speed>7.51039250925708</speed>
      </trkpt>
      <trkpt lat="44.03325" lon="5.03978">
        <ele>74</ele>
        <time>2012-01-06T19:06:58Z</time>
        <course>254.378498679117</course>
        <speed>7.51436551235393</speed>
      </trkpt>
      <trkpt lat="44.03294" lon="5.04089">
        <ele>75</ele>
        <time>2012-01-06T19:07:10Z</time>
        <course>269.03762654836</course>
        <speed>7.50540488596837</speed>
      </trkpt>
      <trkpt lat="44.03292" lon="5.04208">
        <ele>75</ele>
        <time>2012-01-06T19:07:23Z</time>
        <course>264.800551313376</course>
        <speed>7.50020140213525</speed>
      </trkpt>
      <trkpt lat="44.03282" lon="5.04318">
        <ele>76</ele>
        <time>2012-01-06T19:07:35Z</time>
        <course>251.125112790702</course>
        <speed>7.22332857774137</speed>
      </trkpt>
      <trkpt lat="44.03268" lon="5.04359">
        <ele>76</ele>
        <time>2012-01-06T19:07:40Z</time>
        <course>241.742567050115</course>
        <speed>7.2194230925805</speed>
      </trkpt>
      <trkpt lat="44.03217" lon="5.04454">
        <ele>77</ele>
        <time>2012-01-06T19:07:53Z</time>
        <course>251.544173033394</course>
        <speed>7.37547519838976</speed>
      </trkpt>
      <trkpt lat="44.03206" lon="5.04487">
        <ele>77</ele>
        <time>2012-01-06T19:07:57Z</time>
        <course>261.189810520843</course>
        <speed>7.37303461203497</speed>
      </trkpt>
      <trkpt lat="44.03182" lon="5.04642">
        <ele>78</ele>
        <time>2012-01-06T19:08:14Z</time>
        <course>268.007095488924</course>
        <speed>6.85403634909517</speed>
      </trkpt>
      <trkpt lat="44.03178" lon="5.04757">
        <ele>78</ele>
        <time>2012-01-06T19:08:28Z</time>
        <course>265.634783533511</course>
        <speed>6.85462836240215</speed>
      </trkpt>
      <trkpt lat="44.03169" lon="5.04875">
        <ele>80</ele>
        <time>2012-01-06T19:08:41Z</time>
        <course>271.272145307875</course>
        <speed>6.81137032591119</speed>
      </trkpt>
      <trkpt lat="44.03174" lon="5.05101">
        <ele>82</ele>
        <time>2012-01-06T19:09:08Z</time>
        <course>278.307849425484</course>
        <speed>8.32515777493678</speed>
      </trkpt>
      <trkpt lat="44.03181" lon="5.05149">
        <ele>82</ele>
        <time>2012-01-06T19:09:13Z</time>
        <course>267.61147262674</course>
        <speed>8.31420572181797</speed>
      </trkpt>
      <trkpt lat="44.0318" lon="5.05173">
        <ele>82</ele>
        <time>2012-01-06T19:09:15Z</time>
        <course>303.722712248724</course>
        <speed>8.32745057232619</speed>
      </trkpt>
      <trkpt lat="44.03188" lon="5.05185">
        <ele>82</ele>
        <time>2012-01-06T19:09:16Z</time>
        <course>336.063754114824</course>
        <speed>8.3324967109735</speed>
      </trkpt>
      <trkpt lat="44.03197" lon="5.05189">
        <ele>82</ele>
        <time>2012-01-06T19:09:18Z</time>
        <course>32.3150231152013</course>
        <speed>8.32480036238187</speed>
      </trkpt>
      <trkpt lat="44.03227" lon="5.0517">
        <ele>82</ele>
        <time>2012-01-06T19:09:22Z</time>
        <course>357.800177469961</course>
        <speed>8.32917674794197</speed>
      </trkpt>
      <trkpt lat="44.03253" lon="5.05171">
        <ele>82</ele>
        <time>2012-01-06T19:09:26Z</time>
        <course>9.02806879861872</course>
        <speed>8.31276559935784</speed>
      </trkpt>
      <trkpt lat="44.03297" lon="5.05164">
        <ele>81</ele>
        <time>2012-01-06T19:09:32Z</time>
        <course>14.4819142880633</course>
        <speed>8.31905671536153</speed>
      </trkpt>
      <trkpt lat="44.03355" lon="5.05149">
        <ele>81</ele>
        <time>2012-01-06T19:09:39Z</time>
        <course>25.9122117849813</course>
        <speed>8.31231529177264</speed>
      </trkpt>
      <trkpt lat="44.03392" lon="5.05131">
        <ele>81</ele>
        <time>2012-01-06T19:09:45Z</time>
        <course>3.3619567354394</course>
        <speed>8.32920023983771</speed>
      </trkpt>
      <trkpt lat="44.03409" lon="5.0513">
        <ele>81</ele>
        <time>2012-01-06T19:09:47Z</time>
        <course>324.498924373201</course>
        <speed>8.32766281798415</speed>
      </trkpt>
      <trkpt lat="44.03423" lon="5.0514">
        <ele>81</ele>
        <time>2012-01-06T19:09:49Z</time>
        <course>33.6538454421335</course>
        <speed>8.31570062854904</speed>
      </trkpt>
      <trkpt lat="44.03456" lon="5.05118">
        <ele>81</ele>
        <time>2012-01-06T19:09:54Z</time>
        <course>5.51986008023566</course>
        <speed>8.32059459354734</speed>
      </trkpt>
      <trkpt lat="44.03518" lon="5.05112">
        <ele>80</ele>
        <time>2012-01-06T19:10:02Z</time>
        <course>14.9480802093797</course>
        <speed>8.31754789765258</speed>
      </trkpt>
      <trkpt lat="44.03705" lon="5.05062">
        <ele>80</ele>
        <time>2012-01-06T19:10:28Z</time>
        <course>26.2062936840695</course>
        <speed>7.77906789074368</speed>
      </trkpt>
      <trkpt lat="44.03776" lon="5.05027">
        <ele>80</ele>
        <time>2012-01-06T19:10:38Z</time>
        <course>16.8501257936819</course>
        <speed>7.77727926880165</speed>
      </trkpt>
      <trkpt lat="44.03954" lon="5.04973">
        <ele>81</ele>
        <time>2012-01-06T19:11:04Z</time>
        <course>26.5268198580473</course>
        <speed>8.31802467481129</speed>
      </trkpt>
      <trkpt lat="44.04" lon="5.0495">
        <ele>81</ele>
        <time>2012-01-06T19:11:11Z</time>
        <course>8.11655473997078</course>
        <speed>8.31841222025621</speed>
      </trkpt>
      <trkpt lat="44.04042" lon="5.04944">
        <ele>81</ele>
        <time>2012-01-06T19:11:17Z</time>
        <course>17.1164250344152</course>
        <speed>6.50003335923957</speed>
      </trkpt>
      <trkpt lat="44.0423" lon="5.04886">
        <ele>84</ele>
        <time>2012-01-06T19:11:50Z</time>
        <course>13.5293619449545</course>
        <speed>8.3207615571011</speed>
      </trkpt>
      <trkpt lat="44.04342" lon="5.04859">
        <ele>84</ele>
        <time>2012-01-06T19:12:05Z</time>
        <course>5.05396488475995</course>
        <speed>6.83470677107984</speed>
      </trkpt>
      <trkpt lat="44.04421" lon="5.04852">
        <ele>84</ele>
        <time>2012-01-06T19:12:18Z</time>
        <course>358.670402956893</course>
        <speed>6.83177632660894</speed>
      </trkpt>
      <trkpt lat="44.04507" lon="5.04854">
        <ele>86</ele>
        <time>2012-01-06T19:12:32Z</time>
        <course>8.97315064211006</course>
        <speed>7.58770149872088</speed>
      </trkpt>
      <trkpt lat="44.05063" lon="5.04766">
        <ele>89</ele>
        <time>2012-01-06T19:13:54Z</time>
        <course>4.30567908611663</course>
        <speed>7.11461732809857</speed>
      </trkpt>
      <trkpt lat="44.05169" lon="5.04758">
        <ele>90</ele>
        <time>2012-01-06T19:14:10Z</time>
        <course>305.820714082193</course>
        <speed>7.1366711339597</speed>
      </trkpt>
      <trkpt lat="44.05205" lon="5.04808">
        <ele>90</ele>
        <time>2012-01-06T19:14:18Z</time>
        <course>293.436940020984</course>
        <speed>7.13987618957851</speed>
      </trkpt>
      <trkpt lat="44.05221" lon="5.04845">
        <ele>90</ele>
        <time>2012-01-06T19:14:23Z</time>
        <course>313.52519490134</course>
        <speed>7.13912433145735</speed>
      </trkpt>
      <trkpt lat="44.05329" lon="5.04959">
        <ele>92</ele>
        <time>2012-01-06T19:14:44Z</time>
        <course>84.2740552074743</course>
        <speed>8.31242686190364</speed>
      </trkpt>
      <trkpt lat="44.05334" lon="5.04909">
        <ele>92</ele>
        <time>2012-01-06T19:14:49Z</time>
        <course>62.3866617135728</course>
        <speed>8.31421620276247</speed>
      </trkpt>
      <trkpt lat="44.05358" lon="5.04863">
        <ele>92</ele>
        <time>2012-01-06T19:14:54Z</time>
        <course>95.5854507409346</course>
        <speed>8.32323849506756</speed>
      </trkpt>
      <trkpt lat="44.05354" lon="5.04822">
        <ele>92</ele>
        <time>2012-01-06T19:14:58Z</time>
        <course>95.5854507409346</course>
        <speed>8.32323849506756</speed>
      </trkpt>
      <trkpt lat="44.05354" lon="5.04822">
        <ele>92</ele>
        <time>2012-01-06T19:14:59Z</time>
        <course>96.8589761117768</course>
        <speed>8.31278083649716</speed>
      </trkpt>
      <trkpt lat="44.05348" lon="5.04772">
        <ele>91</ele>
        <time>2012-01-06T19:15:04Z</time>
        <course>87.9482603577245</course>
        <speed>8.32292047043835</speed>
      </trkpt>
      <trkpt lat="44.0535" lon="5.04716">
        <ele>90</ele>
        <time>2012-01-06T19:15:09Z</time>
        <course>195.671497119369</course>
        <speed>8.32053789413836</speed>
      </trkpt>
      <trkpt lat="44.05286" lon="5.04734">
        <ele>90</ele>
        <time>2012-01-06T19:15:18Z</time>
        <course>174.396069287885</course>
        <speed>8.31730202755337</speed>
      </trkpt>
      <trkpt lat="44.05225" lon="5.04728">
        <ele>90</ele>
        <time>2012-01-06T19:15:26Z</time>
        <course>249.397966166352</course>
        <speed>8.28322994967002</speed>
      </trkpt>
      <trkpt lat="44.05222" lon="5.04736">
        <ele>90</ele>
        <time>2012-01-06T19:15:27Z</time>
        <course>248.702506522932</course>
        <speed>8.33918163264812</speed>
      </trkpt>
      <trkpt lat="44.05215" lon="5.04754">
        <ele>90</ele>
        <time>2012-01-06T19:15:29Z</time>
        <course>259.484561374103</course>
        <speed>8.32420527139705</speed>
      </trkpt>
      <trkpt lat="44.05205" lon="5.04808">
        <ele>90</ele>
        <time>2012-01-06T19:15:35Z</time>
        <course>293.436940020984</course>
        <speed>6.59380535289946</speed>
      </trkpt>
      <trkpt lat="44.05221" lon="5.04845">
        <ele>90</ele>
        <time>2012-01-06T19:15:40Z</time>
        <course>312.890971525595</course>
        <speed>6.59723213850333</speed>
      </trkpt>
      <trkpt lat="44.05523" lon="5.05171">
        <ele>96</ele>
        <time>2012-01-06T19:16:44Z</time>
        <course>17.9888780724665</course>
        <speed>8.31731602609734</speed>
      </trkpt>
      <trkpt lat="44.05566" lon="5.05157">
        <ele>96</ele>
        <time>2012-01-06T19:16:50Z</time>
        <course>17.8092970189158</course>
        <speed>8.31855091118635</speed>
      </trkpt>
      <trkpt lat="44.05715" lon="5.05109">
        <ele>96</ele>
        <time>2012-01-06T19:17:11Z</time>
        <course>37.1567983844904</course>
        <speed>8.30797373229794</speed>
      </trkpt>
      <trkpt lat="44.0574" lon="5.0509">
        <ele>94</ele>
        <time>2012-01-06T19:17:14Z</time>
        <course>44.9167671601052</course>
        <speed>8.31735057678371</speed>
      </trkpt>
      <trkpt lat="44.05813" lon="5.05017">
        <ele>91</ele>
        <time>2012-01-06T19:17:26Z</time>
        <course>78.6575243331924</course>
        <speed>8.31270048261038</speed>
      </trkpt>
      <trkpt lat="44.0582" lon="5.04982">
        <ele>90</ele>
        <time>2012-01-06T19:17:30Z</time>
        <course>105.988761562155</course>
        <speed>8.29712029056752</speed>
      </trkpt>
      <trkpt lat="44.05816" lon="5.04968">
        <ele>89</ele>
        <time>2012-01-06T19:17:31Z</time>
        <course>121.247116652533</course>
        <speed>8.31919214939436</speed>
      </trkpt>
      <trkpt lat="44.05698" lon="5.04773">
        <ele>85</ele>
        <time>2012-01-06T19:17:56Z</time>
        <course>113.687765828703</course>
        <speed>6.98993204789297</speed>
      </trkpt>
      <trkpt lat="44.05691" lon="5.04757">
        <ele>85</ele>
        <time>2012-01-06T19:17:58Z</time>
        <course>68.14336746052</course>
        <speed>7.03022037525303</speed>
      </trkpt>
      <trkpt lat="44.05693" lon="5.04752">
        <ele>85</ele>
        <time>2012-01-06T19:17:59Z</time>
        <course>318.008748523626</course>
        <speed>6.9918648854694</speed>
      </trkpt>
      <trkpt lat="44.05837" lon="5.04882">
        <ele>87</ele>
        <time>2012-01-06T19:18:26Z</time>
        <course>333.50166266011</course>
        <speed>8.31517754669849</speed>
      </trkpt>
      <trkpt lat="44.05857" lon="5.04892">
        <ele>87</ele>
        <time>2012-01-06T19:18:29Z</time>
        <course>4.3075428012595</course>
        <speed>8.31854674949673</speed>
      </trkpt>
      <trkpt lat="44.06082" lon="5.04875">
        <ele>87</ele>
        <time>2012-01-06T19:18:59Z</time>
        <course>360</course>
        <speed>6.45725295213014</speed>
      </trkpt>
      <trkpt lat="44.06269" lon="5.04875">
        <ele>90</ele>
        <time>2012-01-06T19:19:31Z</time>
        <course>351.896309285181</course>
        <speed>4.30275317404481</speed>
      </trkpt>
      <trkpt lat="44.06346" lon="5.04886">
        <ele>94</ele>
        <time>2012-01-06T19:19:51Z</time>
        <course>341.776497339323</course>
        <speed>4.30248490065381</speed>
      </trkpt>
      <trkpt lat="44.06458" lon="5.04923">
        <ele>100</ele>
        <time>2012-01-06T19:20:21Z</time>
        <course>328.82303579172</course>
        <speed>8.31999996120359</speed>
      </trkpt>
      <trkpt lat="44.06486" lon="5.0494">
        <ele>100</ele>
        <time>2012-01-06T19:20:25Z</time>
        <course>320.29205595633</course>
        <speed>8.32244482190925</speed>
      </trkpt>
      <trkpt lat="44.06534" lon="5.0498">
        <ele>100</ele>
        <time>2012-01-06T19:20:32Z</time>
        <course>316.650838444719</course>
        <speed>8.31929343288924</speed>
      </trkpt>
      <trkpt lat="44.06648" lon="5.05088">
        <ele>100</ele>
        <time>2012-01-06T19:20:51Z</time>
        <course>312.851427247671</course>
        <speed>6.16789557872584</speed>
      </trkpt>
      <trkpt lat="44.0677" lon="5.0522">
        <ele>103</ele>
        <time>2012-01-06T19:21:18Z</time>
        <course>292.694570304338</course>
        <speed>8.32738147801684</speed>
      </trkpt>
      <trkpt lat="44.06775" lon="5.05232">
        <ele>103</ele>
        <time>2012-01-06T19:21:20Z</time>
        <course>313.557108841711</course>
        <speed>8.31244492520569</speed>
      </trkpt>
      <trkpt lat="44.06793" lon="5.05251">
        <ele>103</ele>
        <time>2012-01-06T19:21:23Z</time>
        <course>251.502182516769</course>
        <speed>8.3163700434086</speed>
      </trkpt>
      <trkpt lat="44.06789" lon="5.05263">
        <ele>103</ele>
        <time>2012-01-06T19:21:24Z</time>
        <course>270.000440831092</course>
        <speed>8.30721009648513</speed>
      </trkpt>
      <trkpt lat="44.06789" lon="5.05281">
        <ele>103</ele>
        <time>2012-01-06T19:21:26Z</time>
        <course>291.874384542026</course>
        <speed>8.30726379366366</speed>
      </trkpt>
      <trkpt lat="44.06795" lon="5.05296">
        <ele>103</ele>
        <time>2012-01-06T19:21:27Z</time>
        <course>317.594770795248</course>
        <speed>8.31605297847394</speed>
      </trkpt>
      <trkpt lat="44.06807" lon="5.05307">
        <ele>103</ele>
        <time>2012-01-06T19:21:29Z</time>
        <course>347.94854804203</course>
        <speed>8.32810248414587</speed>
      </trkpt>
      <trkpt lat="44.06821" lon="5.0531">
        <ele>103</ele>
        <time>2012-01-06T19:21:31Z</time>
        <course>33.5922576507382</course>
        <speed>8.30632022155574</speed>
      </trkpt>
      <trkpt lat="44.06827" lon="5.05306">
        <ele>103</ele>
        <time>2012-01-06T19:21:32Z</time>
        <course>329.331450152846</course>
        <speed>8.32124277494168</speed>
      </trkpt>
      <trkpt lat="44.06869" lon="5.05331">
        <ele>103</ele>
        <time>2012-01-06T19:21:38Z</time>
        <course>309.359116450126</course>
        <speed>7.5679016388548</speed>
      </trkpt>
      <trkpt lat="44.07141" lon="5.05664">
        <ele>105</ele>
        <time>2012-01-06T19:22:31Z</time>
        <course>312.806754849975</course>
        <speed>7.34452633641036</speed>
      </trkpt>
      <trkpt lat="44.07248" lon="5.0578">
        <ele>106</ele>
        <time>2012-01-06T19:22:52Z</time>
        <course>320.015974444249</course>
        <speed>7.8837706290294</speed>
      </trkpt>
      <trkpt lat="44.07305" lon="5.05828">
        <ele>106</ele>
        <time>2012-01-06T19:23:01Z</time>
        <course>331.56186874881</course>
        <speed>7.88100891388904</speed>
      </trkpt>
      <trkpt lat="44.07544" lon="5.05958">
        <ele>107</ele>
        <time>2012-01-06T19:23:38Z</time>
        <course>320.71283060019</course>
        <speed>7.21255936461767</speed>
      </trkpt>
      <trkpt lat="44.07645" lon="5.06041">
        <ele>108</ele>
        <time>2012-01-06T19:23:56Z</time>
        <course>297.719747401482</course>
        <speed>8.31429824962762</speed>
      </trkpt>
      <trkpt lat="44.07679" lon="5.06106">
        <ele>108</ele>
        <time>2012-01-06T19:24:03Z</time>
        <course>289.618463440392</course>
        <speed>8.31361788218765</speed>
      </trkpt>
      <trkpt lat="44.0769" lon="5.06137">
        <ele>108</ele>
        <time>2012-01-06T19:24:07Z</time>
        <course>283.959161100441</course>
        <speed>8.31746489491059</speed>
      </trkpt>
      <trkpt lat="44.07759" lon="5.06416">
        <ele>108</ele>
        <time>2012-01-06T19:24:35Z</time>
        <course>292.38097203723</course>
        <speed>8.31780033976718</speed>
      </trkpt>
      <trkpt lat="44.07809" lon="5.06538">
        <ele>108</ele>
        <time>2012-01-06T19:24:48Z</time>
        <course>302.52090797631</course>
        <speed>8.31642924713051</speed>
      </trkpt>
      <trkpt lat="44.07842" lon="5.0659">
        <ele>106</ele>
        <time>2012-01-06T19:24:55Z</time>
        <course>313.157929279487</course>
        <speed>8.31839871386627</speed>
      </trkpt>
      <trkpt lat="44.07856" lon="5.06605">
        <ele>106</ele>
        <time>2012-01-06T19:24:57Z</time>
        <course>320.372946970124</course>
        <speed>8.31729602790335</speed>
      </trkpt>
      <trkpt lat="44.07987" lon="5.06714">
        <ele>103</ele>
        <time>2012-01-06T19:25:18Z</time>
        <course>328.31520777446</course>
        <speed>7.39835050235125</speed>
      </trkpt>
      <trkpt lat="44.08066" lon="5.06763">
        <ele>103</ele>
        <time>2012-01-06T19:25:31Z</time>
        <course>321.477362579285</course>
        <speed>7.39968713301295</speed>
      </trkpt>
      <trkpt lat="44.08116" lon="5.06803">
        <ele>104</ele>
        <time>2012-01-06T19:25:40Z</time>
        <course>317.431935171427</course>
        <speed>6.25735831847745</speed>
      </trkpt>
      <trkpt lat="44.08155" lon="5.06839">
        <ele>104</ele>
        <time>2012-01-06T19:25:48Z</time>
        <course>310.161119500436</course>
        <speed>6.26035395012062</speed>
      </trkpt>
      <trkpt lat="44.08244" lon="5.06945">
        <ele>107</ele>
        <time>2012-01-06T19:26:09Z</time>
        <course>321.150450543583</course>
        <speed>8.30580174403552</speed>
      </trkpt>
      <trkpt lat="44.08265" lon="5.06962">
        <ele>107</ele>
        <time>2012-01-06T19:26:12Z</time>
        <course>328.7800907526</course>
        <speed>8.31776783733363</speed>
      </trkpt>
      <trkpt lat="44.08416" lon="5.07054">
        <ele>107</ele>
        <time>2012-01-06T19:26:34Z</time>
        <course>333.290241341297</course>
        <speed>8.31909351987959</speed>
      </trkpt>
      <trkpt lat="44.08586" lon="5.0714">
        <ele>105</ele>
        <time>2012-01-06T19:26:58Z</time>
        <course>317.275733617965</course>
        <speed>5.6409449432801</speed>
      </trkpt>
      <trkpt lat="44.08614" lon="5.07166">
        <ele>105</ele>
        <time>2012-01-06T19:27:05Z</time>
        <course>311.343797009924</course>
        <speed>5.64150543581586</speed>
      </trkpt>
      <trkpt lat="44.08705" lon="5.0727">
        <ele>109</ele>
        <time>2012-01-06T19:27:28Z</time>
        <course>319.555674541669</course>
        <speed>6.12225406125142</speed>
      </trkpt>
      <trkpt lat="44.0874" lon="5.073">
        <ele>109</ele>
        <time>2012-01-06T19:27:35Z</time>
        <course>339.878960600043</course>
        <speed>6.12323421873392</speed>
      </trkpt>
      <trkpt lat="44.08797" lon="5.07321">
        <ele>111</ele>
        <time>2012-01-06T19:27:46Z</time>
        <course>348.280889309241</course>
        <speed>8.31636960580199</speed>
      </trkpt>
      <trkpt lat="44.08936" lon="5.0735">
        <ele>111</ele>
        <time>2012-01-06T19:28:05Z</time>
        <course>351.916988046626</course>
        <speed>7.33294860041091</speed>
      </trkpt>
      <trkpt lat="44.09069" lon="5.07369">
        <ele>112</ele>
        <time>2012-01-06T19:28:25Z</time>
        <course>338.953421725759</course>
        <speed>7.46425570540241</speed>
      </trkpt>
      <trkpt lat="44.09131" lon="5.07393">
        <ele>112</ele>
        <time>2012-01-06T19:28:35Z</time>
        <course>334.854565578234</course>
        <speed>7.46074682922121</speed>
      </trkpt>
      <trkpt lat="44.09366" lon="5.07504">
        <ele>114</ele>
        <time>2012-01-06T19:29:12Z</time>
        <course>342.200717841227</course>
        <speed>6.11268543677254</speed>
      </trkpt>
      <trkpt lat="44.09431" lon="5.07525">
        <ele>115</ele>
        <time>2012-01-06T19:29:24Z</time>
        <course>337.622787957276</course>
        <speed>6.11064622424882</speed>
      </trkpt>
      <trkpt lat="44.09653" lon="5.07617">
        <ele>120</ele>
        <time>2012-01-06T19:30:06Z</time>
        <course>339.777313329703</course>
        <speed>6.27241404680297</speed>
      </trkpt>
      <trkpt lat="44.09866" lon="5.07696">
        <ele>124</ele>
        <time>2012-01-06T19:30:45Z</time>
        <course>0.628662201660724</course>
        <speed>5.21341451679127</speed>
      </trkpt>
      <trkpt lat="44.10047" lon="5.07694">
        <ele>130</ele>
        <time>2012-01-06T19:31:23Z</time>
        <course>4.21495519084102</course>
        <speed>4.66458213287309</speed>
      </trkpt>
      <trkpt lat="44.10276" lon="5.07677">
        <ele>140</ele>
        <time>2012-01-06T19:32:18Z</time>
        <course>339.760051936705</course>
        <speed>8.31644803285358</speed>
      </trkpt>
      <trkpt lat="44.10311" lon="5.0769">
        <ele>140</ele>
        <time>2012-01-06T19:32:23Z</time>
        <course>322.328355684474</course>
        <speed>8.30064965766328</speed>
      </trkpt>
      <trkpt lat="44.1032" lon="5.07697">
        <ele>140</ele>
        <time>2012-01-06T19:32:24Z</time>
        <course>294.119393601674</course>
        <speed>8.32085958515693</speed>
      </trkpt>
      <trkpt lat="44.10328" lon="5.07715">
        <ele>140</ele>
        <time>2012-01-06T19:32:26Z</time>
        <course>331.566260919301</course>
        <speed>8.30846432743069</speed>
      </trkpt>
      <trkpt lat="44.10339" lon="5.07721">
        <ele>140</ele>
        <time>2012-01-06T19:32:28Z</time>
        <course>24.8554591396181</course>
        <speed>8.33127031426091</speed>
      </trkpt>
      <trkpt lat="44.10354" lon="5.07714">
        <ele>140</ele>
        <time>2012-01-06T19:32:30Z</time>
        <course>64.8203353725313</course>
        <speed>8.2991125403232</speed>
      </trkpt>
      <trkpt lat="44.10361" lon="5.07699">
        <ele>140</ele>
        <time>2012-01-06T19:32:32Z</time>
        <course>347.356425728228</course>
        <speed>8.31772091365521</speed>
      </trkpt>
      <trkpt lat="44.10507" lon="5.07732">
        <ele>140</ele>
        <time>2012-01-06T19:32:52Z</time>
        <course>351.773667644329</course>
        <speed>8.31888171530357</speed>
      </trkpt>
      <trkpt lat="44.10658" lon="5.07754">
        <ele>140</ele>
        <time>2012-01-06T19:33:12Z</time>
        <course>340.202189295456</course>
        <speed>8.31775671115163</speed>
      </trkpt>
      <trkpt lat="44.10771" lon="5.07795">
        <ele>140</ele>
        <time>2012-01-06T19:33:27Z</time>
        <course>334.509774679518</course>
        <speed>7.00357628265944</speed>
      </trkpt>
      <trkpt lat="44.10952" lon="5.07882">
        <ele>142</ele>
        <time>2012-01-06T19:33:58Z</time>
        <course>330.122470133352</course>
        <speed>5.70655220556024</speed>
      </trkpt>
      <trkpt lat="44.11097" lon="5.07966">
        <ele>146</ele>
        <time>2012-01-06T19:34:28Z</time>
        <course>340.171386998813</course>
        <speed>5.96244798258914</speed>
      </trkpt>
      <trkpt lat="44.11185" lon="5.07998">
        <ele>148</ele>
        <time>2012-01-06T19:34:45Z</time>
        <course>331.900974185104</course>
        <speed>5.71496898010485</speed>
      </trkpt>
      <trkpt lat="44.11211" lon="5.08012">
        <ele>148</ele>
        <time>2012-01-06T19:34:51Z</time>
        <course>317.354354975766</course>
        <speed>5.71588310798523</speed>
      </trkpt>
      <trkpt lat="44.11352" lon="5.08143">
        <ele>153</ele>
        <time>2012-01-06T19:35:24Z</time>
        <course>320.752590031209</course>
        <speed>5.51105938122272</speed>
      </trkpt>
      <trkpt lat="44.11443" lon="5.08218">
        <ele>156</ele>
        <time>2012-01-06T19:35:45Z</time>
        <course>316.817627725935</course>
        <speed>6.4699205631526</speed>
      </trkpt>
      <trkpt lat="44.11651" lon="5.08415">
        <ele>160</ele>
        <time>2012-01-06T19:36:28Z</time>
        <course>322.506457361539</course>
        <speed>5.0526215232952</speed>
      </trkpt>
      <trkpt lat="44.11713" lon="5.08463">
        <ele>162</ele>
        <time>2012-01-06T19:36:44Z</time>
        <course>327.147604296757</course>
        <speed>5.05352677228857</speed>
      </trkpt>
      <trkpt lat="44.11825" lon="5.08536">
        <ele>167</ele>
        <time>2012-01-06T19:37:11Z</time>
        <course>322.149827377447</course>
        <speed>4.96759751687585</speed>
      </trkpt>
      <trkpt lat="44.11941" lon="5.08627">
        <ele>172</ele>
        <time>2012-01-06T19:37:41Z</time>
        <course>324.307788908239</course>
        <speed>5.32797198930831</speed>
      </trkpt>
      <trkpt lat="44.12083" lon="5.0873">
        <ele>177</ele>
        <time>2012-01-06T19:38:14Z</time>
        <course>313.367904865801</course>
        <speed>6.11739590319073</speed>
      </trkpt>
      <trkpt lat="44.12112" lon="5.08761">
        <ele>177</ele>
        <time>2012-01-06T19:38:21Z</time>
        <course>307.289809841202</course>
        <speed>6.12078119168387</speed>
      </trkpt>
      <trkpt lat="44.12158" lon="5.08822">
        <ele>179</ele>
        <time>2012-01-06T19:38:32Z</time>
        <course>315.763738886594</course>
        <speed>6.3757512291977</speed>
      </trkpt>
      <trkpt lat="44.12218" lon="5.08881">
        <ele>180</ele>
        <time>2012-01-06T19:38:45Z</time>
        <course>311.671275865078</course>
        <speed>6.37693724447312</speed>
      </trkpt>
      <trkpt lat="44.12344" lon="5.09024">
        <ele>183</ele>
        <time>2012-01-06T19:39:13Z</time>
        <course>315.28818096588</course>
        <speed>4.78595513495686</speed>
      </trkpt>
      <trkpt lat="44.12375" lon="5.09055">
        <ele>184</ele>
        <time>2012-01-06T19:39:22Z</time>
        <course>323.669569716564</course>
        <speed>4.7856745648124</speed>
      </trkpt>
      <trkpt lat="44.1241" lon="5.09081">
        <ele>186</ele>
        <time>2012-01-06T19:39:32Z</time>
        <course>337.011302781682</course>
        <speed>4.78715735665116</speed>
      </trkpt>
      <trkpt lat="44.12452" lon="5.09099">
        <ele>188</ele>
        <time>2012-01-06T19:39:42Z</time>
        <course>349.121235326764</course>
        <speed>4.46350064384535</speed>
      </trkpt>
      <trkpt lat="44.12555" lon="5.09119">
        <ele>193</ele>
        <time>2012-01-06T19:40:08Z</time>
        <course>2.98124495597482</course>
        <speed>4.05784791335936</speed>
      </trkpt>
      <trkpt lat="44.12726" lon="5.0911">
        <ele>203</ele>
        <time>2012-01-06T19:40:54Z</time>
        <course>355.152294208388</course>
        <speed>3.33609076930259</speed>
      </trkpt>
      <trkpt lat="44.12761" lon="5.09113">
        <ele>205</ele>
        <time>2012-01-06T19:41:06Z</time>
        <course>347.225924425145</course>
        <speed>3.33669021470906</speed>
      </trkpt>
      <trkpt lat="44.12857" lon="5.09135">
        <ele>214</ele>
        <time>2012-01-06T19:41:39Z</time>
        <course>328.944852156238</course>
        <speed>6.04999127707883</speed>
      </trkpt>
      <trkpt lat="44.1288" lon="5.09149">
        <ele>214</ele>
        <time>2012-01-06T19:41:43Z</time>
        <course>320.498280158674</course>
        <speed>6.04581587611796</speed>
      </trkpt>
      <trkpt lat="44.12892" lon="5.09159">
        <ele>214</ele>
        <time>2012-01-06T19:41:46Z</time>
        <course>300.737268104151</course>
        <speed>6.04505701552563</speed>
      </trkpt>
      <trkpt lat="44.12902" lon="5.09176">
        <ele>215</ele>
        <time>2012-01-06T19:41:49Z</time>
        <course>282.072394230592</course>
        <speed>6.0557885814839</speed>
      </trkpt>
      <trkpt lat="44.12913" lon="5.09228">
        <ele>215</ele>
        <time>2012-01-06T19:41:56Z</time>
        <course>269.724635929014</course>
        <speed>6.05327006948669</speed>
      </trkpt>
      <trkpt lat="44.12912" lon="5.09432">
        <ele>219</ele>
        <time>2012-01-06T19:42:23Z</time>
        <course>254.601592361449</course>
        <speed>5.55904362738217</speed>
      </trkpt>
      <trkpt lat="44.12822" lon="5.09762">
        <ele>226</ele>
        <time>2012-01-06T19:43:13Z</time>
        <course>256.731173531357</course>
        <speed>8.33131773277827</speed>
      </trkpt>
      <trkpt lat="44.12815" lon="5.09792">
        <ele>225</ele>
        <time>2012-01-06T19:43:16Z</time>
        <course>271.810440270665</course>
        <speed>8.32164063132049</speed>
      </trkpt>
      <trkpt lat="44.12816" lon="5.09824">
        <ele>224</ele>
        <time>2012-01-06T19:43:19Z</time>
        <course>288.278686105006</course>
        <speed>8.31943827793238</speed>
      </trkpt>
      <trkpt lat="44.12865" lon="5.09974">
        <ele>221</ele>
        <time>2012-01-06T19:43:35Z</time>
        <course>308.174847207297</course>
        <speed>5.18849303457411</speed>
      </trkpt>
      <trkpt lat="44.12879" lon="5.09992">
        <ele>221</ele>
        <time>2012-01-06T19:43:39Z</time>
        <course>329.859538996075</course>
        <speed>5.18377195026456</speed>
      </trkpt>
      <trkpt lat="44.12925" lon="5.10019">
        <ele>223</ele>
        <time>2012-01-06T19:43:50Z</time>
        <course>288.624939204288</course>
        <speed>5.18260137878238</speed>
      </trkpt>
      <trkpt lat="44.12946" lon="5.10082">
        <ele>225</ele>
        <time>2012-01-06T19:44:01Z</time>
        <course>325.596333251651</course>
        <speed>4.08374625318566</speed>
      </trkpt>
      <trkpt lat="44.12959" lon="5.10091">
        <ele>225</ele>
        <time>2012-01-06T19:44:05Z</time>
        <course>357.734334910049</course>
        <speed>4.08397459357971</speed>
      </trkpt>
      <trkpt lat="44.13009" lon="5.10093">
        <ele>228</ele>
        <time>2012-01-06T19:44:18Z</time>
        <course>318.678636192186</course>
        <speed>4.09065040508847</speed>
      </trkpt>
      <trkpt lat="44.13018" lon="5.10101">
        <ele>229</ele>
        <time>2012-01-06T19:44:21Z</time>
        <course>296.817908875143</course>
        <speed>4.08410258381334</speed>
      </trkpt>
      <trkpt lat="44.13023" lon="5.10111">
        <ele>229</ele>
        <time>2012-01-06T19:44:24Z</time>
        <course>271.116065504476</course>
        <speed>4.08353533378209</speed>
      </trkpt>
      <trkpt lat="44.13024" lon="5.10163">
        <ele>232</ele>
        <time>2012-01-06T19:44:34Z</time>
        <course>284.776356643254</course>
        <speed>3.95906990585031</speed>
      </trkpt>
      <trkpt lat="44.1303" lon="5.10186">
        <ele>233</ele>
        <time>2012-01-06T19:44:39Z</time>
        <course>351.124146344134</course>
        <speed>3.95678783540598</speed>
      </trkpt>
      <trkpt lat="44.13049" lon="5.10189">
        <ele>234</ele>
        <time>2012-01-06T19:44:44Z</time>
        <course>17.9505686072983</course>
        <speed>3.9550272067707</speed>
      </trkpt>
      <trkpt lat="44.13107" lon="5.1017">
        <ele>237</ele>
        <time>2012-01-06T19:45:01Z</time>
        <course>4.98677916951661</course>
        <speed>3.95574599027375</speed>
      </trkpt>
      <trkpt lat="44.13141" lon="5.10167">
        <ele>240</ele>
        <time>2012-01-06T19:45:10Z</time>
        <course>347.868939698376</course>
        <speed>6.97219262846132</speed>
      </trkpt>
      <trkpt lat="44.13233" lon="5.10187">
        <ele>241</ele>
        <time>2012-01-06T19:45:25Z</time>
        <course>322.084032377858</course>
        <speed>4.5914467413052</speed>
      </trkpt>
      <trkpt lat="44.13299" lon="5.10239">
        <ele>244</ele>
        <time>2012-01-06T19:45:43Z</time>
        <course>317.583982078992</course>
        <speed>4.59331940604184</speed>
      </trkpt>
      <trkpt lat="44.13365" lon="5.103">
        <ele>248</ele>
        <time>2012-01-06T19:46:03Z</time>
        <course>309.499905398623</course>
        <speed>8.32124054413331</speed>
      </trkpt>
      <trkpt lat="44.13409" lon="5.10354">
        <ele>245</ele>
        <time>2012-01-06T19:46:10Z</time>
        <course>344.9125020075</course>
        <speed>8.30343905681123</speed>
      </trkpt>
      <trkpt lat="44.1342" lon="5.10357">
        <ele>244</ele>
        <time>2012-01-06T19:46:12Z</time>
        <course>8.87070167041205</course>
        <speed>8.33252269968701</speed>
      </trkpt>
      <trkpt lat="44.13439" lon="5.10354">
        <ele>243</ele>
        <time>2012-01-06T19:46:15Z</time>
        <course>50.6364029690127</course>
        <speed>8.32146419450493</speed>
      </trkpt>
      <trkpt lat="44.13469" lon="5.10317">
        <ele>242</ele>
        <time>2012-01-06T19:46:20Z</time>
        <course>23.5033743625686</course>
        <speed>4.40729815655024</speed>
      </trkpt>
      <trkpt lat="44.13494" lon="5.10306">
        <ele>243</ele>
        <time>2012-01-06T19:46:26Z</time>
        <course>350.646001444887</course>
        <speed>4.40791793653122</speed>
      </trkpt>
      <trkpt lat="44.13512" lon="5.10309">
        <ele>244</ele>
        <time>2012-01-06T19:46:31Z</time>
        <course>335.414712419538</course>
        <speed>4.40629996969413</speed>
      </trkpt>
      <trkpt lat="44.13566" lon="5.10334">
        <ele>247</ele>
        <time>2012-01-06T19:46:45Z</time>
        <course>10.4509649993834</course>
        <speed>3.27559599153257</speed>
      </trkpt>
      <trkpt lat="44.13641" lon="5.1032">
        <ele>253</ele>
        <time>2012-01-06T19:47:11Z</time>
        <course>351.223815501925</course>
        <speed>3.2766732402836</speed>
      </trkpt>
      <trkpt lat="44.13705" lon="5.1033">
        <ele>259</ele>
        <time>2012-01-06T19:47:33Z</time>
        <course>1.50910263309661</course>
        <speed>3.9674088833212</speed>
      </trkpt>
      <trkpt lat="44.1378" lon="5.10328">
        <ele>263</ele>
        <time>2012-01-06T19:47:54Z</time>
        <course>12.1207517464438</course>
        <speed>3.96729627699324</speed>
      </trkpt>
      <trkpt lat="44.13803" lon="5.10323">
        <ele>265</ele>
        <time>2012-01-06T19:48:00Z</time>
        <course>24.8465649831408</course>
        <speed>2.76059736150339</speed>
      </trkpt>
      <trkpt lat="44.13835" lon="5.10308">
        <ele>268</ele>
        <time>2012-01-06T19:48:14Z</time>
        <course>357.172409631502</course>
        <speed>2.76252211916827</speed>
      </trkpt>
      <trkpt lat="44.13855" lon="5.10309">
        <ele>271</ele>
        <time>2012-01-06T19:48:22Z</time>
        <course>320.247023701045</course>
        <speed>2.76092102719345</speed>
      </trkpt>
      <trkpt lat="44.13893" lon="5.10341">
        <ele>276</ele>
        <time>2012-01-06T19:48:40Z</time>
        <course>314.056617867424</course>
        <speed>4.98593718319415</speed>
      </trkpt>
      <trkpt lat="44.13979" lon="5.10431">
        <ele>280</ele>
        <time>2012-01-06T19:49:04Z</time>
        <course>326.172511225682</course>
        <speed>6.07134519616681</speed>
      </trkpt>
      <trkpt lat="44.14007" lon="5.1045">
        <ele>280</ele>
        <time>2012-01-06T19:49:10Z</time>
        <course>348.636371920544</course>
        <speed>6.06877253134913</speed>
      </trkpt>
      <trkpt lat="44.1412" lon="5.10473">
        <ele>283</ele>
        <time>2012-01-06T19:49:31Z</time>
        <course>14.8858984668017</course>
        <speed>3.04296725765658</speed>
      </trkpt>
      <trkpt lat="44.14172" lon="5.10459">
        <ele>288</ele>
        <time>2012-01-06T19:49:50Z</time>
        <course>352.084176244439</course>
        <speed>3.04286873654195</speed>
      </trkpt>
      <trkpt lat="44.14243" lon="5.10469">
        <ele>295</ele>
        <time>2012-01-06T19:50:16Z</time>
        <course>317.345726174934</course>
        <speed>5.36394606580138</speed>
      </trkpt>
      <trkpt lat="44.14288" lon="5.10511">
        <ele>296</ele>
        <time>2012-01-06T19:50:27Z</time>
        <course>325.215680654013</course>
        <speed>5.36913613946112</speed>
      </trkpt>
      <trkpt lat="44.14315" lon="5.1053">
        <ele>297</ele>
        <time>2012-01-06T19:50:33Z</time>
        <course>353.876476310015</course>
        <speed>5.36301844190976</speed>
      </trkpt>
      <trkpt lat="44.14361" lon="5.10535">
        <ele>299</ele>
        <time>2012-01-06T19:50:43Z</time>
        <course>340.795324745872</course>
        <speed>7.42827612104065</speed>
      </trkpt>
      <trkpt lat="44.14412" lon="5.10553">
        <ele>299</ele>
        <time>2012-01-06T19:50:51Z</time>
        <course>335.174780516361</course>
        <speed>7.42893559601167</speed>
      </trkpt>
      <trkpt lat="44.14444" lon="5.10568">
        <ele>299</ele>
        <time>2012-01-06T19:50:56Z</time>
        <course>320.569344088098</course>
        <speed>7.42196563914054</speed>
      </trkpt>
      <trkpt lat="44.14498" lon="5.10613">
        <ele>300</ele>
        <time>2012-01-06T19:51:05Z</time>
        <course>347.721032673202</course>
        <speed>8.31547325575704</speed>
      </trkpt>
      <trkpt lat="44.14566" lon="5.10628">
        <ele>300</ele>
        <time>2012-01-06T19:51:14Z</time>
        <course>327.531542512144</course>
        <speed>8.31921972055848</speed>
      </trkpt>
      <trkpt lat="44.14783" lon="5.10768">
        <ele>300</ele>
        <time>2012-01-06T19:51:46Z</time>
        <course>310.466047362767</course>
        <speed>5.97269320969644</speed>
      </trkpt>
      <trkpt lat="44.14836" lon="5.10831">
        <ele>301</ele>
        <time>2012-01-06T19:51:59Z</time>
        <course>356.006703482593</course>
        <speed>5.96996710350156</speed>
      </trkpt>
      <trkpt lat="44.14949" lon="5.10839">
        <ele>304</ele>
        <time>2012-01-06T19:52:20Z</time>
        <course>329.028645075818</course>
        <speed>4.42680576449401</speed>
      </trkpt>
      <trkpt lat="44.14972" lon="5.10853">
        <ele>305</ele>
        <time>2012-01-06T19:52:27Z</time>
        <course>298.733985339702</course>
        <speed>4.42863763141115</speed>
      </trkpt>
      <trkpt lat="44.14992" lon="5.1089">
        <ele>306</ele>
        <time>2012-01-06T19:52:35Z</time>
        <course>291.700368839681</course>
        <speed>4.43015206953496</speed>
      </trkpt>
      <trkpt lat="44.15072" lon="5.11094">
        <ele>315</ele>
        <time>2012-01-06T19:53:17Z</time>
        <course>276.208040778058</course>
        <speed>4.65878639949577</speed>
      </trkpt>
      <trkpt lat="44.15084" lon="5.11206">
        <ele>318</ele>
        <time>2012-01-06T19:53:36Z</time>
        <course>282.984336016476</course>
        <speed>4.65807484462857</speed>
      </trkpt>
      <trkpt lat="44.15094" lon="5.1125">
        <ele>320</ele>
        <time>2012-01-06T19:53:44Z</time>
        <course>303.556176723272</course>
        <speed>8.32218175043369</speed>
      </trkpt>
      <trkpt lat="44.15111" lon="5.11276">
        <ele>319</ele>
        <time>2012-01-06T19:53:48Z</time>
        <course>317.184127880122</course>
        <speed>8.31460486972565</speed>
      </trkpt>
      <trkpt lat="44.15161" lon="5.11323">
        <ele>319</ele>
        <time>2012-01-06T19:53:56Z</time>
        <course>290.496073899251</course>
        <speed>8.32700486079173</speed>
      </trkpt>
      <trkpt lat="44.15175" lon="5.11361">
        <ele>319</ele>
        <time>2012-01-06T19:54:00Z</time>
        <course>275.04270599404</course>
        <speed>3.74679307056153</speed>
      </trkpt>
      <trkpt lat="44.15177" lon="5.11384">
        <ele>320</ele>
        <time>2012-01-06T19:54:05Z</time>
        <course>262.124461454187</course>
        <speed>3.75088256846883</speed>
      </trkpt>
      <trkpt lat="44.15174" lon="5.11406">
        <ele>321</ele>
        <time>2012-01-06T19:54:09Z</time>
        <course>257.949373551097</course>
        <speed>3.74989109887841</speed>
      </trkpt>
      <trkpt lat="44.1515" lon="5.1152">
        <ele>327</ele>
        <time>2012-01-06T19:54:35Z</time>
        <course>267.099097718405</course>
        <speed>4.25494386652462</speed>
      </trkpt>
      <trkpt lat="44.15147" lon="5.1158">
        <ele>329</ele>
        <time>2012-01-06T19:54:46Z</time>
        <course>274.145939140049</course>
        <speed>4.25699813569988</speed>
      </trkpt>
      <trkpt lat="44.15149" lon="5.11608">
        <ele>330</ele>
        <time>2012-01-06T19:54:51Z</time>
        <course>281.231126500199</course>
        <speed>4.2569120318281</speed>
      </trkpt>
      <trkpt lat="44.15167" lon="5.117">
        <ele>334</ele>
        <time>2012-01-06T19:55:09Z</time>
        <course>284.442263131273</course>
        <speed>4.42308122889005</speed>
      </trkpt>
      <trkpt lat="44.15201" lon="5.11834">
        <ele>339</ele>
        <time>2012-01-06T19:55:35Z</time>
        <course>280.148790793764</course>
        <speed>4.10270341482029</speed>
      </trkpt>
      <trkpt lat="44.15276" lon="5.1226">
        <ele>357</ele>
        <time>2012-01-06T19:57:00Z</time>
        <course>288.689457637985</course>
        <speed>3.69055642150779</speed>
      </trkpt>
      <trkpt lat="44.15289" lon="5.12299">
        <ele>359</ele>
        <time>2012-01-06T19:57:09Z</time>
        <course>295.79247413932</course>
        <speed>3.69045951509403</speed>
      </trkpt>
      <trkpt lat="44.15309" lon="5.12341">
        <ele>361</ele>
        <time>2012-01-06T19:57:20Z</time>
        <course>300.540948543491</course>
        <speed>3.68906669234959</speed>
      </trkpt>
      <trkpt lat="44.1542" lon="5.12532">
        <ele>374</ele>
        <time>2012-01-06T19:58:13Z</time>
        <course>292.099432175975</course>
        <speed>2.83792614033606</speed>
      </trkpt>
      <trkpt lat="44.15442" lon="5.12587">
        <ele>378</ele>
        <time>2012-01-06T19:58:31Z</time>
        <course>275.798637460408</course>
        <speed>2.83767348598948</speed>
      </trkpt>
      <trkpt lat="44.15448" lon="5.12647">
        <ele>383</ele>
        <time>2012-01-06T19:58:48Z</time>
        <course>272.425617042568</course>
        <speed>2.83791558501816</speed>
      </trkpt>
      <trkpt lat="44.15459" lon="5.12912">
        <ele>404</ele>
        <time>2012-01-06T20:00:03Z</time>
        <course>285.147934500334</course>
        <speed>5.02942303319813</speed>
      </trkpt>
      <trkpt lat="44.15471" lon="5.12957">
        <ele>405</ele>
        <time>2012-01-06T20:00:10Z</time>
        <course>321.757614771337</course>
        <speed>5.024425737085</speed>
      </trkpt>
      <trkpt lat="44.15481" lon="5.12965">
        <ele>405</ele>
        <time>2012-01-06T20:00:13Z</time>
        <course>348.853905193194</course>
        <speed>5.03399766589548</speed>
      </trkpt>
      <trkpt lat="44.15491" lon="5.12967">
        <ele>406</ele>
        <time>2012-01-06T20:00:15Z</time>
        <course>16.6893852887115</course>
        <speed>5.03072961835782</speed>
      </trkpt>
      <trkpt lat="44.15514" lon="5.1296">
        <ele>406</ele>
        <time>2012-01-06T20:00:20Z</time>
        <course>30.391601254694</course>
        <speed>5.0295907566203</speed>
      </trkpt>
      <trkpt lat="44.15744" lon="5.12823">
        <ele>416</ele>
        <time>2012-01-06T20:01:15Z</time>
        <course>51.1917755212754</course>
        <speed>8.31948578108895</speed>
      </trkpt>
      <trkpt lat="44.1593" lon="5.12588">
        <ele>399</ele>
        <time>2012-01-06T20:01:49Z</time>
        <course>31.2048151542545</course>
        <speed>7.39612477557271</speed>
      </trkpt>
      <trkpt lat="44.15956" lon="5.12572">
        <ele>399</ele>
        <time>2012-01-06T20:01:53Z</time>
        <course>2.16801572216404</course>
        <speed>7.39186595462303</speed>
      </trkpt>
      <trkpt lat="44.15982" lon="5.12571">
        <ele>399</ele>
        <time>2012-01-06T20:01:57Z</time>
        <course>331.32952722125</course>
        <speed>7.37385763057144</speed>
      </trkpt>
      <trkpt lat="44.15991" lon="5.12576">
        <ele>399</ele>
        <time>2012-01-06T20:01:59Z</time>
        <course>319.031373956953</course>
        <speed>7.39681374163593</speed>
      </trkpt>
      <trkpt lat="44.16059" lon="5.12636">
        <ele>400</ele>
        <time>2012-01-06T20:02:11Z</time>
        <course>310.258626608498</course>
        <speed>5.65676204645525</speed>
      </trkpt>
      <trkpt lat="44.16084" lon="5.12666">
        <ele>400</ele>
        <time>2012-01-06T20:02:17Z</time>
        <course>301.628999155144</course>
        <speed>5.6547223642405</speed>
      </trkpt>
      <trkpt lat="44.16104" lon="5.12699">
        <ele>401</ele>
        <time>2012-01-06T20:02:23Z</time>
        <course>289.65488012391</course>
        <speed>5.65595950847909</speed>
      </trkpt>
      <trkpt lat="44.16143" lon="5.1281">
        <ele>404</ele>
        <time>2012-01-06T20:02:41Z</time>
        <course>297.822693606687</course>
        <speed>7.54723980583101</speed>
      </trkpt>
      <trkpt lat="44.1617" lon="5.12862">
        <ele>404</ele>
        <time>2012-01-06T20:02:47Z</time>
        <course>315.19745473871</course>
        <speed>7.54183935685463</speed>
      </trkpt>
      <trkpt lat="44.16274" lon="5.12967">
        <ele>405</ele>
        <time>2012-01-06T20:03:06Z</time>
        <course>324.906434162573</course>
        <speed>8.32388710295726</speed>
      </trkpt>
      <trkpt lat="44.16302" lon="5.12987">
        <ele>403</ele>
        <time>2012-01-06T20:03:11Z</time>
        <course>352.990062024839</course>
        <speed>8.30257463593816</speed>
      </trkpt>
      <trkpt lat="44.16318" lon="5.12989">
        <ele>402</ele>
        <time>2012-01-06T20:03:13Z</time>
        <course>27.7866967395391</course>
        <speed>8.31222470472056</speed>
      </trkpt>
      <trkpt lat="44.16346" lon="5.12974">
        <ele>401</ele>
        <time>2012-01-06T20:03:17Z</time>
        <course>51.2478106566227</course>
        <speed>8.31040222847721</speed>
      </trkpt>
      <trkpt lat="44.16361" lon="5.12955">
        <ele>400</ele>
        <time>2012-01-06T20:03:19Z</time>
        <course>67.6225231428944</course>
        <speed>8.32050132566271</speed>
      </trkpt>
      <trkpt lat="44.16429" lon="5.12787">
        <ele>394</ele>
        <time>2012-01-06T20:03:38Z</time>
        <course>57.6586800273089</course>
        <speed>8.31227124862222</speed>
      </trkpt>
      <trkpt lat="44.16462" lon="5.12734">
        <ele>394</ele>
        <time>2012-01-06T20:03:45Z</time>
        <course>47.1628390944863</course>
        <speed>8.31697424184496</speed>
      </trkpt>
      <trkpt lat="44.16493" lon="5.127">
        <ele>394</ele>
        <time>2012-01-06T20:03:50Z</time>
        <course>34.3434721922016</course>
        <speed>8.31496805370448</speed>
      </trkpt>
      <trkpt lat="44.16552" lon="5.12659">
        <ele>394</ele>
        <time>2012-01-06T20:03:59Z</time>
        <course>18.8235588779942</course>
        <speed>5.85033923964232</speed>
      </trkpt>
      <trkpt lat="44.16676" lon="5.12616">
        <ele>397</ele>
        <time>2012-01-06T20:04:23Z</time>
        <course>15.1364458439096</course>
        <speed>8.31896617341276</speed>
      </trkpt>
      <trkpt lat="44.16923" lon="5.12548">
        <ele>391</ele>
        <time>2012-01-06T20:04:57Z</time>
        <course>10.0621208920431</course>
        <speed>8.31780729686738</speed>
      </trkpt>
      <trkpt lat="44.17078" lon="5.1252">
        <ele>382</ele>
        <time>2012-01-06T20:05:17Z</time>
        <course>346.661971602622</course>
        <speed>8.32168001011512</speed>
      </trkpt>
      <trkpt lat="44.17107" lon="5.12527">
        <ele>381</ele>
        <time>2012-01-06T20:05:21Z</time>
        <course>323.622332223163</course>
        <speed>8.3423499569724</speed>
      </trkpt>
      <trkpt lat="44.17115" lon="5.12533">
        <ele>381</ele>
        <time>2012-01-06T20:05:23Z</time>
        <course>296.175856914489</course>
        <speed>8.31680436404908</speed>
      </trkpt>
      <trkpt lat="44.17129" lon="5.12562">
        <ele>381</ele>
        <time>2012-01-06T20:05:26Z</time>
        <course>274.657834240585</course>
        <speed>8.31909988001105</speed>
      </trkpt>
      <trkpt lat="44.17131" lon="5.12587">
        <ele>381</ele>
        <time>2012-01-06T20:05:28Z</time>
        <course>248.279081365744</course>
        <speed>8.31952260007555</speed>
      </trkpt>
      <trkpt lat="44.17122" lon="5.1261">
        <ele>381</ele>
        <time>2012-01-06T20:05:31Z</time>
        <course>223.367090616279</course>
        <speed>8.31659230197668</speed>
      </trkpt>
      <trkpt lat="44.1707" lon="5.1266">
        <ele>381</ele>
        <time>2012-01-06T20:05:39Z</time>
        <course>213.390280666197</course>
        <speed>7.30283401313156</speed>
      </trkpt>
      <trkpt lat="44.16991" lon="5.12713">
        <ele>381</ele>
        <time>2012-01-06T20:05:53Z</time>
        <course>226.986753442679</course>
        <speed>7.30949738251156</speed>
      </trkpt>
      <trkpt lat="44.16958" lon="5.12749">
        <ele>382</ele>
        <time>2012-01-06T20:05:59Z</time>
        <course>243.54840345298</course>
        <speed>8.31529273288244</speed>
      </trkpt>
      <trkpt lat="44.16936" lon="5.12794">
        <ele>378</ele>
        <time>2012-01-06T20:06:04Z</time>
        <course>256.894750450145</course>
        <speed>8.31923530369456</speed>
      </trkpt>
      <trkpt lat="44.16876" lon="5.13056">
        <ele>358</ele>
        <time>2012-01-06T20:06:31Z</time>
        <course>287.885521323533</course>
        <speed>2.76973421254029</speed>
      </trkpt>
      <trkpt lat="44.16889" lon="5.13097">
        <ele>361</ele>
        <time>2012-01-06T20:06:43Z</time>
        <course>323.078756354076</course>
        <speed>2.76935207953792</speed>
      </trkpt>
      <trkpt lat="44.16906" lon="5.1311">
        <ele>363</ele>
        <time>2012-01-06T20:06:51Z</time>
        <course>244.145676901969</course>
        <speed>2.77113999143757</speed>
      </trkpt>
      <trkpt lat="44.16896" lon="5.13131">
        <ele>365</ele>
        <time>2012-01-06T20:06:59Z</time>
        <course>260.001191791936</course>
        <speed>2.76967023969403</speed>
      </trkpt>
      <trkpt lat="44.16866" lon="5.13304">
        <ele>380</ele>
        <time>2012-01-06T20:07:50Z</time>
        <course>233.687334204222</course>
        <speed>8.31002542162219</speed>
      </trkpt>
      <trkpt lat="44.16853" lon="5.13322">
        <ele>379</ele>
        <time>2012-01-06T20:07:52Z</time>
        <course>186.23153714936</course>
        <speed>8.29133237813107</speed>
      </trkpt>
      <trkpt lat="44.16844" lon="5.13323">
        <ele>378</ele>
        <time>2012-01-06T20:07:53Z</time>
        <course>306.732265612375</course>
        <speed>8.3001058310207</speed>
      </trkpt>
      <trkpt lat="44.16855" lon="5.13338">
        <ele>377</ele>
        <time>2012-01-06T20:07:55Z</time>
        <course>344.205738945984</course>
        <speed>8.32071523807503</speed>
      </trkpt>
      <trkpt lat="44.16921" lon="5.13357">
        <ele>374</ele>
        <time>2012-01-06T20:08:04Z</time>
        <course>1.48108542646456</course>
        <speed>8.31360665038155</speed>
      </trkpt>
      <trkpt lat="44.16959" lon="5.13356">
        <ele>373</ele>
        <time>2012-01-06T20:08:10Z</time>
        <course>23.5195734116085</course>
        <speed>8.32074630042549</speed>
      </trkpt>
      <trkpt lat="44.17038" lon="5.13321">
        <ele>361</ele>
        <time>2012-01-06T20:08:21Z</time>
        <course>352.370467812265</course>
        <speed>8.32646010090376</speed>
      </trkpt>
      <trkpt lat="44.1706" lon="5.13324">
        <ele>359</ele>
        <time>2012-01-06T20:08:24Z</time>
        <course>306.516357934407</course>
        <speed>8.32374277740018</speed>
      </trkpt>
      <trkpt lat="44.17076" lon="5.13346">
        <ele>356</ele>
        <time>2012-01-06T20:08:27Z</time>
        <course>341.870146868767</course>
        <speed>8.3598923723202</speed>
      </trkpt>
      <trkpt lat="44.17082" lon="5.13348">
        <ele>356</ele>
        <time>2012-01-06T20:08:27Z</time>
        <course>26.1555131955624</course>
        <speed>8.31894920237445</speed>
      </trkpt>
      <trkpt lat="44.17124" lon="5.13327">
        <ele>351</ele>
        <time>2012-01-06T20:08:33Z</time>
        <course>354.390489449237</course>
        <speed>8.31384091267063</speed>
      </trkpt>
      <trkpt lat="44.17134" lon="5.13328">
        <ele>350</ele>
        <time>2012-01-06T20:08:35Z</time>
        <course>315.515354492773</course>
        <speed>8.33829670233039</speed>
      </trkpt>
      <trkpt lat="44.17139" lon="5.13333">
        <ele>350</ele>
        <time>2012-01-06T20:08:36Z</time>
        <course>315.515354492773</course>
        <speed>8.33829670233039</speed>
      </trkpt>
      <trkpt lat="44.17139" lon="5.13333">
        <ele>350</ele>
        <time>2012-01-06T20:08:37Z</time>
        <course>303.903760564615</course>
        <speed>8.3187121606987</speed>
      </trkpt>
      <trkpt lat="44.17172" lon="5.13383">
        <ele>349</ele>
        <time>2012-01-06T20:08:43Z</time>
        <course>264.712694947719</course>
        <speed>8.33706385447789</speed>
      </trkpt>
      <trkpt lat="44.1717" lon="5.13405">
        <ele>349</ele>
        <time>2012-01-06T20:08:45Z</time>
        <course>249.104646102472</course>
        <speed>8.3178992002421</speed>
      </trkpt>
      <trkpt lat="44.17152" lon="5.13453">
        <ele>349</ele>
        <time>2012-01-06T20:08:50Z</time>
        <course>271.915271064023</course>
        <speed>8.31944248312686</speed>
      </trkpt>
      <trkpt lat="44.17154" lon="5.13514">
        <ele>349</ele>
        <time>2012-01-06T20:08:56Z</time>
        <course>278.546617010341</course>
        <speed>8.31421447631753</speed>
      </trkpt>
      <trkpt lat="44.17163" lon="5.13575">
        <ele>346</ele>
        <time>2012-01-06T20:09:02Z</time>
        <course>285.08601603568</course>
        <speed>8.32420790805186</speed>
      </trkpt>
      <trkpt lat="44.17172" lon="5.13609">
        <ele>344</ele>
        <time>2012-01-06T20:09:06Z</time>
        <course>16.9072657200732</course>
        <speed>8.31420655230708</speed>
      </trkpt>
      <trkpt lat="44.17214" lon="5.13596">
        <ele>341</ele>
        <time>2012-01-06T20:09:11Z</time>
        <course>41.1142549523156</course>
        <speed>8.32310837461363</speed>
      </trkpt>
      <trkpt lat="44.17268" lon="5.13548">
        <ele>338</ele>
        <time>2012-01-06T20:09:20Z</time>
        <course>56.1751995515348</course>
        <speed>7.62468377604056</speed>
      </trkpt>
      <trkpt lat="44.17293" lon="5.1351">
        <ele>338</ele>
        <time>2012-01-06T20:09:25Z</time>
        <course>20.8983437085683</course>
        <speed>7.63422382787051</speed>
      </trkpt>
      <trkpt lat="44.17311" lon="5.13503">
        <ele>338</ele>
        <time>2012-01-06T20:09:28Z</time>
        <course>272.246101918123</course>
        <speed>7.62927476281381</speed>
      </trkpt>
      <trkpt lat="44.17313" lon="5.13555">
        <ele>338</ele>
        <time>2012-01-06T20:09:33Z</time>
        <course>262.369271648227</course>
        <speed>7.62158640877039</speed>
      </trkpt>
      <trkpt lat="44.17308" lon="5.13593">
        <ele>338</ele>
        <time>2012-01-06T20:09:38Z</time>
        <course>257.312416709679</course>
        <speed>7.62870781168279</speed>
      </trkpt>
      <trkpt lat="44.17285" lon="5.13697">
        <ele>339</ele>
        <time>2012-01-06T20:09:49Z</time>
        <course>225.537062488524</course>
        <speed>3.17890068360515</speed>
      </trkpt>
      <trkpt lat="44.17178" lon="5.13808">
        <ele>351</ele>
        <time>2012-01-06T20:10:35Z</time>
        <course>238.967102585566</course>
        <speed>2.78071304305167</speed>
      </trkpt>
      <trkpt lat="44.17165" lon="5.1383">
        <ele>353</ele>
        <time>2012-01-06T20:10:44Z</time>
        <course>247.845166566207</course>
        <speed>2.78125125118187</speed>
      </trkpt>
      <trkpt lat="44.17131" lon="5.13915">
        <ele>361</ele>
        <time>2012-01-06T20:11:12Z</time>
        <course>228.144919172605</course>
        <speed>2.16014613700817</speed>
      </trkpt>
      <trkpt lat="44.17087" lon="5.13965">
        <ele>370</ele>
        <time>2012-01-06T20:11:41Z</time>
        <course>251.697128945753</course>
        <speed>2.16056222259211</speed>
      </trkpt>
      <trkpt lat="44.17061" lon="5.14045">
        <ele>380</ele>
        <time>2012-01-06T20:12:13Z</time>
        <course>232.501676302637</course>
        <speed>1.89504424693071</speed>
      </trkpt>
      <trkpt lat="44.17012" lon="5.1411">
        <ele>392</ele>
        <time>2012-01-06T20:12:53Z</time>
        <course>241.780616398788</course>
        <speed>1.89505442025274</speed>
      </trkpt>
      <trkpt lat="44.16983" lon="5.14165">
        <ele>402</ele>
        <time>2012-01-06T20:13:22Z</time>
        <course>231.114479825106</course>
        <speed>3.95658742856687</speed>
      </trkpt>
      <trkpt lat="44.16941" lon="5.14218">
        <ele>405</ele>
        <time>2012-01-06T20:13:37Z</time>
        <course>239.34153007003</course>
        <speed>3.95601287320369</speed>
      </trkpt>
      <trkpt lat="44.16874" lon="5.14333">
        <ele>412</ele>
        <time>2012-01-06T20:14:07Z</time>
        <course>248.812664228232</course>
        <speed>6.44636888617886</speed>
      </trkpt>
      <trkpt lat="44.16858" lon="5.14375">
        <ele>412</ele>
        <time>2012-01-06T20:14:13Z</time>
        <course>259.990932842729</course>
        <speed>6.44329984163995</speed>
      </trkpt>
      <trkpt lat="44.16837" lon="5.14496">
        <ele>414</ele>
        <time>2012-01-06T20:14:29Z</time>
        <course>256.672757838787</course>
        <speed>6.76714872579637</speed>
      </trkpt>
      <trkpt lat="44.1682" lon="5.14569">
        <ele>414</ele>
        <time>2012-01-06T20:14:38Z</time>
        <course>253.704076159993</course>
        <speed>6.76643382739005</speed>
      </trkpt>
      <trkpt lat="44.16753" lon="5.14802">
        <ele>417</ele>
        <time>2012-01-06T20:15:07Z</time>
        <course>246.285194089972</course>
        <speed>3.72820948640233</speed>
      </trkpt>
      <trkpt lat="44.16734" lon="5.14846">
        <ele>419</ele>
        <time>2012-01-06T20:15:18Z</time>
        <course>230.116737754752</course>
        <speed>3.72864018702895</speed>
      </trkpt>
      <trkpt lat="44.16711" lon="5.14874">
        <ele>421</ele>
        <time>2012-01-06T20:15:27Z</time>
        <course>180</course>
        <speed>3.72789677424777</speed>
      </trkpt>
      <trkpt lat="44.16685" lon="5.14874">
        <ele>423</ele>
        <time>2012-01-06T20:15:35Z</time>
        <course>146.760096299256</course>
        <speed>3.72711089677889</speed>
      </trkpt>
      <trkpt lat="44.16664" lon="5.1486">
        <ele>425</ele>
        <time>2012-01-06T20:15:42Z</time>
        <course>120.682760664586</course>
        <speed>8.33008751273942</speed>
      </trkpt>
      <trkpt lat="44.1665" lon="5.14836">
        <ele>424</ele>
        <time>2012-01-06T20:15:45Z</time>
        <course>109.021612597842</course>
        <speed>8.32237144460902</speed>
      </trkpt>
      <trkpt lat="44.1663" lon="5.14777">
        <ele>421</ele>
        <time>2012-01-06T20:15:51Z</time>
        <course>117.874053979032</course>
        <speed>8.31498551261894</speed>
      </trkpt>
      <trkpt lat="44.16617" lon="5.14752">
        <ele>421</ele>
        <time>2012-01-06T20:15:54Z</time>
        <course>147.705467132673</course>
        <speed>2.23353123135993</speed>
      </trkpt>
      <trkpt lat="44.16603" lon="5.14743">
        <ele>423</ele>
        <time>2012-01-06T20:16:02Z</time>
        <course>175.67483926372</course>
        <speed>2.23265040234158</speed>
      </trkpt>
      <trkpt lat="44.16577" lon="5.14741">
        <ele>427</ele>
        <time>2012-01-06T20:16:15Z</time>
        <course>147.965859419873</course>
        <speed>2.23197493622114</speed>
      </trkpt>
      <trkpt lat="44.16566" lon="5.14734">
        <ele>429</ele>
        <time>2012-01-06T20:16:21Z</time>
        <course>113.986141846858</course>
        <speed>2.2329460537066</speed>
      </trkpt>
      <trkpt lat="44.16559" lon="5.14718">
        <ele>431</ele>
        <time>2012-01-06T20:16:27Z</time>
        <course>97.2408797908935</course>
        <speed>2.23279344214124</speed>
      </trkpt>
      <trkpt lat="44.16549" lon="5.14638">
        <ele>440</ele>
        <time>2012-01-06T20:16:56Z</time>
        <course>80.2165340437754</course>
        <speed>3.56632207595912</speed>
      </trkpt>
      <trkpt lat="44.16559" lon="5.14579">
        <ele>443</ele>
        <time>2012-01-06T20:17:10Z</time>
        <course>94.1535101375016</course>
        <speed>3.565830261669</speed>
      </trkpt>
      <trkpt lat="44.16557" lon="5.14551">
        <ele>444</ele>
        <time>2012-01-06T20:17:16Z</time>
        <course>113.550152273228</course>
        <speed>3.56146238583191</speed>
      </trkpt>
      <trkpt lat="44.16551" lon="5.14537">
        <ele>445</ele>
        <time>2012-01-06T20:17:20Z</time>
        <course>134.71657747436</course>
        <speed>3.56614962644555</speed>
      </trkpt>
      <trkpt lat="44.16514" lon="5.14499">
        <ele>449</ele>
        <time>2012-01-06T20:17:34Z</time>
        <course>111.175640135795</course>
        <speed>8.31281435487</speed>
      </trkpt>
      <trkpt lat="44.16506" lon="5.14478">
        <ele>448</ele>
        <time>2012-01-06T20:17:37Z</time>
        <course>98.5661569139165</course>
        <speed>8.32423756715302</speed>
      </trkpt>
      <trkpt lat="44.16502" lon="5.14451">
        <ele>447</ele>
        <time>2012-01-06T20:17:39Z</time>
        <course>82.8993641944868</course>
        <speed>8.324165699711</speed>
      </trkpt>
      <trkpt lat="44.16508" lon="5.14402">
        <ele>445</ele>
        <time>2012-01-06T20:17:44Z</time>
        <course>92.0068513418184</course>
        <speed>8.32470632214753</speed>
      </trkpt>
      <trkpt lat="44.16507" lon="5.14373">
        <ele>445</ele>
        <time>2012-01-06T20:17:47Z</time>
        <course>109.230525935781</course>
        <speed>2.59734815586276</speed>
      </trkpt>
      <trkpt lat="44.16472" lon="5.14271">
        <ele>454</ele>
        <time>2012-01-06T20:18:21Z</time>
        <course>132.460522267585</course>
        <speed>2.5972474314815</speed>
      </trkpt>
      <trkpt lat="44.16427" lon="5.14221">
        <ele>462</ele>
        <time>2012-01-06T20:18:46Z</time>
        <course>125.580654380155</course>
        <speed>3.13560583894659</speed>
      </trkpt>
      <trkpt lat="44.16389" lon="5.14167">
        <ele>466</ele>
        <time>2012-01-06T20:19:05Z</time>
        <course>132.230549021187</course>
        <speed>3.13692092132045</speed>
      </trkpt>
      <trkpt lat="44.16364" lon="5.14139">
        <ele>469</ele>
        <time>2012-01-06T20:19:17Z</time>
        <course>141.800764141821</course>
        <speed>3.14014964417712</speed>
      </trkpt>
      <trkpt lat="44.16354" lon="5.14131">
        <ele>471</ele>
        <time>2012-01-06T20:19:21Z</time>
        <course>163.750808254476</course>
        <speed>1.98143602042259</speed>
      </trkpt>
      <trkpt lat="44.16327" lon="5.14123">
        <ele>475</ele>
        <time>2012-01-06T20:19:36Z</time>
        <course>180.587166617726</course>
        <speed>1.98176069596019</speed>
      </trkpt>
      <trkpt lat="44.16231" lon="5.14124">
        <ele>493</ele>
        <time>2012-01-06T20:20:30Z</time>
        <course>194.22186919001</course>
        <speed>6.57098656413576</speed>
      </trkpt>
      <trkpt lat="44.16165" lon="5.14141">
        <ele>493</ele>
        <time>2012-01-06T20:20:41Z</time>
        <course>176.687010683192</course>
        <speed>6.57070791589535</speed>
      </trkpt>
      <trkpt lat="44.16097" lon="5.14137">
        <ele>495</ele>
        <time>2012-01-06T20:20:53Z</time>
        <course>207.647856363742</course>
        <speed>8.31408560448095</speed>
      </trkpt>
      <trkpt lat="44.16035" lon="5.1417">
        <ele>491</ele>
        <time>2012-01-06T20:21:02Z</time>
        <course>223.50438678502</course>
        <speed>8.31489808866396</speed>
      </trkpt>
      <trkpt lat="44.16007" lon="5.14197">
        <ele>489</ele>
        <time>2012-01-06T20:21:06Z</time>
        <course>236.61615844161</course>
        <speed>6.10819257061375</speed>
      </trkpt>
      <trkpt lat="44.15983" lon="5.14234">
        <ele>489</ele>
        <time>2012-01-06T20:21:13Z</time>
        <course>255.40079542068</course>
        <speed>6.11406491202716</speed>
      </trkpt>
      <trkpt lat="44.15973" lon="5.14273">
        <ele>490</ele>
        <time>2012-01-06T20:21:18Z</time>
        <course>272.770793843245</course>
        <speed>6.1231823814404</speed>
      </trkpt>
      <trkpt lat="44.15974" lon="5.14294">
        <ele>490</ele>
        <time>2012-01-06T20:21:21Z</time>
        <course>288.710046752118</course>
        <speed>6.11495130430516</speed>
      </trkpt>
      <trkpt lat="44.15982" lon="5.14318">
        <ele>491</ele>
        <time>2012-01-06T20:21:24Z</time>
        <course>304.539204217996</course>
        <speed>1.64993710055534</speed>
      </trkpt>
      <trkpt lat="44.16003" lon="5.14349">
        <ele>497</ele>
        <time>2012-01-06T20:21:45Z</time>
        <course>313.435903766204</course>
        <speed>1.64984728767867</speed>
      </trkpt>
      <trkpt lat="44.16044" lon="5.14393">
        <ele>509</ele>
        <time>2012-01-06T20:22:20Z</time>
        <course>309.033873977269</course>
        <speed>1.64987728406317</speed>
      </trkpt>
      <trkpt lat="44.16115" lon="5.14482">
        <ele>531</ele>
        <time>2012-01-06T20:23:24Z</time>
        <course>279.23641952742</course>
        <speed>2.06874878028513</speed>
      </trkpt>
      <trkpt lat="44.16119" lon="5.14507">
        <ele>534</ele>
        <time>2012-01-06T20:23:34Z</time>
        <course>265.161932176235</course>
        <speed>2.06989676207477</speed>
      </trkpt>
      <trkpt lat="44.16115" lon="5.14555">
        <ele>539</ele>
        <time>2012-01-06T20:23:53Z</time>
        <course>294.308948105219</course>
        <speed>2.06956305877555</speed>
      </trkpt>
      <trkpt lat="44.16135" lon="5.146">
        <ele>546</ele>
        <time>2012-01-06T20:24:13Z</time>
        <course>278.058148841073</course>
        <speed>2.06936564150214</speed>
      </trkpt>
      <trkpt lat="44.16146" lon="5.14679">
        <ele>556</ele>
        <time>2012-01-06T20:24:44Z</time>
        <course>253.490907749733</course>
        <speed>6.11019365800498</speed>
      </trkpt>
      <trkpt lat="44.16139" lon="5.14703">
        <ele>556</ele>
        <time>2012-01-06T20:24:47Z</time>
        <course>206.197869997292</course>
        <speed>6.10614119577804</speed>
      </trkpt>
      <trkpt lat="44.16127" lon="5.14709">
        <ele>556</ele>
        <time>2012-01-06T20:24:50Z</time>
        <course>155.206107277295</course>
        <speed>6.11200581333833</speed>
      </trkpt>
      <trkpt lat="44.16078" lon="5.14686">
        <ele>557</ele>
        <time>2012-01-06T20:24:59Z</time>
        <course>191.134988943648</course>
        <speed>6.100974058063</speed>
      </trkpt>
      <trkpt lat="44.16068" lon="5.14688">
        <ele>557</ele>
        <time>2012-01-06T20:25:01Z</time>
        <course>228.360020453577</course>
        <speed>6.09606331729358</speed>
      </trkpt>
      <trkpt lat="44.16061" lon="5.14696">
        <ele>558</ele>
        <time>2012-01-06T20:25:03Z</time>
        <course>253.312727507868</course>
        <speed>6.1139503602063</speed>
      </trkpt>
      <trkpt lat="44.16043" lon="5.14757">
        <ele>559</ele>
        <time>2012-01-06T20:25:11Z</time>
        <course>230.701979549993</course>
        <speed>1.6113172691756</speed>
      </trkpt>
      <trkpt lat="44.16014" lon="5.14793">
        <ele>567</ele>
        <time>2012-01-06T20:25:38Z</time>
        <course>261.286416099533</course>
        <speed>1.61131314933105</speed>
      </trkpt>
      <trkpt lat="44.15998" lon="5.14899">
        <ele>586</ele>
        <time>2012-01-06T20:26:32Z</time>
        <course>238.165580698209</course>
        <speed>8.30374328908818</speed>
      </trkpt>
      <trkpt lat="44.15987" lon="5.14917">
        <ele>585</ele>
        <time>2012-01-06T20:26:34Z</time>
        <course>169.543325238372</course>
        <speed>8.30524249400629</speed>
      </trkpt>
      <trkpt lat="44.15971" lon="5.14914">
        <ele>585</ele>
        <time>2012-01-06T20:26:36Z</time>
        <course>142.464566074921</course>
        <speed>8.31445951840972</speed>
      </trkpt>
      <trkpt lat="44.1593" lon="5.14882">
        <ele>583</ele>
        <time>2012-01-06T20:26:42Z</time>
        <course>112.109129959074</course>
        <speed>8.31428275696711</speed>
      </trkpt>
      <trkpt lat="44.15894" lon="5.14792">
        <ele>582</ele>
        <time>2012-01-06T20:26:52Z</time>
        <course>134.050159832927</course>
        <speed>2.22412647364354</speed>
      </trkpt>
      <trkpt lat="44.15874" lon="5.14771">
        <ele>585</ele>
        <time>2012-01-06T20:27:05Z</time>
        <course>153.791240137308</course>
        <speed>2.22441100642808</speed>
      </trkpt>
      <trkpt lat="44.1586" lon="5.14764">
        <ele>588</ele>
        <time>2012-01-06T20:27:12Z</time>
        <course>166.171362612535</course>
        <speed>2.22449477656895</speed>
      </trkpt>
      <trkpt lat="44.15796" lon="5.14748">
        <ele>598</ele>
        <time>2012-01-06T20:27:45Z</time>
        <course>156.003218277659</course>
        <speed>3.45111182178819</speed>
      </trkpt>
      <trkpt lat="44.15723" lon="5.14715">
        <ele>604</ele>
        <time>2012-01-06T20:28:09Z</time>
        <course>171.045798286068</course>
        <speed>3.45215103505639</speed>
      </trkpt>
      <trkpt lat="44.15698" lon="5.14711">
        <ele>606</ele>
        <time>2012-01-06T20:28:17Z</time>
        <course>186.244670819309</course>
        <speed>8.32574657766879</speed>
      </trkpt>
      <trkpt lat="44.1568" lon="5.14713">
        <ele>606</ele>
        <time>2012-01-06T20:28:20Z</time>
        <course>199.424727383433</course>
        <speed>8.3195181510969</speed>
      </trkpt>
      <trkpt lat="44.15599" lon="5.14742">
        <ele>606</ele>
        <time>2012-01-06T20:28:31Z</time>
        <course>245.227819177853</course>
        <speed>2.5696486729286</speed>
      </trkpt>
      <trkpt lat="44.15594" lon="5.14753">
        <ele>607</ele>
        <time>2012-01-06T20:28:35Z</time>
        <course>275.04637565514</course>
        <speed>2.57247874198234</speed>
      </trkpt>
      <trkpt lat="44.15596" lon="5.14776">
        <ele>609</ele>
        <time>2012-01-06T20:28:42Z</time>
        <course>317.498044503116</course>
        <speed>2.5714524115154</speed>
      </trkpt>
      <trkpt lat="44.15668" lon="5.14843">
        <ele>620</ele>
        <time>2012-01-06T20:29:20Z</time>
        <course>300.853889367563</course>
        <speed>2.52896234321977</speed>
      </trkpt>
      <trkpt lat="44.15708" lon="5.14911">
        <ele>628</ele>
        <time>2012-01-06T20:29:47Z</time>
        <course>287.607785275981</course>
        <speed>2.52961658847264</speed>
      </trkpt>
      <trkpt lat="44.15718" lon="5.14943">
        <ele>631</ele>
        <time>2012-01-06T20:29:58Z</time>
        <course>279.053349915639</course>
        <speed>2.52844235453277</speed>
      </trkpt>
      <trkpt lat="44.15726" lon="5.14994">
        <ele>636</ele>
        <time>2012-01-06T20:30:15Z</time>
        <course>265.232471484005</course>
        <speed>2.94949307606095</speed>
      </trkpt>
      <trkpt lat="44.1572" lon="5.15067">
        <ele>641</ele>
        <time>2012-01-06T20:30:35Z</time>
        <course>275.614195463179</course>
        <speed>2.95116099057796</speed>
      </trkpt>
      <trkpt lat="44.15723" lon="5.15098">
        <ele>643</ele>
        <time>2012-01-06T20:30:43Z</time>
        <course>287.083908141911</course>
        <speed>2.9500535797654</speed>
      </trkpt>
      <trkpt lat="44.15759" lon="5.15217">
        <ele>653</ele>
        <time>2012-01-06T20:31:18Z</time>
        <course>298.444222901212</course>
        <speed>3.98049659228603</speed>
      </trkpt>
      <trkpt lat="44.15783" lon="5.15262">
        <ele>655</ele>
        <time>2012-01-06T20:31:29Z</time>
        <course>309.098239091074</course>
        <speed>3.98208791935367</speed>
      </trkpt>
      <trkpt lat="44.15839" lon="5.15332">
        <ele>660</ele>
        <time>2012-01-06T20:31:50Z</time>
        <course>295.309597341766</course>
        <speed>5.75346444985715</speed>
      </trkpt>
      <trkpt lat="44.15866" lon="5.1539">
        <ele>661</ele>
        <time>2012-01-06T20:32:00Z</time>
        <course>313.473194676432</course>
        <speed>5.75410956501499</speed>
      </trkpt>
      <trkpt lat="44.1588" lon="5.15405">
        <ele>661</ele>
        <time>2012-01-06T20:32:03Z</time>
        <course>344.29040330662</course>
        <speed>5.75371147941147</speed>
      </trkpt>
      <trkpt lat="44.15894" lon="5.15409">
        <ele>662</ele>
        <time>2012-01-06T20:32:06Z</time>
        <course>12.7982352970972</course>
        <speed>5.7571018559597</speed>
      </trkpt>
      <trkpt lat="44.15933" lon="5.154">
        <ele>663</ele>
        <time>2012-01-06T20:32:14Z</time>
        <course>360</course>
        <speed>3.42346598195158</speed>
      </trkpt>
      <trkpt lat="44.15957" lon="5.154">
        <ele>664</ele>
        <time>2012-01-06T20:32:21Z</time>
        <course>351.166954522537</course>
        <speed>3.42292643476949</speed>
      </trkpt>
      <trkpt lat="44.16033" lon="5.15412">
        <ele>671</ele>
        <time>2012-01-06T20:32:46Z</time>
        <course>323.937123067385</course>
        <speed>4.49633132430024</speed>
      </trkpt>
      <trkpt lat="44.16083" lon="5.15449">
        <ele>673</ele>
        <time>2012-01-06T20:33:00Z</time>
        <course>318.978352639554</course>
        <speed>4.49676630240882</speed>
      </trkpt>
      <trkpt lat="44.16178" lon="5.15533">
        <ele>679</ele>
        <time>2012-01-06T20:33:28Z</time>
        <course>296.54804859558</course>
        <speed>2.8692680617243</speed>
      </trkpt>
      <trkpt lat="44.16207" lon="5.15592">
        <ele>684</ele>
        <time>2012-01-06T20:33:48Z</time>
        <course>286.961640416911</course>
        <speed>2.8693718869829</speed>
      </trkpt>
      <trkpt lat="44.16231" lon="5.15672">
        <ele>691</ele>
        <time>2012-01-06T20:34:12Z</time>
        <course>275.813078731407</course>
        <speed>8.31644428080888</speed>
      </trkpt>
      <trkpt lat="44.16249" lon="5.15852">
        <ele>691</ele>
        <time>2012-01-06T20:34:29Z</time>
        <course>294.312573221882</course>
        <speed>6.11561292432758</speed>
      </trkpt>
      <trkpt lat="44.16257" lon="5.1587">
        <ele>691</ele>
        <time>2012-01-06T20:34:32Z</time>
        <course>314.137156893129</course>
        <speed>6.11957302785613</speed>
      </trkpt>
      <trkpt lat="44.16278" lon="5.15892">
        <ele>691</ele>
        <time>2012-01-06T20:34:37Z</time>
        <course>324.29090866895</course>
        <speed>6.12014022235991</speed>
      </trkpt>
      <trkpt lat="44.1633" lon="5.1593">
        <ele>693</ele>
        <time>2012-01-06T20:34:48Z</time>
        <course>351.172543819974</course>
        <speed>3.53736946618724</speed>
      </trkpt>
      <trkpt lat="44.16387" lon="5.15939">
        <ele>697</ele>
        <time>2012-01-06T20:35:06Z</time>
        <course>330.479170109514</course>
        <speed>3.53917402813371</speed>
      </trkpt>
      <trkpt lat="44.1642" lon="5.15958">
        <ele>700</ele>
        <time>2012-01-06T20:35:17Z</time>
        <course>301.756694253763</course>
        <speed>3.31647402612926</speed>
      </trkpt>
      <trkpt lat="44.16448" lon="5.16004">
        <ele>703</ele>
        <time>2012-01-06T20:35:31Z</time>
        <course>293.73777466593</course>
        <speed>3.31767813216443</speed>
      </trkpt>
      <trkpt lat="44.16464" lon="5.16041">
        <ele>706</ele>
        <time>2012-01-06T20:35:42Z</time>
        <course>284.498188976382</course>
        <speed>3.31753536347799</speed>
      </trkpt>
      <trkpt lat="44.16479" lon="5.161">
        <ele>710</ele>
        <time>2012-01-06T20:35:57Z</time>
        <course>278.269964806048</course>
        <speed>2.59884943147803</speed>
      </trkpt>
      <trkpt lat="44.16491" lon="5.16184">
        <ele>717</ele>
        <time>2012-01-06T20:36:23Z</time>
        <course>285.9626138959</course>
        <speed>2.59941449081587</speed>
      </trkpt>
      <trkpt lat="44.165" lon="5.16216">
        <ele>720</ele>
        <time>2012-01-06T20:36:34Z</time>
        <course>301.396299645687</course>
        <speed>2.59923644543774</speed>
      </trkpt>
      <trkpt lat="44.1656" lon="5.16316">
        <ele>732</ele>
        <time>2012-01-06T20:37:14Z</time>
        <course>289.903529365656</course>
        <speed>4.5219385234848</speed>
      </trkpt>
      <trkpt lat="44.16581" lon="5.16375">
        <ele>734</ele>
        <time>2012-01-06T20:37:25Z</time>
        <course>278.346406685085</course>
        <speed>4.52360316453371</speed>
      </trkpt>
      <trkpt lat="44.16597" lon="5.16486">
        <ele>738</ele>
        <time>2012-01-06T20:37:45Z</time>
        <course>275.035637226745</course>
        <speed>3.05407745981246</speed>
      </trkpt>
      <trkpt lat="44.16606" lon="5.1659">
        <ele>745</ele>
        <time>2012-01-06T20:38:12Z</time>
        <course>281.607083611203</course>
        <speed>3.05436209143595</speed>
      </trkpt>
      <trkpt lat="44.16628" lon="5.16699">
        <ele>753</ele>
        <time>2012-01-06T20:38:42Z</time>
        <course>290.676957834407</course>
        <speed>3.47296075763753</speed>
      </trkpt>
      <trkpt lat="44.16651" lon="5.16761">
        <ele>756</ele>
        <time>2012-01-06T20:38:58Z</time>
        <course>296.963824341849</course>
        <speed>3.47279745066332</speed>
      </trkpt>
      <trkpt lat="44.16696" lon="5.16851">
        <ele>763</ele>
        <time>2012-01-06T20:39:23Z</time>
        <course>286.800842702838</course>
        <speed>6.32506189112702</speed>
      </trkpt>
      <trkpt lat="44.16723" lon="5.16942">
        <ele>764</ele>
        <time>2012-01-06T20:39:36Z</time>
        <course>275.812177545408</course>
        <speed>6.32856059327403</speed>
      </trkpt>
      <trkpt lat="44.16729" lon="5.17002">
        <ele>765</ele>
        <time>2012-01-06T20:39:43Z</time>
        <course>265.385714798638</course>
        <speed>5.01219280614525</speed>
      </trkpt>
      <trkpt lat="44.16717" lon="5.17153">
        <ele>769</ele>
        <time>2012-01-06T20:40:07Z</time>
        <course>269.55441723742</course>
        <speed>4.18844099830896</speed>
      </trkpt>
      <trkpt lat="44.16715" lon="5.17407">
        <ele>779</ele>
        <time>2012-01-06T20:40:56Z</time>
        <course>273.56197923808</course>
        <speed>2.86323757194106</speed>
      </trkpt>
      <trkpt lat="44.16723" lon="5.17538">
        <ele>789</ele>
        <time>2012-01-06T20:41:32Z</time>
        <course>285.092314117062</course>
        <speed>2.81711731947044</speed>
      </trkpt>
      <trkpt lat="44.16754" lon="5.17655">
        <ele>798</ele>
        <time>2012-01-06T20:42:08Z</time>
        <course>271.389876659646</course>
        <speed>2.81710402619625</speed>
      </trkpt>
      <trkpt lat="44.16755" lon="5.17697">
        <ele>802</ele>
        <time>2012-01-06T20:42:19Z</time>
        <course>271.389876659646</course>
        <speed>2.81710402619625</speed>
      </trkpt>
      <trkpt lat="44.16755" lon="5.17697">
        <ele>802</ele>
        <time>2012-01-06T20:42:20Z</time>
        <course>260.716661358319</course>
        <speed>1.81374193491511</speed>
      </trkpt>
      <trkpt lat="44.16746" lon="5.17753">
        <ele>810</ele>
        <time>2012-01-06T20:42:46Z</time>
        <course>246.784740422289</course>
        <speed>1.81380481696048</speed>
      </trkpt>
      <trkpt lat="44.16711" lon="5.17836">
        <ele>824</ele>
        <time>2012-01-06T20:43:28Z</time>
        <course>253.030236560553</course>
        <speed>3.30709674442967</speed>
      </trkpt>
      <trkpt lat="44.16699" lon="5.17876">
        <ele>826</ele>
        <time>2012-01-06T20:43:38Z</time>
        <course>259.275382309759</course>
        <speed>3.30703210098005</speed>
      </trkpt>
      <trkpt lat="44.1668" lon="5.17978">
        <ele>833</ele>
        <time>2012-01-06T20:44:04Z</time>
        <course>266.938297803009</course>
        <speed>7.54233373628562</speed>
      </trkpt>
      <trkpt lat="44.16677" lon="5.18035">
        <ele>833</ele>
        <time>2012-01-06T20:44:10Z</time>
        <course>285.850954277485</course>
        <speed>7.55172870431461</speed>
      </trkpt>
      <trkpt lat="44.16689" lon="5.18078">
        <ele>833</ele>
        <time>2012-01-06T20:44:15Z</time>
        <course>294.201750252876</course>
        <speed>7.54373787665868</speed>
      </trkpt>
      <trkpt lat="44.16742" lon="5.18198">
        <ele>834</ele>
        <time>2012-01-06T20:44:30Z</time>
        <course>290.208648205938</course>
        <speed>6.20185376493589</speed>
      </trkpt>
      <trkpt lat="44.16776" lon="5.18292">
        <ele>835</ele>
        <time>2012-01-06T20:44:43Z</time>
        <course>284.623848710439</course>
        <speed>6.2052567369091</speed>
      </trkpt>
      <trkpt lat="44.16786" lon="5.18331">
        <ele>836</ele>
        <time>2012-01-06T20:44:49Z</time>
        <course>279.42185939362</course>
        <speed>4.36666741072595</speed>
      </trkpt>
      <trkpt lat="44.16808" lon="5.18466">
        <ele>841</ele>
        <time>2012-01-06T20:45:14Z</time>
        <course>282.965647380885</course>
        <speed>3.48921920801293</speed>
      </trkpt>
      <trkpt lat="44.16827" lon="5.1855">
        <ele>845</ele>
        <time>2012-01-06T20:45:34Z</time>
        <course>302.62181134173</course>
        <speed>3.48780958001373</speed>
      </trkpt>
      <trkpt lat="44.16888" lon="5.18647">
        <ele>853</ele>
        <time>2012-01-06T20:46:03Z</time>
        <course>285.973885079582</course>
        <speed>3.1132080134425</speed>
      </trkpt>
      <trkpt lat="44.16897" lon="5.18679">
        <ele>855</ele>
        <time>2012-01-06T20:46:12Z</time>
        <course>274.158347614689</course>
        <speed>3.11497140654764</speed>
      </trkpt>
      <trkpt lat="44.16898" lon="5.18693">
        <ele>856</ele>
        <time>2012-01-06T20:46:16Z</time>
        <course>258.858764882171</course>
        <speed>3.1134169824422</speed>
      </trkpt>
      <trkpt lat="44.16892" lon="5.18724">
        <ele>858</ele>
        <time>2012-01-06T20:46:24Z</time>
        <course>244.648994887654</course>
        <speed>3.11308079548442</speed>
      </trkpt>
      <trkpt lat="44.16824" lon="5.1887">
        <ele>870</ele>
        <time>2012-01-06T20:47:09Z</time>
        <course>253.339770400807</course>
        <speed>2.29543569960506</speed>
      </trkpt>
      <trkpt lat="44.16819" lon="5.18887">
        <ele>871</ele>
        <time>2012-01-06T20:47:15Z</time>
        <course>266.576469853266</course>
        <speed>2.29654169943387</speed>
      </trkpt>
      <trkpt lat="44.16817" lon="5.18921">
        <ele>875</ele>
        <time>2012-01-06T20:47:27Z</time>
        <course>294.521075287969</course>
        <speed>2.29632887438492</speed>
      </trkpt>
      <trkpt lat="44.1683" lon="5.1895">
        <ele>879</ele>
        <time>2012-01-06T20:47:39Z</time>
        <course>311.512064397496</course>
        <speed>2.29629432412964</speed>
      </trkpt>
      <trkpt lat="44.1693" lon="5.19065">
        <ele>898</ele>
        <time>2012-01-06T20:48:41Z</time>
        <course>291.193164608466</course>
        <speed>2.7707827630557</speed>
      </trkpt>
      <trkpt lat="44.16938" lon="5.19086">
        <ele>899</ele>
        <time>2012-01-06T20:48:48Z</time>
        <course>256.199342931548</course>
        <speed>2.77136513380604</speed>
      </trkpt>
      <trkpt lat="44.16931" lon="5.19115">
        <ele>902</ele>
        <time>2012-01-06T20:48:57Z</time>
        <course>223.527888451317</course>
        <speed>2.76897959029318</speed>
      </trkpt>
      <trkpt lat="44.16901" lon="5.19144">
        <ele>906</ele>
        <time>2012-01-06T20:49:12Z</time>
        <course>206.648110464547</course>
        <speed>2.76989418774344</speed>
      </trkpt>
      <trkpt lat="44.16854" lon="5.19168">
        <ele>912</ele>
        <time>2012-01-06T20:49:32Z</time>
        <course>194.721995541743</course>
        <speed>8.31702381980455</speed>
      </trkpt>
      <trkpt lat="44.16753" lon="5.19195">
        <ele>910</ele>
        <time>2012-01-06T20:49:46Z</time>
        <course>206.172323492315</course>
        <speed>8.30507190232914</speed>
      </trkpt>
      <trkpt lat="44.16739" lon="5.19202">
        <ele>909</ele>
        <time>2012-01-06T20:49:48Z</time>
        <course>222.12446494014</course>
        <speed>8.32096740786801</speed>
      </trkpt>
      <trkpt lat="44.16714" lon="5.19225">
        <ele>909</ele>
        <time>2012-01-06T20:49:52Z</time>
        <course>247.544470677593</course>
        <speed>8.31883720407485</speed>
      </trkpt>
      <trkpt lat="44.16651" lon="5.1938">
        <ele>908</ele>
        <time>2012-01-06T20:50:09Z</time>
        <course>260.379464799005</course>
        <speed>6.18375272943723</speed>
      </trkpt>
      <trkpt lat="44.16646" lon="5.1941">
        <ele>908</ele>
        <time>2012-01-06T20:50:13Z</time>
        <course>272.912609325711</course>
        <speed>6.1700261439355</speed>
      </trkpt>
      <trkpt lat="44.16647" lon="5.1943">
        <ele>908</ele>
        <time>2012-01-06T20:50:15Z</time>
        <course>294.596757011889</course>
        <speed>6.19044475629619</speed>
      </trkpt>
      <trkpt lat="44.16656" lon="5.1945">
        <ele>909</ele>
        <time>2012-01-06T20:50:18Z</time>
        <course>314.021419151826</course>
        <speed>6.18115888166494</speed>
      </trkpt>
      <trkpt lat="44.16675" lon="5.1947">
        <ele>909</ele>
        <time>2012-01-06T20:50:22Z</time>
        <course>333.828549830495</course>
        <speed>6.18241680205585</speed>
      </trkpt>
      <trkpt lat="44.16749" lon="5.19507">
        <ele>911</ele>
        <time>2012-01-06T20:50:37Z</time>
        <course>337.250727583672</course>
        <speed>2.80130413643772</speed>
      </trkpt>
      <trkpt lat="44.16906" lon="5.19574">
        <ele>929</ele>
        <time>2012-01-06T20:51:42Z</time>
        <course>326.138890446982</course>
        <speed>8.31666778447679</speed>
      </trkpt>
      <trkpt lat="44.16947" lon="5.19602">
        <ele>927</ele>
        <time>2012-01-06T20:51:48Z</time>
        <course>309.59121497403</course>
        <speed>8.32367255766051</speed>
      </trkpt>
      <trkpt lat="44.16973" lon="5.19634">
        <ele>926</ele>
        <time>2012-01-06T20:51:52Z</time>
        <course>279.954928750561</course>
        <speed>8.31207494005981</speed>
      </trkpt>
      <trkpt lat="44.16978" lon="5.19663">
        <ele>926</ele>
        <time>2012-01-06T20:51:55Z</time>
        <course>253.336181475911</course>
        <speed>3.62938234114141</speed>
      </trkpt>
      <trkpt lat="44.16968" lon="5.19697">
        <ele>927</ele>
        <time>2012-01-06T20:52:03Z</time>
        <course>238.186602531577</course>
        <speed>3.62945236353827</speed>
      </trkpt>
      <trkpt lat="44.16868" lon="5.19861">
        <ele>939</ele>
        <time>2012-01-06T20:52:51Z</time>
        <course>260.175716717627</course>
        <speed>7.15648434516545</speed>
      </trkpt>
      <trkpt lat="44.1686" lon="5.19908">
        <ele>939</ele>
        <time>2012-01-06T20:52:56Z</time>
        <course>275.960488241264</course>
        <speed>7.16925170291194</speed>
      </trkpt>
      <trkpt lat="44.16864" lon="5.19947">
        <ele>939</ele>
        <time>2012-01-06T20:53:00Z</time>
        <course>282.475407927404</course>
        <speed>7.17441866829231</speed>
      </trkpt>
      <trkpt lat="44.16869" lon="5.1997">
        <ele>939</ele>
        <time>2012-01-06T20:53:03Z</time>
        <course>291.88735800501</course>
        <speed>7.1576545686113</speed>
      </trkpt>
      <trkpt lat="44.16884" lon="5.20008">
        <ele>940</ele>
        <time>2012-01-06T20:53:08Z</time>
        <course>299.681554331347</course>
        <speed>2.17741865156695</speed>
      </trkpt>
      <trkpt lat="44.16912" lon="5.20058">
        <ele>947</ele>
        <time>2012-01-06T20:53:31Z</time>
        <course>308.537891746479</course>
        <speed>2.17750441364927</speed>
      </trkpt>
      <trkpt lat="44.1693" lon="5.20081">
        <ele>950</ele>
        <time>2012-01-06T20:53:44Z</time>
        <course>318.868305489708</course>
        <speed>2.17758916906763</speed>
      </trkpt>
      <trkpt lat="44.16957" lon="5.20105">
        <ele>956</ele>
        <time>2012-01-06T20:54:00Z</time>
        <course>335.556635179566</course>
        <speed>5.07395403271566</speed>
      </trkpt>
      <trkpt lat="44.17024" lon="5.20136">
        <ele>958</ele>
        <time>2012-01-06T20:54:15Z</time>
        <course>328.184380009193</course>
        <speed>5.07180924623893</speed>
      </trkpt>
      <trkpt lat="44.17062" lon="5.2016">
        <ele>960</ele>
        <time>2012-01-06T20:54:25Z</time>
        <course>307.900926999411</course>
        <speed>3.41476540287941</speed>
      </trkpt>
      <trkpt lat="44.17075" lon="5.20177">
        <ele>961</ele>
        <time>2012-01-06T20:54:30Z</time>
        <course>296.313204001254</course>
        <speed>3.41339121454017</speed>
      </trkpt>
      <trkpt lat="44.17092" lon="5.20212">
        <ele>963</ele>
        <time>2012-01-06T20:54:40Z</time>
        <course>284.280326787585</course>
        <speed>3.41030184702531</speed>
      </trkpt>
      <trkpt lat="44.17096" lon="5.20228">
        <ele>964</ele>
        <time>2012-01-06T20:54:44Z</time>
        <course>268.646034522014</course>
        <speed>3.41534140038367</speed>
      </trkpt>
      <trkpt lat="44.17095" lon="5.20271">
        <ele>967</ele>
        <time>2012-01-06T20:54:54Z</time>
        <course>260.046005407802</course>
        <speed>3.41552995803001</speed>
      </trkpt>
      <trkpt lat="44.1709" lon="5.203">
        <ele>969</ele>
        <time>2012-01-06T20:55:01Z</time>
        <course>253.467725765368</course>
        <speed>2.17193270026319</speed>
      </trkpt>
      <trkpt lat="44.17062" lon="5.20396">
        <ele>980</ele>
        <time>2012-01-06T20:55:39Z</time>
        <course>265.985599049615</course>
        <speed>2.17216260685155</speed>
      </trkpt>
      <trkpt lat="44.1706" lon="5.20425">
        <ele>984</ele>
        <time>2012-01-06T20:55:50Z</time>
        <course>276.700731227924</course>
        <speed>3.52758912406784</speed>
      </trkpt>
      <trkpt lat="44.17063" lon="5.20451">
        <ele>985</ele>
        <time>2012-01-06T20:55:56Z</time>
        <course>286.840528817857</course>
        <speed>3.52738504850522</speed>
      </trkpt>
      <trkpt lat="44.17074" lon="5.20488">
        <ele>987</ele>
        <time>2012-01-06T20:56:05Z</time>
        <course>298.802303571112</course>
        <speed>3.5252659883829</speed>
      </trkpt>
      <trkpt lat="44.17101" lon="5.20538">
        <ele>991</ele>
        <time>2012-01-06T20:56:19Z</time>
        <course>294.104813247709</course>
        <speed>2.69385025149982</speed>
      </trkpt>
      <trkpt lat="44.1713" lon="5.20604">
        <ele>997</ele>
        <time>2012-01-06T20:56:42Z</time>
        <course>287.658706291257</course>
        <speed>2.69365474878009</speed>
      </trkpt>
      <trkpt lat="44.1718" lon="5.20764">
        <ele>1012</ele>
        <time>2012-01-06T20:57:34Z</time>
        <course>283.314334404092</course>
        <speed>2.51602303224813</speed>
      </trkpt>
      <trkpt lat="44.17216" lon="5.20919">
        <ele>1027</ele>
        <time>2012-01-06T20:58:25Z</time>
        <course>280.096394051547</course>
        <speed>1.84089269549831</speed>
      </trkpt>
      <trkpt lat="44.17245" lon="5.21085">
        <ele>1051</ele>
        <time>2012-01-06T20:59:39Z</time>
        <course>274.897723644543</course>
        <speed>2.18068199496023</speed>
      </trkpt>
      <trkpt lat="44.17255" lon="5.21204">
        <ele>1064</ele>
        <time>2012-01-06T21:00:23Z</time>
        <course>279.635637426897</course>
        <speed>2.18075181019564</speed>
      </trkpt>
      <trkpt lat="44.17263" lon="5.21252">
        <ele>1070</ele>
        <time>2012-01-06T21:00:41Z</time>
        <course>284.65297661373</course>
        <speed>2.58095896806411</speed>
      </trkpt>
      <trkpt lat="44.17312" lon="5.21443">
        <ele>1088</ele>
        <time>2012-01-06T21:01:44Z</time>
        <course>287.193998297511</course>
        <speed>2.54741348036468</speed>
      </trkpt>
      <trkpt lat="44.1738" lon="5.21667">
        <ele>1110</ele>
        <time>2012-01-06T21:03:00Z</time>
        <course>287.193998297511</course>
        <speed>2.54741348036468</speed>
      </trkpt>
      <trkpt lat="44.1738" lon="5.21667">
        <ele>1110</ele>
        <time>2012-01-06T21:03:01Z</time>
        <course>283.035884980058</course>
        <speed>3.11216520871999</speed>
      </trkpt>
      <trkpt lat="44.17385" lon="5.21689">
        <ele>1111</ele>
        <time>2012-01-06T21:03:07Z</time>
        <course>270.001854389791</course>
        <speed>3.11107633597443</speed>
      </trkpt>
      <trkpt lat="44.17385" lon="5.21723">
        <ele>1113</ele>
        <time>2012-01-06T21:03:15Z</time>
        <course>251.246490130186</course>
        <speed>3.10792526212376</speed>
      </trkpt>
      <trkpt lat="44.17379" lon="5.21741">
        <ele>1115</ele>
        <time>2012-01-06T21:03:20Z</time>
        <course>238.789013838843</course>
        <speed>3.11040147783336</speed>
      </trkpt>
      <trkpt lat="44.17332" lon="5.2182">
        <ele>1122</ele>
        <time>2012-01-06T21:03:47Z</time>
        <course>260.066156533577</course>
        <speed>3.36227847437198</speed>
      </trkpt>
      <trkpt lat="44.17316" lon="5.21913">
        <ele>1127</ele>
        <time>2012-01-06T21:04:09Z</time>
        <course>266.767370754521</course>
        <speed>3.36319476727352</speed>
      </trkpt>
      <trkpt lat="44.1731" lon="5.22021">
        <ele>1134</ele>
        <time>2012-01-06T21:04:35Z</time>
        <course>278.279084423607</course>
        <speed>4.2137394478993</speed>
      </trkpt>
      <trkpt lat="44.17312" lon="5.22035">
        <ele>1134</ele>
        <time>2012-01-06T21:04:38Z</time>
        <course>286.226030952359</course>
        <speed>4.20933452517253</speed>
      </trkpt>
      <trkpt lat="44.17318" lon="5.22056">
        <ele>1135</ele>
        <time>2012-01-06T21:04:42Z</time>
        <course>301.629260158523</course>
        <speed>4.21276926084884</speed>
      </trkpt>
      <trkpt lat="44.17344" lon="5.22099">
        <ele>1137</ele>
        <time>2012-01-06T21:04:53Z</time>
        <course>282.103827919303</course>
        <speed>4.20844308344337</speed>
      </trkpt>
      <trkpt lat="44.17348" lon="5.22118">
        <ele>1138</ele>
        <time>2012-01-06T21:04:56Z</time>
        <course>259.895551805046</course>
        <speed>4.21242888129779</speed>
      </trkpt>
      <trkpt lat="44.17341" lon="5.22158">
        <ele>1140</ele>
        <time>2012-01-06T21:05:04Z</time>
        <course>230.826777139352</course>
        <speed>1.52415322773456</speed>
      </trkpt>
      <trkpt lat="44.17329" lon="5.22173">
        <ele>1144</ele>
        <time>2012-01-06T21:05:16Z</time>
        <course>230.826777139352</course>
        <speed>1.52415322773456</speed>
      </trkpt>
      <trkpt lat="44.17329" lon="5.22173">
        <ele>1144</ele>
        <time>2012-01-06T21:05:17Z</time>
        <course>182.958319006467</course>
        <speed>2.25966178230944</speed>
      </trkpt>
      <trkpt lat="44.17291" lon="5.22175">
        <ele>1149</ele>
        <time>2012-01-06T21:05:36Z</time>
        <course>170.097477991165</course>
        <speed>2.25947389241595</speed>
      </trkpt>
      <trkpt lat="44.17246" lon="5.22167">
        <ele>1156</ele>
        <time>2012-01-06T21:05:58Z</time>
        <course>141.635736635846</course>
        <speed>2.25946303430013</speed>
      </trkpt>
      <trkpt lat="44.17179" lon="5.22113">
        <ele>1168</ele>
        <time>2012-01-06T21:06:36Z</time>
        <course>123.08737434567</course>
        <speed>2.58762677061783</speed>
      </trkpt>
      <trkpt lat="44.17147" lon="5.22063">
        <ele>1173</ele>
        <time>2012-01-06T21:06:57Z</time>
        <course>149.48875922024</course>
        <speed>2.59043179631654</speed>
      </trkpt>
      <trkpt lat="44.17137" lon="5.22057">
        <ele>1175</ele>
        <time>2012-01-06T21:07:01Z</time>
        <course>230.205614466276</course>
        <speed>2.58747470984824</speed>
      </trkpt>
      <trkpt lat="44.17128" lon="5.22068">
        <ele>1176</ele>
        <time>2012-01-06T21:07:06Z</time>
        <course>279.631656018194</course>
        <speed>2.588499011656</speed>
      </trkpt>
      <trkpt lat="44.17131" lon="5.22086">
        <ele>1178</ele>
        <time>2012-01-06T21:07:12Z</time>
        <course>293.117242456692</course>
        <speed>2.58797995971815</speed>
      </trkpt>
      <trkpt lat="44.17188" lon="5.22222">
        <ele>1192</ele>
        <time>2012-01-06T21:08:01Z</time>
        <course>288.641393707218</course>
        <speed>2.58793694781571</speed>
      </trkpt>
      <trkpt lat="44.17238" lon="5.22373">
        <ele>1207</ele>
        <time>2012-01-06T21:08:52Z</time>
        <course>293.906168290706</course>
        <speed>7.1497140841555</speed>
      </trkpt>
      <trkpt lat="44.17295" lon="5.22504">
        <ele>1208</ele>
        <time>2012-01-06T21:09:09Z</time>
        <course>282.956301990296</course>
        <speed>2.42394541752712</speed>
      </trkpt>
      <trkpt lat="44.17346" lon="5.2273">
        <ele>1231</ele>
        <time>2012-01-06T21:10:27Z</time>
        <course>288.378753733385</course>
        <speed>2.98094836953687</speed>
      </trkpt>
      <trkpt lat="44.17376" lon="5.22822">
        <ele>1238</ele>
        <time>2012-01-06T21:10:54Z</time>
        <course>293.862662275565</course>
        <speed>2.98129379029839</speed>
      </trkpt>
      <trkpt lat="44.17432" lon="5.22951">
        <ele>1249</ele>
        <time>2012-01-06T21:11:34Z</time>
        <course>299.099486202973</course>
        <speed>2.64364262505799</speed>
      </trkpt>
      <trkpt lat="44.17503" lon="5.23081">
        <ele>1263</ele>
        <time>2012-01-06T21:12:23Z</time>
        <course>290.990712732016</course>
        <speed>2.93469526614307</speed>
      </trkpt>
      <trkpt lat="44.17535" lon="5.23166">
        <ele>1270</ele>
        <time>2012-01-06T21:12:50Z</time>
        <course>282.813221316505</course>
        <speed>2.93483755191106</speed>
      </trkpt>
      <trkpt lat="44.17564" lon="5.23296">
        <ele>1280</ele>
        <time>2012-01-06T21:13:26Z</time>
        <course>277.261549244224</course>
        <speed>3.04077805566712</speed>
      </trkpt>
      <trkpt lat="44.1757" lon="5.23344">
        <ele>1283</ele>
        <time>2012-01-06T21:13:39Z</time>
        <course>270.536808546163</course>
        <speed>3.03996482696867</speed>
      </trkpt>
      <trkpt lat="44.17571" lon="5.23454">
        <ele>1291</ele>
        <time>2012-01-06T21:14:08Z</time>
        <course>260.037060383438</course>
        <speed>1.36532307010559</speed>
      </trkpt>
      <trkpt lat="44.17566" lon="5.23483">
        <ele>1297</ele>
        <time>2012-01-06T21:14:26Z</time>
        <course>250.931665995169</course>
        <speed>1.3653700298164</speed>
      </trkpt>
      <trkpt lat="44.17547" lon="5.23539">
        <ele>1309</ele>
        <time>2012-01-06T21:15:02Z</time>
        <course>267.223256556587</course>
        <speed>1.36477345579127</speed>
      </trkpt>
      <trkpt lat="44.17546" lon="5.2356">
        <ele>1313</ele>
        <time>2012-01-06T21:15:14Z</time>
        <course>279.965749034094</course>
        <speed>1.36532744777639</speed>
      </trkpt>
      <trkpt lat="44.17551" lon="5.23589">
        <ele>1320</ele>
        <time>2012-01-06T21:15:31Z</time>
        <course>298.594411544347</course>
        <speed>8.31715165961766</speed>
      </trkpt>
      <trkpt lat="44.17574" lon="5.23632">
        <ele>1316</ele>
        <time>2012-01-06T21:15:37Z</time>
        <course>305.896194454369</course>
        <speed>8.32105630229513</speed>
      </trkpt>
      <trkpt lat="44.17623" lon="5.23701">
        <ele>1310</ele>
        <time>2012-01-06T21:15:46Z</time>
        <course>299.825528802331</course>
        <speed>8.31037596797941</speed>
      </trkpt>
      <trkpt lat="44.17641" lon="5.23733">
        <ele>1309</ele>
        <time>2012-01-06T21:15:50Z</time>
        <course>294.80229808372</course>
        <speed>8.31887851302813</speed>
      </trkpt>
      <trkpt lat="44.17675" lon="5.23808">
        <ele>1307</ele>
        <time>2012-01-06T21:15:58Z</time>
        <course>286.518224187453</course>
        <speed>1.42086250765732</speed>
      </trkpt>
      <trkpt lat="44.17691" lon="5.23863">
        <ele>1318</ele>
        <time>2012-01-06T21:16:32Z</time>
        <course>272.246377183898</course>
        <speed>1.42028033951298</speed>
      </trkpt>
      <trkpt lat="44.17692" lon="5.23889">
        <ele>1323</ele>
        <time>2012-01-06T21:16:46Z</time>
        <course>257.681174338649</course>
        <speed>1.42093688919953</speed>
      </trkpt>
      <trkpt lat="44.17686" lon="5.23917">
        <ele>1329</ele>
        <time>2012-01-06T21:17:03Z</time>
        <course>247.662243465383</course>
        <speed>1.42066542618794</speed>
      </trkpt>
      <trkpt lat="44.17661" lon="5.23979">
        <ele>1343</ele>
        <time>2012-01-06T21:17:42Z</time>
        <course>254.468895974271</course>
        <speed>8.31828630799603</speed>
      </trkpt>
      <trkpt lat="44.17649" lon="5.24023">
        <ele>1342</ele>
        <time>2012-01-06T21:17:47Z</time>
        <course>258.912558371962</course>
        <speed>8.3149761547219</speed>
      </trkpt>
      <trkpt lat="44.17644" lon="5.24049">
        <ele>1341</ele>
        <time>2012-01-06T21:17:49Z</time>
        <course>277.261788953453</course>
        <speed>8.32373652511001</speed>
      </trkpt>
      <trkpt lat="44.17648" lon="5.24081">
        <ele>1341</ele>
        <time>2012-01-06T21:17:53Z</time>
        <course>305.01889775975</course>
        <speed>8.33183669478013</speed>
      </trkpt>
      <trkpt lat="44.17659" lon="5.24097">
        <ele>1341</ele>
        <time>2012-01-06T21:17:55Z</time>
        <course>316.161234368951</course>
        <speed>8.31618224634149</speed>
      </trkpt>
      <trkpt lat="44.17754" lon="5.2419">
        <ele>1339</ele>
        <time>2012-01-06T21:18:10Z</time>
        <course>299.902804123284</course>
        <speed>3.28973398262832</speed>
      </trkpt>
      <trkpt lat="44.17776" lon="5.24229">
        <ele>1342</ele>
        <time>2012-01-06T21:18:22Z</time>
        <course>293.605498185462</course>
        <speed>3.28907392574777</speed>
      </trkpt>
      <trkpt lat="44.17812" lon="5.24313">
        <ele>1348</ele>
        <time>2012-01-06T21:18:46Z</time>
        <course>287.37483857128</course>
        <speed>2.49517929883361</speed>
      </trkpt>
      <trkpt lat="44.17839" lon="5.24401">
        <ele>1356</ele>
        <time>2012-01-06T21:19:17Z</time>
        <course>280.824148426489</course>
        <speed>2.49372481765748</speed>
      </trkpt>
      <trkpt lat="44.17845" lon="5.24433">
        <ele>1360</ele>
        <time>2012-01-06T21:19:27Z</time>
        <course>271.363061384751</course>
        <speed>1.66880839805922</speed>
      </trkpt>
      <trkpt lat="44.17847" lon="5.24519">
        <ele>1373</ele>
        <time>2012-01-06T21:20:08Z</time>
        <course>282.325747095647</course>
        <speed>1.66823580498503</speed>
      </trkpt>
      <trkpt lat="44.17853" lon="5.24547">
        <ele>1378</ele>
        <time>2012-01-06T21:20:22Z</time>
        <course>306.918972317347</course>
        <speed>1.66863494742015</speed>
      </trkpt>
      <trkpt lat="44.17881" lon="5.24585">
        <ele>1387</ele>
        <time>2012-01-06T21:20:48Z</time>
        <course>316.621578944745</course>
        <speed>5.6068318237041</speed>
      </trkpt>
      <trkpt lat="44.17936" lon="5.24638">
        <ele>1388</ele>
        <time>2012-01-06T21:21:01Z</time>
        <course>303.629078190224</course>
        <speed>5.60506498439783</speed>
      </trkpt>
      <trkpt lat="44.17966" lon="5.24684">
        <ele>1390</ele>
        <time>2012-01-06T21:21:10Z</time>
        <course>297.514546914322</course>
        <speed>7.39210620130861</speed>
      </trkpt>
      <trkpt lat="44.18014" lon="5.24778">
        <ele>1390</ele>
        <time>2012-01-06T21:21:23Z</time>
        <course>290.166057970494</course>
        <speed>7.38951266992153</speed>
      </trkpt>
      <trkpt lat="44.18041" lon="5.24853">
        <ele>1391</ele>
        <time>2012-01-06T21:21:32Z</time>
        <course>280.699153630729</course>
        <speed>8.32282506099079</speed>
      </trkpt>
      <trkpt lat="44.18051" lon="5.24907">
        <ele>1389</ele>
        <time>2012-01-06T21:21:37Z</time>
        <course>275.604282451744</course>
        <speed>8.31198983614668</speed>
      </trkpt>
      <trkpt lat="44.18056" lon="5.24959">
        <ele>1388</ele>
        <time>2012-01-06T21:21:42Z</time>
        <course>262.306289880184</course>
        <speed>8.31424040999465</speed>
      </trkpt>
      <trkpt lat="44.18045" lon="5.25042">
        <ele>1386</ele>
        <time>2012-01-06T21:21:50Z</time>
        <course>266.530487311134</course>
        <speed>4.21389072639836</speed>
      </trkpt>
      <trkpt lat="44.1804" lon="5.25126">
        <ele>1389</ele>
        <time>2012-01-06T21:22:06Z</time>
        <course>253.381005240777</course>
        <speed>4.21110230423971</speed>
      </trkpt>
      <trkpt lat="44.18028" lon="5.25167">
        <ele>1391</ele>
        <time>2012-01-06T21:22:15Z</time>
        <course>224.43742232125</course>
        <speed>1.60808893004263</speed>
      </trkpt>
      <trkpt lat="44.17998" lon="5.25197">
        <ele>1399</ele>
        <time>2012-01-06T21:22:40Z</time>
        <course>241.889699518841</course>
        <speed>1.60772246795871</speed>
      </trkpt>
      <trkpt lat="44.17987" lon="5.25218">
        <ele>1403</ele>
        <time>2012-01-06T21:22:53Z</time>
        <course>258.472506094692</course>
        <speed>1.60747208416738</speed>
      </trkpt>
      <trkpt lat="44.17984" lon="5.25233">
        <ele>1406</ele>
        <time>2012-01-06T21:23:01Z</time>
        <course>269.283207990957</course>
        <speed>1.60793924821044</speed>
      </trkpt>
      <trkpt lat="44.17983" lon="5.25314">
        <ele>1420</ele>
        <time>2012-01-06T21:23:41Z</time>
        <course>275.824210419323</course>
        <speed>4.76102705432871</speed>
      </trkpt>
      <trkpt lat="44.17985" lon="5.25334">
        <ele>1420</ele>
        <time>2012-01-06T21:23:44Z</time>
        <course>284.948871512747</course>
        <speed>4.75970939481272</speed>
      </trkpt>
      <trkpt lat="44.18013" lon="5.25441">
        <ele>1424</ele>
        <time>2012-01-06T21:24:03Z</time>
        <course>294.873322590792</course>
        <speed>8.30267221159302</speed>
      </trkpt>
      <trkpt lat="44.18023" lon="5.25463">
        <ele>1423</ele>
        <time>2012-01-06T21:24:06Z</time>
        <course>321.891527404684</course>
        <speed>8.31877261507189</speed>
      </trkpt>
      <trkpt lat="44.18043" lon="5.25479">
        <ele>1422</ele>
        <time>2012-01-06T21:24:09Z</time>
        <course>337.955885928933</course>
        <speed>8.31677486134588</speed>
      </trkpt>
      <trkpt lat="44.18089" lon="5.25498">
        <ele>1421</ele>
        <time>2012-01-06T21:24:15Z</time>
        <course>308.602143154982</course>
        <speed>8.32185064986322</speed>
      </trkpt>
      <trkpt lat="44.18107" lon="5.25521">
        <ele>1421</ele>
        <time>2012-01-06T21:24:19Z</time>
        <course>256.754265377623</course>
        <speed>7.15966077136966</speed>
      </trkpt>
      <trkpt lat="44.18104" lon="5.25534">
        <ele>1421</ele>
        <time>2012-01-06T21:24:20Z</time>
        <course>307.418458758324</course>
        <speed>7.20672627685417</speed>
      </trkpt>
      <trkpt lat="44.18107" lon="5.25538">
        <ele>1421</ele>
        <time>2012-01-06T21:24:21Z</time>
        <course>274.324239612372</course>
        <speed>7.15054984740366</speed>
      </trkpt>
      <trkpt lat="44.18111" lon="5.25592">
        <ele>1421</ele>
        <time>2012-01-06T21:24:27Z</time>
        <course>272.195230884001</course>
        <speed>7.1567261935775</speed>
      </trkpt>
      <trkpt lat="44.18114" lon="5.25672">
        <ele>1422</ele>
        <time>2012-01-06T21:24:36Z</time>
        <course>270.676702912487</course>
        <speed>8.31390684543119</speed>
      </trkpt>
      <trkpt lat="44.18115" lon="5.25759">
        <ele>1417</ele>
        <time>2012-01-06T21:24:44Z</time>
        <course>267.350184914717</course>
        <speed>8.31558623677671</speed>
      </trkpt>
      <trkpt lat="44.18111" lon="5.25847">
        <ele>1412</ele>
        <time>2012-01-06T21:24:52Z</time>
        <course>184.670338208598</course>
        <speed>2.90395445015747</speed>
      </trkpt>
      <trkpt lat="44.18099" lon="5.25848">
        <ele>1413</ele>
        <time>2012-01-06T21:24:57Z</time>
        <course>117.022204964373</course>
        <speed>2.89986239898124</speed>
      </trkpt>
      <trkpt lat="44.18092" lon="5.25834">
        <ele>1414</ele>
        <time>2012-01-06T21:25:02Z</time>
        <course>89.9897684552428</course>
        <speed>2.90273514363504</speed>
      </trkpt>
      <trkpt lat="44.18092" lon="5.25653">
        <ele>1428</ele>
        <time>2012-01-06T21:25:51Z</time>
        <course>94.4843469961731</course>
        <speed>2.61783534618035</speed>
      </trkpt>
      <trkpt lat="44.18089" lon="5.25614">
        <ele>1431</ele>
        <time>2012-01-06T21:26:03Z</time>
        <course>109.377044459672</course>
        <speed>2.6165859445357</speed>
      </trkpt>
      <trkpt lat="44.18079" lon="5.25585">
        <ele>1434</ele>
        <time>2012-01-06T21:26:13Z</time>
        <course>128.597970156707</course>
        <speed>2.61613229755424</speed>
      </trkpt>
      <trkpt lat="44.18061" lon="5.25562">
        <ele>1437</ele>
        <time>2012-01-06T21:26:24Z</time>
        <course>144.694067941742</course>
        <speed>2.61693284508044</speed>
      </trkpt>
      <trkpt lat="44.17989" lon="5.2551">
        <ele>1447</ele>
        <time>2012-01-06T21:26:58Z</time>
        <course>122.784693527735</course>
        <speed>5.28161249727532</speed>
      </trkpt>
      <trkpt lat="44.17977" lon="5.25491">
        <ele>1447</ele>
        <time>2012-01-06T21:27:02Z</time>
        <course>107.863194472952</course>
        <speed>5.27829025395963</speed>
      </trkpt>
      <trkpt lat="44.17934" lon="5.25355">
        <ele>1451</ele>
        <time>2012-01-06T21:27:24Z</time>
        <course>102.054230230793</course>
        <speed>3.1908387526412</speed>
      </trkpt>
      <trkpt lat="44.17912" lon="5.2525">
        <ele>1458</ele>
        <time>2012-01-06T21:27:52Z</time>
        <course>113.427726713679</course>
        <speed>3.19151785191085</speed>
      </trkpt>
      <trkpt lat="44.17895" lon="5.2521">
        <ele>1461</ele>
        <time>2012-01-06T21:28:03Z</time>
        <course>94.0208366124928</course>
        <speed>8.32156576869231</speed>
      </trkpt>
      <trkpt lat="44.17893" lon="5.25181">
        <ele>1459</ele>
        <time>2012-01-06T21:28:06Z</time>
        <course>77.1041899645124</course>
        <speed>8.31650771813257</speed>
      </trkpt>
      <trkpt lat="44.17904" lon="5.25132">
        <ele>1456</ele>
        <time>2012-01-06T21:28:11Z</time>
        <course>91.7679764209499</course>
        <speed>8.3296340515563</speed>
      </trkpt>
      <trkpt lat="44.17903" lon="5.25099">
        <ele>1454</ele>
        <time>2012-01-06T21:28:14Z</time>
        <course>103.239753680839</course>
        <speed>8.30765503522218</speed>
      </trkpt>
      <trkpt lat="44.17897" lon="5.25073">
        <ele>1453</ele>
        <time>2012-01-06T21:28:17Z</time>
        <course>114.034338310125</course>
        <speed>2.15260317644121</speed>
      </trkpt>
      <trkpt lat="44.17848" lon="5.24961">
        <ele>1468</ele>
        <time>2012-01-06T21:29:05Z</time>
        <course>118.906819294371</course>
        <speed>2.91055639110928</speed>
      </trkpt>
      <trkpt lat="44.17822" lon="5.24913">
        <ele>1472</ele>
        <time>2012-01-06T21:29:22Z</time>
        <course>123.569396753112</course>
        <speed>2.91026624035215</speed>
      </trkpt>
      <trkpt lat="44.17695" lon="5.24718">
        <ele>1492</ele>
        <time>2012-01-06T21:30:34Z</time>
        <course>110.333780691483</course>
        <speed>4.17803150960333</speed>
      </trkpt>
      <trkpt lat="44.17679" lon="5.24674">
        <ele>1493</ele>
        <time>2012-01-06T21:30:43Z</time>
        <course>135.544838720328</course>
        <speed>4.16901867564132</speed>
      </trkpt>
      <trkpt lat="44.17674" lon="5.24669">
        <ele>1494</ele>
        <time>2012-01-06T21:30:45Z</time>
        <course>198.110743231846</course>
        <speed>4.17992355655954</speed>
      </trkpt>
      <trkpt lat="44.17665" lon="5.24672">
        <ele>1494</ele>
        <time>2012-01-06T21:30:47Z</time>
        <course>255.706068560769</course>
        <speed>4.18501006788574</speed>
      </trkpt>
      <trkpt lat="44.17662" lon="5.24684">
        <ele>1495</ele>
        <time>2012-01-06T21:30:50Z</time>
        <course>301.448643195747</course>
        <speed>4.1801115765702</speed>
      </trkpt>
      <trkpt lat="44.17683" lon="5.24719">
        <ele>1497</ele>
        <time>2012-01-06T21:30:58Z</time>
        <course>286.521766209291</course>
        <speed>4.18032723521105</speed>
      </trkpt>
      <trkpt lat="44.17715" lon="5.24829">
        <ele>1501</ele>
        <time>2012-01-06T21:31:21Z</time>
        <course>283.621166821836</course>
        <speed>4.17909335699382</speed>
      </trkpt>
      <trkpt lat="44.17739" lon="5.2493">
        <ele>1506</ele>
        <time>2012-01-06T21:31:41Z</time>
        <course>278.593648950906</course>
        <speed>4.06128383142501</speed>
      </trkpt>
      <trkpt lat="44.17755" lon="5.25038">
        <ele>1510</ele>
        <time>2012-01-06T21:32:03Z</time>
        <course>276.546551983905</course>
        <speed>4.06131717128268</speed>
      </trkpt>
      <trkpt lat="44.17764" lon="5.25118">
        <ele>1514</ele>
        <time>2012-01-06T21:32:19Z</time>
        <course>273.756126434491</course>
        <speed>3.64908649237593</speed>
      </trkpt>
      <trkpt lat="44.17784" lon="5.2543">
        <ele>1530</ele>
        <time>2012-01-06T21:33:27Z</time>
        <course>268.760069245755</course>
        <speed>3.63455113267077</speed>
      </trkpt>
      <trkpt lat="44.17783" lon="5.25477">
        <ele>1532</ele>
        <time>2012-01-06T21:33:38Z</time>
        <course>255.704531606796</course>
        <speed>3.63385325139318</speed>
      </trkpt>
      <trkpt lat="44.17773" lon="5.25517">
        <ele>1534</ele>
        <time>2012-01-06T21:33:47Z</time>
        <course>264.181028522631</course>
        <speed>3.63543080385138</speed>
      </trkpt>
      <trkpt lat="44.1777" lon="5.25547">
        <ele>1536</ele>
        <time>2012-01-06T21:33:54Z</time>
        <course>288.257008656066</course>
        <speed>3.63387444242223</speed>
      </trkpt>
      <trkpt lat="44.17792" lon="5.25615">
        <ele>1540</ele>
        <time>2012-01-06T21:34:10Z</time>
        <course>281.813563531384</course>
        <speed>4.24790393796556</speed>
      </trkpt>
      <trkpt lat="44.178" lon="5.25654">
        <ele>1541</ele>
        <time>2012-01-06T21:34:17Z</time>
        <course>272.019805838083</course>
        <speed>4.24543416723523</speed>
      </trkpt>
      <trkpt lat="44.17804" lon="5.2577">
        <ele>1546</ele>
        <time>2012-01-06T21:34:39Z</time>
        <course>264.084342931627</course>
        <speed>1.35412372968451</speed>
      </trkpt>
      <trkpt lat="44.17798" lon="5.25829">
        <ele>1558</ele>
        <time>2012-01-06T21:35:14Z</time>
        <course>251.521639798761</course>
        <speed>1.3542408672832</speed>
      </trkpt>
      <trkpt lat="44.17778" lon="5.2589">
        <ele>1572</ele>
        <time>2012-01-06T21:35:54Z</time>
        <course>262.08720693578</course>
        <speed>6.99866863798496</speed>
      </trkpt>
      <trkpt lat="44.17775" lon="5.25912">
        <ele>1572</ele>
        <time>2012-01-06T21:35:56Z</time>
        <course>282.458565530293</course>
        <speed>7.00565101644958</speed>
      </trkpt>
      <trkpt lat="44.17788" lon="5.25972">
        <ele>1572</ele>
        <time>2012-01-06T21:36:04Z</time>
        <course>274.858480942581</course>
        <speed>7.00181806735186</speed>
      </trkpt>
      <trkpt lat="44.17792" lon="5.2602">
        <ele>1573</ele>
        <time>2012-01-06T21:36:09Z</time>
        <course>270.772737367278</course>
        <speed>2.64990521421328</speed>
      </trkpt>
      <trkpt lat="44.17793" lon="5.26096">
        <ele>1579</ele>
        <time>2012-01-06T21:36:32Z</time>
        <course>266.852094394278</course>
        <speed>2.6496448236999</speed>
      </trkpt>
      <trkpt lat="44.17787" lon="5.26207">
        <ele>1589</ele>
        <time>2012-01-06T21:37:05Z</time>
        <course>271.074117668945</course>
        <speed>3.69378523392953</speed>
      </trkpt>
      <trkpt lat="44.17791" lon="5.26427">
        <ele>1600</ele>
        <time>2012-01-06T21:37:53Z</time>
        <course>265.564533103422</course>
        <speed>2.19881232129744</speed>
      </trkpt>
      <trkpt lat="44.17783" lon="5.26532">
        <ele>1611</ele>
        <time>2012-01-06T21:38:31Z</time>
        <course>254.143677728473</course>
        <speed>2.1987418602683</speed>
      </trkpt>
      <trkpt lat="44.17766" lon="5.26593">
        <ele>1619</ele>
        <time>2012-01-06T21:38:55Z</time>
        <course>264.706643785138</course>
        <speed>7.61759624285082</speed>
      </trkpt>
      <trkpt lat="44.17764" lon="5.26615">
        <ele>1619</ele>
        <time>2012-01-06T21:38:57Z</time>
        <course>275.353781308666</course>
        <speed>7.61480809471298</speed>
      </trkpt>
      <trkpt lat="44.17773" lon="5.26713">
        <ele>1619</ele>
        <time>2012-01-06T21:39:07Z</time>
        <course>269.224344092932</course>
        <speed>7.61305776120608</speed>
      </trkpt>
      <trkpt lat="44.17771" lon="5.26862">
        <ele>1620</ele>
        <time>2012-01-06T21:39:23Z</time>
        <course>265.278075587082</course>
        <speed>6.64142077561556</speed>
      </trkpt>
      <trkpt lat="44.17755" lon="5.27059">
        <ele>1622</ele>
        <time>2012-01-06T21:39:47Z</time>
        <course>260.167375761692</course>
        <speed>4.36097175802474</speed>
      </trkpt>
      <trkpt lat="44.17723" lon="5.27247">
        <ele>1629</ele>
        <time>2012-01-06T21:40:22Z</time>
        <course>238.552518856498</course>
        <speed>1.19157322104903</speed>
      </trkpt>
      <trkpt lat="44.17708" lon="5.27272">
        <ele>1636</ele>
        <time>2012-01-06T21:40:44Z</time>
        <course>214.622828187132</course>
        <speed>1.19173286678988</speed>
      </trkpt>
      <trkpt lat="44.17681" lon="5.27291">
        <ele>1646</ele>
        <time>2012-01-06T21:41:12Z</time>
        <course>230.09786355913</course>
        <speed>1.19140665468157</speed>
      </trkpt>
      <trkpt lat="44.17649" lon="5.2733">
        <ele>1661</ele>
        <time>2012-01-06T21:41:52Z</time>
        <course>244.812894840506</course>
        <speed>2.58177990451807</speed>
      </trkpt>
      <trkpt lat="44.17619" lon="5.27395">
        <ele>1667</ele>
        <time>2012-01-06T21:42:16Z</time>
        <course>250.001232075105</course>
        <speed>2.58057322197663</speed>
      </trkpt>
      <trkpt lat="44.17614" lon="5.27409">
        <ele>1669</ele>
        <time>2012-01-06T21:42:21Z</time>
        <course>270.000717402014</course>
        <speed>2.58364012096765</speed>
      </trkpt>
      <trkpt lat="44.17614" lon="5.27422">
        <ele>1670</ele>
        <time>2012-01-06T21:42:25Z</time>
        <course>302.247796334897</course>
        <speed>2.58272516938437</speed>
      </trkpt>
      <trkpt lat="44.17627" lon="5.27443">
        <ele>1672</ele>
        <time>2012-01-06T21:42:33Z</time>
        <course>333.869459613527</course>
        <speed>2.58166216809887</speed>
      </trkpt>
      <trkpt lat="44.17689" lon="5.27474">
        <ele>1681</ele>
        <time>2012-01-06T21:43:01Z</time>
        <course>310.697428276585</course>
        <speed>3.8044854215569</speed>
      </trkpt>
      <trkpt lat="44.17716" lon="5.27506">
        <ele>1683</ele>
        <time>2012-01-06T21:43:12Z</time>
        <course>297.861051818043</course>
        <speed>3.80401296610644</speed>
      </trkpt>
      <trkpt lat="44.17744" lon="5.2756">
        <ele>1686</ele>
        <time>2012-01-06T21:43:26Z</time>
        <course>286.766063211719</course>
        <speed>3.80572981586165</speed>
      </trkpt>
      <trkpt lat="44.1777" lon="5.27648">
        <ele>1691</ele>
        <time>2012-01-06T21:43:46Z</time>
        <course>276.209951614057</course>
        <speed>8.32332775174588</speed>
      </trkpt>
      <trkpt lat="44.17778" lon="5.27723">
        <ele>1691</ele>
        <time>2012-01-06T21:43:53Z</time>
        <course>270.001780663102</course>
        <speed>8.3067772399402</speed>
      </trkpt>
      <trkpt lat="44.17778" lon="5.27755">
        <ele>1691</ele>
        <time>2012-01-06T21:43:56Z</time>
        <course>265.836062340525</course>
        <speed>8.31914251350251</speed>
      </trkpt>
      <trkpt lat="44.17758" lon="5.28034">
        <ele>1691</ele>
        <time>2012-01-06T21:44:23Z</time>
        <course>221.441857673589</course>
        <speed>1.9167731415423</speed>
      </trkpt>
      <trkpt lat="44.17748" lon="5.28043">
        <ele>1693</ele>
        <time>2012-01-06T21:44:30Z</time>
        <course>170.714077525594</course>
        <speed>1.91847436567436</speed>
      </trkpt>
      <trkpt lat="44.17742" lon="5.28042">
        <ele>1694</ele>
        <time>2012-01-06T21:44:33Z</time>
        <course>120.219535294804</course>
        <speed>1.91741367731298</speed>
      </trkpt>
      <trkpt lat="44.17738" lon="5.28035">
        <ele>1695</ele>
        <time>2012-01-06T21:44:37Z</time>
        <course>98.2843435412121</course>
        <speed>1.91520303211438</speed>
      </trkpt>
      <trkpt lat="44.17736" lon="5.28021">
        <ele>1697</ele>
        <time>2012-01-06T21:44:43Z</time>
        <course>80.030587155036</course>
        <speed>1.91690538778447</speed>
      </trkpt>
      <trkpt lat="44.17741" lon="5.27992">
        <ele>1701</ele>
        <time>2012-01-06T21:44:55Z</time>
        <course>89.9985003730315</course>
        <speed>1.91605377904279</speed>
      </trkpt>
      <trkpt lat="44.17741" lon="5.27965">
        <ele>1705</ele>
        <time>2012-01-06T21:45:07Z</time>
        <course>97.876730240873</course>
        <speed>1.91653967139709</speed>
      </trkpt>
      <trkpt lat="44.1773" lon="5.27884">
        <ele>1716</ele>
        <time>2012-01-06T21:45:41Z</time>
        <course>108.761231467187</course>
        <speed>1.76772380755245</speed>
      </trkpt>
      <trkpt lat="44.17702" lon="5.278">
        <ele>1729</ele>
        <time>2012-01-06T21:46:23Z</time>
        <course>113.221150221973</course>
        <speed>1.76752285882145</speed>
      </trkpt>
      <trkpt lat="44.17662" lon="5.27705">
        <ele>1746</ele>
        <time>2012-01-06T21:47:12Z</time>
        <course>127.392001605225</course>
        <speed>1.47050177043749</speed>
      </trkpt>
      <trkpt lat="44.17644" lon="5.27681">
        <ele>1752</ele>
        <time>2012-01-06T21:47:31Z</time>
        <course>140.725244511238</course>
        <speed>1.47013823876902</speed>
      </trkpt>
      <trkpt lat="44.17608" lon="5.27651">
        <ele>1763</ele>
        <time>2012-01-06T21:48:03Z</time>
        <course>153.863229775767</course>
        <speed>1.47001693351661</speed>
      </trkpt>
      <trkpt lat="44.17562" lon="5.27628">
        <ele>1776</ele>
        <time>2012-01-06T21:48:40Z</time>
        <course>165.835041558438</course>
        <speed>1.00235417317718</speed>
      </trkpt>
      <trkpt lat="44.17492" lon="5.2761">
        <ele>1804</ele>
        <time>2012-01-06T21:49:59Z</time>
        <course>150.978807035361</course>
        <speed>1.00246360182717</speed>
      </trkpt>
      <trkpt lat="44.17469" lon="5.27597">
        <ele>1815</ele>
        <time>2012-01-06T21:50:26Z</time>
        <course>129.095624959409</course>
        <speed>2.17626093046692</speed>
      </trkpt>
      <trkpt lat="44.17398" lon="5.27508">
        <ele>1830</ele>
        <time>2012-01-06T21:51:15Z</time>
        <course>118.336352365691</course>
        <speed>8.33660658508871</speed>
      </trkpt>
      <trkpt lat="44.17389" lon="5.27491">
        <ele>1827</ele>
        <time>2012-01-06T21:51:17Z</time>
        <course>103.914171216953</course>
        <speed>8.32570504051954</speed>
      </trkpt>
      <trkpt lat="44.1738" lon="5.27454">
        <ele>1822</ele>
        <time>2012-01-06T21:51:21Z</time>
        <course>91.0981563428792</course>
        <speed>8.31788076753783</speed>
      </trkpt>
      <trkpt lat="44.17379" lon="5.27401">
        <ele>1816</ele>
        <time>2012-01-06T21:51:26Z</time>
        <course>89.9955835556625</course>
        <speed>8.31904828276296</speed>
      </trkpt>
      <trkpt lat="44.17379" lon="5.2732">
        <ele>1806</ele>
        <time>2012-01-06T21:51:33Z</time>
        <course>83.981493213231</course>
        <speed>2.1895672157683</speed>
      </trkpt>
      <trkpt lat="44.17385" lon="5.27262">
        <ele>1812</ele>
        <time>2012-01-06T21:51:55Z</time>
        <course>114.019176185208</course>
        <speed>2.19016089603405</speed>
      </trkpt>
      <trkpt lat="44.17378" lon="5.27246">
        <ele>1814</ele>
        <time>2012-01-06T21:52:02Z</time>
        <course>159.313664054819</course>
        <speed>2.19081296986827</speed>
      </trkpt>
      <trkpt lat="44.17365" lon="5.27241">
        <ele>1816</ele>
        <time>2012-01-06T21:52:08Z</time>
        <course>209.799841769067</course>
        <speed>2.19006507736842</speed>
      </trkpt>
      <trkpt lat="44.17353" lon="5.27248">
        <ele>1818</ele>
        <time>2012-01-06T21:52:15Z</time>
        <course>250.22779799164</course>
        <speed>2.1884634847115</speed>
      </trkpt>
      <trkpt lat="44.17347" lon="5.27265">
        <ele>1820</ele>
        <time>2012-01-06T21:52:22Z</time>
        <course>274.024501671731</course>
        <speed>2.18946600172806</speed>
      </trkpt>
      <trkpt lat="44.17355" lon="5.27381">
        <ele>1833</ele>
        <time>2012-01-06T21:53:04Z</time>
        <course>269.08059674402</course>
        <speed>2.18930189048423</speed>
      </trkpt>
      <trkpt lat="44.17353" lon="5.27507">
        <ele>1848</ele>
        <time>2012-01-06T21:53:50Z</time>
        <course>281.51578931497</course>
        <speed>3.56021650584748</speed>
      </trkpt>
      <trkpt lat="44.17358" lon="5.27532">
        <ele>1849</ele>
        <time>2012-01-06T21:53:56Z</time>
        <course>290.796100692412</course>
        <speed>3.56035099849776</speed>
      </trkpt>
      <trkpt lat="44.17399" lon="5.27642">
        <ele>1856</ele>
        <time>2012-01-06T21:54:24Z</time>
        <course>296.993053421889</course>
        <speed>8.32740251134549</speed>
      </trkpt>
      <trkpt lat="44.17414" lon="5.27672">
        <ele>1852</ele>
        <time>2012-01-06T21:54:27Z</time>
        <course>307.99189670128</course>
        <speed>8.31302682264385</speed>
      </trkpt>
      <trkpt lat="44.17437" lon="5.27702">
        <ele>1848</ele>
        <time>2012-01-06T21:54:32Z</time>
        <course>314.8916099454</course>
        <speed>8.31769263222194</speed>
      </trkpt>
      <trkpt lat="44.17481" lon="5.27747">
        <ele>1841</ele>
        <time>2012-01-06T21:54:39Z</time>
        <course>301.662920091985</course>
        <speed>8.32517122898247</speed>
      </trkpt>
      <trkpt lat="44.17504" lon="5.27785">
        <ele>1837</ele>
        <time>2012-01-06T21:54:44Z</time>
        <course>290.144171083308</course>
        <speed>8.31838202123694</speed>
      </trkpt>
      <trkpt lat="44.17513" lon="5.2781">
        <ele>1835</ele>
        <time>2012-01-06T21:54:46Z</time>
        <course>281.276575932609</course>
        <speed>8.31511503969945</speed>
      </trkpt>
      <trkpt lat="44.17522" lon="5.27856">
        <ele>1831</ele>
        <time>2012-01-06T21:54:51Z</time>
        <course>273.303725931145</course>
        <speed>8.32426961208785</speed>
      </trkpt>
      <trkpt lat="44.17525" lon="5.27909">
        <ele>1828</ele>
        <time>2012-01-06T21:54:56Z</time>
        <course>263.423066937725</course>
        <speed>8.31948468937939</speed>
      </trkpt>
      <trkpt lat="44.17519" lon="5.27962">
        <ele>1825</ele>
        <time>2012-01-06T21:55:01Z</time>
        <course>258.6693798699</course>
        <speed>8.31857449822697</speed>
      </trkpt>
      <trkpt lat="44.17507" lon="5.28023">
        <ele>1823</ele>
        <time>2012-01-06T21:55:07Z</time>
        <course>241.251535192579</course>
        <speed>8.33152366786749</speed>
      </trkpt>
      <trkpt lat="44.17493" lon="5.28049">
        <ele>1822</ele>
        <time>2012-01-06T21:55:10Z</time>
        <course>161.883045026198</course>
        <speed>0.916945719248089</speed>
      </trkpt>
      <trkpt lat="44.17478" lon="5.28044">
        <ele>1828</ele>
        <time>2012-01-06T21:55:29Z</time>
        <course>117.688077992603</course>
        <speed>0.916796355406223</speed>
      </trkpt>
      <trkpt lat="44.17444" lon="5.27978">
        <ele>1855</ele>
        <time>2012-01-06T21:56:40Z</time>
        <course>154.770554822107</course>
        <speed>0.916697504280379</speed>
      </trkpt>
      <trkpt lat="44.17419" lon="5.27966">
        <ele>1867</ele>
        <time>2012-01-06T21:57:12Z</time>
        <course>141.852998594229</course>
        <speed>1.5475928515122</speed>
      </trkpt>
      <trkpt lat="44.17364" lon="5.27922">
        <ele>1882</ele>
        <time>2012-01-06T21:57:57Z</time>
        <course>122.856934937741</course>
        <speed>1.54780636917602</speed>
      </trkpt>
      <trkpt lat="44.17338" lon="5.27881">
        <ele>1892</ele>
        <time>2012-01-06T21:58:25Z</time>
        <course>100.6800153639</course>
        <speed>8.32376527414249</speed>
      </trkpt>
      <trkpt lat="44.17333" lon="5.27854">
        <ele>1890</ele>
        <time>2012-01-06T21:58:28Z</time>
        <course>92.589439157863</course>
        <speed>8.31792091440649</speed>
      </trkpt>
      <trkpt lat="44.17331" lon="5.27809">
        <ele>1889</ele>
        <time>2012-01-06T21:58:32Z</time>
        <course>79.2916319554823</course>
        <speed>8.31808830698719</speed>
      </trkpt>
      <trkpt lat="44.17349" lon="5.27712">
        <ele>1885</ele>
        <time>2012-01-06T21:58:42Z</time>
        <course>129.174418164803</course>
        <speed>4.59199594530778</speed>
      </trkpt>
      <trkpt lat="44.17345" lon="5.27707">
        <ele>1885</ele>
        <time>2012-01-06T21:58:43Z</time>
        <course>218.774980971628</course>
        <speed>4.58654207292369</speed>
      </trkpt>
      <trkpt lat="44.17334" lon="5.27716">
        <ele>1885</ele>
        <time>2012-01-06T21:58:46Z</time>
        <course>250.84285167356</course>
        <speed>4.57987240574639</speed>
      </trkpt>
      <trkpt lat="44.17305" lon="5.27801">
        <ele>1888</ele>
        <time>2012-01-06T21:59:03Z</time>
        <course>259.510830106579</course>
        <speed>4.58323696338748</speed>
      </trkpt>
      <trkpt lat="44.17299" lon="5.27834">
        <ele>1890</ele>
        <time>2012-01-06T21:59:09Z</time>
        <course>268.922440027567</course>
        <speed>8.31122393697378</speed>
      </trkpt>
      <trkpt lat="44.17298" lon="5.27888">
        <ele>1883</ele>
        <time>2012-01-06T21:59:14Z</time>
        <course>285.33668446358</course>
        <speed>8.32093239883775</speed>
      </trkpt>
      <trkpt lat="44.17312" lon="5.2794">
        <ele>1876</ele>
        <time>2012-01-06T21:59:19Z</time>
        <course>297.628439322037</course>
        <speed>8.3159189447824</speed>
      </trkpt>
      <trkpt lat="44.17368" lon="5.28049">
        <ele>1860</ele>
        <time>2012-01-06T21:59:32Z</time>
        <course>289.214082823184</course>
        <speed>8.32610619660275</speed>
      </trkpt>
      <trkpt lat="44.17381" lon="5.28087">
        <ele>1851</ele>
        <time>2012-01-06T21:59:36Z</time>
        <course>280.926916938672</course>
        <speed>8.31953506669614</speed>
      </trkpt>
      <trkpt lat="44.1742" lon="5.28293">
        <ele>1807</ele>
        <time>2012-01-06T21:59:56Z</time>
        <course>275.597254936877</course>
        <speed>7.8449726493297</speed>
      </trkpt>
      <trkpt lat="44.17425" lon="5.28345">
        <ele>1807</ele>
        <time>2012-01-06T22:00:02Z</time>
        <course>255.713653213959</course>
        <speed>7.85123700305459</speed>
      </trkpt>
      <trkpt lat="44.17417" lon="5.28377">
        <ele>1807</ele>
        <time>2012-01-06T22:00:05Z</time>
        <course>224.470000866664</course>
        <speed>7.84607531791973</speed>
      </trkpt>
      <trkpt lat="44.1741" lon="5.28384">
        <ele>1807</ele>
        <time>2012-01-06T22:00:06Z</time>
        <course>195.908428097812</course>
        <speed>7.83654068025474</speed>
      </trkpt>
      <trkpt lat="44.17379" lon="5.28393">
        <ele>1807</ele>
        <time>2012-01-06T22:00:11Z</time>
        <course>188.437524458287</course>
        <speed>7.84065397366329</speed>
      </trkpt>
      <trkpt lat="44.17187" lon="5.28422">
        <ele>1808</ele>
        <time>2012-01-06T22:00:38Z</time>
        <course>192.461317268281</course>
        <speed>8.32219739100688</speed>
      </trkpt>
      <trkpt lat="44.17147" lon="5.28431">
        <ele>1803</ele>
        <time>2012-01-06T22:00:44Z</time>
        <course>204.236296963631</course>
        <speed>8.33024270378277</speed>
      </trkpt>
      <trkpt lat="44.17123" lon="5.28442">
        <ele>1801</ele>
        <time>2012-01-06T22:00:47Z</time>
        <course>221.927026208265</course>
        <speed>8.32001855403221</speed>
      </trkpt>
      <trkpt lat="44.17088" lon="5.28474">
        <ele>1797</ele>
        <time>2012-01-06T22:00:53Z</time>
        <course>238.361740106477</course>
        <speed>8.32551422979176</speed>
      </trkpt>
      <trkpt lat="44.17065" lon="5.28512">
        <ele>1791</ele>
        <time>2012-01-06T22:00:57Z</time>
        <course>222.258394848211</course>
        <speed>8.31707823169505</speed>
      </trkpt>
      <trkpt lat="44.16972" lon="5.28598">
        <ele>1776</ele>
        <time>2012-01-06T22:01:12Z</time>
        <course>229.075604931278</course>
        <speed>8.31123897773955</speed>
      </trkpt>
      <trkpt lat="44.16949" lon="5.28625">
        <ele>1774</ele>
        <time>2012-01-06T22:01:16Z</time>
        <course>238.179152917761</course>
        <speed>8.31220449861491</speed>
      </trkpt>
      <trkpt lat="44.16924" lon="5.28666">
        <ele>1771</ele>
        <time>2012-01-06T22:01:21Z</time>
        <course>250.273874199825</course>
        <speed>8.32145467080722</speed>
      </trkpt>
      <trkpt lat="44.16881" lon="5.28788">
        <ele>1765</ele>
        <time>2012-01-06T22:01:35Z</time>
        <course>260.87786337743</course>
        <speed>8.3219626240144</speed>
      </trkpt>
      <trkpt lat="44.16863" lon="5.28902">
        <ele>1757</ele>
        <time>2012-01-06T22:01:46Z</time>
        <course>270.002653603606</course>
        <speed>8.31999058535299</speed>
      </trkpt>
      <trkpt lat="44.16863" lon="5.28952">
        <ele>1754</ele>
        <time>2012-01-06T22:01:50Z</time>
        <course>287.305410805506</course>
        <speed>2.48035645597504</speed>
      </trkpt>
      <trkpt lat="44.16878" lon="5.29001">
        <ele>1759</ele>
        <time>2012-01-06T22:02:08Z</time>
        <course>311.798449046659</course>
        <speed>2.48007470892031</speed>
      </trkpt>
      <trkpt lat="44.16943" lon="5.29075">
        <ele>1770</ele>
        <time>2012-01-06T22:02:45Z</time>
        <course>287.389200124102</course>
        <speed>8.290206432096</speed>
      </trkpt>
      <trkpt lat="44.16947" lon="5.29088">
        <ele>1767</ele>
        <time>2012-01-06T22:02:47Z</time>
        <course>262.099722029695</course>
        <speed>8.3018754720742</speed>
      </trkpt>
      <trkpt lat="44.16944" lon="5.2911">
        <ele>1764</ele>
        <time>2012-01-06T22:02:49Z</time>
        <course>220.687559870618</course>
        <speed>8.32969543613246</speed>
      </trkpt>
      <trkpt lat="44.16928" lon="5.29124">
        <ele>1760</ele>
        <time>2012-01-06T22:02:51Z</time>
        <course>201.037200684578</course>
        <speed>8.31766970790301</speed>
      </trkpt>
      <trkpt lat="44.16767" lon="5.29187">
        <ele>1723</ele>
        <time>2012-01-06T22:03:14Z</time>
        <course>222.306197105239</course>
        <speed>8.31799775477086</speed>
      </trkpt>
      <trkpt lat="44.1674" lon="5.29212">
        <ele>1720</ele>
        <time>2012-01-06T22:03:18Z</time>
        <course>238.600626516344</course>
        <speed>8.32655242012175</speed>
      </trkpt>
      <trkpt lat="44.16725" lon="5.29237">
        <ele>1718</ele>
        <time>2012-01-06T22:03:21Z</time>
        <course>251.970106465259</course>
        <speed>8.31231777950944</speed>
      </trkpt>
      <trkpt lat="44.16709" lon="5.29287">
        <ele>1715</ele>
        <time>2012-01-06T22:03:26Z</time>
        <course>270.002158177197</course>
        <speed>6.7660687862477</speed>
      </trkpt>
      <trkpt lat="44.16709" lon="5.29328">
        <ele>1715</ele>
        <time>2012-01-06T22:03:31Z</time>
        <course>283.675436530849</course>
        <speed>6.76869045247384</speed>
      </trkpt>
      <trkpt lat="44.1672" lon="5.29374">
        <ele>1715</ele>
        <time>2012-01-06T22:03:37Z</time>
        <course>293.753004068152</course>
        <speed>6.76990809640145</speed>
      </trkpt>
      <trkpt lat="44.16768" lon="5.29485">
        <ele>1717</ele>
        <time>2012-01-06T22:03:52Z</time>
        <course>275.285646385115</course>
        <speed>8.33762312430959</speed>
      </trkpt>
      <trkpt lat="44.1677" lon="5.29507">
        <ele>1714</ele>
        <time>2012-01-06T22:03:54Z</time>
        <course>256.203529919092</course>
        <speed>8.32376694870928</speed>
      </trkpt>
      <trkpt lat="44.16763" lon="5.29536">
        <ele>1711</ele>
        <time>2012-01-06T22:03:57Z</time>
        <course>235.853941136058</course>
        <speed>8.31237964761116</speed>
      </trkpt>
      <trkpt lat="44.16741" lon="5.29569">
        <ele>1707</ele>
        <time>2012-01-06T22:04:01Z</time>
        <course>225.44811471765</course>
        <speed>8.31563726334902</speed>
      </trkpt>
      <trkpt lat="44.16711" lon="5.296">
        <ele>1702</ele>
        <time>2012-01-06T22:04:06Z</time>
        <course>213.245766709893</course>
        <speed>8.31766787436264</speed>
      </trkpt>
      <trkpt lat="44.1657" lon="5.29694">
        <ele>1656</ele>
        <time>2012-01-06T22:04:27Z</time>
        <course>232.665581299033</course>
        <speed>8.31149885981196</speed>
      </trkpt>
      <trkpt lat="44.16552" lon="5.29718">
        <ele>1655</ele>
        <time>2012-01-06T22:04:31Z</time>
        <course>248.422885850442</course>
        <speed>8.32683501010214</speed>
      </trkpt>
      <trkpt lat="44.16538" lon="5.29754">
        <ele>1655</ele>
        <time>2012-01-06T22:04:35Z</time>
        <course>257.627721028518</course>
        <speed>8.31800058751389</speed>
      </trkpt>
      <trkpt lat="44.16508" lon="5.29893">
        <ele>1655</ele>
        <time>2012-01-06T22:04:48Z</time>
        <course>244.962808432699</course>
        <speed>8.3192406060183</speed>
      </trkpt>
      <trkpt lat="44.16457" lon="5.30004">
        <ele>1642</ele>
        <time>2012-01-06T22:05:01Z</time>
        <course>250.884147489615</course>
        <speed>8.31655384379836</speed>
      </trkpt>
      <trkpt lat="44.16398" lon="5.30177">
        <ele>1639</ele>
        <time>2012-01-06T22:05:19Z</time>
        <course>237.375808845259</course>
        <speed>8.32458337349953</speed>
      </trkpt>
      <trkpt lat="44.16381" lon="5.30204">
        <ele>1638</ele>
        <time>2012-01-06T22:05:23Z</time>
        <course>217.022801905585</course>
        <speed>8.31583906223366</speed>
      </trkpt>
      <trkpt lat="44.16321" lon="5.3025">
        <ele>1636</ele>
        <time>2012-01-06T22:05:32Z</time>
        <course>192.602528617437</course>
        <speed>8.31180261893373</speed>
      </trkpt>
      <trkpt lat="44.16299" lon="5.30255">
        <ele>1632</ele>
        <time>2012-01-06T22:05:35Z</time>
        <course>155.580229974227</course>
        <speed>8.31518168949212</speed>
      </trkpt>
      <trkpt lat="44.16286" lon="5.30249">
        <ele>1630</ele>
        <time>2012-01-06T22:05:37Z</time>
        <course>124.766082684462</course>
        <speed>8.32551994573194</speed>
      </trkpt>
      <trkpt lat="44.16258" lon="5.30208">
        <ele>1623</ele>
        <time>2012-01-06T22:05:42Z</time>
        <course>118.455427222955</course>
        <speed>8.31798215706872</speed>
      </trkpt>
      <trkpt lat="44.16194" lon="5.30088">
        <ele>1606</ele>
        <time>2012-01-06T22:05:57Z</time>
        <course>152.084243389779</course>
        <speed>8.3257353978522</speed>
      </trkpt>
      <trkpt lat="44.16168" lon="5.30074">
        <ele>1604</ele>
        <time>2012-01-06T22:06:00Z</time>
        <course>199.506207034006</course>
        <speed>8.31636476883854</speed>
      </trkpt>
      <trkpt lat="44.16143" lon="5.30083">
        <ele>1603</ele>
        <time>2012-01-06T22:06:04Z</time>
        <course>218.405036739943</course>
        <speed>8.32478128144987</speed>
      </trkpt>
      <trkpt lat="44.16107" lon="5.30112">
        <ele>1602</ele>
        <time>2012-01-06T22:06:09Z</time>
        <course>225.665253011023</course>
        <speed>8.31169997530652</speed>
      </trkpt>
      <trkpt lat="44.16082" lon="5.30138">
        <ele>1601</ele>
        <time>2012-01-06T22:06:13Z</time>
        <course>237.761709392237</course>
        <speed>8.32955256013748</speed>
      </trkpt>
      <trkpt lat="44.16064" lon="5.30167">
        <ele>1599</ele>
        <time>2012-01-06T22:06:17Z</time>
        <course>248.688154408015</course>
        <speed>8.32054724317784</speed>
      </trkpt>
      <trkpt lat="44.16006" lon="5.30318">
        <ele>1594</ele>
        <time>2012-01-06T22:06:34Z</time>
        <course>257.191150797871</course>
        <speed>8.31650718215141</speed>
      </trkpt>
      <trkpt lat="44.15963" lon="5.3051">
        <ele>1579</ele>
        <time>2012-01-06T22:06:53Z</time>
        <course>268.814716345718</course>
        <speed>8.31435406989259</speed>
      </trkpt>
      <trkpt lat="44.15962" lon="5.30559">
        <ele>1577</ele>
        <time>2012-01-06T22:06:58Z</time>
        <course>279.441565072643</course>
        <speed>8.31253285067459</speed>
      </trkpt>
      <trkpt lat="44.15971" lon="5.30614">
        <ele>1576</ele>
        <time>2012-01-06T22:07:03Z</time>
        <course>282.946204704329</course>
        <speed>8.31897521922001</speed>
      </trkpt>
      <trkpt lat="44.1599" lon="5.30698">
        <ele>1575</ele>
        <time>2012-01-06T22:07:11Z</time>
        <course>293.000846922772</course>
        <speed>3.41813038816408</speed>
      </trkpt>
      <trkpt lat="44.16023" lon="5.30777">
        <ele>1580</ele>
        <time>2012-01-06T22:07:33Z</time>
        <course>281.127063406596</course>
        <speed>3.41733003968375</speed>
      </trkpt>
      <trkpt lat="44.16029" lon="5.30808">
        <ele>1582</ele>
        <time>2012-01-06T22:07:40Z</time>
        <course>241.317511505923</course>
        <speed>3.41888940097558</speed>
      </trkpt>
      <trkpt lat="44.16022" lon="5.30821">
        <ele>1583</ele>
        <time>2012-01-06T22:07:44Z</time>
        <course>191.909614015072</course>
        <speed>8.32780267896683</speed>
      </trkpt>
      <trkpt lat="44.16008" lon="5.30824">
        <ele>1579</ele>
        <time>2012-01-06T22:07:46Z</time>
        <course>172.823623631987</course>
        <speed>8.31583002488374</speed>
      </trkpt>
      <trkpt lat="44.15922" lon="5.30813">
        <ele>1559</ele>
        <time>2012-01-06T22:07:57Z</time>
        <course>189.799323437564</course>
        <speed>8.32309044118621</speed>
      </trkpt>
      <trkpt lat="44.15865" lon="5.30823">
        <ele>1548</ele>
        <time>2012-01-06T22:08:05Z</time>
        <course>205.294417614791</course>
        <speed>8.32322622196242</speed>
      </trkpt>
      <trkpt lat="44.1584" lon="5.30835">
        <ele>1543</ele>
        <time>2012-01-06T22:08:09Z</time>
        <course>217.139518115845</course>
        <speed>8.31199692942258</speed>
      </trkpt>
      <trkpt lat="44.15814" lon="5.30855">
        <ele>1538</ele>
        <time>2012-01-06T22:08:13Z</time>
        <course>228.829710516296</course>
        <speed>8.31833541838639</speed>
      </trkpt>
      <trkpt lat="44.15783" lon="5.30891">
        <ele>1535</ele>
        <time>2012-01-06T22:08:18Z</time>
        <course>244.191817580585</course>
        <speed>8.30306602773749</speed>
      </trkpt>
      <trkpt lat="44.15773" lon="5.30912">
        <ele>1535</ele>
        <time>2012-01-06T22:08:20Z</time>
        <course>253.059593655421</course>
        <speed>8.31862045533251</speed>
      </trkpt>
      <trkpt lat="44.15749" lon="5.30992">
        <ele>1532</ele>
        <time>2012-01-06T22:08:29Z</time>
        <course>266.17381314377</course>
        <speed>8.31637823254935</speed>
      </trkpt>
      <trkpt lat="44.15743" lon="5.31083">
        <ele>1528</ele>
        <time>2012-01-06T22:08:37Z</time>
        <course>279.769336709722</course>
        <speed>8.31840228074569</speed>
      </trkpt>
      <trkpt lat="44.15753" lon="5.31142">
        <ele>1527</ele>
        <time>2012-01-06T22:08:43Z</time>
        <course>288.705821797533</course>
        <speed>7.32541957156543</speed>
      </trkpt>
      <trkpt lat="44.15777" lon="5.31214">
        <ele>1527</ele>
        <time>2012-01-06T22:08:52Z</time>
        <course>279.230904237641</course>
        <speed>7.31887626111187</speed>
      </trkpt>
      <trkpt lat="44.15781" lon="5.31239">
        <ele>1527</ele>
        <time>2012-01-06T22:08:55Z</time>
        <course>273.636004478059</course>
        <speed>7.32467176265603</speed>
      </trkpt>
      <trkpt lat="44.15786" lon="5.31319">
        <ele>1528</ele>
        <time>2012-01-06T22:09:03Z</time>
        <course>248.664870033106</course>
        <speed>8.31023561768234</speed>
      </trkpt>
      <trkpt lat="44.15776" lon="5.31345">
        <ele>1525</ele>
        <time>2012-01-06T22:09:06Z</time>
        <course>207.932886296217</course>
        <speed>8.32581079561233</speed>
      </trkpt>
      <trkpt lat="44.15763" lon="5.31352">
        <ele>1523</ele>
        <time>2012-01-06T22:09:08Z</time>
        <course>159.256919530352</course>
        <speed>8.32525050629758</speed>
      </trkpt>
      <trkpt lat="44.1575" lon="5.31347">
        <ele>1521</ele>
        <time>2012-01-06T22:09:10Z</time>
        <course>143.949496366045</course>
        <speed>8.31280876706748</speed>
      </trkpt>
      <trkpt lat="44.15704" lon="5.31313">
        <ele>1514</ele>
        <time>2012-01-06T22:09:17Z</time>
        <course>155.83440032477</course>
        <speed>8.31730632567889</speed>
      </trkpt>
      <trkpt lat="44.15614" lon="5.31272">
        <ele>1502</ele>
        <time>2012-01-06T22:09:30Z</time>
        <course>146.526574693325</course>
        <speed>8.32104972928854</speed>
      </trkpt>
      <trkpt lat="44.15541" lon="5.31223">
        <ele>1489</ele>
        <time>2012-01-06T22:09:40Z</time>
        <course>188.617803653921</course>
        <speed>8.32855619155244</speed>
      </trkpt>
      <trkpt lat="44.15515" lon="5.31227">
        <ele>1486</ele>
        <time>2012-01-06T22:09:44Z</time>
        <course>224.570786626092</course>
        <speed>8.33061222775324</speed>
      </trkpt>
      <trkpt lat="44.15503" lon="5.31239">
        <ele>1485</ele>
        <time>2012-01-06T22:09:46Z</time>
        <course>243.090739463459</course>
        <speed>8.31436785591647</speed>
      </trkpt>
      <trkpt lat="44.15495" lon="5.31255">
        <ele>1485</ele>
        <time>2012-01-06T22:09:48Z</time>
        <course>253.064129715165</course>
        <speed>8.30894451109298</speed>
      </trkpt>
      <trkpt lat="44.15489" lon="5.31275">
        <ele>1485</ele>
        <time>2012-01-06T22:09:50Z</time>
        <course>264.88358924181</course>
        <speed>8.32634482450397</speed>
      </trkpt>
      <trkpt lat="44.15486" lon="5.31309">
        <ele>1485</ele>
        <time>2012-01-06T22:09:53Z</time>
        <course>268.563272118426</course>
        <speed>8.31818684761852</speed>
      </trkpt>
      <trkpt lat="44.15482" lon="5.3147">
        <ele>1485</ele>
        <time>2012-01-06T22:10:09Z</time>
        <course>287.348574626473</course>
        <speed>8.31639109195518</speed>
      </trkpt>
      <trkpt lat="44.15502" lon="5.31535">
        <ele>1479</ele>
        <time>2012-01-06T22:10:15Z</time>
        <course>229.340495912146</course>
        <speed>8.30344676113702</speed>
      </trkpt>
      <trkpt lat="44.15491" lon="5.31548">
        <ele>1478</ele>
        <time>2012-01-06T22:10:17Z</time>
        <course>158.49187767621</course>
        <speed>8.32891868660897</speed>
      </trkpt>
      <trkpt lat="44.15466" lon="5.31538">
        <ele>1475</ele>
        <time>2012-01-06T22:10:21Z</time>
        <course>146.190253172281</course>
        <speed>8.31708933323637</speed>
      </trkpt>
      <trkpt lat="44.15363" lon="5.31468">
        <ele>1464</ele>
        <time>2012-01-06T22:10:36Z</time>
        <course>152.625305792416</course>
        <speed>8.321217506916</speed>
      </trkpt>
      <trkpt lat="44.15304" lon="5.31437">
        <ele>1455</ele>
        <time>2012-01-06T22:10:44Z</time>
        <course>129.969151695256</course>
        <speed>8.32270882360934</speed>
      </trkpt>
      <trkpt lat="44.15266" lon="5.31391">
        <ele>1448</ele>
        <time>2012-01-06T22:10:51Z</time>
        <course>143.282139388438</course>
        <speed>8.32454903592733</speed>
      </trkpt>
      <trkpt lat="44.15229" lon="5.31363">
        <ele>1445</ele>
        <time>2012-01-06T22:10:57Z</time>
        <course>169.026165397326</course>
        <speed>8.31774845374194</speed>
      </trkpt>
      <trkpt lat="44.15168" lon="5.31351">
        <ele>1441</ele>
        <time>2012-01-06T22:11:05Z</time>
        <course>190.471347130115</course>
        <speed>8.30526298312988</speed>
      </trkpt>
      <trkpt lat="44.15152" lon="5.31354">
        <ele>1440</ele>
        <time>2012-01-06T22:11:07Z</time>
        <course>217.968483777241</course>
        <speed>8.31188345810671</speed>
      </trkpt>
      <trkpt lat="44.15128" lon="5.31373">
        <ele>1438</ele>
        <time>2012-01-06T22:11:11Z</time>
        <course>230.940966789268</course>
        <speed>8.32554046630459</speed>
      </trkpt>
      <trkpt lat="44.151" lon="5.31408">
        <ele>1436</ele>
        <time>2012-01-06T22:11:16Z</time>
        <course>257.018655455699</course>
        <speed>8.32550749040474</speed>
      </trkpt>
      <trkpt lat="44.15095" lon="5.3143">
        <ele>1436</ele>
        <time>2012-01-06T22:11:18Z</time>
        <course>275.793199027266</course>
        <speed>8.29896984865515</speed>
      </trkpt>
      <trkpt lat="44.15097" lon="5.3145">
        <ele>1435</ele>
        <time>2012-01-06T22:11:20Z</time>
        <course>295.091871193815</course>
        <speed>8.3157754917164</speed>
      </trkpt>
      <trkpt lat="44.15127" lon="5.31515">
        <ele>1432</ele>
        <time>2012-01-06T22:11:27Z</time>
        <course>284.663254943377</course>
        <speed>8.31602090943613</speed>
      </trkpt>
      <trkpt lat="44.1516" lon="5.31643">
        <ele>1427</ele>
        <time>2012-01-06T22:11:40Z</time>
        <course>290.775259908494</course>
        <speed>7.44535733263395</speed>
      </trkpt>
      <trkpt lat="44.152" lon="5.3175">
        <ele>1427</ele>
        <time>2012-01-06T22:11:53Z</time>
        <course>286.437098016021</course>
        <speed>7.44263753505757</speed>
      </trkpt>
      <trkpt lat="44.15225" lon="5.31836">
        <ele>1428</ele>
        <time>2012-01-06T22:12:03Z</time>
        <course>277.22886268195</course>
        <speed>8.30036190186197</speed>
      </trkpt>
      <trkpt lat="44.15227" lon="5.31852">
        <ele>1426</ele>
        <time>2012-01-06T22:12:05Z</time>
        <course>257.294825209376</course>
        <speed>8.30029813625505</speed>
      </trkpt>
      <trkpt lat="44.15223" lon="5.3187">
        <ele>1425</ele>
        <time>2012-01-06T22:12:07Z</time>
        <course>230.303360583172</course>
        <speed>8.31343465550162</speed>
      </trkpt>
      <trkpt lat="44.15214" lon="5.31881">
        <ele>1423</ele>
        <time>2012-01-06T22:12:08Z</time>
        <course>199.392732420185</course>
        <speed>8.32094936764321</speed>
      </trkpt>
      <trkpt lat="44.152" lon="5.31886">
        <ele>1422</ele>
        <time>2012-01-06T22:12:10Z</time>
        <course>217.47450601352</course>
        <speed>8.29902029169413</speed>
      </trkpt>
      <trkpt lat="44.15191" lon="5.31893">
        <ele>1421</ele>
        <time>2012-01-06T22:12:12Z</time>
        <course>164.271832746694</course>
        <speed>8.35806294283094</speed>
      </trkpt>
      <trkpt lat="44.15184" lon="5.31891">
        <ele>1420</ele>
        <time>2012-01-06T22:12:13Z</time>
        <course>140.16778272227</course>
        <speed>8.31460245126895</speed>
      </trkpt>
      <trkpt lat="44.15132" lon="5.31847">
        <ele>1414</ele>
        <time>2012-01-06T22:12:21Z</time>
        <course>148.360140870669</course>
        <speed>8.31679350585768</speed>
      </trkpt>
      <trkpt lat="44.15076" lon="5.31812">
        <ele>1407</ele>
        <time>2012-01-06T22:12:29Z</time>
        <course>160.567037854616</course>
        <speed>8.31992965341401</speed>
      </trkpt>
      <trkpt lat="44.14967" lon="5.31773">
        <ele>1395</ele>
        <time>2012-01-06T22:12:44Z</time>
        <course>166.151930867927</course>
        <speed>3.27227907476734</speed>
      </trkpt>
      <trkpt lat="44.14951" lon="5.31769">
        <ele>1396</ele>
        <time>2012-01-06T22:12:49Z</time>
        <course>188.018475652663</course>
        <speed>3.27618313631675</speed>
      </trkpt>
      <trkpt lat="44.1493" lon="5.31772">
        <ele>1398</ele>
        <time>2012-01-06T22:12:57Z</time>
        <course>239.394428131909</course>
        <speed>3.2750891824593</speed>
      </trkpt>
      <trkpt lat="44.14916" lon="5.31796">
        <ele>1400</ele>
        <time>2012-01-06T22:13:04Z</time>
        <course>251.887444989205</course>
        <speed>3.27292655290674</speed>
      </trkpt>
      <trkpt lat="44.14906" lon="5.31827">
        <ele>1402</ele>
        <time>2012-01-06T22:13:12Z</time>
        <course>263.244127816487</course>
        <speed>3.2738348726416</speed>
      </trkpt>
      <trkpt lat="44.14897" lon="5.31904">
        <ele>1407</ele>
        <time>2012-01-06T22:13:31Z</time>
        <course>269.491217211275</course>
        <speed>3.57130802119021</speed>
      </trkpt>
      <trkpt lat="44.14896" lon="5.32017">
        <ele>1413</ele>
        <time>2012-01-06T22:13:57Z</time>
        <course>269.491217211275</course>
        <speed>3.57130802119021</speed>
      </trkpt>
      <trkpt lat="44.14896" lon="5.32017">
        <ele>1413</ele>
        <time>2012-01-06T22:13:58Z</time>
        <course>265.705591951097</course>
        <speed>7.38637442160207</speed>
      </trkpt>
      <trkpt lat="44.14894" lon="5.32044">
        <ele>1413</ele>
        <time>2012-01-06T22:14:01Z</time>
        <course>256.371775166127</course>
        <speed>7.39196722921479</speed>
      </trkpt>
      <trkpt lat="44.14883" lon="5.3209">
        <ele>1413</ele>
        <time>2012-01-06T22:14:06Z</time>
        <course>251.326610906627</course>
        <speed>7.39479809203055</speed>
      </trkpt>
      <trkpt lat="44.14868" lon="5.32135">
        <ele>1413</ele>
        <time>2012-01-06T22:14:11Z</time>
        <course>245.326194566608</course>
        <speed>7.39610147831948</speed>
      </trkpt>
      <trkpt lat="44.14839" lon="5.32199">
        <ele>1414</ele>
        <time>2012-01-06T22:14:19Z</time>
        <course>255.777000977058</course>
        <speed>8.30496192979436</speed>
      </trkpt>
      <trkpt lat="44.14833" lon="5.32223">
        <ele>1412</ele>
        <time>2012-01-06T22:14:22Z</time>
        <course>265.541445152394</course>
        <speed>8.30651468256919</speed>
      </trkpt>
      <trkpt lat="44.14831" lon="5.32249">
        <ele>1411</ele>
        <time>2012-01-06T22:14:24Z</time>
        <course>277.050884821567</course>
        <speed>8.31059709986098</speed>
      </trkpt>
      <trkpt lat="44.14836" lon="5.3229">
        <ele>1408</ele>
        <time>2012-01-06T22:14:28Z</time>
        <course>294.642836219247</course>
        <speed>8.31672929187243</speed>
      </trkpt>
      <trkpt lat="44.14855" lon="5.32332">
        <ele>1406</ele>
        <time>2012-01-06T22:14:33Z</time>
        <course>312.030711419386</course>
        <speed>4.94566452393811</speed>
      </trkpt>
      <trkpt lat="44.14879" lon="5.32359">
        <ele>1407</ele>
        <time>2012-01-06T22:14:40Z</time>
        <course>334.962673824049</course>
        <speed>4.94433720960094</speed>
      </trkpt>
      <trkpt lat="44.14917" lon="5.32377">
        <ele>1408</ele>
        <time>2012-01-06T22:14:49Z</time>
        <course>326.25839836134</course>
        <speed>4.94843659441478</speed>
      </trkpt>
      <trkpt lat="44.14948" lon="5.32398">
        <ele>1410</ele>
        <time>2012-01-06T22:14:57Z</time>
        <course>318.391479557689</course>
        <speed>8.31648095231793</speed>
      </trkpt>
      <trkpt lat="44.15059" lon="5.32498">
        <ele>1410</ele>
        <time>2012-01-06T22:15:14Z</time>
        <course>310.325449766278</course>
        <speed>8.32398356797158</speed>
      </trkpt>
      <trkpt lat="44.151" lon="5.32547">
        <ele>1406</ele>
        <time>2012-01-06T22:15:22Z</time>
        <course>301.129130540813</course>
        <speed>8.31916297842253</speed>
      </trkpt>
      <trkpt lat="44.1515" lon="5.32631">
        <ele>1402</ele>
        <time>2012-01-06T22:15:32Z</time>
        <course>308.277464860598</course>
        <speed>2.69965216344756</speed>
      </trkpt>
      <trkpt lat="44.15178" lon="5.32667">
        <ele>1406</ele>
        <time>2012-01-06T22:15:48Z</time>
        <course>324.738047588594</course>
        <speed>2.69901681214816</speed>
      </trkpt>
      <trkpt lat="44.15224" lon="5.327">
        <ele>1412</ele>
        <time>2012-01-06T22:16:09Z</time>
        <course>331.349610542375</course>
        <speed>2.69972701033918</speed>
      </trkpt>
      <trkpt lat="44.15325" lon="5.32756">
        <ele>1425</ele>
        <time>2012-01-06T22:16:54Z</time>
        <course>294.276787140232</course>
        <speed>8.35693368519942</speed>
      </trkpt>
      <trkpt lat="44.15329" lon="5.32765">
        <ele>1424</ele>
        <time>2012-01-06T22:16:55Z</time>
        <course>270.000536222276</course>
        <speed>8.35227237570853</speed>
      </trkpt>
      <trkpt lat="44.15329" lon="5.32776">
        <ele>1423</ele>
        <time>2012-01-06T22:16:56Z</time>
        <course>224.580028276551</course>
        <speed>8.33070145708362</speed>
      </trkpt>
      <trkpt lat="44.15317" lon="5.32788">
        <ele>1421</ele>
        <time>2012-01-06T22:16:58Z</time>
        <course>179.089215132016</course>
        <speed>8.31611502911967</speed>
      </trkpt>
      <trkpt lat="44.15193" lon="5.32786">
        <ele>1408</ele>
        <time>2012-01-06T22:17:14Z</time>
        <course>167.643384582214</course>
        <speed>8.31952052172816</speed>
      </trkpt>
      <trkpt lat="44.15094" lon="5.32764">
        <ele>1400</ele>
        <time>2012-01-06T22:17:28Z</time>
        <course>158.476200105522</course>
        <speed>8.31698069179938</speed>
      </trkpt>
      <trkpt lat="44.15004" lon="5.32728">
        <ele>1393</ele>
        <time>2012-01-06T22:17:40Z</time>
        <course>152.814183791977</course>
        <speed>8.31854894080038</speed>
      </trkpt>
      <trkpt lat="44.14908" lon="5.32678">
        <ele>1379</ele>
        <time>2012-01-06T22:17:54Z</time>
        <course>195.735532736904</course>
        <speed>2.77143990967169</speed>
      </trkpt>
      <trkpt lat="44.14894" lon="5.32682">
        <ele>1380</ele>
        <time>2012-01-06T22:18:00Z</time>
        <course>227.465959408542</course>
        <speed>2.77225517646511</speed>
      </trkpt>
      <trkpt lat="44.14875" lon="5.32703">
        <ele>1383</ele>
        <time>2012-01-06T22:18:09Z</time>
        <course>263.327886242964</course>
        <speed>2.77367819757588</speed>
      </trkpt>
      <trkpt lat="44.14872" lon="5.32729">
        <ele>1385</ele>
        <time>2012-01-06T22:18:17Z</time>
        <course>286.682414484529</course>
        <speed>2.77237016763378</speed>
      </trkpt>
      <trkpt lat="44.14898" lon="5.32817">
        <ele>1393</ele>
        <time>2012-01-06T22:18:44Z</time>
        <course>266.403682364746</course>
        <speed>8.31819047638515</speed>
      </trkpt>
      <trkpt lat="44.14888" lon="5.32978">
        <ele>1386</ele>
        <time>2012-01-06T22:19:00Z</time>
        <course>273.415226167104</course>
        <speed>6.07140296703749</speed>
      </trkpt>
      <trkpt lat="44.1489" lon="5.33012">
        <ele>1386</ele>
        <time>2012-01-06T22:19:04Z</time>
        <course>281.673757621708</course>
        <speed>6.07283113393528</speed>
      </trkpt>
      <trkpt lat="44.14901" lon="5.33066">
        <ele>1387</ele>
        <time>2012-01-06T22:19:12Z</time>
        <course>287.334261404514</course>
        <speed>6.07566566835236</speed>
      </trkpt>
      <trkpt lat="44.14933" lon="5.3317">
        <ele>1389</ele>
        <time>2012-01-06T22:19:27Z</time>
        <course>282.5794973926</course>
        <speed>8.3228629025047</speed>
      </trkpt>
      <trkpt lat="44.14944" lon="5.3322">
        <ele>1385</ele>
        <time>2012-01-06T22:19:32Z</time>
        <course>267.098165223528</course>
        <speed>8.32549912265677</speed>
      </trkpt>
      <trkpt lat="44.14943" lon="5.3324">
        <ele>1384</ele>
        <time>2012-01-06T22:19:33Z</time>
        <course>248.477474246237</course>
        <speed>8.3285863139448</speed>
      </trkpt>
      <trkpt lat="44.14936" lon="5.33258">
        <ele>1382</ele>
        <time>2012-01-06T22:19:35Z</time>
        <course>217.486913663364</course>
        <speed>8.29910844812453</speed>
      </trkpt>
      <trkpt lat="44.14927" lon="5.33265">
        <ele>1382</ele>
        <time>2012-01-06T22:19:37Z</time>
        <course>185.122858214405</course>
        <speed>8.31392099885944</speed>
      </trkpt>
      <trkpt lat="44.14894" lon="5.33268">
        <ele>1379</ele>
        <time>2012-01-06T22:19:41Z</time>
        <course>227.615779633612</course>
        <speed>8.30529877150963</speed>
      </trkpt>
      <trkpt lat="44.14885" lon="5.33278">
        <ele>1378</ele>
        <time>2012-01-06T22:19:43Z</time>
        <course>252.672235182352</course>
        <speed>3.7973095191743</speed>
      </trkpt>
      <trkpt lat="44.14881" lon="5.33291">
        <ele>1378</ele>
        <time>2012-01-06T22:19:46Z</time>
        <course>286.607701548038</course>
        <speed>3.8049346388487</speed>
      </trkpt>
      <trkpt lat="44.14886" lon="5.33308">
        <ele>1379</ele>
        <time>2012-01-06T22:19:50Z</time>
        <course>301.418771584601</course>
        <speed>3.79945458018629</speed>
      </trkpt>
      <trkpt lat="44.14939" lon="5.33396">
        <ele>1385</ele>
        <time>2012-01-06T22:20:14Z</time>
        <course>274.144464711337</course>
        <speed>8.30931965231516</speed>
      </trkpt>
      <trkpt lat="44.14941" lon="5.33424">
        <ele>1383</ele>
        <time>2012-01-06T22:20:16Z</time>
        <course>168.305957284015</course>
        <speed>8.3201169832401</speed>
      </trkpt>
      <trkpt lat="44.1486" lon="5.33407">
        <ele>1378</ele>
        <time>2012-01-06T22:20:27Z</time>
        <course>193.75597915027</course>
        <speed>8.31787713278323</speed>
      </trkpt>
      <trkpt lat="44.14723" lon="5.33441">
        <ele>1369</ele>
        <time>2012-01-06T22:20:46Z</time>
        <course>184.850914114326</course>
        <speed>8.31632771335699</speed>
      </trkpt>
      <trkpt lat="44.1463" lon="5.33449">
        <ele>1365</ele>
        <time>2012-01-06T22:20:58Z</time>
        <course>177.957442072576</course>
        <speed>8.31926200490376</speed>
      </trkpt>
      <trkpt lat="44.14547" lon="5.33446">
        <ele>1359</ele>
        <time>2012-01-06T22:21:09Z</time>
        <course>217.919258041037</course>
        <speed>8.31003452181555</speed>
      </trkpt>
      <trkpt lat="44.14528" lon="5.33461">
        <ele>1358</ele>
        <time>2012-01-06T22:21:12Z</time>
        <course>240.196887591615</course>
        <speed>8.30802110390857</speed>
      </trkpt>
      <trkpt lat="44.14515" lon="5.33484">
        <ele>1357</ele>
        <time>2012-01-06T22:21:15Z</time>
        <course>253.476979084297</course>
        <speed>8.32100648499172</speed>
      </trkpt>
      <trkpt lat="44.14474" lon="5.33624">
        <ele>1354</ele>
        <time>2012-01-06T22:21:30Z</time>
        <course>262.045991190577</course>
        <speed>6.25425768299721</speed>
      </trkpt>
      <trkpt lat="44.14466" lon="5.33682">
        <ele>1354</ele>
        <time>2012-01-06T22:21:37Z</time>
        <course>274.575664728373</course>
        <speed>6.25938791339429</speed>
      </trkpt>
      <trkpt lat="44.14469" lon="5.3372">
        <ele>1355</ele>
        <time>2012-01-06T22:21:42Z</time>
        <course>292.891808272009</course>
        <speed>6.25120206738659</speed>
      </trkpt>
      <trkpt lat="44.14479" lon="5.33744">
        <ele>1355</ele>
        <time>2012-01-06T22:21:46Z</time>
        <course>311.802032611907</course>
        <speed>6.26361588058238</speed>
      </trkpt>
      <trkpt lat="44.14494" lon="5.33761">
        <ele>1356</ele>
        <time>2012-01-06T22:21:49Z</time>
        <course>328.42105383203</course>
        <speed>3.89554613447097</speed>
      </trkpt>
      <trkpt lat="44.14624" lon="5.33842">
        <ele>1365</ele>
        <time>2012-01-06T22:22:30Z</time>
        <course>279.093458500603</course>
        <speed>8.33990449112119</speed>
      </trkpt>
      <trkpt lat="44.14627" lon="5.33861">
        <ele>1363</ele>
        <time>2012-01-06T22:22:32Z</time>
        <course>224.613637341987</course>
        <speed>8.32500003207394</speed>
      </trkpt>
      <trkpt lat="44.1462" lon="5.33868">
        <ele>1363</ele>
        <time>2012-01-06T22:22:33Z</time>
        <course>188.630907587981</course>
        <speed>8.30477580760739</speed>
      </trkpt>
      <trkpt lat="44.14607" lon="5.3387">
        <ele>1362</ele>
        <time>2012-01-06T22:22:34Z</time>
        <course>182.492637894742</course>
        <speed>8.3167716612316</speed>
      </trkpt>
      <trkpt lat="44.14539" lon="5.33873">
        <ele>1357</ele>
        <time>2012-01-06T22:22:44Z</time>
        <course>208.294804100762</course>
        <speed>8.31821779665155</speed>
      </trkpt>
      <trkpt lat="44.14429" lon="5.33933">
        <ele>1349</ele>
        <time>2012-01-06T22:22:59Z</time>
        <course>196.186713572415</course>
        <speed>8.32178782990829</speed>
      </trkpt>
      <trkpt lat="44.14412" lon="5.33938">
        <ele>1346</ele>
        <time>2012-01-06T22:23:02Z</time>
        <course>184.342009858492</course>
        <speed>8.3147075353391</speed>
      </trkpt>
      <trkpt lat="44.14334" lon="5.33944">
        <ele>1338</ele>
        <time>2012-01-06T22:23:12Z</time>
        <course>218.594391497053</course>
        <speed>8.31682157676126</speed>
      </trkpt>
      <trkpt lat="44.14287" lon="5.33982">
        <ele>1336</ele>
        <time>2012-01-06T22:23:19Z</time>
        <course>235.542115743807</course>
        <speed>8.31147423062433</speed>
      </trkpt>
      <trkpt lat="44.14266" lon="5.34013">
        <ele>1334</ele>
        <time>2012-01-06T22:23:23Z</time>
        <course>245.578646608108</course>
        <speed>8.31278751497072</speed>
      </trkpt>
      <trkpt lat="44.14253" lon="5.34042">
        <ele>1334</ele>
        <time>2012-01-06T22:23:27Z</time>
        <course>252.69111623697</course>
        <speed>7.35989489834178</speed>
      </trkpt>
      <trkpt lat="44.14237" lon="5.34094">
        <ele>1334</ele>
        <time>2012-01-06T22:23:33Z</time>
        <course>256.703341948959</course>
        <speed>7.35530044137342</speed>
      </trkpt>
      <trkpt lat="44.1423" lon="5.34124">
        <ele>1334</ele>
        <time>2012-01-06T22:23:36Z</time>
        <course>262.719226899815</course>
        <speed>7.36046546483651</speed>
      </trkpt>
      <trkpt lat="44.14217" lon="5.34227">
        <ele>1335</ele>
        <time>2012-01-06T22:23:48Z</time>
        <course>250.977005695761</course>
        <speed>8.3129710427771</speed>
      </trkpt>
      <trkpt lat="44.14201" lon="5.34274">
        <ele>1331</ele>
        <time>2012-01-06T22:23:53Z</time>
        <course>247.1986833331</course>
        <speed>8.3175637954021</speed>
      </trkpt>
      <trkpt lat="44.14179" lon="5.34327">
        <ele>1328</ele>
        <time>2012-01-06T22:23:58Z</time>
        <course>231.327263022607</course>
        <speed>8.31966902223117</speed>
      </trkpt>
      <trkpt lat="44.1413" lon="5.34389">
        <ele>1323</ele>
        <time>2012-01-06T22:24:07Z</time>
        <course>240.524246191635</course>
        <speed>8.32172544033916</speed>
      </trkpt>
      <trkpt lat="44.14106" lon="5.34432">
        <ele>1320</ele>
        <time>2012-01-06T22:24:12Z</time>
        <course>279.085894742172</course>
        <speed>8.34060251401106</speed>
      </trkpt>
      <trkpt lat="44.14109" lon="5.34451">
        <ele>1319</ele>
        <time>2012-01-06T22:24:14Z</time>
        <course>309.284248775888</course>
        <speed>8.3240661976859</speed>
      </trkpt>
      <trkpt lat="44.1413" lon="5.34477">
        <ele>1317</ele>
        <time>2012-01-06T22:24:18Z</time>
        <course>333.728301980786</course>
        <speed>8.31520220387405</speed>
      </trkpt>
      <trkpt lat="44.14216" lon="5.3452">
        <ele>1312</ele>
        <time>2012-01-06T22:24:30Z</time>
        <course>350.340862415482</course>
        <speed>8.31511232202393</speed>
      </trkpt>
      <trkpt lat="44.14274" lon="5.3453">
        <ele>1309</ele>
        <time>2012-01-06T22:24:38Z</time>
        <course>8.02650977601344</course>
        <speed>8.31826167725644</speed>
      </trkpt>
      <trkpt lat="44.14316" lon="5.34524">
        <ele>1307</ele>
        <time>2012-01-06T22:24:44Z</time>
        <course>18.2118736002345</course>
        <speed>4.9965630090285</speed>
      </trkpt>
      <trkpt lat="44.14346" lon="5.34514">
        <ele>1308</ele>
        <time>2012-01-06T22:24:51Z</time>
        <course>28.181852072042</course>
        <speed>4.99267479174762</speed>
      </trkpt>
      <trkpt lat="44.14381" lon="5.34495">
        <ele>1309</ele>
        <time>2012-01-06T22:24:59Z</time>
        <course>35.7252367661271</course>
        <speed>4.99564709553274</speed>
      </trkpt>
      <trkpt lat="44.1444" lon="5.34452">
        <ele>1312</ele>
        <time>2012-01-06T22:25:14Z</time>
        <course>44.6176314774592</course>
        <speed>2.38797004610078</speed>
      </trkpt>
      <trkpt lat="44.14502" lon="5.3439">
        <ele>1322</ele>
        <time>2012-01-06T22:25:49Z</time>
        <course>22.1125436792037</course>
        <speed>2.38760677774465</speed>
      </trkpt>
      <trkpt lat="44.14519" lon="5.34383">
        <ele>1325</ele>
        <time>2012-01-06T22:25:58Z</time>
        <course>337.07684730732</course>
        <speed>8.30399834904915</speed>
      </trkpt>
      <trkpt lat="44.14526" lon="5.34386">
        <ele>1323</ele>
        <time>2012-01-06T22:25:59Z</time>
        <course>308.119318359406</course>
        <speed>8.32092262382536</speed>
      </trkpt>
      <trkpt lat="44.1455" lon="5.34417">
        <ele>1317</ele>
        <time>2012-01-06T22:26:03Z</time>
        <course>297.435818138886</course>
        <speed>8.3159207235289</speed>
      </trkpt>
      <trkpt lat="44.14571" lon="5.34458">
        <ele>1310</ele>
        <time>2012-01-06T22:26:08Z</time>
        <course>311.730872869142</course>
        <speed>8.32283032328839</speed>
      </trkpt>
      <trkpt lat="44.14593" lon="5.34483">
        <ele>1305</ele>
        <time>2012-01-06T22:26:12Z</time>
        <course>326.665896264007</course>
        <speed>7.28158721524828</speed>
      </trkpt>
      <trkpt lat="44.14617" lon="5.34499">
        <ele>1305</ele>
        <time>2012-01-06T22:26:16Z</time>
        <course>342.346753093426</course>
        <speed>7.29030681418774</speed>
      </trkpt>
      <trkpt lat="44.14648" lon="5.34509">
        <ele>1305</ele>
        <time>2012-01-06T22:26:20Z</time>
        <course>354.201755939967</course>
        <speed>7.28533267042412</speed>
      </trkpt>
      <trkpt lat="44.14716" lon="5.34516">
        <ele>1306</ele>
        <time>2012-01-06T22:26:31Z</time>
        <course>1.11885539374176</course>
        <speed>8.32042466206863</speed>
      </trkpt>
      <trkpt lat="44.14817" lon="5.34514">
        <ele>1304</ele>
        <time>2012-01-06T22:26:44Z</time>
        <course>11.6620381149117</course>
        <speed>4.53046816026231</speed>
      </trkpt>
      <trkpt lat="44.14903" lon="5.34496">
        <ele>1308</ele>
        <time>2012-01-06T22:27:06Z</time>
        <course>32.9723199055124</course>
        <speed>4.53339130311381</speed>
      </trkpt>
      <trkpt lat="44.14941" lon="5.34471">
        <ele>1310</ele>
        <time>2012-01-06T22:27:16Z</time>
        <course>351.981768377426</course>
        <speed>8.31825215929247</speed>
      </trkpt>
      <trkpt lat="44.14948" lon="5.34472">
        <ele>1309</ele>
        <time>2012-01-06T22:27:17Z</time>
        <course>310.764675374051</course>
        <speed>8.32358022964785</speed>
      </trkpt>
      <trkpt lat="44.14982" lon="5.34512">
        <ele>1303</ele>
        <time>2012-01-06T22:27:23Z</time>
        <course>332.262957880753</course>
        <speed>8.32016919337925</speed>
      </trkpt>
      <trkpt lat="44.15012" lon="5.34528">
        <ele>1300</ele>
        <time>2012-01-06T22:27:27Z</time>
        <course>345.623202479806</course>
        <speed>8.32379070749789</speed>
      </trkpt>
      <trkpt lat="44.15062" lon="5.34541">
        <ele>1294</ele>
        <time>2012-01-06T22:27:34Z</time>
        <course>357.434361923959</course>
        <speed>3.9323791078351</speed>
      </trkpt>
      <trkpt lat="44.15106" lon="5.34543">
        <ele>1296</ele>
        <time>2012-01-06T22:27:46Z</time>
        <course>7.65588025764985</course>
        <speed>3.93010136706755</speed>
      </trkpt>
      <trkpt lat="44.15128" lon="5.3454">
        <ele>1298</ele>
        <time>2012-01-06T22:27:53Z</time>
        <course>23.8390420398979</course>
        <speed>3.93154885629073</speed>
      </trkpt>
      <trkpt lat="44.15157" lon="5.34527">
        <ele>1300</ele>
        <time>2012-01-06T22:28:01Z</time>
        <course>42.7399339772727</course>
        <speed>8.30510848764937</speed>
      </trkpt>
      <trkpt lat="44.15173" lon="5.34512">
        <ele>1298</ele>
        <time>2012-01-06T22:28:04Z</time>
        <course>55.9257661920805</course>
        <speed>8.32427172386022</speed>
      </trkpt>
      <trkpt lat="44.15191" lon="5.34485">
        <ele>1295</ele>
        <time>2012-01-06T22:28:07Z</time>
        <course>11.151543513198</course>
        <speed>8.3154266112898</speed>
      </trkpt>
      <trkpt lat="44.15201" lon="5.34483">
        <ele>1294</ele>
        <time>2012-01-06T22:28:09Z</time>
        <course>352.976412883032</course>
        <speed>8.34138417577319</speed>
      </trkpt>
      <trkpt lat="44.15209" lon="5.34484">
        <ele>1293</ele>
        <time>2012-01-06T22:28:10Z</time>
        <course>315.415814635467</course>
        <speed>8.33075326698393</speed>
      </trkpt>
      <trkpt lat="44.15221" lon="5.34496">
        <ele>1292</ele>
        <time>2012-01-06T22:28:12Z</time>
        <course>298.9057367358</course>
        <speed>8.31801187387078</speed>
      </trkpt>
      <trkpt lat="44.15258" lon="5.34564">
        <ele>1286</ele>
        <time>2012-01-06T22:28:20Z</time>
        <course>333.768253549739</course>
        <speed>5.97741954962876</speed>
      </trkpt>
      <trkpt lat="44.15278" lon="5.34574">
        <ele>1286</ele>
        <time>2012-01-06T22:28:24Z</time>
        <course>348.076955329386</course>
        <speed>5.98463509414175</speed>
      </trkpt>
      <trkpt lat="44.15348" lon="5.34589">
        <ele>1288</ele>
        <time>2012-01-06T22:28:37Z</time>
        <course>4.12366953768494</course>
        <speed>2.34801536342666</speed>
      </trkpt>
      <trkpt lat="44.15389" lon="5.34586">
        <ele>1293</ele>
        <time>2012-01-06T22:28:56Z</time>
        <course>28.5671627722447</course>
        <speed>2.34868778795873</speed>
      </trkpt>
      <trkpt lat="44.15427" lon="5.34565">
        <ele>1299</ele>
        <time>2012-01-06T22:29:16Z</time>
        <course>55.9133239778258</course>
        <speed>2.34884011044307</speed>
      </trkpt>
      <trkpt lat="44.15453" lon="5.34526">
        <ele>1305</ele>
        <time>2012-01-06T22:29:34Z</time>
        <course>63.8642876885149</course>
        <speed>8.32273961973147</speed>
      </trkpt>
      <trkpt lat="44.15482" lon="5.34466">
        <ele>1301</ele>
        <time>2012-01-06T22:29:41Z</time>
        <course>58.6562327553178</course>
        <speed>8.31426429105923</speed>
      </trkpt>
      <trkpt lat="44.15488" lon="5.34456">
        <ele>1301</ele>
        <time>2012-01-06T22:29:42Z</time>
        <course>11.1460587360443</course>
        <speed>8.37747359703948</speed>
      </trkpt>
      <trkpt lat="44.15493" lon="5.34455">
        <ele>1301</ele>
        <time>2012-01-06T22:29:43Z</time>
        <course>331.308647582879</course>
        <speed>8.34570111979391</speed>
      </trkpt>
      <trkpt lat="44.15502" lon="5.3446">
        <ele>1300</ele>
        <time>2012-01-06T22:29:44Z</time>
        <course>303.300376884342</course>
        <speed>8.31471208508438</speed>
      </trkpt>
      <trkpt lat="44.15524" lon="5.34494">
        <ele>1298</ele>
        <time>2012-01-06T22:29:48Z</time>
        <course>292.649161747977</course>
        <speed>8.32126658593556</speed>
      </trkpt>
      <trkpt lat="44.15554" lon="5.34567">
        <ele>1295</ele>
        <time>2012-01-06T22:29:56Z</time>
        <course>315.435633923154</course>
        <speed>8.32002072462857</speed>
      </trkpt>
      <trkpt lat="44.15602" lon="5.34615">
        <ele>1290</ele>
        <time>2012-01-06T22:30:04Z</time>
        <course>301.017105721153</course>
        <speed>8.32185987614971</speed>
      </trkpt>
      <trkpt lat="44.15647" lon="5.34691">
        <ele>1285</ele>
        <time>2012-01-06T22:30:14Z</time>
        <course>321.393516183936</course>
        <speed>3.59520946936619</speed>
      </trkpt>
      <trkpt lat="44.15684" lon="5.34721">
        <ele>1288</ele>
        <time>2012-01-06T22:30:27Z</time>
        <course>333.101730621498</course>
        <speed>3.59649458960497</speed>
      </trkpt>
      <trkpt lat="44.15717" lon="5.34738">
        <ele>1290</ele>
        <time>2012-01-06T22:30:38Z</time>
        <course>342.604041154567</course>
        <speed>3.59501711855639</speed>
      </trkpt>
      <trkpt lat="44.15761" lon="5.34752">
        <ele>1294</ele>
        <time>2012-01-06T22:30:52Z</time>
        <course>296.92178310599</course>
        <speed>8.3289617498494</speed>
      </trkpt>
      <trkpt lat="44.1577" lon="5.3477">
        <ele>1290</ele>
        <time>2012-01-06T22:30:54Z</time>
        <course>274.838127052084</course>
        <speed>8.30237303653748</speed>
      </trkpt>
      <trkpt lat="44.15771" lon="5.34782">
        <ele>1288</ele>
        <time>2012-01-06T22:30:55Z</time>
        <course>232.704714896504</course>
        <speed>8.33706989195703</speed>
      </trkpt>
      <trkpt lat="44.15762" lon="5.34794">
        <ele>1285</ele>
        <time>2012-01-06T22:30:57Z</time>
        <course>210.735018897087</course>
        <speed>8.31364949756794</speed>
      </trkpt>
      <trkpt lat="44.15709" lon="5.34826">
        <ele>1273</ele>
        <time>2012-01-06T22:31:04Z</time>
        <course>227.930537121269</course>
        <speed>8.30825320309536</speed>
      </trkpt>
      <trkpt lat="44.15693" lon="5.34844">
        <ele>1269</ele>
        <time>2012-01-06T22:31:07Z</time>
        <course>246.482589840855</course>
        <speed>4.34807382966314</speed>
      </trkpt>
      <trkpt lat="44.15687" lon="5.34858">
        <ele>1269</ele>
        <time>2012-01-06T22:31:10Z</time>
        <course>279.606887925026</course>
        <speed>4.3457144686944</speed>
      </trkpt>
      <trkpt lat="44.15691" lon="5.34882">
        <ele>1270</ele>
        <time>2012-01-06T22:31:15Z</time>
        <course>297.713228303847</course>
        <speed>4.3480039694262</speed>
      </trkpt>
      <trkpt lat="44.15721" lon="5.3494">
        <ele>1273</ele>
        <time>2012-01-06T22:31:28Z</time>
        <course>279.607456145455</course>
        <speed>4.345690710774</speed>
      </trkpt>
      <trkpt lat="44.15725" lon="5.34964">
        <ele>1274</ele>
        <time>2012-01-06T22:31:32Z</time>
        <course>234.593497547795</course>
        <speed>8.31203192833867</speed>
      </trkpt>
      <trkpt lat="44.15718" lon="5.34974">
        <ele>1272</ele>
        <time>2012-01-06T22:31:34Z</time>
        <course>199.702303545578</course>
        <speed>8.31073226635406</speed>
      </trkpt>
      <trkpt lat="44.15707" lon="5.34978">
        <ele>1271</ele>
        <time>2012-01-06T22:31:35Z</time>
        <course>171.699210583398</course>
        <speed>8.31167773791325</speed>
      </trkpt>
      <trkpt lat="44.1568" lon="5.34974">
        <ele>1267</ele>
        <time>2012-01-06T22:31:39Z</time>
        <course>168.85711152958</course>
        <speed>8.31541313604383</speed>
      </trkpt>
      <trkpt lat="44.1566" lon="5.3497">
        <ele>1264</ele>
        <time>2012-01-06T22:31:42Z</time>
        <course>148.908787866995</course>
        <speed>8.31747787001614</speed>
      </trkpt>
      <trkpt lat="44.15611" lon="5.3494">
        <ele>1257</ele>
        <time>2012-01-06T22:31:49Z</time>
        <course>178.180110692575</course>
        <speed>8.32280773952927</speed>
      </trkpt>
      <trkpt lat="44.1558" lon="5.34939">
        <ele>1253</ele>
        <time>2012-01-06T22:31:53Z</time>
        <course>197.676659850122</course>
        <speed>8.32300957765974</speed>
      </trkpt>
      <trkpt lat="44.15546" lon="5.3495">
        <ele>1249</ele>
        <time>2012-01-06T22:31:57Z</time>
        <course>209.931863576318</course>
        <speed>8.32101014441698</speed>
      </trkpt>
      <trkpt lat="44.15469" lon="5.34995">
        <ele>1239</ele>
        <time>2012-01-06T22:32:09Z</time>
        <course>195.422160400026</course>
        <speed>8.30938709156227</speed>
      </trkpt>
      <trkpt lat="44.15444" lon="5.35002">
        <ele>1233</ele>
        <time>2012-01-06T22:32:12Z</time>
        <course>167.837145525249</course>
        <speed>8.31262657817294</speed>
      </trkpt>
      <trkpt lat="44.15412" lon="5.34995">
        <ele>1227</ele>
        <time>2012-01-06T22:32:16Z</time>
        <course>182.401005832706</course>
        <speed>8.3201807427923</speed>
      </trkpt>
      <trkpt lat="44.15365" lon="5.34997">
        <ele>1218</ele>
        <time>2012-01-06T22:32:23Z</time>
        <course>194.416303518935</course>
        <speed>4.99067365901541</speed>
      </trkpt>
      <trkpt lat="44.15342" lon="5.35003">
        <ele>1218</ele>
        <time>2012-01-06T22:32:28Z</time>
        <course>209.3841247979</course>
        <speed>4.99411204818286</speed>
      </trkpt>
      <trkpt lat="44.15321" lon="5.35015">
        <ele>1219</ele>
        <time>2012-01-06T22:32:33Z</time>
        <course>226.317054914189</course>
        <speed>4.99021099806539</speed>
      </trkpt>
      <trkpt lat="44.15305" lon="5.35032">
        <ele>1220</ele>
        <time>2012-01-06T22:32:37Z</time>
        <course>237.148840301898</course>
        <speed>4.9989013195431</speed>
      </trkpt>
      <trkpt lat="44.15291" lon="5.35054">
        <ele>1221</ele>
        <time>2012-01-06T22:32:42Z</time>
        <course>250.647387712899</course>
        <speed>4.99248322295914</speed>
      </trkpt>
      <trkpt lat="44.15282" lon="5.3508">
        <ele>1222</ele>
        <time>2012-01-06T22:32:47Z</time>
        <course>268.035705446354</course>
        <speed>2.42177117568043</speed>
      </trkpt>
      <trkpt lat="44.15278" lon="5.35198">
        <ele>1233</ele>
        <time>2012-01-06T22:33:26Z</time>
        <course>258.528833279322</course>
        <speed>2.42007283489792</speed>
      </trkpt>
      <trkpt lat="44.15275" lon="5.35213">
        <ele>1235</ele>
        <time>2012-01-06T22:33:31Z</time>
        <course>247.816504946771</course>
        <speed>8.31526574560538</speed>
      </trkpt>
      <trkpt lat="44.15234" lon="5.35315">
        <ele>1232</ele>
        <time>2012-01-06T22:33:42Z</time>
        <course>258.805670867882</course>
        <speed>8.32322678052195</speed>
      </trkpt>
      <trkpt lat="44.15218" lon="5.35397">
        <ele>1230</ele>
        <time>2012-01-06T22:33:50Z</time>
        <course>275.65506534128</course>
        <speed>8.30961396083146</speed>
      </trkpt>
      <trkpt lat="44.15222" lon="5.35438">
        <ele>1226</ele>
        <time>2012-01-06T22:33:54Z</time>
        <course>247.911298719892</course>
        <speed>8.29822963054264</speed>
      </trkpt>
      <trkpt lat="44.15216" lon="5.35453">
        <ele>1225</ele>
        <time>2012-01-06T22:33:56Z</time>
        <course>200.285827461507</course>
        <speed>8.32346579883918</speed>
      </trkpt>
      <trkpt lat="44.15176" lon="5.35468">
        <ele>1220</ele>
        <time>2012-01-06T22:34:01Z</time>
        <course>227.737166065382</course>
        <speed>8.31767372344431</speed>
      </trkpt>
      <trkpt lat="44.15133" lon="5.35516">
        <ele>1215</ele>
        <time>2012-01-06T22:34:09Z</time>
        <course>244.669044566441</course>
        <speed>8.31051372179255</speed>
      </trkpt>
      <trkpt lat="44.15112" lon="5.35561">
        <ele>1209</ele>
        <time>2012-01-06T22:34:14Z</time>
        <course>151.291507702178</course>
        <speed>8.31355452676875</speed>
      </trkpt>
      <trkpt lat="44.15094" lon="5.35551">
        <ele>1206</ele>
        <time>2012-01-06T22:34:16Z</time>
        <course>131.097223180553</course>
        <speed>8.31921227611875</speed>
      </trkpt>
      <trkpt lat="44.15051" lon="5.35501">
        <ele>1197</ele>
        <time>2012-01-06T22:34:24Z</time>
        <course>178.052823677888</course>
        <speed>8.30790254148804</speed>
      </trkpt>
      <trkpt lat="44.15022" lon="5.355">
        <ele>1193</ele>
        <time>2012-01-06T22:34:28Z</time>
        <course>191.155240241232</course>
        <speed>8.31543184213202</speed>
      </trkpt>
      <trkpt lat="44.15002" lon="5.35504">
        <ele>1192</ele>
        <time>2012-01-06T22:34:30Z</time>
        <course>208.712997710097</course>
        <speed>8.3135757712615</speed>
      </trkpt>
      <trkpt lat="44.14984" lon="5.35514">
        <ele>1191</ele>
        <time>2012-01-06T22:34:33Z</time>
        <course>224.118941759928</course>
        <speed>8.31772758095942</speed>
      </trkpt>
      <trkpt lat="44.14924" lon="5.35573">
        <ele>1188</ele>
        <time>2012-01-06T22:34:43Z</time>
        <course>233.59166605892</course>
        <speed>8.3252401589804</speed>
      </trkpt>
      <trkpt lat="44.14908" lon="5.35595">
        <ele>1187</ele>
        <time>2012-01-06T22:34:46Z</time>
        <course>244.303951494647</course>
        <speed>8.31863746731432</speed>
      </trkpt>
      <trkpt lat="44.1488" lon="5.35654">
        <ele>1186</ele>
        <time>2012-01-06T22:34:53Z</time>
        <course>258.757154983659</course>
        <speed>8.31448672101897</speed>
      </trkpt>
      <trkpt lat="44.1487" lon="5.35705">
        <ele>1186</ele>
        <time>2012-01-06T22:34:58Z</time>
        <course>272.422746117383</course>
        <speed>8.32185938387608</speed>
      </trkpt>
      <trkpt lat="44.14873" lon="5.35777">
        <ele>1185</ele>
        <time>2012-01-06T22:35:05Z</time>
        <course>285.171953677906</course>
        <speed>8.31915746800897</speed>
      </trkpt>
      <trkpt lat="44.149" lon="5.35878">
        <ele>1185</ele>
        <time>2012-01-06T22:35:15Z</time>
        <course>314.836248079285</course>
        <speed>8.31529106556748</speed>
      </trkpt>
      <trkpt lat="44.1495" lon="5.35929">
        <ele>1180</ele>
        <time>2012-01-06T22:35:23Z</time>
        <course>282.261372064876</course>
        <speed>8.32109972917741</speed>
      </trkpt>
      <trkpt lat="44.14953" lon="5.35943">
        <ele>1179</ele>
        <time>2012-01-06T22:35:25Z</time>
        <course>257.300543088177</course>
        <speed>8.30064975882968</speed>
      </trkpt>
      <trkpt lat="44.14949" lon="5.35961">
        <ele>1178</ele>
        <time>2012-01-06T22:35:26Z</time>
        <course>204.142702078286</course>
        <speed>8.29476161259076</speed>
      </trkpt>
      <trkpt lat="44.14938" lon="5.35966">
        <ele>1177</ele>
        <time>2012-01-06T22:35:28Z</time>
        <course>171.981445274859</course>
        <speed>8.31825235719852</speed>
      </trkpt>
      <trkpt lat="44.14924" lon="5.35964">
        <ele>1176</ele>
        <time>2012-01-06T22:35:30Z</time>
        <course>160.374020845306</course>
        <speed>8.31870661029403</speed>
      </trkpt>
      <trkpt lat="44.14794" lon="5.35917">
        <ele>1166</ele>
        <time>2012-01-06T22:35:48Z</time>
        <course>171.371176381452</course>
        <speed>8.32062188408405</speed>
      </trkpt>
      <trkpt lat="44.14755" lon="5.35911">
        <ele>1162</ele>
        <time>2012-01-06T22:35:53Z</time>
        <course>190.352123482813</course>
        <speed>8.31486736785667</speed>
      </trkpt>
      <trkpt lat="44.14728" lon="5.35916">
        <ele>1159</ele>
        <time>2012-01-06T22:35:57Z</time>
        <course>206.25495375714</course>
        <speed>8.31630127131868</speed>
      </trkpt>
      <trkpt lat="44.14682" lon="5.35939">
        <ele>1155</ele>
        <time>2012-01-06T22:36:03Z</time>
        <course>221.434636198859</course>
        <speed>8.30781092837959</speed>
      </trkpt>
      <trkpt lat="44.14663" lon="5.35956">
        <ele>1154</ele>
        <time>2012-01-06T22:36:06Z</time>
        <course>234.36294297029</course>
        <speed>8.31593489384049</speed>
      </trkpt>
      <trkpt lat="44.14634" lon="5.35997">
        <ele>1153</ele>
        <time>2012-01-06T22:36:12Z</time>
        <course>246.086691927486</course>
        <speed>8.32422349350994</speed>
      </trkpt>
      <trkpt lat="44.1462" lon="5.36029">
        <ele>1153</ele>
        <time>2012-01-06T22:36:15Z</time>
        <course>253.47862021141</course>
        <speed>8.32702355066156</speed>
      </trkpt>
      <trkpt lat="44.14608" lon="5.3607">
        <ele>1153</ele>
        <time>2012-01-06T22:36:19Z</time>
        <course>260.790917725436</course>
        <speed>8.31916006746685</speed>
      </trkpt>
      <trkpt lat="44.146" lon="5.3612">
        <ele>1152</ele>
        <time>2012-01-06T22:36:24Z</time>
        <course>266.376832498095</course>
        <speed>8.31563431749199</speed>
      </trkpt>
      <trkpt lat="44.14598" lon="5.36152">
        <ele>1152</ele>
        <time>2012-01-06T22:36:27Z</time>
        <course>272.528615605824</course>
        <speed>8.32107401438407</speed>
      </trkpt>
      <trkpt lat="44.14603" lon="5.36267">
        <ele>1151</ele>
        <time>2012-01-06T22:36:39Z</time>
        <course>260.412640028036</course>
        <speed>8.32460331980476</speed>
      </trkpt>
      <trkpt lat="44.146" lon="5.36285">
        <ele>1150</ele>
        <time>2012-01-06T22:36:40Z</time>
        <course>245.266058696056</course>
        <speed>8.32832161944738</speed>
      </trkpt>
      <trkpt lat="44.14585" lon="5.36318">
        <ele>1148</ele>
        <time>2012-01-06T22:36:44Z</time>
        <course>227.504736932613</course>
        <speed>8.31537540352963</speed>
      </trkpt>
      <trkpt lat="44.14519" lon="5.36391">
        <ele>1142</ele>
        <time>2012-01-06T22:36:55Z</time>
        <course>244.240191868435</course>
        <speed>8.30430062555069</speed>
      </trkpt>
      <trkpt lat="44.14509" lon="5.36412">
        <ele>1142</ele>
        <time>2012-01-06T22:36:58Z</time>
        <course>261.76311371256</course>
        <speed>8.30824553854356</speed>
      </trkpt>
      <trkpt lat="44.14507" lon="5.36426">
        <ele>1142</ele>
        <time>2012-01-06T22:36:59Z</time>
        <course>276.426530850525</course>
        <speed>8.32784187231307</speed>
      </trkpt>
      <trkpt lat="44.14512" lon="5.36471">
        <ele>1142</ele>
        <time>2012-01-06T22:37:03Z</time>
        <course>294.473427553236</course>
        <speed>8.31926929324285</speed>
      </trkpt>
      <trkpt lat="44.14578" lon="5.36618">
        <ele>1142</ele>
        <time>2012-01-06T22:37:20Z</time>
        <course>285.452581464433</course>
        <speed>8.30366228294015</speed>
      </trkpt>
      <trkpt lat="44.14584" lon="5.3664">
        <ele>1139</ele>
        <time>2012-01-06T22:37:22Z</time>
        <course>261.762113520876</course>
        <speed>8.30814400543357</speed>
      </trkpt>
      <trkpt lat="44.14582" lon="5.36654">
        <ele>1138</ele>
        <time>2012-01-06T22:37:24Z</time>
        <course>224.615906323985</course>
        <speed>8.31698634641283</speed>
      </trkpt>
      <trkpt lat="44.14573" lon="5.36663">
        <ele>1137</ele>
        <time>2012-01-06T22:37:25Z</time>
        <course>183.76349061109</course>
        <speed>8.30202056095004</speed>
      </trkpt>
      <trkpt lat="44.14558" lon="5.36664">
        <ele>1135</ele>
        <time>2012-01-06T22:37:27Z</time>
        <course>170.233754214702</course>
        <speed>8.31682023592092</speed>
      </trkpt>
      <trkpt lat="44.14472" lon="5.36649">
        <ele>1125</ele>
        <time>2012-01-06T22:37:39Z</time>
        <course>190.357310042051</course>
        <speed>8.31487461464648</speed>
      </trkpt>
      <trkpt lat="44.14418" lon="5.36659">
        <ele>1116</ele>
        <time>2012-01-06T22:37:46Z</time>
        <course>204.578861292152</course>
        <speed>8.32101104579676</speed>
      </trkpt>
      <trkpt lat="44.14377" lon="5.36678">
        <ele>1109</ele>
        <time>2012-01-06T22:37:52Z</time>
        <course>224.082985507681</course>
        <speed>8.31710413691435</speed>
      </trkpt>
      <trkpt lat="44.14324" lon="5.3673">
        <ele>1099</ele>
        <time>2012-01-06T22:38:00Z</time>
        <course>236.862890004694</course>
        <speed>8.31532917406956</speed>
      </trkpt>
      <trkpt lat="44.14295" lon="5.36775">
        <ele>1093</ele>
        <time>2012-01-06T22:38:06Z</time>
        <course>246.300788439214</course>
        <speed>4.03251556767296</speed>
      </trkpt>
      <trkpt lat="44.14282" lon="5.36805">
        <ele>1094</ele>
        <time>2012-01-06T22:38:13Z</time>
        <course>260.010447329626</course>
        <speed>4.0280079502506</speed>
      </trkpt>
      <trkpt lat="44.14274" lon="5.36851">
        <ele>1096</ele>
        <time>2012-01-06T22:38:23Z</time>
        <course>265.434528917932</course>
        <speed>4.02964137191638</speed>
      </trkpt>
      <trkpt lat="44.14262" lon="5.37003">
        <ele>1103</ele>
        <time>2012-01-06T22:38:53Z</time>
        <course>253.859219621064</course>
        <speed>8.30599404104303</speed>
      </trkpt>
      <trkpt lat="44.14256" lon="5.37024">
        <ele>1101</ele>
        <time>2012-01-06T22:38:55Z</time>
        <course>238.16734774726</course>
        <speed>8.31423234373159</speed>
      </trkpt>
      <trkpt lat="44.14237" lon="5.37055">
        <ele>1099</ele>
        <time>2012-01-06T22:38:59Z</time>
        <course>214.351618376635</course>
        <speed>8.31448788707836</speed>
      </trkpt>
      <trkpt lat="44.14224" lon="5.37064">
        <ele>1098</ele>
        <time>2012-01-06T22:39:01Z</time>
        <course>180</course>
        <speed>8.31914438503759</speed>
      </trkpt>
      <trkpt lat="44.1421" lon="5.37064">
        <ele>1097</ele>
        <time>2012-01-06T22:39:03Z</time>
        <course>152.004283708868</course>
        <speed>8.32609772138918</speed>
      </trkpt>
      <trkpt lat="44.14197" lon="5.37057">
        <ele>1095</ele>
        <time>2012-01-06T22:39:05Z</time>
        <course>101.716294121757</course>
        <speed>8.32268423144621</speed>
      </trkpt>
      <trkpt lat="44.1418" lon="5.36974">
        <ele>1090</ele>
        <time>2012-01-06T22:39:13Z</time>
        <course>114.614874018601</course>
        <speed>8.31740983637605</speed>
      </trkpt>
      <trkpt lat="44.14161" lon="5.36932">
        <ele>1088</ele>
        <time>2012-01-06T22:39:18Z</time>
        <course>119.363604448013</course>
        <speed>8.32669261227247</speed>
      </trkpt>
      <trkpt lat="44.14141" lon="5.36896">
        <ele>1084</ele>
        <time>2012-01-06T22:39:22Z</time>
        <course>130.29251309182</course>
        <speed>8.32351748250413</speed>
      </trkpt>
      <trkpt lat="44.14105" lon="5.36853">
        <ele>1078</ele>
        <time>2012-01-06T22:39:28Z</time>
        <course>140.88188245085</course>
        <speed>8.31162975399903</speed>
      </trkpt>
      <trkpt lat="44.14088" lon="5.36839">
        <ele>1076</ele>
        <time>2012-01-06T22:39:31Z</time>
        <course>146.641192976456</course>
        <speed>8.32000273894903</speed>
      </trkpt>
      <trkpt lat="44.14052" lon="5.36815">
        <ele>1072</ele>
        <time>2012-01-06T22:39:36Z</time>
        <course>157.205380490106</course>
        <speed>8.32428718108198</speed>
      </trkpt>
      <trkpt lat="44.14005" lon="5.36795">
        <ele>1068</ele>
        <time>2012-01-06T22:39:43Z</time>
        <course>174.125567259945</course>
        <speed>8.31826203103499</speed>
      </trkpt>
      <trkpt lat="44.13909" lon="5.36785">
        <ele>1061</ele>
        <time>2012-01-06T22:39:56Z</time>
        <course>191.628321889372</course>
        <speed>8.32259989527548</speed>
      </trkpt>
      <trkpt lat="44.13885" lon="5.3679">
        <ele>1059</ele>
        <time>2012-01-06T22:39:59Z</time>
        <course>208.07743063025</course>
        <speed>8.32209654005086</speed>
      </trkpt>
      <trkpt lat="44.13835" lon="5.36817">
        <ele>1056</ele>
        <time>2012-01-06T22:40:06Z</time>
        <course>229.62912736028</course>
        <speed>8.31763779625882</speed>
      </trkpt>
      <trkpt lat="44.13772" lon="5.36892">
        <ele>1052</ele>
        <time>2012-01-06T22:40:17Z</time>
        <course>220.085037023229</course>
        <speed>8.31321380271777</speed>
      </trkpt>
      <trkpt lat="44.13745" lon="5.36915">
        <ele>1049</ele>
        <time>2012-01-06T22:40:21Z</time>
        <course>198.707186658154</course>
        <speed>8.31906072897543</speed>
      </trkpt>
      <trkpt lat="44.13602" lon="5.36964">
        <ele>1037</ele>
        <time>2012-01-06T22:40:41Z</time>
        <course>214.905926667421</course>
        <speed>8.31891020357695</speed>
      </trkpt>
      <trkpt lat="44.13449" lon="5.37072">
        <ele>1025</ele>
        <time>2012-01-06T22:41:04Z</time>
        <course>241.544728206678</course>
        <speed>6.61882685255171</speed>
      </trkpt>
      <trkpt lat="44.13434" lon="5.371">
        <ele>1025</ele>
        <time>2012-01-06T22:41:08Z</time>
        <course>266.142198930495</course>
        <speed>6.63772027660418</speed>
      </trkpt>
      <trkpt lat="44.13433" lon="5.37115">
        <ele>1025</ele>
        <time>2012-01-06T22:41:10Z</time>
        <course>286.57116109496</course>
        <speed>6.62989810328273</speed>
      </trkpt>
      <trkpt lat="44.13438" lon="5.37132">
        <ele>1025</ele>
        <time>2012-01-06T22:41:12Z</time>
        <course>305.737045653184</course>
        <speed>6.62134295132781</speed>
      </trkpt>
      <trkpt lat="44.13502" lon="5.37222">
        <ele>1027</ele>
        <time>2012-01-06T22:41:27Z</time>
        <course>309.877435733977</course>
        <speed>6.98323427527955</speed>
      </trkpt>
      <trkpt lat="44.13573" lon="5.37308">
        <ele>1028</ele>
        <time>2012-01-06T22:41:42Z</time>
        <course>325.102523401904</course>
        <speed>8.32070760149417</speed>
      </trkpt>
      <trkpt lat="44.13607" lon="5.37332">
        <ele>1026</ele>
        <time>2012-01-06T22:41:48Z</time>
        <course>336.81947080129</course>
        <speed>8.31212283026183</speed>
      </trkpt>
      <trkpt lat="44.13637" lon="5.37345">
        <ele>1026</ele>
        <time>2012-01-06T22:41:52Z</time>
        <course>307.198644890665</course>
        <speed>8.31346482527232</speed>
      </trkpt>
      <trkpt lat="44.13643" lon="5.37353">
        <ele>1025</ele>
        <time>2012-01-06T22:41:53Z</time>
        <course>282.236156949767</course>
        <speed>8.32279129228222</speed>
      </trkpt>
      <trkpt lat="44.13646" lon="5.37367">
        <ele>1025</ele>
        <time>2012-01-06T22:41:54Z</time>
        <course>258.559029560111</course>
        <speed>8.31202196371536</speed>
      </trkpt>
      <trkpt lat="44.13641" lon="5.37392">
        <ele>1025</ele>
        <time>2012-01-06T22:41:57Z</time>
        <course>190.57407869173</course>
        <speed>8.32009593559228</speed>
      </trkpt>
      <trkpt lat="44.13551" lon="5.37409">
        <ele>1017</ele>
        <time>2012-01-06T22:42:09Z</time>
        <course>195.391607220349</course>
        <speed>8.31979495775821</speed>
      </trkpt>
      <trkpt lat="44.13393" lon="5.37453">
        <ele>1004</ele>
        <time>2012-01-06T22:42:30Z</time>
        <course>164.909396172827</course>
        <speed>8.32008319173093</speed>
      </trkpt>
      <trkpt lat="44.13283" lon="5.37423">
        <ele>1001</ele>
        <time>2012-01-06T22:42:45Z</time>
        <course>152.320658604646</course>
        <speed>8.31881139731084</speed>
      </trkpt>
      <trkpt lat="44.13102" lon="5.37327">
        <ele>983</ele>
        <time>2012-01-06T22:43:11Z</time>
        <course>168.033642813683</course>
        <speed>8.3190954654959</speed>
      </trkpt>
      <trkpt lat="44.13032" lon="5.37312">
        <ele>976</ele>
        <time>2012-01-06T22:43:21Z</time>
        <course>187.048140803794</course>
        <speed>8.31550382173863</speed>
      </trkpt>
      <trkpt lat="44.13008" lon="5.37315">
        <ele>974</ele>
        <time>2012-01-06T22:43:24Z</time>
        <course>202.347835623541</course>
        <speed>8.32133166663842</speed>
      </trkpt>
      <trkpt lat="44.12931" lon="5.37347">
        <ele>969</ele>
        <time>2012-01-06T22:43:35Z</time>
        <course>184.222441043938</course>
        <speed>8.32110841051222</speed>
      </trkpt>
      <trkpt lat="44.12864" lon="5.37352">
        <ele>965</ele>
        <time>2012-01-06T22:43:44Z</time>
        <course>177.589199465087</course>
        <speed>8.32018408804589</speed>
      </trkpt>
      <trkpt lat="44.12817" lon="5.3735">
        <ele>963</ele>
        <time>2012-01-06T22:43:50Z</time>
        <course>163.006462867759</course>
        <speed>8.31765873905137</speed>
      </trkpt>
      <trkpt lat="44.12681" lon="5.37308">
        <ele>959</ele>
        <time>2012-01-06T22:44:08Z</time>
        <course>172.314314183379</course>
        <speed>8.31242996422013</speed>
      </trkpt>
      <trkpt lat="44.12637" lon="5.37302">
        <ele>954</ele>
        <time>2012-01-06T22:44:14Z</time>
        <course>179.523440180484</course>
        <speed>8.31667960125736</speed>
      </trkpt>
      <trkpt lat="44.12518" lon="5.37301">
        <ele>944</ele>
        <time>2012-01-06T22:44:30Z</time>
        <course>186.276505932811</course>
        <speed>8.31887140104804</speed>
      </trkpt>
      <trkpt lat="44.12473" lon="5.37306">
        <ele>941</ele>
        <time>2012-01-06T22:44:36Z</time>
        <course>202.126192947157</course>
        <speed>8.317341544943</speed>
      </trkpt>
      <trkpt lat="44.12417" lon="5.37329">
        <ele>938</ele>
        <time>2012-01-06T22:44:44Z</time>
        <course>216.38154850577</course>
        <speed>8.32135901886887</speed>
      </trkpt>
      <trkpt lat="44.12374" lon="5.37361">
        <ele>935</ele>
        <time>2012-01-06T22:44:51Z</time>
        <course>223.47021973853</course>
        <speed>8.31656747115984</speed>
      </trkpt>
      <trkpt lat="44.12327" lon="5.37406">
        <ele>932</ele>
        <time>2012-01-06T22:44:58Z</time>
        <course>230.093762677543</course>
        <speed>8.31804583178388</speed>
      </trkpt>
      <trkpt lat="44.12274" lon="5.3747">
        <ele>927</ele>
        <time>2012-01-06T22:45:08Z</time>
        <course>233.5608924788</course>
        <speed>8.31820495828667</speed>
      </trkpt>
      <trkpt lat="44.12206" lon="5.37563">
        <ele>922</ele>
        <time>2012-01-06T22:45:20Z</time>
        <course>244.93810127273</course>
        <speed>8.31955837345093</speed>
      </trkpt>
      <trkpt lat="44.12162" lon="5.37658">
        <ele>916</ele>
        <time>2012-01-06T22:45:31Z</time>
        <course>255.690273907074</course>
        <speed>8.31976760437435</speed>
      </trkpt>
      <trkpt lat="44.12116" lon="5.3784">
        <ele>908</ele>
        <time>2012-01-06T22:45:50Z</time>
        <course>243.213771727718</course>
        <speed>8.33243397276549</speed>
      </trkpt>
      <trkpt lat="44.12104" lon="5.37864">
        <ele>906</ele>
        <time>2012-01-06T22:45:52Z</time>
        <course>230.365644878391</course>
        <speed>8.31810072447805</speed>
      </trkpt>
      <trkpt lat="44.12008" lon="5.37981">
        <ele>900</ele>
        <time>2012-01-06T22:46:10Z</time>
        <course>237.209228693052</course>
        <speed>8.32000406303367</speed>
      </trkpt>
      <trkpt lat="44.11918" lon="5.38122">
        <ele>891</ele>
        <time>2012-01-06T22:46:28Z</time>
        <course>251.404326806517</course>
        <speed>8.31639946169516</speed>
      </trkpt>
      <trkpt lat="44.11907" lon="5.38155">
        <ele>889</ele>
        <time>2012-01-06T22:46:31Z</time>
        <course>263.602668802347</course>
        <speed>8.31871093337456</speed>
      </trkpt>
      <trkpt lat="44.11901" lon="5.38209">
        <ele>887</ele>
        <time>2012-01-06T22:46:36Z</time>
        <course>244.77734977261</course>
        <speed>8.29759242262172</speed>
      </trkpt>
      <trkpt lat="44.11894" lon="5.38224">
        <ele>887</ele>
        <time>2012-01-06T22:46:38Z</time>
        <course>225.692349962028</course>
        <speed>8.31847552197893</speed>
      </trkpt>
      <trkpt lat="44.11746" lon="5.38377">
        <ele>878</ele>
        <time>2012-01-06T22:47:03Z</time>
        <course>235.469494305605</course>
        <speed>8.31757225440271</speed>
      </trkpt>
      <trkpt lat="44.11731" lon="5.38399">
        <ele>876</ele>
        <time>2012-01-06T22:47:06Z</time>
        <course>255.013055079937</course>
        <speed>8.31806407093504</speed>
      </trkpt>
      <trkpt lat="44.11718" lon="5.38448">
        <ele>874</ele>
        <time>2012-01-06T22:47:11Z</time>
        <course>271.231855735492</course>
        <speed>8.31723079904129</speed>
      </trkpt>
      <trkpt lat="44.11719" lon="5.38495">
        <ele>871</ele>
        <time>2012-01-06T22:47:15Z</time>
        <course>287.598778254277</course>
        <speed>8.32773785207349</speed>
      </trkpt>
      <trkpt lat="44.1173" lon="5.3853">
        <ele>870</ele>
        <time>2012-01-06T22:47:19Z</time>
        <course>300.434701447517</course>
        <speed>8.32048297332974</speed>
      </trkpt>
      <trkpt lat="44.11769" lon="5.38597">
        <ele>865</ele>
        <time>2012-01-06T22:47:27Z</time>
        <course>278.443389413827</course>
        <speed>8.31425259275748</speed>
      </trkpt>
      <trkpt lat="44.11774" lon="5.38631">
        <ele>864</ele>
        <time>2012-01-06T22:47:30Z</time>
        <course>221.663268911864</course>
        <speed>8.31607739192724</speed>
      </trkpt>
      <trkpt lat="44.11725" lon="5.38675">
        <ele>860</ele>
        <time>2012-01-06T22:47:38Z</time>
        <course>211.162858973451</course>
        <speed>8.31786559742211</speed>
      </trkpt>
      <trkpt lat="44.11607" lon="5.38747">
        <ele>855</ele>
        <time>2012-01-06T22:47:55Z</time>
        <course>221.169612074612</course>
        <speed>8.31288739642454</speed>
      </trkpt>
      <trkpt lat="44.1159" lon="5.38762">
        <ele>853</ele>
        <time>2012-01-06T22:47:58Z</time>
        <course>235.76754543396</course>
        <speed>8.31554619599111</speed>
      </trkpt>
      <trkpt lat="44.11561" lon="5.38805">
        <ele>850</ele>
        <time>2012-01-06T22:48:04Z</time>
        <course>244.987925184036</course>
        <speed>8.31528646990795</speed>
      </trkpt>
      <trkpt lat="44.11524" lon="5.38885">
        <ele>846</ele>
        <time>2012-01-06T22:48:13Z</time>
        <course>222.258244294734</course>
        <speed>8.31404759580134</speed>
      </trkpt>
      <trkpt lat="44.11512" lon="5.38896">
        <ele>845</ele>
        <time>2012-01-06T22:48:15Z</time>
        <course>184.360262865849</course>
        <speed>8.31471983170747</speed>
      </trkpt>
      <trkpt lat="44.11486" lon="5.38898">
        <ele>844</ele>
        <time>2012-01-06T22:48:18Z</time>
        <course>154.99175261072</course>
        <speed>8.32543739804022</speed>
      </trkpt>
      <trkpt lat="44.11452" lon="5.38882">
        <ele>842</ele>
        <time>2012-01-06T22:48:23Z</time>
        <course>177.297375342053</course>
        <speed>8.30919340081361</speed>
      </trkpt>
      <trkpt lat="44.11431" lon="5.38881">
        <ele>842</ele>
        <time>2012-01-06T22:48:26Z</time>
        <course>216.255563918458</course>
        <speed>8.3195506441331</speed>
      </trkpt>
      <trkpt lat="44.11358" lon="5.38935">
        <ele>841</ele>
        <time>2012-01-06T22:48:37Z</time>
        <course>185.661922055599</course>
        <speed>8.31388262202164</speed>
      </trkpt>
      <trkpt lat="44.11338" lon="5.38937">
        <ele>841</ele>
        <time>2012-01-06T22:48:40Z</time>
        <course>156.550889681331</course>
        <speed>8.31949197007426</speed>
      </trkpt>
      <trkpt lat="44.11322" lon="5.3893">
        <ele>840</ele>
        <time>2012-01-06T22:48:42Z</time>
        <course>136.879420760409</course>
        <speed>8.31410370612519</speed>
      </trkpt>
      <trkpt lat="44.11268" lon="5.38879">
        <ele>836</ele>
        <time>2012-01-06T22:48:51Z</time>
        <course>153.629201093616</course>
        <speed>8.3338714992244</speed>
      </trkpt>
      <trkpt lat="44.1125" lon="5.3887">
        <ele>835</ele>
        <time>2012-01-06T22:48:53Z</time>
        <course>180</course>
        <speed>8.31656204733862</speed>
      </trkpt>
      <trkpt lat="44.11095" lon="5.3887">
        <ele>824</ele>
        <time>2012-01-06T22:49:14Z</time>
        <course>202.140822870093</course>
        <speed>8.32003634562373</speed>
      </trkpt>
      <trkpt lat="44.11056" lon="5.38886">
        <ele>822</ele>
        <time>2012-01-06T22:49:19Z</time>
        <course>219.574198636195</course>
        <speed>8.32447579612822</speed>
      </trkpt>
      <trkpt lat="44.11038" lon="5.38901">
        <ele>822</ele>
        <time>2012-01-06T22:49:22Z</time>
        <course>229.167527714353</course>
        <speed>8.31480268649418</speed>
      </trkpt>
      <trkpt lat="44.11008" lon="5.38936">
        <ele>821</ele>
        <time>2012-01-06T22:49:27Z</time>
        <course>243.248973000804</course>
        <speed>8.31863709630813</speed>
      </trkpt>
      <trkpt lat="44.10984" lon="5.38984">
        <ele>820</ele>
        <time>2012-01-06T22:49:33Z</time>
        <course>258.601379438852</course>
        <speed>8.3238575327615</speed>
      </trkpt>
      <trkpt lat="44.10976" lon="5.39024">
        <ele>820</ele>
        <time>2012-01-06T22:49:37Z</time>
        <course>267.902422629251</course>
        <speed>8.32159270981775</speed>
      </trkpt>
      <trkpt lat="44.10974" lon="5.39079">
        <ele>820</ele>
        <time>2012-01-06T22:49:42Z</time>
        <course>293.600646177393</course>
        <speed>8.3204776461311</speed>
      </trkpt>
      <trkpt lat="44.10987" lon="5.39109">
        <ele>818</ele>
        <time>2012-01-06T22:49:45Z</time>
        <course>316.132277571525</course>
        <speed>8.3172436512431</speed>
      </trkpt>
      <trkpt lat="44.11052" lon="5.39172">
        <ele>814</ele>
        <time>2012-01-06T22:49:56Z</time>
        <course>326.143083222087</course>
        <speed>8.31711717729116</speed>
      </trkpt>
      <trkpt lat="44.11086" lon="5.39195">
        <ele>812</ele>
        <time>2012-01-06T22:50:01Z</time>
        <course>331.214685388372</course>
        <speed>8.31731765035801</speed>
      </trkpt>
      <trkpt lat="44.1116" lon="5.39236">
        <ele>808</ele>
        <time>2012-01-06T22:50:12Z</time>
        <course>340.919261438405</course>
        <speed>8.32051875457526</speed>
      </trkpt>
      <trkpt lat="44.11203" lon="5.39251">
        <ele>803</ele>
        <time>2012-01-06T22:50:18Z</time>
        <course>315.242314829019</course>
        <speed>8.34114340669192</speed>
      </trkpt>
      <trkpt lat="44.11213" lon="5.39261">
        <ele>802</ele>
        <time>2012-01-06T22:50:19Z</time>
        <course>275.487014459053</course>
        <speed>8.32558361873067</speed>
      </trkpt>
      <trkpt lat="44.11215" lon="5.39282">
        <ele>800</ele>
        <time>2012-01-06T22:50:21Z</time>
        <course>239.170932587052</course>
        <speed>8.31900629056664</speed>
      </trkpt>
      <trkpt lat="44.11186" lon="5.39331">
        <ele>795</ele>
        <time>2012-01-06T22:50:27Z</time>
        <course>253.610664678815</course>
        <speed>8.33360827912862</speed>
      </trkpt>
      <trkpt lat="44.11179" lon="5.39355">
        <ele>793</ele>
        <time>2012-01-06T22:50:30Z</time>
        <course>275.758859678468</course>
        <speed>8.30437019155313</speed>
      </trkpt>
      <trkpt lat="44.1118" lon="5.39365">
        <ele>793</ele>
        <time>2012-01-06T22:50:31Z</time>
        <course>307.638959575221</course>
        <speed>5.81081566223984</speed>
      </trkpt>
      <trkpt lat="44.11193" lon="5.39382">
        <ele>793</ele>
        <time>2012-01-06T22:50:34Z</time>
        <course>336.976520010346</course>
        <speed>5.81308092396025</speed>
      </trkpt>
      <trkpt lat="44.11221" lon="5.39394">
        <ele>794</ele>
        <time>2012-01-06T22:50:40Z</time>
        <course>329.253998358082</course>
        <speed>5.81438014028059</speed>
      </trkpt>
      <trkpt lat="44.11331" lon="5.3946">
        <ele>797</ele>
        <time>2012-01-06T22:51:03Z</time>
        <course>321.581966658887</course>
        <speed>8.32110870064103</speed>
      </trkpt>
      <trkpt lat="44.11361" lon="5.39484">
        <ele>794</ele>
        <time>2012-01-06T22:51:07Z</time>
        <course>303.920865444469</course>
        <speed>8.32126118599154</speed>
      </trkpt>
      <trkpt lat="44.11385" lon="5.3952">
        <ele>791</ele>
        <time>2012-01-06T22:51:12Z</time>
        <course>294.966010878127</course>
        <speed>8.33072555267151</speed>
      </trkpt>
      <trkpt lat="44.11397" lon="5.39546">
        <ele>790</ele>
        <time>2012-01-06T22:51:15Z</time>
        <course>290.874888166366</course>
        <speed>8.32130330639958</speed>
      </trkpt>
      <trkpt lat="44.11445" lon="5.39673">
        <ele>782</ele>
        <time>2012-01-06T22:51:29Z</time>
        <course>274.121962543433</course>
        <speed>8.31418947627147</speed>
      </trkpt>
      <trkpt lat="44.11446" lon="5.39687">
        <ele>781</ele>
        <time>2012-01-06T22:51:30Z</time>
        <course>238.81557774488</course>
        <speed>8.33094795156145</speed>
      </trkpt>
      <trkpt lat="44.11431" lon="5.39712">
        <ele>779</ele>
        <time>2012-01-06T22:51:33Z</time>
        <course>203.01909603715</course>
        <speed>8.31852379723831</speed>
      </trkpt>
      <trkpt lat="44.11389" lon="5.3973">
        <ele>776</ele>
        <time>2012-01-06T22:51:39Z</time>
        <course>178.329722889606</course>
        <speed>8.31446038086246</speed>
      </trkpt>
      <trkpt lat="44.11321" lon="5.39728">
        <ele>772</ele>
        <time>2012-01-06T22:51:48Z</time>
        <course>193.050133579847</course>
        <speed>8.31823097422499</speed>
      </trkpt>
      <trkpt lat="44.11244" lon="5.39746">
        <ele>767</ele>
        <time>2012-01-06T22:51:59Z</time>
        <course>180</course>
        <speed>8.32176211463744</speed>
      </trkpt>
      <trkpt lat="44.11193" lon="5.39746">
        <ele>764</ele>
        <time>2012-01-06T22:52:05Z</time>
        <course>202.580201185538</course>
        <speed>8.32748550189232</speed>
      </trkpt>
      <trkpt lat="44.11162" lon="5.39759">
        <ele>760</ele>
        <time>2012-01-06T22:52:10Z</time>
        <course>221.35474006883</course>
        <speed>8.31965125621066</speed>
      </trkpt>
      <trkpt lat="44.11082" lon="5.3983">
        <ele>752</ele>
        <time>2012-01-06T22:52:22Z</time>
        <course>213.268582128705</course>
        <speed>8.31882964083364</speed>
      </trkpt>
      <trkpt lat="44.10955" lon="5.39914">
        <ele>743</ele>
        <time>2012-01-06T22:52:41Z</time>
        <course>219.296383773751</course>
        <speed>8.31899323837004</speed>
      </trkpt>
      <trkpt lat="44.10915" lon="5.39947">
        <ele>739</ele>
        <time>2012-01-06T22:52:47Z</time>
        <course>233.876076961136</course>
        <speed>8.31945628663112</speed>
      </trkpt>
      <trkpt lat="44.10831" lon="5.40063">
        <ele>730</ele>
        <time>2012-01-06T22:53:03Z</time>
        <course>222.047867841149</course>
        <speed>8.31726306466985</speed>
      </trkpt>
      <trkpt lat="44.10809" lon="5.40083">
        <ele>728</ele>
        <time>2012-01-06T22:53:07Z</time>
        <course>173.709359214719</course>
        <speed>8.3257901339784</speed>
      </trkpt>
      <trkpt lat="44.10791" lon="5.40081">
        <ele>727</ele>
        <time>2012-01-06T22:53:09Z</time>
        <course>152.485289759168</course>
        <speed>8.31895901510841</speed>
      </trkpt>
      <trkpt lat="44.10751" lon="5.4006">
        <ele>725</ele>
        <time>2012-01-06T22:53:15Z</time>
        <course>161.698705921658</course>
        <speed>8.31979470895257</speed>
      </trkpt>
      <trkpt lat="44.10706" lon="5.40045">
        <ele>723</ele>
        <time>2012-01-06T22:53:21Z</time>
        <course>140.411598187232</course>
        <speed>8.31471396629243</speed>
      </trkpt>
      <trkpt lat="44.10652" lon="5.4">
        <ele>721</ele>
        <time>2012-01-06T22:53:29Z</time>
        <course>147.509526615822</course>
        <speed>8.31825806565382</speed>
      </trkpt>
      <trkpt lat="44.10532" lon="5.39923">
        <ele>719</ele>
        <time>2012-01-06T22:53:47Z</time>
        <course>161.694456598762</course>
        <speed>7.04334661293856</speed>
      </trkpt>
      <trkpt lat="44.10505" lon="5.39914">
        <ele>719</ele>
        <time>2012-01-06T22:53:52Z</time>
        <course>180</course>
        <speed>7.04441717787739</speed>
      </trkpt>
      <trkpt lat="44.10474" lon="5.39914">
        <ele>719</ele>
        <time>2012-01-06T22:53:56Z</time>
        <course>210.548021687311</course>
        <speed>7.04017256016249</speed>
      </trkpt>
      <trkpt lat="44.10437" lon="5.39936">
        <ele>720</ele>
        <time>2012-01-06T22:54:03Z</time>
        <course>234.470188866934</course>
        <speed>8.31703808651625</speed>
      </trkpt>
      <trkpt lat="44.10381" lon="5.40015">
        <ele>718</ele>
        <time>2012-01-06T22:54:13Z</time>
        <course>223.15360182344</course>
        <speed>8.3192869093952</speed>
      </trkpt>
      <trkpt lat="44.10345" lon="5.40049">
        <ele>717</ele>
        <time>2012-01-06T22:54:19Z</time>
        <course>209.411465719199</course>
        <speed>8.31829724023496</speed>
      </trkpt>
      <trkpt lat="44.10042" lon="5.40221">
        <ele>714</ele>
        <time>2012-01-06T22:55:03Z</time>
        <course>199.759515601796</course>
        <speed>8.32065957495706</speed>
      </trkpt>
      <trkpt lat="44.09948" lon="5.40255">
        <ele>713</ele>
        <time>2012-01-06T22:55:16Z</time>
        <course>219.612845791256</course>
        <speed>8.3100489313642</speed>
      </trkpt>
      <trkpt lat="44.09924" lon="5.40275">
        <ele>711</ele>
        <time>2012-01-06T22:55:20Z</time>
        <course>244.649276781042</course>
        <speed>8.31747592978068</speed>
      </trkpt>
      <trkpt lat="44.099" lon="5.40326">
        <ele>710</ele>
        <time>2012-01-06T22:55:25Z</time>
        <course>234.220979367828</course>
        <speed>8.31827701003356</speed>
      </trkpt>
      <trkpt lat="44.09726" lon="5.40569">
        <ele>700</ele>
        <time>2012-01-06T22:55:58Z</time>
        <course>252.967319002796</course>
        <speed>7.60863475992081</speed>
      </trkpt>
      <trkpt lat="44.09719" lon="5.40592">
        <ele>700</ele>
        <time>2012-01-06T22:56:01Z</time>
        <course>267.599029270349</course>
        <speed>7.61297082145965</speed>
      </trkpt>
      <trkpt lat="44.09718" lon="5.40616">
        <ele>700</ele>
        <time>2012-01-06T22:56:04Z</time>
        <course>285.520598637422</course>
        <speed>7.60466057980045</speed>
      </trkpt>
      <trkpt lat="44.09726" lon="5.40645">
        <ele>700</ele>
        <time>2012-01-06T22:56:07Z</time>
        <course>315.972815910126</course>
        <speed>7.61477779769857</speed>
      </trkpt>
      <trkpt lat="44.09838" lon="5.40754">
        <ele>701</ele>
        <time>2012-01-06T22:56:27Z</time>
        <course>310.546176556459</course>
        <speed>4.85173331676879</speed>
      </trkpt>
      <trkpt lat="44.09934" lon="5.40867">
        <ele>706</ele>
        <time>2012-01-06T22:56:56Z</time>
        <course>315.198283162123</course>
        <speed>4.61301263587381</speed>
      </trkpt>
      <trkpt lat="44.09966" lon="5.40899">
        <ele>707</ele>
        <time>2012-01-06T22:57:05Z</time>
        <course>281.386931256798</course>
        <speed>4.6147933874466</speed>
      </trkpt>
      <trkpt lat="44.0997" lon="5.40919">
        <ele>708</ele>
        <time>2012-01-06T22:57:09Z</time>
        <course>180</course>
        <speed>4.61169960480662</speed>
      </trkpt>
      <trkpt lat="44.09949" lon="5.40919">
        <ele>709</ele>
        <time>2012-01-06T22:57:14Z</time>
        <course>158.672842244017</course>
        <speed>4.61360917762749</speed>
      </trkpt>
      <trkpt lat="44.0972" lon="5.40829">
        <ele>720</ele>
        <time>2012-01-06T22:58:11Z</time>
        <course>162.392350033185</course>
        <speed>4.69861467305995</speed>
      </trkpt>
      <trkpt lat="44.09648" lon="5.40806">
        <ele>723</ele>
        <time>2012-01-06T22:58:28Z</time>
        <course>182.474138044993</course>
        <speed>4.699658142583</speed>
      </trkpt>
      <trkpt lat="44.09372" lon="5.40818">
        <ele>735</ele>
        <time>2012-01-06T22:59:34Z</time>
        <course>185.714198577148</course>
        <speed>6.11196656965404</speed>
      </trkpt>
      <trkpt lat="44.09223" lon="5.40833">
        <ele>738</ele>
        <time>2012-01-06T23:00:01Z</time>
        <course>238.88357197355</course>
        <speed>5.36047548761342</speed>
      </trkpt>
      <trkpt lat="44.09214" lon="5.40848">
        <ele>738</ele>
        <time>2012-01-06T23:00:04Z</time>
        <course>258.420002469621</course>
        <speed>5.36486871477808</speed>
      </trkpt>
      <trkpt lat="44.09203" lon="5.40902">
        <ele>739</ele>
        <time>2012-01-06T23:00:12Z</time>
        <course>242.100209046324</course>
        <speed>5.36357737659475</speed>
      </trkpt>
      <trkpt lat="44.09183" lon="5.4094">
        <ele>740</ele>
        <time>2012-01-06T23:00:19Z</time>
        <course>115.332801773304</course>
        <speed>5.36214622930616</speed>
      </trkpt>
      <trkpt lat="44.09167" lon="5.40906">
        <ele>741</ele>
        <time>2012-01-06T23:00:25Z</time>
        <course>42.1023387880566</course>
        <speed>5.36691625508384</speed>
      </trkpt>
      <trkpt lat="44.09178" lon="5.40896">
        <ele>742</ele>
        <time>2012-01-06T23:00:28Z</time>
        <course>42.1023387880566</course>
        <speed>5.36691625508384</speed>
      </trkpt>
      <trkpt lat="44.09178" lon="5.40896">
        <ele>742</ele>
        <time>2012-01-06T23:00:29Z</time>
        <course>222.102964512922</course>
        <speed>2.20847385988321</speed>
      </trkpt>
      <trkpt lat="44.09167" lon="5.40906">
        <ele>744</ele>
        <time>2012-01-06T23:00:36Z</time>
        <course>295.334929721966</course>
        <speed>2.20987634109688</speed>
      </trkpt>
      <trkpt lat="44.09183" lon="5.4094">
        <ele>748</ele>
        <time>2012-01-06T23:00:50Z</time>
        <course>300.367530140323</course>
        <speed>2.209198856065</speed>
      </trkpt>
      <trkpt lat="44.09275" lon="5.41098">
        <ele>771</ele>
        <time>2012-01-06T23:02:04Z</time>
        <course>302.898170656142</course>
        <speed>2.90790808310118</speed>
      </trkpt>
      <trkpt lat="44.09329" lon="5.41182">
        <ele>779</ele>
        <time>2012-01-06T23:02:35Z</time>
        <course>317.467414428509</course>
        <speed>2.90802161171392</speed>
      </trkpt>
      <trkpt lat="44.09342" lon="5.41194">
        <ele>781</ele>
        <time>2012-01-06T23:02:41Z</time>
        <course>360</course>
        <speed>8.31510204050475</speed>
      </trkpt>
      <trkpt lat="44.09353" lon="5.41194">
        <ele>780</ele>
        <time>2012-01-06T23:02:42Z</time>
        <course>48.1892020371092</course>
        <speed>8.31177363883365</speed>
      </trkpt>
      <trkpt lat="44.09369" lon="5.41176">
        <ele>780</ele>
        <time>2012-01-06T23:02:45Z</time>
        <course>66.735821414542</course>
        <speed>8.31671987555962</speed>
      </trkpt>
      <trkpt lat="44.09413" lon="5.41073">
        <ele>778</ele>
        <time>2012-01-06T23:02:56Z</time>
        <course>53.6694933010568</course>
        <speed>8.31524460187988</speed>
      </trkpt>
      <trkpt lat="44.09432" lon="5.41047">
        <ele>778</ele>
        <time>2012-01-06T23:03:00Z</time>
        <course>15.8501163710485</course>
        <speed>8.32916590787301</speed>
      </trkpt>
      <trkpt lat="44.09453" lon="5.41041">
        <ele>778</ele>
        <time>2012-01-06T23:03:03Z</time>
        <course>357.006196968235</course>
        <speed>8.31806207415795</speed>
      </trkpt>
      <trkpt lat="44.09472" lon="5.41042">
        <ele>778</ele>
        <time>2012-01-06T23:03:05Z</time>
        <course>340.823235735742</course>
        <speed>8.33285741364075</speed>
      </trkpt>
      <trkpt lat="44.09492" lon="5.41049">
        <ele>778</ele>
        <time>2012-01-06T23:03:08Z</time>
        <course>317.157222899712</course>
        <speed>8.32621276753479</speed>
      </trkpt>
      <trkpt lat="44.09507" lon="5.41063">
        <ele>778</ele>
        <time>2012-01-06T23:03:10Z</time>
        <course>298.650381026796</course>
        <speed>3.49433607438778</speed>
      </trkpt>
      <trkpt lat="44.09526" lon="5.41098">
        <ele>780</ele>
        <time>2012-01-06T23:03:20Z</time>
        <course>282.917869843849</course>
        <speed>3.49220135292838</speed>
      </trkpt>
      <trkpt lat="44.09544" lon="5.41177">
        <ele>785</ele>
        <time>2012-01-06T23:03:39Z</time>
        <course>292.847213443378</course>
        <speed>3.72254060870019</speed>
      </trkpt>
      <trkpt lat="44.09562" lon="5.4122">
        <ele>787</ele>
        <time>2012-01-06T23:03:50Z</time>
        <course>303.3201428734</course>
        <speed>3.72077701112979</speed>
      </trkpt>
      <trkpt lat="44.09626" lon="5.41318">
        <ele>794</ele>
        <time>2012-01-06T23:04:18Z</time>
        <course>247.247899950359</course>
        <speed>6.55113874635654</speed>
      </trkpt>
      <trkpt lat="44.09621" lon="5.4133">
        <ele>794</ele>
        <time>2012-01-06T23:04:20Z</time>
        <course>278.802758979956</course>
        <speed>6.54925842522241</speed>
      </trkpt>
      <trkpt lat="44.09623" lon="5.41343">
        <ele>794</ele>
        <time>2012-01-06T23:04:22Z</time>
        <course>320.378122992208</course>
        <speed>6.5294135585936</speed>
      </trkpt>
      <trkpt lat="44.09635" lon="5.41353">
        <ele>794</ele>
        <time>2012-01-06T23:04:24Z</time>
        <course>28.4533926023785</course>
        <speed>6.53113349009565</speed>
      </trkpt>
      <trkpt lat="44.09646" lon="5.41347">
        <ele>794</ele>
        <time>2012-01-06T23:04:26Z</time>
        <course>307.049848146175</course>
        <speed>6.50065333261089</speed>
      </trkpt>
      <trkpt lat="44.09649" lon="5.41351">
        <ele>794</ele>
        <time>2012-01-06T23:04:27Z</time>
        <course>305.707400042871</course>
        <speed>6.53342392849925</speed>
      </trkpt>
      <trkpt lat="44.09846" lon="5.41627">
        <ele>799</ele>
        <time>2012-01-06T23:05:14Z</time>
        <course>304.289627164859</course>
        <speed>8.31803082107568</speed>
      </trkpt>
      <trkpt lat="44.10135" lon="5.42054">
        <ele>798</ele>
        <time>2012-01-06T23:06:11Z</time>
        <course>286.331962197949</course>
        <speed>8.32044965416722</speed>
      </trkpt>
      <trkpt lat="44.10192" lon="5.4225">
        <ele>798</ele>
        <time>2012-01-06T23:06:31Z</time>
        <course>297.243904361497</course>
        <speed>6.55220983495193</speed>
      </trkpt>
      <trkpt lat="44.10308" lon="5.42477">
        <ele>801</ele>
        <time>2012-01-06T23:07:05Z</time>
        <course>300.069943833095</course>
        <speed>8.31977455972389</speed>
      </trkpt>
      <trkpt lat="44.10385" lon="5.42611">
        <ele>801</ele>
        <time>2012-01-06T23:07:21Z</time>
        <course>297.083328998541</course>
        <speed>8.3181044558614</speed>
      </trkpt>
      <trkpt lat="44.10453" lon="5.42745">
        <ele>799</ele>
        <time>2012-01-06T23:07:37Z</time>
        <course>283.490279414842</course>
        <speed>8.32709136868186</speed>
      </trkpt>
      <trkpt lat="44.10458" lon="5.42766">
        <ele>798</ele>
        <time>2012-01-06T23:07:39Z</time>
        <course>266.965254057926</course>
        <speed>8.30664058257902</speed>
      </trkpt>
      <trkpt lat="44.10457" lon="5.42785">
        <ele>798</ele>
        <time>2012-01-06T23:07:41Z</time>
        <course>247.347049820609</course>
        <speed>8.32049893676454</speed>
      </trkpt>
      <trkpt lat="44.10428" lon="5.42855">
        <ele>796</ele>
        <time>2012-01-06T23:07:49Z</time>
        <course>261.643322578121</course>
        <speed>8.31537392745884</speed>
      </trkpt>
      <trkpt lat="44.10421" lon="5.42903">
        <ele>795</ele>
        <time>2012-01-06T23:07:54Z</time>
        <course>274.656947523211</course>
        <speed>8.31665930156957</speed>
      </trkpt>
      <trkpt lat="44.10439" lon="5.43126">
        <ele>782</ele>
        <time>2012-01-06T23:08:15Z</time>
        <course>286.06015560707</course>
        <speed>5.64976742023276</speed>
      </trkpt>
      <trkpt lat="44.10449" lon="5.43161">
        <ele>782</ele>
        <time>2012-01-06T23:08:20Z</time>
        <course>300.768345437405</course>
        <speed>5.65518176777344</speed>
      </trkpt>
      <trkpt lat="44.10462" lon="5.43183">
        <ele>783</ele>
        <time>2012-01-06T23:08:24Z</time>
        <course>316.612817334471</course>
        <speed>5.65402836969588</speed>
      </trkpt>
      <trkpt lat="44.10483" lon="5.43203">
        <ele>783</ele>
        <time>2012-01-06T23:08:29Z</time>
        <course>329.113950766855</course>
        <speed>5.65509716351531</speed>
      </trkpt>
      <trkpt lat="44.10556" lon="5.43247">
        <ele>786</ele>
        <time>2012-01-06T23:08:45Z</time>
        <course>341.697108421502</course>
        <speed>8.31629476678962</speed>
      </trkpt>
      <trkpt lat="44.10625" lon="5.4327">
        <ele>785</ele>
        <time>2012-01-06T23:08:55Z</time>
        <course>346.519921571195</course>
        <speed>8.31890781688974</speed>
      </trkpt>
      <trkpt lat="44.10774" lon="5.43306">
        <ele>784</ele>
        <time>2012-01-06T23:09:15Z</time>
        <course>340.289616816743</course>
        <speed>8.31510005813931</speed>
      </trkpt>
      <trkpt lat="44.1081" lon="5.43319">
        <ele>782</ele>
        <time>2012-01-06T23:09:20Z</time>
        <course>326.899083207737</course>
        <speed>8.31799610043701</speed>
      </trkpt>
      <trkpt lat="44.10845" lon="5.43342">
        <ele>781</ele>
        <time>2012-01-06T23:09:25Z</time>
        <course>308.883495413097</course>
        <speed>8.29517358304454</speed>
      </trkpt>
      <trkpt lat="44.10853" lon="5.43352">
        <ele>780</ele>
        <time>2012-01-06T23:09:26Z</time>
        <course>294.133574590301</course>
        <speed>8.32031715163511</speed>
      </trkpt>
      <trkpt lat="44.10861" lon="5.4337">
        <ele>780</ele>
        <time>2012-01-06T23:09:28Z</time>
        <course>274.119331078204</course>
        <speed>8.31500232780214</speed>
      </trkpt>
      <trkpt lat="44.10863" lon="5.43398">
        <ele>780</ele>
        <time>2012-01-06T23:09:31Z</time>
        <course>238.834296623548</course>
        <speed>8.34033998080534</speed>
      </trkpt>
      <trkpt lat="44.10854" lon="5.43413">
        <ele>780</ele>
        <time>2012-01-06T23:09:33Z</time>
        <course>216.651829481495</course>
        <speed>8.31000224872561</speed>
      </trkpt>
      <trkpt lat="44.10822" lon="5.43437">
        <ele>780</ele>
        <time>2012-01-06T23:09:38Z</time>
        <course>246.811760439253</course>
        <speed>8.31535466551998</speed>
      </trkpt>
      <trkpt lat="44.10805" lon="5.43477">
        <ele>780</ele>
        <time>2012-01-06T23:09:42Z</time>
        <course>266.156741081659</course>
        <speed>3.80366338988695</speed>
      </trkpt>
      <trkpt lat="44.10803" lon="5.43507">
        <ele>781</ele>
        <time>2012-01-06T23:09:49Z</time>
        <course>274.206969247503</course>
        <speed>3.80572200255829</speed>
      </trkpt>
      <trkpt lat="44.1081" lon="5.43603">
        <ele>786</ele>
        <time>2012-01-06T23:10:09Z</time>
        <course>293.975696799841</course>
        <speed>5.26266759933042</speed>
      </trkpt>
      <trkpt lat="44.10825" lon="5.43637">
        <ele>786</ele>
        <time>2012-01-06T23:10:15Z</time>
        <course>311.413108232282</course>
        <speed>5.25893062561627</speed>
      </trkpt>
      <trkpt lat="44.10846" lon="5.43661">
        <ele>787</ele>
        <time>2012-01-06T23:10:21Z</time>
        <course>319.119739738957</course>
        <speed>5.262593224337</speed>
      </trkpt>
      <trkpt lat="44.10956" lon="5.43757">
        <ele>792</ele>
        <time>2012-01-06T23:10:48Z</time>
        <course>289.58719631565</course>
        <speed>5.53610484327289</speed>
      </trkpt>
      <trkpt lat="44.10962" lon="5.43774">
        <ele>792</ele>
        <time>2012-01-06T23:10:51Z</time>
        <course>270.000509275737</course>
        <speed>5.55717876089496</speed>
      </trkpt>
      <trkpt lat="44.10962" lon="5.43788">
        <ele>792</ele>
        <time>2012-01-06T23:10:53Z</time>
        <course>244.804833665143</course>
        <speed>5.55387286293585</speed>
      </trkpt>
      <trkpt lat="44.10955" lon="5.43803">
        <ele>793</ele>
        <time>2012-01-06T23:10:55Z</time>
        <course>199.834450287901</course>
        <speed>5.54077315119732</speed>
      </trkpt>
      <trkpt lat="44.10944" lon="5.43807">
        <ele>793</ele>
        <time>2012-01-06T23:10:58Z</time>
        <course>165.369616295159</course>
        <speed>5.54487343909099</speed>
      </trkpt>
      <trkpt lat="44.10906" lon="5.43797">
        <ele>794</ele>
        <time>2012-01-06T23:11:05Z</time>
        <course>175.026546946781</course>
        <speed>5.54269935435506</speed>
      </trkpt>
      <trkpt lat="44.10849" lon="5.43792">
        <ele>796</ele>
        <time>2012-01-06T23:11:17Z</time>
        <course>185.153490916707</course>
        <speed>4.77552153862247</speed>
      </trkpt>
      <trkpt lat="44.10827" lon="5.43794">
        <ele>796</ele>
        <time>2012-01-06T23:11:22Z</time>
        <course>202.090337977122</course>
        <speed>4.7713908857155</speed>
      </trkpt>
      <trkpt lat="44.10805" lon="5.43803">
        <ele>797</ele>
        <time>2012-01-06T23:11:27Z</time>
        <course>215.442434067731</course>
        <speed>4.77162432077213</speed>
      </trkpt>
      <trkpt lat="44.10759" lon="5.43836">
        <ele>800</ele>
        <time>2012-01-06T23:11:39Z</time>
        <course>230.30696315566</course>
        <speed>8.32244037789473</speed>
      </trkpt>
      <trkpt lat="44.10745" lon="5.43853">
        <ele>800</ele>
        <time>2012-01-06T23:11:42Z</time>
        <course>255.356903079598</course>
        <speed>8.328750774095</speed>
      </trkpt>
      <trkpt lat="44.10738" lon="5.4388">
        <ele>800</ele>
        <time>2012-01-06T23:11:45Z</time>
        <course>275.236690239604</course>
        <speed>8.32636834431768</speed>
      </trkpt>
      <trkpt lat="44.10742" lon="5.43924">
        <ele>800</ele>
        <time>2012-01-06T23:11:49Z</time>
        <course>293.500142051775</course>
        <speed>8.31358830302614</speed>
      </trkpt>
      <trkpt lat="44.10764" lon="5.43975">
        <ele>800</ele>
        <time>2012-01-06T23:11:54Z</time>
        <course>307.08850149441</course>
        <speed>8.3237229636917</speed>
      </trkpt>
      <trkpt lat="44.10791" lon="5.44011">
        <ele>800</ele>
        <time>2012-01-06T23:11:59Z</time>
        <course>315.228497118762</course>
        <speed>8.31237222486784</speed>
      </trkpt>
      <trkpt lat="44.10826" lon="5.44046">
        <ele>800</ele>
        <time>2012-01-06T23:12:05Z</time>
        <course>319.978408708196</course>
        <speed>8.31825870793682</speed>
      </trkpt>
      <trkpt lat="44.10976" lon="5.44173">
        <ele>800</ele>
        <time>2012-01-06T23:12:29Z</time>
        <course>313.526885994373</course>
        <speed>6.46376852440777</speed>
      </trkpt>
      <trkpt lat="44.11041" lon="5.44242">
        <ele>801</ele>
        <time>2012-01-06T23:12:43Z</time>
        <course>304.508784818201</course>
        <speed>6.46344595408448</speed>
      </trkpt>
      <trkpt lat="44.11071" lon="5.44286">
        <ele>802</ele>
        <time>2012-01-06T23:12:50Z</time>
        <course>289.474719976167</course>
        <speed>7.16646897221673</speed>
      </trkpt>
      <trkpt lat="44.11098" lon="5.44363">
        <ele>802</ele>
        <time>2012-01-06T23:13:00Z</time>
        <course>283.738882593611</course>
        <speed>7.16204477116146</speed>
      </trkpt>
      <trkpt lat="44.11114" lon="5.44429">
        <ele>803</ele>
        <time>2012-01-06T23:13:08Z</time>
        <course>275.162342165052</course>
        <speed>8.31309738080305</speed>
      </trkpt>
      <trkpt lat="44.1112" lon="5.44496">
        <ele>802</ele>
        <time>2012-01-06T23:13:14Z</time>
        <course>268.890995051798</course>
        <speed>8.31705048038272</speed>
      </trkpt>
      <trkpt lat="44.11119" lon="5.44548">
        <ele>801</ele>
        <time>2012-01-06T23:13:19Z</time>
        <course>264.297616751086</course>
        <speed>8.31617419074051</speed>
      </trkpt>
      <trkpt lat="44.11108" lon="5.44659">
        <ele>800</ele>
        <time>2012-01-06T23:13:30Z</time>
        <course>261.903207651103</course>
        <speed>6.53126499687982</speed>
      </trkpt>
      <trkpt lat="44.1107" lon="5.44928">
        <ele>803</ele>
        <time>2012-01-06T23:14:03Z</time>
        <course>257.438889351258</course>
        <speed>5.7082546670017</speed>
      </trkpt>
      <trkpt lat="44.10873" lon="5.45817">
        <ele>820</ele>
        <time>2012-01-06T23:16:13Z</time>
        <course>254.482379966307</course>
        <speed>7.34643480915111</speed>
      </trkpt>
      <trkpt lat="44.10846" lon="5.45915">
        <ele>820</ele>
        <time>2012-01-06T23:16:25Z</time>
        <course>246.541918814015</course>
        <speed>7.34462920566633</speed>
      </trkpt>
      <trkpt lat="44.10815" lon="5.45987">
        <ele>821</ele>
        <time>2012-01-06T23:16:34Z</time>
        <course>236.282706341064</course>
        <speed>6.55643887034788</speed>
      </trkpt>
      <trkpt lat="44.10766" lon="5.46061">
        <ele>822</ele>
        <time>2012-01-06T23:16:46Z</time>
        <course>225.987860189004</course>
        <speed>6.55848790208691</speed>
      </trkpt>
      <trkpt lat="44.10556" lon="5.4628">
        <ele>826</ele>
        <time>2012-01-06T23:17:30Z</time>
        <course>234.456323858314</course>
        <speed>4.43395841572136</speed>
      </trkpt>
      <trkpt lat="44.10517" lon="5.46335">
        <ele>828</ele>
        <time>2012-01-06T23:17:44Z</time>
        <course>247.449948943528</course>
        <speed>4.43272452383416</speed>
      </trkpt>
      <trkpt lat="44.10463" lon="5.46466">
        <ele>834</ele>
        <time>2012-01-06T23:18:12Z</time>
        <course>252.892788327003</course>
        <speed>7.67647499306372</speed>
      </trkpt>
      <trkpt lat="44.1043" lon="5.46574">
        <ele>834</ele>
        <time>2012-01-06T23:18:24Z</time>
        <course>247.621215290478</course>
        <speed>7.67963375283336</speed>
      </trkpt>
      <trkpt lat="44.10365" lon="5.46733">
        <ele>835</ele>
        <time>2012-01-06T23:18:43Z</time>
        <course>257.771309203792</course>
        <speed>8.31939276865908</speed>
      </trkpt>
      <trkpt lat="44.10348" lon="5.46812">
        <ele>834</ele>
        <time>2012-01-06T23:18:51Z</time>
        <course>262.825142619645</course>
        <speed>8.32035693526492</speed>
      </trkpt>
      <trkpt lat="44.1034" lon="5.46876">
        <ele>834</ele>
        <time>2012-01-06T23:18:57Z</time>
        <course>270.00384156291</course>
        <speed>8.3165166005842</speed>
      </trkpt>
      <trkpt lat="44.1034" lon="5.46987">
        <ele>832</ele>
        <time>2012-01-06T23:19:08Z</time>
        <course>278.852993561728</course>
        <speed>8.3209099571943</speed>
      </trkpt>
      <trkpt lat="44.10357" lon="5.47097">
        <ele>831</ele>
        <time>2012-01-06T23:19:18Z</time>
        <course>288.280439613181</course>
        <speed>5.21007781537039</speed>
      </trkpt>
      <trkpt lat="44.10377" lon="5.47158">
        <ele>832</ele>
        <time>2012-01-06T23:19:29Z</time>
        <course>294.789363793871</course>
        <speed>5.20831987947987</speed>
      </trkpt>
      <trkpt lat="44.10432" lon="5.47278">
        <ele>836</ele>
        <time>2012-01-06T23:19:50Z</time>
        <course>284.486058556493</course>
        <speed>6.68895391324113</speed>
      </trkpt>
      <trkpt lat="44.10442" lon="5.47317">
        <ele>836</ele>
        <time>2012-01-06T23:19:55Z</time>
        <course>274.800906939122</course>
        <speed>6.68237553608799</speed>
      </trkpt>
      <trkpt lat="44.10446" lon="5.47365">
        <ele>836</ele>
        <time>2012-01-06T23:20:01Z</time>
        <course>263.449979069007</course>
        <speed>6.68867601924789</speed>
      </trkpt>
      <trkpt lat="44.10433" lon="5.47479">
        <ele>838</ele>
        <time>2012-01-06T23:20:15Z</time>
        <course>276.895320362968</course>
        <speed>5.86223324133164</speed>
      </trkpt>
      <trkpt lat="44.10439" lon="5.47529">
        <ele>838</ele>
        <time>2012-01-06T23:20:22Z</time>
        <course>291.464920662381</course>
        <speed>5.86359332885784</speed>
      </trkpt>
      <trkpt lat="44.10455" lon="5.4757">
        <ele>839</ele>
        <time>2012-01-06T23:20:28Z</time>
        <course>297.940688081446</course>
        <speed>5.86174630018807</speed>
      </trkpt>
      <trkpt lat="44.10515" lon="5.47684">
        <ele>842</ele>
        <time>2012-01-06T23:20:47Z</time>
        <course>277.746135920142</course>
        <speed>3.51533118554605</speed>
      </trkpt>
      <trkpt lat="44.10532" lon="5.4781">
        <ele>849</ele>
        <time>2012-01-06T23:21:17Z</time>
        <course>289.546035486358</course>
        <speed>4.71431623920888</speed>
      </trkpt>
      <trkpt lat="44.10563" lon="5.47898">
        <ele>851</ele>
        <time>2012-01-06T23:21:33Z</time>
        <course>272.946500924996</course>
        <speed>4.71388382443898</speed>
      </trkpt>
      <trkpt lat="44.10568" lon="5.47996">
        <ele>855</ele>
        <time>2012-01-06T23:21:50Z</time>
        <course>286.062593341828</course>
        <speed>7.12232142799949</speed>
      </trkpt>
      <trkpt lat="44.10578" lon="5.48031">
        <ele>855</ele>
        <time>2012-01-06T23:21:54Z</time>
        <course>301.158429656129</course>
        <speed>7.12185384881083</speed>
      </trkpt>
      <trkpt lat="44.10593" lon="5.48056">
        <ele>855</ele>
        <time>2012-01-06T23:21:58Z</time>
        <course>323.741362170541</course>
        <speed>7.1266220881388</speed>
      </trkpt>
      <trkpt lat="44.10616" lon="5.48073">
        <ele>855</ele>
        <time>2012-01-06T23:22:02Z</time>
        <course>312.930421617035</course>
        <speed>7.12815929552489</speed>
      </trkpt>
      <trkpt lat="44.1064" lon="5.48099">
        <ele>856</ele>
        <time>2012-01-06T23:22:06Z</time>
        <course>305.989393727933</course>
        <speed>6.99422176988978</speed>
      </trkpt>
      <trkpt lat="44.10689" lon="5.48167">
        <ele>856</ele>
        <time>2012-01-06T23:22:17Z</time>
        <course>292.911694154746</course>
        <speed>7.00339567696694</speed>
      </trkpt>
      <trkpt lat="44.10702" lon="5.48198">
        <ele>857</ele>
        <time>2012-01-06T23:22:21Z</time>
        <course>272.749122000408</course>
        <speed>6.04044389169791</speed>
      </trkpt>
      <trkpt lat="44.10704" lon="5.4824">
        <ele>857</ele>
        <time>2012-01-06T23:22:27Z</time>
        <course>267.164609563125</course>
        <speed>6.04524708488873</speed>
      </trkpt>
      <trkpt lat="44.10701" lon="5.48301">
        <ele>858</ele>
        <time>2012-01-06T23:22:35Z</time>
        <course>277.258426963164</course>
        <speed>6.04580980405513</speed>
      </trkpt>
      <trkpt lat="44.10713" lon="5.48396">
        <ele>860</ele>
        <time>2012-01-06T23:22:48Z</time>
        <course>271.472325087787</course>
        <speed>6.63355467766889</speed>
      </trkpt>
      <trkpt lat="44.10718" lon="5.48593">
        <ele>862</ele>
        <time>2012-01-06T23:23:12Z</time>
        <course>269.644804903948</course>
        <speed>6.3358040509177</speed>
      </trkpt>
      <trkpt lat="44.10717" lon="5.48753">
        <ele>864</ele>
        <time>2012-01-06T23:23:32Z</time>
        <course>262.41974360765</course>
        <speed>6.16008074085874</speed>
      </trkpt>
      <trkpt lat="44.1071" lon="5.48806">
        <ele>864</ele>
        <time>2012-01-06T23:23:39Z</time>
        <course>254.221128207323</course>
        <speed>6.15669577919616</speed>
      </trkpt>
      <trkpt lat="44.10463" lon="5.49685">
        <ele>878</ele>
        <time>2012-01-06T23:25:41Z</time>
        <course>252.954140255844</course>
        <speed>6.17106086731277</speed>
      </trkpt>
      <trkpt lat="44.10449" lon="5.49731">
        <ele>878</ele>
        <time>2012-01-06T23:25:47Z</time>
        <course>247.716794954267</course>
        <speed>6.1694964818272</speed>
      </trkpt>
      <trkpt lat="44.10425" lon="5.4979">
        <ele>879</ele>
        <time>2012-01-06T23:25:56Z</time>
        <course>242.178981161053</course>
        <speed>6.1728846850331</speed>
      </trkpt>
      <trkpt lat="44.10414" lon="5.49811">
        <ele>880</ele>
        <time>2012-01-06T23:26:00Z</time>
        <course>234.91756896711</course>
        <speed>8.31822713661411</speed>
      </trkpt>
      <trkpt lat="44.0968" lon="5.50862">
        <ele>880</ele>
        <time>2012-01-06T23:28:20Z</time>
        <course>243.285655980442</course>
        <speed>5.97473172586806</speed>
      </trkpt>
      <trkpt lat="44.0966" lon="5.50902">
        <ele>880</ele>
        <time>2012-01-06T23:28:27Z</time>
        <course>251.211766604875</course>
        <speed>5.96974318887234</speed>
      </trkpt>
      <trkpt lat="44.09636" lon="5.50973">
        <ele>882</ele>
        <time>2012-01-06T23:28:37Z</time>
        <course>258.621065632874</course>
        <speed>3.89733284289383</speed>
      </trkpt>
      <trkpt lat="44.09618" lon="5.51063">
        <ele>886</ele>
        <time>2012-01-06T23:28:56Z</time>
        <course>263.5021533678</course>
        <speed>3.89855962102059</speed>
      </trkpt>
      <trkpt lat="44.09584" lon="5.51363">
        <ele>900</ele>
        <time>2012-01-06T23:29:59Z</time>
        <course>267.495829111896</course>
        <speed>5.91269588633965</speed>
      </trkpt>
      <trkpt lat="44.09582" lon="5.51409">
        <ele>900</ele>
        <time>2012-01-06T23:30:05Z</time>
        <course>279.845515039619</course>
        <speed>5.90587573428696</speed>
      </trkpt>
      <trkpt lat="44.09587" lon="5.51438">
        <ele>901</ele>
        <time>2012-01-06T23:30:09Z</time>
        <course>300.423264878819</course>
        <speed>5.91333735571395</speed>
      </trkpt>
      <trkpt lat="44.09664" lon="5.5157">
        <ele>904</ele>
        <time>2012-01-06T23:30:32Z</time>
        <course>302.608494251824</course>
        <speed>5.00717424521795</speed>
      </trkpt>
      <trkpt lat="44.09826" lon="5.51825">
        <ele>913</ele>
        <time>2012-01-06T23:31:26Z</time>
        <course>291.602831240604</course>
        <speed>7.14684612797294</speed>
      </trkpt>
      <trkpt lat="44.09861" lon="5.51914">
        <ele>913</ele>
        <time>2012-01-06T23:31:37Z</time>
        <course>300.068710118409</course>
        <speed>7.14877893074849</speed>
      </trkpt>
      <trkpt lat="44.09884" lon="5.51954">
        <ele>914</ele>
        <time>2012-01-06T23:31:43Z</time>
        <course>326.961261738788</course>
        <speed>6.02711485575186</speed>
      </trkpt>
      <trkpt lat="44.10055" lon="5.52066">
        <ele>918</ele>
        <time>2012-01-06T23:32:18Z</time>
        <course>313.159225115529</course>
        <speed>8.32138361899683</speed>
      </trkpt>
      <trkpt lat="44.10136" lon="5.52153">
        <ele>917</ele>
        <time>2012-01-06T23:32:32Z</time>
        <course>288.558318135738</course>
        <speed>8.312497042279</speed>
      </trkpt>
      <trkpt lat="44.10144" lon="5.52177">
        <ele>916</ele>
        <time>2012-01-06T23:32:34Z</time>
        <course>267.940955019275</course>
        <speed>8.3161959530211</speed>
      </trkpt>
      <trkpt lat="44.10143" lon="5.52205">
        <ele>915</ele>
        <time>2012-01-06T23:32:37Z</time>
        <course>246.922309204131</course>
        <speed>8.33218149936703</speed>
      </trkpt>
      <trkpt lat="44.10132" lon="5.52231">
        <ele>915</ele>
        <time>2012-01-06T23:32:40Z</time>
        <course>227.001089946275</course>
        <speed>8.31102505496903</speed>
      </trkpt>
      <trkpt lat="44.10107" lon="5.52258">
        <ele>914</ele>
        <time>2012-01-06T23:32:44Z</time>
        <course>238.603171835306</course>
        <speed>8.32311069912835</speed>
      </trkpt>
      <trkpt lat="44.10087" lon="5.52291">
        <ele>913</ele>
        <time>2012-01-06T23:32:48Z</time>
        <course>251.8560987886</course>
        <speed>8.3198022611042</speed>
      </trkpt>
      <trkpt lat="44.10003" lon="5.52549">
        <ele>906</ele>
        <time>2012-01-06T23:33:15Z</time>
        <course>247.696316918162</course>
        <speed>7.28567455241265</speed>
      </trkpt>
      <trkpt lat="44.09981" lon="5.52603">
        <ele>906</ele>
        <time>2012-01-06T23:33:22Z</time>
        <course>238.216350059021</course>
        <speed>7.28621910546596</speed>
      </trkpt>
      <trkpt lat="44.09965" lon="5.52629">
        <ele>906</ele>
        <time>2012-01-06T23:33:26Z</time>
        <course>215.810983886136</course>
        <speed>7.2832036688063</speed>
      </trkpt>
      <trkpt lat="44.09578" lon="5.5291">
        <ele>910</ele>
        <time>2012-01-06T23:34:32Z</time>
        <course>211.341907283783</course>
        <speed>8.3175011944458</speed>
      </trkpt>
      <trkpt lat="44.09516" lon="5.52948">
        <ele>908</ele>
        <time>2012-01-06T23:34:41Z</time>
        <course>216.69642756873</course>
        <speed>8.32184307466857</speed>
      </trkpt>
      <trkpt lat="44.09468" lon="5.52984">
        <ele>908</ele>
        <time>2012-01-06T23:34:49Z</time>
        <course>234.674945956083</course>
        <speed>8.31712310148053</speed>
      </trkpt>
      <trkpt lat="44.09356" lon="5.53143">
        <ele>905</ele>
        <time>2012-01-06T23:35:10Z</time>
        <course>225.865357481625</course>
        <speed>8.31327001447789</speed>
      </trkpt>
      <trkpt lat="44.09329" lon="5.53171">
        <ele>904</ele>
        <time>2012-01-06T23:35:15Z</time>
        <course>212.521878557039</course>
        <speed>8.31333093315315</speed>
      </trkpt>
      <trkpt lat="44.09276" lon="5.53205">
        <ele>903</ele>
        <time>2012-01-06T23:35:22Z</time>
        <course>219.352448945596</course>
        <speed>8.31960703785443</speed>
      </trkpt>
      <trkpt lat="44.09236" lon="5.53238">
        <ele>902</ele>
        <time>2012-01-06T23:35:29Z</time>
        <course>234.248781959729</course>
        <speed>8.31556714241131</speed>
      </trkpt>
      <trkpt lat="44.09163" lon="5.5334">
        <ele>901</ele>
        <time>2012-01-06T23:35:42Z</time>
        <course>224.830077703799</course>
        <speed>8.31316775198098</speed>
      </trkpt>
      <trkpt lat="44.09128" lon="5.53375">
        <ele>900</ele>
        <time>2012-01-06T23:35:48Z</time>
        <course>212.42201908415</course>
        <speed>8.32018678826773</speed>
      </trkpt>
      <trkpt lat="44.09056" lon="5.53421">
        <ele>900</ele>
        <time>2012-01-06T23:35:59Z</time>
        <course>190.286983767624</course>
        <speed>8.31622122735519</speed>
      </trkpt>
      <trkpt lat="44.0893" lon="5.53444">
        <ele>900</ele>
        <time>2012-01-06T23:36:16Z</time>
        <course>200.551973631754</course>
        <speed>8.32049007614704</speed>
      </trkpt>
      <trkpt lat="44.08869" lon="5.53467">
        <ele>900</ele>
        <time>2012-01-06T23:36:24Z</time>
        <course>219.771132178801</course>
        <speed>8.31697415771282</speed>
      </trkpt>
      <trkpt lat="44.08728" lon="5.53585">
        <ele>900</ele>
        <time>2012-01-06T23:36:46Z</time>
        <course>217.117509776116</course>
        <speed>8.3156096823128</speed>
      </trkpt>
      <trkpt lat="44.08636" lon="5.53655">
        <ele>900</ele>
        <time>2012-01-06T23:37:00Z</time>
        <course>224.845185982625</course>
        <speed>8.31119470166643</speed>
      </trkpt>
      <trkpt lat="44.08623" lon="5.53668">
        <ele>899</ele>
        <time>2012-01-06T23:37:02Z</time>
        <course>238.35861543489</course>
        <speed>8.31881789874662</speed>
      </trkpt>
      <trkpt lat="44.08604" lon="5.53699">
        <ele>899</ele>
        <time>2012-01-06T23:37:06Z</time>
        <course>248.421867912555</course>
        <speed>8.31670313789282</speed>
      </trkpt>
      <trkpt lat="44.08556" lon="5.53821">
        <ele>899</ele>
        <time>2012-01-06T23:37:20Z</time>
        <course>238.162870354971</course>
        <speed>8.3235213754233</speed>
      </trkpt>
      <trkpt lat="44.08535" lon="5.53855">
        <ele>898</ele>
        <time>2012-01-06T23:37:24Z</time>
        <course>217.593591050088</course>
        <speed>8.31662386006716</speed>
      </trkpt>
      <trkpt lat="44.0842" lon="5.53944">
        <ele>896</ele>
        <time>2012-01-06T23:37:41Z</time>
        <course>232.580775305625</course>
        <speed>7.41397376673129</speed>
      </trkpt>
      <trkpt lat="44.08369" lon="5.54011">
        <ele>896</ele>
        <time>2012-01-06T23:37:52Z</time>
        <course>241.221625835527</course>
        <speed>7.41654358960781</speed>
      </trkpt>
      <trkpt lat="44.08322" lon="5.54097">
        <ele>897</ele>
        <time>2012-01-06T23:38:04Z</time>
        <course>226.024171331168</course>
        <speed>3.84177746687078</speed>
      </trkpt>
      <trkpt lat="44.08298" lon="5.54122">
        <ele>898</ele>
        <time>2012-01-06T23:38:12Z</time>
        <course>214.720032120618</course>
        <speed>3.84417898618508</speed>
      </trkpt>
      <trkpt lat="44.08242" lon="5.54161">
        <ele>903</ele>
        <time>2012-01-06T23:38:30Z</time>
        <course>229.758069075061</course>
        <speed>3.61191085028754</speed>
      </trkpt>
      <trkpt lat="44.08226" lon="5.5418">
        <ele>904</ele>
        <time>2012-01-06T23:38:37Z</time>
        <course>236.964470296146</course>
        <speed>3.60933317774778</speed>
      </trkpt>
      <trkpt lat="44.08215" lon="5.54197">
        <ele>905</ele>
        <time>2012-01-06T23:38:42Z</time>
        <course>247.911042167181</course>
        <speed>3.61011422444361</speed>
      </trkpt>
      <trkpt lat="44.08194" lon="5.54249">
        <ele>908</ele>
        <time>2012-01-06T23:38:55Z</time>
        <course>262.197239071564</course>
        <speed>3.61102571515743</speed>
      </trkpt>
      <trkpt lat="44.08191" lon="5.54271">
        <ele>910</ele>
        <time>2012-01-06T23:39:00Z</time>
        <course>277.89278826315</course>
        <speed>4.79093760661819</speed>
      </trkpt>
      <trkpt lat="44.08195" lon="5.543">
        <ele>910</ele>
        <time>2012-01-06T23:39:05Z</time>
        <course>291.796186454103</course>
        <speed>4.79163350412524</speed>
      </trkpt>
      <trkpt lat="44.08232" lon="5.54393">
        <ele>914</ele>
        <time>2012-01-06T23:39:23Z</time>
        <course>293.993294442407</course>
        <speed>5.85431569274103</speed>
      </trkpt>
      <trkpt lat="44.08344" lon="5.54646">
        <ele>919</ele>
        <time>2012-01-06T23:40:03Z</time>
        <course>297.037502592578</course>
        <speed>7.30272025508196</speed>
      </trkpt>
      <trkpt lat="44.08377" lon="5.54711">
        <ele>919</ele>
        <time>2012-01-06T23:40:12Z</time>
        <course>316.61717332199</course>
        <speed>7.29147102434547</speed>
      </trkpt>
      <trkpt lat="44.08397" lon="5.5473">
        <ele>919</ele>
        <time>2012-01-06T23:40:16Z</time>
        <course>227.789813638331</course>
        <speed>7.29847577120785</speed>
      </trkpt>
      <trkpt lat="44.0836" lon="5.54771">
        <ele>920</ele>
        <time>2012-01-06T23:40:23Z</time>
        <course>217.73301585147</course>
        <speed>8.33149202862247</speed>
      </trkpt>
      <trkpt lat="44.08342" lon="5.54785">
        <ele>920</ele>
        <time>2012-01-06T23:40:25Z</time>
        <course>275.740889083439</course>
        <speed>8.30827764359653</speed>
      </trkpt>
      <trkpt lat="44.08346" lon="5.54825">
        <ele>920</ele>
        <time>2012-01-06T23:40:29Z</time>
        <course>266.514950006346</course>
        <speed>8.3126921595496</speed>
      </trkpt>
      <trkpt lat="44.08344" lon="5.54858">
        <ele>920</ele>
        <time>2012-01-06T23:40:33Z</time>
        <course>252.17151664842</course>
        <speed>8.32216168010962</speed>
      </trkpt>
      <trkpt lat="44.08328" lon="5.54908">
        <ele>920</ele>
        <time>2012-01-06T23:40:38Z</time>
        <course>223.678153077183</course>
        <speed>8.31776164629452</speed>
      </trkpt>
      <trkpt lat="44.08155" lon="5.55074">
        <ele>920</ele>
        <time>2012-01-06T23:41:06Z</time>
        <course>240.522431156709</course>
        <speed>8.31864868013117</speed>
      </trkpt>
      <trkpt lat="44.08137" lon="5.55106">
        <ele>919</ele>
        <time>2012-01-06T23:41:10Z</time>
        <course>247.035269908432</course>
        <speed>8.31730095848947</speed>
      </trkpt>
      <trkpt lat="44.08075" lon="5.55253">
        <ele>919</ele>
        <time>2012-01-06T23:41:26Z</time>
        <course>238.614748655364</course>
        <speed>6.21325492330198</speed>
      </trkpt>
      <trkpt lat="44.08041" lon="5.55309">
        <ele>919</ele>
        <time>2012-01-06T23:41:36Z</time>
        <course>226.362368958391</course>
        <speed>6.21103767170391</speed>
      </trkpt>
      <trkpt lat="44.07703" lon="5.55665">
        <ele>928</ele>
        <time>2012-01-06T23:42:51Z</time>
        <course>236.491095159402</course>
        <speed>8.32026655272797</speed>
      </trkpt>
      <trkpt lat="44.07614" lon="5.558">
        <ele>921</ele>
        <time>2012-01-06T23:43:09Z</time>
        <course>233.891715238793</course>
        <speed>5.34940275969607</speed>
      </trkpt>
      <trkpt lat="44.07545" lon="5.55895">
        <ele>924</ele>
        <time>2012-01-06T23:43:29Z</time>
        <course>213.275532503372</course>
        <speed>4.26969008298625</speed>
      </trkpt>
      <trkpt lat="44.07501" lon="5.55924">
        <ele>926</ele>
        <time>2012-01-06T23:43:42Z</time>
        <course>181.754932514467</course>
        <speed>4.26983719313353</speed>
      </trkpt>
      <trkpt lat="44.07436" lon="5.55926">
        <ele>930</ele>
        <time>2012-01-06T23:43:59Z</time>
        <course>198.362527446208</course>
        <speed>5.58510671311405</speed>
      </trkpt>
      <trkpt lat="44.07412" lon="5.55934">
        <ele>930</ele>
        <time>2012-01-06T23:44:04Z</time>
        <course>218.040245684768</course>
        <speed>5.58257837645215</speed>
      </trkpt>
      <trkpt lat="44.07398" lon="5.55945">
        <ele>931</ele>
        <time>2012-01-06T23:44:07Z</time>
        <course>244.039885611407</course>
        <speed>5.58576797575466</speed>
      </trkpt>
      <trkpt lat="44.07382" lon="5.55978">
        <ele>931</ele>
        <time>2012-01-06T23:44:13Z</time>
        <course>268.63144248347</course>
        <speed>5.58211130985739</speed>
      </trkpt>
      <trkpt lat="44.07381" lon="5.5602">
        <ele>932</ele>
        <time>2012-01-06T23:44:19Z</time>
        <course>276.41076482363</course>
        <speed>5.58187290931879</speed>
      </trkpt>
      <trkpt lat="44.07422" lon="5.56387">
        <ele>940</ele>
        <time>2012-01-06T23:45:12Z</time>
        <course>272.97499701174</course>
        <speed>8.31952747283003</speed>
      </trkpt>
      <trkpt lat="44.07425" lon="5.56445">
        <ele>940</ele>
        <time>2012-01-06T23:45:17Z</time>
        <course>259.99467240614</course>
        <speed>8.31957654291164</speed>
      </trkpt>
      <trkpt lat="44.07396" lon="5.5661">
        <ele>940</ele>
        <time>2012-01-06T23:45:34Z</time>
        <course>268.749934554231</course>
        <speed>6.26594079045005</speed>
      </trkpt>
      <trkpt lat="44.07391" lon="5.56839">
        <ele>943</ele>
        <time>2012-01-06T23:46:03Z</time>
        <course>264.539116877596</course>
        <speed>7.69587534885595</speed>
      </trkpt>
      <trkpt lat="44.07383" lon="5.56923">
        <ele>943</ele>
        <time>2012-01-06T23:46:11Z</time>
        <course>258.636168738081</course>
        <speed>7.69527621776149</speed>
      </trkpt>
      <trkpt lat="44.0728" lon="5.57437">
        <ele>945</ele>
        <time>2012-01-06T23:47:07Z</time>
        <course>263.750229231304</course>
        <speed>8.31694875711711</speed>
      </trkpt>
      <trkpt lat="44.07274" lon="5.57492">
        <ele>944</ele>
        <time>2012-01-06T23:47:12Z</time>
        <course>279.374570098727</course>
        <speed>8.3150872739028</speed>
      </trkpt>
      <trkpt lat="44.07286" lon="5.57565">
        <ele>944</ele>
        <time>2012-01-06T23:47:19Z</time>
        <course>286.177518782598</course>
        <speed>4.5129524374143</speed>
      </trkpt>
      <trkpt lat="44.07299" lon="5.5761">
        <ele>945</ele>
        <time>2012-01-06T23:47:28Z</time>
        <course>301.290852054573</course>
        <speed>4.51796756477089</speed>
      </trkpt>
      <trkpt lat="44.07322" lon="5.57648">
        <ele>947</ele>
        <time>2012-01-06T23:47:37Z</time>
        <course>315.736419192113</course>
        <speed>4.51522668370123</speed>
      </trkpt>
      <trkpt lat="44.07369" lon="5.57694">
        <ele>950</ele>
        <time>2012-01-06T23:47:51Z</time>
        <course>326.688201698129</course>
        <speed>3.89420961219602</speed>
      </trkpt>
      <trkpt lat="44.07469" lon="5.5776">
        <ele>957</ele>
        <time>2012-01-06T23:48:22Z</time>
        <course>321.801062651113</course>
        <speed>6.28771236682836</speed>
      </trkpt>
      <trkpt lat="44.07531" lon="5.57809">
        <ele>958</ele>
        <time>2012-01-06T23:48:35Z</time>
        <course>307.470505775886</course>
        <speed>6.28654175770035</speed>
      </trkpt>
      <trkpt lat="44.0756" lon="5.57847">
        <ele>959</ele>
        <time>2012-01-06T23:48:42Z</time>
        <course>299.161348659874</course>
        <speed>7.26593849002384</speed>
      </trkpt>
      <trkpt lat="44.0757" lon="5.57865">
        <ele>959</ele>
        <time>2012-01-06T23:48:45Z</time>
        <course>286.328299058857</course>
        <speed>7.28104875146733</speed>
      </trkpt>
      <trkpt lat="44.07577" lon="5.57889">
        <ele>959</ele>
        <time>2012-01-06T23:48:47Z</time>
        <course>279.891474870684</course>
        <speed>7.26948540043576</speed>
      </trkpt>
      <trkpt lat="44.07598" lon="5.5801">
        <ele>960</ele>
        <time>2012-01-06T23:49:01Z</time>
        <course>246.978208384352</course>
        <speed>8.3061027493938</speed>
      </trkpt>
      <trkpt lat="44.07587" lon="5.58036">
        <ele>959</ele>
        <time>2012-01-06T23:49:04Z</time>
        <course>206.464990885642</course>
        <speed>8.33446356289856</speed>
      </trkpt>
      <trkpt lat="44.07575" lon="5.58042">
        <ele>959</ele>
        <time>2012-01-06T23:49:06Z</time>
        <course>172.905650419859</course>
        <speed>8.30267277789887</speed>
      </trkpt>
      <trkpt lat="44.07559" lon="5.5804">
        <ele>958</ele>
        <time>2012-01-06T23:49:08Z</time>
        <course>135.124369254005</course>
        <speed>8.3344279175038</speed>
      </trkpt>
      <trkpt lat="44.07547" lon="5.58028">
        <ele>958</ele>
        <time>2012-01-06T23:49:10Z</time>
        <course>119.550116240817</course>
        <speed>8.31539939961038</speed>
      </trkpt>
      <trkpt lat="44.07512" lon="5.57966">
        <ele>957</ele>
        <time>2012-01-06T23:49:17Z</time>
        <course>130.357800879148</course>
        <speed>8.30814745524474</speed>
      </trkpt>
      <trkpt lat="44.07501" lon="5.57953">
        <ele>956</ele>
        <time>2012-01-06T23:49:19Z</time>
        <course>149.528066545811</course>
        <speed>8.32542421498415</speed>
      </trkpt>
      <trkpt lat="44.07479" lon="5.5794">
        <ele>955</ele>
        <time>2012-01-06T23:49:23Z</time>
        <course>171.504851688845</course>
        <speed>8.32501861272862</speed>
      </trkpt>
      <trkpt lat="44.07439" lon="5.57934">
        <ele>954</ele>
        <time>2012-01-06T23:49:28Z</time>
        <course>190.346356171838</course>
        <speed>8.3227533270492</speed>
      </trkpt>
      <trkpt lat="44.07379" lon="5.57945">
        <ele>952</ele>
        <time>2012-01-06T23:49:36Z</time>
        <course>173.56765957718</course>
        <speed>4.58758342971372</speed>
      </trkpt>
      <trkpt lat="44.07326" lon="5.57939">
        <ele>954</ele>
        <time>2012-01-06T23:49:49Z</time>
        <course>192.046370221313</course>
        <speed>4.58894536403516</speed>
      </trkpt>
      <trkpt lat="44.07312" lon="5.57942">
        <ele>955</ele>
        <time>2012-01-06T23:49:52Z</time>
        <course>224.882306410955</course>
        <speed>4.58953408495107</speed>
      </trkpt>
      <trkpt lat="44.07296" lon="5.57958">
        <ele>955</ele>
        <time>2012-01-06T23:49:57Z</time>
        <course>241.60152829432</course>
        <speed>4.58298844452733</speed>
      </trkpt>
      <trkpt lat="44.07282" lon="5.57984">
        <ele>957</ele>
        <time>2012-01-06T23:50:03Z</time>
        <course>253.775934248465</course>
        <speed>4.67475688419837</speed>
      </trkpt>
      <trkpt lat="44.07213" lon="5.58222">
        <ele>965</ele>
        <time>2012-01-06T23:50:47Z</time>
        <course>260.500699215823</course>
        <speed>5.25919434497442</speed>
      </trkpt>
      <trkpt lat="44.07209" lon="5.58246">
        <ele>965</ele>
        <time>2012-01-06T23:50:50Z</time>
        <course>265.138025881213</course>
        <speed>5.25828353442952</speed>
      </trkpt>
      <trkpt lat="44.07204" lon="5.58305">
        <ele>966</ele>
        <time>2012-01-06T23:50:59Z</time>
        <course>269.348568878091</course>
        <speed>5.25931165471546</speed>
      </trkpt>
      <trkpt lat="44.07203" lon="5.58393">
        <ele>969</ele>
        <time>2012-01-06T23:51:13Z</time>
        <course>269.768369598784</course>
        <speed>5.80208848342139</speed>
      </trkpt>
      <trkpt lat="44.072" lon="5.59085">
        <ele>981</ele>
        <time>2012-01-06T23:52:48Z</time>
        <course>287.661337786156</course>
        <speed>8.32058952227885</speed>
      </trkpt>
      <trkpt lat="44.07226" lon="5.59167">
        <ele>981</ele>
        <time>2012-01-06T23:52:56Z</time>
        <course>290.833878555297</course>
        <speed>8.31685507905811</speed>
      </trkpt>
      <trkpt lat="44.07262" lon="5.59262">
        <ele>981</ele>
        <time>2012-01-06T23:53:07Z</time>
        <course>309.921807424385</course>
        <speed>8.31725019182853</speed>
      </trkpt>
      <trkpt lat="44.07287" lon="5.59292">
        <ele>980</ele>
        <time>2012-01-06T23:53:11Z</time>
        <course>328.445950179489</course>
        <speed>8.31499504966942</speed>
      </trkpt>
      <trkpt lat="44.07347" lon="5.59329">
        <ele>980</ele>
        <time>2012-01-06T23:53:20Z</time>
        <course>305.65127579786</course>
        <speed>8.32425477429995</speed>
      </trkpt>
      <trkpt lat="44.07362" lon="5.5935">
        <ele>979</ele>
        <time>2012-01-06T23:53:23Z</time>
        <course>286.994924019854</course>
        <speed>8.30889923987949</speed>
      </trkpt>
      <trkpt lat="44.07369" lon="5.59373">
        <ele>979</ele>
        <time>2012-01-06T23:53:25Z</time>
        <course>277.238249192097</course>
        <speed>8.3163454401074</speed>
      </trkpt>
      <trkpt lat="44.0738" lon="5.5946">
        <ele>979</ele>
        <time>2012-01-06T23:53:34Z</time>
        <course>271.066781699425</course>
        <speed>8.32517961441075</speed>
      </trkpt>
      <trkpt lat="44.07381" lon="5.59514">
        <ele>977</ele>
        <time>2012-01-06T23:53:39Z</time>
        <course>262.272985738991</course>
        <speed>8.32587351149897</speed>
      </trkpt>
      <trkpt lat="44.07376" lon="5.59551">
        <ele>976</ele>
        <time>2012-01-06T23:53:42Z</time>
        <course>257.423970811618</course>
        <speed>8.31957653691651</speed>
      </trkpt>
      <trkpt lat="44.07346" lon="5.59686">
        <ele>972</ele>
        <time>2012-01-06T23:53:56Z</time>
        <course>246.715596558925</course>
        <speed>8.30699320788436</speed>
      </trkpt>
      <trkpt lat="44.07337" lon="5.59707">
        <ele>971</ele>
        <time>2012-01-06T23:53:58Z</time>
        <course>233.016391388825</course>
        <speed>8.31770927483753</speed>
      </trkpt>
      <trkpt lat="44.07325" lon="5.59723">
        <ele>970</ele>
        <time>2012-01-06T23:54:01Z</time>
        <course>215.642207650091</course>
        <speed>8.31826767513276</speed>
      </trkpt>
      <trkpt lat="44.073" lon="5.59741">
        <ele>969</ele>
        <time>2012-01-06T23:54:04Z</time>
        <course>201.625921502417</course>
        <speed>8.31735188555692</speed>
      </trkpt>
      <trkpt lat="44.07099" lon="5.59821">
        <ele>960</ele>
        <time>2012-01-06T23:54:32Z</time>
        <course>215.432283339097</course>
        <speed>7.07928609305945</speed>
      </trkpt>
      <trkpt lat="44.07057" lon="5.59851">
        <ele>960</ele>
        <time>2012-01-06T23:54:40Z</time>
        <course>223.939028980438</course>
        <speed>7.07459273825196</speed>
      </trkpt>
      <trkpt lat="44.06844" lon="5.60057">
        <ele>963</ele>
        <time>2012-01-06T23:55:20Z</time>
        <course>230.286738944154</course>
        <speed>8.31979821476969</speed>
      </trkpt>
      <trkpt lat="44.06796" lon="5.60115">
        <ele>961</ele>
        <time>2012-01-06T23:55:29Z</time>
        <course>236.21387386432</course>
        <speed>8.32473026826333</speed>
      </trkpt>
      <trkpt lat="44.06772" lon="5.60151">
        <ele>961</ele>
        <time>2012-01-06T23:55:34Z</time>
        <course>226.090692897025</course>
        <speed>8.32330334093541</speed>
      </trkpt>
      <trkpt lat="44.06725" lon="5.602">
        <ele>959</ele>
        <time>2012-01-06T23:55:41Z</time>
        <course>198.373722192488</course>
        <speed>8.31298061726899</speed>
      </trkpt>
      <trkpt lat="44.06674" lon="5.60217">
        <ele>958</ele>
        <time>2012-01-06T23:55:49Z</time>
        <course>190.102811452738</course>
        <speed>8.31788803456719</speed>
      </trkpt>
      <trkpt lat="44.06288" lon="5.60286">
        <ele>945</ele>
        <time>2012-01-06T23:56:40Z</time>
        <course>210.386227612576</course>
        <speed>8.31657394734517</speed>
      </trkpt>
      <trkpt lat="44.06203" lon="5.60336">
        <ele>944</ele>
        <time>2012-01-06T23:56:53Z</time>
        <course>213.459240575993</course>
        <speed>8.31956688242552</speed>
      </trkpt>
      <trkpt lat="44.06028" lon="5.60452">
        <ele>942</ele>
        <time>2012-01-06T23:57:19Z</time>
        <course>201.192535113513</course>
        <speed>7.92670257390434</speed>
      </trkpt>
      <trkpt lat="44.05974" lon="5.60473">
        <ele>942</ele>
        <time>2012-01-06T23:57:27Z</time>
        <course>196.741743638109</course>
        <speed>7.93200286679044</speed>
      </trkpt>
      <trkpt lat="44.05669" lon="5.60565">
        <ele>943</ele>
        <time>2012-01-06T23:58:10Z</time>
        <course>205.285530682747</course>
        <speed>5.22308630147127</speed>
      </trkpt>
      <trkpt lat="44.05631" lon="5.60583">
        <ele>944</ele>
        <time>2012-01-06T23:58:19Z</time>
        <course>212.694789307859</course>
        <speed>5.22186264088059</speed>
      </trkpt>
      <trkpt lat="44.0553" lon="5.60648">
        <ele>948</ele>
        <time>2012-01-06T23:58:43Z</time>
        <course>203.330216376688</course>
        <speed>8.3116030071738</speed>
      </trkpt>
      <trkpt lat="44.05493" lon="5.60664">
        <ele>945</ele>
        <time>2012-01-06T23:58:48Z</time>
        <course>182.239992878507</course>
        <speed>8.31895859149146</speed>
      </trkpt>
      <trkpt lat="44.05391" lon="5.60668">
        <ele>939</ele>
        <time>2012-01-06T23:59:01Z</time>
        <course>195.339133110789</course>
        <speed>8.31335456798349</speed>
      </trkpt>
      <trkpt lat="44.05351" lon="5.60679">
        <ele>938</ele>
        <time>2012-01-06T23:59:07Z</time>
        <course>212.830162178175</course>
        <speed>8.31987155365974</speed>
      </trkpt>
      <trkpt lat="44.05167" lon="5.60798">
        <ele>934</ele>
        <time>2012-01-06T23:59:34Z</time>
        <course>204.335755551021</course>
        <speed>8.31613300589754</speed>
      </trkpt>
      <trkpt lat="44.05092" lon="5.60832">
        <ele>933</ele>
        <time>2012-01-06T23:59:44Z</time>
        <course>227.422981541592</course>
        <speed>8.32835367469407</speed>
      </trkpt>
      <trkpt lat="44.0507" lon="5.60856">
        <ele>933</ele>
        <time>2012-01-06T23:59:48Z</time>
        <course>247.201840408513</course>
        <speed>5.28860349578412</speed>
      </trkpt>
      <trkpt lat="44.05057" lon="5.60887">
        <ele>933</ele>
        <time>2012-01-06T23:59:54Z</time>
        <course>255.49798287012</course>
        <speed>5.28226940257729</speed>
      </trkpt>
      <trkpt lat="44.05049" lon="5.60918">
        <ele>934</ele>
        <time>2012-01-06T23:59:59Z</time>
        <course>263.439797406626</course>
        <speed>5.28209027040269</speed>
      </trkpt>
      <trkpt lat="44.05042" lon="5.60979">
        <ele>936</ele>
        <time>2012-01-07T00:00:08Z</time>
        <course>251.525613944712</course>
        <speed>8.31839654903573</speed>
      </trkpt>
      <trkpt lat="44.05034" lon="5.61003">
        <ele>935</ele>
        <time>2012-01-07T00:00:10Z</time>
        <course>241.334231771272</course>
        <speed>8.32350313610766</speed>
      </trkpt>
      <trkpt lat="44.05022" lon="5.61025">
        <ele>935</ele>
        <time>2012-01-07T00:00:13Z</time>
        <course>233.410694080292</course>
        <speed>8.31864675468014</speed>
      </trkpt>
      <trkpt lat="44.04942" lon="5.61133">
        <ele>934</ele>
        <time>2012-01-07T00:00:28Z</time>
        <course>248.154559582006</course>
        <speed>8.30925101350824</speed>
      </trkpt>
      <trkpt lat="44.04932" lon="5.61158">
        <ele>933</ele>
        <time>2012-01-07T00:00:31Z</time>
        <course>260.196579276442</course>
        <speed>8.32810740803134</speed>
      </trkpt>
      <trkpt lat="44.04927" lon="5.61187">
        <ele>932</ele>
        <time>2012-01-07T00:00:34Z</time>
        <course>273.187306284344</course>
        <speed>8.33460915742194</speed>
      </trkpt>
      <trkpt lat="44.04928" lon="5.61205">
        <ele>932</ele>
        <time>2012-01-07T00:00:35Z</time>
        <course>287.057583174707</course>
        <speed>8.32413326374322</speed>
      </trkpt>
      <trkpt lat="44.04943" lon="5.61254">
        <ele>930</ele>
        <time>2012-01-07T00:00:40Z</time>
        <course>298.233065983928</course>
        <speed>8.32566517064654</speed>
      </trkpt>
      <trkpt lat="44.04958" lon="5.61282">
        <ele>930</ele>
        <time>2012-01-07T00:00:44Z</time>
        <course>330.806945807814</course>
        <speed>3.13896877335802</speed>
      </trkpt>
      <trkpt lat="44.04983" lon="5.61296">
        <ele>932</ele>
        <time>2012-01-07T00:00:53Z</time>
        <course>351.190680901573</course>
        <speed>3.13800351453465</speed>
      </trkpt>
      <trkpt lat="44.05086" lon="5.61312">
        <ele>942</ele>
        <time>2012-01-07T00:01:30Z</time>
        <course>340.863069933042</course>
        <speed>4.86952118644863</speed>
      </trkpt>
      <trkpt lat="44.05109" lon="5.6132">
        <ele>942</ele>
        <time>2012-01-07T00:01:35Z</time>
        <course>326.566112348553</course>
        <speed>4.87021577827527</speed>
      </trkpt>
      <trkpt lat="44.05248" lon="5.61412">
        <ele>949</ele>
        <time>2012-01-07T00:02:11Z</time>
        <course>310.171587247767</course>
        <speed>8.31815081269868</speed>
      </trkpt>
      <trkpt lat="44.0528" lon="5.6145">
        <ele>948</ele>
        <time>2012-01-07T00:02:16Z</time>
        <course>304.162895199155</course>
        <speed>8.32091980065516</speed>
      </trkpt>
      <trkpt lat="44.05324" lon="5.61515">
        <ele>948</ele>
        <time>2012-01-07T00:02:25Z</time>
        <course>313.88022109506</course>
        <speed>8.31723869739524</speed>
      </trkpt>
      <trkpt lat="44.05488" lon="5.61686">
        <ele>945</ele>
        <time>2012-01-07T00:02:52Z</time>
        <course>309.301122217344</course>
        <speed>8.31722198050924</speed>
      </trkpt>
      <trkpt lat="44.05528" lon="5.61735">
        <ele>944</ele>
        <time>2012-01-07T00:02:59Z</time>
        <course>299.811811920866</course>
        <speed>8.32054337552179</speed>
      </trkpt>
      <trkpt lat="44.05552" lon="5.61777">
        <ele>944</ele>
        <time>2012-01-07T00:03:04Z</time>
        <course>294.143758299331</course>
        <speed>8.32016814109806</speed>
      </trkpt>
      <trkpt lat="44.05611" lon="5.61909">
        <ele>928</ele>
        <time>2012-01-07T00:03:19Z</time>
        <course>302.432094932543</course>
        <speed>8.31624931139626</speed>
      </trkpt>
      <trkpt lat="44.05694" lon="5.6204">
        <ele>910</ele>
        <time>2012-01-07T00:03:36Z</time>
        <course>316.085823482333</course>
        <speed>8.30982381320594</speed>
      </trkpt>
      <trkpt lat="44.05723" lon="5.62068">
        <ele>908</ele>
        <time>2012-01-07T00:03:41Z</time>
        <course>328.808279286242</course>
        <speed>8.32016513295992</speed>
      </trkpt>
      <trkpt lat="44.05751" lon="5.62085">
        <ele>907</ele>
        <time>2012-01-07T00:03:45Z</time>
        <course>353.944798137865</course>
        <speed>8.31409569413933</speed>
      </trkpt>
      <trkpt lat="44.05798" lon="5.6209">
        <ele>906</ele>
        <time>2012-01-07T00:03:51Z</time>
        <course>303.766171695064</course>
        <speed>8.30783444768512</speed>
      </trkpt>
      <trkpt lat="44.05804" lon="5.62099">
        <ele>905</ele>
        <time>2012-01-07T00:03:52Z</time>
        <course>254.703324474202</course>
        <speed>8.31444468369823</speed>
      </trkpt>
      <trkpt lat="44.05801" lon="5.6211">
        <ele>905</ele>
        <time>2012-01-07T00:03:53Z</time>
        <course>206.499434101796</course>
        <speed>8.28600916562177</speed>
      </trkpt>
      <trkpt lat="44.05797" lon="5.62112">
        <ele>905</ele>
        <time>2012-01-07T00:03:54Z</time>
        <course>173.108189343838</course>
        <speed>8.32770521000841</speed>
      </trkpt>
      <trkpt lat="44.05764" lon="5.62108">
        <ele>903</ele>
        <time>2012-01-07T00:03:58Z</time>
        <course>156.506629179559</course>
        <speed>8.31746096079299</speed>
      </trkpt>
      <trkpt lat="44.05725" lon="5.62091">
        <ele>901</ele>
        <time>2012-01-07T00:04:04Z</time>
        <course>146.762424261785</course>
        <speed>8.31930800030329</speed>
      </trkpt>
      <trkpt lat="44.0569" lon="5.62068">
        <ele>900</ele>
        <time>2012-01-07T00:04:09Z</time>
        <course>135.487560510929</course>
        <speed>5.86244075106306</speed>
      </trkpt>
      <trkpt lat="44.0555" lon="5.6193">
        <ele>904</ele>
        <time>2012-01-07T00:04:42Z</time>
        <course>125.228038490126</course>
        <speed>3.98605702831687</speed>
      </trkpt>
      <trkpt lat="44.05469" lon="5.61815">
        <ele>911</ele>
        <time>2012-01-07T00:05:14Z</time>
        <course>135.074294537799</course>
        <speed>7.24447237635853</speed>
      </trkpt>
      <trkpt lat="44.05442" lon="5.61788">
        <ele>911</ele>
        <time>2012-01-07T00:05:19Z</time>
        <course>140.04112089886</course>
        <speed>7.24323573969221</speed>
      </trkpt>
      <trkpt lat="44.05367" lon="5.61725">
        <ele>912</ele>
        <time>2012-01-07T00:05:32Z</time>
        <course>151.093070439988</course>
        <speed>8.31939309945342</speed>
      </trkpt>
      <trkpt lat="44.05311" lon="5.61694">
        <ele>906</ele>
        <time>2012-01-07T00:05:40Z</time>
        <course>169.720030139596</course>
        <speed>8.31789186611764</speed>
      </trkpt>
      <trkpt lat="44.05256" lon="5.61684">
        <ele>901</ele>
        <time>2012-01-07T00:05:48Z</time>
        <course>177.830496620312</course>
        <speed>8.31605008741352</speed>
      </trkpt>
      <trkpt lat="44.05177" lon="5.61681">
        <ele>896</ele>
        <time>2012-01-07T00:05:58Z</time>
        <course>186.720499834626</course>
        <speed>8.316497415407</speed>
      </trkpt>
      <trkpt lat="44.0505" lon="5.61696">
        <ele>888</ele>
        <time>2012-01-07T00:06:15Z</time>
        <course>205.151196143666</course>
        <speed>8.31595332174561</speed>
      </trkpt>
      <trkpt lat="44.04965" lon="5.61736">
        <ele>878</ele>
        <time>2012-01-07T00:06:27Z</time>
        <course>212.882372058292</course>
        <speed>8.32025403862825</speed>
      </trkpt>
      <trkpt lat="44.04823" lon="5.61828">
        <ele>863</ele>
        <time>2012-01-07T00:06:48Z</time>
        <course>201.52932731236</course>
        <speed>8.32047934557734</speed>
      </trkpt>
      <trkpt lat="44.0478" lon="5.61845">
        <ele>860</ele>
        <time>2012-01-07T00:06:54Z</time>
        <course>190.662891683808</course>
        <speed>8.32390852503385</speed>
      </trkpt>
      <trkpt lat="44.04727" lon="5.61855">
        <ele>858</ele>
        <time>2012-01-07T00:07:01Z</time>
        <course>169.852035059974</course>
        <speed>8.31931698326487</speed>
      </trkpt>
      <trkpt lat="44.04543" lon="5.61822">
        <ele>855</ele>
        <time>2012-01-07T00:07:26Z</time>
        <course>159.865690267305</course>
        <speed>7.66189303995129</speed>
      </trkpt>
      <trkpt lat="44.04494" lon="5.61804">
        <ele>855</ele>
        <time>2012-01-07T00:07:34Z</time>
        <course>152.093109416478</course>
        <speed>7.65765188399546</speed>
      </trkpt>
      <trkpt lat="44.04347" lon="5.61726">
        <ele>856</ele>
        <time>2012-01-07T00:07:56Z</time>
        <course>161.344420687871</course>
        <speed>8.31688002918543</speed>
      </trkpt>
      <trkpt lat="44.04279" lon="5.61703">
        <ele>855</ele>
        <time>2012-01-07T00:08:06Z</time>
        <course>167.849771472398</course>
        <speed>8.32340689644647</speed>
      </trkpt>
      <trkpt lat="44.04228" lon="5.61692">
        <ele>855</ele>
        <time>2012-01-07T00:08:13Z</time>
        <course>178.940961613968</course>
        <speed>8.32317839218394</speed>
      </trkpt>
      <trkpt lat="44.04174" lon="5.61691">
        <ele>843</ele>
        <time>2012-01-07T00:08:20Z</time>
        <course>213.643624125922</course>
        <speed>8.325725672389</speed>
      </trkpt>
      <trkpt lat="44.04159" lon="5.61701">
        <ele>839</ele>
        <time>2012-01-07T00:08:22Z</time>
        <course>244.615196442847</course>
        <speed>8.33735465528144</speed>
      </trkpt>
      <trkpt lat="44.0415" lon="5.6172">
        <ele>836</ele>
        <time>2012-01-07T00:08:24Z</time>
        <course>270.870693741826</course>
        <speed>8.31712873651476</speed>
      </trkpt>
      <trkpt lat="44.04151" lon="5.61786">
        <ele>826</ele>
        <time>2012-01-07T00:08:31Z</time>
        <course>261.370025262543</course>
        <speed>8.31439238268721</speed>
      </trkpt>
      <trkpt lat="44.04146" lon="5.61819">
        <ele>825</ele>
        <time>2012-01-07T00:08:34Z</time>
        <course>257.971397783119</course>
        <speed>8.31701888331122</speed>
      </trkpt>
      <trkpt lat="44.04106" lon="5.62007">
        <ele>825</ele>
        <time>2012-01-07T00:08:53Z</time>
        <course>250.71964571824</course>
        <speed>8.31955953628277</speed>
      </trkpt>
      <trkpt lat="44.04033" lon="5.62216">
        <ele>816</ele>
        <time>2012-01-07T00:09:15Z</time>
        <course>245.287215568132</course>
        <speed>8.31194520752515</speed>
      </trkpt>
      <trkpt lat="44.04016" lon="5.62253">
        <ele>812</ele>
        <time>2012-01-07T00:09:19Z</time>
        <course>233.303653584284</course>
        <speed>8.31840248525195</speed>
      </trkpt>
      <trkpt lat="44.03824" lon="5.62511">
        <ele>786</ele>
        <time>2012-01-07T00:09:55Z</time>
        <course>226.804349740581</course>
        <speed>8.31851820018843</speed>
      </trkpt>
      <trkpt lat="44.03764" lon="5.62575">
        <ele>783</ele>
        <time>2012-01-07T00:10:05Z</time>
        <course>222.095318112763</course>
        <speed>8.3178081394445</speed>
      </trkpt>
      <trkpt lat="44.03701" lon="5.62632">
        <ele>782</ele>
        <time>2012-01-07T00:10:15Z</time>
        <course>231.911804134526</course>
        <speed>4.64264449066459</speed>
      </trkpt>
      <trkpt lat="44.03683" lon="5.62655">
        <ele>783</ele>
        <time>2012-01-07T00:10:21Z</time>
        <course>245.823154750747</course>
        <speed>4.64304016653977</speed>
      </trkpt>
      <trkpt lat="44.0367" lon="5.62684">
        <ele>784</ele>
        <time>2012-01-07T00:10:27Z</time>
        <course>273.184813143893</course>
        <speed>4.63727182507293</speed>
      </trkpt>
      <trkpt lat="44.03671" lon="5.62702">
        <ele>784</ele>
        <time>2012-01-07T00:10:30Z</time>
        <course>296.599310209951</course>
        <speed>4.64740936484521</speed>
      </trkpt>
      <trkpt lat="44.03679" lon="5.62718">
        <ele>785</ele>
        <time>2012-01-07T00:10:33Z</time>
        <course>331.181797904973</course>
        <speed>4.64065418849521</speed>
      </trkpt>
      <trkpt lat="44.03777" lon="5.62772">
        <ele>790</ele>
        <time>2012-01-07T00:10:58Z</time>
        <course>314.50096227648</course>
        <speed>5.8667224093438</speed>
      </trkpt>
      <trkpt lat="44.03881" lon="5.62878">
        <ele>793</ele>
        <time>2012-01-07T00:11:23Z</time>
        <course>287.128705229826</course>
        <speed>8.30569697855561</speed>
      </trkpt>
      <trkpt lat="44.03885" lon="5.62891">
        <ele>792</ele>
        <time>2012-01-07T00:11:24Z</time>
        <course>342.923269336995</course>
        <speed>8.31166041659824</speed>
      </trkpt>
      <trkpt lat="44.03911" lon="5.62899">
        <ele>791</ele>
        <time>2012-01-07T00:11:28Z</time>
        <course>23.7147486770177</course>
        <speed>8.31284177967529</speed>
      </trkpt>
      <trkpt lat="44.03961" lon="5.62877">
        <ele>790</ele>
        <time>2012-01-07T00:11:35Z</time>
        <course>310.183079746654</course>
        <speed>8.31668357094997</speed>
      </trkpt>
      <trkpt lat="44.04004" lon="5.62928">
        <ele>789</ele>
        <time>2012-01-07T00:11:42Z</time>
        <course>318.415361476361</course>
        <speed>6.09961165325161</speed>
      </trkpt>
      <trkpt lat="44.04067" lon="5.62984">
        <ele>790</ele>
        <time>2012-01-07T00:11:56Z</time>
        <course>324.115100681441</course>
        <speed>6.09974511522095</speed>
      </trkpt>
      <trkpt lat="44.04176" lon="5.63063">
        <ele>793</ele>
        <time>2012-01-07T00:12:18Z</time>
        <course>315.051214118852</course>
        <speed>8.33000125026033</speed>
      </trkpt>
      <trkpt lat="44.04197" lon="5.63084">
        <ele>790</ele>
        <time>2012-01-07T00:12:22Z</time>
        <course>301.420180241295</course>
        <speed>8.31454218056915</speed>
      </trkpt>
      <trkpt lat="44.04247" lon="5.63166">
        <ele>785</ele>
        <time>2012-01-07T00:12:32Z</time>
        <course>304.502330603411</course>
        <speed>8.31501694340479</speed>
      </trkpt>
      <trkpt lat="44.04306" lon="5.63252">
        <ele>784</ele>
        <time>2012-01-07T00:12:44Z</time>
        <course>309.800576813658</course>
        <speed>8.31790194751555</speed>
      </trkpt>
      <trkpt lat="44.04385" lon="5.63347">
        <ele>783</ele>
        <time>2012-01-07T00:12:58Z</time>
        <course>296.609112094618</course>
        <speed>8.30585834926574</speed>
      </trkpt>
      <trkpt lat="44.04399" lon="5.63375">
        <ele>780</ele>
        <time>2012-01-07T00:13:01Z</time>
        <course>278.763044176439</course>
        <speed>8.32843241418767</speed>
      </trkpt>
      <trkpt lat="44.04403" lon="5.63401">
        <ele>778</ele>
        <time>2012-01-07T00:13:03Z</time>
        <course>252.61669440791</course>
        <speed>8.31959165724235</speed>
      </trkpt>
      <trkpt lat="44.04373" lon="5.63497">
        <ele>772</ele>
        <time>2012-01-07T00:13:13Z</time>
        <course>268.897127081857</course>
        <speed>8.32653261213946</speed>
      </trkpt>
      <trkpt lat="44.04372" lon="5.63549">
        <ele>770</ele>
        <time>2012-01-07T00:13:18Z</time>
        <course>286.617846149524</course>
        <speed>8.31012211943327</speed>
      </trkpt>
      <trkpt lat="44.04386" lon="5.63596">
        <ele>768</ele>
        <time>2012-01-07T00:13:23Z</time>
        <course>295.72035758696</course>
        <speed>8.31419291040983</speed>
      </trkpt>
      <trkpt lat="44.04411" lon="5.63648">
        <ele>767</ele>
        <time>2012-01-07T00:13:29Z</time>
        <course>271.766912664259</course>
        <speed>8.31445892672986</speed>
      </trkpt>
      <trkpt lat="44.04413" lon="5.63713">
        <ele>765</ele>
        <time>2012-01-07T00:13:36Z</time>
        <course>281.333513593702</course>
        <speed>8.31539388031617</speed>
      </trkpt>
      <trkpt lat="44.0444" lon="5.63848">
        <ele>761</ele>
        <time>2012-01-07T00:13:49Z</time>
        <course>275.868647470295</course>
        <speed>8.31335207334839</speed>
      </trkpt>
      <trkpt lat="44.04448" lon="5.63926">
        <ele>757</ele>
        <time>2012-01-07T00:13:57Z</time>
        <course>268.781276064111</course>
        <speed>8.32130073370588</speed>
      </trkpt>
      <trkpt lat="44.04445" lon="5.64067">
        <ele>751</ele>
        <time>2012-01-07T00:14:10Z</time>
        <course>276.723619199991</course>
        <speed>8.32203325588771</speed>
      </trkpt>
      <trkpt lat="44.04451" lon="5.64118">
        <ele>748</ele>
        <time>2012-01-07T00:14:15Z</time>
        <course>284.0632780067</course>
        <speed>8.31797369364573</speed>
      </trkpt>
      <trkpt lat="44.04463" lon="5.64166">
        <ele>745</ele>
        <time>2012-01-07T00:14:20Z</time>
        <course>231.285972479348</course>
        <speed>8.29917225459617</speed>
      </trkpt>
      <trkpt lat="44.04459" lon="5.64171">
        <ele>745</ele>
        <time>2012-01-07T00:14:21Z</time>
        <course>267.875267519814</course>
        <speed>8.30550194646303</speed>
      </trkpt>
      <trkpt lat="44.04458" lon="5.64198">
        <ele>744</ele>
        <time>2012-01-07T00:14:23Z</time>
        <course>310.657496781736</course>
        <speed>8.32087069964851</speed>
      </trkpt>
      <trkpt lat="44.045" lon="5.64247">
        <ele>742</ele>
        <time>2012-01-07T00:14:31Z</time>
        <course>287.683578318014</course>
        <speed>8.31884773940985</speed>
      </trkpt>
      <trkpt lat="44.04514" lon="5.64291">
        <ele>740</ele>
        <time>2012-01-07T00:14:35Z</time>
        <course>279.481252521479</course>
        <speed>8.30991673499591</speed>
      </trkpt>
      <trkpt lat="44.04519" lon="5.64321">
        <ele>740</ele>
        <time>2012-01-07T00:14:38Z</time>
        <course>271.248033522764</course>
        <speed>8.31840605869933</speed>
      </trkpt>
      <trkpt lat="44.04533" lon="5.64971">
        <ele>723</ele>
        <time>2012-01-07T00:15:41Z</time>
        <course>276.496668355854</course>
        <speed>8.31311103277491</speed>
      </trkpt>
      <trkpt lat="44.04538" lon="5.65015">
        <ele>722</ele>
        <time>2012-01-07T00:15:45Z</time>
        <course>284.997155262285</course>
        <speed>8.31583783482674</speed>
      </trkpt>
      <trkpt lat="44.04565" lon="5.65116">
        <ele>722</ele>
        <time>2012-01-07T00:15:55Z</time>
        <course>289.354160075529</course>
        <speed>6.87488377552523</speed>
      </trkpt>
      <trkpt lat="44.0464" lon="5.6533">
        <ele>724</ele>
        <time>2012-01-07T00:16:23Z</time>
        <course>291.65625738399</course>
        <speed>8.31962872696111</speed>
      </trkpt>
      <trkpt lat="44.04661" lon="5.65383">
        <ele>723</ele>
        <time>2012-01-07T00:16:29Z</time>
        <course>301.017377529128</course>
        <speed>8.31717043121137</speed>
      </trkpt>
      <trkpt lat="44.04694" lon="5.65438">
        <ele>722</ele>
        <time>2012-01-07T00:16:36Z</time>
        <course>291.843065265994</course>
        <speed>7.33191889597422</speed>
      </trkpt>
      <trkpt lat="44.047" lon="5.65453">
        <ele>722</ele>
        <time>2012-01-07T00:16:37Z</time>
        <course>278.634067477204</course>
        <speed>7.33956930548592</speed>
      </trkpt>
      <trkpt lat="44.04705" lon="5.65486">
        <ele>722</ele>
        <time>2012-01-07T00:16:41Z</time>
        <course>264.112896552311</course>
        <speed>7.34479077449605</speed>
      </trkpt>
      <trkpt lat="44.04691" lon="5.65622">
        <ele>723</ele>
        <time>2012-01-07T00:16:56Z</time>
        <course>254.996350244759</course>
        <speed>8.32086205502754</speed>
      </trkpt>
      <trkpt lat="44.04649" lon="5.65779">
        <ele>723</ele>
        <time>2012-01-07T00:17:12Z</time>
        <course>251.324078464986</course>
        <speed>8.32169044381854</speed>
      </trkpt>
      <trkpt lat="44.04621" lon="5.65862">
        <ele>721</ele>
        <time>2012-01-07T00:17:21Z</time>
        <course>245.730110882762</course>
        <speed>8.32075645205787</speed>
      </trkpt>
      <trkpt lat="44.04585" lon="5.65942">
        <ele>720</ele>
        <time>2012-01-07T00:17:30Z</time>
        <course>230.56249205287</course>
        <speed>8.31460442689287</speed>
      </trkpt>
      <trkpt lat="44.0453" lon="5.66009">
        <ele>718</ele>
        <time>2012-01-07T00:17:40Z</time>
        <course>236.83818506165</course>
        <speed>8.3146204356255</speed>
      </trkpt>
      <trkpt lat="44.04485" lon="5.66078">
        <ele>718</ele>
        <time>2012-01-07T00:17:49Z</time>
        <course>256.459881064639</course>
        <speed>8.31811592818202</speed>
      </trkpt>
      <trkpt lat="44.0446" lon="5.66182">
        <ele>714</ele>
        <time>2012-01-07T00:17:59Z</time>
        <course>245.514560142359</course>
        <speed>8.31628572563641</speed>
      </trkpt>
      <trkpt lat="44.0445" lon="5.66204">
        <ele>714</ele>
        <time>2012-01-07T00:18:02Z</time>
        <course>236.25969876388</course>
        <speed>8.31893507505513</speed>
      </trkpt>
      <trkpt lat="44.04422" lon="5.66246">
        <ele>713</ele>
        <time>2012-01-07T00:18:07Z</time>
        <course>248.16146769804</course>
        <speed>8.30981119811027</speed>
      </trkpt>
      <trkpt lat="44.04406" lon="5.66286">
        <ele>712</ele>
        <time>2012-01-07T00:18:12Z</time>
        <course>267.793658639572</course>
        <speed>8.31874396521598</speed>
      </trkpt>
      <trkpt lat="44.04405" lon="5.66312">
        <ele>711</ele>
        <time>2012-01-07T00:18:14Z</time>
        <course>278.006443083368</course>
        <speed>8.32066117515453</speed>
      </trkpt>
      <trkpt lat="44.04421" lon="5.66426">
        <ele>710</ele>
        <time>2012-01-07T00:18:25Z</time>
        <course>281.782258515347</course>
        <speed>8.31960610529917</speed>
      </trkpt>
      <trkpt lat="44.04462" lon="5.66623">
        <ele>702</ele>
        <time>2012-01-07T00:18:45Z</time>
        <course>274.773727798835</course>
        <speed>8.31805427203954</speed>
      </trkpt>
      <trkpt lat="44.04466" lon="5.66671">
        <ele>701</ele>
        <time>2012-01-07T00:18:50Z</time>
        <course>264.911359987143</course>
        <speed>8.32565049424061</speed>
      </trkpt>
      <trkpt lat="44.04462" lon="5.66716">
        <ele>700</ele>
        <time>2012-01-07T00:18:54Z</time>
        <course>257.713378688415</course>
        <speed>8.32048212750034</speed>
      </trkpt>
      <trkpt lat="44.04447" lon="5.66785">
        <ele>700</ele>
        <time>2012-01-07T00:19:01Z</time>
        <course>245.392362381212</course>
        <speed>8.31375987861432</speed>
      </trkpt>
      <trkpt lat="44.04415" lon="5.66855">
        <ele>700</ele>
        <time>2012-01-07T00:19:09Z</time>
        <course>236.771834780584</course>
        <speed>8.33041691577106</speed>
      </trkpt>
      <trkpt lat="44.04398" lon="5.66881">
        <ele>700</ele>
        <time>2012-01-07T00:19:12Z</time>
        <course>219.752361421182</course>
        <speed>8.32694749347866</speed>
      </trkpt>
      <trkpt lat="44.0438" lon="5.66896">
        <ele>700</ele>
        <time>2012-01-07T00:19:15Z</time>
        <course>198.820490668543</course>
        <speed>8.31763793975247</speed>
      </trkpt>
      <trkpt lat="44.04339" lon="5.6691">
        <ele>699</ele>
        <time>2012-01-07T00:19:21Z</time>
        <course>174.719558413016</course>
        <speed>8.31778136121926</speed>
      </trkpt>
      <trkpt lat="44.04285" lon="5.66905">
        <ele>699</ele>
        <time>2012-01-07T00:19:28Z</time>
        <course>167.234891117915</course>
        <speed>8.32025422434595</speed>
      </trkpt>
      <trkpt lat="44.04144" lon="5.66873">
        <ele>693</ele>
        <time>2012-01-07T00:19:47Z</time>
        <course>184.152663467049</course>
        <speed>8.32079709869987</speed>
      </trkpt>
      <trkpt lat="44.04034" lon="5.66881">
        <ele>682</ele>
        <time>2012-01-07T00:20:02Z</time>
        <course>200.524690577204</course>
        <speed>8.31325513365391</speed>
      </trkpt>
      <trkpt lat="44.04002" lon="5.66893">
        <ele>681</ele>
        <time>2012-01-07T00:20:06Z</time>
        <course>220.234066895828</course>
        <speed>8.31728030079653</speed>
      </trkpt>
      <trkpt lat="44.03943" lon="5.66943">
        <ele>681</ele>
        <time>2012-01-07T00:20:15Z</time>
        <course>211.002221431846</course>
        <speed>8.31808144961005</speed>
      </trkpt>
      <trkpt lat="44.03835" lon="5.67008">
        <ele>681</ele>
        <time>2012-01-07T00:20:31Z</time>
        <course>190.475522234965</course>
        <speed>7.32859289389189</speed>
      </trkpt>
      <trkpt lat="44.03808" lon="5.67013">
        <ele>681</ele>
        <time>2012-01-07T00:20:35Z</time>
        <course>169.75820271759</course>
        <speed>7.33078148730993</speed>
      </trkpt>
      <trkpt lat="44.03703" lon="5.66994">
        <ele>682</ele>
        <time>2012-01-07T00:20:51Z</time>
        <course>202.58983166961</course>
        <speed>8.31857930358214</speed>
      </trkpt>
      <trkpt lat="44.03667" lon="5.67009">
        <ele>681</ele>
        <time>2012-01-07T00:20:56Z</time>
        <course>222.414028573074</course>
        <speed>8.32359585932737</speed>
      </trkpt>
      <trkpt lat="44.0362" lon="5.67052">
        <ele>680</ele>
        <time>2012-01-07T00:21:04Z</time>
        <course>230.866755047117</course>
        <speed>8.3139729117804</speed>
      </trkpt>
      <trkpt lat="44.03568" lon="5.67116">
        <ele>680</ele>
        <time>2012-01-07T00:21:13Z</time>
        <course>255.543808436345</course>
        <speed>8.3161379270225</speed>
      </trkpt>
      <trkpt lat="44.03525" lon="5.67283">
        <ele>680</ele>
        <time>2012-01-07T00:21:30Z</time>
        <course>246.94626249241</course>
        <speed>8.32295301229371</speed>
      </trkpt>
      <trkpt lat="44.03508" lon="5.67323">
        <ele>680</ele>
        <time>2012-01-07T00:21:35Z</time>
        <course>223.265993376338</course>
        <speed>8.31793646899692</speed>
      </trkpt>
      <trkpt lat="44.03369" lon="5.67454">
        <ele>680</ele>
        <time>2012-01-07T00:21:57Z</time>
        <course>249.421559149267</course>
        <speed>8.32053491944602</speed>
      </trkpt>
      <trkpt lat="44.03312" lon="5.67606">
        <ele>680</ele>
        <time>2012-01-07T00:22:13Z</time>
        <course>244.955497453676</course>
        <speed>8.32220185168304</speed>
      </trkpt>
      <trkpt lat="44.03291" lon="5.67651">
        <ele>677</ele>
        <time>2012-01-07T00:22:19Z</time>
        <course>228.90946405756</course>
        <speed>8.31269760430556</speed>
      </trkpt>
      <trkpt lat="44.03264" lon="5.67682">
        <ele>675</ele>
        <time>2012-01-07T00:22:23Z</time>
        <course>221.558702665082</course>
        <speed>8.31853459338616</speed>
      </trkpt>
      <trkpt lat="44.03095" lon="5.67832">
        <ele>664</ele>
        <time>2012-01-07T00:22:50Z</time>
        <course>229.05470595171</course>
        <speed>8.31727475175063</speed>
      </trkpt>
      <trkpt lat="44.02978" lon="5.67967">
        <ele>660</ele>
        <time>2012-01-07T00:23:10Z</time>
        <course>234.432264590666</course>
        <speed>8.3200331280035</speed>
      </trkpt>
      <trkpt lat="44.02958" lon="5.67995">
        <ele>660</ele>
        <time>2012-01-07T00:23:14Z</time>
        <course>244.631149671227</course>
        <speed>8.31675930940881</speed>
      </trkpt>
      <trkpt lat="44.02895" lon="5.68128">
        <ele>660</ele>
        <time>2012-01-07T00:23:29Z</time>
        <course>221.155455047765</course>
        <speed>8.31330871506837</speed>
      </trkpt>
      <trkpt lat="44.02871" lon="5.68149">
        <ele>659</ele>
        <time>2012-01-07T00:23:33Z</time>
        <course>188.736993981258</course>
        <speed>8.32877141189358</speed>
      </trkpt>
      <trkpt lat="44.02845" lon="5.68153">
        <ele>658</ele>
        <time>2012-01-07T00:23:37Z</time>
        <course>165.07377736896</course>
        <speed>8.3180444723535</speed>
      </trkpt>
      <trkpt lat="44.02279" lon="5.68002">
        <ele>645</ele>
        <time>2012-01-07T00:24:54Z</time>
        <course>173.664757090751</course>
        <speed>8.32202959826113</speed>
      </trkpt>
      <trkpt lat="44.02198" lon="5.67993">
        <ele>642</ele>
        <time>2012-01-07T00:25:05Z</time>
        <course>184.433197727904</course>
        <speed>8.31827643032926</speed>
      </trkpt>
      <trkpt lat="44.02082" lon="5.68002">
        <ele>640</ele>
        <time>2012-01-07T00:25:20Z</time>
        <course>200.542254530849</course>
        <speed>8.31970041624764</speed>
      </trkpt>
      <trkpt lat="44.02058" lon="5.68011">
        <ele>640</ele>
        <time>2012-01-07T00:25:23Z</time>
        <course>212.486297933278</course>
        <speed>8.32038576980486</speed>
      </trkpt>
      <trkpt lat="44.01945" lon="5.68083">
        <ele>640</ele>
        <time>2012-01-07T00:25:40Z</time>
        <course>226.313153519447</course>
        <speed>8.32363700729986</speed>
      </trkpt>
      <trkpt lat="44.01903" lon="5.68127">
        <ele>640</ele>
        <time>2012-01-07T00:25:47Z</time>
        <course>209.038471096628</course>
        <speed>8.32682253640462</speed>
      </trkpt>
      <trkpt lat="44.01876" lon="5.68142">
        <ele>640</ele>
        <time>2012-01-07T00:25:51Z</time>
        <course>198.788581446867</course>
        <speed>8.32331011813543</speed>
      </trkpt>
      <trkpt lat="44.01829" lon="5.68158">
        <ele>640</ele>
        <time>2012-01-07T00:25:57Z</time>
        <course>185.436870567599</course>
        <speed>8.32379479458377</speed>
      </trkpt>
      <trkpt lat="44.01808" lon="5.6816">
        <ele>640</ele>
        <time>2012-01-07T00:26:00Z</time>
        <course>174.855190799962</course>
        <speed>8.31775104448865</speed>
      </trkpt>
      <trkpt lat="44.01697" lon="5.6815">
        <ele>640</ele>
        <time>2012-01-07T00:26:15Z</time>
        <course>190.485408485125</course>
        <speed>8.31518649151753</speed>
      </trkpt>
      <trkpt lat="44.0167" lon="5.68155">
        <ele>640</ele>
        <time>2012-01-07T00:26:19Z</time>
        <course>209.343420553626</course>
        <speed>8.30248647754472</speed>
      </trkpt>
      <trkpt lat="44.01654" lon="5.68164">
        <ele>640</ele>
        <time>2012-01-07T00:26:21Z</time>
        <course>226.129713848047</course>
        <speed>8.31440865327741</speed>
      </trkpt>
      <trkpt lat="44.01605" lon="5.68215">
        <ele>640</ele>
        <time>2012-01-07T00:26:29Z</time>
        <course>214.099658181057</course>
        <speed>8.31180946313556</speed>
      </trkpt>
      <trkpt lat="44.01574" lon="5.68236">
        <ele>640</ele>
        <time>2012-01-07T00:26:34Z</time>
        <course>180</course>
        <speed>8.30434163662794</speed>
      </trkpt>
      <trkpt lat="44.01553" lon="5.68236">
        <ele>640</ele>
        <time>2012-01-07T00:26:37Z</time>
        <course>161.267944701945</course>
        <speed>8.31854348170704</speed>
      </trkpt>
      <trkpt lat="44.01497" lon="5.68217">
        <ele>640</ele>
        <time>2012-01-07T00:26:44Z</time>
        <course>192.332830977439</course>
        <speed>8.31309881544721</speed>
      </trkpt>
      <trkpt lat="44.01465" lon="5.68224">
        <ele>640</ele>
        <time>2012-01-07T00:26:49Z</time>
        <course>209.09766242136</course>
        <speed>8.3185275601355</speed>
      </trkpt>
      <trkpt lat="44.01095" lon="5.6843">
        <ele>640</ele>
        <time>2012-01-07T00:27:42Z</time>
        <course>210.817835881235</course>
        <speed>6.1858183407227</speed>
      </trkpt>
      <trkpt lat="44.01033" lon="5.68467">
        <ele>641</ele>
        <time>2012-01-07T00:27:54Z</time>
        <course>217.988133876508</course>
        <speed>6.18925253150148</speed>
      </trkpt>
      <trkpt lat="44.01001" lon="5.68492">
        <ele>642</ele>
        <time>2012-01-07T00:28:01Z</time>
        <course>208.064568967255</course>
        <speed>8.31741607046916</speed>
      </trkpt>
      <trkpt lat="44.00836" lon="5.6858">
        <ele>627</ele>
        <time>2012-01-07T00:28:24Z</time>
        <course>224.990470172116</course>
        <speed>2.96483295717502</speed>
      </trkpt>
      <trkpt lat="44.00818" lon="5.68598">
        <ele>629</ele>
        <time>2012-01-07T00:28:33Z</time>
        <course>261.02456024104</course>
        <speed>2.96129406094995</speed>
      </trkpt>
      <trkpt lat="44.00815" lon="5.68617">
        <ele>630</ele>
        <time>2012-01-07T00:28:38Z</time>
        <course>280.889278414019</course>
        <speed>2.96276528708965</speed>
      </trkpt>
      <trkpt lat="44.0082" lon="5.68643">
        <ele>632</ele>
        <time>2012-01-07T00:28:45Z</time>
        <course>293.63699090335</course>
        <speed>2.96384357453651</speed>
      </trkpt>
      <trkpt lat="44.00848" lon="5.68707">
        <ele>638</ele>
        <time>2012-01-07T00:29:05Z</time>
        <course>280.011604724611</course>
        <speed>3.54617338794896</speed>
      </trkpt>
      <trkpt lat="44.00854" lon="5.68741">
        <ele>639</ele>
        <time>2012-01-07T00:29:13Z</time>
        <course>267.272909563275</course>
        <speed>3.54857975634243</speed>
      </trkpt>
      <trkpt lat="44.00853" lon="5.68762">
        <ele>641</ele>
        <time>2012-01-07T00:29:18Z</time>
        <course>252.833075601244</course>
        <speed>3.54797492815957</speed>
      </trkpt>
      <trkpt lat="44.00832" lon="5.6883">
        <ele>645</ele>
        <time>2012-01-07T00:29:35Z</time>
        <course>259.284186292372</course>
        <speed>5.59677305223495</speed>
      </trkpt>
      <trkpt lat="44.00811" lon="5.68941">
        <ele>647</ele>
        <time>2012-01-07T00:29:51Z</time>
        <course>275.858243019435</course>
        <speed>5.60230130584102</speed>
      </trkpt>
      <trkpt lat="44.00815" lon="5.6898">
        <ele>648</ele>
        <time>2012-01-07T00:29:57Z</time>
        <course>285.260154777033</course>
        <speed>8.32056031810672</speed>
      </trkpt>
      <trkpt lat="44.00821" lon="5.69002">
        <ele>648</ele>
        <time>2012-01-07T00:29:59Z</time>
        <course>294.282095648866</course>
        <speed>8.3235419191586</speed>
      </trkpt>
      <trkpt lat="44.00844" lon="5.69053">
        <ele>648</ele>
        <time>2012-01-07T00:30:05Z</time>
        <course>300.744793241981</course>
        <speed>8.32266801999278</speed>
      </trkpt>
      <trkpt lat="44.00888" lon="5.69127">
        <ele>648</ele>
        <time>2012-01-07T00:30:14Z</time>
        <course>286.788762914484</course>
        <speed>8.32279740968327</speed>
      </trkpt>
      <trkpt lat="44.00907" lon="5.6919">
        <ele>644</ele>
        <time>2012-01-07T00:30:20Z</time>
        <course>303.417736006555</course>
        <speed>8.31424345734847</speed>
      </trkpt>
      <trkpt lat="44.00938" lon="5.69237">
        <ele>642</ele>
        <time>2012-01-07T00:30:26Z</time>
        <course>276.046960490838</course>
        <speed>8.32296821352264</speed>
      </trkpt>
      <trkpt lat="44.00947" lon="5.69322">
        <ele>640</ele>
        <time>2012-01-07T00:30:35Z</time>
        <course>301.711227304633</course>
        <speed>8.31033084625292</speed>
      </trkpt>
      <trkpt lat="44.00968" lon="5.69356">
        <ele>640</ele>
        <time>2012-01-07T00:30:39Z</time>
        <course>314.702139812517</course>
        <speed>3.67529189278293</speed>
      </trkpt>
      <trkpt lat="44.0106" lon="5.69449">
        <ele>648</ele>
        <time>2012-01-07T00:31:13Z</time>
        <course>299.756196966534</course>
        <speed>3.27906360555468</speed>
      </trkpt>
      <trkpt lat="44.0114" lon="5.69589">
        <ele>659</ele>
        <time>2012-01-07T00:31:57Z</time>
        <course>285.599479986107</course>
        <speed>6.03288883347531</speed>
      </trkpt>
      <trkpt lat="44.01152" lon="5.69632">
        <ele>659</ele>
        <time>2012-01-07T00:32:03Z</time>
        <course>278.801830263567</course>
        <speed>6.03403351016986</speed>
      </trkpt>
      <trkpt lat="44.01165" lon="5.69716">
        <ele>661</ele>
        <time>2012-01-07T00:32:15Z</time>
        <course>285.649335353356</course>
        <speed>8.320849101926</speed>
      </trkpt>
      <trkpt lat="44.01186" lon="5.69791">
        <ele>661</ele>
        <time>2012-01-07T00:32:22Z</time>
        <course>268.024449182778</course>
        <speed>8.31633428312791</speed>
      </trkpt>
      <trkpt lat="44.01185" lon="5.6982">
        <ele>661</ele>
        <time>2012-01-07T00:32:25Z</time>
        <course>252.222124383233</course>
        <speed>8.32261138622615</speed>
      </trkpt>
      <trkpt lat="44.0116" lon="5.69898">
        <ele>661</ele>
        <time>2012-01-07T00:32:33Z</time>
        <course>260.130436262078</course>
        <speed>8.31243558500249</speed>
      </trkpt>
      <trkpt lat="44.01152" lon="5.69944">
        <ele>658</ele>
        <time>2012-01-07T00:32:38Z</time>
        <course>270.000326450997</course>
        <speed>8.31142176172386</speed>
      </trkpt>
      <trkpt lat="44.01152" lon="5.69983">
        <ele>655</ele>
        <time>2012-01-07T00:32:42Z</time>
        <course>288.442511694339</course>
        <speed>8.32288232091154</speed>
      </trkpt>
      <trkpt lat="44.0116" lon="5.70007">
        <ele>654</ele>
        <time>2012-01-07T00:32:44Z</time>
        <course>314.157623778764</course>
        <speed>8.3132151753908</speed>
      </trkpt>
      <trkpt lat="44.01193" lon="5.70041">
        <ele>651</ele>
        <time>2012-01-07T00:32:50Z</time>
        <course>325.234671687336</course>
        <speed>8.31904899435074</speed>
      </trkpt>
      <trkpt lat="44.01265" lon="5.70091">
        <ele>646</ele>
        <time>2012-01-07T00:33:00Z</time>
        <course>342.236768231215</course>
        <speed>8.32052700795665</speed>
      </trkpt>
      <trkpt lat="44.01343" lon="5.70116">
        <ele>642</ele>
        <time>2012-01-07T00:33:11Z</time>
        <course>354.038507458368</course>
        <speed>8.31406060665875</speed>
      </trkpt>
      <trkpt lat="44.0141" lon="5.70123">
        <ele>640</ele>
        <time>2012-01-07T00:33:20Z</time>
        <course>299.889047465752</course>
        <speed>8.31685401297861</speed>
      </trkpt>
      <trkpt lat="44.01437" lon="5.7017">
        <ele>640</ele>
        <time>2012-01-07T00:33:26Z</time>
        <course>333.446935632057</course>
        <speed>8.31100637413414</speed>
      </trkpt>
      <trkpt lat="44.01461" lon="5.70182">
        <ele>640</ele>
        <time>2012-01-07T00:33:29Z</time>
        <course>345.6259816953</course>
        <speed>8.31461129086268</speed>
      </trkpt>
      <trkpt lat="44.015" lon="5.70192">
        <ele>640</ele>
        <time>2012-01-07T00:33:34Z</time>
        <course>309.575629059177</course>
        <speed>8.31454875120561</speed>
      </trkpt>
      <trkpt lat="44.01557" lon="5.70261">
        <ele>640</ele>
        <time>2012-01-07T00:33:45Z</time>
        <course>328.333124668499</course>
        <speed>8.31716645254272</speed>
      </trkpt>
      <trkpt lat="44.01685" lon="5.7034">
        <ele>639</ele>
        <time>2012-01-07T00:34:03Z</time>
        <course>306.598733590744</course>
        <speed>8.31781691739415</speed>
      </trkpt>
      <trkpt lat="44.02056" lon="5.7084">
        <ele>614</ele>
        <time>2012-01-07T00:35:12Z</time>
        <course>292.124481771291</course>
        <speed>8.31956805746406</speed>
      </trkpt>
      <trkpt lat="44.02069" lon="5.70872">
        <ele>612</ele>
        <time>2012-01-07T00:35:16Z</time>
        <course>275.760214956874</course>
        <speed>8.32013155552942</speed>
      </trkpt>
      <trkpt lat="44.02082" lon="5.71001">
        <ele>609</ele>
        <time>2012-01-07T00:35:28Z</time>
        <course>281.011922904016</course>
        <speed>6.72661023812041</speed>
      </trkpt>
      <trkpt lat="44.02089" lon="5.71037">
        <ele>609</ele>
        <time>2012-01-07T00:35:33Z</time>
        <course>293.765552838257</course>
        <speed>6.72963315864554</speed>
      </trkpt>
      <trkpt lat="44.021" lon="5.71062">
        <ele>609</ele>
        <time>2012-01-07T00:35:36Z</time>
        <course>314.140592142992</course>
        <speed>6.72773070306812</speed>
      </trkpt>
      <trkpt lat="44.02132" lon="5.71095">
        <ele>610</ele>
        <time>2012-01-07T00:35:43Z</time>
        <course>296.268534388572</course>
        <speed>6.72332250061418</speed>
      </trkpt>
      <trkpt lat="44.02168" lon="5.71168">
        <ele>611</ele>
        <time>2012-01-07T00:35:53Z</time>
        <course>283.25063421265</course>
        <speed>8.30951411572155</speed>
      </trkpt>
      <trkpt lat="44.02172" lon="5.71185">
        <ele>610</ele>
        <time>2012-01-07T00:35:55Z</time>
        <course>251.552096061546</course>
        <speed>8.32767602327122</speed>
      </trkpt>
      <trkpt lat="44.02161" lon="5.71218">
        <ele>608</ele>
        <time>2012-01-07T00:35:59Z</time>
        <course>241.171055721651</course>
        <speed>8.31383002310037</speed>
      </trkpt>
      <trkpt lat="44.02139" lon="5.71258">
        <ele>606</ele>
        <time>2012-01-07T00:36:03Z</time>
        <course>221.164469132761</course>
        <speed>8.30265441780593</speed>
      </trkpt>
      <trkpt lat="44.02123" lon="5.71272">
        <ele>605</ele>
        <time>2012-01-07T00:36:06Z</time>
        <course>208.395137063821</course>
        <speed>8.32167725997564</speed>
      </trkpt>
      <trkpt lat="44.02062" lon="5.71305">
        <ele>602</ele>
        <time>2012-01-07T00:36:15Z</time>
        <course>169.003745382373</course>
        <speed>4.77733380929663</speed>
      </trkpt>
      <trkpt lat="44.01918" lon="5.71277">
        <ele>608</ele>
        <time>2012-01-07T00:36:48Z</time>
        <course>183.059159373224</course>
        <speed>6.45801209218103</speed>
      </trkpt>
      <trkpt lat="44.01731" lon="5.71287">
        <ele>611</ele>
        <time>2012-01-07T00:37:21Z</time>
        <course>192.716947360205</course>
        <speed>8.30914519361353</speed>
      </trkpt>
      <trkpt lat="44.017" lon="5.71294">
        <ele>610</ele>
        <time>2012-01-07T00:37:25Z</time>
        <course>207.574938606237</course>
        <speed>8.31842456353832</speed>
      </trkpt>
      <trkpt lat="44.01589" lon="5.71352">
        <ele>607</ele>
        <time>2012-01-07T00:37:41Z</time>
        <course>215.738842666388</course>
        <speed>8.31996940755647</speed>
      </trkpt>
      <trkpt lat="44.01564" lon="5.7137">
        <ele>606</ele>
        <time>2012-01-07T00:37:44Z</time>
        <course>221.657970476301</course>
        <speed>8.32032702239753</speed>
      </trkpt>
      <trkpt lat="44.01473" lon="5.71451">
        <ele>603</ele>
        <time>2012-01-07T00:37:59Z</time>
        <course>226.179102663696</course>
        <speed>8.31537478702784</speed>
      </trkpt>
      <trkpt lat="44.01426" lon="5.715">
        <ele>601</ele>
        <time>2012-01-07T00:38:07Z</time>
        <course>241.687314478007</course>
        <speed>8.31928966497519</speed>
      </trkpt>
      <trkpt lat="44.01412" lon="5.71526">
        <ele>600</ele>
        <time>2012-01-07T00:38:10Z</time>
        <course>253.294241182732</course>
        <speed>8.32049395814616</speed>
      </trkpt>
      <trkpt lat="44.01367" lon="5.71676">
        <ele>598</ele>
        <time>2012-01-07T00:38:26Z</time>
        <course>247.939929589104</course>
        <speed>8.31892660785045</speed>
      </trkpt>
      <trkpt lat="44.01335" lon="5.71755">
        <ele>595</ele>
        <time>2012-01-07T00:38:34Z</time>
        <course>244.256812200384</course>
        <speed>8.31890918136877</speed>
      </trkpt>
      <trkpt lat="44.0112" lon="5.72201">
        <ele>578</ele>
        <time>2012-01-07T00:39:26Z</time>
        <course>242.545038286196</course>
        <speed>8.31698931424262</speed>
      </trkpt>
      <trkpt lat="44.01053" lon="5.7233">
        <ele>573</ele>
        <time>2012-01-07T00:39:41Z</time>
        <course>251.560392146899</course>
        <speed>8.31752579460916</speed>
      </trkpt>
      <trkpt lat="44.0097" lon="5.72579">
        <ele>565</ele>
        <time>2012-01-07T00:40:07Z</time>
        <course>253.344892812263</course>
        <speed>8.32101382790652</speed>
      </trkpt>
      <trkpt lat="44.00938" lon="5.72686">
        <ele>561</ele>
        <time>2012-01-07T00:40:19Z</time>
        <course>264.287717259885</course>
        <speed>8.31847764832477</speed>
      </trkpt>
      <trkpt lat="44.00933" lon="5.72736">
        <ele>560</ele>
        <time>2012-01-07T00:40:23Z</time>
        <course>272.122708792468</course>
        <speed>8.31842583519451</speed>
      </trkpt>
      <trkpt lat="44.00937" lon="5.72844">
        <ele>559</ele>
        <time>2012-01-07T00:40:34Z</time>
        <course>264.803849297006</course>
        <speed>8.3203715736816</speed>
      </trkpt>
      <trkpt lat="44.00935" lon="5.72866">
        <ele>559</ele>
        <time>2012-01-07T00:40:36Z</time>
        <course>248.191491149419</course>
        <speed>6.82454752592157</speed>
      </trkpt>
      <trkpt lat="44.00929" lon="5.72881">
        <ele>559</ele>
        <time>2012-01-07T00:40:38Z</time>
        <course>236.262004987066</course>
        <speed>6.81315008784579</speed>
      </trkpt>
      <trkpt lat="44.00716" lon="5.732">
        <ele>563</ele>
        <time>2012-01-07T00:41:29Z</time>
        <course>233.834120428923</course>
        <speed>8.32127672505665</speed>
      </trkpt>
      <trkpt lat="44.00659" lon="5.73278">
        <ele>560</ele>
        <time>2012-01-07T00:41:40Z</time>
        <course>230.9669657239</course>
        <speed>8.31958454247903</speed>
      </trkpt>
      <trkpt lat="44.00582" lon="5.73373">
        <ele>557</ele>
        <time>2012-01-07T00:41:53Z</time>
        <course>227.855128802619</course>
        <speed>8.31600240722944</speed>
      </trkpt>
      <trkpt lat="44.00525" lon="5.73436">
        <ele>555</ele>
        <time>2012-01-07T00:42:03Z</time>
        <course>219.632446494362</course>
        <speed>8.318228032929</speed>
      </trkpt>
      <trkpt lat="44.00356" lon="5.73576">
        <ele>553</ele>
        <time>2012-01-07T00:42:29Z</time>
        <course>204.325099260523</course>
        <speed>8.31789777745358</speed>
      </trkpt>
      <trkpt lat="44.00168" lon="5.73661">
        <ele>543</ele>
        <time>2012-01-07T00:42:56Z</time>
        <course>202.072269503127</course>
        <speed>8.31750333868246</speed>
      </trkpt>
      <trkpt lat="43.99988" lon="5.73734">
        <ele>538</ele>
        <time>2012-01-07T00:43:21Z</time>
        <course>201.390233146685</course>
        <speed>8.31980344330488</speed>
      </trkpt>
      <trkpt lat="43.99891" lon="5.73772">
        <ele>535</ele>
        <time>2012-01-07T00:43:34Z</time>
        <course>197.713906428061</course>
        <speed>8.31728923574336</speed>
      </trkpt>
      <trkpt lat="43.99747" lon="5.73818">
        <ele>530</ele>
        <time>2012-01-07T00:43:54Z</time>
        <course>177.286819608065</course>
        <speed>8.31912874047651</speed>
      </trkpt>
      <trkpt lat="43.99536" lon="5.73808">
        <ele>522</ele>
        <time>2012-01-07T00:44:22Z</time>
        <course>169.160532132127</course>
        <speed>8.31539789960229</speed>
      </trkpt>
      <trkpt lat="43.99489" lon="5.73799">
        <ele>519</ele>
        <time>2012-01-07T00:44:29Z</time>
        <course>139.400882172725</course>
        <speed>8.30756745867389</speed>
      </trkpt>
      <trkpt lat="43.99475" lon="5.73787">
        <ele>518</ele>
        <time>2012-01-07T00:44:31Z</time>
        <course>154.487722165536</course>
        <speed>8.32440272990041</speed>
      </trkpt>
      <trkpt lat="43.99431" lon="5.73766">
        <ele>516</ele>
        <time>2012-01-07T00:44:37Z</time>
        <course>159.776391992378</course>
        <speed>8.32068419893317</speed>
      </trkpt>
      <trkpt lat="43.99393" lon="5.73752">
        <ele>514</ele>
        <time>2012-01-07T00:44:42Z</time>
        <course>173.418477061755</course>
        <speed>8.30675284991996</speed>
      </trkpt>
      <trkpt lat="43.99367" lon="5.73749">
        <ele>514</ele>
        <time>2012-01-07T00:44:46Z</time>
        <course>190.007364824398</course>
        <speed>8.31529591923913</speed>
      </trkpt>
      <trkpt lat="43.9935" lon="5.73752">
        <ele>513</ele>
        <time>2012-01-07T00:44:48Z</time>
        <course>209.19616550517</course>
        <speed>8.31863490547852</speed>
      </trkpt>
      <trkpt lat="43.99282" lon="5.7379">
        <ele>512</ele>
        <time>2012-01-07T00:44:58Z</time>
        <course>155.129529441671</course>
        <speed>8.31970883816347</speed>
      </trkpt>
      <trkpt lat="43.99131" lon="5.7372">
        <ele>508</ele>
        <time>2012-01-07T00:45:19Z</time>
        <course>169.160079538379</course>
        <speed>8.31540846890162</speed>
      </trkpt>
      <trkpt lat="43.99084" lon="5.73711">
        <ele>508</ele>
        <time>2012-01-07T00:45:25Z</time>
        <course>163.600286599471</course>
        <speed>8.31780125993297</speed>
      </trkpt>
      <trkpt lat="43.98785" lon="5.73623">
        <ele>508</ele>
        <time>2012-01-07T00:46:06Z</time>
        <course>181.468781185748</course>
        <speed>8.3194192146995</speed>
      </trkpt>
      <trkpt lat="43.98746" lon="5.73624">
        <ele>506</ele>
        <time>2012-01-07T00:46:12Z</time>
        <course>205.659089174164</course>
        <speed>8.31635374678867</speed>
      </trkpt>
      <trkpt lat="43.98644" lon="5.73673">
        <ele>503</ele>
        <time>2012-01-07T00:46:26Z</time>
        <course>183.928304406252</course>
        <speed>8.31917325310533</speed>
      </trkpt>
      <trkpt lat="43.98411" lon="5.73689">
        <ele>500</ele>
        <time>2012-01-07T00:46:57Z</time>
        <course>158.459021782322</course>
        <speed>8.31884778297694</speed>
      </trkpt>
      <trkpt lat="43.98297" lon="5.73644">
        <ele>500</ele>
        <time>2012-01-07T00:47:13Z</time>
        <course>152.137541509654</course>
        <speed>8.31920039852531</speed>
      </trkpt>
      <trkpt lat="43.9807" lon="5.73524">
        <ele>497</ele>
        <time>2012-01-07T00:47:45Z</time>
        <course>160.016964435803</course>
        <speed>8.31729527390777</speed>
      </trkpt>
      <trkpt lat="43.97949" lon="5.7348">
        <ele>494</ele>
        <time>2012-01-07T00:48:02Z</time>
        <course>149.215994053931</course>
        <speed>8.31963762141202</speed>
      </trkpt>
      <trkpt lat="43.97902" lon="5.73452">
        <ele>494</ele>
        <time>2012-01-07T00:48:09Z</time>
        <course>142.087180992361</course>
        <speed>8.31622408858044</speed>
      </trkpt>
      <trkpt lat="43.97798" lon="5.73371">
        <ele>494</ele>
        <time>2012-01-07T00:48:25Z</time>
        <course>152.468358220179</course>
        <speed>7.05628937381572</speed>
      </trkpt>
      <trkpt lat="43.97704" lon="5.73322">
        <ele>495</ele>
        <time>2012-01-07T00:48:41Z</time>
        <course>158.198897826617</course>
        <speed>8.31884202847204</speed>
      </trkpt>
      <trkpt lat="43.97674" lon="5.7331">
        <ele>494</ele>
        <time>2012-01-07T00:48:45Z</time>
        <course>173.506621655708</course>
        <speed>8.31627195198772</speed>
      </trkpt>
      <trkpt lat="43.97551" lon="5.73296">
        <ele>494</ele>
        <time>2012-01-07T00:49:01Z</time>
        <course>150.255799305505</course>
        <speed>4.68546223004179</speed>
      </trkpt>
      <trkpt lat="43.97495" lon="5.73264">
        <ele>496</ele>
        <time>2012-01-07T00:49:16Z</time>
        <course>158.839308678956</course>
        <speed>4.68660874080479</speed>
      </trkpt>
      <trkpt lat="43.97464" lon="5.73252">
        <ele>498</ele>
        <time>2012-01-07T00:49:23Z</time>
        <course>187.594414569551</course>
        <speed>8.33062451623556</speed>
      </trkpt>
      <trkpt lat="43.97449" lon="5.73254">
        <ele>497</ele>
        <time>2012-01-07T00:49:25Z</time>
        <course>204.120205335907</course>
        <speed>8.32129753163788</speed>
      </trkpt>
      <trkpt lat="43.97382" lon="5.73284">
        <ele>494</ele>
        <time>2012-01-07T00:49:35Z</time>
        <course>195.460626760807</course>
        <speed>8.32047317087927</speed>
      </trkpt>
      <trkpt lat="43.97335" lon="5.73297">
        <ele>493</ele>
        <time>2012-01-07T00:49:41Z</time>
        <course>191.019053121209</course>
        <speed>8.3180383391981</speed>
      </trkpt>
      <trkpt lat="43.97145" lon="5.73334">
        <ele>491</ele>
        <time>2012-01-07T00:50:07Z</time>
        <course>208.190806854561</course>
        <speed>6.38818732254069</speed>
      </trkpt>
      <trkpt lat="43.96923" lon="5.73453">
        <ele>495</ele>
        <time>2012-01-07T00:50:48Z</time>
        <course>180</course>
        <speed>5.93167259792873</speed>
      </trkpt>
      <trkpt lat="43.96893" lon="5.73453">
        <ele>495</ele>
        <time>2012-01-07T00:50:54Z</time>
        <course>165.965051217902</course>
        <speed>5.93582895288074</speed>
      </trkpt>
      <trkpt lat="43.96845" lon="5.73441">
        <ele>496</ele>
        <time>2012-01-07T00:51:03Z</time>
        <course>188.275046760205</course>
        <speed>5.9314658331238</speed>
      </trkpt>
      <trkpt lat="43.9679" lon="5.73449">
        <ele>498</ele>
        <time>2012-01-07T00:51:13Z</time>
        <course>167.906557555669</course>
        <speed>3.07286142404775</speed>
      </trkpt>
      <trkpt lat="43.96734" lon="5.73437">
        <ele>503</ele>
        <time>2012-01-07T00:51:34Z</time>
        <course>183.012433866075</course>
        <speed>3.07315529379994</speed>
      </trkpt>
      <trkpt lat="43.96696" lon="5.73439">
        <ele>507</ele>
        <time>2012-01-07T00:51:47Z</time>
        <course>213.686792508389</course>
        <speed>8.31747235487937</speed>
      </trkpt>
      <trkpt lat="43.96663" lon="5.73461">
        <ele>506</ele>
        <time>2012-01-07T00:51:52Z</time>
        <course>229.596322659236</course>
        <speed>8.31597445146846</speed>
      </trkpt>
      <trkpt lat="43.96623" lon="5.73508">
        <ele>505</ele>
        <time>2012-01-07T00:51:59Z</time>
        <course>219.801712603363</course>
        <speed>8.31498783706387</speed>
      </trkpt>
      <trkpt lat="43.96587" lon="5.73538">
        <ele>505</ele>
        <time>2012-01-07T00:52:05Z</time>
        <course>201.951254086136</course>
        <speed>8.31974504887746</speed>
      </trkpt>
      <trkpt lat="43.96458" lon="5.7359">
        <ele>503</ele>
        <time>2012-01-07T00:52:23Z</time>
        <course>219.502483974861</course>
        <speed>8.31774650290156</speed>
      </trkpt>
      <trkpt lat="43.96344" lon="5.73684">
        <ele>494</ele>
        <time>2012-01-07T00:52:41Z</time>
        <course>195.413626924896</course>
        <speed>8.31865763374688</speed>
      </trkpt>
      <trkpt lat="43.95956" lon="5.73791">
        <ele>480</ele>
        <time>2012-01-07T00:53:33Z</time>
        <course>205.798202460993</course>
        <speed>8.31926732115837</speed>
      </trkpt>
      <trkpt lat="43.95865" lon="5.73835">
        <ele>475</ele>
        <time>2012-01-07T00:53:46Z</time>
        <course>201.364724928039</course>
        <speed>8.31704253292356</speed>
      </trkpt>
      <trkpt lat="43.95773" lon="5.73871">
        <ele>472</ele>
        <time>2012-01-07T00:53:59Z</time>
        <course>227.85358732768</course>
        <speed>8.32716059478655</speed>
      </trkpt>
      <trkpt lat="43.95754" lon="5.73892">
        <ele>471</ele>
        <time>2012-01-07T00:54:02Z</time>
        <course>253.565334766236</course>
        <speed>8.31370348223909</speed>
      </trkpt>
      <trkpt lat="43.95731" lon="5.7397">
        <ele>470</ele>
        <time>2012-01-07T00:54:10Z</time>
        <course>239.850567446488</course>
        <speed>8.31813078210142</speed>
      </trkpt>
      <trkpt lat="43.95713" lon="5.74001">
        <ele>470</ele>
        <time>2012-01-07T00:54:14Z</time>
        <course>214.206639158672</course>
        <speed>5.67517942415026</speed>
      </trkpt>
      <trkpt lat="43.95638" lon="5.74052">
        <ele>472</ele>
        <time>2012-01-07T00:54:31Z</time>
        <course>228.229838052447</course>
        <speed>5.67322009596944</speed>
      </trkpt>
      <trkpt lat="43.95613" lon="5.7408">
        <ele>473</ele>
        <time>2012-01-07T00:54:37Z</time>
        <course>244.808121806613</course>
        <speed>5.49764434077485</speed>
      </trkpt>
      <trkpt lat="43.95479" lon="5.74365">
        <ele>480</ele>
        <time>2012-01-07T00:55:26Z</time>
        <course>236.299771309042</course>
        <speed>6.56789100670955</speed>
      </trkpt>
      <trkpt lat="43.95469" lon="5.7438">
        <ele>480</ele>
        <time>2012-01-07T00:55:29Z</time>
        <course>216.859143196795</course>
        <speed>6.57229594287781</speed>
      </trkpt>
      <trkpt lat="43.95441" lon="5.74401">
        <ele>480</ele>
        <time>2012-01-07T00:55:34Z</time>
        <course>205.618683898907</course>
        <speed>6.57306400323508</speed>
      </trkpt>
      <trkpt lat="43.95293" lon="5.74472">
        <ele>483</ele>
        <time>2012-01-07T00:56:01Z</time>
        <course>223.139866712141</course>
        <speed>3.56306473647578</speed>
      </trkpt>
      <trkpt lat="43.95277" lon="5.74487">
        <ele>484</ele>
        <time>2012-01-07T00:56:07Z</time>
        <course>231.695654670791</course>
        <speed>3.56361153522262</speed>
      </trkpt>
      <trkpt lat="43.95142" lon="5.74658">
        <ele>498</ele>
        <time>2012-01-07T00:57:04Z</time>
        <course>199.365052275144</course>
        <speed>8.31812879312382</speed>
      </trkpt>
      <trkpt lat="43.95051" lon="5.7469">
        <ele>492</ele>
        <time>2012-01-07T00:57:16Z</time>
        <course>216.709524739975</course>
        <speed>6.16478891472446</speed>
      </trkpt>
      <trkpt lat="43.94988" lon="5.74737">
        <ele>493</ele>
        <time>2012-01-07T00:57:29Z</time>
        <course>222.381534422734</course>
        <speed>6.16217528013581</speed>
      </trkpt>
      <trkpt lat="43.94919" lon="5.748">
        <ele>495</ele>
        <time>2012-01-07T00:57:44Z</time>
        <course>230.511673563056</course>
        <speed>3.18145254056713</speed>
      </trkpt>
      <trkpt lat="43.94891" lon="5.74834">
        <ele>498</ele>
        <time>2012-01-07T00:57:57Z</time>
        <course>240.51015348572</course>
        <speed>3.18277691204266</speed>
      </trkpt>
      <trkpt lat="43.94878" lon="5.74857">
        <ele>500</ele>
        <time>2012-01-07T00:58:04Z</time>
        <course>251.81173077214</course>
        <speed>3.18104752749768</speed>
      </trkpt>
      <trkpt lat="43.94856" lon="5.74924">
        <ele>505</ele>
        <time>2012-01-07T00:58:23Z</time>
        <course>260.433616022208</course>
        <speed>2.95100717759112</speed>
      </trkpt>
      <trkpt lat="43.9484" lon="5.75019">
        <ele>512</ele>
        <time>2012-01-07T00:58:49Z</time>
        <course>243.421614020057</course>
        <speed>2.95160301704992</speed>
      </trkpt>
      <trkpt lat="43.94833" lon="5.75033">
        <ele>513</ele>
        <time>2012-01-07T00:58:54Z</time>
        <course>208.596460786826</course>
        <speed>2.95100049351164</speed>
      </trkpt>
      <trkpt lat="43.94822" lon="5.75039">
        <ele>514</ele>
        <time>2012-01-07T00:58:59Z</time>
        <course>164.063466498667</course>
        <speed>2.95214311749463</speed>
      </trkpt>
      <trkpt lat="43.94808" lon="5.75035">
        <ele>516</ele>
        <time>2012-01-07T00:59:04Z</time>
        <course>122.36336910079</course>
        <speed>8.31353769415713</speed>
      </trkpt>
      <trkpt lat="43.9477" lon="5.74975">
        <ele>506</ele>
        <time>2012-01-07T00:59:12Z</time>
        <course>140.923132360588</course>
        <speed>8.30556695657452</speed>
      </trkpt>
      <trkpt lat="43.94754" lon="5.74962">
        <ele>503</ele>
        <time>2012-01-07T00:59:14Z</time>
        <course>160.570939540812</course>
        <speed>8.32938102803305</speed>
      </trkpt>
      <trkpt lat="43.94737" lon="5.74956">
        <ele>501</ele>
        <time>2012-01-07T00:59:16Z</time>
        <course>183.364392201623</course>
        <speed>3.88240943226803</speed>
      </trkpt>
      <trkpt lat="43.9472" lon="5.74957">
        <ele>502</ele>
        <time>2012-01-07T00:59:21Z</time>
        <course>201.435519760949</course>
        <speed>3.8816640733228</speed>
      </trkpt>
      <trkpt lat="43.94692" lon="5.74968">
        <ele>503</ele>
        <time>2012-01-07T00:59:30Z</time>
        <course>211.518333509804</course>
        <speed>3.87895888182083</speed>
      </trkpt>
      <trkpt lat="43.94648" lon="5.74995">
        <ele>507</ele>
        <time>2012-01-07T00:59:43Z</time>
        <course>226.61795482481</course>
        <speed>4.60341399205693</speed>
      </trkpt>
      <trkpt lat="43.94631" lon="5.75013">
        <ele>507</ele>
        <time>2012-01-07T00:59:49Z</time>
        <course>243.909410921037</course>
        <speed>4.60180832681798</speed>
      </trkpt>
      <trkpt lat="43.94608" lon="5.7506">
        <ele>509</ele>
        <time>2012-01-07T00:59:58Z</time>
        <course>259.688300907498</course>
        <speed>4.59589680226496</speed>
      </trkpt>
      <trkpt lat="43.94604" lon="5.75082">
        <ele>510</ele>
        <time>2012-01-07T01:00:02Z</time>
        <course>273.816106503073</course>
        <speed>4.60007137953098</speed>
      </trkpt>
      <trkpt lat="43.94607" lon="5.75127">
        <ele>512</ele>
        <time>2012-01-07T01:00:10Z</time>
        <course>268.056626876149</course>
        <speed>4.21548927262846</speed>
      </trkpt>
      <trkpt lat="43.94605" lon="5.75186">
        <ele>514</ele>
        <time>2012-01-07T01:00:21Z</time>
        <course>255.709295246845</course>
        <speed>4.21609712523587</speed>
      </trkpt>
      <trkpt lat="43.94591" lon="5.75241">
        <ele>516</ele>
        <time>2012-01-07T01:00:33Z</time>
        <course>243.419394486023</course>
        <speed>4.21669681756092</speed>
      </trkpt>
      <trkpt lat="43.94576" lon="5.75271">
        <ele>518</ele>
        <time>2012-01-07T01:00:39Z</time>
        <course>232.954951535107</course>
        <speed>4.43333002376121</speed>
      </trkpt>
      <trkpt lat="43.94487" lon="5.75389">
        <ele>524</ele>
        <time>2012-01-07T01:01:10Z</time>
        <course>218.775526657796</course>
        <speed>8.32025048646483</speed>
      </trkpt>
      <trkpt lat="43.94385" lon="5.75471">
        <ele>523</ele>
        <time>2012-01-07T01:01:26Z</time>
        <course>207.389715909632</course>
        <speed>6.86499072170925</speed>
      </trkpt>
      <trkpt lat="43.94331" lon="5.75499">
        <ele>523</ele>
        <time>2012-01-07T01:01:35Z</time>
        <course>231.821395671646</course>
        <speed>6.85098854471806</speed>
      </trkpt>
      <trkpt lat="43.9432" lon="5.75513">
        <ele>523</ele>
        <time>2012-01-07T01:01:38Z</time>
        <course>267.611964123052</course>
        <speed>6.86943268004273</speed>
      </trkpt>
      <trkpt lat="43.94319" lon="5.75537">
        <ele>524</ele>
        <time>2012-01-07T01:01:41Z</time>
        <course>293.214100172892</course>
        <speed>6.86072783578359</speed>
      </trkpt>
      <trkpt lat="43.94331" lon="5.75565">
        <ele>524</ele>
        <time>2012-01-07T01:01:44Z</time>
        <course>308.486646454849</course>
        <speed>6.86406725732132</speed>
      </trkpt>
      <trkpt lat="43.94687" lon="5.76013">
        <ele>530</ele>
        <time>2012-01-07T01:03:02Z</time>
        <course>253.062213593059</course>
        <speed>8.32398112761439</speed>
      </trkpt>
      <trkpt lat="43.9468" lon="5.76036">
        <ele>527</ele>
        <time>2012-01-07T01:03:05Z</time>
        <course>242.182959763183</course>
        <speed>8.31411094695795</speed>
      </trkpt>
      <trkpt lat="43.94651" lon="5.76091">
        <ele>520</ele>
        <time>2012-01-07T01:03:11Z</time>
        <course>227.99439085723</course>
        <speed>8.31635940529696</speed>
      </trkpt>
      <trkpt lat="43.94642" lon="5.76101">
        <ele>518</ele>
        <time>2012-01-07T01:03:13Z</time>
        <course>207.459098306925</course>
        <speed>8.30900756686571</speed>
      </trkpt>
      <trkpt lat="43.94617" lon="5.76114">
        <ele>515</ele>
        <time>2012-01-07T01:03:16Z</time>
        <course>231.096779177846</course>
        <speed>8.31261489035699</speed>
      </trkpt>
      <trkpt lat="43.94592" lon="5.76145">
        <ele>511</ele>
        <time>2012-01-07T01:03:21Z</time>
        <course>199.346881711251</course>
        <speed>8.31559914486099</speed>
      </trkpt>
      <trkpt lat="43.94555" lon="5.76158">
        <ele>506</ele>
        <time>2012-01-07T01:03:26Z</time>
        <course>223.005539201453</course>
        <speed>8.33273627191465</speed>
      </trkpt>
      <trkpt lat="43.9454" lon="5.76172">
        <ele>504</ele>
        <time>2012-01-07T01:03:28Z</time>
        <course>190.297857721931</course>
        <speed>8.310668582667</speed>
      </trkpt>
      <trkpt lat="43.94507" lon="5.76178">
        <ele>501</ele>
        <time>2012-01-07T01:03:33Z</time>
        <course>175.95845758028</course>
        <speed>8.31958226090384</speed>
      </trkpt>
      <trkpt lat="43.94408" lon="5.76171">
        <ele>492</ele>
        <time>2012-01-07T01:03:46Z</time>
        <course>247.364061941306</course>
        <speed>8.31695886067182</speed>
      </trkpt>
      <trkpt lat="43.94368" lon="5.76267">
        <ele>483</ele>
        <time>2012-01-07T01:03:57Z</time>
        <course>202.233494608679</course>
        <speed>8.31932614332468</speed>
      </trkpt>
      <trkpt lat="43.94302" lon="5.76294">
        <ele>477</ele>
        <time>2012-01-07T01:04:06Z</time>
        <course>260.530437253724</course>
        <speed>6.31732558294271</speed>
      </trkpt>
      <trkpt lat="43.94301" lon="5.763">
        <ele>477</ele>
        <time>2012-01-07T01:04:07Z</time>
        <course>293.444442371463</course>
        <speed>6.30958290337501</speed>
      </trkpt>
      <trkpt lat="43.94314" lon="5.7633">
        <ele>477</ele>
        <time>2012-01-07T01:04:11Z</time>
        <course>277.600230240385</course>
        <speed>6.32407956170352</speed>
      </trkpt>
      <trkpt lat="43.94316" lon="5.76345">
        <ele>477</ele>
        <time>2012-01-07T01:04:13Z</time>
        <course>246.785332079052</course>
        <speed>6.29729580528953</speed>
      </trkpt>
      <trkpt lat="43.9431" lon="5.76359">
        <ele>477</ele>
        <time>2012-01-07T01:04:15Z</time>
        <course>224.977598655189</course>
        <speed>6.31130171817483</speed>
      </trkpt>
      <trkpt lat="43.94287" lon="5.76382">
        <ele>478</ele>
        <time>2012-01-07T01:04:20Z</time>
        <course>254.733437150599</course>
        <speed>6.31629644686844</speed>
      </trkpt>
      <trkpt lat="43.94284" lon="5.76393">
        <ele>478</ele>
        <time>2012-01-07T01:04:21Z</time>
        <course>271.736682534324</course>
        <speed>6.30708169731087</speed>
      </trkpt>
      <trkpt lat="43.94285" lon="5.76426">
        <ele>479</ele>
        <time>2012-01-07T01:04:26Z</time>
        <course>188.739373839958</course>
        <speed>8.32891723799538</speed>
      </trkpt>
      <trkpt lat="43.94259" lon="5.7643">
        <ele>477</ele>
        <time>2012-01-07T01:04:29Z</time>
        <course>206.828250549009</course>
        <speed>8.3158765867059</speed>
      </trkpt>
      <trkpt lat="43.94178" lon="5.76471">
        <ele>474</ele>
        <time>2012-01-07T01:04:41Z</time>
        <course>264.284630126924</course>
        <speed>8.32777035749066</speed>
      </trkpt>
      <trkpt lat="43.94177" lon="5.76481">
        <ele>474</ele>
        <time>2012-01-07T01:04:42Z</time>
        <course>243.819011164511</course>
        <speed>8.31459109853401</speed>
      </trkpt>
      <trkpt lat="43.94149" lon="5.76538">
        <ele>474</ele>
        <time>2012-01-07T01:04:48Z</time>
        <course>201.234237995358</course>
        <speed>8.30838966439478</speed>
      </trkpt>
      <trkpt lat="43.94131" lon="5.76545">
        <ele>474</ele>
        <time>2012-01-07T01:04:51Z</time>
        <course>219.643550611762</course>
        <speed>8.31712454336266</speed>
      </trkpt>
      <trkpt lat="43.9409" lon="5.76579">
        <ele>474</ele>
        <time>2012-01-07T01:04:57Z</time>
        <course>261.24503289994</course>
        <speed>4.08743865172403</speed>
      </trkpt>
      <trkpt lat="43.94072" lon="5.76696">
        <ele>478</ele>
        <time>2012-01-07T01:05:21Z</time>
        <course>357.956333917598</course>
        <speed>4.08449953394756</speed>
      </trkpt>
      <trkpt lat="43.941" lon="5.76697">
        <ele>480</ele>
        <time>2012-01-07T01:05:28Z</time>
        <course>82.8690622690647</course>
        <speed>4.08599569862006</speed>
      </trkpt>
      <trkpt lat="43.94101" lon="5.76689">
        <ele>480</ele>
        <time>2012-01-07T01:05:30Z</time>
        <course>34.3578413606874</course>
        <speed>4.08611259127712</speed>
      </trkpt>
      <trkpt lat="43.9412" lon="5.76676">
        <ele>482</ele>
        <time>2012-01-07T01:05:36Z</time>
        <course>22.1501565544208</course>
        <speed>4.08715047014264</speed>
      </trkpt>
      <trkpt lat="43.94201" lon="5.76643">
        <ele>487</ele>
        <time>2012-01-07T01:05:58Z</time>
        <course>22.1501565544208</course>
        <speed>4.08715047014264</speed>
      </trkpt>
      <trkpt lat="43.94201" lon="5.76643">
        <ele>487</ele>
        <time>2012-01-07T01:05:59Z</time>
        <course>202.149387375471</course>
        <speed>8.31561199377426</speed>
      </trkpt>
      <trkpt lat="43.9412" lon="5.76676">
        <ele>478</ele>
        <time>2012-01-07T01:06:11Z</time>
        <course>214.35753462972</course>
        <speed>8.31661078648628</speed>
      </trkpt>
      <trkpt lat="43.94101" lon="5.76689">
        <ele>476</ele>
        <time>2012-01-07T01:06:14Z</time>
        <course>262.868873053569</course>
        <speed>8.32914507795627</speed>
      </trkpt>
      <trkpt lat="43.941" lon="5.76697">
        <ele>475</ele>
        <time>2012-01-07T01:06:14Z</time>
        <course>177.956357652543</course>
        <speed>8.32189477237444</speed>
      </trkpt>
      <trkpt lat="43.94072" lon="5.76696">
        <ele>473</ele>
        <time>2012-01-07T01:06:18Z</time>
        <course>255.517323423793</course>
        <speed>8.31195001511714</speed>
      </trkpt>
      <trkpt lat="43.94064" lon="5.76727">
        <ele>471</ele>
        <time>2012-01-07T01:06:21Z</time>
        <course>246.646454591625</course>
        <speed>8.31627476204535</speed>
      </trkpt>
      <trkpt lat="43.9402" lon="5.76829">
        <ele>466</ele>
        <time>2012-01-07T01:06:33Z</time>
        <course>136.565181496636</course>
        <speed>8.31850343501218</speed>
      </trkpt>
      <trkpt lat="43.93771" lon="5.76593">
        <ele>453</ele>
        <time>2012-01-07T01:07:13Z</time>
        <course>169.705226114387</course>
        <speed>8.32940419951794</speed>
      </trkpt>
      <trkpt lat="43.9376" lon="5.76591">
        <ele>452</ele>
        <time>2012-01-07T01:07:14Z</time>
        <course>206.541879875855</course>
        <speed>8.31224194924481</speed>
      </trkpt>
      <trkpt lat="43.93736" lon="5.76603">
        <ele>451</ele>
        <time>2012-01-07T01:07:18Z</time>
        <course>171.47779619013</course>
        <speed>8.30976595603567</speed>
      </trkpt>
      <trkpt lat="43.93716" lon="5.766">
        <ele>450</ele>
        <time>2012-01-07T01:07:21Z</time>
        <course>136.071864283156</course>
        <speed>8.31593904975479</speed>
      </trkpt>
      <trkpt lat="43.9366" lon="5.76546">
        <ele>448</ele>
        <time>2012-01-07T01:07:30Z</time>
        <course>239.717312888445</course>
        <speed>8.29357572263982</speed>
      </trkpt>
      <trkpt lat="43.93653" lon="5.76558">
        <ele>447</ele>
        <time>2012-01-07T01:07:31Z</time>
        <course>255.949014650585</course>
        <speed>8.31910381777042</speed>
      </trkpt>
      <trkpt lat="43.93642" lon="5.76602">
        <ele>446</ele>
        <time>2012-01-07T01:07:36Z</time>
        <course>259.602682653897</course>
        <speed>8.31787175733944</speed>
      </trkpt>
      <trkpt lat="43.93607" lon="5.76793">
        <ele>443</ele>
        <time>2012-01-07T01:07:55Z</time>
        <course>250.860211541353</course>
        <speed>8.31542955383021</speed>
      </trkpt>
      <trkpt lat="43.93581" lon="5.76868">
        <ele>436</ele>
        <time>2012-01-07T01:08:03Z</time>
        <course>238.614301413164</course>
        <speed>8.31326972709073</speed>
      </trkpt>
      <trkpt lat="43.93542" lon="5.76932">
        <ele>430</ele>
        <time>2012-01-07T01:08:11Z</time>
        <course>221.067445927286</course>
        <speed>8.32340607525499</speed>
      </trkpt>
      <trkpt lat="43.93495" lon="5.76973">
        <ele>428</ele>
        <time>2012-01-07T01:08:18Z</time>
        <course>206.984759884382</course>
        <speed>8.3192035805194</speed>
      </trkpt>
      <trkpt lat="43.93342" lon="5.77051">
        <ele>423</ele>
        <time>2012-01-07T01:08:40Z</time>
        <course>212.938074370695</course>
        <speed>8.31798311876429</speed>
      </trkpt>
      <trkpt lat="43.92969" lon="5.77293">
        <ele>418</ele>
        <time>2012-01-07T01:09:35Z</time>
        <course>216.549396840222</course>
        <speed>8.31902060537392</speed>
      </trkpt>
      <trkpt lat="43.9267" lon="5.77515">
        <ele>417</ele>
        <time>2012-01-07T01:10:20Z</time>
        <course>211.02887508025</course>
        <speed>8.31796796573166</speed>
      </trkpt>
      <trkpt lat="43.9229" lon="5.77744">
        <ele>416</ele>
        <time>2012-01-07T01:11:15Z</time>
        <course>195.128141636195</course>
        <speed>8.32204985481175</speed>
      </trkpt>
      <trkpt lat="43.92242" lon="5.77757">
        <ele>414</ele>
        <time>2012-01-07T01:11:22Z</time>
        <course>182.721398232907</course>
        <speed>8.30922493055708</speed>
      </trkpt>
      <trkpt lat="43.92221" lon="5.77758">
        <ele>414</ele>
        <time>2012-01-07T01:11:25Z</time>
        <course>168.089011477084</course>
        <speed>8.31958178636621</speed>
      </trkpt>
      <trkpt lat="43.92027" lon="5.77717">
        <ele>409</ele>
        <time>2012-01-07T01:11:51Z</time>
        <course>176.573063629464</course>
        <speed>8.31268526410464</speed>
      </trkpt>
      <trkpt lat="43.91977" lon="5.77714">
        <ele>407</ele>
        <time>2012-01-07T01:11:58Z</time>
        <course>186.696486556971</course>
        <speed>8.31495985265192</speed>
      </trkpt>
      <trkpt lat="43.91892" lon="5.77724">
        <ele>405</ele>
        <time>2012-01-07T01:12:09Z</time>
        <course>198.048942675124</course>
        <speed>8.32360991388712</speed>
      </trkpt>
      <trkpt lat="43.91843" lon="5.7774">
        <ele>404</ele>
        <time>2012-01-07T01:12:16Z</time>
        <course>206.982728376673</course>
        <speed>8.32274235929316</speed>
      </trkpt>
      <trkpt lat="43.91794" lon="5.77765">
        <ele>403</ele>
        <time>2012-01-07T01:12:23Z</time>
        <course>213.633784702021</course>
        <speed>8.31805313368928</speed>
      </trkpt>
      <trkpt lat="43.91722" lon="5.77813">
        <ele>401</ele>
        <time>2012-01-07T01:12:33Z</time>
        <course>214.508811161454</course>
        <speed>8.31851650769868</speed>
      </trkpt>
      <trkpt lat="43.91162" lon="5.78199">
        <ele>392</ele>
        <time>2012-01-07T01:13:57Z</time>
        <course>207.462032108654</course>
        <speed>8.31821168076175</speed>
      </trkpt>
      <trkpt lat="43.90761" lon="5.78408">
        <ele>386</ele>
        <time>2012-01-07T01:14:54Z</time>
        <course>223.109940707355</course>
        <speed>8.32067132579705</speed>
      </trkpt>
      <trkpt lat="43.90712" lon="5.78454">
        <ele>385</ele>
        <time>2012-01-07T01:15:02Z</time>
        <course>235.442753053423</course>
        <speed>8.31517672158425</speed>
      </trkpt>
      <trkpt lat="43.90655" lon="5.78537">
        <ele>385</ele>
        <time>2012-01-07T01:15:13Z</time>
        <course>248.875495233588</course>
        <speed>8.32018951532284</speed>
      </trkpt>
      <trkpt lat="43.90603" lon="5.78672">
        <ele>385</ele>
        <time>2012-01-07T01:15:28Z</time>
        <course>246.233815046552</course>
        <speed>8.32000461369713</speed>
      </trkpt>
      <trkpt lat="43.90567" lon="5.78754">
        <ele>383</ele>
        <time>2012-01-07T01:15:37Z</time>
        <course>239.273937864282</course>
        <speed>8.31756847182339</speed>
      </trkpt>
      <trkpt lat="43.90535" lon="5.78808">
        <ele>383</ele>
        <time>2012-01-07T01:15:44Z</time>
        <course>231.973690518028</course>
        <speed>8.3152651631862</speed>
      </trkpt>
      <trkpt lat="43.90489" lon="5.78867">
        <ele>382</ele>
        <time>2012-01-07T01:15:52Z</time>
        <course>223.810727405091</course>
        <speed>8.31362777877126</speed>
      </trkpt>
      <trkpt lat="43.90436" lon="5.78918">
        <ele>381</ele>
        <time>2012-01-07T01:16:01Z</time>
        <course>212.966490099479</course>
        <speed>6.95289730828624</speed>
      </trkpt>
      <trkpt lat="43.90353" lon="5.78972">
        <ele>382</ele>
        <time>2012-01-07T01:16:16Z</time>
        <course>220.090191382891</course>
        <speed>5.2354399712543</speed>
      </trkpt>
      <trkpt lat="43.90308" lon="5.7901">
        <ele>383</ele>
        <time>2012-01-07T01:16:27Z</time>
        <course>230.816001931431</course>
        <speed>5.23591412157136</speed>
      </trkpt>
      <trkpt lat="43.90256" lon="5.79074">
        <ele>386</ele>
        <time>2012-01-07T01:16:41Z</time>
        <course>238.381302005474</course>
        <speed>8.31499301892457</speed>
      </trkpt>
      <trkpt lat="43.90202" lon="5.79162">
        <ele>384</ele>
        <time>2012-01-07T01:16:53Z</time>
        <course>226.543701046513</course>
        <speed>8.30774309689186</speed>
      </trkpt>
      <trkpt lat="43.90185" lon="5.7918">
        <ele>384</ele>
        <time>2012-01-07T01:16:55Z</time>
        <course>211.83612941423</course>
        <speed>8.32007852298743</speed>
      </trkpt>
      <trkpt lat="43.90124" lon="5.79218">
        <ele>382</ele>
        <time>2012-01-07T01:17:04Z</time>
        <course>200.696047323325</course>
        <speed>8.31721832883118</speed>
      </trkpt>
      <trkpt lat="43.89971" lon="5.79276">
        <ele>380</ele>
        <time>2012-01-07T01:17:26Z</time>
        <course>215.44422215459</course>
        <speed>8.31576973797856</speed>
      </trkpt>
      <trkpt lat="43.89936" lon="5.79301">
        <ele>379</ele>
        <time>2012-01-07T01:17:31Z</time>
        <course>228.432909518383</course>
        <speed>8.31801379462064</speed>
      </trkpt>
      <trkpt lat="43.89898" lon="5.79344">
        <ele>378</ele>
        <time>2012-01-07T01:17:37Z</time>
        <course>240.401501259939</course>
        <speed>8.3150140993521</speed>
      </trkpt>
      <trkpt lat="43.89868" lon="5.79397">
        <ele>377</ele>
        <time>2012-01-07T01:17:44Z</time>
        <course>249.23695326599</course>
        <speed>7.20051887828395</speed>
      </trkpt>
      <trkpt lat="43.89851" lon="5.79442">
        <ele>377</ele>
        <time>2012-01-07T01:17:50Z</time>
        <course>256.781512202188</course>
        <speed>7.19419365672564</speed>
      </trkpt>
      <trkpt lat="43.8984" lon="5.79489">
        <ele>377</ele>
        <time>2012-01-07T01:17:55Z</time>
        <course>264.171486457702</course>
        <speed>7.19598120058779</speed>
      </trkpt>
      <trkpt lat="43.89834" lon="5.79548">
        <ele>378</ele>
        <time>2012-01-07T01:18:02Z</time>
        <course>272.733911023453</course>
        <speed>8.32165153319143</speed>
      </trkpt>
      <trkpt lat="43.89838" lon="5.79632">
        <ele>377</ele>
        <time>2012-01-07T01:18:10Z</time>
        <course>275.928302913247</course>
        <speed>8.31898473325074</speed>
      </trkpt>
      <trkpt lat="43.89894" lon="5.80172">
        <ele>371</ele>
        <time>2012-01-07T01:19:02Z</time>
        <course>269.997734019993</course>
        <speed>8.32227699604309</speed>
      </trkpt>
      <trkpt lat="43.89894" lon="5.80267">
        <ele>370</ele>
        <time>2012-01-07T01:19:11Z</time>
        <course>259.658124769249</course>
        <speed>8.32273182376893</speed>
      </trkpt>
      <trkpt lat="43.8988" lon="5.80344">
        <ele>370</ele>
        <time>2012-01-07T01:19:19Z</time>
        <course>250.883528672082</course>
        <speed>4.59826420056606</speed>
      </trkpt>
      <trkpt lat="43.89832" lon="5.80483">
        <ele>375</ele>
        <time>2012-01-07T01:19:46Z</time>
        <course>247.500984498309</course>
        <speed>8.31643228033739</speed>
      </trkpt>
      <trkpt lat="43.89806" lon="5.80546">
        <ele>373</ele>
        <time>2012-01-07T01:19:53Z</time>
        <course>242.015479166206</course>
        <speed>8.32064257117871</speed>
      </trkpt>
      <trkpt lat="43.89752" lon="5.80648">
        <ele>372</ele>
        <time>2012-01-07T01:20:05Z</time>
        <course>247.173680214379</course>
        <speed>8.31244652683128</speed>
      </trkpt>
      <trkpt lat="43.89726" lon="5.8071">
        <ele>370</ele>
        <time>2012-01-07T01:20:12Z</time>
        <course>258.232205536138</course>
        <speed>8.31696279496025</speed>
      </trkpt>
      <trkpt lat="43.89715" lon="5.80763">
        <ele>370</ele>
        <time>2012-01-07T01:20:17Z</time>
        <course>269.998172745098</course>
        <speed>8.31767369283897</speed>
      </trkpt>
      <trkpt lat="43.89715" lon="5.80838">
        <ele>370</ele>
        <time>2012-01-07T01:20:24Z</time>
        <course>280.922844365027</course>
        <speed>8.31938194961406</speed>
      </trkpt>
      <trkpt lat="43.89725" lon="5.8089">
        <ele>370</ele>
        <time>2012-01-07T01:20:30Z</time>
        <course>290.741596224469</course>
        <speed>8.31680173388223</speed>
      </trkpt>
      <trkpt lat="43.89745" lon="5.80943">
        <ele>369</ele>
        <time>2012-01-07T01:20:35Z</time>
        <course>304.053233349149</course>
        <speed>8.31317261042327</speed>
      </trkpt>
      <trkpt lat="43.89778" lon="5.80992">
        <ele>369</ele>
        <time>2012-01-07T01:20:42Z</time>
        <course>315.931462024992</course>
        <speed>6.03220685930411</speed>
      </trkpt>
      <trkpt lat="43.89813" lon="5.81026">
        <ele>369</ele>
        <time>2012-01-07T01:20:50Z</time>
        <course>335.734286095875</course>
        <speed>6.03038955829392</speed>
      </trkpt>
      <trkpt lat="43.89855" lon="5.81045">
        <ele>370</ele>
        <time>2012-01-07T01:20:58Z</time>
        <course>351.628887226136</course>
        <speed>6.03054001775079</speed>
      </trkpt>
      <trkpt lat="43.90004" lon="5.81067">
        <ele>374</ele>
        <time>2012-01-07T01:21:25Z</time>
        <course>332.77876653915</course>
        <speed>4.0835800099109</speed>
      </trkpt>
      <trkpt lat="43.90035" lon="5.81083">
        <ele>375</ele>
        <time>2012-01-07T01:21:34Z</time>
        <course>314.090150037354</course>
        <speed>4.08229706677942</speed>
      </trkpt>
      <trkpt lat="43.90063" lon="5.81112">
        <ele>377</ele>
        <time>2012-01-07T01:21:44Z</time>
        <course>303.055672499586</course>
        <speed>4.08404901913333</speed>
      </trkpt>
      <trkpt lat="43.90087" lon="5.81149">
        <ele>380</ele>
        <time>2012-01-07T01:21:54Z</time>
        <course>295.418772828684</course>
        <speed>8.31300314379214</speed>
      </trkpt>
      <trkpt lat="43.90105" lon="5.81187">
        <ele>377</ele>
        <time>2012-01-07T01:21:58Z</time>
        <course>288.490437930472</course>
        <speed>8.31380631048541</speed>
      </trkpt>
      <trkpt lat="43.90123" lon="5.81241">
        <ele>373</ele>
        <time>2012-01-07T01:22:04Z</time>
        <course>279.835840336431</course>
        <speed>8.31585189089832</speed>
      </trkpt>
      <trkpt lat="43.90137" lon="5.81322">
        <ele>369</ele>
        <time>2012-01-07T01:22:12Z</time>
        <course>271.572813570815</course>
        <speed>4.22312336327468</speed>
      </trkpt>
      <trkpt lat="43.90139" lon="5.81395">
        <ele>371</ele>
        <time>2012-01-07T01:22:26Z</time>
        <course>264.787332854464</course>
        <speed>4.22314991425726</speed>
      </trkpt>
      <trkpt lat="43.90134" lon="5.8145">
        <ele>374</ele>
        <time>2012-01-07T01:22:36Z</time>
        <course>256.607545466407</course>
        <speed>6.58736055013755</speed>
      </trkpt>
      <trkpt lat="43.9012" lon="5.81509">
        <ele>374</ele>
        <time>2012-01-07T01:22:44Z</time>
        <course>250.043826490965</course>
        <speed>6.58874353054905</speed>
      </trkpt>
      <trkpt lat="43.90048" lon="5.81708">
        <ele>377</ele>
        <time>2012-01-07T01:23:11Z</time>
        <course>240.016894954767</course>
        <speed>8.31126006956271</speed>
      </trkpt>
      <trkpt lat="43.90025" lon="5.81748">
        <ele>375</ele>
        <time>2012-01-07T01:23:16Z</time>
        <course>228.011550383028</course>
        <speed>8.31708640818491</speed>
      </trkpt>
      <trkpt lat="43.89938" lon="5.81845">
        <ele>372</ele>
        <time>2012-01-07T01:23:31Z</time>
        <course>243.354851534491</course>
        <speed>8.31191021346374</speed>
      </trkpt>
      <trkpt lat="43.89918" lon="5.81885">
        <ele>371</ele>
        <time>2012-01-07T01:23:35Z</time>
        <course>257.081016296686</course>
        <speed>8.32867920388819</speed>
      </trkpt>
      <trkpt lat="43.8991" lon="5.8192">
        <ele>371</ele>
        <time>2012-01-07T01:23:39Z</time>
        <course>269.999119150551</course>
        <speed>8.32176248247348</speed>
      </trkpt>
      <trkpt lat="43.8991" lon="5.81957">
        <ele>371</ele>
        <time>2012-01-07T01:23:42Z</time>
        <course>280.339302720681</course>
        <speed>8.33360683269064</speed>
      </trkpt>
      <trkpt lat="43.89914" lon="5.81979">
        <ele>371</ele>
        <time>2012-01-07T01:23:45Z</time>
        <course>287.550247838922</course>
        <speed>6.2185787113907</speed>
      </trkpt>
      <trkpt lat="43.89978" lon="5.82182">
        <ele>374</ele>
        <time>2012-01-07T01:24:13Z</time>
        <course>283.283280954567</course>
        <speed>8.32492901921965</speed>
      </trkpt>
      <trkpt lat="43.89986" lon="5.82216">
        <ele>373</ele>
        <time>2012-01-07T01:24:17Z</time>
        <course>276.731272332388</course>
        <speed>8.3250060331796</speed>
      </trkpt>
      <trkpt lat="43.89992" lon="5.82267">
        <ele>372</ele>
        <time>2012-01-07T01:24:22Z</time>
        <course>268.801318742681</course>
        <speed>8.32220401642118</speed>
      </trkpt>
      <trkpt lat="43.89991" lon="5.82315">
        <ele>372</ele>
        <time>2012-01-07T01:24:26Z</time>
        <course>261.724340130235</course>
        <speed>8.32396183180811</speed>
      </trkpt>
      <trkpt lat="43.89981" lon="5.82384">
        <ele>371</ele>
        <time>2012-01-07T01:24:33Z</time>
        <course>256.261113872114</course>
        <speed>8.3186517718868</speed>
      </trkpt>
      <trkpt lat="43.89943" lon="5.8254">
        <ele>370</ele>
        <time>2012-01-07T01:24:49Z</time>
        <course>251.179908081189</course>
        <speed>8.31805072734727</speed>
      </trkpt>
      <trkpt lat="43.89925" lon="5.82593">
        <ele>369</ele>
        <time>2012-01-07T01:24:54Z</time>
        <course>238.53776068207</course>
        <speed>8.31815944640038</speed>
      </trkpt>
      <trkpt lat="43.899" lon="5.82634">
        <ele>368</ele>
        <time>2012-01-07T01:25:00Z</time>
        <course>228.685610485866</course>
        <speed>8.31924280639669</speed>
      </trkpt>
      <trkpt lat="43.89752" lon="5.82803">
        <ele>365</ele>
        <time>2012-01-07T01:25:25Z</time>
        <course>243.018486552539</course>
        <speed>8.3208358978504</speed>
      </trkpt>
      <trkpt lat="43.89717" lon="5.82872">
        <ele>363</ele>
        <time>2012-01-07T01:25:33Z</time>
        <course>256.278976442209</course>
        <speed>8.31619757795744</speed>
      </trkpt>
      <trkpt lat="43.89699" lon="5.82946">
        <ele>362</ele>
        <time>2012-01-07T01:25:41Z</time>
        <course>263.031853900093</course>
        <speed>8.31862841209089</speed>
      </trkpt>
      <trkpt lat="43.89676" lon="5.83135">
        <ele>361</ele>
        <time>2012-01-07T01:25:59Z</time>
        <course>270.843950866651</course>
        <speed>8.31454818725287</speed>
      </trkpt>
      <trkpt lat="43.89677" lon="5.83203">
        <ele>360</ele>
        <time>2012-01-07T01:26:06Z</time>
        <course>285.671442766272</course>
        <speed>8.32030427542729</speed>
      </trkpt>
      <trkpt lat="43.89703" lon="5.83296">
        <ele>359</ele>
        <time>2012-01-07T01:26:15Z</time>
        <course>290.234236985253</course>
        <speed>6.38865221432965</speed>
      </trkpt>
      <trkpt lat="43.89757" lon="5.83443">
        <ele>361</ele>
        <time>2012-01-07T01:26:36Z</time>
        <course>285.694489328095</course>
        <speed>8.32397122964418</speed>
      </trkpt>
      <trkpt lat="43.89771" lon="5.83493">
        <ele>358</ele>
        <time>2012-01-07T01:26:41Z</time>
        <course>276.934974546402</course>
        <speed>8.32129242108348</speed>
      </trkpt>
      <trkpt lat="43.89775" lon="5.83526">
        <ele>357</ele>
        <time>2012-01-07T01:26:45Z</time>
        <course>268.661965284515</course>
        <speed>8.32084918159605</speed>
      </trkpt>
      <trkpt lat="43.89774" lon="5.83569">
        <ele>356</ele>
        <time>2012-01-07T01:26:49Z</time>
        <course>257.592701356944</course>
        <speed>8.32367999707882</speed>
      </trkpt>
      <trkpt lat="43.89758" lon="5.83642">
        <ele>354</ele>
        <time>2012-01-07T01:26:56Z</time>
        <course>241.001611465097</course>
        <speed>8.31370573561881</speed>
      </trkpt>
      <trkpt lat="43.89721" lon="5.83709">
        <ele>353</ele>
        <time>2012-01-07T01:27:04Z</time>
        <course>219.324525371745</course>
        <speed>5.74325021743322</speed>
      </trkpt>
      <trkpt lat="43.89676" lon="5.83746">
        <ele>354</ele>
        <time>2012-01-07T01:27:14Z</time>
        <course>200.966833599313</course>
        <speed>5.74334793928404</speed>
      </trkpt>
      <trkpt lat="43.8965" lon="5.83756">
        <ele>354</ele>
        <time>2012-01-07T01:27:20Z</time>
        <course>184.598804480453</course>
        <speed>5.74377518127828</speed>
      </trkpt>
      <trkpt lat="43.89489" lon="5.83769">
        <ele>359</ele>
        <time>2012-01-07T01:27:51Z</time>
        <course>200.96395469139</course>
        <speed>5.41161391152815</speed>
      </trkpt>
      <trkpt lat="43.89476" lon="5.83774">
        <ele>359</ele>
        <time>2012-01-07T01:27:53Z</time>
        <course>217.298283573747</course>
        <speed>5.40569535893374</speed>
      </trkpt>
      <trkpt lat="43.89442" lon="5.838">
        <ele>360</ele>
        <time>2012-01-07T01:28:01Z</time>
        <course>238.292285303155</course>
        <speed>5.40355243257517</speed>
      </trkpt>
      <trkpt lat="43.89418" lon="5.83839">
        <ele>361</ele>
        <time>2012-01-07T01:28:09Z</time>
        <course>249.169315599333</course>
        <speed>5.4055838711756</speed>
      </trkpt>
      <trkpt lat="43.89382" lon="5.83934">
        <ele>364</ele>
        <time>2012-01-07T01:28:25Z</time>
        <course>242.652136519918</course>
        <speed>8.32892658311324</speed>
      </trkpt>
      <trkpt lat="43.89365" lon="5.83967">
        <ele>363</ele>
        <time>2012-01-07T01:28:29Z</time>
        <course>234.658043803117</course>
        <speed>8.31917379423076</speed>
      </trkpt>
      <trkpt lat="43.89132" lon="5.84297">
        <ele>352</ele>
        <time>2012-01-07T01:29:13Z</time>
        <course>225.538138613226</course>
        <speed>8.31487991606441</speed>
      </trkpt>
      <trkpt lat="43.89089" lon="5.84341">
        <ele>350</ele>
        <time>2012-01-07T01:29:20Z</time>
        <course>213.181713800353</course>
        <speed>8.31994144095465</speed>
      </trkpt>
      <trkpt lat="43.89022" lon="5.84385">
        <ele>349</ele>
        <time>2012-01-07T01:29:30Z</time>
        <course>197.512574757467</course>
        <speed>8.31895928548911</speed>
      </trkpt>
      <trkpt lat="43.88593" lon="5.84521">
        <ele>341</ele>
        <time>2012-01-07T01:30:29Z</time>
        <course>192.595136495163</course>
        <speed>8.02865623880457</speed>
      </trkpt>
      <trkpt lat="43.88544" lon="5.84532">
        <ele>341</ele>
        <time>2012-01-07T01:30:36Z</time>
        <course>185.235514418064</course>
        <speed>8.03389502481864</speed>
      </trkpt>
      <trkpt lat="43.88088" lon="5.84574">
        <ele>342</ele>
        <time>2012-01-07T01:31:39Z</time>
        <course>169.014864245329</course>
        <speed>4.98456895456852</speed>
      </trkpt>
      <trkpt lat="43.88047" lon="5.84566">
        <ele>343</ele>
        <time>2012-01-07T01:31:48Z</time>
        <course>146.923707423423</course>
        <speed>4.98376422734164</speed>
      </trkpt>
      <trkpt lat="43.87963" lon="5.84511">
        <ele>347</ele>
        <time>2012-01-07T01:32:09Z</time>
        <course>170.185361597434</course>
        <speed>8.30891162442464</speed>
      </trkpt>
      <trkpt lat="43.8794" lon="5.84507">
        <ele>346</ele>
        <time>2012-01-07T01:32:12Z</time>
        <course>205.228336686095</course>
        <speed>8.32444305584676</speed>
      </trkpt>
      <trkpt lat="43.87921" lon="5.84516">
        <ele>345</ele>
        <time>2012-01-07T01:32:15Z</time>
        <course>224.846801210029</course>
        <speed>8.33326303975536</speed>
      </trkpt>
      <trkpt lat="43.87905" lon="5.84532">
        <ele>345</ele>
        <time>2012-01-07T01:32:18Z</time>
        <course>241.653512762093</course>
        <speed>8.32105191889204</speed>
      </trkpt>
      <trkpt lat="43.87883" lon="5.84573">
        <ele>344</ele>
        <time>2012-01-07T01:32:22Z</time>
        <course>139.977520246226</course>
        <speed>2.83664508687634</speed>
      </trkpt>
      <trkpt lat="43.87748" lon="5.84459">
        <ele>361</ele>
        <time>2012-01-07T01:33:24Z</time>
        <course>147.033542702485</course>
        <speed>5.84696169364638</speed>
      </trkpt>
      <trkpt lat="43.87725" lon="5.84444">
        <ele>361</ele>
        <time>2012-01-07T01:33:29Z</time>
        <course>155.126389999113</course>
        <speed>5.85323308667672</speed>
      </trkpt>
      <trkpt lat="43.87547" lon="5.84361">
        <ele>366</ele>
        <time>2012-01-07T01:34:05Z</time>
        <course>144.037859992211</course>
        <speed>8.32539252468675</speed>
      </trkpt>
      <trkpt lat="43.8751" lon="5.84334">
        <ele>365</ele>
        <time>2012-01-07T01:34:10Z</time>
        <course>155.978069197718</course>
        <speed>8.32076082309291</speed>
      </trkpt>
      <trkpt lat="43.87481" lon="5.84321">
        <ele>364</ele>
        <time>2012-01-07T01:34:15Z</time>
        <course>183.404814131797</course>
        <speed>8.31905368637404</speed>
      </trkpt>
      <trkpt lat="43.87197" lon="5.84338">
        <ele>360</ele>
        <time>2012-01-07T01:34:53Z</time>
        <course>175.9833154362</course>
        <speed>8.31908750148488</speed>
      </trkpt>
      <trkpt lat="43.86914" lon="5.84318">
        <ele>355</ele>
        <time>2012-01-07T01:35:30Z</time>
        <course>167.086832791621</course>
        <speed>8.32054037200578</speed>
      </trkpt>
      <trkpt lat="43.86836" lon="5.843">
        <ele>355</ele>
        <time>2012-01-07T01:35:41Z</time>
        <course>161.37294304379</course>
        <speed>8.31970333325822</speed>
      </trkpt>
      <trkpt lat="43.8678" lon="5.84281">
        <ele>355</ele>
        <time>2012-01-07T01:35:49Z</time>
        <course>150.927452374666</course>
        <speed>6.87815633668843</speed>
      </trkpt>
      <trkpt lat="43.86621" lon="5.84192">
        <ele>357</ele>
        <time>2012-01-07T01:36:16Z</time>
        <course>138.129969202634</course>
        <speed>7.18009718095569</speed>
      </trkpt>
      <trkpt lat="43.8658" lon="5.84155">
        <ele>357</ele>
        <time>2012-01-07T01:36:24Z</time>
        <course>128.852824462547</course>
        <speed>7.18015819502762</speed>
      </trkpt>
      <trkpt lat="43.86532" lon="5.84095">
        <ele>358</ele>
        <time>2012-01-07T01:36:34Z</time>
        <course>127.501463819932</course>
        <speed>8.31884341674138</speed>
      </trkpt>
      <trkpt lat="43.86305" lon="5.83797">
        <ele>355</ele>
        <time>2012-01-07T01:37:16Z</time>
        <course>139.221341388347</course>
        <speed>8.31916312054637</speed>
      </trkpt>
      <trkpt lat="43.85984" lon="5.83518">
        <ele>347</ele>
        <time>2012-01-07T01:38:06Z</time>
        <course>132.926768875705</course>
        <speed>7.88824724480955</speed>
      </trkpt>
      <trkpt lat="43.85936" lon="5.83466">
        <ele>347</ele>
        <time>2012-01-07T01:38:15Z</time>
        <course>127.494834027453</course>
        <speed>7.88359343803828</speed>
      </trkpt>
      <trkpt lat="43.85507" lon="5.82902">
        <ele>349</ele>
        <time>2012-01-07T01:39:38Z</time>
        <course>126.550680480651</course>
        <speed>8.31397479384119</speed>
      </trkpt>
      <trkpt lat="43.85482" lon="5.82868">
        <ele>348</ele>
        <time>2012-01-07T01:39:43Z</time>
        <course>109.506947763199</course>
        <speed>8.32817179263767</speed>
      </trkpt>
      <trkpt lat="43.85469" lon="5.82831">
        <ele>348</ele>
        <time>2012-01-07T01:39:47Z</time>
        <course>118.267823836548</course>
        <speed>8.30529213132751</speed>
      </trkpt>
      <trkpt lat="43.85461" lon="5.82816">
        <ele>348</ele>
        <time>2012-01-07T01:39:49Z</time>
        <course>199.832883248605</course>
        <speed>8.31344693471788</speed>
      </trkpt>
      <trkpt lat="43.8545" lon="5.8282">
        <ele>348</ele>
        <time>2012-01-07T01:39:50Z</time>
        <course>252.583181603159</course>
        <speed>8.32007907543596</speed>
      </trkpt>
      <trkpt lat="43.85436" lon="5.82865">
        <ele>347</ele>
        <time>2012-01-07T01:39:55Z</time>
        <course>198.707891668997</course>
        <speed>8.31915058938874</speed>
      </trkpt>
      <trkpt lat="43.85354" lon="5.82893">
        <ele>347</ele>
        <time>2012-01-07T01:40:06Z</time>
        <course>203.646466610439</course>
        <speed>8.32207809930427</speed>
      </trkpt>
      <trkpt lat="43.85277" lon="5.82927">
        <ele>343</ele>
        <time>2012-01-07T01:40:17Z</time>
        <course>227.536300705963</course>
        <speed>8.31924690898401</speed>
      </trkpt>
      <trkpt lat="43.85228" lon="5.82981">
        <ele>341</ele>
        <time>2012-01-07T01:40:25Z</time>
        <course>234.024309868667</course>
        <speed>8.31938602760592</speed>
      </trkpt>
      <trkpt lat="43.85151" lon="5.83088">
        <ele>338</ele>
        <time>2012-01-07T01:40:40Z</time>
        <course>221.22176029727</course>
        <speed>8.32007030393004</speed>
      </trkpt>
      <trkpt lat="43.85108" lon="5.83126">
        <ele>337</ele>
        <time>2012-01-07T01:40:47Z</time>
        <course>229.488073171287</course>
        <speed>8.31964695791792</speed>
      </trkpt>
      <trkpt lat="43.85025" lon="5.83224">
        <ele>337</ele>
        <time>2012-01-07T01:41:01Z</time>
        <course>210.742603561149</course>
        <speed>8.33092222792319</speed>
      </trkpt>
      <trkpt lat="43.8501" lon="5.83233">
        <ele>335</ele>
        <time>2012-01-07T01:41:03Z</time>
        <course>190.401570477893</course>
        <speed>8.31559421229151</speed>
      </trkpt>
      <trkpt lat="43.84983" lon="5.83238">
        <ele>333</ele>
        <time>2012-01-07T01:41:07Z</time>
        <course>172.370950764887</course>
        <speed>8.31170553391634</speed>
      </trkpt>
      <trkpt lat="43.84946" lon="5.83233">
        <ele>331</ele>
        <time>2012-01-07T01:41:12Z</time>
        <course>164.188905636561</course>
        <speed>8.31602235974006</speed>
      </trkpt>
      <trkpt lat="43.84904" lon="5.83221">
        <ele>328</ele>
        <time>2012-01-07T01:41:18Z</time>
        <course>158.376808874738</course>
        <speed>8.3202176727187</speed>
      </trkpt>
      <trkpt lat="43.84804" lon="5.83181">
        <ele>322</ele>
        <time>2012-01-07T01:41:32Z</time>
        <course>174.04498389506</course>
        <speed>8.3196653345232</speed>
      </trkpt>
      <trkpt lat="43.84766" lon="5.83177">
        <ele>320</ele>
        <time>2012-01-07T01:41:37Z</time>
        <course>203.01016048479</course>
        <speed>8.30761457886072</speed>
      </trkpt>
      <trkpt lat="43.84752" lon="5.83183">
        <ele>319</ele>
        <time>2012-01-07T01:41:39Z</time>
        <course>226.755962781279</course>
        <speed>8.31922089478458</speed>
      </trkpt>
      <trkpt lat="43.8467" lon="5.83271">
        <ele>314</ele>
        <time>2012-01-07T01:41:52Z</time>
        <course>218.490151777605</course>
        <speed>8.31880508842644</speed>
      </trkpt>
      <trkpt lat="43.84594" lon="5.83332">
        <ele>311</ele>
        <time>2012-01-07T01:42:04Z</time>
        <course>212.660545089169</course>
        <speed>8.32179291375974</speed>
      </trkpt>
      <trkpt lat="43.8456" lon="5.83354">
        <ele>311</ele>
        <time>2012-01-07T01:42:09Z</time>
        <course>198.273785557822</course>
        <speed>8.31730473464019</speed>
      </trkpt>
      <trkpt lat="43.84533" lon="5.83363">
        <ele>310</ele>
        <time>2012-01-07T01:42:13Z</time>
        <course>156.055998776927</course>
        <speed>8.32115382182638</speed>
      </trkpt>
      <trkpt lat="43.84504" lon="5.8335">
        <ele>310</ele>
        <time>2012-01-07T01:42:17Z</time>
        <course>135.806387217777</course>
        <speed>8.31830509601163</speed>
      </trkpt>
      <trkpt lat="43.83928" lon="5.82784">
        <ele>309</ele>
        <time>2012-01-07T01:43:51Z</time>
        <course>139.437379656814</course>
        <speed>6.08008617786177</speed>
      </trkpt>
      <trkpt lat="43.83891" lon="5.82752">
        <ele>309</ele>
        <time>2012-01-07T01:43:59Z</time>
        <course>147.125254286552</course>
        <speed>6.08565719052867</speed>
      </trkpt>
      <trkpt lat="43.83842" lon="5.8272">
        <ele>311</ele>
        <time>2012-01-07T01:44:09Z</time>
        <course>153.211157353421</course>
        <speed>7.70501927233018</speed>
      </trkpt>
      <trkpt lat="43.83793" lon="5.82695">
        <ele>311</ele>
        <time>2012-01-07T01:44:17Z</time>
        <course>167.985350728169</course>
        <speed>7.70571879672436</speed>
      </trkpt>
      <trkpt lat="43.83621" lon="5.82658">
        <ele>312</ele>
        <time>2012-01-07T01:44:42Z</time>
        <course>146.171343675648</course>
        <speed>8.31664257699022</speed>
      </trkpt>
      <trkpt lat="43.8359" lon="5.82637">
        <ele>312</ele>
        <time>2012-01-07T01:44:46Z</time>
        <course>107.277291296724</course>
        <speed>8.32970336375772</speed>
      </trkpt>
      <trkpt lat="43.83586" lon="5.82624">
        <ele>312</ele>
        <time>2012-01-07T01:44:48Z</time>
        <course>206.318859995205</course>
        <speed>8.31875174058746</speed>
      </trkpt>
      <trkpt lat="43.83576" lon="5.82629">
        <ele>312</ele>
        <time>2012-01-07T01:44:49Z</time>
        <course>286.108592641685</course>
        <speed>8.32398377053825</speed>
      </trkpt>
      <trkpt lat="43.8358" lon="5.82643">
        <ele>312</ele>
        <time>2012-01-07T01:44:51Z</time>
        <course>256.620497698327</course>
        <speed>8.33301612901566</speed>
      </trkpt>
      <trkpt lat="43.83576" lon="5.8266">
        <ele>312</ele>
        <time>2012-01-07T01:44:52Z</time>
        <course>265.86615289262</course>
        <speed>8.31771635806661</speed>
      </trkpt>
      <trkpt lat="43.83569" lon="5.82758">
        <ele>312</ele>
        <time>2012-01-07T01:45:02Z</time>
        <course>173.934153205365</course>
        <speed>8.31945528892311</speed>
      </trkpt>
      <trkpt lat="43.83448" lon="5.82745">
        <ele>312</ele>
        <time>2012-01-07T01:45:18Z</time>
        <course>167.894855399796</course>
        <speed>8.32008246838534</speed>
      </trkpt>
      <trkpt lat="43.83365" lon="5.82727">
        <ele>311</ele>
        <time>2012-01-07T01:45:29Z</time>
        <course>159.228897951713</course>
        <speed>8.31673068934021</speed>
      </trkpt>
      <trkpt lat="43.83292" lon="5.82699">
        <ele>311</ele>
        <time>2012-01-07T01:45:39Z</time>
        <course>136.830122886084</course>
        <speed>6.96470064552012</speed>
      </trkpt>
      <trkpt lat="43.83253" lon="5.82662">
        <ele>311</ele>
        <time>2012-01-07T01:45:47Z</time>
        <course>127.818641565685</course>
        <speed>6.97037131481074</speed>
      </trkpt>
      <trkpt lat="43.8322" lon="5.82619">
        <ele>312</ele>
        <time>2012-01-07T01:45:54Z</time>
        <course>134.139603654126</course>
        <speed>8.31753901111323</speed>
      </trkpt>
      <trkpt lat="43.83079" lon="5.82472">
        <ele>310</ele>
        <time>2012-01-07T01:46:18Z</time>
        <course>132.265786640368</course>
        <speed>8.31886951596625</speed>
      </trkpt>
      <trkpt lat="43.82763" lon="5.8212">
        <ele>307</ele>
        <time>2012-01-07T01:47:12Z</time>
        <course>143.675189823086</course>
        <speed>8.31784894914892</speed>
      </trkpt>
      <trkpt lat="43.8272" lon="5.82088">
        <ele>307</ele>
        <time>2012-01-07T01:47:18Z</time>
        <course>134.014893695175</course>
        <speed>8.30972184204174</speed>
      </trkpt>
      <trkpt lat="43.82699" lon="5.82066">
        <ele>307</ele>
        <time>2012-01-07T01:47:22Z</time>
        <course>198.227480710223</course>
        <speed>8.31184495480336</speed>
      </trkpt>
      <trkpt lat="43.82687" lon="5.8207">
        <ele>307</ele>
        <time>2012-01-07T01:47:24Z</time>
        <course>167.15706177075</course>
        <speed>8.32069806889525</speed>
      </trkpt>
      <trkpt lat="43.82674" lon="5.82067">
        <ele>307</ele>
        <time>2012-01-07T01:47:25Z</time>
        <course>148.734161240053</course>
        <speed>8.31751750980097</speed>
      </trkpt>
      <trkpt lat="43.82552" lon="5.81992">
        <ele>304</ele>
        <time>2012-01-07T01:47:43Z</time>
        <course>132.113615125144</course>
        <speed>6.9893341005275</speed>
      </trkpt>
      <trkpt lat="43.82527" lon="5.81964">
        <ele>304</ele>
        <time>2012-01-07T01:47:48Z</time>
        <course>125.701639885503</course>
        <speed>6.99308926976167</speed>
      </trkpt>
      <trkpt lat="43.82483" lon="5.81902">
        <ele>305</ele>
        <time>2012-01-07T01:47:58Z</time>
        <course>141.20732116432</course>
        <speed>8.3199933274403</speed>
      </trkpt>
      <trkpt lat="43.8244" lon="5.81867">
        <ele>304</ele>
        <time>2012-01-07T01:48:05Z</time>
        <course>147.590860800883</course>
        <speed>8.32455218221441</speed>
      </trkpt>
      <trkpt lat="43.82426" lon="5.81858">
        <ele>304</ele>
        <time>2012-01-07T01:48:07Z</time>
        <course>162.151522516961</course>
        <speed>8.32182513413399</speed>
      </trkpt>
      <trkpt lat="43.8238" lon="5.81843">
        <ele>304</ele>
        <time>2012-01-07T01:48:13Z</time>
        <course>146.238431418132</course>
        <speed>8.31976122731577</speed>
      </trkpt>
      <trkpt lat="43.82284" lon="5.81778">
        <ele>303</ele>
        <time>2012-01-07T01:48:28Z</time>
        <course>139.832373520788</course>
        <speed>8.31852300977893</speed>
      </trkpt>
      <trkpt lat="43.82215" lon="5.81719">
        <ele>302</ele>
        <time>2012-01-07T01:48:38Z</time>
        <course>143.953223033108</course>
        <speed>8.31831848117969</speed>
      </trkpt>
      <trkpt lat="43.82116" lon="5.81646">
        <ele>302</ele>
        <time>2012-01-07T01:48:53Z</time>
        <course>152.015145846879</course>
        <speed>7.2758172060585</speed>
      </trkpt>
      <trkpt lat="43.81999" lon="5.81583">
        <ele>303</ele>
        <time>2012-01-07T01:49:13Z</time>
        <course>143.18130266779</course>
        <speed>7.02415282920851</speed>
      </trkpt>
      <trkpt lat="43.8197" lon="5.81561">
        <ele>303</ele>
        <time>2012-01-07T01:49:18Z</time>
        <course>131.638273800134</course>
        <speed>7.02543349688085</speed>
      </trkpt>
      <trkpt lat="43.8192" lon="5.81504">
        <ele>304</ele>
        <time>2012-01-07T01:49:28Z</time>
        <course>138.902211949763</course>
        <speed>8.32014325467028</speed>
      </trkpt>
      <trkpt lat="43.81825" lon="5.8142">
        <ele>303</ele>
        <time>2012-01-07T01:49:43Z</time>
        <course>120.645705842825</course>
        <speed>8.31907041493989</speed>
      </trkpt>
      <trkpt lat="43.8178" lon="5.81343">
        <ele>301</ele>
        <time>2012-01-07T01:49:53Z</time>
        <course>127.613869315961</course>
        <speed>8.31784828850401</speed>
      </trkpt>
      <trkpt lat="43.81742" lon="5.81293">
        <ele>301</ele>
        <time>2012-01-07T01:50:00Z</time>
        <course>110.818389302637</course>
        <speed>8.31964058239403</speed>
      </trkpt>
      <trkpt lat="43.81715" lon="5.81221">
        <ele>301</ele>
        <time>2012-01-07T01:50:07Z</time>
        <course>104.398588656825</course>
        <speed>8.31810726870435</speed>
      </trkpt>
      <trkpt lat="43.81695" lon="5.81142">
        <ele>301</ele>
        <time>2012-01-07T01:50:15Z</time>
        <course>111.749482970934</course>
        <speed>8.31459530992364</speed>
      </trkpt>
      <trkpt lat="43.81671" lon="5.81081">
        <ele>300</ele>
        <time>2012-01-07T01:50:22Z</time>
        <course>107.329143091648</course>
        <speed>8.319743904839</speed>
      </trkpt>
      <trkpt lat="43.81651" lon="5.81016">
        <ele>300</ele>
        <time>2012-01-07T01:50:29Z</time>
        <course>97.230330688859</course>
        <speed>8.31800672719186</speed>
      </trkpt>
      <trkpt lat="43.81632" lon="5.80864">
        <ele>299</ele>
        <time>2012-01-07T01:50:44Z</time>
        <course>88.8634639462863</course>
        <speed>8.31441781944993</speed>
      </trkpt>
      <trkpt lat="43.81633" lon="5.80813">
        <ele>299</ele>
        <time>2012-01-07T01:50:49Z</time>
        <course>96.8065310390904</course>
        <speed>8.31964496488077</speed>
      </trkpt>
      <trkpt lat="43.81623" lon="5.80728">
        <ele>299</ele>
        <time>2012-01-07T01:50:57Z</time>
        <course>88.7663541689175</course>
        <speed>7.22242785933056</speed>
      </trkpt>
      <trkpt lat="43.81624" lon="5.80681">
        <ele>299</ele>
        <time>2012-01-07T01:51:02Z</time>
        <course>101.466485418666</course>
        <speed>7.22459569081796</speed>
      </trkpt>
      <trkpt lat="43.81612" lon="5.80621">
        <ele>299</ele>
        <time>2012-01-07T01:51:09Z</time>
        <course>130.199339242682</course>
        <speed>7.22888948059961</speed>
      </trkpt>
      <trkpt lat="43.81582" lon="5.80585">
        <ele>300</ele>
        <time>2012-01-07T01:51:15Z</time>
        <course>140.520144937072</course>
        <speed>6.96345124092066</speed>
      </trkpt>
      <trkpt lat="43.81503" lon="5.80519">
        <ele>301</ele>
        <time>2012-01-07T01:51:30Z</time>
        <course>132.262216887524</course>
        <speed>6.27667362958936</speed>
      </trkpt>
      <trkpt lat="43.81417" lon="5.80423">
        <ele>303</ele>
        <time>2012-01-07T01:51:50Z</time>
        <course>127.027038147388</course>
        <speed>8.31549615101216</speed>
      </trkpt>
      <trkpt lat="43.81388" lon="5.80384">
        <ele>302</ele>
        <time>2012-01-07T01:51:55Z</time>
        <course>54.6241287915043</course>
        <speed>8.33676444225833</speed>
      </trkpt>
      <trkpt lat="43.81395" lon="5.80374">
        <ele>302</ele>
        <time>2012-01-07T01:51:56Z</time>
        <course>90.0005280046813</course>
        <speed>8.32090521097306</speed>
      </trkpt>
      <trkpt lat="43.81395" lon="5.80363">
        <ele>302</ele>
        <time>2012-01-07T01:51:57Z</time>
        <course>124.068165000186</course>
        <speed>8.32621818556356</speed>
      </trkpt>
      <trkpt lat="43.81389" lon="5.80354">
        <ele>302</ele>
        <time>2012-01-07T01:51:59Z</time>
        <course>247.614251825102</course>
        <speed>8.31878748040766</speed>
      </trkpt>
      <trkpt lat="43.81348" lon="5.80455">
        <ele>301</ele>
        <time>2012-01-07T01:52:10Z</time>
        <course>249.758624206505</course>
        <speed>8.31890628782711</speed>
      </trkpt>
      <trkpt lat="43.81218" lon="5.80813">
        <ele>299</ele>
        <time>2012-01-07T01:52:48Z</time>
        <course>243.786942593341</course>
        <speed>8.31694834679005</speed>
      </trkpt>
      <trkpt lat="43.81137" lon="5.8098">
        <ele>296</ele>
        <time>2012-01-07T01:53:08Z</time>
        <course>242.053384031911</course>
        <speed>8.31750881049888</speed>
      </trkpt>
      <trkpt lat="43.81056" lon="5.81135">
        <ele>295</ele>
        <time>2012-01-07T01:53:26Z</time>
        <course>221.639505137113</course>
        <speed>8.3132147596222</speed>
      </trkpt>
      <trkpt lat="43.81015" lon="5.81172">
        <ele>294</ele>
        <time>2012-01-07T01:53:33Z</time>
        <course>201.508056762857</course>
        <speed>8.32063011366961</speed>
      </trkpt>
      <trkpt lat="43.80995" lon="5.8118">
        <ele>294</ele>
        <time>2012-01-07T01:53:36Z</time>
        <course>168.853784356616</course>
        <speed>8.31639891675742</speed>
      </trkpt>
      <trkpt lat="43.80975" lon="5.81176">
        <ele>294</ele>
        <time>2012-01-07T01:53:38Z</time>
        <course>222.596665060593</course>
        <speed>8.30419841972911</speed>
      </trkpt>
      <trkpt lat="43.8096" lon="5.8119">
        <ele>294</ele>
        <time>2012-01-07T01:53:41Z</time>
        <course>258.522765694462</course>
        <speed>8.32118000253104</speed>
      </trkpt>
      <trkpt lat="43.80956" lon="5.8121">
        <ele>294</ele>
        <time>2012-01-07T01:53:43Z</time>
        <course>278.87554501492</course>
        <speed>8.32722811510394</speed>
      </trkpt>
      <trkpt lat="43.80958" lon="5.81223">
        <ele>294</ele>
        <time>2012-01-07T01:53:44Z</time>
        <course>296.909434501171</course>
        <speed>8.30265203439664</speed>
      </trkpt>
      <trkpt lat="43.80964" lon="5.81235">
        <ele>294</ele>
        <time>2012-01-07T01:53:45Z</time>
        <course>324.379283573118</course>
        <speed>8.31587970704233</speed>
      </trkpt>
      <trkpt lat="43.80975" lon="5.81243">
        <ele>294</ele>
        <time>2012-01-07T01:53:47Z</time>
        <course>261.746917435599</course>
        <speed>8.31306034224965</speed>
      </trkpt>
      <trkpt lat="43.80969" lon="5.81285">
        <ele>294</ele>
        <time>2012-01-07T01:53:51Z</time>
        <course>243.219031191884</course>
        <speed>8.31732098269812</speed>
      </trkpt>
      <trkpt lat="43.80886" lon="5.81452">
        <ele>294</ele>
        <time>2012-01-07T01:54:11Z</time>
        <course>240.481072972008</course>
        <speed>8.31675638782985</speed>
      </trkpt>
      <trkpt lat="43.80789" lon="5.81626">
        <ele>294</ele>
        <time>2012-01-07T01:54:32Z</time>
        <course>245.214784690029</course>
        <speed>8.31783792683904</speed>
      </trkpt>
      <trkpt lat="43.80714" lon="5.81791">
        <ele>293</ele>
        <time>2012-01-07T01:54:51Z</time>
        <course>248.759669202176</course>
        <speed>6.98198702330405</speed>
      </trkpt>
      <trkpt lat="43.8067" lon="5.81906">
        <ele>294</ele>
        <time>2012-01-07T01:55:06Z</time>
        <course>236.858685104107</course>
        <speed>8.30683103326492</speed>
      </trkpt>
      <trkpt lat="43.80661" lon="5.8192">
        <ele>294</ele>
        <time>2012-01-07T01:55:07Z</time>
        <course>191.140025721463</course>
        <speed>8.31640826503712</speed>
      </trkpt>
      <trkpt lat="43.80651" lon="5.81922">
        <ele>294</ele>
        <time>2012-01-07T01:55:09Z</time>
        <course>228.958007966141</course>
        <speed>8.30065889483584</speed>
      </trkpt>
      <trkpt lat="43.80645" lon="5.81929">
        <ele>294</ele>
        <time>2012-01-07T01:55:10Z</time>
        <course>255.751944804054</course>
        <speed>8.3306745118233</speed>
      </trkpt>
      <trkpt lat="43.80641" lon="5.81945">
        <ele>294</ele>
        <time>2012-01-07T01:55:11Z</time>
        <course>282.068537833509</course>
        <speed>8.30985012772635</speed>
      </trkpt>
      <trkpt lat="43.80645" lon="5.81964">
        <ele>294</ele>
        <time>2012-01-07T01:55:13Z</time>
        <course>258.876999334009</course>
        <speed>8.32960001908056</speed>
      </trkpt>
      <trkpt lat="43.80639" lon="5.81995">
        <ele>294</ele>
        <time>2012-01-07T01:55:16Z</time>
        <course>249.867672663643</course>
        <speed>8.32235347095244</speed>
      </trkpt>
      <trkpt lat="43.80604" lon="5.82092">
        <ele>294</ele>
        <time>2012-01-07T01:55:27Z</time>
        <course>246.549142755205</course>
        <speed>8.31776712227093</speed>
      </trkpt>
      <trkpt lat="43.80566" lon="5.82181">
        <ele>293</ele>
        <time>2012-01-07T01:55:37Z</time>
        <course>245.235438116825</course>
        <speed>8.31838063023029</speed>
      </trkpt>
      <trkpt lat="43.80356" lon="5.82644">
        <ele>293</ele>
        <time>2012-01-07T01:56:30Z</time>
        <course>245.766593799833</course>
        <speed>8.03308096986287</speed>
      </trkpt>
      <trkpt lat="43.80092" lon="5.83241">
        <ele>294</ele>
        <time>2012-01-07T01:57:40Z</time>
        <course>243.94800077201</course>
        <speed>8.32388748908323</speed>
      </trkpt>
      <trkpt lat="43.80067" lon="5.83293">
        <ele>293</ele>
        <time>2012-01-07T01:57:46Z</time>
        <course>224.52284615182</course>
        <speed>8.32484580024807</speed>
      </trkpt>
      <trkpt lat="43.80041" lon="5.83319">
        <ele>293</ele>
        <time>2012-01-07T01:57:50Z</time>
        <course>180</course>
        <speed>8.30803738360807</speed>
      </trkpt>
      <trkpt lat="43.80033" lon="5.83319">
        <ele>293</ele>
        <time>2012-01-07T01:57:51Z</time>
        <course>235.867675356367</course>
        <speed>8.32724260714821</speed>
      </trkpt>
      <trkpt lat="43.80027" lon="5.83328">
        <ele>293</ele>
        <time>2012-01-07T01:57:52Z</time>
        <course>262.755709979581</course>
        <speed>6.08564896898553</speed>
      </trkpt>
      <trkpt lat="43.80025" lon="5.83344">
        <ele>293</ele>
        <time>2012-01-07T01:57:54Z</time>
        <course>300.157418876985</course>
        <speed>6.06832491101745</speed>
      </trkpt>
      <trkpt lat="43.80029" lon="5.83351">
        <ele>293</ele>
        <time>2012-01-07T01:57:55Z</time>
        <course>257.572625707445</course>
        <speed>6.07527062647943</speed>
      </trkpt>
      <trkpt lat="43.80016" lon="5.83411">
        <ele>294</ele>
        <time>2012-01-07T01:58:04Z</time>
        <course>249.307965123875</course>
        <speed>6.0739971620395</speed>
      </trkpt>
      <trkpt lat="43.79845" lon="5.83872">
        <ele>302</ele>
        <time>2012-01-07T01:59:12Z</time>
        <course>254.789392232482</course>
        <speed>2.65045680792225</speed>
      </trkpt>
      <trkpt lat="43.7981" lon="5.84003">
        <ele>314</ele>
        <time>2012-01-07T01:59:54Z</time>
        <course>262.384591503836</course>
        <speed>4.50965437046915</speed>
      </trkpt>
      <trkpt lat="43.79753" lon="5.84438">
        <ele>329</ele>
        <time>2012-01-07T02:01:13Z</time>
        <course>264.459350188274</course>
        <speed>4.66520436699513</speed>
      </trkpt>
      <trkpt lat="43.79741" lon="5.84564">
        <ele>333</ele>
        <time>2012-01-07T02:01:35Z</time>
        <course>269.994364842085</course>
        <speed>4.24220742802451</speed>
      </trkpt>
      <trkpt lat="43.79741" lon="5.84671">
        <ele>337</ele>
        <time>2012-01-07T02:01:55Z</time>
        <course>276.443924166258</course>
        <speed>4.24174471600217</speed>
      </trkpt>
      <trkpt lat="43.79752" lon="5.8477">
        <ele>341</ele>
        <time>2012-01-07T02:02:14Z</time>
        <course>283.833835313572</course>
        <speed>4.78725114231641</speed>
      </trkpt>
      <trkpt lat="43.79783" lon="5.84898">
        <ele>345</ele>
        <time>2012-01-07T02:02:37Z</time>
        <course>288.277276896282</course>
        <speed>5.52564116361487</speed>
      </trkpt>
      <trkpt lat="43.79929" lon="5.85347">
        <ele>355</ele>
        <time>2012-01-07T02:03:48Z</time>
        <course>294.717310961024</course>
        <speed>3.79198747691147</speed>
      </trkpt>
      <trkpt lat="43.80001" lon="5.85506">
        <ele>364</ele>
        <time>2012-01-07T02:04:28Z</time>
        <course>298.080174937037</course>
        <speed>5.92501578085193</speed>
      </trkpt>
      <trkpt lat="43.80158" lon="5.85805">
        <ele>370</ele>
        <time>2012-01-07T02:05:18Z</time>
        <course>297.120142653604</course>
        <speed>5.66722796702394</speed>
      </trkpt>
      <trkpt lat="43.80334" lon="5.86154">
        <ele>378</ele>
        <time>2012-01-07T02:06:18Z</time>
        <course>290.225590256391</course>
        <speed>4.30764164087512</speed>
      </trkpt>
      <trkpt lat="43.80412" lon="5.86369">
        <ele>387</ele>
        <time>2012-01-07T02:07:03Z</time>
        <course>293.009109868839</course>
        <speed>6.67690684778414</speed>
      </trkpt>
      <trkpt lat="43.80522" lon="5.86632">
        <ele>390</ele>
        <time>2012-01-07T02:07:39Z</time>
        <course>290.588996164882</course>
        <speed>4.59695858762916</speed>
      </trkpt>
      <trkpt lat="43.80549" lon="5.86705">
        <ele>392</ele>
        <time>2012-01-07T02:07:54Z</time>
        <course>286.617276954789</course>
        <speed>4.59824940450759</speed>
      </trkpt>
      <trkpt lat="43.80644" lon="5.87028">
        <ele>404</ele>
        <time>2012-01-07T02:08:55Z</time>
        <course>281.64272260223</course>
        <speed>5.55583673886272</speed>
      </trkpt>
      <trkpt lat="43.80742" lon="5.8751">
        <ele>414</ele>
        <time>2012-01-07T02:10:07Z</time>
        <course>280.27240966122</course>
        <speed>5.14878466727034</speed>
      </trkpt>
      <trkpt lat="43.80762" lon="5.87622">
        <ele>416</ele>
        <time>2012-01-07T02:10:25Z</time>
        <course>275.043834115414</course>
        <speed>5.14612479212467</speed>
      </trkpt>
      <trkpt lat="43.80766" lon="5.87668">
        <ele>418</ele>
        <time>2012-01-07T02:10:32Z</time>
        <course>268.920017163603</course>
        <speed>6.15309426597047</speed>
      </trkpt>
      <trkpt lat="43.80765" lon="5.87722">
        <ele>418</ele>
        <time>2012-01-07T02:10:39Z</time>
        <course>263.613692148176</course>
        <speed>6.15621853796358</speed>
      </trkpt>
      <trkpt lat="43.80717" lon="5.88159">
        <ele>425</ele>
        <time>2012-01-07T02:11:37Z</time>
        <course>254.346832341907</course>
        <speed>4.31863825692709</speed>
      </trkpt>
      <trkpt lat="43.80701" lon="5.88217">
        <ele>427</ele>
        <time>2012-01-07T02:11:48Z</time>
        <course>248.199691240609</course>
        <speed>4.3189871446742</speed>
      </trkpt>
      <trkpt lat="43.80546" lon="5.88611">
        <ele>444</ele>
        <time>2012-01-07T02:13:12Z</time>
        <course>256.027077677146</course>
        <speed>5.87765236936573</speed>
      </trkpt>
      <trkpt lat="43.80534" lon="5.8866">
        <ele>444</ele>
        <time>2012-01-07T02:13:19Z</time>
        <course>263.047168850239</course>
        <speed>5.8739811127852</speed>
      </trkpt>
      <trkpt lat="43.80528" lon="5.8871">
        <ele>445</ele>
        <time>2012-01-07T02:13:25Z</time>
        <course>271.507589162957</course>
        <speed>5.87357877394691</speed>
      </trkpt>
      <trkpt lat="43.8053" lon="5.88787">
        <ele>447</ele>
        <time>2012-01-07T02:13:36Z</time>
        <course>280.359836741073</course>
        <speed>6.07731747538577</speed>
      </trkpt>
      <trkpt lat="43.80539" lon="5.88837">
        <ele>447</ele>
        <time>2012-01-07T02:13:43Z</time>
        <course>287.438071189798</course>
        <speed>6.07917203053244</speed>
      </trkpt>
      <trkpt lat="43.80582" lon="5.88976">
        <ele>450</ele>
        <time>2012-01-07T02:14:03Z</time>
        <course>283.085824770936</course>
        <speed>4.80586803508301</speed>
      </trkpt>
      <trkpt lat="43.80601" lon="5.89059">
        <ele>452</ele>
        <time>2012-01-07T02:14:17Z</time>
        <course>277.057135600882</course>
        <speed>4.80484260492408</speed>
      </trkpt>
      <trkpt lat="43.80611" lon="5.89141">
        <ele>455</ele>
        <time>2012-01-07T02:14:31Z</time>
        <course>273.442232612577</course>
        <speed>8.32145249136004</speed>
      </trkpt>
      <trkpt lat="43.80618" lon="5.89259">
        <ele>455</ele>
        <time>2012-01-07T02:14:43Z</time>
        <course>279.606073248613</course>
        <speed>8.30957773107982</speed>
      </trkpt>
      <trkpt lat="43.80625" lon="5.89301">
        <ele>455</ele>
        <time>2012-01-07T02:14:47Z</time>
        <course>294.607635058215</course>
        <speed>4.47379367233596</speed>
      </trkpt>
      <trkpt lat="43.80648" lon="5.89352">
        <ele>457</ele>
        <time>2012-01-07T02:14:58Z</time>
        <course>308.551861839115</course>
        <speed>4.47222771911473</speed>
      </trkpt>
      <trkpt lat="43.80816" lon="5.89566">
        <ele>468</ele>
        <time>2012-01-07T02:15:54Z</time>
        <course>297.256002319279</course>
        <speed>7.20983336881032</speed>
      </trkpt>
      <trkpt lat="43.8085" lon="5.89633">
        <ele>468</ele>
        <time>2012-01-07T02:16:03Z</time>
        <course>293.104884966034</course>
        <speed>7.21072392705471</speed>
      </trkpt>
      <trkpt lat="43.80879" lon="5.89702">
        <ele>469</ele>
        <time>2012-01-07T02:16:12Z</time>
        <course>304.089917284938</course>
        <speed>6.2810690398647</speed>
      </trkpt>
      <trkpt lat="43.80893" lon="5.89723">
        <ele>469</ele>
        <time>2012-01-07T02:16:16Z</time>
        <course>320.251321022496</course>
        <speed>6.28141490038233</speed>
      </trkpt>
      <trkpt lat="43.8097" lon="5.89788">
        <ele>471</ele>
        <time>2012-01-07T02:16:32Z</time>
        <course>328.065748738066</course>
        <speed>4.41690706713467</speed>
      </trkpt>
      <trkpt lat="43.81155" lon="5.89905">
        <ele>481</ele>
        <time>2012-01-07T02:17:23Z</time>
        <course>317.618882077172</course>
        <speed>5.07501625389112</speed>
      </trkpt>
      <trkpt lat="43.81182" lon="5.8993">
        <ele>482</ele>
        <time>2012-01-07T02:17:30Z</time>
        <course>307.971920658018</course>
        <speed>5.07026392526416</speed>
      </trkpt>
      <trkpt lat="43.81202" lon="5.89956">
        <ele>483</ele>
        <time>2012-01-07T02:17:36Z</time>
        <course>293.765202028913</course>
        <speed>5.07415542691224</speed>
      </trkpt>
      <trkpt lat="43.81258" lon="5.90085">
        <ele>487</ele>
        <time>2012-01-07T02:18:00Z</time>
        <course>287.80496672528</course>
        <speed>8.31981084371459</speed>
      </trkpt>
      <trkpt lat="43.81296" lon="5.90205">
        <ele>487</ele>
        <time>2012-01-07T02:18:13Z</time>
        <course>297.068047898221</course>
        <speed>4.64333751537355</speed>
      </trkpt>
      <trkpt lat="43.81361" lon="5.90334">
        <ele>492</ele>
        <time>2012-01-07T02:18:40Z</time>
        <course>289.277909161271</course>
        <speed>5.88399476988866</speed>
      </trkpt>
      <trkpt lat="43.81371" lon="5.90363">
        <ele>492</ele>
        <time>2012-01-07T02:18:44Z</time>
        <course>282.088739396512</course>
        <speed>5.87909507287834</speed>
      </trkpt>
      <trkpt lat="43.81401" lon="5.90505">
        <ele>495</ele>
        <time>2012-01-07T02:19:04Z</time>
        <course>291.933316267675</course>
        <speed>6.0479986350472</speed>
      </trkpt>
      <trkpt lat="43.81428" lon="5.90573">
        <ele>496</ele>
        <time>2012-01-07T02:19:15Z</time>
        <course>284.225992125909</course>
        <speed>6.04472969811767</speed>
      </trkpt>
      <trkpt lat="43.81441" lon="5.90625">
        <ele>497</ele>
        <time>2012-01-07T02:19:22Z</time>
        <course>271.159703052208</course>
        <speed>7.03626639920434</speed>
      </trkpt>
      <trkpt lat="43.81442" lon="5.90675">
        <ele>497</ele>
        <time>2012-01-07T02:19:28Z</time>
        <course>260.622260818366</course>
        <speed>7.04085126566048</speed>
      </trkpt>
      <trkpt lat="43.81435" lon="5.90718">
        <ele>497</ele>
        <time>2012-01-07T02:19:33Z</time>
        <course>253.07390046164</course>
        <speed>7.04555523279076</speed>
      </trkpt>
      <trkpt lat="43.81423" lon="5.90758">
        <ele>498</ele>
        <time>2012-01-07T02:19:37Z</time>
        <course>248.750080993745</course>
        <speed>6.24020928665003</speed>
      </trkpt>
      <trkpt lat="43.814" lon="5.90818">
        <ele>498</ele>
        <time>2012-01-07T02:19:46Z</time>
        <course>236.157211215237</course>
        <speed>6.23639333462505</speed>
      </trkpt>
      <trkpt lat="43.81324" lon="5.90933">
        <ele>501</ele>
        <time>2012-01-07T02:20:06Z</time>
        <course>243.905470978497</course>
        <speed>4.5491769051414</speed>
      </trkpt>
      <trkpt lat="43.8131" lon="5.90962">
        <ele>502</ele>
        <time>2012-01-07T02:20:12Z</time>
        <course>259.358636578745</course>
        <speed>4.54295784066056</speed>
      </trkpt>
      <trkpt lat="43.81305" lon="5.90989">
        <ele>503</ele>
        <time>2012-01-07T02:20:17Z</time>
        <course>271.34944754494</course>
        <speed>4.54508871894099</speed>
      </trkpt>
      <trkpt lat="43.81306" lon="5.91032">
        <ele>504</ele>
        <time>2012-01-07T02:20:25Z</time>
        <course>287.824870269946</course>
        <speed>4.54739537677299</speed>
      </trkpt>
      <trkpt lat="43.81345" lon="5.91155">
        <ele>509</ele>
        <time>2012-01-07T02:20:49Z</time>
        <course>274.995017819837</course>
        <speed>6.09068509847681</speed>
      </trkpt>
      <trkpt lat="43.8135" lon="5.91213">
        <ele>509</ele>
        <time>2012-01-07T02:20:56Z</time>
        <course>266.942023724203</course>
        <speed>6.08582021084158</speed>
      </trkpt>
      <trkpt lat="43.81348" lon="5.91251">
        <ele>510</ele>
        <time>2012-01-07T02:21:01Z</time>
        <course>257.942969885218</course>
        <speed>6.09216779441843</speed>
      </trkpt>
      <trkpt lat="43.8134" lon="5.91289">
        <ele>511</ele>
        <time>2012-01-07T02:21:07Z</time>
        <course>253.130436525646</course>
        <speed>6.40472978554717</speed>
      </trkpt>
      <trkpt lat="43.81271" lon="5.9152">
        <ele>514</ele>
        <time>2012-01-07T02:21:38Z</time>
        <course>257.733090142001</course>
        <speed>8.30525333261619</speed>
      </trkpt>
      <trkpt lat="43.81265" lon="5.91548">
        <ele>514</ele>
        <time>2012-01-07T02:21:41Z</time>
        <course>267.019754331742</course>
        <speed>8.31592312438996</speed>
      </trkpt>
      <trkpt lat="43.81263" lon="5.91587">
        <ele>514</ele>
        <time>2012-01-07T02:21:44Z</time>
        <course>279.754259080322</course>
        <speed>8.32133775169097</speed>
      </trkpt>
      <trkpt lat="43.81273" lon="5.91646">
        <ele>514</ele>
        <time>2012-01-07T02:21:50Z</time>
        <course>287.849360762727</course>
        <speed>6.27859946294233</speed>
      </trkpt>
      <trkpt lat="43.81293" lon="5.91709">
        <ele>514</ele>
        <time>2012-01-07T02:21:59Z</time>
        <course>279.920165100089</course>
        <speed>6.27508523652154</speed>
      </trkpt>
      <trkpt lat="43.81298" lon="5.91738">
        <ele>515</ele>
        <time>2012-01-07T02:22:03Z</time>
        <course>267.776186336609</course>
        <speed>6.27992038389862</speed>
      </trkpt>
      <trkpt lat="43.81293" lon="5.91869">
        <ele>517</ele>
        <time>2012-01-07T02:22:20Z</time>
        <course>282.856348957975</course>
        <speed>5.48967725302099</speed>
      </trkpt>
      <trkpt lat="43.81302" lon="5.91909">
        <ele>517</ele>
        <time>2012-01-07T02:22:26Z</time>
        <course>301.90096779643</course>
        <speed>5.4873307196504</speed>
      </trkpt>
      <trkpt lat="43.81329" lon="5.91953">
        <ele>519</ele>
        <time>2012-01-07T02:22:34Z</time>
        <course>318.562843385727</course>
        <speed>5.48833129456127</speed>
      </trkpt>
      <trkpt lat="43.81415" lon="5.9203">
        <ele>522</ele>
        <time>2012-01-07T02:22:55Z</time>
        <course>305.786726917397</course>
        <speed>5.78811482810259</speed>
      </trkpt>
      <trkpt lat="43.81474" lon="5.92113">
        <ele>524</ele>
        <time>2012-01-07T02:23:11Z</time>
        <course>299.510227158105</course>
        <speed>5.78867490104972</speed>
      </trkpt>
      <trkpt lat="43.81498" lon="5.92156">
        <ele>525</ele>
        <time>2012-01-07T02:23:19Z</time>
        <course>291.432258097362</course>
        <speed>6.26826154290595</speed>
      </trkpt>
      <trkpt lat="43.8151" lon="5.92187">
        <ele>525</ele>
        <time>2012-01-07T02:23:23Z</time>
        <course>282.506535925795</course>
        <speed>6.26431231900493</speed>
      </trkpt>
      <trkpt lat="43.81517" lon="5.92219">
        <ele>525</ele>
        <time>2012-01-07T02:23:27Z</time>
        <course>271.75864092913</course>
        <speed>6.26081755100232</speed>
      </trkpt>
      <trkpt lat="43.81518" lon="5.92252">
        <ele>526</ele>
        <time>2012-01-07T02:23:32Z</time>
        <course>256.914057036765</course>
        <speed>6.27043180669129</speed>
      </trkpt>
      <trkpt lat="43.81507" lon="5.923">
        <ele>527</ele>
        <time>2012-01-07T02:23:38Z</time>
        <course>241.36043505637</course>
        <speed>5.05087042767645</speed>
      </trkpt>
      <trkpt lat="43.81493" lon="5.92326">
        <ele>527</ele>
        <time>2012-01-07T02:23:43Z</time>
        <course>228.486913060655</course>
        <speed>5.05052272756615</speed>
      </trkpt>
      <trkpt lat="43.81404" lon="5.92428">
        <ele>532</ele>
        <time>2012-01-07T02:24:09Z</time>
        <course>242.632177943737</course>
        <speed>6.69712805312818</speed>
      </trkpt>
      <trkpt lat="43.81354" lon="5.92526">
        <ele>533</ele>
        <time>2012-01-07T02:24:23Z</time>
        <course>223.441209538552</course>
        <speed>6.70155780452129</speed>
      </trkpt>
      <trkpt lat="43.81303" lon="5.92575">
        <ele>534</ele>
        <time>2012-01-07T02:24:33Z</time>
        <course>233.578017291942</course>
        <speed>5.39779799261757</speed>
      </trkpt>
      <trkpt lat="43.81287" lon="5.92597">
        <ele>534</ele>
        <time>2012-01-07T02:24:38Z</time>
        <course>249.163403778937</course>
        <speed>5.40210560200593</speed>
      </trkpt>
      <trkpt lat="43.81236" lon="5.92733">
        <ele>538</ele>
        <time>2012-01-07T02:25:01Z</time>
        <course>261.75062116679</course>
        <speed>8.31271076361259</speed>
      </trkpt>
      <trkpt lat="43.8123" lon="5.92775">
        <ele>538</ele>
        <time>2012-01-07T02:25:05Z</time>
        <course>275.389716850781</course>
        <speed>8.31699920216638</speed>
      </trkpt>
      <trkpt lat="43.81234" lon="5.92818">
        <ele>538</ele>
        <time>2012-01-07T02:25:09Z</time>
        <course>285.138188793659</course>
        <speed>8.32649794767774</speed>
      </trkpt>
      <trkpt lat="43.81242" lon="5.92848">
        <ele>538</ele>
        <time>2012-01-07T02:25:12Z</time>
        <course>292.002800836438</course>
        <speed>8.3194927838485</speed>
      </trkpt>
      <trkpt lat="43.81354" lon="5.93129">
        <ele>538</ele>
        <time>2012-01-07T02:25:43Z</time>
        <course>295.663674289147</course>
        <speed>7.06361302877632</speed>
      </trkpt>
      <trkpt lat="43.81363" lon="5.93148">
        <ele>538</ele>
        <time>2012-01-07T02:25:46Z</time>
        <course>306.997578162473</course>
        <speed>7.06628386223313</speed>
      </trkpt>
      <trkpt lat="43.81389" lon="5.93183">
        <ele>538</ele>
        <time>2012-01-07T02:25:51Z</time>
        <course>319.217185384139</course>
        <speed>7.05588488365311</speed>
      </trkpt>
      <trkpt lat="43.81405" lon="5.93197">
        <ele>538</ele>
        <time>2012-01-07T02:25:54Z</time>
        <course>337.093910399244</course>
        <speed>7.06452043000265</speed>
      </trkpt>
      <trkpt lat="43.81433" lon="5.93209">
        <ele>539</ele>
        <time>2012-01-07T02:25:59Z</time>
        <course>358.234976703565</course>
        <speed>4.75712516496117</speed>
      </trkpt>
      <trkpt lat="43.81529" lon="5.93212">
        <ele>543</ele>
        <time>2012-01-07T02:26:21Z</time>
        <course>343.164385388959</course>
        <speed>5.94734922746189</speed>
      </trkpt>
      <trkpt lat="43.81617" lon="5.93239">
        <ele>545</ele>
        <time>2012-01-07T02:26:38Z</time>
        <course>337.893833090452</course>
        <speed>5.80091866154182</speed>
      </trkpt>
      <trkpt lat="43.81736" lon="5.93288">
        <ele>548</ele>
        <time>2012-01-07T02:27:02Z</time>
        <course>348.835544497849</course>
        <speed>7.70857100558519</speed>
      </trkpt>
      <trkpt lat="43.81961" lon="5.93333">
        <ele>549</ele>
        <time>2012-01-07T02:27:35Z</time>
        <course>331.507844733429</course>
        <speed>6.96068664994416</speed>
      </trkpt>
      <trkpt lat="43.82001" lon="5.93355">
        <ele>549</ele>
        <time>2012-01-07T02:27:42Z</time>
        <course>316.101207187067</course>
        <speed>6.95832281954176</speed>
      </trkpt>
      <trkpt lat="43.82041" lon="5.93394">
        <ele>550</ele>
        <time>2012-01-07T02:27:49Z</time>
        <course>305.426279055463</course>
        <speed>6.2003964571972</speed>
      </trkpt>
      <trkpt lat="43.82074" lon="5.93441">
        <ele>550</ele>
        <time>2012-01-07T02:27:58Z</time>
        <course>298.529056943901</course>
        <speed>6.19746567723701</speed>
      </trkpt>
      <trkpt lat="43.82096" lon="5.93482">
        <ele>551</ele>
        <time>2012-01-07T02:28:04Z</time>
        <course>293.866102958285</course>
        <speed>6.19578592539029</speed>
      </trkpt>
      <trkpt lat="43.82134" lon="5.93569">
        <ele>553</ele>
        <time>2012-01-07T02:28:18Z</time>
        <course>301.289830579086</course>
        <speed>7.14199298665711</speed>
      </trkpt>
      <trkpt lat="43.82173" lon="5.93634">
        <ele>553</ele>
        <time>2012-01-07T02:28:27Z</time>
        <course>312.486772897673</course>
        <speed>7.14217265225659</speed>
      </trkpt>
      <trkpt lat="43.82296" lon="5.9377">
        <ele>555</ele>
        <time>2012-01-07T02:28:52Z</time>
        <course>307.914028138935</course>
        <speed>5.97207563202657</speed>
      </trkpt>
      <trkpt lat="43.82396" lon="5.939">
        <ele>558</ele>
        <time>2012-01-07T02:29:17Z</time>
        <course>305.713110376918</course>
        <speed>6.00296785992935</speed>
      </trkpt>
      <trkpt lat="43.82494" lon="5.94038">
        <ele>561</ele>
        <time>2012-01-07T02:29:43Z</time>
        <course>314.961405753266</course>
        <speed>6.94033003609</speed>
      </trkpt>
      <trkpt lat="43.82567" lon="5.94112">
        <ele>562</ele>
        <time>2012-01-07T02:29:57Z</time>
        <course>322.482818248967</course>
        <speed>8.31959025221803</speed>
      </trkpt>
      <trkpt lat="43.82724" lon="5.94234">
        <ele>562</ele>
        <time>2012-01-07T02:30:21Z</time>
        <course>317.315924805926</course>
        <speed>6.55604704521706</speed>
      </trkpt>
      <trkpt lat="43.82784" lon="5.9429">
        <ele>563</ele>
        <time>2012-01-07T02:30:34Z</time>
        <course>303.366668228394</course>
        <speed>6.55265176685138</speed>
      </trkpt>
      <trkpt lat="43.82825" lon="5.94353">
        <ele>564</ele>
        <time>2012-01-07T02:30:44Z</time>
        <course>294.843286930436</course>
        <speed>8.31624619204187</speed>
      </trkpt>
      <trkpt lat="43.82879" lon="5.94471">
        <ele>564</ele>
        <time>2012-01-07T02:30:58Z</time>
        <course>290.596918097244</course>
        <speed>6.81588354014609</speed>
      </trkpt>
      <trkpt lat="43.82892" lon="5.94506">
        <ele>564</ele>
        <time>2012-01-07T02:31:02Z</time>
        <course>285.11297609509</course>
        <speed>6.82280181429313</speed>
      </trkpt>
      <trkpt lat="43.82939" lon="5.94682">
        <ele>566</ele>
        <time>2012-01-07T02:31:24Z</time>
        <course>287.424469517102</course>
        <speed>7.35310136274599</speed>
      </trkpt>
      <trkpt lat="43.82993" lon="5.94856">
        <ele>567</ele>
        <time>2012-01-07T02:31:45Z</time>
        <course>293.43848597574</course>
        <speed>5.55476452602926</speed>
      </trkpt>
      <trkpt lat="43.83017" lon="5.94912">
        <ele>568</ele>
        <time>2012-01-07T02:31:54Z</time>
        <course>303.357248536747</course>
        <speed>5.55224991760844</speed>
      </trkpt>
      <trkpt lat="43.83058" lon="5.94975">
        <ele>570</ele>
        <time>2012-01-07T02:32:07Z</time>
        <course>306.226597240178</course>
        <speed>5.74339034964482</speed>
      </trkpt>
      <trkpt lat="43.832" lon="5.95171">
        <ele>575</ele>
        <time>2012-01-07T02:32:45Z</time>
        <course>301.871667480183</course>
        <speed>8.31720942305924</speed>
      </trkpt>
      <trkpt lat="43.83347" lon="5.9541">
        <ele>574</ele>
        <time>2012-01-07T02:33:16Z</time>
        <course>304.16220749469</course>
        <speed>6.59862935546067</speed>
      </trkpt>
      <trkpt lat="43.83488" lon="5.9562">
        <ele>577</ele>
        <time>2012-01-07T02:33:50Z</time>
        <course>315.310008017446</course>
        <speed>7.61181327850661</speed>
      </trkpt>
      <trkpt lat="43.83526" lon="5.95658">
        <ele>577</ele>
        <time>2012-01-07T02:33:57Z</time>
        <course>323.634514928658</course>
        <speed>7.60953917736109</speed>
      </trkpt>
      <trkpt lat="43.83655" lon="5.95754">
        <ele>578</ele>
        <time>2012-01-07T02:34:19Z</time>
        <course>315.303159835272</course>
        <speed>7.20029556726989</speed>
      </trkpt>
      <trkpt lat="43.8369" lon="5.95789">
        <ele>578</ele>
        <time>2012-01-07T02:34:25Z</time>
        <course>305.824068006296</course>
        <speed>7.21106571368618</speed>
      </trkpt>
      <trkpt lat="43.8371" lon="5.95817">
        <ele>578</ele>
        <time>2012-01-07T02:34:30Z</time>
        <course>301.944471238501</course>
        <speed>7.20551310717616</speed>
      </trkpt>
      <trkpt lat="43.83739" lon="5.95864">
        <ele>579</ele>
        <time>2012-01-07T02:34:37Z</time>
        <course>294.58716151718</course>
        <speed>6.66504491681627</speed>
      </trkpt>
      <trkpt lat="43.83816" lon="5.96034">
        <ele>581</ele>
        <time>2012-01-07T02:35:01Z</time>
        <course>289.760347520171</course>
        <speed>6.45453586995401</speed>
      </trkpt>
      <trkpt lat="43.83832" lon="5.96079">
        <ele>581</ele>
        <time>2012-01-07T02:35:07Z</time>
        <course>282.504381438099</course>
        <speed>6.45672477962523</speed>
      </trkpt>
      <trkpt lat="43.83841" lon="5.9612">
        <ele>582</ele>
        <time>2012-01-07T02:35:12Z</time>
        <course>269.996713716305</course>
        <speed>6.45723415036664</speed>
      </trkpt>
      <trkpt lat="43.83841" lon="5.962">
        <ele>583</ele>
        <time>2012-01-07T02:35:22Z</time>
        <course>261.333522624111</course>
        <speed>8.31722105707039</speed>
      </trkpt>
      <trkpt lat="43.83808" lon="5.96419">
        <ele>577</ele>
        <time>2012-01-07T02:35:44Z</time>
        <course>257.753253887542</course>
        <speed>8.31896261167155</speed>
      </trkpt>
      <trkpt lat="43.83767" lon="5.9661">
        <ele>565</ele>
        <time>2012-01-07T02:36:03Z</time>
        <course>260.423108479685</course>
        <speed>8.31807790816556</speed>
      </trkpt>
      <trkpt lat="43.83702" lon="5.97">
        <ele>559</ele>
        <time>2012-01-07T02:36:42Z</time>
        <course>267.535489264178</course>
        <speed>6.51763005651427</speed>
      </trkpt>
      <trkpt lat="43.837" lon="5.97047">
        <ele>559</ele>
        <time>2012-01-07T02:36:47Z</time>
        <course>277.900445351088</course>
        <speed>6.51752888146936</speed>
      </trkpt>
      <trkpt lat="43.83718" lon="5.97178">
        <ele>561</ele>
        <time>2012-01-07T02:37:04Z</time>
        <course>268.388981131836</course>
        <speed>5.50021690195648</speed>
      </trkpt>
      <trkpt lat="43.83716" lon="5.9725">
        <ele>562</ele>
        <time>2012-01-07T02:37:14Z</time>
        <course>253.72237414956</course>
        <speed>5.49557438866819</speed>
      </trkpt>
      <trkpt lat="43.83703" lon="5.97295">
        <ele>563</ele>
        <time>2012-01-07T02:37:21Z</time>
        <course>244.299339471908</course>
        <speed>5.49566677812111</speed>
      </trkpt>
      <trkpt lat="43.83693" lon="5.97316">
        <ele>564</ele>
        <time>2012-01-07T02:37:25Z</time>
        <course>240.873193965678</course>
        <speed>4.67557996714974</speed>
      </trkpt>
      <trkpt lat="43.83623" lon="5.97443">
        <ele>569</ele>
        <time>2012-01-07T02:37:52Z</time>
        <course>252.746751142107</course>
        <speed>7.14914250103096</speed>
      </trkpt>
      <trkpt lat="43.8358" lon="5.97583">
        <ele>570</ele>
        <time>2012-01-07T02:38:09Z</time>
        <course>254.449670470991</course>
        <speed>6.07483325636558</speed>
      </trkpt>
      <trkpt lat="43.83528" lon="5.97772">
        <ele>573</ele>
        <time>2012-01-07T02:38:36Z</time>
        <course>268.159234907418</course>
        <speed>8.31353644050403</speed>
      </trkpt>
      <trkpt lat="43.83526" lon="5.97835">
        <ele>572</ele>
        <time>2012-01-07T02:38:42Z</time>
        <course>276.860539902184</course>
        <speed>8.32203289087885</speed>
      </trkpt>
      <trkpt lat="43.83531" lon="5.97877">
        <ele>572</ele>
        <time>2012-01-07T02:38:46Z</time>
        <course>282.083465475584</course>
        <speed>8.31877607146852</speed>
      </trkpt>
      <trkpt lat="43.83556" lon="5.97995">
        <ele>571</ele>
        <time>2012-01-07T02:38:58Z</time>
        <course>262.567316994043</course>
        <speed>8.33077209067251</speed>
      </trkpt>
      <trkpt lat="43.83552" lon="5.98026">
        <ele>568</ele>
        <time>2012-01-07T02:39:01Z</time>
        <course>248.538568872836</course>
        <speed>8.32029739873446</speed>
      </trkpt>
      <trkpt lat="43.83545" lon="5.98044">
        <ele>567</ele>
        <time>2012-01-07T02:39:03Z</time>
        <course>226.157887812168</course>
        <speed>8.31010905251368</speed>
      </trkpt>
      <trkpt lat="43.83526" lon="5.98064">
        <ele>564</ele>
        <time>2012-01-07T02:39:06Z</time>
        <course>208.714330280391</course>
        <speed>8.31858909388825</speed>
      </trkpt>
      <trkpt lat="43.83461" lon="5.981">
        <ele>558</ele>
        <time>2012-01-07T02:39:16Z</time>
        <course>235.490710441041</course>
        <speed>8.31998663407883</speed>
      </trkpt>
      <trkpt lat="43.83444" lon="5.98125">
        <ele>556</ele>
        <time>2012-01-07T02:39:19Z</time>
        <course>255.813883095015</course>
        <speed>8.30535322608478</speed>
      </trkpt>
      <trkpt lat="43.83437" lon="5.98153">
        <ele>554</ele>
        <time>2012-01-07T02:39:22Z</time>
        <course>280.797817635879</course>
        <speed>8.31662552366404</speed>
      </trkpt>
      <trkpt lat="43.83447" lon="5.98206">
        <ele>552</ele>
        <time>2012-01-07T02:39:27Z</time>
        <course>294.090915704876</course>
        <speed>8.31507000112732</speed>
      </trkpt>
      <trkpt lat="43.8347" lon="5.98258">
        <ele>549</ele>
        <time>2012-01-07T02:39:33Z</time>
        <course>312.821853756167</course>
        <speed>4.96930777684402</speed>
      </trkpt>
      <trkpt lat="43.83481" lon="5.9827">
        <ele>549</ele>
        <time>2012-01-07T02:39:36Z</time>
        <course>333.682784863721</course>
        <speed>4.97374555766337</speed>
      </trkpt>
      <trkpt lat="43.83521" lon="5.9829">
        <ele>551</ele>
        <time>2012-01-07T02:39:46Z</time>
        <course>309.862678638245</course>
        <speed>4.97407186603894</speed>
      </trkpt>
      <trkpt lat="43.83559" lon="5.98336">
        <ele>553</ele>
        <time>2012-01-07T02:39:57Z</time>
        <course>294.01548528986</course>
        <speed>8.32030156855693</speed>
      </trkpt>
      <trkpt lat="43.836" lon="5.98429">
        <ele>548</ele>
        <time>2012-01-07T02:40:07Z</time>
        <course>282.979255237846</course>
        <speed>8.31890052215588</speed>
      </trkpt>
      <trkpt lat="43.83613" lon="5.98486">
        <ele>546</ele>
        <time>2012-01-07T02:40:13Z</time>
        <course>315.304608647476</course>
        <speed>4.41261349113181</speed>
      </trkpt>
      <trkpt lat="43.83653" lon="5.98526">
        <ele>548</ele>
        <time>2012-01-07T02:40:26Z</time>
        <course>332.179817514203</course>
        <speed>4.40959509453495</speed>
      </trkpt>
      <trkpt lat="43.83668" lon="5.98534">
        <ele>549</ele>
        <time>2012-01-07T02:40:30Z</time>
        <course>352.175068882651</course>
        <speed>4.41311152371282</speed>
      </trkpt>
      <trkpt lat="43.83704" lon="5.98539">
        <ele>551</ele>
        <time>2012-01-07T02:40:39Z</time>
        <course>311.934388217899</course>
        <speed>8.29583352348983</speed>
      </trkpt>
      <trkpt lat="43.83712" lon="5.98548">
        <ele>550</ele>
        <time>2012-01-07T02:40:40Z</time>
        <course>275.092939289247</course>
        <speed>8.319652772819</speed>
      </trkpt>
      <trkpt lat="43.83718" lon="5.98616">
        <ele>549</ele>
        <time>2012-01-07T02:40:47Z</time>
        <course>288.23758936732</course>
        <speed>8.3256129959671</speed>
      </trkpt>
      <trkpt lat="43.83733" lon="5.98662">
        <ele>548</ele>
        <time>2012-01-07T02:40:52Z</time>
        <course>343.06603541889</course>
        <speed>4.20372239823337</speed>
      </trkpt>
      <trkpt lat="43.83746" lon="5.98666">
        <ele>548</ele>
        <time>2012-01-07T02:40:55Z</time>
        <course>310.32607340353</course>
        <speed>4.20764732966391</speed>
      </trkpt>
      <trkpt lat="43.83767" lon="5.98691">
        <ele>550</ele>
        <time>2012-01-07T02:41:02Z</time>
        <course>302.843634402937</course>
        <speed>4.2080404421703</speed>
      </trkpt>
      <trkpt lat="43.83813" lon="5.98763">
        <ele>554</ele>
        <time>2012-01-07T02:41:21Z</time>
        <course>296.802321317773</course>
        <speed>8.32120680062294</speed>
      </trkpt>
      <trkpt lat="43.83838" lon="5.98813">
        <ele>553</ele>
        <time>2012-01-07T02:41:27Z</time>
        <course>286.901454123263</course>
        <speed>8.31889038008088</speed>
      </trkpt>
      <trkpt lat="43.83875" lon="5.98936">
        <ele>551</ele>
        <time>2012-01-07T02:41:39Z</time>
        <course>278.512135434319</course>
        <speed>8.3053505167197</speed>
      </trkpt>
      <trkpt lat="43.83879" lon="5.98963">
        <ele>549</ele>
        <time>2012-01-07T02:41:42Z</time>
        <course>265.87094171206</course>
        <speed>8.32167909638716</speed>
      </trkpt>
      <trkpt lat="43.83877" lon="5.98991">
        <ele>548</ele>
        <time>2012-01-07T02:41:45Z</time>
        <course>251.38408556132</course>
        <speed>8.31869562947353</speed>
      </trkpt>
      <trkpt lat="43.83858" lon="5.99048">
        <ele>544</ele>
        <time>2012-01-07T02:41:51Z</time>
        <course>240.691266468769</course>
        <speed>8.32789817103753</speed>
      </trkpt>
      <trkpt lat="43.83843" lon="5.99075">
        <ele>543</ele>
        <time>2012-01-07T02:41:54Z</time>
        <course>224.699966293523</course>
        <speed>5.8031162719097</speed>
      </trkpt>
      <trkpt lat="43.83802" lon="5.99116">
        <ele>544</ele>
        <time>2012-01-07T02:42:04Z</time>
        <course>191.195163957721</course>
        <speed>5.80708488111448</speed>
      </trkpt>
      <trkpt lat="43.83787" lon="5.99119">
        <ele>544</ele>
        <time>2012-01-07T02:42:07Z</time>
        <course>163.77247173676</course>
        <speed>5.79904507343621</speed>
      </trkpt>
      <trkpt lat="43.8377" lon="5.99114">
        <ele>545</ele>
        <time>2012-01-07T02:42:10Z</time>
        <course>137.320397987909</course>
        <speed>5.80202534246377</speed>
      </trkpt>
      <trkpt lat="43.83667" lon="5.99018">
        <ele>548</ele>
        <time>2012-01-07T02:42:34Z</time>
        <course>130.022556572469</course>
        <speed>5.86469198437064</speed>
      </trkpt>
      <trkpt lat="43.83613" lon="5.98953">
        <ele>549</ele>
        <time>2012-01-07T02:42:47Z</time>
        <course>150.75330062687</course>
        <speed>5.86299258695211</speed>
      </trkpt>
      <trkpt lat="43.8356" lon="5.98923">
        <ele>551</ele>
        <time>2012-01-07T02:42:58Z</time>
        <course>126.989525774363</course>
        <speed>8.31278350543102</speed>
      </trkpt>
      <trkpt lat="43.83522" lon="5.98872">
        <ele>549</ele>
        <time>2012-01-07T02:43:05Z</time>
        <course>142.654600439613</course>
        <speed>8.3192409084518</speed>
      </trkpt>
      <trkpt lat="43.83487" lon="5.98845">
        <ele>548</ele>
        <time>2012-01-07T02:43:11Z</time>
        <course>163.472456181773</course>
        <speed>2.98404455110993</speed>
      </trkpt>
      <trkpt lat="43.83467" lon="5.98839">
        <ele>550</ele>
        <time>2012-01-07T02:43:18Z</time>
        <course>199.455785865259</course>
        <speed>2.98601364064269</speed>
      </trkpt>
      <trkpt lat="43.83453" lon="5.98844">
        <ele>551</ele>
        <time>2012-01-07T02:43:24Z</time>
        <course>226.976768336836</course>
        <speed>2.98465476808675</speed>
      </trkpt>
      <trkpt lat="43.83441" lon="5.98857">
        <ele>552</ele>
        <time>2012-01-07T02:43:29Z</time>
        <course>238.355876767303</course>
        <speed>2.98598666469682</speed>
      </trkpt>
      <trkpt lat="43.83363" lon="5.98985">
        <ele>565</ele>
        <time>2012-01-07T02:44:14Z</time>
        <course>260.433554937776</course>
        <speed>3.15406515226571</speed>
      </trkpt>
      <trkpt lat="43.83361" lon="5.98997">
        <ele>565</ele>
        <time>2012-01-07T02:44:17Z</time>
        <course>280.416346702527</course>
        <speed>3.15729838215096</speed>
      </trkpt>
      <trkpt lat="43.83365" lon="5.99019">
        <ele>567</ele>
        <time>2012-01-07T02:44:23Z</time>
        <course>289.485240145966</course>
        <speed>3.15934802981524</speed>
      </trkpt>
      <trkpt lat="43.83393" lon="5.99099">
        <ele>573</ele>
        <time>2012-01-07T02:44:46Z</time>
        <course>228.050868725167</course>
        <speed>3.15820587816616</speed>
      </trkpt>
      <trkpt lat="43.83377" lon="5.99117">
        <ele>575</ele>
        <time>2012-01-07T02:44:53Z</time>
        <course>206.31155589204</course>
        <speed>8.32611508482846</speed>
      </trkpt>
      <trkpt lat="43.83361" lon="5.99125">
        <ele>575</ele>
        <time>2012-01-07T02:44:55Z</time>
        <course>156.846740050801</course>
        <speed>8.31434272598695</speed>
      </trkpt>
      <trkpt lat="43.83324" lon="5.99109">
        <ele>575</ele>
        <time>2012-01-07T02:45:00Z</time>
        <course>201.153996160716</course>
        <speed>8.32484826390109</speed>
      </trkpt>
      <trkpt lat="43.83301" lon="5.99118">
        <ele>575</ele>
        <time>2012-01-07T02:45:04Z</time>
        <course>229.877858634327</course>
        <speed>8.31902969198056</speed>
      </trkpt>
      <trkpt lat="43.83286" lon="5.99136">
        <ele>575</ele>
        <time>2012-01-07T02:45:06Z</time>
        <course>244.401625095958</course>
        <speed>8.31965260521992</speed>
      </trkpt>
      <trkpt lat="43.83259" lon="5.99193">
        <ele>574</ele>
        <time>2012-01-07T02:45:13Z</time>
        <course>222.829959028795</course>
        <speed>8.31908421823755</speed>
      </trkpt>
      <trkpt lat="43.83243" lon="5.99208">
        <ele>574</ele>
        <time>2012-01-07T02:45:15Z</time>
        <course>182.978992642916</course>
        <speed>8.31811470488328</speed>
      </trkpt>
      <trkpt lat="43.83224" lon="5.99209">
        <ele>574</ele>
        <time>2012-01-07T02:45:18Z</time>
        <course>151.829382466086</course>
        <speed>8.32337719544993</speed>
      </trkpt>
      <trkpt lat="43.83176" lon="5.99183">
        <ele>574</ele>
        <time>2012-01-07T02:45:25Z</time>
        <course>201.577140272639</course>
        <speed>8.30049302950323</speed>
      </trkpt>
      <trkpt lat="43.83161" lon="5.99189">
        <ele>573</ele>
        <time>2012-01-07T02:45:27Z</time>
        <course>245.525968014466</course>
        <speed>8.32399276371364</speed>
      </trkpt>
      <trkpt lat="43.83152" lon="5.99209">
        <ele>572</ele>
        <time>2012-01-07T02:45:29Z</time>
        <course>269.999182411077</course>
        <speed>8.32258905831195</speed>
      </trkpt>
      <trkpt lat="43.83152" lon="5.99228">
        <ele>571</ele>
        <time>2012-01-07T02:45:31Z</time>
        <course>287.382105616706</course>
        <speed>8.32620084920729</speed>
      </trkpt>
      <trkpt lat="43.83165" lon="5.9927">
        <ele>569</ele>
        <time>2012-01-07T02:45:35Z</time>
        <course>277.604370099829</course>
        <speed>8.32190388584373</speed>
      </trkpt>
      <trkpt lat="43.83179" lon="5.99376">
        <ele>566</ele>
        <time>2012-01-07T02:45:46Z</time>
        <course>283.852096026696</course>
        <speed>8.31965029995842</speed>
      </trkpt>
      <trkpt lat="43.83209" lon="5.99499">
        <ele>565</ele>
        <time>2012-01-07T02:45:58Z</time>
        <course>273.087783534359</course>
        <speed>8.31811506630117</speed>
      </trkpt>
      <trkpt lat="43.83219" lon="5.99686">
        <ele>557</ele>
        <time>2012-01-07T02:46:16Z</time>
        <course>266.302311146276</course>
        <speed>8.32163696401426</speed>
      </trkpt>
      <trkpt lat="43.83213" lon="5.9978">
        <ele>552</ele>
        <time>2012-01-07T02:46:25Z</time>
        <course>278.417267622575</course>
        <speed>8.32123277274425</speed>
      </trkpt>
      <trkpt lat="43.83219" lon="5.99821">
        <ele>551</ele>
        <time>2012-01-07T02:46:30Z</time>
        <course>285.970670719939</course>
        <speed>8.31272036811754</speed>
      </trkpt>
      <trkpt lat="43.83234" lon="5.99874">
        <ele>548</ele>
        <time>2012-01-07T02:46:35Z</time>
        <course>276.811066522176</course>
        <speed>8.31934909921164</speed>
      </trkpt>
      <trkpt lat="43.83247" lon="5.99984">
        <ele>544</ele>
        <time>2012-01-07T02:46:46Z</time>
        <course>268.432726891485</course>
        <speed>8.31356263287099</speed>
      </trkpt>
      <trkpt lat="43.83246" lon="6.00021">
        <ele>543</ele>
        <time>2012-01-07T02:46:49Z</time>
        <course>246.5639748033</course>
        <speed>8.31422066102086</speed>
      </trkpt>
      <trkpt lat="43.83222" lon="6.00077">
        <ele>542</ele>
        <time>2012-01-07T02:46:56Z</time>
        <course>274.389019602427</course>
        <speed>8.3235787880893</speed>
      </trkpt>
      <trkpt lat="43.83228" lon="6.00156">
        <ele>541</ele>
        <time>2012-01-07T02:47:03Z</time>
        <course>262.188964360928</course>
        <speed>8.32558071078043</speed>
      </trkpt>
      <trkpt lat="43.8322" lon="6.00215">
        <ele>541</ele>
        <time>2012-01-07T02:47:09Z</time>
        <course>288.193590350006</course>
        <speed>8.31379065841621</speed>
      </trkpt>
      <trkpt lat="43.83233" lon="6.00255">
        <ele>541</ele>
        <time>2012-01-07T02:47:13Z</time>
        <course>301.991274807721</course>
        <speed>8.3181284584813</speed>
      </trkpt>
      <trkpt lat="43.83364" lon="6.00467">
        <ele>541</ele>
        <time>2012-01-07T02:47:40Z</time>
        <course>307.670414102129</course>
        <speed>3.67490258325066</speed>
      </trkpt>
      <trkpt lat="43.83406" lon="6.00522">
        <ele>545</ele>
        <time>2012-01-07T02:47:58Z</time>
        <course>325.301771089401</course>
        <speed>3.67638784529761</speed>
      </trkpt>
      <trkpt lat="43.83456" lon="6.00557">
        <ele>549</ele>
        <time>2012-01-07T02:48:15Z</time>
        <course>296.815682605855</course>
        <speed>6.20871447690637</speed>
      </trkpt>
      <trkpt lat="43.83468" lon="6.00581">
        <ele>549</ele>
        <time>2012-01-07T02:48:18Z</time>
        <course>269.999494370646</course>
        <speed>6.20558161423692</speed>
      </trkpt>
      <trkpt lat="43.83468" lon="6.00593">
        <ele>549</ele>
        <time>2012-01-07T02:48:20Z</time>
        <course>249.236360429275</course>
        <speed>6.20359473181249</speed>
      </trkpt>
      <trkpt lat="43.83462" lon="6.00609">
        <ele>549</ele>
        <time>2012-01-07T02:48:22Z</time>
        <course>233.72549266869</course>
        <speed>6.21687018182548</speed>
      </trkpt>
      <trkpt lat="43.83417" lon="6.00671">
        <ele>551</ele>
        <time>2012-01-07T02:48:34Z</time>
        <course>244.982659003365</course>
        <speed>4.60733856905678</speed>
      </trkpt>
      <trkpt lat="43.83405" lon="6.00697">
        <ele>551</ele>
        <time>2012-01-07T02:48:39Z</time>
        <course>259.392433545312</course>
        <speed>4.60701105405682</speed>
      </trkpt>
      <trkpt lat="43.83395" lon="6.00751">
        <ele>553</ele>
        <time>2012-01-07T02:48:49Z</time>
        <course>265.066738984591</course>
        <speed>4.60715989236085</speed>
      </trkpt>
      <trkpt lat="43.83384" lon="6.0088">
        <ele>558</ele>
        <time>2012-01-07T02:49:11Z</time>
        <course>238.753246735146</course>
        <speed>5.99198543944332</speed>
      </trkpt>
      <trkpt lat="43.83354" lon="6.0093">
        <ele>559</ele>
        <time>2012-01-07T02:49:20Z</time>
        <course>260.432642539028</course>
        <speed>5.9904371456919</speed>
      </trkpt>
      <trkpt lat="43.83349" lon="6.0096">
        <ele>559</ele>
        <time>2012-01-07T02:49:24Z</time>
        <course>292.021125717183</course>
        <speed>6.00364846096061</speed>
      </trkpt>
      <trkpt lat="43.83355" lon="6.00975">
        <ele>559</ele>
        <time>2012-01-07T02:49:26Z</time>
        <course>315.31745757862</course>
        <speed>5.98313511531255</speed>
      </trkpt>
      <trkpt lat="43.83365" lon="6.00985">
        <ele>560</ele>
        <time>2012-01-07T02:49:29Z</time>
        <course>350.240552053086</course>
        <speed>5.99021674675304</speed>
      </trkpt>
      <trkpt lat="43.83388" lon="6.00989">
        <ele>560</ele>
        <time>2012-01-07T02:49:33Z</time>
        <course>30.6857188494468</course>
        <speed>5.99412188355015</speed>
      </trkpt>
      <trkpt lat="43.83403" lon="6.0098">
        <ele>560</ele>
        <time>2012-01-07T02:49:36Z</time>
        <course>43.9424929947785</course>
        <speed>5.992109217071</speed>
      </trkpt>
      <trkpt lat="43.83442" lon="6.00942">
        <ele>561</ele>
        <time>2012-01-07T02:49:45Z</time>
        <course>22.0302481487328</course>
        <speed>5.99731596934554</speed>
      </trkpt>
      <trkpt lat="43.83464" lon="6.00933">
        <ele>562</ele>
        <time>2012-01-07T02:49:49Z</time>
        <course>329.310995066828</course>
        <speed>5.99410904735087</speed>
      </trkpt>
      <trkpt lat="43.83489" lon="6.00948">
        <ele>563</ele>
        <time>2012-01-07T02:49:54Z</time>
        <course>310.225242315551</course>
        <speed>5.00430739135094</speed>
      </trkpt>
      <trkpt lat="43.8353" lon="6.00997">
        <ele>564</ele>
        <time>2012-01-07T02:50:06Z</time>
        <course>295.702188101104</course>
        <speed>5.00482810178588</speed>
      </trkpt>
      <trkpt lat="43.8356" lon="6.0106">
        <ele>567</ele>
        <time>2012-01-07T02:50:18Z</time>
        <course>286.864861489859</course>
        <speed>4.70939349410167</speed>
      </trkpt>
      <trkpt lat="43.83596" lon="6.0118">
        <ele>571</ele>
        <time>2012-01-07T02:50:40Z</time>
        <course>281.427185877648</course>
        <speed>2.95479963705205</speed>
      </trkpt>
      <trkpt lat="43.83604" lon="6.0122">
        <ele>574</ele>
        <time>2012-01-07T02:50:52Z</time>
        <course>272.785363309384</course>
        <speed>2.95548689086093</speed>
      </trkpt>
      <trkpt lat="43.83608" lon="6.01303">
        <ele>580</ele>
        <time>2012-01-07T02:51:14Z</time>
        <course>249.39247202081</course>
        <speed>2.95552263644429</speed>
      </trkpt>
      <trkpt lat="43.83563" lon="6.01424">
        <ele>590</ele>
        <time>2012-01-07T02:51:51Z</time>
        <course>257.052709391145</course>
        <speed>4.24481960565888</speed>
      </trkpt>
      <trkpt lat="43.83518" lon="6.01622">
        <ele>598</ele>
        <time>2012-01-07T02:52:30Z</time>
        <course>264.572128292932</course>
        <speed>6.75545164086951</speed>
      </trkpt>
      <trkpt lat="43.83478" lon="6.02049">
        <ele>602</ele>
        <time>2012-01-07T02:53:21Z</time>
        <course>262.319740063357</course>
        <speed>6.42173036288748</speed>
      </trkpt>
      <trkpt lat="43.83468" lon="6.02124">
        <ele>602</ele>
        <time>2012-01-07T02:53:31Z</time>
        <course>254.068911379866</course>
        <speed>6.42124647355862</speed>
      </trkpt>
      <trkpt lat="43.83311" lon="6.02681">
        <ele>610</ele>
        <time>2012-01-07T02:54:46Z</time>
        <course>243.177378952039</course>
        <speed>8.32575408396845</speed>
      </trkpt>
      <trkpt lat="43.83304" lon="6.02695">
        <ele>610</ele>
        <time>2012-01-07T02:54:47Z</time>
        <course>221.954356022702</course>
        <speed>8.30516236806447</speed>
      </trkpt>
      <trkpt lat="43.83293" lon="6.02705">
        <ele>610</ele>
        <time>2012-01-07T02:54:49Z</time>
        <course>193.097204778636</course>
        <speed>8.31862989923945</speed>
      </trkpt>
      <trkpt lat="43.83242" lon="6.02717">
        <ele>610</ele>
        <time>2012-01-07T02:54:56Z</time>
        <course>224.675809665468</course>
        <speed>8.31719209025718</speed>
      </trkpt>
      <trkpt lat="43.83223" lon="6.02736">
        <ele>610</ele>
        <time>2012-01-07T02:54:59Z</time>
        <course>247.662252561871</course>
        <speed>8.31603029713898</speed>
      </trkpt>
      <trkpt lat="43.8321" lon="6.02768">
        <ele>610</ele>
        <time>2012-01-07T02:55:02Z</time>
        <course>263.111244310956</course>
        <speed>8.32373634500882</speed>
      </trkpt>
      <trkpt lat="43.83202" lon="6.02835">
        <ele>610</ele>
        <time>2012-01-07T02:55:09Z</time>
        <course>253.360634585405</course>
        <speed>8.32175160735321</speed>
      </trkpt>
      <trkpt lat="43.83189" lon="6.02879">
        <ele>610</ele>
        <time>2012-01-07T02:55:14Z</time>
        <course>243.873982674787</course>
        <speed>7.22726628188542</speed>
      </trkpt>
      <trkpt lat="43.83157" lon="6.02945">
        <ele>610</ele>
        <time>2012-01-07T02:55:22Z</time>
        <course>237.054338019026</course>
        <speed>7.22989755010652</speed>
      </trkpt>
      <trkpt lat="43.83116" lon="6.03009">
        <ele>611</ele>
        <time>2012-01-07T02:55:32Z</time>
        <course>248.156716514923</course>
        <speed>4.57279946782433</speed>
      </trkpt>
      <trkpt lat="43.83095" lon="6.03062">
        <ele>612</ele>
        <time>2012-01-07T02:55:43Z</time>
        <course>264.740569168205</course>
        <speed>4.57256174244146</speed>
      </trkpt>
      <trkpt lat="43.83084" lon="6.03183">
        <ele>617</ele>
        <time>2012-01-07T02:56:04Z</time>
        <course>266.701073581075</course>
        <speed>8.31847674929951</speed>
      </trkpt>
      <trkpt lat="43.83053" lon="6.03731">
        <ele>616</ele>
        <time>2012-01-07T02:56:57Z</time>
        <course>280.738852275307</course>
        <speed>8.30840132130619</speed>
      </trkpt>
      <trkpt lat="43.83059" lon="6.03763">
        <ele>614</ele>
        <time>2012-01-07T02:57:00Z</time>
        <course>295.368498971054</course>
        <speed>8.31281836479953</speed>
      </trkpt>
      <trkpt lat="43.83074" lon="6.03795">
        <ele>611</ele>
        <time>2012-01-07T02:57:04Z</time>
        <course>269.999091710075</course>
        <speed>8.33354032152369</speed>
      </trkpt>
      <trkpt lat="43.83074" lon="6.03816">
        <ele>610</ele>
        <time>2012-01-07T02:57:06Z</time>
        <course>241.651556611699</course>
        <speed>8.30744793438094</speed>
      </trkpt>
      <trkpt lat="43.83066" lon="6.03831">
        <ele>609</ele>
        <time>2012-01-07T02:57:08Z</time>
        <course>220.769402661606</course>
        <speed>8.31633076610513</speed>
      </trkpt>
      <trkpt lat="43.83019" lon="6.03872">
        <ele>605</ele>
        <time>2012-01-07T02:57:15Z</time>
        <course>247.967191555986</course>
        <speed>8.33269621346103</speed>
      </trkpt>
      <trkpt lat="43.83011" lon="6.03892">
        <ele>604</ele>
        <time>2012-01-07T02:57:17Z</time>
        <course>286.639831533166</course>
        <speed>8.32196414906849</speed>
      </trkpt>
      <trkpt lat="43.83024" lon="6.03936">
        <ele>602</ele>
        <time>2012-01-07T02:57:22Z</time>
        <course>260.227408429587</course>
        <speed>8.32482231911071</speed>
      </trkpt>
      <trkpt lat="43.83016" lon="6.03983">
        <ele>601</ele>
        <time>2012-01-07T02:57:26Z</time>
        <course>280.678948848086</course>
        <speed>8.32184360993652</speed>
      </trkpt>
      <trkpt lat="43.83027" lon="6.04042">
        <ele>599</ele>
        <time>2012-01-07T02:57:32Z</time>
        <course>245.304135876346</course>
        <speed>8.33774624643847</speed>
      </trkpt>
      <trkpt lat="43.83022" lon="6.04053">
        <ele>597</ele>
        <time>2012-01-07T02:57:34Z</time>
        <course>193.880290595889</course>
        <speed>8.31258919838519</speed>
      </trkpt>
      <trkpt lat="43.8301" lon="6.04056">
        <ele>595</ele>
        <time>2012-01-07T02:57:35Z</time>
        <course>142.447882739553</course>
        <speed>8.30976046373784</speed>
      </trkpt>
      <trkpt lat="43.83001" lon="6.04049">
        <ele>593</ele>
        <time>2012-01-07T02:57:37Z</time>
        <course>128.281140907464</course>
        <speed>8.31411127068273</speed>
      </trkpt>
      <trkpt lat="43.82962" lon="6.03999">
        <ele>585</ele>
        <time>2012-01-07T02:57:44Z</time>
        <course>144.29151830745</course>
        <speed>8.31528221536147</speed>
      </trkpt>
      <trkpt lat="43.82951" lon="6.03991">
        <ele>582</ele>
        <time>2012-01-07T02:57:45Z</time>
        <course>173.733249189849</course>
        <speed>8.3260382715945</speed>
      </trkpt>
      <trkpt lat="43.82933" lon="6.03989">
        <ele>580</ele>
        <time>2012-01-07T02:57:48Z</time>
        <course>210.667230419404</course>
        <speed>7.61526783279571</speed>
      </trkpt>
      <trkpt lat="43.82923" lon="6.03995">
        <ele>580</ele>
        <time>2012-01-07T02:57:49Z</time>
        <course>241.961800198478</course>
        <speed>7.63303316801575</speed>
      </trkpt>
      <trkpt lat="43.82913" lon="6.04014">
        <ele>580</ele>
        <time>2012-01-07T02:57:52Z</time>
        <course>273.990496518325</course>
        <speed>7.63177116187685</speed>
      </trkpt>
      <trkpt lat="43.82915" lon="6.04043">
        <ele>580</ele>
        <time>2012-01-07T02:57:55Z</time>
        <course>285.84193070184</course>
        <speed>7.63525448770531</speed>
      </trkpt>
      <trkpt lat="43.8297" lon="6.04239">
        <ele>581</ele>
        <time>2012-01-07T02:58:17Z</time>
        <course>277.676891589939</course>
        <speed>8.31833557704096</speed>
      </trkpt>
      <trkpt lat="43.82988" lon="6.04374">
        <ele>580</ele>
        <time>2012-01-07T02:58:30Z</time>
        <course>258.559986786664</course>
        <speed>8.31855569523759</speed>
      </trkpt>
      <trkpt lat="43.82984" lon="6.04394">
        <ele>580</ele>
        <time>2012-01-07T02:58:32Z</time>
        <course>229.864228562361</course>
        <speed>8.31921897222341</speed>
      </trkpt>
      <trkpt lat="43.82969" lon="6.04412">
        <ele>580</ele>
        <time>2012-01-07T02:58:35Z</time>
        <course>212.80448700626</course>
        <speed>8.30733062877484</speed>
      </trkpt>
      <trkpt lat="43.82946" lon="6.04427">
        <ele>580</ele>
        <time>2012-01-07T02:58:38Z</time>
        <course>192.847940074468</course>
        <speed>8.32068833148118</speed>
      </trkpt>
      <trkpt lat="43.82933" lon="6.0443">
        <ele>580</ele>
        <time>2012-01-07T02:58:40Z</time>
        <course>157.986553618893</course>
        <speed>8.32966488494623</speed>
      </trkpt>
      <trkpt lat="43.82911" lon="6.04421">
        <ele>580</ele>
        <time>2012-01-07T02:58:43Z</time>
        <course>123.214770293972</course>
        <speed>8.32105048942718</speed>
      </trkpt>
      <trkpt lat="43.829" lon="6.04404">
        <ele>580</ele>
        <time>2012-01-07T02:58:45Z</time>
        <course>114.33303553568</course>
        <speed>8.3147909106533</speed>
      </trkpt>
      <trkpt lat="43.82858" lon="6.0431">
        <ele>578</ele>
        <time>2012-01-07T02:58:56Z</time>
        <course>127.198319948856</course>
        <speed>8.32344501810196</speed>
      </trkpt>
      <trkpt lat="43.82837" lon="6.04282">
        <ele>578</ele>
        <time>2012-01-07T02:59:00Z</time>
        <course>118.756117155971</course>
        <speed>8.31483245867265</speed>
      </trkpt>
      <trkpt lat="43.82792" lon="6.04199">
        <ele>573</ele>
        <time>2012-01-07T02:59:10Z</time>
        <course>131.976440380935</course>
        <speed>8.3114048626448</speed>
      </trkpt>
      <trkpt lat="43.8276" lon="6.04163">
        <ele>571</ele>
        <time>2012-01-07T02:59:15Z</time>
        <course>147.840313612625</course>
        <speed>2.00742729418258</speed>
      </trkpt>
      <trkpt lat="43.82749" lon="6.04156">
        <ele>573</ele>
        <time>2012-01-07T02:59:22Z</time>
        <course>183.326204831885</course>
        <speed>2.00928822566788</speed>
      </trkpt>
      <trkpt lat="43.82732" lon="6.04157">
        <ele>576</ele>
        <time>2012-01-07T02:59:31Z</time>
        <course>216.53820841635</course>
        <speed>2.00810076858515</speed>
      </trkpt>
      <trkpt lat="43.8272" lon="6.04166">
        <ele>578</ele>
        <time>2012-01-07T02:59:39Z</time>
        <course>233.133118877957</course>
        <speed>2.00891344657382</speed>
      </trkpt>
      <trkpt lat="43.8264" lon="6.04274">
        <ele>598</ele>
        <time>2012-01-07T03:00:41Z</time>
        <course>247.269543084008</course>
        <speed>2.6417907235096</speed>
      </trkpt>
      <trkpt lat="43.82616" lon="6.04332">
        <ele>603</ele>
        <time>2012-01-07T03:01:01Z</time>
        <course>239.039354094012</course>
        <speed>2.64253625139937</speed>
      </trkpt>
      <trkpt lat="43.826" lon="6.04359">
        <ele>606</ele>
        <time>2012-01-07T03:01:12Z</time>
        <course>220.505758099833</course>
        <speed>2.64238321116741</speed>
      </trkpt>
      <trkpt lat="43.82563" lon="6.04391">
        <ele>612</ele>
        <time>2012-01-07T03:01:30Z</time>
        <course>205.0382051285</course>
        <speed>3.95287774692631</speed>
      </trkpt>
      <trkpt lat="43.82489" lon="6.04426">
        <ele>616</ele>
        <time>2012-01-07T03:01:52Z</time>
        <course>217.061038932962</course>
        <speed>3.95139394159132</speed>
      </trkpt>
      <trkpt lat="43.82472" lon="6.04439">
        <ele>618</ele>
        <time>2012-01-07T03:01:57Z</time>
        <course>240.215856366298</course>
        <speed>8.3062513230669</speed>
      </trkpt>
      <trkpt lat="43.82459" lon="6.04462">
        <ele>617</ele>
        <time>2012-01-07T03:02:00Z</time>
        <course>250.111419154977</course>
        <speed>8.31580656944096</speed>
      </trkpt>
      <trkpt lat="43.82409" lon="6.04602">
        <ele>616</ele>
        <time>2012-01-07T03:02:15Z</time>
        <course>245.020414816399</course>
        <speed>8.32563157064103</speed>
      </trkpt>
      <trkpt lat="43.82386" lon="6.04652">
        <ele>613</ele>
        <time>2012-01-07T03:02:21Z</time>
        <course>216.522765007404</course>
        <speed>8.3121502860051</speed>
      </trkpt>
      <trkpt lat="43.82366" lon="6.04667">
        <ele>611</ele>
        <time>2012-01-07T03:02:24Z</time>
        <course>187.500194134826</course>
        <speed>8.33081772026203</speed>
      </trkpt>
      <trkpt lat="43.82351" lon="6.04669">
        <ele>610</ele>
        <time>2012-01-07T03:02:26Z</time>
        <course>166.59532049404</course>
        <speed>8.32310738027186</speed>
      </trkpt>
      <trkpt lat="43.82293" lon="6.04655">
        <ele>607</ele>
        <time>2012-01-07T03:02:34Z</time>
        <course>191.169791944479</course>
        <speed>8.3287009237008</speed>
      </trkpt>
      <trkpt lat="43.82268" lon="6.0466">
        <ele>605</ele>
        <time>2012-01-07T03:02:37Z</time>
        <course>214.647883897267</course>
        <speed>8.29916281850698</speed>
      </trkpt>
      <trkpt lat="43.82258" lon="6.04667">
        <ele>604</ele>
        <time>2012-01-07T03:02:39Z</time>
        <course>239.143674558081</course>
        <speed>8.31790403106866</speed>
      </trkpt>
      <trkpt lat="43.82212" lon="6.04745">
        <ele>600</ele>
        <time>2012-01-07T03:02:48Z</time>
        <course>229.532530066467</course>
        <speed>8.31699312278309</speed>
      </trkpt>
      <trkpt lat="43.8218" lon="6.04783">
        <ele>597</ele>
        <time>2012-01-07T03:02:54Z</time>
        <course>247.702618083937</course>
        <speed>8.32100532568112</speed>
      </trkpt>
      <trkpt lat="43.82163" lon="6.04825">
        <ele>595</ele>
        <time>2012-01-07T03:02:59Z</time>
        <course>263.037385869398</course>
        <speed>8.31874432705421</speed>
      </trkpt>
      <trkpt lat="43.82153" lon="6.04908">
        <ele>592</ele>
        <time>2012-01-07T03:03:07Z</time>
        <course>237.817699400816</course>
        <speed>8.31914395392666</speed>
      </trkpt>
      <trkpt lat="43.82094" lon="6.05003">
        <ele>577</ele>
        <time>2012-01-07T03:03:19Z</time>
        <course>245.488538338578</course>
        <speed>8.3250685051619</speed>
      </trkpt>
      <trkpt lat="43.82076" lon="6.05043">
        <ele>572</ele>
        <time>2012-01-07T03:03:23Z</time>
        <course>260.089723602034</course>
        <speed>8.32931294956955</speed>
      </trkpt>
      <trkpt lat="43.82071" lon="6.05072">
        <ele>569</ele>
        <time>2012-01-07T03:03:26Z</time>
        <course>285.312485693395</course>
        <speed>8.31426594606809</speed>
      </trkpt>
      <trkpt lat="43.82081" lon="6.05109">
        <ele>565</ele>
        <time>2012-01-07T03:03:30Z</time>
        <course>309.73520186682</course>
        <speed>8.32171435559967</speed>
      </trkpt>
      <trkpt lat="43.82113" lon="6.05148">
        <ele>559</ele>
        <time>2012-01-07T03:03:36Z</time>
        <course>318.202288906008</course>
        <speed>8.31584479709609</speed>
      </trkpt>
      <trkpt lat="43.82166" lon="6.05196">
        <ele>554</ele>
        <time>2012-01-07T03:03:44Z</time>
        <course>333.73027214548</course>
        <speed>8.3385518945151</speed>
      </trkpt>
      <trkpt lat="43.82178" lon="6.05202">
        <ele>554</ele>
        <time>2012-01-07T03:03:46Z</time>
        <course>12.3730959331029</course>
        <speed>8.30207138902462</speed>
      </trkpt>
      <trkpt lat="43.82196" lon="6.05198">
        <ele>553</ele>
        <time>2012-01-07T03:03:48Z</time>
        <course>36.9492026057021</course>
        <speed>2.45650601421863</speed>
      </trkpt>
      <trkpt lat="43.82217" lon="6.05182">
        <ele>556</ele>
        <time>2012-01-07T03:03:59Z</time>
        <course>10.1765074694205</course>
        <speed>2.456984735049</speed>
      </trkpt>
      <trkpt lat="43.82261" lon="6.05174">
        <ele>562</ele>
        <time>2012-01-07T03:04:19Z</time>
        <course>24.6267910598217</course>
        <speed>2.45604831876106</speed>
      </trkpt>
      <trkpt lat="43.82289" lon="6.05161">
        <ele>566</ele>
        <time>2012-01-07T03:04:33Z</time>
        <course>344.929178274847</course>
        <speed>8.30505323953306</speed>
      </trkpt>
      <trkpt lat="43.823" lon="6.05164">
        <ele>563</ele>
        <time>2012-01-07T03:04:34Z</time>
        <course>308.644539385768</course>
        <speed>8.33205972343676</speed>
      </trkpt>
      <trkpt lat="43.82315" lon="6.05183">
        <ele>560</ele>
        <time>2012-01-07T03:04:37Z</time>
        <course>287.634934088151</course>
        <speed>8.31767895951274</speed>
      </trkpt>
      <trkpt lat="43.82342" lon="6.05269">
        <ele>548</ele>
        <time>2012-01-07T03:04:46Z</time>
        <course>315.362335150526</course>
        <speed>8.32728867300719</speed>
      </trkpt>
      <trkpt lat="43.82353" lon="6.0528">
        <ele>546</ele>
        <time>2012-01-07T03:04:48Z</time>
        <course>334.999756320909</course>
        <speed>8.31912140608087</speed>
      </trkpt>
      <trkpt lat="43.82389" lon="6.05297">
        <ele>541</ele>
        <time>2012-01-07T03:04:53Z</time>
        <course>307.796703532033</course>
        <speed>8.31387354886658</speed>
      </trkpt>
      <trkpt lat="43.82425" lon="6.05344">
        <ele>536</ele>
        <time>2012-01-07T03:04:59Z</time>
        <course>328.711083707787</course>
        <speed>3.55176247536006</speed>
      </trkpt>
      <trkpt lat="43.82451" lon="6.0536">
        <ele>538</ele>
        <time>2012-01-07T03:05:08Z</time>
        <course>360</course>
        <speed>3.55583999992814</speed>
      </trkpt>
      <trkpt lat="43.82467" lon="6.0536">
        <ele>539</ele>
        <time>2012-01-07T03:05:13Z</time>
        <course>21.010756466293</course>
        <speed>3.55110028263134</speed>
      </trkpt>
      <trkpt lat="43.82485" lon="6.05353">
        <ele>540</ele>
        <time>2012-01-07T03:05:19Z</time>
        <course>38.9409933939718</course>
        <speed>3.54846180780442</speed>
      </trkpt>
      <trkpt lat="43.82496" lon="6.05344">
        <ele>541</ele>
        <time>2012-01-07T03:05:23Z</time>
        <course>58.0081121251474</course>
        <speed>3.55155830720858</speed>
      </trkpt>
      <trkpt lat="43.82525" lon="6.05297">
        <ele>545</ele>
        <time>2012-01-07T03:05:37Z</time>
        <course>40.2514891120987</course>
        <speed>8.31410250404257</speed>
      </trkpt>
      <trkpt lat="43.82532" lon="6.05291">
        <ele>543</ele>
        <time>2012-01-07T03:05:38Z</time>
        <course>356.467437509619</course>
        <speed>8.31647897563509</speed>
      </trkpt>
      <trkpt lat="43.82548" lon="6.05292">
        <ele>541</ele>
        <time>2012-01-07T03:05:40Z</time>
        <course>299.660101708527</course>
        <speed>8.29836740770273</speed>
      </trkpt>
      <trkpt lat="43.82557" lon="6.05308">
        <ele>539</ele>
        <time>2012-01-07T03:05:42Z</time>
        <course>263.580972470669</course>
        <speed>8.29563387272752</speed>
      </trkpt>
      <trkpt lat="43.82555" lon="6.05326">
        <ele>537</ele>
        <time>2012-01-07T03:05:44Z</time>
        <course>230.230897018874</course>
        <speed>8.32208028132197</speed>
      </trkpt>
      <trkpt lat="43.82495" lon="6.05399">
        <ele>526</ele>
        <time>2012-01-07T03:05:55Z</time>
        <course>208.144637026986</course>
        <speed>8.3235096462209</speed>
      </trkpt>
      <trkpt lat="43.82471" lon="6.05412">
        <ele>523</ele>
        <time>2012-01-07T03:05:58Z</time>
        <course>178.114576960842</course>
        <speed>6.43738193894129</speed>
      </trkpt>
      <trkpt lat="43.82441" lon="6.05411">
        <ele>523</ele>
        <time>2012-01-07T03:06:03Z</time>
        <course>163.671080187988</course>
        <speed>6.4389811024046</speed>
      </trkpt>
      <trkpt lat="43.8235" lon="6.05384">
        <ele>525</ele>
        <time>2012-01-07T03:06:19Z</time>
        <course>182.494102292132</course>
        <speed>8.31681715376517</speed>
      </trkpt>
      <trkpt lat="43.82282" lon="6.05387">
        <ele>521</ele>
        <time>2012-01-07T03:06:29Z</time>
        <course>197.665144972532</course>
        <speed>8.32184564171578</speed>
      </trkpt>
      <trkpt lat="43.82251" lon="6.05397">
        <ele>520</ele>
        <time>2012-01-07T03:06:33Z</time>
        <course>187.806780369433</course>
        <speed>8.31510743812245</speed>
      </trkpt>
      <trkpt lat="43.82179" lon="6.05407">
        <ele>514</ele>
        <time>2012-01-07T03:06:42Z</time>
        <course>210.636307111751</course>
        <speed>8.31248540648641</speed>
      </trkpt>
      <trkpt lat="43.82149" lon="6.05425">
        <ele>512</ele>
        <time>2012-01-07T03:06:47Z</time>
        <course>230.70494091981</course>
        <speed>8.32174589223986</speed>
      </trkpt>
      <trkpt lat="43.82107" lon="6.05477">
        <ele>511</ele>
        <time>2012-01-07T03:06:54Z</time>
        <course>248.295038652224</course>
        <speed>8.32595784624383</speed>
      </trkpt>
      <trkpt lat="43.82096" lon="6.05505">
        <ele>510</ele>
        <time>2012-01-07T03:06:57Z</time>
        <course>259.806749964743</course>
        <speed>8.32335408911397</speed>
      </trkpt>
      <trkpt lat="43.82085" lon="6.05567">
        <ele>510</ele>
        <time>2012-01-07T03:07:04Z</time>
        <course>247.353692922601</course>
        <speed>5.41136767984175</speed>
      </trkpt>
      <trkpt lat="43.82078" lon="6.05584">
        <ele>510</ele>
        <time>2012-01-07T03:07:06Z</time>
        <course>226.74568961284</course>
        <speed>5.41235941094374</speed>
      </trkpt>
      <trkpt lat="43.82065" lon="6.05598">
        <ele>510</ele>
        <time>2012-01-07T03:07:10Z</time>
        <course>207.63868132785</course>
        <speed>5.41846458009249</speed>
      </trkpt>
      <trkpt lat="43.82016" lon="6.05624">
        <ele>512</ele>
        <time>2012-01-07T03:07:21Z</time>
        <course>201.93834736962</course>
        <speed>5.41611215708873</speed>
      </trkpt>
      <trkpt lat="43.81967" lon="6.05644">
        <ele>514</ele>
        <time>2012-01-07T03:07:31Z</time>
        <course>196.941029402185</course>
        <speed>8.31746257625642</speed>
      </trkpt>
      <trkpt lat="43.81695" lon="6.05728">
        <ele>512</ele>
        <time>2012-01-07T03:08:08Z</time>
        <course>188.809685600464</course>
        <speed>8.31906809351545</speed>
      </trkpt>
      <trkpt lat="43.81625" lon="6.05739">
        <ele>511</ele>
        <time>2012-01-07T03:08:18Z</time>
        <course>181.096913478738</course>
        <speed>8.31866523598322</speed>
      </trkpt>
      <trkpt lat="43.81522" lon="6.05741">
        <ele>511</ele>
        <time>2012-01-07T03:08:31Z</time>
        <course>169.837139239261</course>
        <speed>8.31564754939875</speed>
      </trkpt>
      <trkpt lat="43.81434" lon="6.05725">
        <ele>507</ele>
        <time>2012-01-07T03:08:43Z</time>
        <course>186.539522068234</course>
        <speed>8.32456605437781</speed>
      </trkpt>
      <trkpt lat="43.81391" lon="6.0573">
        <ele>506</ele>
        <time>2012-01-07T03:08:49Z</time>
        <course>192.814966622157</course>
        <speed>8.3207482566933</speed>
      </trkpt>
      <trkpt lat="43.813" lon="6.05751">
        <ele>502</ele>
        <time>2012-01-07T03:09:01Z</time>
        <course>203.917277601448</course>
        <speed>8.31542709290076</speed>
      </trkpt>
      <trkpt lat="43.8122" lon="6.05787">
        <ele>497</ele>
        <time>2012-01-07T03:09:13Z</time>
        <course>230.599651874414</course>
        <speed>8.32437865641336</speed>
      </trkpt>
      <trkpt lat="43.81203" lon="6.05808">
        <ele>496</ele>
        <time>2012-01-07T03:09:16Z</time>
        <course>251.874365759761</course>
        <speed>6.05072578348012</speed>
      </trkpt>
      <trkpt lat="43.81193" lon="6.05839">
        <ele>496</ele>
        <time>2012-01-07T03:09:20Z</time>
        <course>271.241490068842</course>
        <speed>6.05249906075755</speed>
      </trkpt>
      <trkpt lat="43.81198" lon="6.06071">
        <ele>500</ele>
        <time>2012-01-07T03:09:51Z</time>
        <course>286.086877114575</course>
        <speed>8.3168168823929</speed>
      </trkpt>
      <trkpt lat="43.81227" lon="6.06173">
        <ele>499</ele>
        <time>2012-01-07T03:10:02Z</time>
        <course>290.931803925242</course>
        <speed>8.32393342881221</speed>
      </trkpt>
      <trkpt lat="43.8125" lon="6.06234">
        <ele>499</ele>
        <time>2012-01-07T03:10:08Z</time>
        <course>295.12652080599</course>
        <speed>8.31612281302349</speed>
      </trkpt>
      <trkpt lat="43.81293" lon="6.06327">
        <ele>499</ele>
        <time>2012-01-07T03:10:19Z</time>
        <course>292.532579070498</course>
        <speed>8.31641101423824</speed>
      </trkpt>
      <trkpt lat="43.81347" lon="6.06459">
        <ele>499</ele>
        <time>2012-01-07T03:10:33Z</time>
        <course>298.134851363613</course>
        <speed>8.31985870548769</speed>
      </trkpt>
      <trkpt lat="43.81405" lon="6.06569">
        <ele>499</ele>
        <time>2012-01-07T03:10:47Z</time>
        <course>294.632094617266</course>
        <speed>8.31947872169182</speed>
      </trkpt>
      <trkpt lat="43.81457" lon="6.06684">
        <ele>499</ele>
        <time>2012-01-07T03:11:00Z</time>
        <course>308.103825606166</course>
        <speed>8.31678595333146</speed>
      </trkpt>
      <trkpt lat="43.81556" lon="6.06812">
        <ele>499</ele>
        <time>2012-01-07T03:11:18Z</time>
        <course>312.789728009307</course>
        <speed>7.12397259249475</speed>
      </trkpt>
      <trkpt lat="43.8164" lon="6.06904">
        <ele>500</ele>
        <time>2012-01-07T03:11:34Z</time>
        <course>301.782016825846</course>
        <speed>4.54638612687771</speed>
      </trkpt>
      <trkpt lat="43.81651" lon="6.06922">
        <ele>500</ele>
        <time>2012-01-07T03:11:39Z</time>
        <course>290.107353267038</course>
        <speed>4.54614793829305</speed>
      </trkpt>
      <trkpt lat="43.81664" lon="6.06958">
        <ele>502</ele>
        <time>2012-01-07T03:11:46Z</time>
        <course>271.641536896393</course>
        <speed>4.54539648813007</speed>
      </trkpt>
      <trkpt lat="43.81669" lon="6.07134">
        <ele>508</ele>
        <time>2012-01-07T03:12:17Z</time>
        <course>257.044715268613</course>
        <speed>8.31750132709096</speed>
      </trkpt>
      <trkpt lat="43.8163" lon="6.07306">
        <ele>505</ele>
        <time>2012-01-07T03:12:34Z</time>
        <course>262.379991577803</course>
        <speed>5.08030280915778</speed>
      </trkpt>
      <trkpt lat="43.81618" lon="6.07397">
        <ele>507</ele>
        <time>2012-01-07T03:12:49Z</time>
        <course>269.028604679842</course>
        <speed>5.08101555969228</speed>
      </trkpt>
      <trkpt lat="43.81615" lon="6.07578">
        <ele>512</ele>
        <time>2012-01-07T03:13:17Z</time>
        <course>272.973368758501</course>
        <speed>8.31820764416753</speed>
      </trkpt>
      <trkpt lat="43.81626" lon="6.07792">
        <ele>512</ele>
        <time>2012-01-07T03:13:38Z</time>
        <course>277.221403735047</course>
        <speed>5.85427023229615</speed>
      </trkpt>
      <trkpt lat="43.81631" lon="6.07832">
        <ele>512</ele>
        <time>2012-01-07T03:13:44Z</time>
        <course>282.45954159126</course>
        <speed>5.8561754368487</speed>
      </trkpt>
      <trkpt lat="43.81672" lon="6.0802">
        <ele>516</ele>
        <time>2012-01-07T03:14:10Z</time>
        <course>280.404890650925</course>
        <speed>8.31901787533483</speed>
      </trkpt>
      <trkpt lat="43.81701" lon="6.0818">
        <ele>515</ele>
        <time>2012-01-07T03:14:26Z</time>
        <course>287.698465811346</course>
        <speed>8.31658929321197</speed>
      </trkpt>
      <trkpt lat="43.81718" lon="6.08234">
        <ele>515</ele>
        <time>2012-01-07T03:14:32Z</time>
        <course>292.613905906216</course>
        <speed>8.31580703919983</speed>
      </trkpt>
      <trkpt lat="43.81748" lon="6.08307">
        <ele>515</ele>
        <time>2012-01-07T03:14:40Z</time>
        <course>285.794227266226</course>
        <speed>8.325572586503</speed>
      </trkpt>
      <trkpt lat="43.8176" lon="6.0835">
        <ele>515</ele>
        <time>2012-01-07T03:14:45Z</time>
        <course>274.256411229253</course>
        <speed>8.3161768975243</speed>
      </trkpt>
      <trkpt lat="43.8177" lon="6.08486">
        <ele>515</ele>
        <time>2012-01-07T03:14:58Z</time>
        <course>280.140623301227</course>
        <speed>5.48126038872852</speed>
      </trkpt>
      <trkpt lat="43.81776" lon="6.0852">
        <ele>515</ele>
        <time>2012-01-07T03:15:03Z</time>
        <course>290.611944233312</course>
        <speed>5.47979857016473</speed>
      </trkpt>
      <trkpt lat="43.81812" lon="6.08617">
        <ele>518</ele>
        <time>2012-01-07T03:15:19Z</time>
        <course>297.419226342713</course>
        <speed>7.30770346357289</speed>
      </trkpt>
      <trkpt lat="43.81855" lon="6.08701">
        <ele>518</ele>
        <time>2012-01-07T03:15:30Z</time>
        <course>287.431817602174</course>
        <speed>7.30575893103378</speed>
      </trkpt>
      <trkpt lat="43.81877" lon="6.08772">
        <ele>519</ele>
        <time>2012-01-07T03:15:39Z</time>
        <course>287.431817602174</course>
        <speed>7.30575893103378</speed>
      </trkpt>
      <trkpt lat="43.81877" lon="6.08772">
        <ele>519</ele>
        <time>2012-01-07T03:15:40Z</time>
        <course>296.872073711815</course>
        <speed>7.03738336297375</speed>
      </trkpt>
      <trkpt lat="43.81895" lon="6.08808">
        <ele>519</ele>
        <time>2012-01-07T03:15:45Z</time>
        <course>304.430238019093</course>
        <speed>7.03710399925658</speed>
      </trkpt>
      <trkpt lat="43.81941" lon="6.08876">
        <ele>520</ele>
        <time>2012-01-07T03:15:55Z</time>
        <course>229.599011560723</course>
        <speed>6.36704309817446</speed>
      </trkpt>
      <trkpt lat="43.81852" lon="6.08982">
        <ele>522</ele>
        <time>2012-01-07T03:16:16Z</time>
        <course>259.071916537221</course>
        <speed>6.42583310153899</speed>
      </trkpt>
      <trkpt lat="43.81848" lon="6.09003">
        <ele>522</ele>
        <time>2012-01-07T03:16:18Z</time>
        <course>286.79744202397</course>
        <speed>6.43030376172087</speed>
      </trkpt>
      <trkpt lat="43.81862" lon="6.0905">
        <ele>522</ele>
        <time>2012-01-07T03:16:25Z</time>
        <course>255.78068633201</course>
        <speed>6.44455446605276</speed>
      </trkpt>
      <trkpt lat="43.81859" lon="6.09062">
        <ele>523</ele>
        <time>2012-01-07T03:16:26Z</time>
        <course>182.972485630174</course>
        <speed>6.42189009204977</speed>
      </trkpt>
      <trkpt lat="43.8184" lon="6.09063">
        <ele>523</ele>
        <time>2012-01-07T03:16:30Z</time>
        <course>168.145820070051</course>
        <speed>6.42801173547693</speed>
      </trkpt>
      <trkpt lat="43.81793" lon="6.09053">
        <ele>524</ele>
        <time>2012-01-07T03:16:38Z</time>
        <course>250.369782965065</course>
        <speed>6.4282036679783</speed>
      </trkpt>
      <trkpt lat="43.81742" lon="6.09198">
        <ele>526</ele>
        <time>2012-01-07T03:16:58Z</time>
        <course>258.164361956467</course>
        <speed>8.31947939953923</speed>
      </trkpt>
      <trkpt lat="43.81717" lon="6.09319">
        <ele>526</ele>
        <time>2012-01-07T03:17:10Z</time>
        <course>267.925089248541</course>
        <speed>5.39030930866561</speed>
      </trkpt>
      <trkpt lat="43.81716" lon="6.09347">
        <ele>526</ele>
        <time>2012-01-07T03:17:14Z</time>
        <course>282.799029710433</course>
        <speed>5.39266062072238</speed>
      </trkpt>
      <trkpt lat="43.81729" lon="6.09405">
        <ele>527</ele>
        <time>2012-01-07T03:17:23Z</time>
        <course>302.21612675429</course>
        <speed>5.39352147862092</speed>
      </trkpt>
      <trkpt lat="43.81752" lon="6.09442">
        <ele>529</ele>
        <time>2012-01-07T03:17:31Z</time>
        <course>293.479404865414</course>
        <speed>3.81250167841945</speed>
      </trkpt>
      <trkpt lat="43.81779" lon="6.09505">
        <ele>532</ele>
        <time>2012-01-07T03:17:46Z</time>
        <course>304.048047388807</course>
        <speed>3.81138679114335</speed>
      </trkpt>
      <trkpt lat="43.81805" lon="6.09544">
        <ele>535</ele>
        <time>2012-01-07T03:17:57Z</time>
        <course>260.997090187275</course>
        <speed>7.66469763437232</speed>
      </trkpt>
      <trkpt lat="43.81795" lon="6.09608">
        <ele>535</ele>
        <time>2012-01-07T03:18:04Z</time>
        <course>278.09428860403</course>
        <speed>7.65755329907973</speed>
      </trkpt>
      <trkpt lat="43.81803" lon="6.09665">
        <ele>535</ele>
        <time>2012-01-07T03:18:10Z</time>
        <course>272.439775423532</course>
        <speed>7.66219275902513</speed>
      </trkpt>
      <trkpt lat="43.8181" lon="6.09831">
        <ele>536</ele>
        <time>2012-01-07T03:18:27Z</time>
        <course>270.599167656174</course>
        <speed>8.31914714493044</speed>
      </trkpt>
      <trkpt lat="43.81812" lon="6.10022">
        <ele>536</ele>
        <time>2012-01-07T03:18:46Z</time>
        <course>284.154627602745</course>
        <speed>6.11369376868376</speed>
      </trkpt>
      <trkpt lat="43.81877" lon="6.10283">
        <ele>540</ele>
        <time>2012-01-07T03:19:22Z</time>
        <course>285.655376848444</course>
        <speed>3.46560470729178</speed>
      </trkpt>
      <trkpt lat="43.81903" lon="6.10377">
        <ele>545</ele>
        <time>2012-01-07T03:19:45Z</time>
        <course>288.863653525131</course>
        <speed>3.46585466106166</speed>
      </trkpt>
      <trkpt lat="43.81932" lon="6.10463">
        <ele>551</ele>
        <time>2012-01-07T03:20:07Z</time>
        <course>282.249586721812</course>
        <speed>4.53405607906905</speed>
      </trkpt>
      <trkpt lat="43.81944" lon="6.10519">
        <ele>552</ele>
        <time>2012-01-07T03:20:18Z</time>
        <course>278.415904064904</course>
        <speed>4.53607425434555</speed>
      </trkpt>
      <trkpt lat="43.81957" lon="6.10608">
        <ele>556</ele>
        <time>2012-01-07T03:20:34Z</time>
        <course>274.231175922926</course>
        <speed>8.31837993783314</speed>
      </trkpt>
      <trkpt lat="43.81972" lon="6.10813">
        <ele>556</ele>
        <time>2012-01-07T03:20:54Z</time>
        <course>285.532742558258</course>
        <speed>5.71131578276381</speed>
      </trkpt>
      <trkpt lat="43.82042" lon="6.11068">
        <ele>561</ele>
        <time>2012-01-07T03:21:32Z</time>
        <course>276.317953500412</course>
        <speed>8.31696978239984</speed>
      </trkpt>
      <trkpt lat="43.82056" lon="6.11196">
        <ele>560</ele>
        <time>2012-01-07T03:21:44Z</time>
        <course>279.139926539306</course>
        <speed>5.26313455666568</speed>
      </trkpt>
      <trkpt lat="43.82073" lon="6.11303">
        <ele>562</ele>
        <time>2012-01-07T03:22:01Z</time>
        <course>286.519977351954</course>
        <speed>5.26174589310498</speed>
      </trkpt>
      <trkpt lat="43.82148" lon="6.11559">
        <ele>569</ele>
        <time>2012-01-07T03:22:43Z</time>
        <course>284.459011841918</course>
        <speed>8.31783140331969</speed>
      </trkpt>
      <trkpt lat="43.82202" lon="6.11771">
        <ele>564</ele>
        <time>2012-01-07T03:23:05Z</time>
        <course>282.176333470659</course>
        <speed>8.31875041951228</speed>
      </trkpt>
      <trkpt lat="43.82228" lon="6.11893">
        <ele>559</ele>
        <time>2012-01-07T03:23:17Z</time>
        <course>274.453012538607</course>
        <speed>8.31860018026043</speed>
      </trkpt>
      <trkpt lat="43.82232" lon="6.11945">
        <ele>559</ele>
        <time>2012-01-07T03:23:22Z</time>
        <course>265.651908614043</course>
        <speed>8.32042024763782</speed>
      </trkpt>
      <trkpt lat="43.82226" lon="6.12025">
        <ele>559</ele>
        <time>2012-01-07T03:23:30Z</time>
        <course>281.450586350372</course>
        <speed>4.18592910342352</speed>
      </trkpt>
      <trkpt lat="43.82234" lon="6.12065">
        <ele>560</ele>
        <time>2012-01-07T03:23:38Z</time>
        <course>297.834446051807</course>
        <speed>4.18501652298584</speed>
      </trkpt>
      <trkpt lat="43.82355" lon="6.12297">
        <ele>572</ele>
        <time>2012-01-07T03:24:33Z</time>
        <course>299.932584506049</course>
        <speed>6.68314912990623</speed>
      </trkpt>
      <trkpt lat="43.82446" lon="6.12457">
        <ele>574</ele>
        <time>2012-01-07T03:24:57Z</time>
        <course>304.580393876449</course>
        <speed>7.34874595886308</speed>
      </trkpt>
      <trkpt lat="43.82478" lon="6.12504">
        <ele>574</ele>
        <time>2012-01-07T03:25:04Z</time>
        <course>310.013751865274</course>
        <speed>7.35352916371901</speed>
      </trkpt>
      <trkpt lat="43.82546" lon="6.12586">
        <ele>575</ele>
        <time>2012-01-07T03:25:18Z</time>
        <course>304.016534181046</course>
        <speed>7.14986075212016</speed>
      </trkpt>
      <trkpt lat="43.82556" lon="6.12601">
        <ele>575</ele>
        <time>2012-01-07T03:25:20Z</time>
        <course>280.429434442891</course>
        <speed>7.16076692938438</speed>
      </trkpt>
      <trkpt lat="43.82558" lon="6.12612">
        <ele>575</ele>
        <time>2012-01-07T03:25:21Z</time>
        <course>303.663668640833</course>
        <speed>7.15766837145364</speed>
      </trkpt>
      <trkpt lat="43.82583" lon="6.1265">
        <ele>575</ele>
        <time>2012-01-07T03:25:27Z</time>
        <course>294.494956582886</course>
        <speed>7.16240611201289</speed>
      </trkpt>
      <trkpt lat="43.82669" lon="6.12841">
        <ele>577</ele>
        <time>2012-01-07T03:25:52Z</time>
        <course>286.127312814891</course>
        <speed>5.9432247744163</speed>
      </trkpt>
      <trkpt lat="43.82687" lon="6.12904">
        <ele>578</ele>
        <time>2012-01-07T03:26:01Z</time>
        <course>281.441776811284</course>
        <speed>5.9498238662483</speed>
      </trkpt>
      <trkpt lat="43.82698" lon="6.12959">
        <ele>579</ele>
        <time>2012-01-07T03:26:09Z</time>
        <course>273.991809037583</course>
        <speed>3.74864419538417</speed>
      </trkpt>
      <trkpt lat="43.827" lon="6.12988">
        <ele>580</ele>
        <time>2012-01-07T03:26:15Z</time>
        <course>264.586538151528</course>
        <speed>3.74677255894434</speed>
      </trkpt>
      <trkpt lat="43.8268" lon="6.13202">
        <ele>591</ele>
        <time>2012-01-07T03:27:02Z</time>
        <course>268.532961930873</course>
        <speed>5.71249590544025</speed>
      </trkpt>
      <trkpt lat="43.82677" lon="6.13321">
        <ele>593</ele>
        <time>2012-01-07T03:27:18Z</time>
        <course>273.77824089753</course>
        <speed>5.7096097893971</speed>
      </trkpt>
      <trkpt lat="43.82687" lon="6.13474">
        <ele>596</ele>
        <time>2012-01-07T03:27:40Z</time>
        <course>283.392314412992</course>
        <speed>7.02681380732661</speed>
      </trkpt>
      <trkpt lat="43.82707" lon="6.13559">
        <ele>596</ele>
        <time>2012-01-07T03:27:50Z</time>
        <course>288.641828865129</course>
        <speed>7.02457887803603</speed>
      </trkpt>
      <trkpt lat="43.82721" lon="6.13601">
        <ele>597</ele>
        <time>2012-01-07T03:27:55Z</time>
        <course>295.73070132471</course>
        <speed>5.74683001474875</speed>
      </trkpt>
      <trkpt lat="43.82741" lon="6.13643">
        <ele>597</ele>
        <time>2012-01-07T03:28:02Z</time>
        <course>303.366138253257</course>
        <speed>5.74524516508221</speed>
      </trkpt>
      <trkpt lat="43.82851" lon="6.13812">
        <ele>602</ele>
        <time>2012-01-07T03:28:34Z</time>
        <course>313.174759699686</course>
        <speed>3.94292979283044</speed>
      </trkpt>
      <trkpt lat="43.82966" lon="6.13936">
        <ele>611</ele>
        <time>2012-01-07T03:29:15Z</time>
        <course>321.969170446033</course>
        <speed>8.31652725785638</speed>
      </trkpt>
      <trkpt lat="43.83057" lon="6.14008">
        <ele>608</ele>
        <time>2012-01-07T03:29:29Z</time>
        <course>309.094119313225</course>
        <speed>8.31619769599373</speed>
      </trkpt>
      <trkpt lat="43.83106" lon="6.14069">
        <ele>607</ele>
        <time>2012-01-07T03:29:38Z</time>
        <course>301.551683345465</course>
        <speed>8.31840762784678</speed>
      </trkpt>
      <trkpt lat="43.83157" lon="6.14153">
        <ele>607</ele>
        <time>2012-01-07T03:29:48Z</time>
        <course>311.236132676293</course>
        <speed>8.31634650007921</speed>
      </trkpt>
      <trkpt lat="43.83183" lon="6.14183">
        <ele>606</ele>
        <time>2012-01-07T03:29:53Z</time>
        <course>345.536860649944</course>
        <speed>8.30869140804927</speed>
      </trkpt>
      <trkpt lat="43.83206" lon="6.14189">
        <ele>605</ele>
        <time>2012-01-07T03:29:56Z</time>
        <course>16.0871447920817</course>
        <speed>8.30874915416466</speed>
      </trkpt>
      <trkpt lat="43.8323" lon="6.14182">
        <ele>605</ele>
        <time>2012-01-07T03:29:59Z</time>
        <course>49.877012384662</course>
        <speed>8.31906312988755</speed>
      </trkpt>
      <trkpt lat="43.83245" lon="6.14164">
        <ele>604</ele>
        <time>2012-01-07T03:30:02Z</time>
        <course>61.0439292116547</course>
        <speed>8.31868258933646</speed>
      </trkpt>
      <trkpt lat="43.83274" lon="6.14111">
        <ele>604</ele>
        <time>2012-01-07T03:30:08Z</time>
        <course>37.5646976949645</course>
        <speed>8.30966795493505</speed>
      </trkpt>
      <trkpt lat="43.83292" lon="6.14097">
        <ele>604</ele>
        <time>2012-01-07T03:30:11Z</time>
        <course>17.1726020721043</course>
        <speed>8.32207394890343</speed>
      </trkpt>
      <trkpt lat="43.83308" lon="6.14092">
        <ele>604</ele>
        <time>2012-01-07T03:30:13Z</time>
        <course>346.967888541847</course>
        <speed>8.31483135076994</speed>
      </trkpt>
      <trkpt lat="43.83355" lon="6.14103">
        <ele>604</ele>
        <time>2012-01-07T03:30:20Z</time>
        <course>333.687357938208</course>
        <speed>8.32611476389141</speed>
      </trkpt>
      <trkpt lat="43.83387" lon="6.14119">
        <ele>604</ele>
        <time>2012-01-07T03:30:24Z</time>
        <course>324.759626280635</course>
        <speed>5.01157193325187</speed>
      </trkpt>
      <trkpt lat="43.83422" lon="6.14144">
        <ele>605</ele>
        <time>2012-01-07T03:30:33Z</time>
        <course>312.788213052442</course>
        <speed>5.01206172085834</speed>
      </trkpt>
      <trkpt lat="43.83498" lon="6.14227">
        <ele>609</ele>
        <time>2012-01-07T03:30:55Z</time>
        <course>323.640057269854</course>
        <speed>4.13975523244447</speed>
      </trkpt>
      <trkpt lat="43.83541" lon="6.14259">
        <ele>611</ele>
        <time>2012-01-07T03:31:08Z</time>
        <course>306.018749086515</course>
        <speed>4.14130245960815</speed>
      </trkpt>
      <trkpt lat="43.83582" lon="6.14316">
        <ele>615</ele>
        <time>2012-01-07T03:31:23Z</time>
        <course>310.025427923553</course>
        <speed>5.74553542040673</speed>
      </trkpt>
      <trkpt lat="43.83641" lon="6.14387">
        <ele>616</ele>
        <time>2012-01-07T03:31:38Z</time>
        <course>294.03549289085</course>
        <speed>5.74666684262065</speed>
      </trkpt>
      <trkpt lat="43.83705" lon="6.14532">
        <ele>620</ele>
        <time>2012-01-07T03:32:02Z</time>
        <course>282.215376464446</course>
        <speed>8.31898194112517</speed>
      </trkpt>
      <trkpt lat="43.83726" lon="6.1463">
        <ele>620</ele>
        <time>2012-01-07T03:32:12Z</time>
        <course>290.923066689971</course>
        <speed>8.32020598048668</speed>
      </trkpt>
      <trkpt lat="43.83754" lon="6.14704">
        <ele>620</ele>
        <time>2012-01-07T03:32:20Z</time>
        <course>277.671440651157</course>
        <speed>8.31728567669032</speed>
      </trkpt>
      <trkpt lat="43.83762" lon="6.14764">
        <ele>620</ele>
        <time>2012-01-07T03:32:26Z</time>
        <course>268.606525524074</course>
        <speed>8.31843444435446</speed>
      </trkpt>
      <trkpt lat="43.83758" lon="6.14931">
        <ele>620</ele>
        <time>2012-01-07T03:32:42Z</time>
        <course>270.420116196573</course>
        <speed>8.32150690438837</speed>
      </trkpt>
      <trkpt lat="43.83759" lon="6.15067">
        <ele>620</ele>
        <time>2012-01-07T03:32:55Z</time>
        <course>284.254858327972</course>
        <speed>8.32004867188472</speed>
      </trkpt>
      <trkpt lat="43.838" lon="6.1523">
        <ele>620</ele>
        <time>2012-01-07T03:33:12Z</time>
        <course>278.884790862899</course>
        <speed>8.31630746327827</speed>
      </trkpt>
      <trkpt lat="43.83813" lon="6.15314">
        <ele>620</ele>
        <time>2012-01-07T03:33:20Z</time>
        <course>274.011026032132</course>
        <speed>8.31784627337204</speed>
      </trkpt>
      <trkpt lat="43.83818" lon="6.15386">
        <ele>620</ele>
        <time>2012-01-07T03:33:27Z</time>
        <course>281.423172005584</course>
        <speed>5.88222936542028</speed>
      </trkpt>
      <trkpt lat="43.83828" lon="6.15436">
        <ele>620</ele>
        <time>2012-01-07T03:33:34Z</time>
        <course>285.405217942425</course>
        <speed>5.88189642493179</speed>
      </trkpt>
      <trkpt lat="43.8384" lon="6.1548">
        <ele>621</ele>
        <time>2012-01-07T03:33:40Z</time>
        <course>291.491325538178</course>
        <speed>5.87893469665981</speed>
      </trkpt>
      <trkpt lat="43.83909" lon="6.15657">
        <ele>625</ele>
        <time>2012-01-07T03:34:08Z</time>
        <course>303.2916848944</course>
        <speed>4.73732318302093</speed>
      </trkpt>
      <trkpt lat="43.83935" lon="6.15697">
        <ele>626</ele>
        <time>2012-01-07T03:34:17Z</time>
        <course>315.920404206355</course>
        <speed>4.73929537100379</speed>
      </trkpt>
      <trkpt lat="43.83981" lon="6.15742">
        <ele>629</ele>
        <time>2012-01-07T03:34:30Z</time>
        <course>304.965257564282</course>
        <speed>4.38706018340424</speed>
      </trkpt>
      <trkpt lat="43.84026" lon="6.15807">
        <ele>632</ele>
        <time>2012-01-07T03:34:47Z</time>
        <course>312.42500682337</course>
        <speed>4.39034690480392</speed>
      </trkpt>
      <trkpt lat="43.84045" lon="6.15828">
        <ele>633</ele>
        <time>2012-01-07T03:34:53Z</time>
        <course>334.194684983258</course>
        <speed>4.38798231144519</speed>
      </trkpt>
      <trkpt lat="43.84131" lon="6.1587">
        <ele>638</ele>
        <time>2012-01-07T03:35:16Z</time>
        <course>321.616767394725</course>
        <speed>6.47002043726221</speed>
      </trkpt>
      <trkpt lat="43.84166" lon="6.15898">
        <ele>638</ele>
        <time>2012-01-07T03:35:23Z</time>
        <course>301.515070628802</course>
        <speed>6.46106822124892</speed>
      </trkpt>
      <trkpt lat="43.84183" lon="6.15926">
        <ele>639</ele>
        <time>2012-01-07T03:35:27Z</time>
        <course>293.40137969592</course>
        <speed>6.46767488597016</speed>
      </trkpt>
      <trkpt lat="43.84213" lon="6.15996">
        <ele>640</ele>
        <time>2012-01-07T03:35:37Z</time>
        <course>314.133381349518</course>
        <speed>8.32315952302763</speed>
      </trkpt>
      <trkpt lat="43.84262" lon="6.16047">
        <ele>640</ele>
        <time>2012-01-07T03:35:46Z</time>
        <course>295.329495516143</course>
        <speed>8.31164014547856</speed>
      </trkpt>
      <trkpt lat="43.84277" lon="6.16079">
        <ele>640</ele>
        <time>2012-01-07T03:35:49Z</time>
        <course>311.190639917931</course>
        <speed>8.31571144120875</speed>
      </trkpt>
      <trkpt lat="43.8429" lon="6.16094">
        <ele>640</ele>
        <time>2012-01-07T03:35:51Z</time>
        <course>325.56216126486</course>
        <speed>5.00142533126204</speed>
      </trkpt>
      <trkpt lat="43.84368" lon="6.16148">
        <ele>643</ele>
        <time>2012-01-07T03:36:11Z</time>
        <course>351.734171705022</course>
        <speed>5.00328157015784</speed>
      </trkpt>
      <trkpt lat="43.84443" lon="6.16159">
        <ele>646</ele>
        <time>2012-01-07T03:36:28Z</time>
        <course>322.387632801155</course>
        <speed>4.96398260703792</speed>
      </trkpt>
      <trkpt lat="43.84479" lon="6.16187">
        <ele>647</ele>
        <time>2012-01-07T03:36:37Z</time>
        <course>299.771064735582</course>
        <speed>4.96515304024357</speed>
      </trkpt>
      <trkpt lat="43.84585" lon="6.16374">
        <ele>654</ele>
        <time>2012-01-07T03:37:15Z</time>
        <course>298.551883473303</course>
        <speed>6.24318846909582</speed>
      </trkpt>
      <trkpt lat="43.84844" lon="6.16854">
        <ele>662</ele>
        <time>2012-01-07T03:38:32Z</time>
        <course>294.465675310634</course>
        <speed>6.47020026692971</speed>
      </trkpt>
      <trkpt lat="43.84867" lon="6.16905">
        <ele>662</ele>
        <time>2012-01-07T03:38:40Z</time>
        <course>285.933120404399</course>
        <speed>6.46716692019749</speed>
      </trkpt>
      <trkpt lat="43.84897" lon="6.17011">
        <ele>664</ele>
        <time>2012-01-07T03:38:54Z</time>
        <course>291.975717166421</course>
        <speed>8.31692756709594</speed>
      </trkpt>
      <trkpt lat="43.84919" lon="6.17066">
        <ele>663</ele>
        <time>2012-01-07T03:39:00Z</time>
        <course>303.029538570584</course>
        <speed>8.32384679684489</speed>
      </trkpt>
      <trkpt lat="43.84948" lon="6.17111">
        <ele>663</ele>
        <time>2012-01-07T03:39:06Z</time>
        <course>314.243323251081</course>
        <speed>8.31572656385264</speed>
      </trkpt>
      <trkpt lat="43.85032" lon="6.17198">
        <ele>662</ele>
        <time>2012-01-07T03:39:20Z</time>
        <course>300.146826422333</course>
        <speed>3.19533706874639</speed>
      </trkpt>
      <trkpt lat="43.85051" lon="6.17231">
        <ele>664</ele>
        <time>2012-01-07T03:39:30Z</time>
        <course>291.203029573436</course>
        <speed>3.19524566568585</speed>
      </trkpt>
      <trkpt lat="43.85071" lon="6.17283">
        <ele>668</ele>
        <time>2012-01-07T03:39:45Z</time>
        <course>282.043267720225</course>
        <speed>3.19539004112913</speed>
      </trkpt>
      <trkpt lat="43.85082" lon="6.17335">
        <ele>672</ele>
        <time>2012-01-07T03:39:59Z</time>
        <course>276.551840048989</course>
        <speed>4.71336599530847</speed>
      </trkpt>
      <trkpt lat="43.85104" lon="6.17528">
        <ele>678</ele>
        <time>2012-01-07T03:40:32Z</time>
        <course>282.509733262877</course>
        <speed>5.39815597456385</speed>
      </trkpt>
      <trkpt lat="43.85115" lon="6.17578">
        <ele>679</ele>
        <time>2012-01-07T03:40:40Z</time>
        <course>289.6285353419</course>
        <speed>5.39707865126128</speed>
      </trkpt>
      <trkpt lat="43.8523" lon="6.17903">
        <ele>687</ele>
        <time>2012-01-07T03:41:33Z</time>
        <course>284.350807364123</course>
        <speed>5.32908116470349</speed>
      </trkpt>
      <trkpt lat="43.85247" lon="6.1797">
        <ele>688</ele>
        <time>2012-01-07T03:41:44Z</time>
        <course>275.756862493395</course>
        <speed>5.32926808056766</speed>
      </trkpt>
      <trkpt lat="43.85252" lon="6.1802">
        <ele>689</ele>
        <time>2012-01-07T03:41:52Z</time>
        <course>266.905476904717</course>
        <speed>5.33143178717359</speed>
      </trkpt>
      <trkpt lat="43.85249" lon="6.18076">
        <ele>691</ele>
        <time>2012-01-07T03:42:00Z</time>
        <course>258.406246643777</course>
        <speed>7.51102481096832</speed>
      </trkpt>
      <trkpt lat="43.85237" lon="6.18135">
        <ele>691</ele>
        <time>2012-01-07T03:42:07Z</time>
        <course>254.645953971499</course>
        <speed>7.50553286330918</speed>
      </trkpt>
      <trkpt lat="43.85194" lon="6.18293">
        <ele>692</ele>
        <time>2012-01-07T03:42:25Z</time>
        <course>262.131127383559</course>
        <speed>5.17762167482515</speed>
      </trkpt>
      <trkpt lat="43.85184" lon="6.18366">
        <ele>693</ele>
        <time>2012-01-07T03:42:36Z</time>
        <course>271.280581057847</course>
        <speed>5.17971004112553</speed>
      </trkpt>
      <trkpt lat="43.85186" lon="6.18456">
        <ele>696</ele>
        <time>2012-01-07T03:42:50Z</time>
        <course>282.550293035095</course>
        <speed>5.98597109048016</speed>
      </trkpt>
      <trkpt lat="43.85203" lon="6.18533">
        <ele>697</ele>
        <time>2012-01-07T03:43:01Z</time>
        <course>293.138431620091</course>
        <speed>5.98510490472752</speed>
      </trkpt>
      <trkpt lat="43.85267" lon="6.18684">
        <ele>700</ele>
        <time>2012-01-07T03:43:24Z</time>
        <course>295.270408126867</course>
        <speed>5.36388316372844</speed>
      </trkpt>
      <trkpt lat="43.85498" lon="6.19177">
        <ele>713</ele>
        <time>2012-01-07T03:44:52Z</time>
        <course>294.390579291394</course>
        <speed>8.31896050780579</speed>
      </trkpt>
      <trkpt lat="43.85624" lon="6.19457">
        <ele>699</ele>
        <time>2012-01-07T03:45:24Z</time>
        <course>296.560972738768</course>
        <speed>8.31749234877696</speed>
      </trkpt>
      <trkpt lat="43.85687" lon="6.19584">
        <ele>690</ele>
        <time>2012-01-07T03:45:39Z</time>
        <course>284.140659654705</course>
        <speed>8.31418032716089</speed>
      </trkpt>
      <trkpt lat="43.85702" lon="6.19644">
        <ele>686</ele>
        <time>2012-01-07T03:45:45Z</time>
        <course>293.716208680728</course>
        <speed>8.3177480701058</speed>
      </trkpt>
      <trkpt lat="43.85719" lon="6.19683">
        <ele>683</ele>
        <time>2012-01-07T03:45:49Z</time>
        <course>303.61257902809</course>
        <speed>8.31223882159146</speed>
      </trkpt>
      <trkpt lat="43.8575" lon="6.1973">
        <ele>680</ele>
        <time>2012-01-07T03:45:55Z</time>
        <course>322.057981357215</course>
        <speed>5.43465746204315</speed>
      </trkpt>
      <trkpt lat="43.85792" lon="6.19763">
        <ele>681</ele>
        <time>2012-01-07T03:46:05Z</time>
        <course>298.658230046496</course>
        <speed>5.43192121870747</speed>
      </trkpt>
      <trkpt lat="43.85824" lon="6.19822">
        <ele>683</ele>
        <time>2012-01-07T03:46:16Z</time>
        <course>309.099135084981</course>
        <speed>8.31805115979348</speed>
      </trkpt>
      <trkpt lat="43.85849" lon="6.19853">
        <ele>680</ele>
        <time>2012-01-07T03:46:21Z</time>
        <course>283.090925701012</course>
        <speed>8.3484678190621</speed>
      </trkpt>
      <trkpt lat="43.85852" lon="6.19866">
        <ele>679</ele>
        <time>2012-01-07T03:46:22Z</time>
        <course>237.328673035943</course>
        <speed>8.33695968414875</speed>
      </trkpt>
      <trkpt lat="43.85845" lon="6.19877">
        <ele>678</ele>
        <time>2012-01-07T03:46:23Z</time>
        <course>166.06719769832</course>
        <speed>8.28704486959913</speed>
      </trkpt>
      <trkpt lat="43.85837" lon="6.19875">
        <ele>677</ele>
        <time>2012-01-07T03:46:24Z</time>
        <course>132.733967896861</course>
        <speed>8.31637013504994</speed>
      </trkpt>
      <trkpt lat="43.85771" lon="6.19803">
        <ele>671</ele>
        <time>2012-01-07T03:46:36Z</time>
        <course>148.592128358011</course>
        <speed>8.31783975958579</speed>
      </trkpt>
      <trkpt lat="43.85745" lon="6.19787">
        <ele>668</ele>
        <time>2012-01-07T03:46:39Z</time>
        <course>162.203532224707</course>
        <speed>8.32516023746288</speed>
      </trkpt>
      <trkpt lat="43.85711" lon="6.19776">
        <ele>666</ele>
        <time>2012-01-07T03:46:44Z</time>
        <course>143.346636913414</course>
        <speed>7.11711187491154</speed>
      </trkpt>
      <trkpt lat="43.85695" lon="6.19764">
        <ele>666</ele>
        <time>2012-01-07T03:46:47Z</time>
        <course>128.192734021126</course>
        <speed>7.12974818714171</speed>
      </trkpt>
      <trkpt lat="43.85663" lon="6.19723">
        <ele>666</ele>
        <time>2012-01-07T03:46:54Z</time>
        <course>110.707885604796</course>
        <speed>7.12333992981142</speed>
      </trkpt>
      <trkpt lat="43.85642" lon="6.19667">
        <ele>667</ele>
        <time>2012-01-07T03:47:01Z</time>
        <course>123.901013421215</course>
        <speed>8.34069460197382</speed>
      </trkpt>
      <trkpt lat="43.85634" lon="6.19655">
        <ele>666</ele>
        <time>2012-01-07T03:47:02Z</time>
        <course>133.07796286863</course>
        <speed>8.317583173912</speed>
      </trkpt>
      <trkpt lat="43.8557" lon="6.19586">
        <ele>666</ele>
        <time>2012-01-07T03:47:13Z</time>
        <course>123.904579545472</course>
        <speed>8.32308384111858</speed>
      </trkpt>
      <trkpt lat="43.85546" lon="6.1955">
        <ele>664</ele>
        <time>2012-01-07T03:47:18Z</time>
        <course>174.847144880234</course>
        <speed>8.33294907494505</speed>
      </trkpt>
      <trkpt lat="43.85535" lon="6.19549">
        <ele>663</ele>
        <time>2012-01-07T03:47:19Z</time>
        <course>245.864858718394</course>
        <speed>8.30513460906314</speed>
      </trkpt>
      <trkpt lat="43.85531" lon="6.19558">
        <ele>663</ele>
        <time>2012-01-07T03:47:20Z</time>
        <course>280.386269440814</course>
        <speed>8.33936814675877</speed>
      </trkpt>
      <trkpt lat="43.85533" lon="6.19569">
        <ele>663</ele>
        <time>2012-01-07T03:47:22Z</time>
        <course>303.205934596651</course>
        <speed>8.31938786597788</speed>
      </trkpt>
      <trkpt lat="43.85583" lon="6.19646">
        <ele>659</ele>
        <time>2012-01-07T03:47:32Z</time>
        <course>297.738622082182</course>
        <speed>8.32218634502724</speed>
      </trkpt>
      <trkpt lat="43.85619" lon="6.19715">
        <ele>657</ele>
        <time>2012-01-07T03:47:40Z</time>
        <course>290.181274412664</course>
        <speed>8.31406922846848</speed>
      </trkpt>
      <trkpt lat="43.8565" lon="6.198">
        <ele>653</ele>
        <time>2012-01-07T03:47:49Z</time>
        <course>269.999532737703</course>
        <speed>8.33311594221741</speed>
      </trkpt>
      <trkpt lat="43.8565" lon="6.19813">
        <ele>653</ele>
        <time>2012-01-07T03:47:50Z</time>
        <course>231.118017823109</course>
        <speed>8.31093558323725</speed>
      </trkpt>
      <trkpt lat="43.85646" lon="6.19818">
        <ele>653</ele>
        <time>2012-01-07T03:47:51Z</time>
        <course>180</course>
        <speed>8.3340000003227</speed>
      </trkpt>
      <trkpt lat="43.8564" lon="6.19818">
        <ele>652</ele>
        <time>2012-01-07T03:47:52Z</time>
        <course>128.882587390801</course>
        <speed>8.31094308030313</speed>
      </trkpt>
      <trkpt lat="43.85632" lon="6.19808">
        <ele>652</ele>
        <time>2012-01-07T03:47:53Z</time>
        <course>111.698668724158</course>
        <speed>8.32416280853948</speed>
      </trkpt>
      <trkpt lat="43.85617" lon="6.1977">
        <ele>651</ele>
        <time>2012-01-07T03:47:57Z</time>
        <course>129.318482240649</course>
        <speed>8.32504367858276</speed>
      </trkpt>
      <trkpt lat="43.85604" lon="6.19754">
        <ele>650</ele>
        <time>2012-01-07T03:48:00Z</time>
        <course>142.12596021508</course>
        <speed>8.31881008791858</speed>
      </trkpt>
      <trkpt lat="43.85465" lon="6.19645">
        <ele>643</ele>
        <time>2012-01-07T03:48:21Z</time>
        <course>127.284311724254</course>
        <speed>8.3236564932211</speed>
      </trkpt>
      <trkpt lat="43.85428" lon="6.19596">
        <ele>640</ele>
        <time>2012-01-07T03:48:28Z</time>
        <course>154.319045958881</course>
        <speed>8.31825081084514</speed>
      </trkpt>
      <trkpt lat="43.85395" lon="6.1958">
        <ele>638</ele>
        <time>2012-01-07T03:48:32Z</time>
        <course>143.359698646034</course>
        <speed>8.32033081245471</speed>
      </trkpt>
      <trkpt lat="43.85335" lon="6.19535">
        <ele>635</ele>
        <time>2012-01-07T03:48:42Z</time>
        <course>191.724118197858</course>
        <speed>8.31717459434976</speed>
      </trkpt>
      <trkpt lat="43.85206" lon="6.19562">
        <ele>625</ele>
        <time>2012-01-07T03:48:59Z</time>
        <course>169.781310667979</course>
        <speed>7.61917071710243</speed>
      </trkpt>
      <trkpt lat="43.85151" lon="6.19552">
        <ele>625</ele>
        <time>2012-01-07T03:49:07Z</time>
        <course>185.661991544252</course>
        <speed>7.6307233065775</speed>
      </trkpt>
      <trkpt lat="43.85131" lon="6.19554">
        <ele>625</ele>
        <time>2012-01-07T03:49:10Z</time>
        <course>204.742744838816</course>
        <speed>7.61726673329015</speed>
      </trkpt>
      <trkpt lat="43.85017" lon="6.19607">
        <ele>626</ele>
        <time>2012-01-07T03:49:28Z</time>
        <course>221.446241994765</course>
        <speed>8.32106897575175</speed>
      </trkpt>
      <trkpt lat="43.84962" lon="6.19656">
        <ele>617</ele>
        <time>2012-01-07T03:49:36Z</time>
        <course>228.833508800565</course>
        <speed>8.31533186104194</speed>
      </trkpt>
      <trkpt lat="43.84936" lon="6.19686">
        <ele>613</ele>
        <time>2012-01-07T03:49:41Z</time>
        <course>248.166349929149</course>
        <speed>8.31628843270713</speed>
      </trkpt>
      <trkpt lat="43.84909" lon="6.19754">
        <ele>606</ele>
        <time>2012-01-07T03:49:48Z</time>
        <course>235.573853394974</course>
        <speed>8.32312042674132</speed>
      </trkpt>
      <trkpt lat="43.84873" lon="6.19807">
        <ele>601</ele>
        <time>2012-01-07T03:49:55Z</time>
        <course>249.071408907811</course>
        <speed>8.3172295121404</speed>
      </trkpt>
      <trkpt lat="43.84837" lon="6.19902">
        <ele>600</ele>
        <time>2012-01-07T03:50:06Z</time>
        <course>242.672135806057</course>
        <speed>8.317500655295</speed>
      </trkpt>
      <trkpt lat="43.84773" lon="6.20027">
        <ele>599</ele>
        <time>2012-01-07T03:50:20Z</time>
        <course>239.313020882676</course>
        <speed>8.31899113016857</speed>
      </trkpt>
      <trkpt lat="43.84619" lon="6.20289">
        <ele>590</ele>
        <time>2012-01-07T03:50:53Z</time>
        <course>254.217937711418</course>
        <speed>8.33022184385701</speed>
      </trkpt>
      <trkpt lat="43.84612" lon="6.20314">
        <ele>589</ele>
        <time>2012-01-07T03:50:56Z</time>
        <course>278.349955541972</course>
        <speed>8.31136995308487</speed>
      </trkpt>
      <trkpt lat="43.8462" lon="6.20369">
        <ele>587</ele>
        <time>2012-01-07T03:51:01Z</time>
        <course>249.601036722862</course>
        <speed>8.30015978127157</speed>
      </trkpt>
      <trkpt lat="43.84613" lon="6.20388">
        <ele>587</ele>
        <time>2012-01-07T03:51:03Z</time>
        <course>223.646725927978</course>
        <speed>8.31603420199694</speed>
      </trkpt>
      <trkpt lat="43.84505" lon="6.20492">
        <ele>582</ele>
        <time>2012-01-07T03:51:21Z</time>
        <course>235.893884957316</course>
        <speed>8.31723596680171</speed>
      </trkpt>
      <trkpt lat="43.8445" lon="6.20574">
        <ele>580</ele>
        <time>2012-01-07T03:51:31Z</time>
        <course>251.522269538736</course>
        <speed>8.31601174069367</speed>
      </trkpt>
      <trkpt lat="43.84405" lon="6.2071">
        <ele>579</ele>
        <time>2012-01-07T03:51:46Z</time>
        <course>246.934396507251</course>
        <speed>8.32117571118066</speed>
      </trkpt>
      <trkpt lat="43.8437" lon="6.20793">
        <ele>578</ele>
        <time>2012-01-07T03:51:55Z</time>
        <course>252.11007526848</course>
        <speed>8.31692749143057</speed>
      </trkpt>
      <trkpt lat="43.84293" lon="6.21034">
        <ele>578</ele>
        <time>2012-01-07T03:52:20Z</time>
        <course>254.518463372508</course>
        <speed>7.00385542696112</speed>
      </trkpt>
      <trkpt lat="43.84259" lon="6.21158">
        <ele>579</ele>
        <time>2012-01-07T03:52:36Z</time>
        <course>251.168019730383</course>
        <speed>8.3198732267201</speed>
      </trkpt>
      <trkpt lat="43.84233" lon="6.21235">
        <ele>577</ele>
        <time>2012-01-07T03:52:44Z</time>
        <course>258.428039995612</course>
        <speed>8.31379180575511</speed>
      </trkpt>
      <trkpt lat="43.84218" lon="6.21309">
        <ele>577</ele>
        <time>2012-01-07T03:52:51Z</time>
        <course>229.119274517154</course>
        <speed>8.29860240021454</speed>
      </trkpt>
      <trkpt lat="43.84212" lon="6.21316">
        <ele>577</ele>
        <time>2012-01-07T03:52:52Z</time>
        <course>260.444677505739</course>
        <speed>8.32986675270633</speed>
      </trkpt>
      <trkpt lat="43.84208" lon="6.2134">
        <ele>577</ele>
        <time>2012-01-07T03:52:55Z</time>
        <course>272.513274259859</course>
        <speed>8.31843379435029</speed>
      </trkpt>
      <trkpt lat="43.84209" lon="6.21363">
        <ele>577</ele>
        <time>2012-01-07T03:52:57Z</time>
        <course>289.978512488543</course>
        <speed>8.32474301750928</speed>
      </trkpt>
      <trkpt lat="43.84218" lon="6.21388">
        <ele>577</ele>
        <time>2012-01-07T03:53:00Z</time>
        <course>327.591512779771</course>
        <speed>8.31783993999378</speed>
      </trkpt>
      <trkpt lat="43.84296" lon="6.21438">
        <ele>577</ele>
        <time>2012-01-07T03:53:11Z</time>
        <course>342.587257176693</course>
        <speed>8.31980495580524</speed>
      </trkpt>
      <trkpt lat="43.84356" lon="6.21457">
        <ele>577</ele>
        <time>2012-01-07T03:53:19Z</time>
        <course>326.976957188519</course>
        <speed>8.3171681039248</speed>
      </trkpt>
      <trkpt lat="43.84388" lon="6.21478">
        <ele>577</ele>
        <time>2012-01-07T03:53:24Z</time>
        <course>304.828039930056</course>
        <speed>8.31938633951689</speed>
      </trkpt>
      <trkpt lat="43.84439" lon="6.21552">
        <ele>576</ele>
        <time>2012-01-07T03:53:34Z</time>
        <course>284.96082056492</course>
        <speed>8.31681715256473</speed>
      </trkpt>
      <trkpt lat="43.84448" lon="6.21586">
        <ele>576</ele>
        <time>2012-01-07T03:53:37Z</time>
        <course>312.884703277563</course>
        <speed>6.15053218934918</speed>
      </trkpt>
      <trkpt lat="43.84471" lon="6.21611">
        <ele>576</ele>
        <time>2012-01-07T03:53:43Z</time>
        <course>292.670977474867</course>
        <speed>6.14557784243483</speed>
      </trkpt>
      <trkpt lat="43.84483" lon="6.2164">
        <ele>577</ele>
        <time>2012-01-07T03:53:47Z</time>
        <course>287.394555803809</course>
        <speed>6.15607772904523</speed>
      </trkpt>
      <trkpt lat="43.84492" lon="6.21669">
        <ele>577</ele>
        <time>2012-01-07T03:53:51Z</time>
        <course>278.204978628281</course>
        <speed>6.14936351428129</speed>
      </trkpt>
      <trkpt lat="43.84497" lon="6.21704">
        <ele>578</ele>
        <time>2012-01-07T03:53:56Z</time>
        <course>271.699351719288</course>
        <speed>5.66960338250445</speed>
      </trkpt>
      <trkpt lat="43.84498" lon="6.21738">
        <ele>578</ele>
        <time>2012-01-07T03:54:01Z</time>
        <course>262.805752006023</course>
        <speed>5.67227893124496</speed>
      </trkpt>
      <trkpt lat="43.84491" lon="6.21794">
        <ele>579</ele>
        <time>2012-01-07T03:54:09Z</time>
        <course>250.289050197604</course>
        <speed>5.6679781579709</speed>
      </trkpt>
      <trkpt lat="43.84469" lon="6.21856">
        <ele>581</ele>
        <time>2012-01-07T03:54:18Z</time>
        <course>233.352362707388</course>
        <speed>3.28006590994862</speed>
      </trkpt>
      <trkpt lat="43.84427" lon="6.21913">
        <ele>586</ele>
        <time>2012-01-07T03:54:38Z</time>
        <course>214.567184671715</course>
        <speed>3.27912665077981</speed>
      </trkpt>
      <trkpt lat="43.84404" lon="6.21929">
        <ele>588</ele>
        <time>2012-01-07T03:54:47Z</time>
        <course>204.134066555792</course>
        <speed>3.27933781441088</speed>
      </trkpt>
      <trkpt lat="43.84362" lon="6.21948">
        <ele>592</ele>
        <time>2012-01-07T03:55:02Z</time>
        <course>196.434594118701</course>
        <speed>8.32056991089204</speed>
      </trkpt>
      <trkpt lat="43.84268" lon="6.21976">
        <ele>592</ele>
        <time>2012-01-07T03:55:15Z</time>
        <course>204.561772158383</course>
        <speed>4.92716584349741</speed>
      </trkpt>
      <trkpt lat="43.84242" lon="6.21988">
        <ele>593</ele>
        <time>2012-01-07T03:55:21Z</time>
        <course>218.553311775429</course>
        <speed>4.92792784027717</speed>
      </trkpt>
      <trkpt lat="43.84201" lon="6.22021">
        <ele>594</ele>
        <time>2012-01-07T03:55:32Z</time>
        <course>233.784338324022</course>
        <speed>4.92739633154149</speed>
      </trkpt>
      <trkpt lat="43.84143" lon="6.22101">
        <ele>598</ele>
        <time>2012-01-07T03:55:50Z</time>
        <course>215.755415897721</course>
        <speed>4.0656205196762</speed>
      </trkpt>
      <trkpt lat="43.84121" lon="6.22117">
        <ele>599</ele>
        <time>2012-01-07T03:55:57Z</time>
        <course>227.953659763604</course>
        <speed>4.06740192939943</speed>
      </trkpt>
      <trkpt lat="43.84096" lon="6.22145">
        <ele>601</ele>
        <time>2012-01-07T03:56:06Z</time>
        <course>220.139920011006</course>
        <speed>4.06851039998715</speed>
      </trkpt>
      <trkpt lat="43.84042" lon="6.22191">
        <ele>605</ele>
        <time>2012-01-07T03:56:23Z</time>
        <course>196.034240724714</course>
        <speed>8.32017464029336</speed>
      </trkpt>
      <trkpt lat="43.84011" lon="6.222">
        <ele>604</ele>
        <time>2012-01-07T03:56:27Z</time>
        <course>182.024703171822</course>
        <speed>8.32190410486786</speed>
      </trkpt>
      <trkpt lat="43.83983" lon="6.22201">
        <ele>603</ele>
        <time>2012-01-07T03:56:31Z</time>
        <course>163.06119925222</course>
        <speed>8.31296404897565</speed>
      </trkpt>
      <trkpt lat="43.83957" lon="6.22193">
        <ele>603</ele>
        <time>2012-01-07T03:56:34Z</time>
        <course>139.376053918962</course>
        <speed>8.32910516592319</speed>
      </trkpt>
      <trkpt lat="43.83942" lon="6.2218">
        <ele>603</ele>
        <time>2012-01-07T03:56:37Z</time>
        <course>125.180686444322</course>
        <speed>6.5414196653749</speed>
      </trkpt>
      <trkpt lat="43.83912" lon="6.22137">
        <ele>603</ele>
        <time>2012-01-07T03:56:44Z</time>
        <course>150.509164635512</course>
        <speed>6.53875219566902</speed>
      </trkpt>
      <trkpt lat="43.83891" lon="6.22125">
        <ele>603</ele>
        <time>2012-01-07T03:56:48Z</time>
        <course>196.936682574276</course>
        <speed>6.54738350337128</speed>
      </trkpt>
      <trkpt lat="43.83865" lon="6.22133">
        <ele>604</ele>
        <time>2012-01-07T03:56:53Z</time>
        <course>239.565857454448</course>
        <speed>6.53865127721072</speed>
      </trkpt>
      <trkpt lat="43.8384" lon="6.22176">
        <ele>605</ele>
        <time>2012-01-07T03:56:59Z</time>
        <course>204.220105776341</course>
        <speed>8.2989631723913</speed>
      </trkpt>
      <trkpt lat="43.83829" lon="6.22181">
        <ele>603</ele>
        <time>2012-01-07T03:57:01Z</time>
        <course>167.597006474712</course>
        <speed>8.30201431927576</speed>
      </trkpt>
      <trkpt lat="43.8382" lon="6.22179">
        <ele>602</ele>
        <time>2012-01-07T03:57:02Z</time>
        <course>138.023904319613</course>
        <speed>8.30494641724561</speed>
      </trkpt>
      <trkpt lat="43.83809" lon="6.22169">
        <ele>601</ele>
        <time>2012-01-07T03:57:04Z</time>
        <course>115.248215871862</course>
        <speed>8.32527715531394</speed>
      </trkpt>
      <trkpt lat="43.83795" lon="6.22139">
        <ele>598</ele>
        <time>2012-01-07T03:57:07Z</time>
        <course>143.172849912112</course>
        <speed>8.31984436672121</speed>
      </trkpt>
      <trkpt lat="43.83758" lon="6.22111">
        <ele>594</ele>
        <time>2012-01-07T03:57:13Z</time>
        <course>154.826276268912</course>
        <speed>8.31583902532383</speed>
      </trkpt>
      <trkpt lat="43.83718" lon="6.22092">
        <ele>588</ele>
        <time>2012-01-07T03:57:19Z</time>
        <course>163.179380263302</course>
        <speed>8.31742055351293</speed>
      </trkpt>
      <trkpt lat="43.83646" lon="6.2207">
        <ele>578</ele>
        <time>2012-01-07T03:57:28Z</time>
        <course>180</course>
        <speed>8.3217621144494</speed>
      </trkpt>
      <trkpt lat="43.83629" lon="6.2207">
        <ele>576</ele>
        <time>2012-01-07T03:57:31Z</time>
        <course>205.732437417679</course>
        <speed>8.32152176864337</speed>
      </trkpt>
      <trkpt lat="43.8359" lon="6.22089">
        <ele>573</ele>
        <time>2012-01-07T03:57:36Z</time>
        <course>188.560785705918</course>
        <speed>8.32074740225326</speed>
      </trkpt>
      <trkpt lat="43.83544" lon="6.22096">
        <ele>570</ele>
        <time>2012-01-07T03:57:42Z</time>
        <course>230.048811458245</course>
        <speed>8.3123598544467</speed>
      </trkpt>
      <trkpt lat="43.83515" lon="6.22131">
        <ele>565</ele>
        <time>2012-01-07T03:57:48Z</time>
        <course>251.729792974447</course>
        <speed>8.32289637672772</speed>
      </trkpt>
      <trkpt lat="43.83499" lon="6.2218">
        <ele>561</ele>
        <time>2012-01-07T03:57:53Z</time>
        <course>214.08923806944</course>
        <speed>8.31951187839633</speed>
      </trkpt>
      <trkpt lat="43.8348" lon="6.22193">
        <ele>559</ele>
        <time>2012-01-07T03:57:56Z</time>
        <course>192.857742540541</course>
        <speed>8.32066850016417</speed>
      </trkpt>
      <trkpt lat="43.83454" lon="6.22199">
        <ele>557</ele>
        <time>2012-01-07T03:57:59Z</time>
        <course>217.101996564042</course>
        <speed>8.32965137552952</speed>
      </trkpt>
      <trkpt lat="43.83437" lon="6.22212">
        <ele>556</ele>
        <time>2012-01-07T03:58:02Z</time>
        <course>230.699719399438</course>
        <speed>8.32301027809368</speed>
      </trkpt>
      <trkpt lat="43.8342" lon="6.22233">
        <ele>555</ele>
        <time>2012-01-07T03:58:05Z</time>
        <course>191.189104395178</course>
        <speed>8.31632987164927</speed>
      </trkpt>
      <trkpt lat="43.8341" lon="6.22235">
        <ele>554</ele>
        <time>2012-01-07T03:58:06Z</time>
        <course>125.837681271252</course>
        <speed>8.31190952626792</speed>
      </trkpt>
      <trkpt lat="43.834" lon="6.22221">
        <ele>554</ele>
        <time>2012-01-07T03:58:08Z</time>
        <course>82.4880476995075</course>
        <speed>8.32663190680453</speed>
      </trkpt>
      <trkpt lat="43.83403" lon="6.22198">
        <ele>553</ele>
        <time>2012-01-07T03:58:10Z</time>
        <course>53.7944565803481</course>
        <speed>8.31752062802829</speed>
      </trkpt>
      <trkpt lat="43.83466" lon="6.22111">
        <ele>548</ele>
        <time>2012-01-07T03:58:22Z</time>
        <course>95.5006942951707</course>
        <speed>8.32290466744727</speed>
      </trkpt>
      <trkpt lat="43.83464" lon="6.2209">
        <ele>547</ele>
        <time>2012-01-07T03:58:24Z</time>
        <course>125.835093779465</course>
        <speed>8.31186979163536</speed>
      </trkpt>
      <trkpt lat="43.83459" lon="6.22083">
        <ele>547</ele>
        <time>2012-01-07T03:58:25Z</time>
        <course>175.649090800134</course>
        <speed>8.31483980391881</speed>
      </trkpt>
      <trkpt lat="43.83446" lon="6.22082">
        <ele>546</ele>
        <time>2012-01-07T03:58:27Z</time>
        <course>211.71925750057</course>
        <speed>8.31666263834757</speed>
      </trkpt>
      <trkpt lat="43.8335" lon="6.22142">
        <ele>541</ele>
        <time>2012-01-07T03:58:41Z</time>
        <course>224.680473300119</course>
        <speed>8.31714057454322</speed>
      </trkpt>
      <trkpt lat="43.83331" lon="6.22161">
        <ele>540</ele>
        <time>2012-01-07T03:58:44Z</time>
        <course>233.763745343067</course>
        <speed>8.32231895085582</speed>
      </trkpt>
      <trkpt lat="43.83281" lon="6.2223">
        <ele>539</ele>
        <time>2012-01-07T03:58:53Z</time>
        <course>237.822997385042</course>
        <speed>4.29143759628485</speed>
      </trkpt>
      <trkpt lat="43.83156" lon="6.22431">
        <ele>549</ele>
        <time>2012-01-07T03:59:43Z</time>
        <course>231.805784057847</course>
        <speed>8.3207822224244</speed>
      </trkpt>
      <trkpt lat="43.83128" lon="6.22467">
        <ele>545</ele>
        <time>2012-01-07T03:59:48Z</time>
        <course>218.047408895881</course>
        <speed>8.32287614419299</speed>
      </trkpt>
      <trkpt lat="43.83104" lon="6.22486">
        <ele>543</ele>
        <time>2012-01-07T03:59:52Z</time>
        <course>202.96011635201</course>
        <speed>8.32480709977897</speed>
      </trkpt>
      <trkpt lat="43.83069" lon="6.22501">
        <ele>540</ele>
        <time>2012-01-07T03:59:57Z</time>
        <course>181.011211482322</course>
        <speed>8.31983462201723</speed>
      </trkpt>
      <trkpt lat="43.83013" lon="6.22502">
        <ele>534</ele>
        <time>2012-01-07T04:00:04Z</time>
        <course>171.963727380228</course>
        <speed>8.31872064619494</speed>
      </trkpt>
      <trkpt lat="43.82922" lon="6.22489">
        <ele>525</ele>
        <time>2012-01-07T04:00:16Z</time>
        <course>165.881561038094</course>
        <speed>8.31832675166818</speed>
      </trkpt>
      <trkpt lat="43.82812" lon="6.22461">
        <ele>523</ele>
        <time>2012-01-07T04:00:31Z</time>
        <course>161.769516106071</course>
        <speed>5.2345534285374</speed>
      </trkpt>
      <trkpt lat="43.828" lon="6.22457">
        <ele>523</ele>
        <time>2012-01-07T04:00:34Z</time>
        <course>204.186607676773</course>
        <speed>5.25045327804222</speed>
      </trkpt>
      <trkpt lat="43.82789" lon="6.22462">
        <ele>523</ele>
        <time>2012-01-07T04:00:36Z</time>
        <course>180</course>
        <speed>5.24369188062336</speed>
      </trkpt>
      <trkpt lat="43.82721" lon="6.22462">
        <ele>526</ele>
        <time>2012-01-07T04:00:51Z</time>
        <course>186.114113342314</course>
        <speed>6.8832868288761</speed>
      </trkpt>
      <trkpt lat="43.82638" lon="6.22471">
        <ele>526</ele>
        <time>2012-01-07T04:01:04Z</time>
        <course>179.36415171636</course>
        <speed>6.88239729855658</speed>
      </trkpt>
      <trkpt lat="43.82549" lon="6.2247">
        <ele>528</ele>
        <time>2012-01-07T04:01:19Z</time>
        <course>175.161263382666</course>
        <speed>8.31724483519296</speed>
      </trkpt>
      <trkpt lat="43.82479" lon="6.22464">
        <ele>519</ele>
        <time>2012-01-07T04:01:28Z</time>
        <course>160.739171313469</course>
        <speed>8.31969468675067</speed>
      </trkpt>
      <trkpt lat="43.82414" lon="6.22441">
        <ele>512</ele>
        <time>2012-01-07T04:01:37Z</time>
        <course>175.42241345321</course>
        <speed>8.32013860652976</speed>
      </trkpt>
      <trkpt lat="43.82377" lon="6.22438">
        <ele>510</ele>
        <time>2012-01-07T04:01:42Z</time>
        <course>202.286355911952</course>
        <speed>8.3190720389737</speed>
      </trkpt>
      <trkpt lat="43.82324" lon="6.2246">
        <ele>509</ele>
        <time>2012-01-07T04:01:49Z</time>
        <course>211.572067947493</course>
        <speed>7.20371578933055</speed>
      </trkpt>
      <trkpt lat="43.82112" lon="6.22592">
        <ele>511</ele>
        <time>2012-01-07T04:02:25Z</time>
        <course>180</course>
        <speed>7.07127272691154</speed>
      </trkpt>
      <trkpt lat="43.82105" lon="6.22592">
        <ele>511</ele>
        <time>2012-01-07T04:02:26Z</time>
        <course>209.845468114786</course>
        <speed>7.05450097946266</speed>
      </trkpt>
      <trkpt lat="43.82019" lon="6.22642">
        <ele>512</ele>
        <time>2012-01-07T04:02:41Z</time>
        <course>203.682076704625</course>
        <speed>8.31326279466072</speed>
      </trkpt>
      <trkpt lat="43.81992" lon="6.22654">
        <ele>512</ele>
        <time>2012-01-07T04:02:45Z</time>
        <course>191.164283923146</course>
        <speed>8.32518051670454</speed>
      </trkpt>
      <trkpt lat="43.81957" lon="6.22661">
        <ele>512</ele>
        <time>2012-01-07T04:02:49Z</time>
        <course>180</course>
        <speed>8.31953125004172</speed>
      </trkpt>
      <trkpt lat="43.81842" lon="6.22661">
        <ele>512</ele>
        <time>2012-01-07T04:03:05Z</time>
        <course>176.441107043011</course>
        <speed>8.31881983782118</speed>
      </trkpt>
      <trkpt lat="43.81414" lon="6.22634">
        <ele>489</ele>
        <time>2012-01-07T04:04:02Z</time>
        <course>178.934414824155</course>
        <speed>8.31907601855395</speed>
      </trkpt>
      <trkpt lat="43.81361" lon="6.22633">
        <ele>486</ele>
        <time>2012-01-07T04:04:09Z</time>
        <course>191.152885617259</course>
        <speed>8.31638865969086</speed>
      </trkpt>
      <trkpt lat="43.81331" lon="6.22639">
        <ele>485</ele>
        <time>2012-01-07T04:04:13Z</time>
        <course>205.240491863816</course>
        <speed>8.31901279317502</speed>
      </trkpt>
      <trkpt lat="43.81308" lon="6.2265">
        <ele>484</ele>
        <time>2012-01-07T04:04:16Z</time>
        <course>216.160828432004</course>
        <speed>4.02318936480103</speed>
      </trkpt>
      <trkpt lat="43.81219" lon="6.22716">
        <ele>490</ele>
        <time>2012-01-07T04:04:44Z</time>
        <course>203.677793372995</course>
        <speed>8.31890293300691</speed>
      </trkpt>
      <trkpt lat="43.80918" lon="6.2285">
        <ele>477</ele>
        <time>2012-01-07T04:05:27Z</time>
        <course>218.568330560928</course>
        <speed>5.96586401606694</speed>
      </trkpt>
      <trkpt lat="43.80897" lon="6.22867">
        <ele>477</ele>
        <time>2012-01-07T04:05:31Z</time>
        <course>230.049366651397</course>
        <speed>5.96314897701473</speed>
      </trkpt>
      <trkpt lat="43.80864" lon="6.22907">
        <ele>478</ele>
        <time>2012-01-07T04:05:39Z</time>
        <course>237.601550813275</course>
        <speed>5.96256766725109</speed>
      </trkpt>
      <trkpt lat="43.80849" lon="6.22931">
        <ele>479</ele>
        <time>2012-01-07T04:05:43Z</time>
        <course>247.702256936439</course>
        <speed>5.03524226563157</speed>
      </trkpt>
      <trkpt lat="43.80828" lon="6.22983">
        <ele>480</ele>
        <time>2012-01-07T04:05:53Z</time>
        <course>256.227816292517</course>
        <speed>5.03526475080681</speed>
      </trkpt>
      <trkpt lat="43.80821" lon="6.23012">
        <ele>481</ele>
        <time>2012-01-07T04:05:58Z</time>
        <course>264.385060405048</course>
        <speed>5.03649303659677</speed>
      </trkpt>
      <trkpt lat="43.80815" lon="6.23074">
        <ele>483</ele>
        <time>2012-01-07T04:06:08Z</time>
        <course>273.483742753509</course>
        <speed>2.35148213065133</speed>
      </trkpt>
      <trkpt lat="43.80818" lon="6.23124">
        <ele>488</ele>
        <time>2012-01-07T04:06:25Z</time>
        <course>284.069566268669</course>
        <speed>2.35122180179886</speed>
      </trkpt>
      <trkpt lat="43.80859" lon="6.2329">
        <ele>506</ele>
        <time>2012-01-07T04:07:25Z</time>
        <course>272.002209638909</course>
        <speed>2.26696824765231</speed>
      </trkpt>
      <trkpt lat="43.80861" lon="6.23348">
        <ele>512</ele>
        <time>2012-01-07T04:07:45Z</time>
        <course>261.746342562598</course>
        <speed>2.26773854051046</speed>
      </trkpt>
      <trkpt lat="43.80858" lon="6.23369">
        <ele>514</ele>
        <time>2012-01-07T04:07:53Z</time>
        <course>251.300664183516</course>
        <speed>2.26640534135329</speed>
      </trkpt>
      <trkpt lat="43.80845" lon="6.23408">
        <ele>519</ele>
        <time>2012-01-07T04:08:08Z</time>
        <course>235.573362700062</course>
        <speed>2.26746427780426</speed>
      </trkpt>
      <trkpt lat="43.80818" lon="6.23448">
        <ele>525</ele>
        <time>2012-01-07T04:08:27Z</time>
        <course>220.752679399964</course>
        <speed>3.32707690470705</speed>
      </trkpt>
      <trkpt lat="43.80802" lon="6.23462">
        <ele>526</ele>
        <time>2012-01-07T04:08:34Z</time>
        <course>204.236680643472</course>
        <speed>3.32687157768927</speed>
      </trkpt>
      <trkpt lat="43.80767" lon="6.23478">
        <ele>529</ele>
        <time>2012-01-07T04:08:46Z</time>
        <course>178.589774739834</course>
        <speed>3.32748753210902</speed>
      </trkpt>
      <trkpt lat="43.80727" lon="6.23477">
        <ele>533</ele>
        <time>2012-01-07T04:08:59Z</time>
        <course>161.890635447915</course>
        <speed>8.3175897039108</speed>
      </trkpt>
      <trkpt lat="43.80402" lon="6.23369">
        <ele>525</ele>
        <time>2012-01-07T04:09:44Z</time>
        <course>193.821683298759</course>
        <speed>8.31999633972852</speed>
      </trkpt>
      <trkpt lat="43.80374" lon="6.23376">
        <ele>519</ele>
        <time>2012-01-07T04:09:48Z</time>
        <course>217.843174221302</course>
        <speed>8.32171183743686</speed>
      </trkpt>
      <trkpt lat="43.80355" lon="6.23391">
        <ele>515</ele>
        <time>2012-01-07T04:09:51Z</time>
        <course>235.881901803429</course>
        <speed>8.31291600597933</speed>
      </trkpt>
      <trkpt lat="43.80335" lon="6.23421">
        <ele>510</ele>
        <time>2012-01-07T04:09:55Z</time>
        <course>256.465093528861</course>
        <speed>8.309344944292</speed>
      </trkpt>
      <trkpt lat="43.80326" lon="6.23459">
        <ele>505</ele>
        <time>2012-01-07T04:09:59Z</time>
        <course>275.275505160404</course>
        <speed>8.32532154261449</speed>
      </trkpt>
      <trkpt lat="43.80331" lon="6.23514">
        <ele>503</ele>
        <time>2012-01-07T04:10:04Z</time>
        <course>296.083292706509</course>
        <speed>8.32011811389237</speed>
      </trkpt>
      <trkpt lat="43.80411" lon="6.2368">
        <ele>500</ele>
        <time>2012-01-07T04:10:23Z</time>
        <course>289.204991233821</course>
        <speed>8.30884391627459</speed>
      </trkpt>
      <trkpt lat="43.80423" lon="6.23715">
        <ele>499</ele>
        <time>2012-01-07T04:10:27Z</time>
        <course>278.256758925176</course>
        <speed>8.31379159280385</speed>
      </trkpt>
      <trkpt lat="43.80429" lon="6.23757">
        <ele>499</ele>
        <time>2012-01-07T04:10:31Z</time>
        <course>267.881235060581</course>
        <speed>8.31711694018095</speed>
      </trkpt>
      <trkpt lat="43.80427" lon="6.23812">
        <ele>499</ele>
        <time>2012-01-07T04:10:36Z</time>
        <course>262.278653672069</course>
        <speed>8.32178481194416</speed>
      </trkpt>
      <trkpt lat="43.80411" lon="6.23932">
        <ele>495</ele>
        <time>2012-01-07T04:10:48Z</time>
        <course>271.635875653792</course>
        <speed>8.318663561958</speed>
      </trkpt>
      <trkpt lat="43.80413" lon="6.24003">
        <ele>494</ele>
        <time>2012-01-07T04:10:55Z</time>
        <course>278.701086389626</course>
        <speed>8.31791083963124</speed>
      </trkpt>
      <trkpt lat="43.80424" lon="6.24076">
        <ele>493</ele>
        <time>2012-01-07T04:11:02Z</time>
        <course>273.871337567118</course>
        <speed>8.32000985454907</speed>
      </trkpt>
      <trkpt lat="43.80429" lon="6.24151">
        <ele>493</ele>
        <time>2012-01-07T04:11:09Z</time>
        <course>266.7421031164</course>
        <speed>8.31778284530427</speed>
      </trkpt>
      <trkpt lat="43.80419" lon="6.2433">
        <ele>478</ele>
        <time>2012-01-07T04:11:27Z</time>
        <course>272.289071153483</course>
        <speed>8.31611840662956</speed>
      </trkpt>
      <trkpt lat="43.80425" lon="6.24482">
        <ele>477</ele>
        <time>2012-01-07T04:11:41Z</time>
        <course>263.609205981653</course>
        <speed>6.73343576041492</speed>
      </trkpt>
      <trkpt lat="43.80402" lon="6.24691">
        <ele>479</ele>
        <time>2012-01-07T04:12:07Z</time>
        <course>256.992958735411</course>
        <speed>3.46826479488664</speed>
      </trkpt>
      <trkpt lat="43.80387" lon="6.24757">
        <ele>482</ele>
        <time>2012-01-07T04:12:23Z</time>
        <course>240.201195454567</course>
        <speed>3.4694691088769</speed>
      </trkpt>
      <trkpt lat="43.80307" lon="6.24899">
        <ele>493</ele>
        <time>2012-01-07T04:13:04Z</time>
        <course>259.598393115785</course>
        <speed>6.54808128301548</speed>
      </trkpt>
      <trkpt lat="43.80294" lon="6.24971">
        <ele>493</ele>
        <time>2012-01-07T04:13:13Z</time>
        <course>231.981801037655</course>
        <speed>6.53957999826013</speed>
      </trkpt>
      <trkpt lat="43.80284" lon="6.24984">
        <ele>494</ele>
        <time>2012-01-07T04:13:16Z</time>
        <course>206.194618538383</course>
        <speed>6.54899621976099</speed>
      </trkpt>
      <trkpt lat="43.80258" lon="6.24997">
        <ele>494</ele>
        <time>2012-01-07T04:13:20Z</time>
        <course>155.081217343534</course>
        <speed>6.55235746162474</speed>
      </trkpt>
      <trkpt lat="43.80222" lon="6.2498">
        <ele>495</ele>
        <time>2012-01-07T04:13:27Z</time>
        <course>142.914366608718</course>
        <speed>8.31724239743286</speed>
      </trkpt>
      <trkpt lat="43.80114" lon="6.24897">
        <ele>489</ele>
        <time>2012-01-07T04:13:43Z</time>
        <course>126.706807818338</course>
        <speed>5.00005922156709</speed>
      </trkpt>
      <trkpt lat="43.80103" lon="6.24882">
        <ele>489</ele>
        <time>2012-01-07T04:13:47Z</time>
        <course>113.623205555631</course>
        <speed>4.99847211257834</speed>
      </trkpt>
      <trkpt lat="43.80014" lon="6.24675">
        <ele>496</ele>
        <time>2012-01-07T04:14:25Z</time>
        <course>119.735084545446</course>
        <speed>3.82990505604389</speed>
      </trkpt>
      <trkpt lat="43.79973" lon="6.24602">
        <ele>500</ele>
        <time>2012-01-07T04:14:45Z</time>
        <course>129.239938581572</course>
        <speed>3.83096880520084</speed>
      </trkpt>
      <trkpt lat="43.7992" lon="6.24536">
        <ele>505</ele>
        <time>2012-01-07T04:15:05Z</time>
        <course>140.487685139853</course>
        <speed>4.41750395356992</speed>
      </trkpt>
      <trkpt lat="43.79746" lon="6.2439">
        <ele>515</ele>
        <time>2012-01-07T04:15:57Z</time>
        <course>121.044274910807</course>
        <speed>8.31946756252703</speed>
      </trkpt>
      <trkpt lat="43.79704" lon="6.24319">
        <ele>506</ele>
        <time>2012-01-07T04:16:05Z</time>
        <course>105.234436229729</course>
        <speed>8.31974403156057</speed>
      </trkpt>
      <trkpt lat="43.79685" lon="6.24248">
        <ele>499</ele>
        <time>2012-01-07T04:16:13Z</time>
        <course>94.4778963689766</course>
        <speed>8.32210842192927</speed>
      </trkpt>
      <trkpt lat="43.79681" lon="6.24196">
        <ele>498</ele>
        <time>2012-01-07T04:16:18Z</time>
        <course>83.8267772484924</course>
        <speed>8.31860944563383</speed>
      </trkpt>
      <trkpt lat="43.79718" lon="6.23849">
        <ele>493</ele>
        <time>2012-01-07T04:16:52Z</time>
        <course>90.0018982723933</course>
        <speed>7.02532395975972</speed>
      </trkpt>
      <trkpt lat="43.79718" lon="6.23813">
        <ele>493</ele>
        <time>2012-01-07T04:16:56Z</time>
        <course>99.9506531813461</course>
        <speed>7.01292011746181</speed>
      </trkpt>
      <trkpt lat="43.79713" lon="6.23784">
        <ele>493</ele>
        <time>2012-01-07T04:16:59Z</time>
        <course>112.145400964715</course>
        <speed>7.02670357115139</speed>
      </trkpt>
      <trkpt lat="43.79705" lon="6.23764">
        <ele>493</ele>
        <time>2012-01-07T04:17:02Z</time>
        <course>132.371985169278</course>
        <speed>7.02475042110591</speed>
      </trkpt>
      <trkpt lat="43.79679" lon="6.23735">
        <ele>494</ele>
        <time>2012-01-07T04:17:07Z</time>
        <course>161.050286214394</course>
        <speed>5.66850023987843</speed>
      </trkpt>
      <trkpt lat="43.79596" lon="6.23706">
        <ele>496</ele>
        <time>2012-01-07T04:17:24Z</time>
        <course>148.255218423552</course>
        <speed>5.67220366319879</speed>
      </trkpt>
      <trkpt lat="43.79569" lon="6.23689">
        <ele>497</ele>
        <time>2012-01-07T04:17:30Z</time>
        <course>123.19523762797</course>
        <speed>8.30768817236251</speed>
      </trkpt>
      <trkpt lat="43.79551" lon="6.23661">
        <ele>494</ele>
        <time>2012-01-07T04:17:33Z</time>
        <course>104.627354588173</course>
        <speed>8.31984784080645</speed>
      </trkpt>
      <trkpt lat="43.79541" lon="6.23622">
        <ele>492</ele>
        <time>2012-01-07T04:17:37Z</time>
        <course>86.4371584460022</course>
        <speed>8.32133169321811</speed>
      </trkpt>
      <trkpt lat="43.79544" lon="6.23573">
        <ele>489</ele>
        <time>2012-01-07T04:17:42Z</time>
        <course>73.5624403478418</course>
        <speed>8.31946843309118</speed>
      </trkpt>
      <trkpt lat="43.79573" lon="6.23473">
        <ele>484</ele>
        <time>2012-01-07T04:17:52Z</time>
        <course>77.4301368591103</course>
        <speed>6.36085074968789</speed>
      </trkpt>
      <trkpt lat="43.79589" lon="6.234">
        <ele>484</ele>
        <time>2012-01-07T04:18:02Z</time>
        <course>88.5803762636784</course>
        <speed>6.36438033500744</speed>
      </trkpt>
      <trkpt lat="43.7959" lon="6.23359">
        <ele>485</ele>
        <time>2012-01-07T04:18:07Z</time>
        <course>102.02623440573</course>
        <speed>6.36701222248243</speed>
      </trkpt>
      <trkpt lat="43.79581" lon="6.23316">
        <ele>486</ele>
        <time>2012-01-07T04:18:13Z</time>
        <course>118.317014382164</course>
        <speed>5.58690695541589</speed>
      </trkpt>
      <trkpt lat="43.79554" lon="6.23265">
        <ele>487</ele>
        <time>2012-01-07T04:18:22Z</time>
        <course>134.335101632346</course>
        <speed>5.58899263539344</speed>
      </trkpt>
      <trkpt lat="43.7953" lon="6.2324">
        <ele>488</ele>
        <time>2012-01-07T04:18:28Z</time>
        <course>157.372734257236</course>
        <speed>5.58230208674936</speed>
      </trkpt>
      <trkpt lat="43.79497" lon="6.23226">
        <ele>489</ele>
        <time>2012-01-07T04:18:35Z</time>
        <course>170.455526104874</course>
        <speed>4.61325609708051</speed>
      </trkpt>
      <trkpt lat="43.79386" lon="6.23207">
        <ele>494</ele>
        <time>2012-01-07T04:19:02Z</time>
        <course>155.373689196769</course>
        <speed>5.1277763785865</speed>
      </trkpt>
      <trkpt lat="43.79371" lon="6.232">
        <ele>494</ele>
        <time>2012-01-07T04:19:05Z</time>
        <course>126.685952939848</course>
        <speed>5.12895521483163</speed>
      </trkpt>
      <trkpt lat="43.79341" lon="6.23159">
        <ele>496</ele>
        <time>2012-01-07T04:19:14Z</time>
        <course>229.252889611225</course>
        <speed>5.12766264526401</speed>
      </trkpt>
      <trkpt lat="43.79308" lon="6.23198">
        <ele>497</ele>
        <time>2012-01-07T04:19:24Z</time>
        <course>205.480754472176</course>
        <speed>5.12900608178577</speed>
      </trkpt>
      <trkpt lat="43.7924" lon="6.23231">
        <ele>500</ele>
        <time>2012-01-07T04:19:39Z</time>
        <course>235.827302304397</course>
        <speed>4.12892969374099</speed>
      </trkpt>
      <trkpt lat="43.79228" lon="6.23249">
        <ele>501</ele>
        <time>2012-01-07T04:19:44Z</time>
        <course>235.827302304397</course>
        <speed>4.12892969374099</speed>
      </trkpt>
      <trkpt lat="43.79228" lon="6.23249">
        <ele>501</ele>
        <time>2012-01-07T04:19:45Z</time>
        <course>285.000619047202</course>
        <speed>5.44345732301711</speed>
      </trkpt>
      <trkpt lat="43.79233" lon="6.23268">
        <ele>501</ele>
        <time>2012-01-07T04:19:48Z</time>
        <course>326.787737233537</course>
        <speed>5.44047884571174</speed>
      </trkpt>
      <trkpt lat="43.79242" lon="6.23274">
        <ele>501</ele>
        <time>2012-01-07T04:19:50Z</time>
        <course>3.30630793588699</course>
        <speed>5.44882479178456</speed>
      </trkpt>
      <trkpt lat="43.79276" lon="6.23272">
        <ele>502</ele>
        <time>2012-01-07T04:19:57Z</time>
        <course>347.688029169846</course>
        <speed>5.44551090789228</speed>
      </trkpt>
      <trkpt lat="43.79303" lon="6.23278">
        <ele>503</ele>
        <time>2012-01-07T04:20:02Z</time>
        <course>336.506425817828</course>
        <speed>5.44689463779103</speed>
      </trkpt>
      <trkpt lat="43.79416" lon="6.23328">
        <ele>507</ele>
        <time>2012-01-07T04:20:27Z</time>
        <course>345.099998455479</course>
        <speed>4.86111627591354</speed>
      </trkpt>
      <trkpt lat="43.79464" lon="6.23341">
        <ele>508</ele>
        <time>2012-01-07T04:20:38Z</time>
        <course>301.412303978263</course>
        <speed>4.85873367074842</speed>
      </trkpt>
      <trkpt lat="43.79473" lon="6.23356">
        <ele>509</ele>
        <time>2012-01-07T04:20:41Z</time>
        <course>266.762557522306</course>
        <speed>4.85917207391951</speed>
      </trkpt>
      <trkpt lat="43.79472" lon="6.23374">
        <ele>510</ele>
        <time>2012-01-07T04:20:44Z</time>
        <course>235.839748562277</course>
        <speed>4.86467531254045</speed>
      </trkpt>
      <trkpt lat="43.79466" lon="6.23383">
        <ele>510</ele>
        <time>2012-01-07T04:20:46Z</time>
        <course>196.421746750394</course>
        <speed>4.85878290696086</speed>
      </trkpt>
      <trkpt lat="43.79456" lon="6.23386">
        <ele>510</ele>
        <time>2012-01-07T04:20:48Z</time>
        <course>167.313130858211</course>
        <speed>4.86172897856986</speed>
      </trkpt>
      <trkpt lat="43.79408" lon="6.23375">
        <ele>512</ele>
        <time>2012-01-07T04:21:00Z</time>
        <course>187.39168290032</course>
        <speed>4.86118644538114</speed>
      </trkpt>
      <trkpt lat="43.79355" lon="6.23382">
        <ele>514</ele>
        <time>2012-01-07T04:21:12Z</time>
        <course>192.907909406792</course>
        <speed>4.86410624054495</speed>
      </trkpt>
      <trkpt lat="43.79325" lon="6.23389">
        <ele>516</ele>
        <time>2012-01-07T04:21:19Z</time>
        <course>200.968160014889</course>
        <speed>3.74020709722781</speed>
      </trkpt>
      <trkpt lat="43.79243" lon="6.23421">
        <ele>521</ele>
        <time>2012-01-07T04:21:44Z</time>
        <course>188.723009756377</course>
        <speed>3.73917066811096</speed>
      </trkpt>
      <trkpt lat="43.79211" lon="6.23426">
        <ele>524</ele>
        <time>2012-01-07T04:21:54Z</time>
        <course>222.631286965334</course>
        <speed>2.61165516159538</speed>
      </trkpt>
      <trkpt lat="43.79195" lon="6.23441">
        <ele>526</ele>
        <time>2012-01-07T04:22:02Z</time>
        <course>260.134183552604</course>
        <speed>2.61163937141673</speed>
      </trkpt>
      <trkpt lat="43.79188" lon="6.23482">
        <ele>530</ele>
        <time>2012-01-07T04:22:15Z</time>
        <course>236.615137011229</course>
        <speed>2.61235915900961</speed>
      </trkpt>
      <trkpt lat="43.79177" lon="6.23499">
        <ele>532</ele>
        <time>2012-01-07T04:22:22Z</time>
        <course>201.939568677548</course>
        <speed>2.61104960605348</speed>
      </trkpt>
      <trkpt lat="43.79138" lon="6.23515">
        <ele>537</ele>
        <time>2012-01-07T04:22:39Z</time>
        <course>215.038634753617</course>
        <speed>3.02167474011355</speed>
      </trkpt>
      <trkpt lat="43.79082" lon="6.23555">
        <ele>543</ele>
        <time>2012-01-07T04:23:02Z</time>
        <course>198.119408337873</course>
        <speed>3.02092493888676</speed>
      </trkpt>
      <trkpt lat="43.79058" lon="6.23563">
        <ele>545</ele>
        <time>2012-01-07T04:23:11Z</time>
        <course>192.305250226909</course>
        <speed>3.02167693548947</speed>
      </trkpt>
      <trkpt lat="43.79013" lon="6.23573">
        <ele>550</ele>
        <time>2012-01-07T04:23:28Z</time>
        <course>184.741258818949</course>
        <speed>3.94617417313231</speed>
      </trkpt>
      <trkpt lat="43.78942" lon="6.23579">
        <ele>554</ele>
        <time>2012-01-07T04:23:48Z</time>
        <course>198.113638029118</course>
        <speed>3.94587157300359</speed>
      </trkpt>
      <trkpt lat="43.78885" lon="6.23598">
        <ele>558</ele>
        <time>2012-01-07T04:24:05Z</time>
        <course>153.86492357293</course>
        <speed>8.30650743532715</speed>
      </trkpt>
      <trkpt lat="43.78867" lon="6.23589">
        <ele>557</ele>
        <time>2012-01-07T04:24:07Z</time>
        <course>123.867623085812</course>
        <speed>8.32109296927229</speed>
      </trkpt>
      <trkpt lat="43.7884" lon="6.23548">
        <ele>555</ele>
        <time>2012-01-07T04:24:12Z</time>
        <course>166.850205522008</course>
        <speed>8.30785586715169</speed>
      </trkpt>
      <trkpt lat="43.78819" lon="6.23543">
        <ele>554</ele>
        <time>2012-01-07T04:24:15Z</time>
        <course>201.428385292619</course>
        <speed>8.30891040881732</speed>
      </trkpt>
      <trkpt lat="43.78794" lon="6.23553">
        <ele>553</ele>
        <time>2012-01-07T04:24:19Z</time>
        <course>217.041784272141</course>
        <speed>3.00153941522986</speed>
      </trkpt>
      <trkpt lat="43.78768" lon="6.23573">
        <ele>555</ele>
        <time>2012-01-07T04:24:30Z</time>
        <course>228.940155956548</course>
        <speed>3.00123561905489</speed>
      </trkpt>
      <trkpt lat="43.78721" lon="6.23628">
        <ele>562</ele>
        <time>2012-01-07T04:24:53Z</time>
        <course>198.107852890082</course>
        <speed>3.28111095882008</speed>
      </trkpt>
      <trkpt lat="43.78709" lon="6.23632">
        <ele>563</ele>
        <time>2012-01-07T04:24:57Z</time>
        <course>175.452535273393</course>
        <speed>3.28427219053766</speed>
      </trkpt>
      <trkpt lat="43.78672" lon="6.23629">
        <ele>566</ele>
        <time>2012-01-07T04:25:09Z</time>
        <course>209.45508145627</course>
        <speed>3.28462450228542</speed>
      </trkpt>
      <trkpt lat="43.78639" lon="6.23648">
        <ele>569</ele>
        <time>2012-01-07T04:25:21Z</time>
        <course>193.777534385406</course>
        <speed>3.28242105345897</speed>
      </trkpt>
      <trkpt lat="43.78619" lon="6.23653">
        <ele>571</ele>
        <time>2012-01-07T04:25:28Z</time>
        <course>165.342775909376</course>
        <speed>8.32061867164585</speed>
      </trkpt>
      <trkpt lat="43.78604" lon="6.23649">
        <ele>570</ele>
        <time>2012-01-07T04:25:30Z</time>
        <course>142.967673042148</course>
        <speed>8.30331358709958</speed>
      </trkpt>
      <trkpt lat="43.78591" lon="6.23639">
        <ele>569</ele>
        <time>2012-01-07T04:25:32Z</time>
        <course>126.564581999524</course>
        <speed>8.31584205755315</speed>
      </trkpt>
      <trkpt lat="43.78527" lon="6.23551">
        <ele>565</ele>
        <time>2012-01-07T04:25:44Z</time>
        <course>160.909246615872</course>
        <speed>4.351334457689</speed>
      </trkpt>
      <trkpt lat="43.7851" lon="6.23545">
        <ele>565</ele>
        <time>2012-01-07T04:25:49Z</time>
        <course>193.773690258308</course>
        <speed>4.34754349900171</speed>
      </trkpt>
      <trkpt lat="43.78474" lon="6.23554">
        <ele>567</ele>
        <time>2012-01-07T04:25:58Z</time>
        <course>147.40299683592</course>
        <speed>4.34596598416997</speed>
      </trkpt>
      <trkpt lat="43.78451" lon="6.23539">
        <ele>569</ele>
        <time>2012-01-07T04:26:05Z</time>
        <course>130.202160823757</course>
        <speed>4.34804147766431</speed>
      </trkpt>
      <trkpt lat="43.78422" lon="6.23504">
        <ele>571</ele>
        <time>2012-01-07T04:26:15Z</time>
        <course>115.056460164732</course>
        <speed>8.3233042239011</speed>
      </trkpt>
      <trkpt lat="43.78411" lon="6.2348">
        <ele>569</ele>
        <time>2012-01-07T04:26:17Z</time>
        <course>94.4869113466944</course>
        <speed>8.32386056251366</speed>
      </trkpt>
      <trkpt lat="43.7841" lon="6.23467">
        <ele>569</ele>
        <time>2012-01-07T04:26:19Z</time>
        <course>69.6510110055091</course>
        <speed>8.30314947368515</speed>
      </trkpt>
      <trkpt lat="43.78414" lon="6.23456">
        <ele>569</ele>
        <time>2012-01-07T04:26:20Z</time>
        <course>19.2995017891766</course>
        <speed>8.32414262230783</speed>
      </trkpt>
      <trkpt lat="43.78456" lon="6.23441">
        <ele>566</ele>
        <time>2012-01-07T04:26:26Z</time>
        <course>44.9759661530414</course>
        <speed>8.31963990388696</speed>
      </trkpt>
      <trkpt lat="43.78563" lon="6.23332">
        <ele>560</ele>
        <time>2012-01-07T04:26:43Z</time>
        <course>59.8728436117868</course>
        <speed>2.54905895388108</speed>
      </trkpt>
      <trkpt lat="43.786" lon="6.23267">
        <ele>567</ele>
        <time>2012-01-07T04:27:09Z</time>
        <course>74.790536670449</course>
        <speed>2.55025556254539</speed>
      </trkpt>
      <trkpt lat="43.78604" lon="6.23252">
        <ele>568</ele>
        <time>2012-01-07T04:27:14Z</time>
        <course>95.2967634890933</course>
        <speed>2.54841577033192</speed>
      </trkpt>
      <trkpt lat="43.78602" lon="6.2323">
        <ele>570</ele>
        <time>2012-01-07T04:27:21Z</time>
        <course>135.556805431893</course>
        <speed>2.54909313168974</speed>
      </trkpt>
      <trkpt lat="43.78585" lon="6.23213">
        <ele>573</ele>
        <time>2012-01-07T04:27:30Z</time>
        <course>181.370206441709</course>
        <speed>2.54987477270571</speed>
      </trkpt>
      <trkpt lat="43.78544" lon="6.23214">
        <ele>578</ele>
        <time>2012-01-07T04:27:48Z</time>
        <course>151.730523224388</course>
        <speed>2.54979818656846</speed>
      </trkpt>
      <trkpt lat="43.78513" lon="6.23197">
        <ele>583</ele>
        <time>2012-01-07T04:28:03Z</time>
        <course>174.905787905642</course>
        <speed>2.4998973375804</speed>
      </trkpt>
      <trkpt lat="43.78502" lon="6.23196">
        <ele>584</ele>
        <time>2012-01-07T04:28:08Z</time>
        <course>201.415916759177</course>
        <speed>2.50166925847921</speed>
      </trkpt>
      <trkpt lat="43.78472" lon="6.23208">
        <ele>588</ele>
        <time>2012-01-07T04:28:22Z</time>
        <course>215.90362715985</course>
        <speed>2.50157505817257</speed>
      </trkpt>
      <trkpt lat="43.78407" lon="6.23256">
        <ele>598</ele>
        <time>2012-01-07T04:28:54Z</time>
        <course>185.599257064158</course>
        <speed>4.02199321303312</speed>
      </trkpt>
      <trkpt lat="43.78387" lon="6.23258">
        <ele>599</ele>
        <time>2012-01-07T04:29:00Z</time>
        <course>152.571442150802</course>
        <speed>4.02051660396107</speed>
      </trkpt>
      <trkpt lat="43.78353" lon="6.2324">
        <ele>601</ele>
        <time>2012-01-07T04:29:10Z</time>
        <course>205.021793818608</course>
        <speed>4.02212198077949</speed>
      </trkpt>
      <trkpt lat="43.78311" lon="6.2326">
        <ele>604</ele>
        <time>2012-01-07T04:29:22Z</time>
        <course>147.615541919934</course>
        <speed>8.30677765142358</speed>
      </trkpt>
      <trkpt lat="43.78294" lon="6.23249">
        <ele>604</ele>
        <time>2012-01-07T04:29:25Z</time>
        <course>101.101600663012</course>
        <speed>8.33427323842903</speed>
      </trkpt>
      <trkpt lat="43.78289" lon="6.23223">
        <ele>604</ele>
        <time>2012-01-07T04:29:27Z</time>
        <course>120.97033984899</course>
        <speed>8.3374417189981</speed>
      </trkpt>
      <trkpt lat="43.78279" lon="6.23206">
        <ele>604</ele>
        <time>2012-01-07T04:29:29Z</time>
        <course>147.294213489505</course>
        <speed>8.30956016499484</speed>
      </trkpt>
      <trkpt lat="43.7825" lon="6.23187">
        <ele>604</ele>
        <time>2012-01-07T04:29:34Z</time>
        <course>169.896332099889</course>
        <speed>8.32977069953199</speed>
      </trkpt>
      <trkpt lat="43.78228" lon="6.23183">
        <ele>604</ele>
        <time>2012-01-07T04:29:37Z</time>
        <course>206.105799138812</course>
        <speed>2.86743889073389</speed>
      </trkpt>
      <trkpt lat="43.78218" lon="6.23188">
        <ele>605</ele>
        <time>2012-01-07T04:29:41Z</time>
        <course>231.56250958851</course>
        <speed>2.86452085945149</speed>
      </trkpt>
      <trkpt lat="43.78204" lon="6.23206">
        <ele>607</ele>
        <time>2012-01-07T04:29:48Z</time>
        <course>248.569533964266</course>
        <speed>2.86588686345772</speed>
      </trkpt>
      <trkpt lat="43.78189" lon="6.23245">
        <ele>610</ele>
        <time>2012-01-07T04:30:01Z</time>
        <course>232.571292802423</course>
        <speed>2.86513565011948</speed>
      </trkpt>
      <trkpt lat="43.78177" lon="6.23261">
        <ele>612</ele>
        <time>2012-01-07T04:30:07Z</time>
        <course>208.754207954711</course>
        <speed>2.86605994043171</speed>
      </trkpt>
      <trkpt lat="43.78127" lon="6.23289">
        <ele>618</ele>
        <time>2012-01-07T04:30:28Z</time>
        <course>180</course>
        <speed>8.33400000024994</speed>
      </trkpt>
      <trkpt lat="43.78115" lon="6.23289">
        <ele>617</ele>
        <time>2012-01-07T04:30:30Z</time>
        <course>130.942958446999</course>
        <speed>8.31717147902842</speed>
      </trkpt>
      <trkpt lat="43.78098" lon="6.23269">
        <ele>616</ele>
        <time>2012-01-07T04:30:33Z</time>
        <course>101.730553476928</course>
        <speed>8.32091870829195</speed>
      </trkpt>
      <trkpt lat="43.78086" lon="6.2321">
        <ele>615</ele>
        <time>2012-01-07T04:30:38Z</time>
        <course>132.857684304891</course>
        <speed>8.29828680494299</speed>
      </trkpt>
      <trkpt lat="43.78076" lon="6.23199">
        <ele>615</ele>
        <time>2012-01-07T04:30:40Z</time>
        <course>165.040000818894</course>
        <speed>8.30527226192256</speed>
      </trkpt>
      <trkpt lat="43.78065" lon="6.23196">
        <ele>615</ele>
        <time>2012-01-07T04:30:42Z</time>
        <course>211.479655172249</course>
        <speed>3.63231323285677</speed>
      </trkpt>
      <trkpt lat="43.78049" lon="6.23206">
        <ele>616</ele>
        <time>2012-01-07T04:30:47Z</time>
        <course>244.773159285938</course>
        <speed>3.63008700414626</speed>
      </trkpt>
      <trkpt lat="43.78037" lon="6.23232">
        <ele>617</ele>
        <time>2012-01-07T04:30:54Z</time>
        <course>228.8155316783</course>
        <speed>3.63219819043782</speed>
      </trkpt>
      <trkpt lat="43.78025" lon="6.23246">
        <ele>618</ele>
        <time>2012-01-07T04:30:59Z</time>
        <course>172.216798707948</course>
        <speed>3.62989159768344</speed>
      </trkpt>
      <trkpt lat="43.77982" lon="6.2324">
        <ele>622</ele>
        <time>2012-01-07T04:31:12Z</time>
        <course>202.202526014004</course>
        <speed>3.6262309605263</speed>
      </trkpt>
      <trkpt lat="43.7797" lon="6.23245">
        <ele>623</ele>
        <time>2012-01-07T04:31:16Z</time>
        <course>238.389616980259</course>
        <speed>2.70064721604298</speed>
      </trkpt>
      <trkpt lat="43.77926" lon="6.23318">
        <ele>630</ele>
        <time>2012-01-07T04:31:44Z</time>
        <course>214.976183156054</course>
        <speed>2.70120115270896</speed>
      </trkpt>
      <trkpt lat="43.77912" lon="6.23328">
        <ele>632</ele>
        <time>2012-01-07T04:31:50Z</time>
        <course>168.349586928143</course>
        <speed>2.69978652699696</speed>
      </trkpt>
      <trkpt lat="43.77893" lon="6.23324">
        <ele>635</ele>
        <time>2012-01-07T04:31:58Z</time>
        <course>114.8972255624</course>
        <speed>5.66771624662974</speed>
      </trkpt>
      <trkpt lat="43.77888" lon="6.23313">
        <ele>635</ele>
        <time>2012-01-07T04:32:00Z</time>
        <course>99.6603088293602</course>
        <speed>5.66004527036905</speed>
      </trkpt>
      <trkpt lat="43.77881" lon="6.23271">
        <ele>636</ele>
        <time>2012-01-07T04:32:06Z</time>
        <course>130.827421414003</course>
        <speed>5.65785812054151</speed>
      </trkpt>
      <trkpt lat="43.7787" lon="6.23258">
        <ele>636</ele>
        <time>2012-01-07T04:32:09Z</time>
        <course>175.430045380724</course>
        <speed>5.66095440463271</speed>
      </trkpt>
      <trkpt lat="43.77772" lon="6.2325">
        <ele>639</ele>
        <time>2012-01-07T04:32:28Z</time>
        <course>220.004580218849</course>
        <speed>4.14854024231746</speed>
      </trkpt>
      <trkpt lat="43.77758" lon="6.23262">
        <ele>639</ele>
        <time>2012-01-07T04:32:33Z</time>
        <course>258.652649406093</course>
        <speed>4.14630396343239</speed>
      </trkpt>
      <trkpt lat="43.77747" lon="6.23318">
        <ele>642</ele>
        <time>2012-01-07T04:32:44Z</time>
        <course>246.35902445163</course>
        <speed>4.14672961018773</speed>
      </trkpt>
      <trkpt lat="43.77741" lon="6.23332">
        <ele>642</ele>
        <time>2012-01-07T04:32:47Z</time>
        <course>216.289743540041</course>
        <speed>4.14317762555524</speed>
      </trkpt>
      <trkpt lat="43.77733" lon="6.23338">
        <ele>643</ele>
        <time>2012-01-07T04:32:50Z</time>
        <course>185.591706659958</course>
        <speed>4.1416087974171</speed>
      </trkpt>
      <trkpt lat="43.77723" lon="6.23339">
        <ele>643</ele>
        <time>2012-01-07T04:32:52Z</time>
        <course>143.711568648204</course>
        <speed>4.14318076832362</speed>
      </trkpt>
      <trkpt lat="43.77711" lon="6.2333">
        <ele>644</ele>
        <time>2012-01-07T04:32:56Z</time>
        <course>125.166608093182</course>
        <speed>4.14637334860223</speed>
      </trkpt>
      <trkpt lat="43.77671" lon="6.23272">
        <ele>648</ele>
        <time>2012-01-07T04:33:12Z</time>
        <course>144.551535839444</course>
        <speed>2.51475579736378</speed>
      </trkpt>
      <trkpt lat="43.7766" lon="6.23264">
        <ele>649</ele>
        <time>2012-01-07T04:33:17Z</time>
        <course>180</course>
        <speed>2.51665505224057</speed>
      </trkpt>
      <trkpt lat="43.77647" lon="6.23264">
        <ele>651</ele>
        <time>2012-01-07T04:33:23Z</time>
        <course>199.636989875621</course>
        <speed>2.5167589545854</speed>
      </trkpt>
      <trkpt lat="43.77551" lon="6.23299">
        <ele>664</ele>
        <time>2012-01-07T04:34:07Z</time>
        <course>216.735618399468</course>
        <speed>2.39582335422586</speed>
      </trkpt>
      <trkpt lat="43.77492" lon="6.23344">
        <ele>673</ele>
        <time>2012-01-07T04:34:38Z</time>
        <course>191.390149843978</course>
        <speed>2.39623558697749</speed>
      </trkpt>
      <trkpt lat="43.77458" lon="6.23351">
        <ele>678</ele>
        <time>2012-01-07T04:34:54Z</time>
        <course>158.626085927727</course>
        <speed>5.45575788785575</speed>
      </trkpt>
      <trkpt lat="43.77423" lon="6.23337">
        <ele>679</ele>
        <time>2012-01-07T04:35:01Z</time>
        <course>147.548377627213</course>
        <speed>5.45558012183756</speed>
      </trkpt>
      <trkpt lat="43.77363" lon="6.23298">
        <ele>681</ele>
        <time>2012-01-07T04:35:15Z</time>
        <course>127.475825703994</course>
        <speed>6.25337971304124</speed>
      </trkpt>
      <trkpt lat="43.77354" lon="6.23286">
        <ele>681</ele>
        <time>2012-01-07T04:35:17Z</time>
        <course>111.52275934644</course>
        <speed>6.25514359308785</speed>
      </trkpt>
      <trkpt lat="43.77327" lon="6.23216">
        <ele>682</ele>
        <time>2012-01-07T04:35:27Z</time>
        <course>138.992460531669</course>
        <speed>6.25452749994829</speed>
      </trkpt>
      <trkpt lat="43.77318" lon="6.23208">
        <ele>682</ele>
        <time>2012-01-07T04:35:29Z</time>
        <course>175.696877010403</course>
        <speed>6.26314586835804</speed>
      </trkpt>
      <trkpt lat="43.77305" lon="6.23207">
        <ele>682</ele>
        <time>2012-01-07T04:35:31Z</time>
        <course>226.659190439852</course>
        <speed>6.24708530198391</speed>
      </trkpt>
      <trkpt lat="43.77293" lon="6.2322">
        <ele>683</ele>
        <time>2012-01-07T04:35:34Z</time>
        <course>259.772214616393</course>
        <speed>3.82614711845771</speed>
      </trkpt>
      <trkpt lat="43.7729" lon="6.23237">
        <ele>683</ele>
        <time>2012-01-07T04:35:38Z</time>
        <course>283.823251806551</course>
        <speed>3.82203226560283</speed>
      </trkpt>
      <trkpt lat="43.77303" lon="6.23291">
        <ele>686</ele>
        <time>2012-01-07T04:35:50Z</time>
        <course>275.610922541429</course>
        <speed>3.82308250051635</speed>
      </trkpt>
      <trkpt lat="43.77308" lon="6.23343">
        <ele>689</ele>
        <time>2012-01-07T04:36:01Z</time>
        <course>299.205423985813</course>
        <speed>6.21170489381402</speed>
      </trkpt>
      <trkpt lat="43.77372" lon="6.2346">
        <ele>691</ele>
        <time>2012-01-07T04:36:20Z</time>
        <course>287.834106452414</course>
        <speed>2.71649354769736</speed>
      </trkpt>
      <trkpt lat="43.77389" lon="6.23514">
        <ele>695</ele>
        <time>2012-01-07T04:36:37Z</time>
        <course>295.831758221379</course>
        <speed>2.71519966932688</speed>
      </trkpt>
      <trkpt lat="43.77407" lon="6.23552">
        <ele>699</ele>
        <time>2012-01-07T04:36:50Z</time>
        <course>299.857917420093</course>
        <speed>2.71625752809352</speed>
      </trkpt>
      <trkpt lat="43.77457" lon="6.23641">
        <ele>709</ele>
        <time>2012-01-07T04:37:24Z</time>
        <course>310.850316189635</course>
        <speed>8.32579517363054</speed>
      </trkpt>
      <trkpt lat="43.77468" lon="6.23654">
        <ele>708</ele>
        <time>2012-01-07T04:37:26Z</time>
        <course>350.736973163873</course>
        <speed>8.3247595436848</speed>
      </trkpt>
      <trkpt lat="43.77486" lon="6.23657">
        <ele>707</ele>
        <time>2012-01-07T04:37:28Z</time>
        <course>46.3577729748767</course>
        <speed>8.3166340254513</speed>
      </trkpt>
      <trkpt lat="43.77514" lon="6.23627">
        <ele>706</ele>
        <time>2012-01-07T04:37:33Z</time>
        <course>18.0670006475529</course>
        <speed>8.29548028902331</speed>
      </trkpt>
      <trkpt lat="43.77523" lon="6.23624">
        <ele>706</ele>
        <time>2012-01-07T04:37:34Z</time>
        <course>322.441183947075</course>
        <speed>8.31908199270148</speed>
      </trkpt>
      <trkpt lat="43.77537" lon="6.23635">
        <ele>706</ele>
        <time>2012-01-07T04:37:36Z</time>
        <course>287.041729124247</course>
        <speed>8.35429697751981</speed>
      </trkpt>
      <trkpt lat="43.7754" lon="6.23645">
        <ele>705</ele>
        <time>2012-01-07T04:37:37Z</time>
        <course>259.474889760164</course>
        <speed>8.34987072472742</speed>
      </trkpt>
      <trkpt lat="43.77538" lon="6.23656">
        <ele>705</ele>
        <time>2012-01-07T04:37:38Z</time>
        <course>229.584210862167</course>
        <speed>8.32246996356912</speed>
      </trkpt>
      <trkpt lat="43.77523" lon="6.23674">
        <ele>705</ele>
        <time>2012-01-07T04:37:41Z</time>
        <course>206.512469978672</course>
        <speed>8.31802741088199</speed>
      </trkpt>
      <trkpt lat="43.77472" lon="6.237">
        <ele>703</ele>
        <time>2012-01-07T04:37:48Z</time>
        <course>185.083393664513</course>
        <speed>8.3329973485777</speed>
      </trkpt>
      <trkpt lat="43.77461" lon="6.23701">
        <ele>703</ele>
        <time>2012-01-07T04:37:50Z</time>
        <course>138.864213852384</course>
        <speed>8.31893585777531</speed>
      </trkpt>
      <trkpt lat="43.77377" lon="6.23626">
        <ele>699</ele>
        <time>2012-01-07T04:38:03Z</time>
        <course>108.598176500062</course>
        <speed>8.32272133383268</speed>
      </trkpt>
      <trkpt lat="43.77351" lon="6.23547">
        <ele>698</ele>
        <time>2012-01-07T04:38:11Z</time>
        <course>127.476529447133</course>
        <speed>4.13170129835462</speed>
      </trkpt>
      <trkpt lat="43.77342" lon="6.23535">
        <ele>698</ele>
        <time>2012-01-07T04:38:15Z</time>
        <course>168.160980871495</course>
        <speed>4.13173977939505</speed>
      </trkpt>
      <trkpt lat="43.77328" lon="6.23532">
        <ele>699</ele>
        <time>2012-01-07T04:38:19Z</time>
        <course>228.972761112112</course>
        <speed>4.13116701885373</speed>
      </trkpt>
      <trkpt lat="43.77288" lon="6.23579">
        <ele>702</ele>
        <time>2012-01-07T04:38:33Z</time>
        <course>218.474626973025</course>
        <speed>4.13091056352623</speed>
      </trkpt>
      <trkpt lat="43.77272" lon="6.23592">
        <ele>703</ele>
        <time>2012-01-07T04:38:38Z</time>
        <course>198.895836777386</course>
        <speed>4.13023061586779</speed>
      </trkpt>
      <trkpt lat="43.77212" lon="6.23613">
        <ele>707</ele>
        <time>2012-01-07T04:38:54Z</time>
        <course>226.09300689585</course>
        <speed>2.35823880049472</speed>
      </trkpt>
      <trkpt lat="43.77148" lon="6.23681">
        <ele>718</ele>
        <time>2012-01-07T04:39:32Z</time>
        <course>246.33240113157</course>
        <speed>2.35797217462904</speed>
      </trkpt>
      <trkpt lat="43.77142" lon="6.23695">
        <ele>720</ele>
        <time>2012-01-07T04:39:38Z</time>
        <course>265.821307164187</course>
        <speed>2.33232946705635</speed>
      </trkpt>
      <trkpt lat="43.77141" lon="6.23709">
        <ele>721</ele>
        <time>2012-01-07T04:39:43Z</time>
        <course>275.14992026274</course>
        <speed>2.33249940544557</speed>
      </trkpt>
      <trkpt lat="43.7715" lon="6.23811">
        <ele>732</ele>
        <time>2012-01-07T04:40:18Z</time>
        <course>304.282855893021</course>
        <speed>2.3330237066737</speed>
      </trkpt>
      <trkpt lat="43.77164" lon="6.23832">
        <ele>735</ele>
        <time>2012-01-07T04:40:28Z</time>
        <course>329.694955683551</course>
        <speed>4.45418281279921</speed>
      </trkpt>
      <trkpt lat="43.77246" lon="6.23881">
        <ele>739</ele>
        <time>2012-01-07T04:40:50Z</time>
        <course>352.665573309322</course>
        <speed>4.4530983105011</speed>
      </trkpt>
      <trkpt lat="43.77322" lon="6.23891">
        <ele>743</ele>
        <time>2012-01-07T04:41:09Z</time>
        <course>23.2891226918522</course>
        <speed>8.32811517145352</speed>
      </trkpt>
      <trkpt lat="43.77347" lon="6.2388">
        <ele>739</ele>
        <time>2012-01-07T04:41:13Z</time>
        <course>45.7053295243489</course>
        <speed>8.31242997344155</speed>
      </trkpt>
      <trkpt lat="43.77368" lon="6.23858">
        <ele>736</ele>
        <time>2012-01-07T04:41:16Z</time>
        <course>81.0646782763397</course>
        <speed>8.33201021177956</speed>
      </trkpt>
      <trkpt lat="43.77372" lon="6.23832">
        <ele>734</ele>
        <time>2012-01-07T04:41:19Z</time>
        <course>103.416454412477</course>
        <speed>8.32130134107214</speed>
      </trkpt>
      <trkpt lat="43.77365" lon="6.23802">
        <ele>731</ele>
        <time>2012-01-07T04:41:22Z</time>
        <course>90.00136482597</course>
        <speed>8.3128795326637</speed>
      </trkpt>
      <trkpt lat="43.77365" lon="6.23779">
        <ele>730</ele>
        <time>2012-01-07T04:41:24Z</time>
        <course>51.8236743600908</course>
        <speed>2.48624901171412</speed>
      </trkpt>
      <trkpt lat="43.77375" lon="6.23766">
        <ele>731</ele>
        <time>2012-01-07T04:41:30Z</time>
        <course>6.20401803640584</course>
        <speed>2.48339995205873</speed>
      </trkpt>
      <trkpt lat="43.77384" lon="6.23765">
        <ele>732</ele>
        <time>2012-01-07T04:41:34Z</time>
        <course>313.13458030757</course>
        <speed>2.48562272075718</speed>
      </trkpt>
      <trkpt lat="43.77395" lon="6.23777">
        <ele>734</ele>
        <time>2012-01-07T04:41:41Z</time>
        <course>281.013032468685</course>
        <speed>2.48471480952939</speed>
      </trkpt>
      <trkpt lat="43.77407" lon="6.2384">
        <ele>740</ele>
        <time>2012-01-07T04:42:02Z</time>
        <course>294.186426405076</course>
        <speed>2.48488704132479</speed>
      </trkpt>
      <trkpt lat="43.77447" lon="6.23931">
        <ele>751</ele>
        <time>2012-01-07T04:42:36Z</time>
        <course>303.474904300525</course>
        <speed>2.40361898877167</speed>
      </trkpt>
      <trkpt lat="43.77458" lon="6.23948">
        <ele>753</ele>
        <time>2012-01-07T04:42:44Z</time>
        <course>323.723528665024</course>
        <speed>2.40415082811173</speed>
      </trkpt>
      <trkpt lat="43.7749" lon="6.23972">
        <ele>758</ele>
        <time>2012-01-07T04:43:00Z</time>
        <course>297.063031839935</course>
        <speed>2.4047899425811</speed>
      </trkpt>
      <trkpt lat="43.77502" lon="6.23996">
        <ele>761</ele>
        <time>2012-01-07T04:43:10Z</time>
        <course>265.047061460375</course>
        <speed>2.40362609590559</speed>
      </trkpt>
      <trkpt lat="43.77497" lon="6.24055">
        <ele>767</ele>
        <time>2012-01-07T04:43:30Z</time>
        <course>283.709795943458</course>
        <speed>2.06421921280088</speed>
      </trkpt>
      <trkpt lat="43.77513" lon="6.24122">
        <ele>775</ele>
        <time>2012-01-07T04:43:57Z</time>
        <course>252.426111376527</course>
        <speed>2.06430411567776</speed>
      </trkpt>
      <trkpt lat="43.77491" lon="6.24193">
        <ele>785</ele>
        <time>2012-01-07T04:44:27Z</time>
        <course>269.997345581476</course>
        <speed>3.26751590766459</speed>
      </trkpt>
      <trkpt lat="43.77491" lon="6.24238">
        <ele>787</ele>
        <time>2012-01-07T04:44:38Z</time>
        <course>286.274914095791</course>
        <speed>3.27086867796113</speed>
      </trkpt>
      <trkpt lat="43.77497" lon="6.24259">
        <ele>789</ele>
        <time>2012-01-07T04:44:44Z</time>
        <course>327.82549755372</course>
        <speed>3.26687310556216</speed>
      </trkpt>
      <trkpt lat="43.77511" lon="6.24268">
        <ele>790</ele>
        <time>2012-01-07T04:44:49Z</time>
        <course>356.768245958761</course>
        <speed>3.26922067559896</speed>
      </trkpt>
      <trkpt lat="43.77563" lon="6.24271">
        <ele>795</ele>
        <time>2012-01-07T04:45:07Z</time>
        <course>28.0117133130754</course>
        <speed>3.91934523847536</speed>
      </trkpt>
      <trkpt lat="43.77609" lon="6.24246">
        <ele>798</ele>
        <time>2012-01-07T04:45:21Z</time>
        <course>15.6249275144937</course>
        <speed>3.91884744310932</speed>
      </trkpt>
      <trkpt lat="43.7763" lon="6.2424">
        <ele>799</ele>
        <time>2012-01-07T04:45:27Z</time>
        <course>320.365242482622</course>
        <speed>3.91859585207486</speed>
      </trkpt>
      <trkpt lat="43.77643" lon="6.24251">
        <ele>800</ele>
        <time>2012-01-07T04:45:31Z</time>
        <course>274.492441190697</course>
        <speed>3.91395326669905</speed>
      </trkpt>
      <trkpt lat="43.77644" lon="6.24264">
        <ele>800</ele>
        <time>2012-01-07T04:45:34Z</time>
        <course>247.772375753487</course>
        <speed>3.91977645808027</speed>
      </trkpt>
      <trkpt lat="43.77636" lon="6.24284">
        <ele>801</ele>
        <time>2012-01-07T04:45:39Z</time>
        <course>207.320046705079</course>
        <speed>3.9202796839836</speed>
      </trkpt>
      <trkpt lat="43.776" lon="6.24303">
        <ele>804</ele>
        <time>2012-01-07T04:45:50Z</time>
        <course>196.757919048883</course>
        <speed>3.91995286774075</speed>
      </trkpt>
      <trkpt lat="43.77522" lon="6.24327">
        <ele>809</ele>
        <time>2012-01-07T04:46:12Z</time>
        <course>163.354367634128</course>
        <speed>3.92012120449011</speed>
      </trkpt>
      <trkpt lat="43.7745" lon="6.24305">
        <ele>814</ele>
        <time>2012-01-07T04:46:33Z</time>
        <course>170.905337643277</course>
        <speed>8.31637147128129</speed>
      </trkpt>
      <trkpt lat="43.7734" lon="6.24287">
        <ele>808</ele>
        <time>2012-01-07T04:46:48Z</time>
        <course>190.591583439452</course>
        <speed>8.31823087988763</speed>
      </trkpt>
      <trkpt lat="43.77272" lon="6.243">
        <ele>806</ele>
        <time>2012-01-07T04:46:57Z</time>
        <course>205.216501852843</course>
        <speed>8.31517894317747</speed>
      </trkpt>
      <trkpt lat="43.77245" lon="6.24313">
        <ele>806</ele>
        <time>2012-01-07T04:47:01Z</time>
        <course>219.971590124237</course>
        <speed>2.12837574609567</speed>
      </trkpt>
      <trkpt lat="43.7721" lon="6.24343">
        <ele>812</ele>
        <time>2012-01-07T04:47:22Z</time>
        <course>240.849454101718</course>
        <speed>2.1272037023356</speed>
      </trkpt>
      <trkpt lat="43.77204" lon="6.24354">
        <ele>814</ele>
        <time>2012-01-07T04:47:28Z</time>
        <course>277.283271648952</course>
        <speed>2.12896378182812</speed>
      </trkpt>
      <trkpt lat="43.77205" lon="6.24362">
        <ele>815</ele>
        <time>2012-01-07T04:47:31Z</time>
        <course>320.820079437806</course>
        <speed>2.12601816120731</speed>
      </trkpt>
      <trkpt lat="43.77211" lon="6.24367">
        <ele>816</ele>
        <time>2012-01-07T04:47:34Z</time>
        <course>15.3804963635461</course>
        <speed>2.12811132729097</speed>
      </trkpt>
      <trkpt lat="43.77243" lon="6.24358">
        <ele>821</ele>
        <time>2012-01-07T04:47:51Z</time>
        <course>355.697322931147</course>
        <speed>2.12762756146463</speed>
      </trkpt>
      <trkpt lat="43.77256" lon="6.24359">
        <ele>823</ele>
        <time>2012-01-07T04:47:58Z</time>
        <course>325.600014509599</course>
        <speed>2.12835204384908</speed>
      </trkpt>
      <trkpt lat="43.77286" lon="6.2438">
        <ele>829</ele>
        <time>2012-01-07T04:48:16Z</time>
        <course>3.9969870553683</course>
        <speed>2.12807085827644</speed>
      </trkpt>
      <trkpt lat="43.77328" lon="6.24377">
        <ele>836</ele>
        <time>2012-01-07T04:48:38Z</time>
        <course>330.792245324778</course>
        <speed>2.99601967589568</speed>
      </trkpt>
      <trkpt lat="43.77377" lon="6.24405">
        <ele>841</ele>
        <time>2012-01-07T04:48:57Z</time>
        <course>342.573975241591</course>
        <speed>2.99566668627656</speed>
      </trkpt>
      <trkpt lat="43.77483" lon="6.24439">
        <ele>852</ele>
        <time>2012-01-07T04:49:38Z</time>
        <course>348.926079465835</course>
        <speed>8.31649813111182</speed>
      </trkpt>
      <trkpt lat="43.77503" lon="6.24443">
        <ele>848</ele>
        <time>2012-01-07T04:49:40Z</time>
        <course>2.60655436548505</course>
        <speed>8.32176475686988</speed>
      </trkpt>
      <trkpt lat="43.77589" lon="6.24439">
        <ele>833</ele>
        <time>2012-01-07T04:49:52Z</time>
        <course>318.336584678694</course>
        <speed>1.72420829628706</speed>
      </trkpt>
      <trkpt lat="43.776" lon="6.24449">
        <ele>835</ele>
        <time>2012-01-07T04:50:00Z</time>
        <course>275.305670476662</course>
        <speed>1.72392232745142</speed>
      </trkpt>
      <trkpt lat="43.77601" lon="6.2446">
        <ele>837</ele>
        <time>2012-01-07T04:50:06Z</time>
        <course>256.178717245331</course>
        <speed>1.7247446114681</speed>
      </trkpt>
      <trkpt lat="43.77588" lon="6.24514">
        <ele>846</ele>
        <time>2012-01-07T04:50:32Z</time>
        <course>268.919623176542</course>
        <speed>1.7248365057499</speed>
      </trkpt>
      <trkpt lat="43.77586" lon="6.24623">
        <ele>863</ele>
        <time>2012-01-07T04:51:23Z</time>
        <course>279.162859073218</course>
        <speed>8.30040560686029</speed>
      </trkpt>
      <trkpt lat="43.77589" lon="6.24642">
        <ele>862</ele>
        <time>2012-01-07T04:51:25Z</time>
        <course>307.64311503058</course>
        <speed>8.31817466380585</speed>
      </trkpt>
      <trkpt lat="43.77697" lon="6.24785">
        <ele>859</ele>
        <time>2012-01-07T04:51:45Z</time>
        <course>297.052849406526</course>
        <speed>1.85076198057475</speed>
      </trkpt>
      <trkpt lat="43.7771" lon="6.24811">
        <ele>863</ele>
        <time>2012-01-07T04:51:58Z</time>
        <course>276.849247971703</course>
        <speed>1.84999032942736</speed>
      </trkpt>
      <trkpt lat="43.77716" lon="6.24862">
        <ele>870</ele>
        <time>2012-01-07T04:52:21Z</time>
        <course>258.451864852328</course>
        <speed>1.85008412529068</speed>
      </trkpt>
      <trkpt lat="43.77708" lon="6.24902">
        <ele>876</ele>
        <time>2012-01-07T04:52:39Z</time>
        <course>245.491572145276</course>
        <speed>1.8504175661367</speed>
      </trkpt>
      <trkpt lat="43.7765" lon="6.25032">
        <ele>898</ele>
        <time>2012-01-07T04:53:45Z</time>
        <course>261.523696243267</course>
        <speed>8.32410601470363</speed>
      </trkpt>
      <trkpt lat="43.77643" lon="6.2508">
        <ele>898</ele>
        <time>2012-01-07T04:53:50Z</time>
        <course>266.652950817217</course>
        <speed>8.31779161880414</speed>
      </trkpt>
      <trkpt lat="43.77637" lon="6.25185">
        <ele>898</ele>
        <time>2012-01-07T04:54:00Z</time>
        <course>261.160858425314</course>
        <speed>3.44459236114707</speed>
      </trkpt>
      <trkpt lat="43.7763" lon="6.25231">
        <ele>900</ele>
        <time>2012-01-07T04:54:11Z</time>
        <course>249.542112748516</course>
        <speed>3.44323637832302</speed>
      </trkpt>
      <trkpt lat="43.77607" lon="6.25294">
        <ele>904</ele>
        <time>2012-01-07T04:54:27Z</time>
        <course>243.510875322631</course>
        <speed>3.4434812342843</speed>
      </trkpt>
      <trkpt lat="43.77548" lon="6.25415">
        <ele>913</ele>
        <time>2012-01-07T04:55:01Z</time>
        <course>259.251146625962</course>
        <speed>2.61109691227605</speed>
      </trkpt>
      <trkpt lat="43.77535" lon="6.25485">
        <ele>919</ele>
        <time>2012-01-07T04:55:24Z</time>
        <course>247.114761932532</course>
        <speed>2.611804263811</speed>
      </trkpt>
      <trkpt lat="43.77516" lon="6.25531">
        <ele>924</ele>
        <time>2012-01-07T04:55:40Z</time>
        <course>259.474370332305</course>
        <speed>2.60784912328729</speed>
      </trkpt>
      <trkpt lat="43.77514" lon="6.25542">
        <ele>925</ele>
        <time>2012-01-07T04:55:43Z</time>
        <course>279.548446099951</course>
        <speed>3.45611533961878</speed>
      </trkpt>
      <trkpt lat="43.77528" lon="6.25627">
        <ele>929</ele>
        <time>2012-01-07T04:56:04Z</time>
        <course>270.808841533817</course>
        <speed>3.45574192725468</speed>
      </trkpt>
      <trkpt lat="43.77529" lon="6.25699">
        <ele>934</ele>
        <time>2012-01-07T04:56:20Z</time>
        <course>301.159704726085</course>
        <speed>8.31983871192103</speed>
      </trkpt>
      <trkpt lat="43.77558" lon="6.25748">
        <ele>930</ele>
        <time>2012-01-07T04:56:26Z</time>
        <course>289.26444978152</course>
        <speed>8.30989881685885</speed>
      </trkpt>
      <trkpt lat="43.77571" lon="6.25786">
        <ele>928</ele>
        <time>2012-01-07T04:56:30Z</time>
        <course>339.844874718408</course>
        <speed>8.33458142503632</speed>
      </trkpt>
      <trkpt lat="43.77587" lon="6.25792">
        <ele>926</ele>
        <time>2012-01-07T04:56:33Z</time>
        <course>34.7658928125803</course>
        <speed>8.32252406179341</speed>
      </trkpt>
      <trkpt lat="43.77642" lon="6.25753">
        <ele>922</ele>
        <time>2012-01-07T04:56:41Z</time>
        <course>24.6528741712855</course>
        <speed>2.38904390192143</speed>
      </trkpt>
      <trkpt lat="43.77738" lon="6.25708">
        <ele>936</ele>
        <time>2012-01-07T04:57:28Z</time>
        <course>45.5200868350448</course>
        <speed>8.31105909652843</speed>
      </trkpt>
      <trkpt lat="43.77763" lon="6.25682">
        <ele>934</ele>
        <time>2012-01-07T04:57:32Z</time>
        <course>360</course>
        <speed>8.30803738360807</speed>
      </trkpt>
      <trkpt lat="43.77771" lon="6.25682">
        <ele>934</ele>
        <time>2012-01-07T04:57:33Z</time>
        <course>290.955676126861</course>
        <speed>8.31334819714806</speed>
      </trkpt>
      <trkpt lat="43.77774" lon="6.2569">
        <ele>933</ele>
        <time>2012-01-07T04:57:34Z</time>
        <course>240.429424816104</course>
        <speed>8.28271725204434</speed>
      </trkpt>
      <trkpt lat="43.77769" lon="6.25699">
        <ele>933</ele>
        <time>2012-01-07T04:57:35Z</time>
        <course>220.439214668404</course>
        <speed>8.31996276917425</speed>
      </trkpt>
      <trkpt lat="43.77653" lon="6.258">
        <ele>927</ele>
        <time>2012-01-07T04:57:54Z</time>
        <course>240.195966624015</course>
        <speed>8.31779093736096</speed>
      </trkpt>
      <trkpt lat="43.77616" lon="6.25866">
        <ele>926</ele>
        <time>2012-01-07T04:58:02Z</time>
        <course>224.818538369026</course>
        <speed>8.31573992734559</speed>
      </trkpt>
      <trkpt lat="43.77551" lon="6.25932">
        <ele>925</ele>
        <time>2012-01-07T04:58:12Z</time>
        <course>252.724249059962</course>
        <speed>1.78647192752107</speed>
      </trkpt>
      <trkpt lat="43.77544" lon="6.25955">
        <ele>928</ele>
        <time>2012-01-07T04:58:24Z</time>
        <course>269.998882068714</course>
        <speed>1.78508687148523</speed>
      </trkpt>
      <trkpt lat="43.77544" lon="6.25974">
        <ele>931</ele>
        <time>2012-01-07T04:58:32Z</time>
        <course>279.661690548189</course>
        <speed>1.7860550961501</speed>
      </trkpt>
      <trkpt lat="43.77552" lon="6.26022">
        <ele>938</ele>
        <time>2012-01-07T04:58:54Z</time>
        <course>249.61666162104</course>
        <speed>1.78695917403187</speed>
      </trkpt>
      <trkpt lat="43.77548" lon="6.26033">
        <ele>940</ele>
        <time>2012-01-07T04:59:00Z</time>
        <course>200.15323628255</course>
        <speed>1.78482871254014</speed>
      </trkpt>
      <trkpt lat="43.7754" lon="6.26036">
        <ele>942</ele>
        <time>2012-01-07T04:59:05Z</time>
        <course>161.932749482069</course>
        <speed>1.78583228423829</speed>
      </trkpt>
      <trkpt lat="43.77531" lon="6.26033">
        <ele>944</ele>
        <time>2012-01-07T04:59:11Z</time>
        <course>117.063450324857</course>
        <speed>1.78743650793054</speed>
      </trkpt>
      <trkpt lat="43.77526" lon="6.26023">
        <ele>945</ele>
        <time>2012-01-07T04:59:16Z</time>
        <course>90.8524961059239</course>
        <speed>1.78624007594021</speed>
      </trkpt>
      <trkpt lat="43.77525" lon="6.25954">
        <ele>956</ele>
        <time>2012-01-07T04:59:47Z</time>
        <course>107.044691590973</course>
        <speed>1.78653005335188</speed>
      </trkpt>
      <trkpt lat="43.77516" lon="6.25924">
        <ele>960</ele>
        <time>2012-01-07T05:00:02Z</time>
        <course>119.856955621329</course>
        <speed>1.78610450473073</speed>
      </trkpt>
      <trkpt lat="43.77443" lon="6.25794">
        <ele>985</ele>
        <time>2012-01-07T05:01:16Z</time>
        <course>112.549790287251</course>
        <speed>7.20302799015254</speed>
      </trkpt>
      <trkpt lat="43.7743" lon="6.25762">
        <ele>985</ele>
        <time>2012-01-07T05:01:20Z</time>
        <course>95.1878864838183</course>
        <speed>7.20642419596552</speed>
      </trkpt>
      <trkpt lat="43.77419" lon="6.25638">
        <ele>986</ele>
        <time>2012-01-07T05:01:34Z</time>
        <course>124.270670201982</course>
        <speed>1.50167585343103</speed>
      </trkpt>
      <trkpt lat="43.77407" lon="6.2562">
        <ele>990</ele>
        <time>2012-01-07T05:01:47Z</time>
        <course>186.695966152685</course>
        <speed>1.50075843699945</speed>
      </trkpt>
      <trkpt lat="43.77382" lon="6.25623">
        <ele>996</ele>
        <time>2012-01-07T05:02:05Z</time>
        <course>211.439281623061</course>
        <speed>1.5011479668793</speed>
      </trkpt>
      <trkpt lat="43.77302" lon="6.25673">
        <ele>1019</ele>
        <time>2012-01-07T05:03:10Z</time>
        <course>175.584463081049</course>
        <speed>8.32562138283842</speed>
      </trkpt>
      <trkpt lat="43.77264" lon="6.2567">
        <ele>1016</ele>
        <time>2012-01-07T05:03:15Z</time>
        <course>209.201086219328</course>
        <speed>8.33124167730774</speed>
      </trkpt>
      <trkpt lat="43.77257" lon="6.25674">
        <ele>1016</ele>
        <time>2012-01-07T05:03:16Z</time>
        <course>261.689421444681</course>
        <speed>8.29794387243675</speed>
      </trkpt>
      <trkpt lat="43.77255" lon="6.25688">
        <ele>1015</ele>
        <time>2012-01-07T05:03:18Z</time>
        <course>323.737026979688</course>
        <speed>8.2865054548344</speed>
      </trkpt>
      <trkpt lat="43.77263" lon="6.25694">
        <ele>1015</ele>
        <time>2012-01-07T05:03:19Z</time>
        <course>350.144849898642</course>
        <speed>8.31865309797406</speed>
      </trkpt>
      <trkpt lat="43.7737" lon="6.25713">
        <ele>1009</ele>
        <time>2012-01-07T05:03:33Z</time>
        <course>339.379236932121</course>
        <speed>8.3290800606806</speed>
      </trkpt>
      <trkpt lat="43.77383" lon="6.25718">
        <ele>1008</ele>
        <time>2012-01-07T05:03:35Z</time>
        <course>297.069265794342</course>
        <speed>8.34150519142421</speed>
      </trkpt>
      <trkpt lat="43.77388" lon="6.25728">
        <ele>1008</ele>
        <time>2012-01-07T05:03:36Z</time>
        <course>252.951946846172</course>
        <speed>1.60012102969296</speed>
      </trkpt>
      <trkpt lat="43.77385" lon="6.25738">
        <ele>1009</ele>
        <time>2012-01-07T05:03:42Z</time>
        <course>201.372240727278</course>
        <speed>1.6019688864365</speed>
      </trkpt>
      <trkpt lat="43.7738" lon="6.2574">
        <ele>1011</ele>
        <time>2012-01-07T05:03:45Z</time>
        <course>163.643565225558</course>
        <speed>1.60024351791664</speed>
      </trkpt>
      <trkpt lat="43.7736" lon="6.25734">
        <ele>1015</ele>
        <time>2012-01-07T05:04:00Z</time>
        <course>204.536351875891</course>
        <speed>1.60044450556135</speed>
      </trkpt>
      <trkpt lat="43.77315" lon="6.25755">
        <ele>1026</ele>
        <time>2012-01-07T05:04:33Z</time>
        <course>191.06892193069</course>
        <speed>1.60008739372007</speed>
      </trkpt>
      <trkpt lat="43.77285" lon="6.25761">
        <ele>1034</ele>
        <time>2012-01-07T05:04:54Z</time>
        <course>170.346638738637</course>
        <speed>2.02981409879322</speed>
      </trkpt>
      <trkpt lat="43.77239" lon="6.25753">
        <ele>1041</ele>
        <time>2012-01-07T05:05:19Z</time>
        <course>157.670395459277</course>
        <speed>2.03003428634614</speed>
      </trkpt>
      <trkpt lat="43.77189" lon="6.25732">
        <ele>1051</ele>
        <time>2012-01-07T05:05:48Z</time>
        <course>164.121143334157</course>
        <speed>8.31556626120905</speed>
      </trkpt>
      <trkpt lat="43.77134" lon="6.25716">
        <ele>1050</ele>
        <time>2012-01-07T05:05:55Z</time>
        <course>133.351248065477</course>
        <speed>8.29891418346533</speed>
      </trkpt>
      <trkpt lat="43.77122" lon="6.25703">
        <ele>1050</ele>
        <time>2012-01-07T05:05:57Z</time>
        <course>112.837665251307</course>
        <speed>8.30836135693259</speed>
      </trkpt>
      <trkpt lat="43.77115" lon="6.25686">
        <ele>1050</ele>
        <time>2012-01-07T05:05:59Z</time>
        <course>90.0034823628676</course>
        <speed>8.32551227722564</speed>
      </trkpt>
      <trkpt lat="43.77115" lon="6.25628">
        <ele>1050</ele>
        <time>2012-01-07T05:06:05Z</time>
        <course>101.949140683243</course>
        <speed>2.17876823590297</speed>
      </trkpt>
      <trkpt lat="43.77109" lon="6.25599">
        <ele>1053</ele>
        <time>2012-01-07T05:06:16Z</time>
        <course>146.902198596568</course>
        <speed>2.18061329337196</speed>
      </trkpt>
      <trkpt lat="43.771" lon="6.25593">
        <ele>1054</ele>
        <time>2012-01-07T05:06:21Z</time>
        <course>198.051476392455</course>
        <speed>2.17932953437104</speed>
      </trkpt>
      <trkpt lat="43.77091" lon="6.25596">
        <ele>1056</ele>
        <time>2012-01-07T05:06:26Z</time>
        <course>239.695847628148</course>
        <speed>2.17713904924447</speed>
      </trkpt>
      <trkpt lat="43.77087" lon="6.25603">
        <ele>1057</ele>
        <time>2012-01-07T05:06:29Z</time>
        <course>265.611120478518</course>
        <speed>2.17887213697172</speed>
      </trkpt>
      <trkpt lat="43.77084" lon="6.25643">
        <ele>1062</ele>
        <time>2012-01-07T05:06:44Z</time>
        <course>256.206843513322</course>
        <speed>2.17930166962912</speed>
      </trkpt>
      <trkpt lat="43.77078" lon="6.25668">
        <ele>1064</ele>
        <time>2012-01-07T05:06:53Z</time>
        <course>274.330964494033</course>
        <speed>2.17788111383561</speed>
      </trkpt>
      <trkpt lat="43.7708" lon="6.25695">
        <ele>1068</ele>
        <time>2012-01-07T05:07:03Z</time>
        <course>288.194789089064</course>
        <speed>2.1792443126884</speed>
      </trkpt>
      <trkpt lat="43.77098" lon="6.25751">
        <ele>1075</ele>
        <time>2012-01-07T05:07:26Z</time>
        <course>314.243054304266</course>
        <speed>8.31293803485299</speed>
      </trkpt>
      <trkpt lat="43.77138" lon="6.25793">
        <ele>1070</ele>
        <time>2012-01-07T05:07:33Z</time>
        <course>299.795650832471</course>
        <speed>8.323090149521</speed>
      </trkpt>
      <trkpt lat="43.77166" lon="6.25843">
        <ele>1067</ele>
        <time>2012-01-07T05:07:39Z</time>
        <course>287.719863017826</course>
        <speed>5.42211204071443</speed>
      </trkpt>
      <trkpt lat="43.77176" lon="6.25875">
        <ele>1067</ele>
        <time>2012-01-07T05:07:44Z</time>
        <course>272.924525621076</course>
        <speed>5.42543046466981</speed>
      </trkpt>
      <trkpt lat="43.77178" lon="6.25915">
        <ele>1068</ele>
        <time>2012-01-07T05:07:50Z</time>
        <course>249.601831530272</course>
        <speed>5.42987759652353</speed>
      </trkpt>
      <trkpt lat="43.77174" lon="6.25926">
        <ele>1068</ele>
        <time>2012-01-07T05:07:52Z</time>
        <course>222.569180431721</course>
        <speed>5.42353022982671</speed>
      </trkpt>
      <trkpt lat="43.77141" lon="6.25957">
        <ele>1070</ele>
        <time>2012-01-07T05:08:00Z</time>
        <course>236.942105381476</course>
        <speed>5.42155321814068</speed>
      </trkpt>
      <trkpt lat="43.7712" lon="6.2599">
        <ele>1071</ele>
        <time>2012-01-07T05:08:06Z</time>
        <course>244.030860874416</course>
        <speed>2.24647737665565</speed>
      </trkpt>
      <trkpt lat="43.771" lon="6.26032">
        <ele>1076</ele>
        <time>2012-01-07T05:08:24Z</time>
        <course>207.763925293618</course>
        <speed>2.24625865222463</speed>
      </trkpt>
      <trkpt lat="43.77061" lon="6.26053">
        <ele>1082</ele>
        <time>2012-01-07T05:08:45Z</time>
        <course>230.268980589772</course>
        <speed>2.24594028718972</speed>
      </trkpt>
      <trkpt lat="43.77035" lon="6.26085">
        <ele>1088</ele>
        <time>2012-01-07T05:09:02Z</time>
        <course>161.044441049351</course>
        <speed>1.52087084330083</speed>
      </trkpt>
      <trkpt lat="43.76998" lon="6.26072">
        <ele>1097</ele>
        <time>2012-01-07T05:09:30Z</time>
        <course>185.078165607956</course>
        <speed>1.52073374510472</speed>
      </trkpt>
      <trkpt lat="43.76976" lon="6.26074">
        <ele>1102</ele>
        <time>2012-01-07T05:09:46Z</time>
        <course>219.343682051549</course>
        <speed>1.5208672835473</speed>
      </trkpt>
      <trkpt lat="43.76945" lon="6.261">
        <ele>1112</ele>
        <time>2012-01-07T05:10:13Z</time>
        <course>198.045033993949</course>
        <speed>1.1646796863913</speed>
      </trkpt>
      <trkpt lat="43.76915" lon="6.2611">
        <ele>1122</ele>
        <time>2012-01-07T05:10:42Z</time>
        <course>208.590438280117</course>
        <speed>1.16477747828381</speed>
      </trkpt>
      <trkpt lat="43.76863" lon="6.26139">
        <ele>1141</ele>
        <time>2012-01-07T05:11:36Z</time>
        <course>188.477761969209</course>
        <speed>1.1649130865806</speed>
      </trkpt>
      <trkpt lat="43.76804" lon="6.26148">
        <ele>1162</ele>
        <time>2012-01-07T05:12:32Z</time>
        <course>206.536135526404</course>
        <speed>3.54162077651517</speed>
      </trkpt>
      <trkpt lat="43.76759" lon="6.26171">
        <ele>1165</ele>
        <time>2012-01-07T05:12:47Z</time>
        <course>236.153081476377</course>
        <speed>3.54242806650725</speed>
      </trkpt>
      <trkpt lat="43.7674" lon="6.262">
        <ele>1167</ele>
        <time>2012-01-07T05:12:56Z</time>
        <course>258.574268256318</course>
        <speed>3.53995234082236</speed>
      </trkpt>
      <trkpt lat="43.76725" lon="6.26276">
        <ele>1172</ele>
        <time>2012-01-07T05:13:14Z</time>
        <course>246.310127001759</course>
        <speed>8.32093223873051</speed>
      </trkpt>
      <trkpt lat="43.76701" lon="6.26332">
        <ele>1156</ele>
        <time>2012-01-07T05:13:20Z</time>
        <course>282.214712996146</course>
        <speed>8.31384800557478</speed>
      </trkpt>
      <trkpt lat="43.76712" lon="6.26384">
        <ele>1144</ele>
        <time>2012-01-07T05:13:26Z</time>
        <course>269.998593110317</course>
        <speed>8.31378718464727</speed>
      </trkpt>
      <trkpt lat="43.76712" lon="6.26407">
        <ele>1139</ele>
        <time>2012-01-07T05:13:28Z</time>
        <course>234.049929833164</course>
        <speed>1.14600961143072</speed>
      </trkpt>
      <trkpt lat="43.76661" lon="6.26479">
        <ele>1164</ele>
        <time>2012-01-07T05:14:38Z</time>
        <course>194.369132821889</course>
        <speed>1.14598875969766</speed>
      </trkpt>
      <trkpt lat="43.766" lon="6.26495">
        <ele>1186</ele>
        <time>2012-01-07T05:15:39Z</time>
        <course>214.895584352314</course>
        <speed>1.45893924827822</speed>
      </trkpt>
      <trkpt lat="43.76523" lon="6.2655">
        <ele>1208</ele>
        <time>2012-01-07T05:16:45Z</time>
        <course>239.503463019778</course>
        <speed>1.45889358203237</speed>
      </trkpt>
      <trkpt lat="43.76477" lon="6.2663">
        <ele>1228</ele>
        <time>2012-01-07T05:17:41Z</time>
        <course>253.117910705775</course>
        <speed>6.52368436398861</speed>
      </trkpt>
      <trkpt lat="43.76469" lon="6.26657">
        <ele>1228</ele>
        <time>2012-01-07T05:17:44Z</time>
        <course>265.035903948709</course>
        <speed>6.52148104963949</speed>
      </trkpt>
      <trkpt lat="43.76464" lon="6.26716">
        <ele>1228</ele>
        <time>2012-01-07T05:17:52Z</time>
        <course>254.392563131195</course>
        <speed>6.53005074097366</speed>
      </trkpt>
      <trkpt lat="43.76458" lon="6.26738">
        <ele>1229</ele>
        <time>2012-01-07T05:17:55Z</time>
        <course>224.311921933363</course>
        <speed>6.51929479756245</speed>
      </trkpt>
      <trkpt lat="43.76418" lon="6.26778">
        <ele>1230</ele>
        <time>2012-01-07T05:18:03Z</time>
        <course>248.81301747405</course>
        <speed>3.32880523530933</speed>
      </trkpt>
      <trkpt lat="43.76404" lon="6.26815">
        <ele>1232</ele>
        <time>2012-01-07T05:18:13Z</time>
        <course>225.859206291698</course>
        <speed>3.32679824736376</speed>
      </trkpt>
      <trkpt lat="43.76386" lon="6.26834">
        <ele>1234</ele>
        <time>2012-01-07T05:18:21Z</time>
        <course>257.175610613511</course>
        <speed>3.32895764370248</speed>
      </trkpt>
      <trkpt lat="43.76384" lon="6.26843">
        <ele>1234</ele>
        <time>2012-01-07T05:18:23Z</time>
        <course>276.870577854238</course>
        <speed>3.33070294126442</speed>
      </trkpt>
      <trkpt lat="43.76386" lon="6.2686">
        <ele>1236</ele>
        <time>2012-01-07T05:18:27Z</time>
        <course>308.540797209996</course>
        <speed>3.32744037085081</speed>
      </trkpt>
      <trkpt lat="43.76421" lon="6.26905">
        <ele>1240</ele>
        <time>2012-01-07T05:18:43Z</time>
        <course>255.633461723754</course>
        <speed>1.11845084511215</speed>
      </trkpt>
      <trkpt lat="43.76407" lon="6.26961">
        <ele>1255</ele>
        <time>2012-01-07T05:19:26Z</time>
        <course>272.34464208756</course>
        <speed>1.11815806882638</speed>
      </trkpt>
      <trkpt lat="43.76408" lon="6.26986">
        <ele>1261</ele>
        <time>2012-01-07T05:19:44Z</time>
        <course>282.820269964736</course>
        <speed>1.11851710198246</speed>
      </trkpt>
      <trkpt lat="43.76418" lon="6.27031">
        <ele>1274</ele>
        <time>2012-01-07T05:20:17Z</time>
        <course>300.577834495032</course>
        <speed>8.31939061194066</speed>
      </trkpt>
      <trkpt lat="43.76433" lon="6.27057">
        <ele>1265</ele>
        <time>2012-01-07T05:20:21Z</time>
        <course>337.768092677533</course>
        <speed>8.31955045065843</speed>
      </trkpt>
      <trkpt lat="43.76476" lon="6.27075">
        <ele>1248</ele>
        <time>2012-01-07T05:20:27Z</time>
        <course>328.265043567916</course>
        <speed>8.31235067371401</speed>
      </trkpt>
      <trkpt lat="43.76506" lon="6.27094">
        <ele>1237</ele>
        <time>2012-01-07T05:20:31Z</time>
        <course>317.878869608114</course>
        <speed>7.21840673179831</speed>
      </trkpt>
      <trkpt lat="43.76533" lon="6.27119">
        <ele>1237</ele>
        <time>2012-01-07T05:20:36Z</time>
        <course>283.545707673917</course>
        <speed>7.21008466420948</speed>
      </trkpt>
      <trkpt lat="43.76537" lon="6.27136">
        <ele>1237</ele>
        <time>2012-01-07T05:20:38Z</time>
        <course>259.129441326359</course>
        <speed>7.20948766424756</speed>
      </trkpt>
      <trkpt lat="43.76531" lon="6.27168">
        <ele>1237</ele>
        <time>2012-01-07T05:20:42Z</time>
        <course>277.071388903656</course>
        <speed>7.21839385478625</speed>
      </trkpt>
      <trkpt lat="43.76539" lon="6.27234">
        <ele>1238</ele>
        <time>2012-01-07T05:20:49Z</time>
        <course>290.177431505289</course>
        <speed>8.32143667970307</speed>
      </trkpt>
      <trkpt lat="43.76567" lon="6.27312">
        <ele>1232</ele>
        <time>2012-01-07T05:20:57Z</time>
        <course>301.396682973037</course>
        <speed>8.32464010264868</speed>
      </trkpt>
      <trkpt lat="43.76598" lon="6.27364">
        <ele>1228</ele>
        <time>2012-01-07T05:21:04Z</time>
        <course>314.036626938509</course>
        <speed>8.31471486420084</speed>
      </trkpt>
      <trkpt lat="43.76615" lon="6.27382">
        <ele>1218</ele>
        <time>2012-01-07T05:21:07Z</time>
        <course>328.327739156695</course>
        <speed>8.31727110000501</speed>
      </trkpt>
      <trkpt lat="43.76653" lon="6.27406">
        <ele>1198</ele>
        <time>2012-01-07T05:21:12Z</time>
        <course>349.154940027818</course>
        <speed>8.31926195474638</speed>
      </trkpt>
      <trkpt lat="43.76755" lon="6.27426">
        <ele>1151</ele>
        <time>2012-01-07T05:21:26Z</time>
        <course>298.45013396232</course>
        <speed>7.10708856271549</speed>
      </trkpt>
      <trkpt lat="43.76764" lon="6.27443">
        <ele>1151</ele>
        <time>2012-01-07T05:21:29Z</time>
        <course>261.680694743379</course>
        <speed>7.1130875304995</speed>
      </trkpt>
      <trkpt lat="43.76762" lon="6.27457">
        <ele>1151</ele>
        <time>2012-01-07T05:21:30Z</time>
        <course>240.032032934921</course>
        <speed>7.10562654756149</speed>
      </trkpt>
      <trkpt lat="43.76713" lon="6.27544">
        <ele>1152</ele>
        <time>2012-01-07T05:21:43Z</time>
        <course>256.249214875453</course>
        <speed>8.31993214296459</speed>
      </trkpt>
      <trkpt lat="43.76686" lon="6.27657">
        <ele>1131</ele>
        <time>2012-01-07T05:21:54Z</time>
        <course>243.461815618885</course>
        <speed>8.32364064791636</speed>
      </trkpt>
      <trkpt lat="43.76666" lon="6.27698">
        <ele>1123</ele>
        <time>2012-01-07T05:21:59Z</time>
        <course>225.365433536328</course>
        <speed>2.67452313442613</speed>
      </trkpt>
      <trkpt lat="43.76612" lon="6.27754">
        <ele>1130</ele>
        <time>2012-01-07T05:22:27Z</time>
        <course>213.788063438328</course>
        <speed>2.67475153982031</speed>
      </trkpt>
      <trkpt lat="43.76558" lon="6.27791">
        <ele>1138</ele>
        <time>2012-01-07T05:22:52Z</time>
        <course>248.50320426062</course>
        <speed>8.32361484333401</speed>
      </trkpt>
      <trkpt lat="43.76553" lon="6.27804">
        <ele>1135</ele>
        <time>2012-01-07T05:22:53Z</time>
        <course>268.272873005332</course>
        <speed>8.32531296817739</speed>
      </trkpt>
      <trkpt lat="43.76552" lon="6.27838">
        <ele>1129</ele>
        <time>2012-01-07T05:22:57Z</time>
        <course>259.755035744869</course>
        <speed>8.3098254130379</speed>
      </trkpt>
      <trkpt lat="43.76546" lon="6.27872">
        <ele>1123</ele>
        <time>2012-01-07T05:23:00Z</time>
        <course>246.756391939585</course>
        <speed>8.31417323460579</speed>
      </trkpt>
      <trkpt lat="43.7652" lon="6.27934">
        <ele>1111</ele>
        <time>2012-01-07T05:23:07Z</time>
        <course>236.745743008664</course>
        <speed>8.31767678396415</speed>
      </trkpt>
      <trkpt lat="43.76408" lon="6.28109">
        <ele>1086</ele>
        <time>2012-01-07T05:23:30Z</time>
        <course>232.301489653053</course>
        <speed>8.32043189578836</speed>
      </trkpt>
      <trkpt lat="43.76365" lon="6.28166">
        <ele>1079</ele>
        <time>2012-01-07T05:23:37Z</time>
        <course>207.081185924673</course>
        <speed>8.31637002516072</speed>
      </trkpt>
      <trkpt lat="43.76344" lon="6.28177">
        <ele>1076</ele>
        <time>2012-01-07T05:23:40Z</time>
        <course>180</course>
        <speed>8.32749414519435</speed>
      </trkpt>
      <trkpt lat="43.76312" lon="6.28177">
        <ele>1073</ele>
        <time>2012-01-07T05:23:45Z</time>
        <course>209.150508220271</course>
        <speed>8.33143461979741</speed>
      </trkpt>
      <trkpt lat="43.76305" lon="6.28181">
        <ele>1071</ele>
        <time>2012-01-07T05:23:46Z</time>
        <course>229.073143364749</course>
        <speed>8.31571544297967</speed>
      </trkpt>
      <trkpt lat="43.76261" lon="6.28233">
        <ele>1063</ele>
        <time>2012-01-07T05:23:53Z</time>
        <course>220.730310717388</course>
        <speed>8.31166576772949</speed>
      </trkpt>
      <trkpt lat="43.76227" lon="6.28263">
        <ele>1057</ele>
        <time>2012-01-07T05:23:59Z</time>
        <course>231.157942278982</course>
        <speed>1.5521128300459</speed>
      </trkpt>
      <trkpt lat="43.76194" lon="6.28305">
        <ele>1067</ele>
        <time>2012-01-07T05:24:31Z</time>
        <course>200.691974383566</course>
        <speed>1.55175961938903</speed>
      </trkpt>
      <trkpt lat="43.76163" lon="6.28317">
        <ele>1075</ele>
        <time>2012-01-07T05:24:54Z</time>
        <course>177.850885891784</course>
        <speed>1.5522204208959</speed>
      </trkpt>
      <trkpt lat="43.76137" lon="6.28316">
        <ele>1082</ele>
        <time>2012-01-07T05:25:13Z</time>
        <course>200.568876446813</course>
        <speed>8.3292043242707</speed>
      </trkpt>
      <trkpt lat="43.76124" lon="6.28321">
        <ele>1078</ele>
        <time>2012-01-07T05:25:14Z</time>
        <course>257.437416325808</course>
        <speed>8.30882840668421</speed>
      </trkpt>
      <trkpt lat="43.76119" lon="6.28344">
        <ele>1074</ele>
        <time>2012-01-07T05:25:17Z</time>
        <course>273.659275949108</course>
        <speed>8.31524915177055</speed>
      </trkpt>
      <trkpt lat="43.76125" lon="6.2844">
        <ele>1056</ele>
        <time>2012-01-07T05:25:26Z</time>
        <course>249.311675658688</course>
        <speed>3.52214561814132</speed>
      </trkpt>
      <trkpt lat="43.76118" lon="6.28459">
        <ele>1057</ele>
        <time>2012-01-07T05:25:31Z</time>
        <course>231.261540368693</course>
        <speed>3.52099291222136</speed>
      </trkpt>
      <trkpt lat="43.76082" lon="6.28505">
        <ele>1060</ele>
        <time>2012-01-07T05:25:46Z</time>
        <course>212.603580498367</course>
        <speed>3.521158089588</speed>
      </trkpt>
      <trkpt lat="43.76021" lon="6.28545">
        <ele>1066</ele>
        <time>2012-01-07T05:26:08Z</time>
        <course>253.295207610331</course>
        <speed>8.31473527631048</speed>
      </trkpt>
      <trkpt lat="43.76009" lon="6.28586">
        <ele>1065</ele>
        <time>2012-01-07T05:26:12Z</time>
        <course>243.353664685852</course>
        <speed>8.3144481232038</speed>
      </trkpt>
      <trkpt lat="43.75986" lon="6.28633">
        <ele>1065</ele>
        <time>2012-01-07T05:26:17Z</time>
        <course>229.135246688675</course>
        <speed>8.31433878233656</speed>
      </trkpt>
      <trkpt lat="43.75959" lon="6.28665">
        <ele>1065</ele>
        <time>2012-01-07T05:26:22Z</time>
        <course>221.794350207154</course>
        <speed>8.31472269441784</speed>
      </trkpt>
      <trkpt lat="43.75923" lon="6.28698">
        <ele>1059</ele>
        <time>2012-01-07T05:26:28Z</time>
        <course>269.998352240063</course>
        <speed>8.31344342336942</speed>
      </trkpt>
      <trkpt lat="43.75923" lon="6.28724">
        <ele>1057</ele>
        <time>2012-01-07T05:26:30Z</time>
        <course>286.894474373071</course>
        <speed>8.31544246206325</speed>
      </trkpt>
      <trkpt lat="43.75947" lon="6.28805">
        <ele>1049</ele>
        <time>2012-01-07T05:26:39Z</time>
        <course>274.187932665158</course>
        <speed>4.78419753864913</speed>
      </trkpt>
      <trkpt lat="43.75948" lon="6.28819">
        <ele>1049</ele>
        <time>2012-01-07T05:26:41Z</time>
        <course>257.355955185063</course>
        <speed>4.78327009240049</speed>
      </trkpt>
      <trkpt lat="43.75941" lon="6.28851">
        <ele>1050</ele>
        <time>2012-01-07T05:26:47Z</time>
        <course>228.683198992634</course>
        <speed>4.78056466153129</speed>
      </trkpt>
      <trkpt lat="43.75893" lon="6.28907">
        <ele>1053</ele>
        <time>2012-01-07T05:27:01Z</time>
        <course>256.433348402968</course>
        <speed>8.29448834407504</speed>
      </trkpt>
      <trkpt lat="43.75889" lon="6.28924">
        <ele>1051</ele>
        <time>2012-01-07T05:27:03Z</time>
        <course>276.744812478421</course>
        <speed>8.3194702265346</speed>
      </trkpt>
      <trkpt lat="43.75895" lon="6.28976">
        <ele>1048</ele>
        <time>2012-01-07T05:27:08Z</time>
        <course>256.806053113737</course>
        <speed>8.32290305469269</speed>
      </trkpt>
      <trkpt lat="43.75887" lon="6.29011">
        <ele>1045</ele>
        <time>2012-01-07T05:27:12Z</time>
        <course>235.313787877139</course>
        <speed>8.31725504310941</speed>
      </trkpt>
      <trkpt lat="43.75831" lon="6.29094">
        <ele>1038</ele>
        <time>2012-01-07T05:27:23Z</time>
        <course>231.726431768355</course>
        <speed>5.91943900415095</speed>
      </trkpt>
      <trkpt lat="43.75811" lon="6.2912">
        <ele>1038</ele>
        <time>2012-01-07T05:27:28Z</time>
        <course>218.462217516659</course>
        <speed>5.92048838853418</speed>
      </trkpt>
      <trkpt lat="43.75784" lon="6.29142">
        <ele>1039</ele>
        <time>2012-01-07T05:27:34Z</time>
        <course>242.847521342456</course>
        <speed>5.91595770812339</speed>
      </trkpt>
      <trkpt lat="43.75779" lon="6.29152">
        <ele>1039</ele>
        <time>2012-01-07T05:27:35Z</time>
        <course>284.380856986205</course>
        <speed>5.91554884096279</speed>
      </trkpt>
      <trkpt lat="43.75786" lon="6.2918">
        <ele>1040</ele>
        <time>2012-01-07T05:27:39Z</time>
        <course>297.147751556096</course>
        <speed>5.9159463457481</speed>
      </trkpt>
      <trkpt lat="43.75811" lon="6.2923">
        <ele>1041</ele>
        <time>2012-01-07T05:27:48Z</time>
        <course>321.798816312958</course>
        <speed>8.32151987280159</speed>
      </trkpt>
      <trkpt lat="43.75868" lon="6.29276">
        <ele>1020</ele>
        <time>2012-01-07T05:27:57Z</time>
        <course>309.697384012783</course>
        <speed>8.32767042662262</speed>
      </trkpt>
      <trkpt lat="43.75885" lon="6.29297">
        <ele>1013</ele>
        <time>2012-01-07T05:28:00Z</time>
        <course>289.895972330503</course>
        <speed>8.29814548007482</speed>
      </trkpt>
      <trkpt lat="43.75891" lon="6.29314">
        <ele>1009</ele>
        <time>2012-01-07T05:28:01Z</time>
        <course>268.162479498551</course>
        <speed>8.31919505707709</speed>
      </trkpt>
      <trkpt lat="43.7589" lon="6.29346">
        <ele>1007</ele>
        <time>2012-01-07T05:28:04Z</time>
        <course>243.81250888875</course>
        <speed>8.32208358898991</speed>
      </trkpt>
      <trkpt lat="43.75855" lon="6.29419">
        <ele>1004</ele>
        <time>2012-01-07T05:28:13Z</time>
        <course>228.008748603435</course>
        <speed>8.31775873007881</speed>
      </trkpt>
      <trkpt lat="43.75812" lon="6.29468">
        <ele>1001</ele>
        <time>2012-01-07T05:28:20Z</time>
        <course>218.279379222335</course>
        <speed>3.05783412638789</speed>
      </trkpt>
      <trkpt lat="43.7577" lon="6.29502">
        <ele>1005</ele>
        <time>2012-01-07T05:28:38Z</time>
        <course>191.032551505632</course>
        <speed>3.05644433276505</speed>
      </trkpt>
      <trkpt lat="43.75755" lon="6.29505">
        <ele>1007</ele>
        <time>2012-01-07T05:28:44Z</time>
        <course>170.772135274385</course>
        <speed>3.05798446167115</speed>
      </trkpt>
      <trkpt lat="43.75725" lon="6.295">
        <ele>1010</ele>
        <time>2012-01-07T05:28:55Z</time>
        <course>204.7835902363</course>
        <speed>8.32622448736524</speed>
      </trkpt>
      <trkpt lat="43.75706" lon="6.29509">
        <ele>1008</ele>
        <time>2012-01-07T05:28:57Z</time>
        <course>239.409514778319</course>
        <speed>8.31752531093139</speed>
      </trkpt>
      <trkpt lat="43.75615" lon="6.29667">
        <ele>1001</ele>
        <time>2012-01-07T05:29:17Z</time>
        <course>228.253678772608</course>
        <speed>8.31390643396864</speed>
      </trkpt>
      <trkpt lat="43.75575" lon="6.29713">
        <ele>994</ele>
        <time>2012-01-07T05:29:24Z</time>
        <course>263.833385703657</course>
        <speed>8.33013640383158</speed>
      </trkpt>
      <trkpt lat="43.75573" lon="6.29732">
        <ele>992</ele>
        <time>2012-01-07T05:29:26Z</time>
        <course>296.733987735236</course>
        <speed>8.313741731984</speed>
      </trkpt>
      <trkpt lat="43.756" lon="6.29787">
        <ele>987</ele>
        <time>2012-01-07T05:29:32Z</time>
        <course>277.178833176134</course>
        <speed>8.31636401103212</speed>
      </trkpt>
      <trkpt lat="43.75607" lon="6.29844">
        <ele>982</ele>
        <time>2012-01-07T05:29:38Z</time>
        <course>267.199811596159</course>
        <speed>8.32088201308481</speed>
      </trkpt>
      <trkpt lat="43.75605" lon="6.29886">
        <ele>978</ele>
        <time>2012-01-07T05:29:42Z</time>
        <course>253.453633134367</course>
        <speed>8.318324722497</speed>
      </trkpt>
      <trkpt lat="43.75594" lon="6.29924">
        <ele>976</ele>
        <time>2012-01-07T05:29:46Z</time>
        <course>246.84436551762</course>
        <speed>8.31845503731833</speed>
      </trkpt>
      <trkpt lat="43.75564" lon="6.29996">
        <ele>970</ele>
        <time>2012-01-07T05:29:54Z</time>
        <course>236.897247061373</course>
        <speed>8.31650041174006</speed>
      </trkpt>
      <trkpt lat="43.75517" lon="6.3007">
        <ele>970</ele>
        <time>2012-01-07T05:30:03Z</time>
        <course>224.252373230094</course>
        <speed>8.32863801474318</speed>
      </trkpt>
      <trkpt lat="43.75493" lon="6.30094">
        <ele>970</ele>
        <time>2012-01-07T05:30:07Z</time>
        <course>245.972656075249</course>
        <speed>8.31461963099623</speed>
      </trkpt>
      <trkpt lat="43.7546" lon="6.3017">
        <ele>969</ele>
        <time>2012-01-07T05:30:16Z</time>
        <course>240.186950465809</course>
        <speed>8.32371891117193</speed>
      </trkpt>
      <trkpt lat="43.75436" lon="6.30213">
        <ele>969</ele>
        <time>2012-01-07T05:30:21Z</time>
        <course>232.703070277684</course>
        <speed>8.31448459823557</speed>
      </trkpt>
      <trkpt lat="43.75413" lon="6.30244">
        <ele>966</ele>
        <time>2012-01-07T05:30:25Z</time>
        <course>220.07037765582</course>
        <speed>8.32747218869977</speed>
      </trkpt>
      <trkpt lat="43.75391" lon="6.30263">
        <ele>964</ele>
        <time>2012-01-07T05:30:29Z</time>
        <course>256.262385632556</course>
        <speed>8.33216409877756</speed>
      </trkpt>
      <trkpt lat="43.75386" lon="6.30284">
        <ele>963</ele>
        <time>2012-01-07T05:30:31Z</time>
        <course>287.530348793606</course>
        <speed>8.33938142322415</speed>
      </trkpt>
      <trkpt lat="43.7539" lon="6.30297">
        <ele>962</ele>
        <time>2012-01-07T05:30:32Z</time>
        <course>315.753026591985</course>
        <speed>8.34377942768776</speed>
      </trkpt>
      <trkpt lat="43.75397" lon="6.30304">
        <ele>961</ele>
        <time>2012-01-07T05:30:33Z</time>
        <course>14.5610702971015</course>
        <speed>8.32077819755867</speed>
      </trkpt>
      <trkpt lat="43.75412" lon="6.303">
        <ele>960</ele>
        <time>2012-01-07T05:30:35Z</time>
        <course>57.3185330190322</course>
        <speed>8.32463543022468</speed>
      </trkpt>
      <trkpt lat="43.75442" lon="6.30252">
        <ele>956</ele>
        <time>2012-01-07T05:30:41Z</time>
        <course>32.3282776490249</course>
        <speed>8.3199038530832</speed>
      </trkpt>
      <trkpt lat="43.75539" lon="6.30189">
        <ele>948</ele>
        <time>2012-01-07T05:30:56Z</time>
        <course>60.0728241279399</course>
        <speed>8.31662809498099</speed>
      </trkpt>
      <trkpt lat="43.75562" lon="6.30148">
        <ele>946</ele>
        <time>2012-01-07T05:31:01Z</time>
        <course>74.4703841410227</course>
        <speed>8.31206843094675</speed>
      </trkpt>
      <trkpt lat="43.75575" lon="6.301">
        <ele>945</ele>
        <time>2012-01-07T05:31:06Z</time>
        <course>16.9368911283639</course>
        <speed>8.32259430588312</speed>
      </trkpt>
      <trkpt lat="43.75591" lon="6.30095">
        <ele>945</ele>
        <time>2012-01-07T05:31:08Z</time>
        <course>318.747188187202</course>
        <speed>8.33553948934606</speed>
      </trkpt>
      <trkpt lat="43.75601" lon="6.30104">
        <ele>944</ele>
        <time>2012-01-07T05:31:09Z</time>
        <course>275.328120574702</course>
        <speed>8.31622920074135</speed>
      </trkpt>
      <trkpt lat="43.75603" lon="6.30126">
        <ele>944</ele>
        <time>2012-01-07T05:31:12Z</time>
        <course>240.929367880478</course>
        <speed>8.31692737158443</speed>
      </trkpt>
      <trkpt lat="43.75577" lon="6.30174">
        <ele>943</ele>
        <time>2012-01-07T05:31:17Z</time>
        <course>253.010313613939</course>
        <speed>8.31456377941949</speed>
      </trkpt>
      <trkpt lat="43.75552" lon="6.30258">
        <ele>941</ele>
        <time>2012-01-07T05:31:26Z</time>
        <course>230.949266622968</course>
        <speed>8.31600338137386</speed>
      </trkpt>
      <trkpt lat="43.75503" lon="6.3032">
        <ele>939</ele>
        <time>2012-01-07T05:31:35Z</time>
        <course>240.755048593119</course>
        <speed>8.31840323919738</speed>
      </trkpt>
      <trkpt lat="43.75485" lon="6.30353">
        <ele>935</ele>
        <time>2012-01-07T05:31:39Z</time>
        <course>261.166896419627</course>
        <speed>8.31921917619779</speed>
      </trkpt>
      <trkpt lat="43.75467" lon="6.30472">
        <ele>924</ele>
        <time>2012-01-07T05:31:51Z</time>
        <course>247.11371522964</course>
        <speed>8.32008499390184</speed>
      </trkpt>
      <trkpt lat="43.7543" lon="6.30562">
        <ele>916</ele>
        <time>2012-01-07T05:32:01Z</time>
        <course>265.235770257886</course>
        <speed>8.31821775793538</speed>
      </trkpt>
      <trkpt lat="43.75413" lon="6.30772">
        <ele>900</ele>
        <time>2012-01-07T05:32:21Z</time>
        <course>247.668543073073</course>
        <speed>3.89155376159508</speed>
      </trkpt>
      <trkpt lat="43.75379" lon="6.30857">
        <ele>904</ele>
        <time>2012-01-07T05:32:41Z</time>
        <course>264.667010465558</course>
        <speed>3.88589188177952</speed>
      </trkpt>
      <trkpt lat="43.75378" lon="6.30868">
        <ele>904</ele>
        <time>2012-01-07T05:32:43Z</time>
        <course>269.998507367626</course>
        <speed>3.89466733767018</speed>
      </trkpt>
      <trkpt lat="43.75378" lon="6.30891">
        <ele>906</ele>
        <time>2012-01-07T05:32:48Z</time>
        <course>284.390814054248</course>
        <speed>8.32220048513478</speed>
      </trkpt>
      <trkpt lat="43.75395" lon="6.30959">
        <ele>900</ele>
        <time>2012-01-07T05:32:55Z</time>
        <course>274.884498225177</course>
        <speed>8.31724915782722</speed>
      </trkpt>
      <trkpt lat="43.75402" lon="6.31043">
        <ele>894</ele>
        <time>2012-01-07T05:33:03Z</time>
        <course>270.976375948958</course>
        <speed>8.31969418240846</speed>
      </trkpt>
      <trkpt lat="43.75403" lon="6.31103">
        <ele>888</ele>
        <time>2012-01-07T05:33:09Z</time>
        <course>267.325369881931</course>
        <speed>8.32608988199054</speed>
      </trkpt>
      <trkpt lat="43.75401" lon="6.31147">
        <ele>884</ele>
        <time>2012-01-07T05:33:13Z</time>
        <course>255.000648573136</course>
        <speed>8.31684357944434</speed>
      </trkpt>
      <trkpt lat="43.75377" lon="6.31239">
        <ele>875</ele>
        <time>2012-01-07T05:33:23Z</time>
        <course>242.824738903147</course>
        <speed>3.24409686127787</speed>
      </trkpt>
      <trkpt lat="43.75366" lon="6.31261">
        <ele>876</ele>
        <time>2012-01-07T05:33:29Z</time>
        <course>217.143790109895</course>
        <speed>3.24497520250151</speed>
      </trkpt>
      <trkpt lat="43.75348" lon="6.31275">
        <ele>878</ele>
        <time>2012-01-07T05:33:36Z</time>
        <course>192.02606702795</course>
        <speed>3.24612717167075</speed>
      </trkpt>
      <trkpt lat="43.75316" lon="6.31282">
        <ele>881</ele>
        <time>2012-01-07T05:33:48Z</time>
        <course>204.394037746876</course>
        <speed>3.24555051027489</speed>
      </trkpt>
      <trkpt lat="43.75243" lon="6.31316">
        <ele>888</ele>
        <time>2012-01-07T05:34:14Z</time>
        <course>263.488796187157</course>
        <speed>8.30555609566297</speed>
      </trkpt>
      <trkpt lat="43.75241" lon="6.31334">
        <ele>885</ele>
        <time>2012-01-07T05:34:16Z</time>
        <course>298.855121969277</course>
        <speed>8.31550162662913</speed>
      </trkpt>
      <trkpt lat="43.75263" lon="6.31375">
        <ele>877</ele>
        <time>2012-01-07T05:34:21Z</time>
        <course>267.548226257262</course>
        <speed>8.31713683091321</speed>
      </trkpt>
      <trkpt lat="43.75262" lon="6.31399">
        <ele>873</ele>
        <time>2012-01-07T05:34:23Z</time>
        <course>236.878781414429</course>
        <speed>8.3167371037</speed>
      </trkpt>
      <trkpt lat="43.75215" lon="6.31473">
        <ele>858</ele>
        <time>2012-01-07T05:34:32Z</time>
        <course>246.607925740468</course>
        <speed>3.88818843730485</speed>
      </trkpt>
      <trkpt lat="43.75183" lon="6.31549">
        <ele>862</ele>
        <time>2012-01-07T05:34:51Z</time>
        <course>235.758114442972</course>
        <speed>3.8880486837981</speed>
      </trkpt>
      <trkpt lat="43.7513" lon="6.31629">
        <ele>867</ele>
        <time>2012-01-07T05:35:13Z</time>
        <course>263.10429017434</course>
        <speed>8.3159402552537</speed>
      </trkpt>
      <trkpt lat="43.75122" lon="6.31697">
        <ele>863</ele>
        <time>2012-01-07T05:35:20Z</time>
        <course>269.995604051693</course>
        <speed>8.31208495692015</speed>
      </trkpt>
      <trkpt lat="43.75122" lon="6.31764">
        <ele>860</ele>
        <time>2012-01-07T05:35:26Z</time>
        <course>275.141734304268</course>
        <speed>8.31922779119463</speed>
      </trkpt>
      <trkpt lat="43.75132" lon="6.31878">
        <ele>849</ele>
        <time>2012-01-07T05:35:37Z</time>
        <course>268.127989708887</course>
        <speed>8.32520191110426</speed>
      </trkpt>
      <trkpt lat="43.7513" lon="6.31941">
        <ele>843</ele>
        <time>2012-01-07T05:35:43Z</time>
        <course>265.823655904953</course>
        <speed>8.31903711085847</speed>
      </trkpt>
      <trkpt lat="43.7512" lon="6.32082">
        <ele>829</ele>
        <time>2012-01-07T05:35:57Z</time>
        <course>253.838074962151</course>
        <speed>3.61355688928636</speed>
      </trkpt>
      <trkpt lat="43.75109" lon="6.32121">
        <ele>831</ele>
        <time>2012-01-07T05:36:06Z</time>
        <course>229.134288810361</course>
        <speed>3.61483183349511</speed>
      </trkpt>
      <trkpt lat="43.75093" lon="6.3214">
        <ele>832</ele>
        <time>2012-01-07T05:36:13Z</time>
        <course>188.516053658836</course>
        <speed>3.61555454188573</speed>
      </trkpt>
      <trkpt lat="43.75067" lon="6.32144">
        <ele>834</ele>
        <time>2012-01-07T05:36:21Z</time>
        <course>147.023306800117</course>
        <speed>3.61564697336378</speed>
      </trkpt>
      <trkpt lat="43.75049" lon="6.32132">
        <ele>836</ele>
        <time>2012-01-07T05:36:27Z</time>
        <course>133.17400011535</course>
        <speed>3.61544870750816</speed>
      </trkpt>
      <trkpt lat="43.75028" lon="6.32109">
        <ele>838</ele>
        <time>2012-01-07T05:36:35Z</time>
        <course>158.731911673431</course>
        <speed>4.36062920514036</speed>
      </trkpt>
      <trkpt lat="43.74988" lon="6.32093">
        <ele>840</ele>
        <time>2012-01-07T05:36:46Z</time>
        <course>188.514232082626</course>
        <speed>4.3647243773464</speed>
      </trkpt>
      <trkpt lat="43.74975" lon="6.32095">
        <ele>840</ele>
        <time>2012-01-07T05:36:49Z</time>
        <course>229.422617313869</course>
        <speed>4.36371800224421</speed>
      </trkpt>
      <trkpt lat="43.74965" lon="6.32107">
        <ele>841</ele>
        <time>2012-01-07T05:36:52Z</time>
        <course>264.659644123655</course>
        <speed>4.36240225147534</speed>
      </trkpt>
      <trkpt lat="43.74961" lon="6.32151">
        <ele>843</ele>
        <time>2012-01-07T05:37:01Z</time>
        <course>233.717525369613</course>
        <speed>4.36572181945281</speed>
      </trkpt>
      <trkpt lat="43.74951" lon="6.32165">
        <ele>843</ele>
        <time>2012-01-07T05:37:04Z</time>
        <course>193.878670610381</course>
        <speed>4.36114946913971</speed>
      </trkpt>
      <trkpt lat="43.74888" lon="6.32181">
        <ele>847</ele>
        <time>2012-01-07T05:37:21Z</time>
        <course>211.201869251375</course>
        <speed>8.32173450887155</speed>
      </trkpt>
      <trkpt lat="43.74835" lon="6.32214">
        <ele>843</ele>
        <time>2012-01-07T05:37:28Z</time>
        <course>224.968975319994</course>
        <speed>8.32424774828435</speed>
      </trkpt>
      <trkpt lat="43.74798" lon="6.32252">
        <ele>840</ele>
        <time>2012-01-07T05:37:34Z</time>
        <course>207.781616689956</course>
        <speed>3.08929488934153</speed>
      </trkpt>
      <trkpt lat="43.74774" lon="6.32265">
        <ele>842</ele>
        <time>2012-01-07T05:37:44Z</time>
        <course>230.226916366927</course>
        <speed>3.09135548559203</speed>
      </trkpt>
      <trkpt lat="43.74757" lon="6.32286">
        <ele>844</ele>
        <time>2012-01-07T05:37:52Z</time>
        <course>183.973811360707</course>
        <speed>3.09077308599612</speed>
      </trkpt>
      <trkpt lat="43.74743" lon="6.32287">
        <ele>845</ele>
        <time>2012-01-07T05:37:57Z</time>
        <course>144.729793096691</course>
        <speed>3.0889201772444</speed>
      </trkpt>
      <trkpt lat="43.74721" lon="6.32271">
        <ele>848</ele>
        <time>2012-01-07T05:38:06Z</time>
        <course>181.392587252563</course>
        <speed>3.08931536277267</speed>
      </trkpt>
      <trkpt lat="43.74681" lon="6.32272">
        <ele>852</ele>
        <time>2012-01-07T05:38:20Z</time>
        <course>242.786874814866</course>
        <speed>8.30855168070288</speed>
      </trkpt>
      <trkpt lat="43.74673" lon="6.32288">
        <ele>851</ele>
        <time>2012-01-07T05:38:22Z</time>
        <course>265.35579897102</course>
        <speed>8.31586455514271</speed>
      </trkpt>
      <trkpt lat="43.7467" lon="6.32326">
        <ele>851</ele>
        <time>2012-01-07T05:38:26Z</time>
        <course>238.322233258291</course>
        <speed>8.32582808488564</speed>
      </trkpt>
      <trkpt lat="43.74661" lon="6.32341">
        <ele>850</ele>
        <time>2012-01-07T05:38:28Z</time>
        <course>193.660463774392</course>
        <speed>8.31564245964382</speed>
      </trkpt>
      <trkpt lat="43.74585" lon="6.3236">
        <ele>849</ele>
        <time>2012-01-07T05:38:38Z</time>
        <course>172.913227720656</course>
        <speed>1.14824482441386</speed>
      </trkpt>
      <trkpt lat="43.74499" lon="6.32349">
        <ele>879</ele>
        <time>2012-01-07T05:40:02Z</time>
        <course>204.72066191101</course>
        <speed>1.14846941352929</speed>
      </trkpt>
      <trkpt lat="43.7448" lon="6.32358">
        <ele>886</ele>
        <time>2012-01-07T05:40:21Z</time>
        <course>237.504046411104</course>
        <speed>8.31483614269979</speed>
      </trkpt>
      <trkpt lat="43.74467" lon="6.32379">
        <ele>881</ele>
        <time>2012-01-07T05:40:24Z</time>
        <course>252.225826102729</course>
        <speed>8.31920304319308</speed>
      </trkpt>
      <trkpt lat="43.74448" lon="6.3244">
        <ele>871</ele>
        <time>2012-01-07T05:40:30Z</time>
        <course>283.355790781506</course>
        <speed>8.33113393277114</speed>
      </trkpt>
      <trkpt lat="43.74454" lon="6.32466">
        <ele>867</ele>
        <time>2012-01-07T05:40:33Z</time>
        <course>294.098577797157</course>
        <speed>8.32025229811316</speed>
      </trkpt>
      <trkpt lat="43.74474" lon="6.32512">
        <ele>859</ele>
        <time>2012-01-07T05:40:38Z</time>
        <course>269.999393248639</course>
        <speed>8.30442801267765</speed>
      </trkpt>
      <trkpt lat="43.74474" lon="6.32521">
        <ele>858</ele>
        <time>2012-01-07T05:40:39Z</time>
        <course>253.780207485101</course>
        <speed>8.3215248379744</speed>
      </trkpt>
      <trkpt lat="43.74448" lon="6.32613">
        <ele>853</ele>
        <time>2012-01-07T05:40:48Z</time>
        <course>239.751954832488</course>
        <speed>8.31733570651166</speed>
      </trkpt>
      <trkpt lat="43.74431" lon="6.32643">
        <ele>851</ele>
        <time>2012-01-07T05:40:52Z</time>
        <course>222.63285214354</course>
        <speed>8.30653727121875</speed>
      </trkpt>
      <trkpt lat="43.74412" lon="6.32661">
        <ele>845</ele>
        <time>2012-01-07T05:40:55Z</time>
        <course>251.066273204594</course>
        <speed>8.28845316036677</speed>
      </trkpt>
      <trkpt lat="43.74408" lon="6.32673">
        <ele>843</ele>
        <time>2012-01-07T05:40:56Z</time>
        <course>273.01554242119</course>
        <speed>8.31438615145655</speed>
      </trkpt>
      <trkpt lat="43.74412" lon="6.32751">
        <ele>829</ele>
        <time>2012-01-07T05:41:04Z</time>
        <course>282.365164903856</course>
        <speed>8.3151709675525</speed>
      </trkpt>
      <trkpt lat="43.74425" lon="6.32812">
        <ele>818</ele>
        <time>2012-01-07T05:41:10Z</time>
        <course>254.972135682595</course>
        <speed>5.52973416046908</speed>
      </trkpt>
      <trkpt lat="43.74419" lon="6.32835">
        <ele>818</ele>
        <time>2012-01-07T05:41:14Z</time>
        <course>242.175766292395</course>
        <speed>5.52431636818236</speed>
      </trkpt>
      <trkpt lat="43.74399" lon="6.32874">
        <ele>819</ele>
        <time>2012-01-07T05:41:21Z</time>
        <course>289.849427129772</course>
        <speed>5.52927757825945</speed>
      </trkpt>
      <trkpt lat="43.74419" lon="6.32931">
        <ele>820</ele>
        <time>2012-01-07T05:41:30Z</time>
        <course>261.22121336103</course>
        <speed>5.52735343370116</speed>
      </trkpt>
      <trkpt lat="43.7441" lon="6.32991">
        <ele>822</ele>
        <time>2012-01-07T05:41:39Z</time>
        <course>249.235549245118</course>
        <speed>5.21997586265348</speed>
      </trkpt>
      <trkpt lat="43.74403" lon="6.3301">
        <ele>822</ele>
        <time>2012-01-07T05:41:42Z</time>
        <course>236.008781032073</course>
        <speed>5.21196096779927</speed>
      </trkpt>
      <trkpt lat="43.74384" lon="6.33039">
        <ele>823</ele>
        <time>2012-01-07T05:41:48Z</time>
        <course>269.997022635233</course>
        <speed>5.20973916094789</speed>
      </trkpt>
      <trkpt lat="43.74384" lon="6.33083">
        <ele>824</ele>
        <time>2012-01-07T05:41:55Z</time>
        <course>243.670988919138</course>
        <speed>5.21236493459394</speed>
      </trkpt>
      <trkpt lat="43.74359" lon="6.33135">
        <ele>826</ele>
        <time>2012-01-07T05:42:04Z</time>
        <course>257.7719991612</course>
        <speed>8.31790732314898</speed>
      </trkpt>
      <trkpt lat="43.74351" lon="6.33173">
        <ele>823</ele>
        <time>2012-01-07T05:42:08Z</time>
        <course>250.76529085016</course>
        <speed>8.3170497270171</speed>
      </trkpt>
      <trkpt lat="43.7431" lon="6.33294">
        <ele>815</ele>
        <time>2012-01-07T05:42:21Z</time>
        <course>263.613073331671</course>
        <speed>8.31707675183163</speed>
      </trkpt>
      <trkpt lat="43.74305" lon="6.3334">
        <ele>804</ele>
        <time>2012-01-07T05:42:26Z</time>
        <course>255.94088921903</course>
        <speed>8.31338028986728</speed>
      </trkpt>
      <trkpt lat="43.74296" lon="6.33377">
        <ele>795</ele>
        <time>2012-01-07T05:42:29Z</time>
        <course>250.184938028195</course>
        <speed>8.3169203772234</speed>
      </trkpt>
      <trkpt lat="43.74225" lon="6.3358">
        <ele>744</ele>
        <time>2012-01-07T05:42:51Z</time>
        <course>261.804248953779</course>
        <speed>8.31998452061229</speed>
      </trkpt>
      <trkpt lat="43.74212" lon="6.33673">
        <ele>742</ele>
        <time>2012-01-07T05:43:00Z</time>
        <course>249.92439787937</course>
        <speed>8.31794272816041</speed>
      </trkpt>
      <trkpt lat="43.74179" lon="6.33766">
        <ele>740</ele>
        <time>2012-01-07T05:43:10Z</time>
        <course>237.85564562227</course>
        <speed>1.17866688355062</speed>
      </trkpt>
      <trkpt lat="43.74143" lon="6.33825">
        <ele>758</ele>
        <time>2012-01-07T05:44:03Z</time>
        <course>248.265173020502</course>
        <speed>1.17838832928538</speed>
      </trkpt>
      <trkpt lat="43.74131" lon="6.33856">
        <ele>767</ele>
        <time>2012-01-07T05:44:27Z</time>
        <course>264.306900421585</course>
        <speed>1.17884078498672</speed>
      </trkpt>
      <trkpt lat="43.74128" lon="6.33887">
        <ele>775</ele>
        <time>2012-01-07T05:44:48Z</time>
        <course>282.887500792824</course>
        <speed>8.30696078069379</speed>
      </trkpt>
      <trkpt lat="43.74134" lon="6.33914">
        <ele>759</ele>
        <time>2012-01-07T05:44:51Z</time>
        <course>295.371480562336</course>
        <speed>8.31588891262172</speed>
      </trkpt>
      <trkpt lat="43.74175" lon="6.34003">
        <ele>701</ele>
        <time>2012-01-07T05:45:01Z</time>
        <course>279.735860088086</course>
        <speed>1.39839276680466</speed>
      </trkpt>
      <trkpt lat="43.74179" lon="6.34027">
        <ele>705</ele>
        <time>2012-01-07T05:45:15Z</time>
        <course>262.66387584913</course>
        <speed>1.39792605006728</speed>
      </trkpt>
      <trkpt lat="43.74175" lon="6.34059">
        <ele>712</ele>
        <time>2012-01-07T05:45:34Z</time>
        <course>221.254891808719</course>
        <speed>1.39811764518163</speed>
      </trkpt>
      <trkpt lat="43.74144" lon="6.34087">
        <ele>722</ele>
        <time>2012-01-07T05:46:03Z</time>
        <course>196.464783923088</course>
        <speed>1.39787055789687</speed>
      </trkpt>
      <trkpt lat="43.74121" lon="6.34094">
        <ele>729</ele>
        <time>2012-01-07T05:46:22Z</time>
        <course>176.932094051269</course>
        <speed>1.39803839554567</speed>
      </trkpt>
      <trkpt lat="43.73958" lon="6.34085">
        <ele>774</ele>
        <time>2012-01-07T05:48:32Z</time>
        <course>184.624489742309</course>
        <speed>8.29723378092409</speed>
      </trkpt>
      <trkpt lat="43.73946" lon="6.34086">
        <ele>773</ele>
        <time>2012-01-07T05:48:33Z</time>
        <course>217.049675182637</course>
        <speed>8.31278282739863</speed>
      </trkpt>
      <trkpt lat="43.73928" lon="6.341">
        <ele>772</ele>
        <time>2012-01-07T05:48:36Z</time>
        <course>242.983515464389</course>
        <speed>8.32018516002127</speed>
      </trkpt>
      <trkpt lat="43.73881" lon="6.34195">
        <ele>768</ele>
        <time>2012-01-07T05:48:47Z</time>
        <course>255.548880447843</course>
        <speed>6.35768792788447</speed>
      </trkpt>
      <trkpt lat="43.73861" lon="6.34275">
        <ele>769</ele>
        <time>2012-01-07T05:48:58Z</time>
        <course>245.864840140307</course>
        <speed>6.3572448658397</speed>
      </trkpt>
      <trkpt lat="43.73851" lon="6.34298">
        <ele>769</ele>
        <time>2012-01-07T05:49:01Z</time>
        <course>240.534303422977</course>
        <speed>6.35932166285042</speed>
      </trkpt>
      <trkpt lat="43.73794" lon="6.34402">
        <ele>771</ele>
        <time>2012-01-07T05:49:18Z</time>
        <course>255.809362509538</course>
        <speed>2.43162496242969</speed>
      </trkpt>
      <trkpt lat="43.73781" lon="6.34455">
        <ele>776</ele>
        <time>2012-01-07T05:49:36Z</time>
        <course>226.972838522404</course>
        <speed>2.43171221513742</speed>
      </trkpt>
      <trkpt lat="43.73714" lon="6.34529">
        <ele>788</ele>
        <time>2012-01-07T05:50:15Z</time>
        <course>259.834703312056</course>
        <speed>3.32631693949887</speed>
      </trkpt>
      <trkpt lat="43.7371" lon="6.34552">
        <ele>789</ele>
        <time>2012-01-07T05:50:21Z</time>
        <course>278.182070028864</course>
        <speed>3.32649266182083</speed>
      </trkpt>
      <trkpt lat="43.73716" lon="6.34595">
        <ele>792</ele>
        <time>2012-01-07T05:50:32Z</time>
        <course>261.621859533589</course>
        <speed>3.33072246687871</speed>
      </trkpt>
      <trkpt lat="43.73714" lon="6.34609">
        <ele>792</ele>
        <time>2012-01-07T05:50:35Z</time>
        <course>244.812421982597</course>
        <speed>3.3263716700595</speed>
      </trkpt>
      <trkpt lat="43.73688" lon="6.34666">
        <ele>797</ele>
        <time>2012-01-07T05:50:51Z</time>
        <course>256.273628337549</course>
        <speed>8.31769248698368</speed>
      </trkpt>
      <trkpt lat="43.7367" lon="6.34742">
        <ele>774</ele>
        <time>2012-01-07T05:50:59Z</time>
        <course>243.849072489446</course>
        <speed>8.32689156102919</speed>
      </trkpt>
      <trkpt lat="43.7365" lon="6.34784">
        <ele>761</ele>
        <time>2012-01-07T05:51:04Z</time>
        <course>256.3580311713</course>
        <speed>8.31653788732473</speed>
      </trkpt>
      <trkpt lat="43.7363" lon="6.34869">
        <ele>736</ele>
        <time>2012-01-07T05:51:13Z</time>
        <course>245.996761053578</course>
        <speed>8.31409343050304</speed>
      </trkpt>
      <trkpt lat="43.73611" lon="6.34913">
        <ele>722</ele>
        <time>2012-01-07T05:51:17Z</time>
        <course>240.360445595095</course>
        <speed>0.751965283110505</speed>
      </trkpt>
      <trkpt lat="43.7352" lon="6.35078">
        <ele>806</ele>
        <time>2012-01-07T05:54:59Z</time>
        <course>225.446756404135</course>
        <speed>2.41473637941592</speed>
      </trkpt>
      <trkpt lat="43.73499" lon="6.351">
        <ele>809</ele>
        <time>2012-01-07T05:55:11Z</time>
        <course>208.720426990325</course>
        <speed>2.41423665678127</speed>
      </trkpt>
      <trkpt lat="43.73453" lon="6.35126">
        <ele>816</ele>
        <time>2012-01-07T05:55:34Z</time>
        <course>217.366646677407</course>
        <speed>2.41420252156974</speed>
      </trkpt>
      <trkpt lat="43.73302" lon="6.35245">
        <ele>840</ele>
        <time>2012-01-07T05:56:54Z</time>
        <course>206.739824068194</course>
        <speed>5.67062281694999</speed>
      </trkpt>
      <trkpt lat="43.73227" lon="6.35284">
        <ele>842</ele>
        <time>2012-01-07T05:57:10Z</time>
        <course>227.846156217987</course>
        <speed>5.67178824706017</speed>
      </trkpt>
      <trkpt lat="43.7317" lon="6.35349">
        <ele>844</ele>
        <time>2012-01-07T05:57:24Z</time>
        <course>236.047204463893</course>
        <speed>5.17735118866519</speed>
      </trkpt>
      <trkpt lat="43.7314" lon="6.35395">
        <ele>845</ele>
        <time>2012-01-07T05:57:34Z</time>
        <course>240.158012611166</course>
        <speed>5.17922844430561</speed>
      </trkpt>
      <trkpt lat="43.73095" lon="6.35476">
        <ele>848</ele>
        <time>2012-01-07T05:57:50Z</time>
        <course>246.12194595009</course>
        <speed>5.40334868686141</speed>
      </trkpt>
      <trkpt lat="43.73044" lon="6.35595">
        <ele>851</ele>
        <time>2012-01-07T05:58:10Z</time>
        <course>253.233803499281</course>
        <speed>4.30556277183942</speed>
      </trkpt>
      <trkpt lat="43.73023" lon="6.35667">
        <ele>853</ele>
        <time>2012-01-07T05:58:25Z</time>
        <course>262.15837633854</course>
        <speed>4.30497834506004</speed>
      </trkpt>
      <trkpt lat="43.73019" lon="6.35697">
        <ele>855</ele>
        <time>2012-01-07T05:58:30Z</time>
        <course>281.66543143607</course>
        <speed>4.30342882026414</speed>
      </trkpt>
      <trkpt lat="43.73029" lon="6.35747">
        <ele>857</ele>
        <time>2012-01-07T05:58:40Z</time>
        <course>269.997642710945</course>
        <speed>3.58074582021407</speed>
      </trkpt>
      <trkpt lat="43.73029" lon="6.3578">
        <ele>858</ele>
        <time>2012-01-07T05:58:47Z</time>
        <course>266.170766615268</course>
        <speed>3.58160607494158</speed>
      </trkpt>
      <trkpt lat="43.73013" lon="6.36028">
        <ele>872</ele>
        <time>2012-01-07T05:59:43Z</time>
        <course>253.830365316466</course>
        <speed>3.83898207291224</speed>
      </trkpt>
      <trkpt lat="43.72997" lon="6.36085">
        <ele>874</ele>
        <time>2012-01-07T05:59:56Z</time>
        <course>245.627589899525</course>
        <speed>3.83797824642317</speed>
      </trkpt>
      <trkpt lat="43.72972" lon="6.36142">
        <ele>878</ele>
        <time>2012-01-07T06:00:10Z</time>
        <course>232.383788713107</course>
        <speed>4.88633262438227</speed>
      </trkpt>
      <trkpt lat="43.7277" lon="6.36413">
        <ele>889</ele>
        <time>2012-01-07T06:01:14Z</time>
        <course>240.590435146251</course>
        <speed>4.00483481646645</speed>
      </trkpt>
      <trkpt lat="43.72752" lon="6.36446">
        <ele>890</ele>
        <time>2012-01-07T06:01:22Z</time>
        <course>257.848825212341</course>
        <speed>4.00333857608071</speed>
      </trkpt>
      <trkpt lat="43.72747" lon="6.3647">
        <ele>891</ele>
        <time>2012-01-07T06:01:27Z</time>
        <course>288.071430199506</course>
        <speed>4.00240941828368</speed>
      </trkpt>
      <trkpt lat="43.72753" lon="6.36489">
        <ele>892</ele>
        <time>2012-01-07T06:01:31Z</time>
        <course>331.974576204581</course>
        <speed>4.0058593162167</speed>
      </trkpt>
      <trkpt lat="43.72773" lon="6.365">
        <ele>894</ele>
        <time>2012-01-07T06:01:37Z</time>
        <course>24.069398097095</course>
        <speed>4.00733246428181</speed>
      </trkpt>
      <trkpt lat="43.72786" lon="6.36494">
        <ele>894</ele>
        <time>2012-01-07T06:01:41Z</time>
        <course>47.4366503988108</course>
        <speed>4.00578930717839</speed>
      </trkpt>
      <trkpt lat="43.7281" lon="6.36467">
        <ele>896</ele>
        <time>2012-01-07T06:01:50Z</time>
        <course>25.8258155920661</course>
        <speed>4.00511114496348</speed>
      </trkpt>
      <trkpt lat="43.7284" lon="6.36452">
        <ele>898</ele>
        <time>2012-01-07T06:01:59Z</time>
        <course>0.990383185663355</course>
        <speed>4.00723635348121</speed>
      </trkpt>
      <trkpt lat="43.72896" lon="6.36451">
        <ele>902</ele>
        <time>2012-01-07T06:02:14Z</time>
        <course>7.60846987728398</course>
        <speed>2.91909748383272</speed>
      </trkpt>
      <trkpt lat="43.73041" lon="6.36431">
        <ele>917</ele>
        <time>2012-01-07T06:03:10Z</time>
        <course>16.0773580589664</course>
        <speed>3.89489550531933</speed>
      </trkpt>
      <trkpt lat="43.73273" lon="6.36362">
        <ele>932</ele>
        <time>2012-01-07T06:04:17Z</time>
        <course>6.66050160619665</course>
        <speed>3.05539390069921</speed>
      </trkpt>
      <trkpt lat="43.73356" lon="6.36352">
        <ele>939</ele>
        <time>2012-01-07T06:04:48Z</time>
        <course>2.36230745244046</course>
        <speed>3.05561878140784</speed>
      </trkpt>
      <trkpt lat="43.7345" lon="6.36348">
        <ele>949</ele>
        <time>2012-01-07T06:05:22Z</time>
        <course>343.972421573067</course>
        <speed>3.62246300925643</speed>
      </trkpt>
      <trkpt lat="43.73477" lon="6.36356">
        <ele>950</ele>
        <time>2012-01-07T06:05:30Z</time>
        <course>319.243579084418</course>
        <speed>3.62372753496435</speed>
      </trkpt>
      <trkpt lat="43.73495" lon="6.36372">
        <ele>952</ele>
        <time>2012-01-07T06:05:37Z</time>
        <course>292.931741578966</course>
        <speed>3.62255412673435</speed>
      </trkpt>
      <trkpt lat="43.73511" lon="6.36411">
        <ele>954</ele>
        <time>2012-01-07T06:05:47Z</time>
        <course>284.57452895301</course>
        <speed>3.62363448682922</speed>
      </trkpt>
      <trkpt lat="43.73539" lon="6.36522">
        <ele>961</ele>
        <time>2012-01-07T06:06:13Z</time>
        <course>266.624999239281</course>
        <speed>8.31527559458935</speed>
      </trkpt>
      <trkpt lat="43.73537" lon="6.36557">
        <ele>956</ele>
        <time>2012-01-07T06:06:16Z</time>
        <course>288.969306833343</course>
        <speed>8.32661804790095</speed>
      </trkpt>
      <trkpt lat="43.73544" lon="6.36578">
        <ele>953</ele>
        <time>2012-01-07T06:06:19Z</time>
        <course>276.534797867769</course>
        <speed>8.30785573087985</speed>
      </trkpt>
      <trkpt lat="43.73547" lon="6.36605">
        <ele>949</ele>
        <time>2012-01-07T06:06:21Z</time>
        <course>273.464259960234</course>
        <speed>8.31632039295029</speed>
      </trkpt>
      <trkpt lat="43.73553" lon="6.36707">
        <ele>936</ele>
        <time>2012-01-07T06:06:31Z</time>
        <course>264.874200537494</course>
        <speed>8.30339540344929</speed>
      </trkpt>
      <trkpt lat="43.73551" lon="6.3673">
        <ele>934</ele>
        <time>2012-01-07T06:06:33Z</time>
        <course>239.291674648487</course>
        <speed>8.31714537944119</speed>
      </trkpt>
      <trkpt lat="43.73494" lon="6.36829">
        <ele>927</ele>
        <time>2012-01-07T06:06:46Z</time>
        <course>247.488506093685</course>
        <speed>8.31991724944594</speed>
      </trkpt>
      <trkpt lat="43.73445" lon="6.36951">
        <ele>910</ele>
        <time>2012-01-07T06:06:59Z</time>
        <course>243.109152697086</course>
        <speed>8.3153570495804</speed>
      </trkpt>
      <trkpt lat="43.73416" lon="6.3701">
        <ele>904</ele>
        <time>2012-01-07T06:07:06Z</time>
        <course>238.237053487828</course>
        <speed>8.31581796495109</speed>
      </trkpt>
      <trkpt lat="43.73368" lon="6.3709">
        <ele>896</ele>
        <time>2012-01-07T06:07:16Z</time>
        <course>232.813519898028</course>
        <speed>8.31810608029991</speed>
      </trkpt>
      <trkpt lat="43.73282" lon="6.37207">
        <ele>886</ele>
        <time>2012-01-07T06:07:32Z</time>
        <course>244.574744469943</course>
        <speed>8.31750007225843</speed>
      </trkpt>
      <trkpt lat="43.73247" lon="6.37283">
        <ele>873</ele>
        <time>2012-01-07T06:07:41Z</time>
        <course>217.779717634709</course>
        <speed>8.30743369600407</speed>
      </trkpt>
      <trkpt lat="43.73227" lon="6.37299">
        <ele>868</ele>
        <time>2012-01-07T06:07:44Z</time>
        <course>269.998582329004</course>
        <speed>8.32050339960604</speed>
      </trkpt>
      <trkpt lat="43.73227" lon="6.37319">
        <ele>866</ele>
        <time>2012-01-07T06:07:46Z</time>
        <course>315.903919170917</course>
        <speed>3.49282440696072</speed>
      </trkpt>
      <trkpt lat="43.73235" lon="6.37327">
        <ele>866</ele>
        <time>2012-01-07T06:07:49Z</time>
        <course>19.40975896659</course>
        <speed>3.49118903607969</speed>
      </trkpt>
      <trkpt lat="43.73246" lon="6.37323">
        <ele>867</ele>
        <time>2012-01-07T06:07:53Z</time>
        <course>67.1611384800961</course>
        <speed>3.4946871987956</speed>
      </trkpt>
      <trkpt lat="43.73266" lon="6.37274">
        <ele>870</ele>
        <time>2012-01-07T06:08:05Z</time>
        <course>50.4601893449023</course>
        <speed>3.49577910754674</speed>
      </trkpt>
      <trkpt lat="43.7329" lon="6.37244">
        <ele>873</ele>
        <time>2012-01-07T06:08:16Z</time>
        <course>41.1744032169581</course>
        <speed>3.49546022001525</speed>
      </trkpt>
      <trkpt lat="43.73331" lon="6.37207">
        <ele>877</ele>
        <time>2012-01-07T06:08:31Z</time>
        <course>30.1081571421332</course>
        <speed>8.31903937027037</speed>
      </trkpt>
      <trkpt lat="43.73438" lon="6.37143">
        <ele>871</ele>
        <time>2012-01-07T06:08:47Z</time>
        <course>21.8243864982633</course>
        <speed>8.32184742173244</speed>
      </trkpt>
      <trkpt lat="43.73484" lon="6.37124">
        <ele>869</ele>
        <time>2012-01-07T06:08:53Z</time>
        <course>11.3252566538868</course>
        <speed>8.315551364667</speed>
      </trkpt>
      <trkpt lat="43.73576" lon="6.37105">
        <ele>867</ele>
        <time>2012-01-07T06:09:06Z</time>
        <course>25.0195001224274</course>
        <speed>4.62028308396813</speed>
      </trkpt>
      <trkpt lat="43.73682" lon="6.37054">
        <ele>872</ele>
        <time>2012-01-07T06:09:33Z</time>
        <course>6.23867201495962</course>
        <speed>3.08360788016734</speed>
      </trkpt>
      <trkpt lat="43.73753" lon="6.37046">
        <ele>878</ele>
        <time>2012-01-07T06:09:58Z</time>
        <course>357.684954706564</course>
        <speed>3.08449504541696</speed>
      </trkpt>
      <trkpt lat="43.73777" lon="6.37047">
        <ele>881</ele>
        <time>2012-01-07T06:10:07Z</time>
        <course>342.677846647626</course>
        <speed>6.71042246064621</speed>
      </trkpt>
      <trkpt lat="43.73805" lon="6.37056">
        <ele>881</ele>
        <time>2012-01-07T06:10:12Z</time>
        <course>327.696928658383</course>
        <speed>6.70323528250414</speed>
      </trkpt>
      <trkpt lat="43.73914" lon="6.37127">
        <ele>883</ele>
        <time>2012-01-07T06:10:32Z</time>
        <course>302.777803258773</course>
        <speed>2.58913159435374</speed>
      </trkpt>
      <trkpt lat="43.73924" lon="6.37143">
        <ele>884</ele>
        <time>2012-01-07T06:10:38Z</time>
        <course>276.907529661014</course>
        <speed>2.58788805703632</speed>
      </trkpt>
      <trkpt lat="43.7393" lon="6.37194">
        <ele>889</ele>
        <time>2012-01-07T06:10:54Z</time>
        <course>257.101213751077</course>
        <speed>2.58889449495593</speed>
      </trkpt>
      <trkpt lat="43.7392" lon="6.37239">
        <ele>893</ele>
        <time>2012-01-07T06:11:09Z</time>
        <course>238.866949246523</course>
        <speed>2.58910600334247</speed>
      </trkpt>
      <trkpt lat="43.73903" lon="6.37268">
        <ele>897</ele>
        <time>2012-01-07T06:11:20Z</time>
        <course>287.846329703976</course>
        <speed>8.3306432919926</speed>
      </trkpt>
      <trkpt lat="43.73908" lon="6.37284">
        <ele>893</ele>
        <time>2012-01-07T06:11:22Z</time>
        <course>339.723666514786</course>
        <speed>8.31575194025968</speed>
      </trkpt>
      <trkpt lat="43.74021" lon="6.37327">
        <ele>859</ele>
        <time>2012-01-07T06:11:38Z</time>
        <course>293.818216586299</course>
        <speed>8.27101795990138</speed>
      </trkpt>
      <trkpt lat="43.74024" lon="6.37334">
        <ele>858</ele>
        <time>2012-01-07T06:11:39Z</time>
        <course>260.994531157353</course>
        <speed>8.33646964174477</speed>
      </trkpt>
      <trkpt lat="43.74022" lon="6.37347">
        <ele>858</ele>
        <time>2012-01-07T06:11:40Z</time>
        <course>224.653432875891</course>
        <speed>8.31451302731863</speed>
      </trkpt>
      <trkpt lat="43.73966" lon="6.37404">
        <ele>858</ele>
        <time>2012-01-07T06:11:49Z</time>
        <course>229.006949926303</course>
        <speed>8.32036207278753</speed>
      </trkpt>
      <trkpt lat="43.73896" lon="6.37487">
        <ele>857</ele>
        <time>2012-01-07T06:12:02Z</time>
        <course>223.060873527516</course>
        <speed>8.32561396257549</speed>
      </trkpt>
      <trkpt lat="43.73869" lon="6.37513">
        <ele>854</ele>
        <time>2012-01-07T06:12:06Z</time>
        <course>216.472262489604</course>
        <speed>8.31762572113755</speed>
      </trkpt>
      <trkpt lat="43.73785" lon="6.37577">
        <ele>847</ele>
        <time>2012-01-07T06:12:19Z</time>
        <course>250.684801226258</course>
        <speed>8.32371161665285</speed>
      </trkpt>
      <trkpt lat="43.73768" lon="6.37627">
        <ele>826</ele>
        <time>2012-01-07T06:12:24Z</time>
        <course>236.469720368105</course>
        <speed>8.31218424400454</speed>
      </trkpt>
      <trkpt lat="43.7375" lon="6.37655">
        <ele>812</ele>
        <time>2012-01-07T06:12:28Z</time>
        <course>214.719258631239</course>
        <speed>8.31655863409247</speed>
      </trkpt>
      <trkpt lat="43.73722" lon="6.37675">
        <ele>797</ele>
        <time>2012-01-07T06:12:32Z</time>
        <course>203.113906973591</course>
        <speed>8.32857799985712</speed>
      </trkpt>
      <trkpt lat="43.73697" lon="6.37686">
        <ele>794</ele>
        <time>2012-01-07T06:12:35Z</time>
        <course>197.15216025589</course>
        <speed>8.30599059680761</speed>
      </trkpt>
      <trkpt lat="43.73675" lon="6.37693">
        <ele>792</ele>
        <time>2012-01-07T06:12:38Z</time>
        <course>171.513131584546</course>
        <speed>8.32131953851341</speed>
      </trkpt>
      <trkpt lat="43.73636" lon="6.37687">
        <ele>789</ele>
        <time>2012-01-07T06:12:44Z</time>
        <course>179.338600875032</course>
        <speed>8.31945213519739</speed>
      </trkpt>
      <trkpt lat="43.73552" lon="6.37686">
        <ele>782</ele>
        <time>2012-01-07T06:12:55Z</time>
        <course>187.176405868982</course>
        <speed>8.31929115121661</speed>
      </trkpt>
      <trkpt lat="43.73475" lon="6.37696">
        <ele>780</ele>
        <time>2012-01-07T06:13:05Z</time>
        <course>163.975785846018</course>
        <speed>8.31497783207712</speed>
      </trkpt>
      <trkpt lat="43.73394" lon="6.37672">
        <ele>778</ele>
        <time>2012-01-07T06:13:16Z</time>
        <course>141.700320116601</course>
        <speed>2.50655788251234</speed>
      </trkpt>
      <trkpt lat="43.73367" lon="6.3765">
        <ele>782</ele>
        <time>2012-01-07T06:13:30Z</time>
        <course>124.523339374588</course>
        <speed>2.50604895132253</speed>
      </trkpt>
      <trkpt lat="43.73349" lon="6.37623">
        <ele>785</ele>
        <time>2012-01-07T06:13:42Z</time>
        <course>143.295019580963</course>
        <speed>2.50789337789383</speed>
      </trkpt>
      <trkpt lat="43.73336" lon="6.37613">
        <ele>787</ele>
        <time>2012-01-07T06:13:48Z</time>
        <course>183.081862280374</course>
        <speed>2.50534531210161</speed>
      </trkpt>
      <trkpt lat="43.73318" lon="6.37614">
        <ele>789</ele>
        <time>2012-01-07T06:13:56Z</time>
        <course>220.025882025906</course>
        <speed>2.50529083623521</speed>
      </trkpt>
      <trkpt lat="43.73303" lon="6.37627">
        <ele>792</ele>
        <time>2012-01-07T06:14:04Z</time>
        <course>249.616952250017</course>
        <speed>8.32146360236091</speed>
      </trkpt>
      <trkpt lat="43.73285" lon="6.37677">
        <ele>790</ele>
        <time>2012-01-07T06:14:10Z</time>
        <course>240.026146304051</course>
        <speed>8.31588875813724</speed>
      </trkpt>
      <trkpt lat="43.73266" lon="6.37711">
        <ele>788</ele>
        <time>2012-01-07T06:14:14Z</time>
        <course>276.539989801418</course>
        <speed>8.30823317592149</speed>
      </trkpt>
      <trkpt lat="43.73268" lon="6.37729">
        <ele>788</ele>
        <time>2012-01-07T06:14:16Z</time>
        <course>285.147726064228</course>
        <speed>8.31978408678919</speed>
      </trkpt>
      <trkpt lat="43.73315" lon="6.37908">
        <ele>782</ele>
        <time>2012-01-07T06:14:34Z</time>
        <course>272.741629161873</course>
        <speed>8.31655384289871</speed>
      </trkpt>
      <trkpt lat="43.73319" lon="6.37994">
        <ele>775</ele>
        <time>2012-01-07T06:14:42Z</time>
        <course>270.51053596087</course>
        <speed>8.32174443976361</speed>
      </trkpt>
      <trkpt lat="43.7332" lon="6.38108">
        <ele>767</ele>
        <time>2012-01-07T06:14:53Z</time>
        <course>262.839059897684</course>
        <speed>8.3167746125916</speed>
      </trkpt>
      <trkpt lat="43.73294" lon="6.38322">
        <ele>750</ele>
        <time>2012-01-07T06:15:14Z</time>
        <course>273.250174361064</course>
        <speed>8.31920808132262</speed>
      </trkpt>
      <trkpt lat="43.73304" lon="6.38503">
        <ele>716</ele>
        <time>2012-01-07T06:15:32Z</time>
        <course>260.975677787144</course>
        <speed>8.32118029394378</speed>
      </trkpt>
      <trkpt lat="43.73296" lon="6.38555">
        <ele>696</ele>
        <time>2012-01-07T06:15:37Z</time>
        <course>274.811603020153</course>
        <speed>8.31792324076078</speed>
      </trkpt>
      <trkpt lat="43.733" lon="6.38604">
        <ele>679</ele>
        <time>2012-01-07T06:15:42Z</time>
        <course>268.335224032409</course>
        <speed>8.3149887400056</speed>
      </trkpt>
      <trkpt lat="43.73297" lon="6.38711">
        <ele>641</ele>
        <time>2012-01-07T06:15:52Z</time>
        <course>245.361096718511</course>
        <speed>3.76222963205347</speed>
      </trkpt>
      <trkpt lat="43.73289" lon="6.38729">
        <ele>642</ele>
        <time>2012-01-07T06:15:57Z</time>
        <course>208.974403152343</course>
        <speed>3.76526551986305</speed>
      </trkpt>
      <trkpt lat="43.73275" lon="6.38737">
        <ele>643</ele>
        <time>2012-01-07T06:16:01Z</time>
        <course>170.827255665123</course>
        <speed>3.76691041002074</speed>
      </trkpt>
      <trkpt lat="43.73209" lon="6.38726">
        <ele>647</ele>
        <time>2012-01-07T06:16:21Z</time>
        <course>192.840442001878</course>
        <speed>3.76700210599546</speed>
      </trkpt>
      <trkpt lat="43.73158" lon="6.38738">
        <ele>651</ele>
        <time>2012-01-07T06:16:36Z</time>
        <course>146.152805097239</course>
        <speed>5.38410122921535</speed>
      </trkpt>
      <trkpt lat="43.73145" lon="6.38729">
        <ele>651</ele>
        <time>2012-01-07T06:16:39Z</time>
        <course>127.888669755185</course>
        <speed>5.38707239592346</speed>
      </trkpt>
      <trkpt lat="43.73093" lon="6.3866">
        <ele>653</ele>
        <time>2012-01-07T06:16:54Z</time>
        <course>144.839436596474</course>
        <speed>5.39386473760715</speed>
      </trkpt>
      <trkpt lat="43.73082" lon="6.38652">
        <ele>654</ele>
        <time>2012-01-07T06:16:56Z</time>
        <course>180</course>
        <speed>0.908957055192784</speed>
      </trkpt>
      <trkpt lat="43.73062" lon="6.38652">
        <ele>663</ele>
        <time>2012-01-07T06:17:21Z</time>
        <course>234.901977532479</course>
        <speed>0.909093708341872</speed>
      </trkpt>
      <trkpt lat="43.72979" lon="6.38774">
        <ele>718</ele>
        <time>2012-01-07T06:19:49Z</time>
        <course>247.993536485038</course>
        <speed>1.33856572175916</speed>
      </trkpt>
      <trkpt lat="43.7297" lon="6.38797">
        <ele>723</ele>
        <time>2012-01-07T06:20:04Z</time>
        <course>266.802088550458</course>
        <speed>1.3389952109729</speed>
      </trkpt>
      <trkpt lat="43.72968" lon="6.38834">
        <ele>731</ele>
        <time>2012-01-07T06:20:27Z</time>
        <course>294.92329735806</course>
        <speed>1.3388993792626</speed>
      </trkpt>
      <trkpt lat="43.72986" lon="6.38874">
        <ele>741</ele>
        <time>2012-01-07T06:20:55Z</time>
        <course>303.577502488288</course>
        <speed>1.33862320924185</speed>
      </trkpt>
      <trkpt lat="43.73004" lon="6.38902">
        <ele>749</ele>
        <time>2012-01-07T06:21:17Z</time>
        <course>320.802511277001</course>
        <speed>3.06630841450287</speed>
      </trkpt>
      <trkpt lat="43.73023" lon="6.38918">
        <ele>751</ele>
        <time>2012-01-07T06:21:25Z</time>
        <course>326.27429538875</course>
        <speed>3.06613523435676</speed>
      </trkpt>
      <trkpt lat="43.73097" lon="6.38969">
        <ele>759</ele>
        <time>2012-01-07T06:21:55Z</time>
        <course>347.99424434055</course>
        <speed>5.57110627488473</speed>
      </trkpt>
      <trkpt lat="43.73179" lon="6.38987">
        <ele>761</ele>
        <time>2012-01-07T06:22:12Z</time>
        <course>328.803595773638</course>
        <speed>5.5737735567437</speed>
      </trkpt>
      <trkpt lat="43.73203" lon="6.39002">
        <ele>762</ele>
        <time>2012-01-07T06:22:17Z</time>
        <course>288.979283812394</course>
        <speed>4.64229632674687</speed>
      </trkpt>
      <trkpt lat="43.73231" lon="6.39086">
        <ele>764</ele>
        <time>2012-01-07T06:22:33Z</time>
        <course>318.238152936332</course>
        <speed>4.64063064698049</speed>
      </trkpt>
      <trkpt lat="43.73383" lon="6.39226">
        <ele>773</ele>
        <time>2012-01-07T06:23:17Z</time>
        <course>312.382231888252</course>
        <speed>2.83502536638611</speed>
      </trkpt>
      <trkpt lat="43.73406" lon="6.39252">
        <ele>776</ele>
        <time>2012-01-07T06:23:29Z</time>
        <course>305.831555938132</course>
        <speed>2.83489781134665</speed>
      </trkpt>
      <trkpt lat="43.73427" lon="6.39282">
        <ele>779</ele>
        <time>2012-01-07T06:23:40Z</time>
        <course>285.328437797792</course>
        <speed>2.8337692554388</speed>
      </trkpt>
      <trkpt lat="43.73448" lon="6.39361">
        <ele>786</ele>
        <time>2012-01-07T06:24:04Z</time>
        <course>307.725996844289</course>
        <speed>6.17194025443556</speed>
      </trkpt>
      <trkpt lat="43.73454" lon="6.39369">
        <ele>786</ele>
        <time>2012-01-07T06:24:06Z</time>
        <course>357.078906236048</course>
        <speed>6.15978458700783</speed>
      </trkpt>
      <trkpt lat="43.73473" lon="6.3937">
        <ele>786</ele>
        <time>2012-01-07T06:24:09Z</time>
        <course>28.3083044927579</course>
        <speed>6.15797501483134</speed>
      </trkpt>
      <trkpt lat="43.73482" lon="6.39365">
        <ele>786</ele>
        <time>2012-01-07T06:24:11Z</time>
        <course>54.4720049344686</course>
        <speed>6.17754067971897</speed>
      </trkpt>
      <trkpt lat="43.73491" lon="6.39352">
        <ele>786</ele>
        <time>2012-01-07T06:24:13Z</time>
        <course>60.1249927684641</course>
        <speed>6.16587020657619</speed>
      </trkpt>
      <trkpt lat="43.73775" lon="6.38843">
        <ele>796</ele>
        <time>2012-01-07T06:25:37Z</time>
        <course>40.7776045890297</course>
        <speed>5.23597074001781</speed>
      </trkpt>
      <trkpt lat="43.73793" lon="6.38827">
        <ele>796</ele>
        <time>2012-01-07T06:25:42Z</time>
        <course>22.0758923219791</course>
        <speed>5.23352503052989</speed>
      </trkpt>
      <trkpt lat="43.7386" lon="6.38799">
        <ele>799</ele>
        <time>2012-01-07T06:25:56Z</time>
        <course>47.5126863396146</course>
        <speed>8.301265263741</speed>
      </trkpt>
      <trkpt lat="43.73868" lon="6.3879">
        <ele>799</ele>
        <time>2012-01-07T06:25:58Z</time>
        <course>67.6023544726969</course>
        <speed>8.31724702988349</speed>
      </trkpt>
      <trkpt lat="43.7388" lon="6.3876">
        <ele>799</ele>
        <time>2012-01-07T06:26:01Z</time>
        <course>78.3569852221082</course>
        <speed>8.33032952115173</speed>
      </trkpt>
      <trkpt lat="43.73884" lon="6.3874">
        <ele>799</ele>
        <time>2012-01-07T06:26:03Z</time>
        <course>90.8481564327047</course>
        <speed>8.31506265514701</speed>
      </trkpt>
      <trkpt lat="43.73883" lon="6.3867">
        <ele>799</ele>
        <time>2012-01-07T06:26:10Z</time>
        <course>96.9129841287748</course>
        <speed>8.33015045808931</speed>
      </trkpt>
      <trkpt lat="43.73881" lon="6.38653">
        <ele>798</ele>
        <time>2012-01-07T06:26:12Z</time>
        <course>108.206958999267</course>
        <speed>8.31673256318261</speed>
      </trkpt>
      <trkpt lat="43.73866" lon="6.38606">
        <ele>796</ele>
        <time>2012-01-07T06:26:17Z</time>
        <course>111.96171646669</course>
        <speed>8.333210708409</speed>
      </trkpt>
      <trkpt lat="43.73857" lon="6.38583">
        <ele>795</ele>
        <time>2012-01-07T06:26:19Z</time>
        <course>120.369726770877</course>
        <speed>8.31890143586188</speed>
      </trkpt>
      <trkpt lat="43.73753" lon="6.384">
        <ele>786</ele>
        <time>2012-01-07T06:26:42Z</time>
        <course>112.407394374545</course>
        <speed>8.30483486184774</speed>
      </trkpt>
      <trkpt lat="43.73745" lon="6.3838">
        <ele>786</ele>
        <time>2012-01-07T06:26:44Z</time>
        <course>90.0037500185899</course>
        <speed>8.32138058540435</speed>
      </trkpt>
      <trkpt lat="43.73745" lon="6.38326">
        <ele>786</ele>
        <time>2012-01-07T06:26:49Z</time>
        <course>62.2834318462043</course>
        <speed>8.32432113838091</speed>
      </trkpt>
      <trkpt lat="43.73771" lon="6.38275">
        <ele>786</ele>
        <time>2012-01-07T06:26:55Z</time>
        <course>48.8585315238609</course>
        <speed>8.319475926047</speed>
      </trkpt>
      <trkpt lat="43.73877" lon="6.3815">
        <ele>785</ele>
        <time>2012-01-07T06:27:14Z</time>
        <course>34.4146517379543</course>
        <speed>4.5310370738242</speed>
      </trkpt>
      <trkpt lat="43.73894" lon="6.38138">
        <ele>785</ele>
        <time>2012-01-07T06:27:18Z</time>
        <course>15.4992570868786</course>
        <speed>4.52988530496337</speed>
      </trkpt>
      <trkpt lat="43.73915" lon="6.38132">
        <ele>786</ele>
        <time>2012-01-07T06:27:24Z</time>
        <course>345.874784562948</course>
        <speed>4.52881266828626</speed>
      </trkpt>
      <trkpt lat="43.73942" lon="6.38139">
        <ele>788</ele>
        <time>2012-01-07T06:27:30Z</time>
        <course>324.820852198406</course>
        <speed>4.53016729659238</speed>
      </trkpt>
      <trkpt lat="43.74015" lon="6.38192">
        <ele>792</ele>
        <time>2012-01-07T06:27:50Z</time>
        <course>352.623634997437</course>
        <speed>2.93946593413086</speed>
      </trkpt>
      <trkpt lat="43.7406" lon="6.38198">
        <ele>796</ele>
        <time>2012-01-07T06:28:08Z</time>
        <course>338.773111807064</course>
        <speed>2.93944273353318</speed>
      </trkpt>
      <trkpt lat="43.741" lon="6.38214">
        <ele>800</ele>
        <time>2012-01-07T06:28:23Z</time>
        <course>352.102014020295</course>
        <speed>2.93974411489447</speed>
      </trkpt>
      <trkpt lat="43.74121" lon="6.38217">
        <ele>803</ele>
        <time>2012-01-07T06:28:31Z</time>
        <course>36.0689099752309</course>
        <speed>8.32159127457999</speed>
      </trkpt>
      <trkpt lat="43.74153" lon="6.38193">
        <ele>803</ele>
        <time>2012-01-07T06:28:36Z</time>
        <course>15.9417960145683</course>
        <speed>8.32420707427383</speed>
      </trkpt>
      <trkpt lat="43.7417" lon="6.38188">
        <ele>803</ele>
        <time>2012-01-07T06:28:38Z</time>
        <course>340.106518763957</course>
        <speed>8.31275141594151</speed>
      </trkpt>
      <trkpt lat="43.74221" lon="6.38207">
        <ele>803</ele>
        <time>2012-01-07T06:28:46Z</time>
        <course>323.925762147171</course>
        <speed>3.11577754563011</speed>
      </trkpt>
      <trkpt lat="43.74237" lon="6.38219">
        <ele>804</ele>
        <time>2012-01-07T06:28:52Z</time>
        <course>295.413633711746</course>
        <speed>3.1194420280674</speed>
      </trkpt>
      <trkpt lat="43.74243" lon="6.38232">
        <ele>805</ele>
        <time>2012-01-07T06:28:56Z</time>
        <course>275.687276417751</course>
        <speed>3.11524006337327</speed>
      </trkpt>
      <trkpt lat="43.74246" lon="6.38263">
        <ele>807</ele>
        <time>2012-01-07T06:29:04Z</time>
        <course>247.988562459715</course>
        <speed>3.11631304303577</speed>
      </trkpt>
      <trkpt lat="43.74204" lon="6.3837">
        <ele>816</ele>
        <time>2012-01-07T06:29:35Z</time>
        <course>256.379859623228</course>
        <speed>4.06029155188737</speed>
      </trkpt>
      <trkpt lat="43.74196" lon="6.38404">
        <ele>817</ele>
        <time>2012-01-07T06:29:42Z</time>
        <course>262.428227607044</course>
        <speed>4.06113762239249</speed>
      </trkpt>
      <trkpt lat="43.74188" lon="6.38466">
        <ele>820</ele>
        <time>2012-01-07T06:29:55Z</time>
        <course>268.049724659975</course>
        <speed>4.06282291201771</speed>
      </trkpt>
      <trkpt lat="43.74185" lon="6.38557">
        <ele>824</ele>
        <time>2012-01-07T06:30:13Z</time>
        <course>276.905516786288</course>
        <speed>3.46550521216726</speed>
      </trkpt>
      <trkpt lat="43.74187" lon="6.38574">
        <ele>824</ele>
        <time>2012-01-07T06:30:17Z</time>
        <course>289.297079865444</course>
        <speed>3.46232032950212</speed>
      </trkpt>
      <trkpt lat="43.7422" lon="6.38671">
        <ele>831</ele>
        <time>2012-01-07T06:30:42Z</time>
        <course>266.630753572579</course>
        <speed>3.46260421272397</speed>
      </trkpt>
      <trkpt lat="43.74218" lon="6.38706">
        <ele>833</ele>
        <time>2012-01-07T06:30:50Z</time>
        <course>260.343464241602</course>
        <speed>4.4458500650924</speed>
      </trkpt>
      <trkpt lat="43.742" lon="6.38815">
        <ele>836</ele>
        <time>2012-01-07T06:31:10Z</time>
        <course>270.664318230778</course>
        <speed>4.44650515607576</speed>
      </trkpt>
      <trkpt lat="43.74201" lon="6.38903">
        <ele>840</ele>
        <time>2012-01-07T06:31:26Z</time>
        <course>283.29058119436</course>
        <speed>3.41410299320628</speed>
      </trkpt>
      <trkpt lat="43.74215" lon="6.38964">
        <ele>843</ele>
        <time>2012-01-07T06:31:41Z</time>
        <course>288.417204659442</course>
        <speed>3.41403335926243</speed>
      </trkpt>
      <trkpt lat="43.74237" lon="6.39032">
        <ele>848</ele>
        <time>2012-01-07T06:31:59Z</time>
        <course>294.664629782827</course>
        <speed>2.96279025040252</speed>
      </trkpt>
      <trkpt lat="43.74266" lon="6.39097">
        <ele>853</ele>
        <time>2012-01-07T06:32:19Z</time>
        <course>302.505802327373</course>
        <speed>2.9640910967324</speed>
      </trkpt>
      <trkpt lat="43.74279" lon="6.39118">
        <ele>855</ele>
        <time>2012-01-07T06:32:27Z</time>
        <course>321.599678937014</course>
        <speed>2.96333609510634</speed>
      </trkpt>
      <trkpt lat="43.74317" lon="6.39149">
        <ele>860</ele>
        <time>2012-01-07T06:32:43Z</time>
        <course>325.777905365962</course>
        <speed>2.86090808068276</speed>
      </trkpt>
      <trkpt lat="43.74357" lon="6.39177">
        <ele>864</ele>
        <time>2012-01-07T06:33:01Z</time>
        <course>349.0023588552</course>
        <speed>2.86048213270594</speed>
      </trkpt>
      <trkpt lat="43.74377" lon="6.39181">
        <ele>866</ele>
        <time>2012-01-07T06:33:09Z</time>
        <course>29.3614851388208</course>
        <speed>2.86063839054259</speed>
      </trkpt>
      <trkpt lat="43.74396" lon="6.3917">
        <ele>869</ele>
        <time>2012-01-07T06:33:17Z</time>
        <course>50.949096697679</course>
        <speed>2.86072213916837</speed>
      </trkpt>
      <trkpt lat="43.74437" lon="6.39118">
        <ele>875</ele>
        <time>2012-01-07T06:33:38Z</time>
        <course>33.7923751049345</course>
        <speed>5.35778910601683</speed>
      </trkpt>
      <trkpt lat="43.74498" lon="6.39076">
        <ele>877</ele>
        <time>2012-01-07T06:33:52Z</time>
        <course>17.9523569106183</course>
        <speed>5.35764556757385</speed>
      </trkpt>
      <trkpt lat="43.7451" lon="6.39072">
        <ele>877</ele>
        <time>2012-01-07T06:33:55Z</time>
        <course>350.266406768935</course>
        <speed>5.36430751816304</speed>
      </trkpt>
      <trkpt lat="43.74527" lon="6.39075">
        <ele>878</ele>
        <time>2012-01-07T06:33:58Z</time>
        <course>320.989746660085</course>
        <speed>4.65068760090526</speed>
      </trkpt>
      <trkpt lat="43.74545" lon="6.3909">
        <ele>878</ele>
        <time>2012-01-07T06:34:03Z</time>
        <course>300.447513011238</course>
        <speed>4.65237518656068</speed>
      </trkpt>
      <trkpt lat="43.74553" lon="6.39104">
        <ele>879</ele>
        <time>2012-01-07T06:34:06Z</time>
        <course>288.570522514076</course>
        <speed>4.6515671642579</speed>
      </trkpt>
      <trkpt lat="43.74586" lon="6.39205">
        <ele>883</ele>
        <time>2012-01-07T06:34:26Z</time>
        <course>299.293387905094</course>
        <speed>2.84801499189646</speed>
      </trkpt>
      <trkpt lat="43.74598" lon="6.39227">
        <ele>885</ele>
        <time>2012-01-07T06:34:33Z</time>
        <course>318.979206439092</course>
        <speed>2.84702535543331</speed>
      </trkpt>
      <trkpt lat="43.74617" lon="6.39244">
        <ele>887</ele>
        <time>2012-01-07T06:34:42Z</time>
        <course>346.658304996019</course>
        <speed>2.84683053371711</speed>
      </trkpt>
      <trkpt lat="43.74658" lon="6.39254">
        <ele>892</ele>
        <time>2012-01-07T06:34:58Z</time>
        <course>313.309281817471</course>
        <speed>2.84770509683547</speed>
      </trkpt>
      <trkpt lat="43.7468" lon="6.39278">
        <ele>895</ele>
        <time>2012-01-07T06:35:09Z</time>
        <course>303.637841255466</course>
        <speed>2.58395866038047</speed>
      </trkpt>
      <trkpt lat="43.74702" lon="6.39312">
        <ele>899</ele>
        <time>2012-01-07T06:35:24Z</time>
        <course>296.751064601752</course>
        <speed>2.58446671048324</speed>
      </trkpt>
      <trkpt lat="43.74779" lon="6.39469">
        <ele>916</ele>
        <time>2012-01-07T06:36:23Z</time>
        <course>303.750999896386</course>
        <speed>2.62414577459794</speed>
      </trkpt>
      <trkpt lat="43.74805" lon="6.39509">
        <ele>920</ele>
        <time>2012-01-07T06:36:39Z</time>
        <course>296.132462774393</course>
        <speed>2.62280004652958</speed>
      </trkpt>
      <trkpt lat="43.74826" lon="6.39553">
        <ele>925</ele>
        <time>2012-01-07T06:36:55Z</time>
        <course>304.420608882954</course>
        <speed>2.6241572785869</speed>
      </trkpt>
      <trkpt lat="43.74858" lon="6.39601">
        <ele>931</ele>
        <time>2012-01-07T06:37:15Z</time>
        <course>292.884842809724</course>
        <speed>3.39968562816385</speed>
      </trkpt>
      <trkpt lat="43.74881" lon="6.39657">
        <ele>934</ele>
        <time>2012-01-07T06:37:30Z</time>
        <course>286.36062162792</course>
        <speed>3.39942347247741</speed>
      </trkpt>
      <trkpt lat="43.74905" lon="6.39741">
        <ele>940</ele>
        <time>2012-01-07T06:37:52Z</time>
        <course>318.5029241408</course>
        <speed>4.25341657643657</speed>
      </trkpt>
      <trkpt lat="43.7496" lon="6.39791">
        <ele>943</ele>
        <time>2012-01-07T06:38:09Z</time>
        <course>301.652883404308</course>
        <speed>4.25162902679885</speed>
      </trkpt>
      <trkpt lat="43.75002" lon="6.39861">
        <ele>947</ele>
        <time>2012-01-07T06:38:26Z</time>
        <course>312.754161511792</course>
        <speed>3.2530846347897</speed>
      </trkpt>
      <trkpt lat="43.75092" lon="6.39961">
        <ele>957</ele>
        <time>2012-01-07T06:39:05Z</time>
        <course>304.406673448978</course>
        <speed>4.36912134268011</speed>
      </trkpt>
      <trkpt lat="43.75102" lon="6.39976">
        <ele>957</ele>
        <time>2012-01-07T06:39:09Z</time>
        <course>288.900787274996</course>
        <speed>4.37322676983126</speed>
      </trkpt>
      <trkpt lat="43.75116" lon="6.40018">
        <ele>959</ele>
        <time>2012-01-07T06:39:18Z</time>
        <course>302.119361428909</course>
        <speed>4.37066847844024</speed>
      </trkpt>
      <trkpt lat="43.75127" lon="6.40036">
        <ele>960</ele>
        <time>2012-01-07T06:39:22Z</time>
        <course>319.749192297407</course>
        <speed>4.37408262653701</speed>
      </trkpt>
      <trkpt lat="43.75173" lon="6.40076">
        <ele>963</ele>
        <time>2012-01-07T06:39:36Z</time>
        <course>334.594764277518</course>
        <speed>4.22983818308078</speed>
      </trkpt>
      <trkpt lat="43.75214" lon="6.40096">
        <ele>965</ele>
        <time>2012-01-07T06:39:47Z</time>
        <course>308.618540371698</course>
        <speed>4.22928646926683</speed>
      </trkpt>
      <trkpt lat="43.75221" lon="6.40105">
        <ele>965</ele>
        <time>2012-01-07T06:39:50Z</time>
        <course>298.721054121072</course>
        <speed>4.23113881756462</speed>
      </trkpt>
      <trkpt lat="43.753" lon="6.40253">
        <ele>973</ele>
        <time>2012-01-07T06:40:25Z</time>
        <course>292.328585499523</course>
        <speed>4.43666201770284</speed>
      </trkpt>
      <trkpt lat="43.7531" lon="6.40278">
        <ele>974</ele>
        <time>2012-01-07T06:40:30Z</time>
        <course>269.994858143669</course>
        <speed>4.43731920384366</speed>
      </trkpt>
      <trkpt lat="43.7531" lon="6.40357">
        <ele>976</ele>
        <time>2012-01-07T06:40:44Z</time>
        <course>262.448327735098</course>
        <speed>4.43828316391924</speed>
      </trkpt>
      <trkpt lat="43.75302" lon="6.40419">
        <ele>979</ele>
        <time>2012-01-07T06:40:55Z</time>
        <course>250.966483736207</course>
        <speed>8.31708491941791</speed>
      </trkpt>
      <trkpt lat="43.75256" lon="6.40556">
        <ele>974</ele>
        <time>2012-01-07T06:41:10Z</time>
        <course>271.637470889386</course>
        <speed>4.6256396456143</speed>
      </trkpt>
      <trkpt lat="43.75263" lon="6.40805">
        <ele>982</ele>
        <time>2012-01-07T06:41:53Z</time>
        <course>258.039677531453</course>
        <speed>3.58204343484231</speed>
      </trkpt>
      <trkpt lat="43.75222" lon="6.41004">
        <ele>993</ele>
        <time>2012-01-07T06:42:40Z</time>
        <course>261.499680429236</course>
        <speed>4.90550410474472</speed>
      </trkpt>
      <trkpt lat="43.75214" lon="6.41059">
        <ele>994</ele>
        <time>2012-01-07T06:42:49Z</time>
        <course>271.008291422685</course>
        <speed>4.90610331495977</speed>
      </trkpt>
      <trkpt lat="43.75218" lon="6.41289">
        <ele>1001</ele>
        <time>2012-01-07T06:43:27Z</time>
        <course>267.494387626907</course>
        <speed>7.11685610198891</speed>
      </trkpt>
      <trkpt lat="43.75216" lon="6.41336">
        <ele>1001</ele>
        <time>2012-01-07T06:43:32Z</time>
        <course>254.350239301574</course>
        <speed>7.12275168379628</speed>
      </trkpt>
      <trkpt lat="43.7521" lon="6.41358">
        <ele>1001</ele>
        <time>2012-01-07T06:43:34Z</time>
        <course>231.378745236527</course>
        <speed>7.12451070360371</speed>
      </trkpt>
      <trkpt lat="43.75196" lon="6.41376">
        <ele>1001</ele>
        <time>2012-01-07T06:43:37Z</time>
        <course>217.254555512967</course>
        <speed>7.12561608616419</speed>
      </trkpt>
      <trkpt lat="43.75164" lon="6.41401">
        <ele>1002</ele>
        <time>2012-01-07T06:43:43Z</time>
        <course>231.013309323623</course>
        <speed>8.32185756591606</speed>
      </trkpt>
      <trkpt lat="43.75138" lon="6.41434">
        <ele>1002</ele>
        <time>2012-01-07T06:43:48Z</time>
        <course>254.782983685737</course>
        <speed>8.31633825719461</speed>
      </trkpt>
      <trkpt lat="43.7512" lon="6.41502">
        <ele>1002</ele>
        <time>2012-01-07T06:43:55Z</time>
        <course>280.900645222034</course>
        <speed>8.31873876737507</speed>
      </trkpt>
      <trkpt lat="43.75126" lon="6.41534">
        <ele>1002</ele>
        <time>2012-01-07T06:43:58Z</time>
        <course>295.939291206648</course>
        <speed>8.32122450665227</speed>
      </trkpt>
      <trkpt lat="43.7518" lon="6.41648">
        <ele>1001</ele>
        <time>2012-01-07T06:44:11Z</time>
        <course>275.610517757778</course>
        <speed>8.31808938238963</speed>
      </trkpt>
      <trkpt lat="43.75189" lon="6.41742">
        <ele>989</ele>
        <time>2012-01-07T06:44:20Z</time>
        <course>260.284454186864</course>
        <speed>8.33010027705681</speed>
      </trkpt>
      <trkpt lat="43.75186" lon="6.4176">
        <ele>987</ele>
        <time>2012-01-07T06:44:22Z</time>
        <course>250.300535167724</course>
        <speed>8.31949274123829</speed>
      </trkpt>
      <trkpt lat="43.75163" lon="6.41826">
        <ele>979</ele>
        <time>2012-01-07T06:44:29Z</time>
        <course>236.26615952991</course>
        <speed>8.32216027684004</speed>
      </trkpt>
      <trkpt lat="43.75137" lon="6.41866">
        <ele>976</ele>
        <time>2012-01-07T06:44:34Z</time>
        <course>225.165568737529</course>
        <speed>8.31973085864447</speed>
      </trkpt>
      <trkpt lat="43.75107" lon="6.41897">
        <ele>974</ele>
        <time>2012-01-07T06:44:39Z</time>
        <course>212.978042271869</course>
        <speed>8.32312702635067</speed>
      </trkpt>
      <trkpt lat="43.75074" lon="6.41919">
        <ele>973</ele>
        <time>2012-01-07T06:44:44Z</time>
        <course>187.528154585861</course>
        <speed>4.92588479321299</speed>
      </trkpt>
      <trkpt lat="43.74993" lon="6.4193">
        <ele>976</ele>
        <time>2012-01-07T06:45:03Z</time>
        <course>177.725708518465</course>
        <speed>4.92517738155709</speed>
      </trkpt>
      <trkpt lat="43.74944" lon="6.41928">
        <ele>978</ele>
        <time>2012-01-07T06:45:14Z</time>
        <course>161.453568658297</course>
        <speed>4.27406618837267</speed>
      </trkpt>
      <trkpt lat="43.74915" lon="6.41918">
        <ele>979</ele>
        <time>2012-01-07T06:45:21Z</time>
        <course>149.403615336015</course>
        <speed>4.2744279438559</speed>
      </trkpt>
      <trkpt lat="43.74864" lon="6.41887">
        <ele>982</ele>
        <time>2012-01-07T06:45:36Z</time>
        <course>168.225384707053</course>
        <speed>4.27193527927829</speed>
      </trkpt>
      <trkpt lat="43.74836" lon="6.41881">
        <ele>984</ele>
        <time>2012-01-07T06:45:43Z</time>
        <course>195.766994300816</course>
        <speed>6.99734142339604</speed>
      </trkpt>
      <trkpt lat="43.74743" lon="6.41908">
        <ele>985</ele>
        <time>2012-01-07T06:45:58Z</time>
        <course>224.195916690475</course>
        <speed>8.31562049924661</speed>
      </trkpt>
      <trkpt lat="43.74677" lon="6.41974">
        <ele>984</ele>
        <time>2012-01-07T06:46:09Z</time>
        <course>220.663566152339</course>
        <speed>8.31715671958134</speed>
      </trkpt>
      <trkpt lat="43.74522" lon="6.42111">
        <ele>982</ele>
        <time>2012-01-07T06:46:34Z</time>
        <course>234.95073682017</course>
        <speed>8.31649086485164</speed>
      </trkpt>
      <trkpt lat="43.74507" lon="6.42133">
        <ele>980</ele>
        <time>2012-01-07T06:46:37Z</time>
        <course>243.46259514524</course>
        <speed>8.31361422050325</speed>
      </trkpt>
      <trkpt lat="43.74474" lon="6.42201">
        <ele>977</ele>
        <time>2012-01-07T06:46:45Z</time>
        <course>230.967106230382</course>
        <speed>8.32229571354194</speed>
      </trkpt>
      <trkpt lat="43.74448" lon="6.42234">
        <ele>975</ele>
        <time>2012-01-07T06:46:49Z</time>
        <course>213.677322520435</course>
        <speed>5.4939951100593</speed>
      </trkpt>
      <trkpt lat="43.74413" lon="6.42258">
        <ele>976</ele>
        <time>2012-01-07T06:46:57Z</time>
        <course>192.184537352523</course>
        <speed>5.49287340882054</speed>
      </trkpt>
      <trkpt lat="43.74368" lon="6.42268">
        <ele>977</ele>
        <time>2012-01-07T06:47:07Z</time>
        <course>184.04163755779</course>
        <speed>5.49374327414269</speed>
      </trkpt>
      <trkpt lat="43.74313" lon="6.42272">
        <ele>979</ele>
        <time>2012-01-07T06:47:18Z</time>
        <course>205.906777994936</course>
        <speed>8.32349803139694</speed>
      </trkpt>
      <trkpt lat="43.74277" lon="6.4229">
        <ele>978</ele>
        <time>2012-01-07T06:47:23Z</time>
        <course>233.669926843056</course>
        <speed>8.31833658092492</speed>
      </trkpt>
      <trkpt lat="43.74247" lon="6.42332">
        <ele>978</ele>
        <time>2012-01-07T06:47:28Z</time>
        <course>240.670722240831</course>
        <speed>8.31954688608721</speed>
      </trkpt>
      <trkpt lat="43.74157" lon="6.42497">
        <ele>977</ele>
        <time>2012-01-07T06:47:48Z</time>
        <course>231.050368050257</course>
        <speed>5.75902199101013</speed>
      </trkpt>
      <trkpt lat="43.74095" lon="6.42576">
        <ele>979</ele>
        <time>2012-01-07T06:48:05Z</time>
        <course>226.407083426863</course>
        <speed>5.75871855575171</speed>
      </trkpt>
      <trkpt lat="43.74034" lon="6.42642">
        <ele>981</ele>
        <time>2012-01-07T06:48:20Z</time>
        <course>249.153390012387</course>
        <speed>8.3211322814327</speed>
      </trkpt>
      <trkpt lat="43.74" lon="6.42734">
        <ele>980</ele>
        <time>2012-01-07T06:48:30Z</time>
        <course>234.910282255581</course>
        <speed>8.3168909386337</speed>
      </trkpt>
      <trkpt lat="43.7394" lon="6.42822">
        <ele>980</ele>
        <time>2012-01-07T06:48:41Z</time>
        <course>240.66334998554</course>
        <speed>8.31978674619143</speed>
      </trkpt>
      <trkpt lat="43.73922" lon="6.42855">
        <ele>978</ele>
        <time>2012-01-07T06:48:45Z</time>
        <course>251.613364294925</course>
        <speed>8.30973076269246</speed>
      </trkpt>
      <trkpt lat="43.73912" lon="6.42886">
        <ele>977</ele>
        <time>2012-01-07T06:48:49Z</time>
        <course>259.918786141509</course>
        <speed>8.31835169337454</speed>
      </trkpt>
      <trkpt lat="43.73892" lon="6.43002">
        <ele>973</ele>
        <time>2012-01-07T06:49:00Z</time>
        <course>244.432007637231</course>
        <speed>8.32425651442973</speed>
      </trkpt>
      <trkpt lat="43.73879" lon="6.4303">
        <ele>973</ele>
        <time>2012-01-07T06:49:03Z</time>
        <course>235.150387449735</course>
        <speed>8.31716828572455</speed>
      </trkpt>
      <trkpt lat="43.73854" lon="6.43067">
        <ele>973</ele>
        <time>2012-01-07T06:49:08Z</time>
        <course>225.108441073159</course>
        <speed>8.31221720568878</speed>
      </trkpt>
      <trkpt lat="43.73825" lon="6.43097">
        <ele>973</ele>
        <time>2012-01-07T06:49:13Z</time>
        <course>215.851966073971</course>
        <speed>5.05383859392717</speed>
      </trkpt>
      <trkpt lat="43.73727" lon="6.4317">
        <ele>977</ele>
        <time>2012-01-07T06:49:37Z</time>
        <course>227.207478317754</course>
        <speed>8.32292294430495</speed>
      </trkpt>
      <trkpt lat="43.73683" lon="6.43219">
        <ele>977</ele>
        <time>2012-01-07T06:49:45Z</time>
        <course>237.606567286755</course>
        <speed>8.30904503546966</speed>
      </trkpt>
      <trkpt lat="43.73667" lon="6.43245">
        <ele>977</ele>
        <time>2012-01-07T06:49:48Z</time>
        <course>254.56098066571</course>
        <speed>8.31974838941744</speed>
      </trkpt>
      <trkpt lat="43.73633" lon="6.43372">
        <ele>977</ele>
        <time>2012-01-07T06:50:01Z</time>
        <course>260.502961404572</course>
        <speed>6.99893413533071</speed>
      </trkpt>
      <trkpt lat="43.73621" lon="6.43446">
        <ele>977</ele>
        <time>2012-01-07T06:50:10Z</time>
        <course>284.188717559317</course>
        <speed>6.99961152075677</speed>
      </trkpt>
      <trkpt lat="43.73634" lon="6.43499">
        <ele>978</ele>
        <time>2012-01-07T06:50:17Z</time>
        <course>300.657717136328</course>
        <speed>8.32522573810483</speed>
      </trkpt>
      <trkpt lat="43.73657" lon="6.43539">
        <ele>976</ele>
        <time>2012-01-07T06:50:21Z</time>
        <course>291.890680562754</course>
        <speed>8.31903655348645</speed>
      </trkpt>
      <trkpt lat="43.7368" lon="6.43598">
        <ele>973</ele>
        <time>2012-01-07T06:50:28Z</time>
        <course>285.508261377193</course>
        <speed>8.31218928773279</speed>
      </trkpt>
      <trkpt lat="43.73694" lon="6.4365">
        <ele>972</ele>
        <time>2012-01-07T06:50:33Z</time>
        <course>267.727656765763</course>
        <speed>8.32831546426769</speed>
      </trkpt>
      <trkpt lat="43.73693" lon="6.43676">
        <ele>971</ele>
        <time>2012-01-07T06:50:36Z</time>
        <course>246.159419328274</course>
        <speed>8.32405078482879</speed>
      </trkpt>
      <trkpt lat="43.73669" lon="6.43732">
        <ele>971</ele>
        <time>2012-01-07T06:50:42Z</time>
        <course>240.783034296679</course>
        <speed>8.3189014503026</speed>
      </trkpt>
      <trkpt lat="43.73637" lon="6.43791">
        <ele>971</ele>
        <time>2012-01-07T06:50:49Z</time>
        <course>235.843841712533</course>
        <speed>4.95936718629869</speed>
      </trkpt>
      <trkpt lat="43.73587" lon="6.43867">
        <ele>973</ele>
        <time>2012-01-07T06:51:06Z</time>
        <course>246.527941188082</course>
        <speed>4.95953414944953</speed>
      </trkpt>
      <trkpt lat="43.73571" lon="6.43905">
        <ele>975</ele>
        <time>2012-01-07T06:51:13Z</time>
        <course>252.738882552389</course>
        <speed>8.31772962034935</speed>
      </trkpt>
      <trkpt lat="43.73546" lon="6.43988">
        <ele>972</ele>
        <time>2012-01-07T06:51:22Z</time>
        <course>273.104109851255</course>
        <speed>8.31263346446339</speed>
      </trkpt>
      <trkpt lat="43.73548" lon="6.44026">
        <ele>972</ele>
        <time>2012-01-07T06:51:25Z</time>
        <course>259.480523021707</course>
        <speed>8.32419778317329</speed>
      </trkpt>
      <trkpt lat="43.73539" lon="6.44076">
        <ele>972</ele>
        <time>2012-01-07T06:51:30Z</time>
        <course>246.983604760523</course>
        <speed>8.31947124319436</speed>
      </trkpt>
      <trkpt lat="43.73497" lon="6.44178">
        <ele>972</ele>
        <time>2012-01-07T06:51:42Z</time>
        <course>254.204475608872</course>
        <speed>5.03243620517102</speed>
      </trkpt>
      <trkpt lat="43.7348" lon="6.4424">
        <ele>973</ele>
        <time>2012-01-07T06:51:52Z</time>
        <course>244.073320711057</course>
        <speed>5.03206820688401</speed>
      </trkpt>
      <trkpt lat="43.73431" lon="6.44344">
        <ele>977</ele>
        <time>2012-01-07T06:52:12Z</time>
        <course>250.143433550302</course>
        <speed>8.32477764370974</speed>
      </trkpt>
      <trkpt lat="43.7341" lon="6.44404">
        <ele>976</ele>
        <time>2012-01-07T06:52:18Z</time>
        <course>257.084223975318</course>
        <speed>8.32312606982118</speed>
      </trkpt>
      <trkpt lat="43.73398" lon="6.44458">
        <ele>975</ele>
        <time>2012-01-07T06:52:24Z</time>
        <course>265.366864119891</course>
        <speed>8.32095832288773</speed>
      </trkpt>
      <trkpt lat="43.7339" lon="6.4456">
        <ele>975</ele>
        <time>2012-01-07T06:52:34Z</time>
        <course>252.564976545741</course>
        <speed>3.64662223155301</speed>
      </trkpt>
      <trkpt lat="43.73376" lon="6.44606">
        <ele>977</ele>
        <time>2012-01-07T06:52:45Z</time>
        <course>242.974607421091</course>
        <speed>3.64792830231479</speed>
      </trkpt>
      <trkpt lat="43.73333" lon="6.44693">
        <ele>983</ele>
        <time>2012-01-07T06:53:08Z</time>
        <course>247.834877956285</course>
        <speed>8.31895067896002</speed>
      </trkpt>
      <trkpt lat="43.73234" lon="6.44944">
        <ele>972</ele>
        <time>2012-01-07T06:53:36Z</time>
        <course>235.571549670682</course>
        <speed>5.14892019021476</speed>
      </trkpt>
      <trkpt lat="43.73155" lon="6.45063">
        <ele>976</ele>
        <time>2012-01-07T06:54:01Z</time>
        <course>247.12631441846</course>
        <speed>5.16860838313793</speed>
      </trkpt>
      <trkpt lat="43.73097" lon="6.45205">
        <ele>980</ele>
        <time>2012-01-07T06:54:26Z</time>
        <course>253.833689563348</course>
        <speed>5.2178514739063</speed>
      </trkpt>
      <trkpt lat="43.73081" lon="6.45262">
        <ele>981</ele>
        <time>2012-01-07T06:54:36Z</time>
        <course>261.604960042789</course>
        <speed>5.2138396911582</speed>
      </trkpt>
      <trkpt lat="43.73072" lon="6.45325">
        <ele>983</ele>
        <time>2012-01-07T06:54:45Z</time>
        <course>269.993938335206</course>
        <speed>8.32325554563573</speed>
      </trkpt>
      <trkpt lat="43.73072" lon="6.4541">
        <ele>983</ele>
        <time>2012-01-07T06:54:54Z</time>
        <course>258.828891765874</course>
        <speed>8.31800038516192</speed>
      </trkpt>
      <trkpt lat="43.73059" lon="6.45478">
        <ele>983</ele>
        <time>2012-01-07T06:55:00Z</time>
        <course>268.182583123028</course>
        <speed>8.31676964154378</speed>
      </trkpt>
      <trkpt lat="43.73056" lon="6.45576">
        <ele>979</ele>
        <time>2012-01-07T06:55:10Z</time>
        <course>259.3648819071</course>
        <speed>8.3302840019758</speed>
      </trkpt>
      <trkpt lat="43.7305" lon="6.45609">
        <ele>978</ele>
        <time>2012-01-07T06:55:13Z</time>
        <course>245.994061812262</course>
        <speed>4.25496283989481</speed>
      </trkpt>
      <trkpt lat="43.72944" lon="6.45855">
        <ele>989</ele>
        <time>2012-01-07T06:56:07Z</time>
        <course>253.095801725627</course>
        <speed>4.57697155080614</speed>
      </trkpt>
      <trkpt lat="43.72919" lon="6.4594">
        <ele>992</ele>
        <time>2012-01-07T06:56:23Z</time>
        <course>246.964771523073</course>
        <speed>4.57646567558032</speed>
      </trkpt>
      <trkpt lat="43.72854" lon="6.46098">
        <ele>998</ele>
        <time>2012-01-07T06:56:55Z</time>
        <course>258.474295962323</course>
        <speed>8.3191919817416</speed>
      </trkpt>
      <trkpt lat="43.72813" lon="6.46306">
        <ele>992</ele>
        <time>2012-01-07T06:57:16Z</time>
        <course>251.65212418004</course>
        <speed>8.31967069961002</speed>
      </trkpt>
      <trkpt lat="43.72762" lon="6.46465">
        <ele>982</ele>
        <time>2012-01-07T06:57:33Z</time>
        <course>233.889319052342</course>
        <speed>4.77069541321544</speed>
      </trkpt>
      <trkpt lat="43.72738" lon="6.46499">
        <ele>983</ele>
        <time>2012-01-07T06:57:41Z</time>
        <course>195.454284584426</course>
        <speed>4.77502768243829</speed>
      </trkpt>
      <trkpt lat="43.72717" lon="6.46505">
        <ele>984</ele>
        <time>2012-01-07T06:57:46Z</time>
        <course>176.742557818505</course>
        <speed>4.76859000561087</speed>
      </trkpt>
      <trkpt lat="43.72683" lon="6.46503">
        <ele>985</ele>
        <time>2012-01-07T06:57:54Z</time>
        <course>206.583924816917</course>
        <speed>4.77147574822939</speed>
      </trkpt>
      <trkpt lat="43.72654" lon="6.46518">
        <ele>987</ele>
        <time>2012-01-07T06:58:01Z</time>
        <course>231.50940171489</course>
        <speed>8.3086359048483</speed>
      </trkpt>
      <trkpt lat="43.72634" lon="6.46544">
        <ele>987</ele>
        <time>2012-01-07T06:58:05Z</time>
        <course>240.918483789185</course>
        <speed>8.31827346555656</speed>
      </trkpt>
      <trkpt lat="43.7257" lon="6.46663">
        <ele>987</ele>
        <time>2012-01-07T06:58:19Z</time>
        <course>229.133224130092</course>
        <speed>5.11025919325781</speed>
      </trkpt>
      <trkpt lat="43.72529" lon="6.46712">
        <ele>988</ele>
        <time>2012-01-07T06:58:31Z</time>
        <course>181.846344948139</course>
        <speed>5.10653453897956</speed>
      </trkpt>
      <trkpt lat="43.72499" lon="6.46713">
        <ele>989</ele>
        <time>2012-01-07T06:58:37Z</time>
        <course>162.333730102865</course>
        <speed>5.10738849492184</speed>
      </trkpt>
      <trkpt lat="43.72414" lon="6.46685">
        <ele>993</ele>
        <time>2012-01-07T06:58:56Z</time>
        <course>197.862359896442</course>
        <speed>8.31262825233297</speed>
      </trkpt>
      <trkpt lat="43.7239" lon="6.46693">
        <ele>992</ele>
        <time>2012-01-07T06:59:00Z</time>
        <course>216.636716888017</course>
        <speed>8.30534773143991</speed>
      </trkpt>
      <trkpt lat="43.72377" lon="6.46703">
        <ele>992</ele>
        <time>2012-01-07T06:59:02Z</time>
        <course>238.678173516309</course>
        <speed>8.3226775794552</speed>
      </trkpt>
      <trkpt lat="43.72357" lon="6.46737">
        <ele>992</ele>
        <time>2012-01-07T06:59:06Z</time>
        <course>245.782104325784</course>
        <speed>8.32240688983121</speed>
      </trkpt>
      <trkpt lat="43.72347" lon="6.4676">
        <ele>991</ele>
        <time>2012-01-07T06:59:08Z</time>
        <course>255.197730179212</course>
        <speed>8.32213952289333</speed>
      </trkpt>
      <trkpt lat="43.72323" lon="6.46854">
        <ele>991</ele>
        <time>2012-01-07T06:59:18Z</time>
        <course>247.275672292319</course>
        <speed>8.31353043283646</speed>
      </trkpt>
      <trkpt lat="43.72306" lon="6.46896">
        <ele>988</ele>
        <time>2012-01-07T06:59:23Z</time>
        <course>255.073400786687</course>
        <speed>8.32356278465636</speed>
      </trkpt>
      <trkpt lat="43.72289" lon="6.46962">
        <ele>985</ele>
        <time>2012-01-07T06:59:29Z</time>
        <course>258.306106824933</course>
        <speed>8.31161393874564</speed>
      </trkpt>
      <trkpt lat="43.72281" lon="6.47002">
        <ele>983</ele>
        <time>2012-01-07T06:59:33Z</time>
        <course>263.834424325847</course>
        <speed>8.31715471725448</speed>
      </trkpt>
      <trkpt lat="43.72261" lon="6.47194">
        <ele>983</ele>
        <time>2012-01-07T06:59:52Z</time>
        <course>257.437024653666</course>
        <speed>8.31856247637776</speed>
      </trkpt>
      <trkpt lat="43.72186" lon="6.47543">
        <ele>975</ele>
        <time>2012-01-07T07:00:27Z</time>
        <course>251.403527017479</course>
        <speed>8.3167491379824</speed>
      </trkpt>
      <trkpt lat="43.7216" lon="6.47623">
        <ele>974</ele>
        <time>2012-01-07T07:00:36Z</time>
        <course>247.969225279384</course>
        <speed>8.31939468669492</speed>
      </trkpt>
      <trkpt lat="43.72101" lon="6.47774">
        <ele>973</ele>
        <time>2012-01-07T07:00:52Z</time>
        <course>240.041383882552</course>
        <speed>8.316310043344</speed>
      </trkpt>
      <trkpt lat="43.72042" lon="6.4788">
        <ele>955</ele>
        <time>2012-01-07T07:01:05Z</time>
        <course>232.906834516977</course>
        <speed>6.21076886937632</speed>
      </trkpt>
      <trkpt lat="43.71996" lon="6.47943">
        <ele>956</ele>
        <time>2012-01-07T07:01:17Z</time>
        <course>209.025890579182</course>
        <speed>6.21259300489371</speed>
      </trkpt>
      <trkpt lat="43.71909" lon="6.47993">
        <ele>958</ele>
        <time>2012-01-07T07:01:34Z</time>
        <course>228.96999787395</course>
        <speed>8.31996676259305</speed>
      </trkpt>
      <trkpt lat="43.71846" lon="6.48068">
        <ele>957</ele>
        <time>2012-01-07T07:01:45Z</time>
        <course>215.422461405493</course>
        <speed>8.32002241947972</speed>
      </trkpt>
      <trkpt lat="43.71808" lon="6.48096">
        <ele>957</ele>
        <time>2012-01-07T07:01:50Z</time>
        <course>220.578323511424</course>
        <speed>8.31593969288671</speed>
      </trkpt>
      <trkpt lat="43.71728" lon="6.48167">
        <ele>946</ele>
        <time>2012-01-07T07:02:03Z</time>
        <course>209.260362085876</course>
        <speed>8.32019900752207</speed>
      </trkpt>
      <trkpt lat="43.71666" lon="6.48203">
        <ele>944</ele>
        <time>2012-01-07T07:02:12Z</time>
        <course>194.591953387877</course>
        <speed>8.32259141691431</speed>
      </trkpt>
      <trkpt lat="43.71603" lon="6.4822">
        <ele>943</ele>
        <time>2012-01-07T07:02:21Z</time>
        <course>201.82135065915</course>
        <speed>8.32030758022549</speed>
      </trkpt>
      <trkpt lat="43.7155" lon="6.48242">
        <ele>941</ele>
        <time>2012-01-07T07:02:28Z</time>
        <course>228.373280221925</course>
        <speed>8.32573148526967</speed>
      </trkpt>
      <trkpt lat="43.71526" lon="6.4827">
        <ele>940</ele>
        <time>2012-01-07T07:02:32Z</time>
        <course>238.358734119855</course>
        <speed>8.32264101276717</speed>
      </trkpt>
      <trkpt lat="43.71485" lon="6.48339">
        <ele>938</ele>
        <time>2012-01-07T07:02:41Z</time>
        <course>230.322520005648</course>
        <speed>8.31978338889409</speed>
      </trkpt>
      <trkpt lat="43.71469" lon="6.48359">
        <ele>937</ele>
        <time>2012-01-07T07:02:44Z</time>
        <course>244.762520935632</course>
        <speed>8.3160332648039</speed>
      </trkpt>
      <trkpt lat="43.71459" lon="6.48381">
        <ele>936</ele>
        <time>2012-01-07T07:02:46Z</time>
        <course>261.368206674661</course>
        <speed>8.31632930952548</speed>
      </trkpt>
      <trkpt lat="43.71453" lon="6.48422">
        <ele>935</ele>
        <time>2012-01-07T07:02:50Z</time>
        <course>284.193866586906</course>
        <speed>8.32005112584525</speed>
      </trkpt>
      <trkpt lat="43.71484" lon="6.48549">
        <ele>933</ele>
        <time>2012-01-07T07:03:03Z</time>
        <course>274.087932528667</course>
        <speed>8.32650768363457</speed>
      </trkpt>
      <trkpt lat="43.71486" lon="6.48578">
        <ele>931</ele>
        <time>2012-01-07T07:03:06Z</time>
        <course>256.225204344106</course>
        <speed>8.3141229993852</speed>
      </trkpt>
      <trkpt lat="43.71473" lon="6.48633">
        <ele>929</ele>
        <time>2012-01-07T07:03:12Z</time>
        <course>237.449575527742</course>
        <speed>8.31803999724394</speed>
      </trkpt>
      <trkpt lat="43.71417" lon="6.48724">
        <ele>925</ele>
        <time>2012-01-07T07:03:23Z</time>
        <course>233.333157157047</course>
        <speed>4.8417053345057</speed>
      </trkpt>
      <trkpt lat="43.71356" lon="6.48809">
        <ele>928</ele>
        <time>2012-01-07T07:03:43Z</time>
        <course>248.023111124611</course>
        <speed>4.84275981290962</speed>
      </trkpt>
      <trkpt lat="43.71314" lon="6.48917">
        <ele>932</ele>
        <time>2012-01-07T07:04:03Z</time>
        <course>265.434696954008</course>
        <speed>8.31163816155846</speed>
      </trkpt>
      <trkpt lat="43.71311" lon="6.48956">
        <ele>929</ele>
        <time>2012-01-07T07:04:07Z</time>
        <course>277.386444953973</course>
        <speed>8.32449870382218</speed>
      </trkpt>
      <trkpt lat="43.71314" lon="6.4898">
        <ele>927</ele>
        <time>2012-01-07T07:04:10Z</time>
        <course>284.53217028603</course>
        <speed>8.32184794835685</speed>
      </trkpt>
      <trkpt lat="43.71334" lon="6.4906">
        <ele>921</ele>
        <time>2012-01-07T07:04:18Z</time>
        <course>260.931983335459</course>
        <speed>6.50930873192165</speed>
      </trkpt>
      <trkpt lat="43.71332" lon="6.49073">
        <ele>921</ele>
        <time>2012-01-07T07:04:19Z</time>
        <course>240.717091006973</course>
        <speed>6.51029477422861</speed>
      </trkpt>
      <trkpt lat="43.71312" lon="6.4911">
        <ele>921</ele>
        <time>2012-01-07T07:04:25Z</time>
        <course>254.335272021218</course>
        <speed>6.5148698480358</speed>
      </trkpt>
      <trkpt lat="43.71302" lon="6.49147">
        <ele>922</ele>
        <time>2012-01-07T07:04:30Z</time>
        <course>269.993902933364</course>
        <speed>6.51012454929704</speed>
      </trkpt>
      <trkpt lat="43.71302" lon="6.49227">
        <ele>923</ele>
        <time>2012-01-07T07:04:40Z</time>
        <course>265.824726547677</course>
        <speed>8.3183254505858</speed>
      </trkpt>
      <trkpt lat="43.71287" lon="6.49441">
        <ele>919</ele>
        <time>2012-01-07T07:05:01Z</time>
        <course>261.758600273785</course>
        <speed>8.31597423493961</speed>
      </trkpt>
      <trkpt lat="43.71264" lon="6.49606">
        <ele>918</ele>
        <time>2012-01-07T07:05:17Z</time>
        <course>265.048475343213</course>
        <speed>8.31829173006233</speed>
      </trkpt>
      <trkpt lat="43.71253" lon="6.49738">
        <ele>914</ele>
        <time>2012-01-07T07:05:30Z</time>
        <course>255.384703447504</course>
        <speed>8.31882055483567</speed>
      </trkpt>
      <trkpt lat="43.71187" lon="6.50001">
        <ele>914</ele>
        <time>2012-01-07T07:05:57Z</time>
        <course>256.925799859149</course>
        <speed>8.3202502192762</speed>
      </trkpt>
      <trkpt lat="43.7117" lon="6.50077">
        <ele>912</ele>
        <time>2012-01-07T07:06:04Z</time>
        <course>259.889624798472</course>
        <speed>8.31747464075005</speed>
      </trkpt>
      <trkpt lat="43.71147" lon="6.50211">
        <ele>910</ele>
        <time>2012-01-07T07:06:18Z</time>
        <course>254.450800357012</course>
        <speed>8.31828413625393</speed>
      </trkpt>
      <trkpt lat="43.71102" lon="6.50379">
        <ele>910</ele>
        <time>2012-01-07T07:06:35Z</time>
        <course>258.997690182198</course>
        <speed>8.3183222768312</speed>
      </trkpt>
      <trkpt lat="43.71073" lon="6.50534">
        <ele>907</ele>
        <time>2012-01-07T07:06:50Z</time>
        <course>258.997690182198</course>
        <speed>8.3183222768312</speed>
      </trkpt>
      <trkpt lat="43.71073" lon="6.50534">
        <ele>907</ele>
        <time>2012-01-07T07:06:51Z</time>
        <course>254.061888608724</course>
        <speed>8.31606821636667</speed>
      </trkpt>
      <trkpt lat="43.71026" lon="6.50705">
        <ele>902</ele>
        <time>2012-01-07T07:07:09Z</time>
        <course>269.99861444592</course>
        <speed>8.30920971194068</speed>
      </trkpt>
      <trkpt lat="43.71026" lon="6.50723">
        <ele>901</ele>
        <time>2012-01-07T07:07:11Z</time>
        <course>42.7003925697096</course>
        <speed>8.31513257125841</speed>
      </trkpt>
      <trkpt lat="43.71097" lon="6.50655">
        <ele>898</ele>
        <time>2012-01-07T07:07:22Z</time>
        <course>52.6332800576097</course>
        <speed>8.32162282271757</speed>
      </trkpt>
      <trkpt lat="43.71136" lon="6.50602">
        <ele>897</ele>
        <time>2012-01-07T07:07:30Z</time>
        <course>23.9330532064361</course>
        <speed>8.31843804102391</speed>
      </trkpt>
      <trkpt lat="43.71212" lon="6.50567">
        <ele>894</ele>
        <time>2012-01-07T07:07:40Z</time>
        <course>4.35133512440575</course>
        <speed>8.32564867324816</speed>
      </trkpt>
      <trkpt lat="43.7125" lon="6.50564">
        <ele>894</ele>
        <time>2012-01-07T07:07:45Z</time>
        <course>354.992202280103</course>
        <speed>3.42166498256262</speed>
      </trkpt>
      <trkpt lat="43.71272" lon="6.50566">
        <ele>895</ele>
        <time>2012-01-07T07:07:52Z</time>
        <course>23.1910649193819</course>
        <speed>3.42155724129843</speed>
      </trkpt>
      <trkpt lat="43.7129" lon="6.50558">
        <ele>897</ele>
        <time>2012-01-07T07:07:59Z</time>
        <course>42.4049706995162</course>
        <speed>3.42217098594436</speed>
      </trkpt>
      <trkpt lat="43.71422" lon="6.50433">
        <ele>910</ele>
        <time>2012-01-07T07:08:51Z</time>
        <course>34.1620201219391</course>
        <speed>4.91391693969278</speed>
      </trkpt>
      <trkpt lat="43.71449" lon="6.50414">
        <ele>911</ele>
        <time>2012-01-07T07:08:57Z</time>
        <course>17.1521845958546</course>
        <speed>4.91186608755913</speed>
      </trkpt>
      <trkpt lat="43.71499" lon="6.50398">
        <ele>913</ele>
        <time>2012-01-07T07:09:09Z</time>
        <course>358.84873372057</course>
        <speed>4.91193799467279</speed>
      </trkpt>
      <trkpt lat="43.71547" lon="6.50399">
        <ele>915</ele>
        <time>2012-01-07T07:09:20Z</time>
        <course>344.704702532192</course>
        <speed>8.31811457508241</speed>
      </trkpt>
      <trkpt lat="43.71893" lon="6.50497">
        <ele>880</ele>
        <time>2012-01-07T07:10:07Z</time>
        <course>325.522843966878</course>
        <speed>8.31678869519948</speed>
      </trkpt>
      <trkpt lat="43.71938" lon="6.50529">
        <ele>870</ele>
        <time>2012-01-07T07:10:14Z</time>
        <course>308.943070139525</course>
        <speed>8.31256780336494</speed>
      </trkpt>
      <trkpt lat="43.7197" lon="6.5057">
        <ele>862</ele>
        <time>2012-01-07T07:10:20Z</time>
        <course>294.708176741971</course>
        <speed>8.31879913626966</speed>
      </trkpt>
      <trkpt lat="43.71994" lon="6.50624">
        <ele>857</ele>
        <time>2012-01-07T07:10:26Z</time>
        <course>287.253093660923</course>
        <speed>8.32088840579498</speed>
      </trkpt>
      <trkpt lat="43.72006" lon="6.50664">
        <ele>854</ele>
        <time>2012-01-07T07:10:30Z</time>
        <course>278.12545397774</course>
        <speed>8.31930394076105</speed>
      </trkpt>
      <trkpt lat="43.7201" lon="6.50693">
        <ele>853</ele>
        <time>2012-01-07T07:10:33Z</time>
        <course>271.094433458355</course>
        <speed>8.31057151391035</speed>
      </trkpt>
      <trkpt lat="43.72011" lon="6.50747">
        <ele>850</ele>
        <time>2012-01-07T07:10:38Z</time>
        <course>260.588008407617</course>
        <speed>8.31405489278438</speed>
      </trkpt>
      <trkpt lat="43.71999" lon="6.50822">
        <ele>846</ele>
        <time>2012-01-07T07:10:45Z</time>
        <course>252.728243202282</course>
        <speed>8.31842791765041</speed>
      </trkpt>
      <trkpt lat="43.7168" lon="6.5189">
        <ele>821</ele>
        <time>2012-01-07T07:12:37Z</time>
        <course>253.87110494742</course>
        <speed>8.31799521690954</speed>
      </trkpt>
      <trkpt lat="43.71612" lon="6.52134">
        <ele>812</ele>
        <time>2012-01-07T07:13:02Z</time>
        <course>256.149322295832</course>
        <speed>5.99691458176388</speed>
      </trkpt>
      <trkpt lat="43.71583" lon="6.52256">
        <ele>814</ele>
        <time>2012-01-07T07:13:19Z</time>
        <course>269.333329026942</course>
        <speed>6.83935218735826</speed>
      </trkpt>
      <trkpt lat="43.71582" lon="6.52346">
        <ele>814</ele>
        <time>2012-01-07T07:13:30Z</time>
        <course>272.706246642745</course>
        <speed>6.83931437530297</speed>
      </trkpt>
      <trkpt lat="43.71599" lon="6.52715">
        <ele>818</ele>
        <time>2012-01-07T07:14:13Z</time>
        <course>268.644762021905</course>
        <speed>8.3173393770475</speed>
      </trkpt>
      <trkpt lat="43.71595" lon="6.52892">
        <ele>816</ele>
        <time>2012-01-07T07:14:31Z</time>
        <course>258.741065690514</course>
        <speed>5.28029665429072</speed>
      </trkpt>
      <trkpt lat="43.71576" lon="6.52991">
        <ele>818</ele>
        <time>2012-01-07T07:14:46Z</time>
        <course>255.529844679097</course>
        <speed>5.27882684188408</speed>
      </trkpt>
      <trkpt lat="43.71529" lon="6.5318">
        <ele>823</ele>
        <time>2012-01-07T07:15:17Z</time>
        <course>258.281533506211</course>
        <speed>2.82923282849901</speed>
      </trkpt>
      <trkpt lat="43.71518" lon="6.53235">
        <ele>827</ele>
        <time>2012-01-07T07:15:33Z</time>
        <course>263.579348356446</course>
        <speed>2.82989644308048</speed>
      </trkpt>
      <trkpt lat="43.71509" lon="6.53318">
        <ele>834</ele>
        <time>2012-01-07T07:15:57Z</time>
        <course>278.421233980834</course>
        <speed>8.32284052266461</speed>
      </trkpt>
      <trkpt lat="43.71516" lon="6.53367">
        <ele>832</ele>
        <time>2012-01-07T07:16:01Z</time>
        <course>286.643930106762</course>
        <speed>8.31791023580897</speed>
      </trkpt>
      <trkpt lat="43.71585" lon="6.53606">
        <ele>822</ele>
        <time>2012-01-07T07:16:26Z</time>
        <course>284.517077382707</course>
        <speed>8.32004772225668</speed>
      </trkpt>
      <trkpt lat="43.7162" lon="6.53746">
        <ele>821</ele>
        <time>2012-01-07T07:16:41Z</time>
        <course>277.306858654945</course>
        <speed>5.05739512625818</speed>
      </trkpt>
      <trkpt lat="43.71653" lon="6.54012">
        <ele>828</ele>
        <time>2012-01-07T07:17:23Z</time>
        <course>272.988814480492</course>
        <speed>5.69725999559707</speed>
      </trkpt>
      <trkpt lat="43.71658" lon="6.54111">
        <ele>829</ele>
        <time>2012-01-07T07:17:37Z</time>
        <course>263.321454806565</course>
        <speed>5.69474686393619</speed>
      </trkpt>
      <trkpt lat="43.71651" lon="6.54173">
        <ele>831</ele>
        <time>2012-01-07T07:17:46Z</time>
        <course>258.760613540732</course>
        <speed>4.96590580273941</speed>
      </trkpt>
      <trkpt lat="43.71549" lon="6.54707">
        <ele>846</ele>
        <time>2012-01-07T07:19:16Z</time>
        <course>269.31841302544</course>
        <speed>6.03640048011476</speed>
      </trkpt>
      <trkpt lat="43.71548" lon="6.54795">
        <ele>847</ele>
        <time>2012-01-07T07:19:27Z</time>
        <course>276.754115142518</course>
        <speed>6.02957707850985</speed>
      </trkpt>
      <trkpt lat="43.71552" lon="6.5483">
        <ele>847</ele>
        <time>2012-01-07T07:19:32Z</time>
        <course>281.236954936274</course>
        <speed>6.03353192715222</speed>
      </trkpt>
      <trkpt lat="43.7159" lon="6.55028">
        <ele>851</ele>
        <time>2012-01-07T07:19:59Z</time>
        <course>277.968206734257</course>
        <speed>4.96818161092778</speed>
      </trkpt>
      <trkpt lat="43.716" lon="6.55102">
        <ele>853</ele>
        <time>2012-01-07T07:20:11Z</time>
        <course>271.643809963477</course>
        <speed>4.96731683550914</speed>
      </trkpt>
      <trkpt lat="43.71602" lon="6.55174">
        <ele>855</ele>
        <time>2012-01-07T07:20:23Z</time>
        <course>266.813232804664</course>
        <speed>5.00328952045508</speed>
      </trkpt>
      <trkpt lat="43.71592" lon="6.55361">
        <ele>860</ele>
        <time>2012-01-07T07:20:53Z</time>
        <course>256.633546107471</course>
        <speed>2.77193302563612</speed>
      </trkpt>
      <trkpt lat="43.71581" lon="6.55409">
        <ele>864</ele>
        <time>2012-01-07T07:21:08Z</time>
        <course>246.819184913647</course>
        <speed>2.77150261745819</speed>
      </trkpt>
      <trkpt lat="43.7151" lon="6.55581">
        <ele>880</ele>
        <time>2012-01-07T07:22:05Z</time>
        <course>255.46338137841</course>
        <speed>5.15517790021498</speed>
      </trkpt>
      <trkpt lat="43.71493" lon="6.55649">
        <ele>881</ele>
        <time>2012-01-07T07:22:16Z</time>
        <course>263.348238528268</course>
        <speed>5.15608920182877</speed>
      </trkpt>
      <trkpt lat="43.71483" lon="6.55738">
        <ele>884</ele>
        <time>2012-01-07T07:22:30Z</time>
        <course>278.422363037345</course>
        <speed>8.32575483585327</speed>
      </trkpt>
      <trkpt lat="43.71489" lon="6.5578">
        <ele>883</ele>
        <time>2012-01-07T07:22:35Z</time>
        <course>289.993595848406</course>
        <speed>8.31825979813385</speed>
      </trkpt>
      <trkpt lat="43.71522" lon="6.55874">
        <ele>883</ele>
        <time>2012-01-07T07:22:45Z</time>
        <course>279.540599783914</course>
        <speed>6.20275690080882</speed>
      </trkpt>
      <trkpt lat="43.71528" lon="6.55911">
        <ele>883</ele>
        <time>2012-01-07T07:22:50Z</time>
        <course>273.288213163396</course>
        <speed>6.2096141682749</speed>
      </trkpt>
      <trkpt lat="43.71534" lon="6.56019">
        <ele>885</ele>
        <time>2012-01-07T07:23:04Z</time>
        <course>288.275185981472</course>
        <speed>3.2695784705319</speed>
      </trkpt>
      <trkpt lat="43.71563" lon="6.5611">
        <ele>891</ele>
        <time>2012-01-07T07:23:28Z</time>
        <course>279.797756190394</course>
        <speed>3.27074294411682</speed>
      </trkpt>
      <trkpt lat="43.71573" lon="6.5617">
        <ele>895</ele>
        <time>2012-01-07T07:23:43Z</time>
        <course>260.631914764737</course>
        <speed>4.98409946162071</speed>
      </trkpt>
      <trkpt lat="43.71566" lon="6.56214">
        <ele>896</ele>
        <time>2012-01-07T07:23:50Z</time>
        <course>254.620295161663</course>
        <speed>4.98344750942055</speed>
      </trkpt>
      <trkpt lat="43.71531" lon="6.56346">
        <ele>900</ele>
        <time>2012-01-07T07:24:13Z</time>
        <course>260.095641208175</course>
        <speed>6.4672237994318</speed>
      </trkpt>
      <trkpt lat="43.7146" lon="6.56769">
        <ele>905</ele>
        <time>2012-01-07T07:25:07Z</time>
        <course>260.856979075196</course>
        <speed>8.31752217337643</speed>
      </trkpt>
      <trkpt lat="43.7144" lon="6.56898">
        <ele>900</ele>
        <time>2012-01-07T07:25:20Z</time>
        <course>268.511918836584</course>
        <speed>8.32796344060663</speed>
      </trkpt>
      <trkpt lat="43.71439" lon="6.56938">
        <ele>899</ele>
        <time>2012-01-07T07:25:24Z</time>
        <course>275.149095989043</course>
        <speed>8.32486250276325</speed>
      </trkpt>
      <trkpt lat="43.71443" lon="6.56984">
        <ele>899</ele>
        <time>2012-01-07T07:25:28Z</time>
        <course>288.128793186041</course>
        <speed>8.32652968502953</speed>
      </trkpt>
      <trkpt lat="43.71455" lon="6.57022">
        <ele>899</ele>
        <time>2012-01-07T07:25:32Z</time>
        <course>295.127287707098</course>
        <speed>4.63273937582733</speed>
      </trkpt>
      <trkpt lat="43.71474" lon="6.57064">
        <ele>900</ele>
        <time>2012-01-07T07:25:41Z</time>
        <course>297.384525455056</course>
        <speed>4.63108736813134</speed>
      </trkpt>
      <trkpt lat="43.71582" lon="6.5728">
        <ele>909</ele>
        <time>2012-01-07T07:26:26Z</time>
        <course>303.774413235808</course>
        <speed>4.56764266385553</speed>
      </trkpt>
      <trkpt lat="43.71684" lon="6.57438">
        <ele>916</ele>
        <time>2012-01-07T07:27:03Z</time>
        <course>289.629194766336</course>
        <speed>8.32281958944224</speed>
      </trkpt>
      <trkpt lat="43.71705" lon="6.57499">
        <ele>913</ele>
        <time>2012-01-07T07:27:10Z</time>
        <course>276.242046135637</course>
        <speed>8.31930550870709</speed>
      </trkpt>
      <trkpt lat="43.71732" lon="6.57754">
        <ele>905</ele>
        <time>2012-01-07T07:27:35Z</time>
        <course>271.397591559686</course>
        <speed>8.31851089904962</speed>
      </trkpt>
      <trkpt lat="43.71743" lon="6.5821">
        <ele>903</ele>
        <time>2012-01-07T07:28:19Z</time>
        <course>277.645693930235</course>
        <speed>8.31337443328867</speed>
      </trkpt>
      <trkpt lat="43.7175" lon="6.58264">
        <ele>903</ele>
        <time>2012-01-07T07:28:24Z</time>
        <course>285.775491958899</course>
        <speed>8.31930924538781</speed>
      </trkpt>
      <trkpt lat="43.71762" lon="6.58308">
        <ele>903</ele>
        <time>2012-01-07T07:28:29Z</time>
        <course>292.686953976945</course>
        <speed>8.32105300925417</speed>
      </trkpt>
      <trkpt lat="43.71806" lon="6.58417">
        <ele>903</ele>
        <time>2012-01-07T07:28:41Z</time>
        <course>302.232577857235</course>
        <speed>4.28189966965513</speed>
      </trkpt>
      <trkpt lat="43.7182" lon="6.5844">
        <ele>904</ele>
        <time>2012-01-07T07:28:46Z</time>
        <course>311.730334987363</course>
        <speed>4.28309090099564</speed>
      </trkpt>
      <trkpt lat="43.71851" lon="6.58476">
        <ele>906</ele>
        <time>2012-01-07T07:28:57Z</time>
        <course>317.920470352267</course>
        <speed>4.28185835351938</speed>
      </trkpt>
      <trkpt lat="43.71989" lon="6.58605">
        <ele>915</ele>
        <time>2012-01-07T07:29:40Z</time>
        <course>311.138899214001</course>
        <speed>5.28130865046371</speed>
      </trkpt>
      <trkpt lat="43.72016" lon="6.58637">
        <ele>916</ele>
        <time>2012-01-07T07:29:48Z</time>
        <course>295.261667345061</course>
        <speed>5.27937510768553</speed>
      </trkpt>
      <trkpt lat="43.72047" lon="6.58705">
        <ele>918</ele>
        <time>2012-01-07T07:30:00Z</time>
        <course>284.904532870338</course>
        <speed>7.05299068164701</speed>
      </trkpt>
      <trkpt lat="43.72056" lon="6.5874">
        <ele>918</ele>
        <time>2012-01-07T07:30:04Z</time>
        <course>274.096449867123</course>
        <speed>7.05486622251957</speed>
      </trkpt>
      <trkpt lat="43.72063" lon="6.58841">
        <ele>919</ele>
        <time>2012-01-07T07:30:16Z</time>
        <course>270.552762539319</course>
        <speed>8.31769849318577</speed>
      </trkpt>
      <trkpt lat="43.72067" lon="6.59248">
        <ele>919</ele>
        <time>2012-01-07T07:30:55Z</time>
        <course>273.311477114685</course>
        <speed>7.77485798122987</speed>
      </trkpt>
      <trkpt lat="43.72087" lon="6.59603">
        <ele>920</ele>
        <time>2012-01-07T07:31:32Z</time>
        <course>279.080884948991</course>
        <speed>8.31823356870457</speed>
      </trkpt>
      <trkpt lat="43.72104" lon="6.59713">
        <ele>920</ele>
        <time>2012-01-07T07:31:43Z</time>
        <course>282.469711526552</course>
        <speed>8.31734312807977</speed>
      </trkpt>
      <trkpt lat="43.72141" lon="6.59886">
        <ele>920</ele>
        <time>2012-01-07T07:32:00Z</time>
        <course>285.562802021484</course>
        <speed>4.91056114970129</speed>
      </trkpt>
      <trkpt lat="43.72169" lon="6.5999">
        <ele>923</ele>
        <time>2012-01-07T07:32:18Z</time>
        <course>290.463505417434</course>
        <speed>4.91015846903682</speed>
      </trkpt>
      <trkpt lat="43.72191" lon="6.60051">
        <ele>925</ele>
        <time>2012-01-07T07:32:29Z</time>
        <course>296.038242435106</course>
        <speed>4.29004255286707</speed>
      </trkpt>
      <trkpt lat="43.72225" lon="6.60123">
        <ele>928</ele>
        <time>2012-01-07T07:32:45Z</time>
        <course>303.599019912331</course>
        <speed>4.29008110104093</speed>
      </trkpt>
      <trkpt lat="43.72349" lon="6.60316">
        <ele>938</ele>
        <time>2012-01-07T07:33:34Z</time>
        <course>300.771639060414</course>
        <speed>5.08746248381506</speed>
      </trkpt>
      <trkpt lat="43.72387" lon="6.60382">
        <ele>940</ele>
        <time>2012-01-07T07:33:47Z</time>
        <course>295.392260646117</course>
        <speed>5.09046002961042</speed>
      </trkpt>
      <trkpt lat="43.72415" lon="6.60443">
        <ele>942</ele>
        <time>2012-01-07T07:33:58Z</time>
        <course>288.752664990989</course>
        <speed>4.43336932942801</speed>
      </trkpt>
      <trkpt lat="43.72437" lon="6.6051">
        <ele>944</ele>
        <time>2012-01-07T07:34:12Z</time>
        <course>283.418330966447</course>
        <speed>4.43316043968106</speed>
      </trkpt>
      <trkpt lat="43.72452" lon="6.60575">
        <ele>947</ele>
        <time>2012-01-07T07:34:24Z</time>
        <course>278.317935543819</course>
        <speed>8.31619407169071</speed>
      </trkpt>
      <trkpt lat="43.72467" lon="6.60681">
        <ele>945</ele>
        <time>2012-01-07T07:34:35Z</time>
        <course>269.373955482145</course>
        <speed>8.31975156604263</speed>
      </trkpt>
      <trkpt lat="43.72464" lon="6.60975">
        <ele>943</ele>
        <time>2012-01-07T07:35:03Z</time>
        <course>273.029995287198</course>
        <speed>8.31707210876726</speed>
      </trkpt>
      <trkpt lat="43.72468" lon="6.61053">
        <ele>941</ele>
        <time>2012-01-07T07:35:10Z</time>
        <course>278.878228299523</course>
        <speed>8.32018566082829</speed>
      </trkpt>
      <trkpt lat="43.72481" lon="6.61139">
        <ele>940</ele>
        <time>2012-01-07T07:35:19Z</time>
        <course>286.829282768566</course>
        <speed>6.05142006017522</speed>
      </trkpt>
      <trkpt lat="43.72517" lon="6.61262">
        <ele>942</ele>
        <time>2012-01-07T07:35:37Z</time>
        <course>294.675873755079</course>
        <speed>7.12992516614604</speed>
      </trkpt>
      <trkpt lat="43.72545" lon="6.61325">
        <ele>942</ele>
        <time>2012-01-07T07:35:45Z</time>
        <course>300.035105716268</course>
        <speed>7.12379238722728</speed>
      </trkpt>
      <trkpt lat="43.72578" lon="6.61384">
        <ele>943</ele>
        <time>2012-01-07T07:35:53Z</time>
        <course>309.237523307708</course>
        <speed>6.99365817405782</speed>
      </trkpt>
      <trkpt lat="43.72858" lon="6.61738">
        <ele>947</ele>
        <time>2012-01-07T07:36:54Z</time>
        <course>299.396100805861</course>
        <speed>6.52509535350376</speed>
      </trkpt>
      <trkpt lat="43.72888" lon="6.61793">
        <ele>947</ele>
        <time>2012-01-07T07:37:02Z</time>
        <course>294.803394606008</course>
        <speed>6.52477273830665</speed>
      </trkpt>
      <trkpt lat="43.72965" lon="6.61965">
        <ele>950</ele>
        <time>2012-01-07T07:37:27Z</time>
        <course>304.541553158724</course>
        <speed>4.70449407890625</speed>
      </trkpt>
      <trkpt lat="43.73013" lon="6.62037">
        <ele>953</ele>
        <time>2012-01-07T07:37:44Z</time>
        <course>315.407448727799</course>
        <speed>4.70439348837483</speed>
      </trkpt>
      <trkpt lat="43.73069" lon="6.62094">
        <ele>956</ele>
        <time>2012-01-07T07:38:00Z</time>
        <course>318.820474861266</course>
        <speed>5.25007218739577</speed>
      </trkpt>
      <trkpt lat="43.73172" lon="6.62187">
        <ele>960</ele>
        <time>2012-01-07T07:38:26Z</time>
        <course>337.194637791806</course>
        <speed>7.0217484176801</speed>
      </trkpt>
      <trkpt lat="43.73225" lon="6.6221">
        <ele>960</ele>
        <time>2012-01-07T07:38:35Z</time>
        <course>344.846666345823</course>
        <speed>7.02060267445525</speed>
      </trkpt>
      <trkpt lat="43.73361" lon="6.62248">
        <ele>962</ele>
        <time>2012-01-07T07:38:57Z</time>
        <course>327.947364496169</course>
        <speed>8.31933082046823</speed>
      </trkpt>
      <trkpt lat="43.73457" lon="6.6231">
        <ele>960</ele>
        <time>2012-01-07T07:39:11Z</time>
        <course>314.376022167394</course>
        <speed>8.32217047307805</speed>
      </trkpt>
      <trkpt lat="43.73494" lon="6.62349">
        <ele>960</ele>
        <time>2012-01-07T07:39:17Z</time>
        <course>301.745324248696</course>
        <speed>8.31571933726816</speed>
      </trkpt>
      <trkpt lat="43.7353" lon="6.62409">
        <ele>960</ele>
        <time>2012-01-07T07:39:25Z</time>
        <course>293.840729939079</course>
        <speed>3.60452742104832</speed>
      </trkpt>
      <trkpt lat="43.73551" lon="6.62458">
        <ele>962</ele>
        <time>2012-01-07T07:39:37Z</time>
        <course>268.12813135917</course>
        <speed>3.60467048446323</speed>
      </trkpt>
      <trkpt lat="43.73548" lon="6.62553">
        <ele>968</ele>
        <time>2012-01-07T07:39:59Z</time>
        <course>281.652042966964</course>
        <speed>4.53744983229044</speed>
      </trkpt>
      <trkpt lat="43.73553" lon="6.62578">
        <ele>968</ele>
        <time>2012-01-07T07:40:03Z</time>
        <course>309.957447828322</course>
        <speed>4.53786151087406</speed>
      </trkpt>
      <trkpt lat="43.73566" lon="6.62594">
        <ele>969</ele>
        <time>2012-01-07T07:40:07Z</time>
        <course>336.211931999608</course>
        <speed>4.54612723638077</speed>
      </trkpt>
      <trkpt lat="43.73577" lon="6.62599">
        <ele>970</ele>
        <time>2012-01-07T07:40:10Z</time>
        <course>2.22170493372129</course>
        <speed>4.53740403175886</speed>
      </trkpt>
      <trkpt lat="43.73627" lon="6.62597">
        <ele>972</ele>
        <time>2012-01-07T07:40:23Z</time>
        <course>349.021964780832</course>
        <speed>4.5455143964182</speed>
      </trkpt>
      <trkpt lat="43.73637" lon="6.62599">
        <ele>973</ele>
        <time>2012-01-07T07:40:25Z</time>
        <course>315.873575093383</course>
        <speed>2.57273674240316</speed>
      </trkpt>
      <trkpt lat="43.73651" lon="6.62613">
        <ele>975</ele>
        <time>2012-01-07T07:40:32Z</time>
        <course>303.267139703678</course>
        <speed>2.56956734749952</speed>
      </trkpt>
      <trkpt lat="43.73658" lon="6.62624">
        <ele>976</ele>
        <time>2012-01-07T07:40:37Z</time>
        <course>281.649279728256</course>
        <speed>2.57117790020902</speed>
      </trkpt>
      <trkpt lat="43.73662" lon="6.62644">
        <ele>978</ele>
        <time>2012-01-07T07:40:44Z</time>
        <course>265.086232937896</course>
        <speed>2.57249744069381</speed>
      </trkpt>
      <trkpt lat="43.73658" lon="6.62692">
        <ele>982</ele>
        <time>2012-01-07T07:40:59Z</time>
        <course>273.68342328106</course>
        <speed>2.57192163325987</speed>
      </trkpt>
      <trkpt lat="43.73661" lon="6.6274">
        <ele>987</ele>
        <time>2012-01-07T07:41:14Z</time>
        <course>300.689733389309</course>
        <speed>2.59999949234007</speed>
      </trkpt>
      <trkpt lat="43.7368" lon="6.62773">
        <ele>990</ele>
        <time>2012-01-07T07:41:27Z</time>
        <course>312.047893132354</course>
        <speed>2.59852916400401</speed>
      </trkpt>
      <trkpt lat="43.73715" lon="6.62813">
        <ele>996</ele>
        <time>2012-01-07T07:41:46Z</time>
        <course>338.126867496921</course>
        <speed>2.59924119472802</speed>
      </trkpt>
      <trkpt lat="43.73744" lon="6.62825">
        <ele>1000</ele>
        <time>2012-01-07T07:41:59Z</time>
        <course>1.63473859520272</course>
        <speed>5.72565598534173</speed>
      </trkpt>
      <trkpt lat="43.73812" lon="6.62823">
        <ele>1001</ele>
        <time>2012-01-07T07:42:12Z</time>
        <course>338.671529785596</course>
        <speed>5.7234418102063</speed>
      </trkpt>
      <trkpt lat="43.73899" lon="6.62858">
        <ele>1004</ele>
        <time>2012-01-07T07:42:30Z</time>
        <course>351.817277359533</course>
        <speed>4.96279209201978</speed>
      </trkpt>
      <trkpt lat="43.73926" lon="6.62862">
        <ele>1005</ele>
        <time>2012-01-07T07:42:36Z</time>
        <course>6.88378971514279</course>
        <speed>4.96630445588268</speed>
      </trkpt>
      <trkpt lat="43.74111" lon="6.62839">
        <ele>1012</ele>
        <time>2012-01-07T07:43:17Z</time>
        <course>354.837895237416</course>
        <speed>2.74437741923512</speed>
      </trkpt>
      <trkpt lat="43.74154" lon="6.62843">
        <ele>1016</ele>
        <time>2012-01-07T07:43:35Z</time>
        <course>347.029239301903</course>
        <speed>2.7442028165948</speed>
      </trkpt>
      <trkpt lat="43.74251" lon="6.62866">
        <ele>1028</ele>
        <time>2012-01-07T07:44:15Z</time>
        <course>1.78097666479776</course>
        <speed>8.31958760420965</speed>
      </trkpt>
      <trkpt lat="43.74376" lon="6.62862">
        <ele>1024</ele>
        <time>2012-01-07T07:44:31Z</time>
        <course>342.506674682161</course>
        <speed>2.64917678086361</speed>
      </trkpt>
      <trkpt lat="43.74413" lon="6.62874">
        <ele>1028</ele>
        <time>2012-01-07T07:44:47Z</time>
        <course>329.115313945838</course>
        <speed>2.64893210477111</speed>
      </trkpt>
      <trkpt lat="43.74478" lon="6.62914">
        <ele>1037</ele>
        <time>2012-01-07T07:45:17Z</time>
        <course>335.934261761718</course>
        <speed>6.85444709123186</speed>
      </trkpt>
      <trkpt lat="43.74515" lon="6.62931">
        <ele>1037</ele>
        <time>2012-01-07T07:45:24Z</time>
        <course>354.095612070143</course>
        <speed>6.85607436200219</speed>
      </trkpt>
      <trkpt lat="43.74562" lon="6.62936">
        <ele>1038</ele>
        <time>2012-01-07T07:45:31Z</time>
        <course>1.35851416582955</course>
        <speed>6.85207090935761</speed>
      </trkpt>
      <trkpt lat="43.74644" lon="6.62934">
        <ele>1039</ele>
        <time>2012-01-07T07:45:45Z</time>
        <course>349.973791235714</course>
        <speed>2.52799431913388</speed>
      </trkpt>
      <trkpt lat="43.74677" lon="6.6294">
        <ele>1043</ele>
        <time>2012-01-07T07:45:59Z</time>
        <course>343.311951325192</course>
        <speed>2.5287251686222</speed>
      </trkpt>
      <trkpt lat="43.74836" lon="6.62989">
        <ele>1064</ele>
        <time>2012-01-07T07:47:11Z</time>
        <course>348.989464707358</course>
        <speed>3.67809127473534</speed>
      </trkpt>
      <trkpt lat="43.74876" lon="6.62997">
        <ele>1066</ele>
        <time>2012-01-07T07:47:23Z</time>
        <course>3.83947111598572</course>
        <speed>3.67689626394211</speed>
      </trkpt>
      <trkpt lat="43.74992" lon="6.62989">
        <ele>1075</ele>
        <time>2012-01-07T07:47:58Z</time>
        <course>17.8301351288212</course>
        <speed>8.32032113477731</speed>
      </trkpt>
      <trkpt lat="43.75107" lon="6.62951">
        <ele>1069</ele>
        <time>2012-01-07T07:48:14Z</time>
        <course>3.37640391032617</course>
        <speed>8.32306649411824</speed>
      </trkpt>
      <trkpt lat="43.7514" lon="6.62949">
        <ele>1066</ele>
        <time>2012-01-07T07:48:18Z</time>
        <course>356.124853670719</course>
        <speed>8.31919590435724</speed>
      </trkpt>
      <trkpt lat="43.75255" lon="6.62957">
        <ele>1058</ele>
        <time>2012-01-07T07:48:34Z</time>
        <course>342.187524907189</course>
        <speed>8.31864937044283</speed>
      </trkpt>
      <trkpt lat="43.75352" lon="6.62989">
        <ele>1056</ele>
        <time>2012-01-07T07:48:47Z</time>
        <course>325.44897778731</course>
        <speed>8.3178234479829</speed>
      </trkpt>
      <trkpt lat="43.7541" lon="6.6303">
        <ele>1053</ele>
        <time>2012-01-07T07:48:56Z</time>
        <course>306.31926015806</course>
        <speed>8.318744263751</speed>
      </trkpt>
      <trkpt lat="43.75587" lon="6.63277">
        <ele>1042</ele>
        <time>2012-01-07T07:49:29Z</time>
        <course>297.156007160215</course>
        <speed>8.31652623050796</speed>
      </trkpt>
      <trkpt lat="43.75627" lon="6.63357">
        <ele>1040</ele>
        <time>2012-01-07T07:49:39Z</time>
        <course>292.117304608829</course>
        <speed>8.31502637448429</speed>
      </trkpt>
      <trkpt lat="43.75669" lon="6.63463">
        <ele>1038</ele>
        <time>2012-01-07T07:49:50Z</time>
        <course>301.612379792233</course>
        <speed>8.32056387162736</speed>
      </trkpt>
      <trkpt lat="43.75699" lon="6.63513">
        <ele>1034</ele>
        <time>2012-01-07T07:49:57Z</time>
        <course>314.29684200433</course>
        <speed>8.3202175376118</speed>
      </trkpt>
      <trkpt lat="43.75738" lon="6.63554">
        <ele>1031</ele>
        <time>2012-01-07T07:50:03Z</time>
        <course>326.010937028582</course>
        <speed>8.31800870978203</speed>
      </trkpt>
      <trkpt lat="43.76123" lon="6.6382">
        <ele>1019</ele>
        <time>2012-01-07T07:51:01Z</time>
        <course>326.627498413856</course>
        <speed>8.31830605908434</speed>
      </trkpt>
      <trkpt lat="43.76819" lon="6.64289">
        <ele>1017</ele>
        <time>2012-01-07T07:52:44Z</time>
        <course>326.390562391494</course>
        <speed>7.90577684007928</speed>
      </trkpt>
      <trkpt lat="43.77128" lon="6.64499">
        <ele>1018</ele>
        <time>2012-01-07T07:53:32Z</time>
        <course>330.296876223532</course>
        <speed>7.39162163533886</speed>
      </trkpt>
      <trkpt lat="43.77176" lon="6.64527">
        <ele>1018</ele>
        <time>2012-01-07T07:53:40Z</time>
        <course>342.837763865656</course>
        <speed>7.39070311976985</speed>
      </trkpt>
      <trkpt lat="43.77195" lon="6.64533">
        <ele>1018</ele>
        <time>2012-01-07T07:53:43Z</time>
        <course>6.20249576943285</course>
        <speed>7.39755752985688</speed>
      </trkpt>
      <trkpt lat="43.77267" lon="6.64525">
        <ele>1019</ele>
        <time>2012-01-07T07:53:54Z</time>
        <course>341.941136148242</course>
        <speed>8.31785820188588</speed>
      </trkpt>
      <trkpt lat="43.77294" lon="6.64534">
        <ele>1019</ele>
        <time>2012-01-07T07:53:58Z</time>
        <course>329.052533647062</course>
        <speed>8.3156639601877</speed>
      </trkpt>
      <trkpt lat="43.77356" lon="6.64572">
        <ele>1019</ele>
        <time>2012-01-07T07:54:07Z</time>
        <course>329.052533647062</course>
        <speed>8.3156639601877</speed>
      </trkpt>
      <trkpt lat="43.77356" lon="6.64572">
        <ele>1019</ele>
        <time>2012-01-07T07:54:08Z</time>
        <course>326.887382562105</course>
        <speed>7.39948853303213</speed>
      </trkpt>
      <trkpt lat="43.77362" lon="6.64576">
        <ele>1019</ele>
        <time>2012-01-07T07:54:09Z</time>
        <course>297.581355830177</course>
        <speed>7.42227159428407</speed>
      </trkpt>
      <trkpt lat="43.77385" lon="6.64621">
        <ele>1019</ele>
        <time>2012-01-07T07:54:15Z</time>
        <course>60.2680309152773</course>
        <speed>7.41851229633715</speed>
      </trkpt>
      <trkpt lat="43.77404" lon="6.64587">
        <ele>1019</ele>
        <time>2012-01-07T07:54:19Z</time>
        <course>73.135608871505</course>
        <speed>7.41909111920426</speed>
      </trkpt>
      <trkpt lat="43.77431" lon="6.64496">
        <ele>1020</ele>
        <time>2012-01-07T07:54:30Z</time>
        <course>58.4853559655919</course>
        <speed>8.31722270465055</speed>
      </trkpt>
      <trkpt lat="43.77452" lon="6.64461">
        <ele>1020</ele>
        <time>2012-01-07T07:54:34Z</time>
        <course>48.7839504376706</course>
        <speed>8.32893685645359</speed>
      </trkpt>
      <trkpt lat="43.7747" lon="6.6444">
        <ele>1020</ele>
        <time>2012-01-07T07:54:37Z</time>
        <course>26.573774857544</course>
        <speed>8.31523136062876</speed>
      </trkpt>
      <trkpt lat="43.77515" lon="6.64417">
        <ele>1020</ele>
        <time>2012-01-07T07:54:44Z</time>
        <course>19.6694333349609</course>
        <speed>6.35372901841512</speed>
      </trkpt>
      <trkpt lat="43.77852" lon="6.64294">
        <ele>1026</ele>
        <time>2012-01-07T07:55:45Z</time>
        <course>32.1215400869716</course>
        <speed>7.01224665653587</speed>
      </trkpt>
      <trkpt lat="43.77891" lon="6.64269">
        <ele>1026</ele>
        <time>2012-01-07T07:55:52Z</time>
        <course>48.3124816361451</course>
        <speed>7.00711184796454</speed>
      </trkpt>
      <trkpt lat="43.77932" lon="6.64222">
        <ele>1027</ele>
        <time>2012-01-07T07:56:00Z</time>
        <course>319.737402868769</course>
        <speed>7.36714085919478</speed>
      </trkpt>
      <trkpt lat="43.7805" lon="6.64324">
        <ele>1028</ele>
        <time>2012-01-07T07:56:21Z</time>
        <course>343.556299500972</course>
        <speed>4.60865557274133</speed>
      </trkpt>
      <trkpt lat="43.78133" lon="6.64349">
        <ele>1031</ele>
        <time>2012-01-07T07:56:42Z</time>
        <course>314.881799627809</course>
        <speed>4.60858392801312</speed>
      </trkpt>
      <trkpt lat="43.78298" lon="6.64518">
        <ele>1041</ele>
        <time>2012-01-07T07:57:31Z</time>
        <course>301.975140827869</course>
        <speed>6.96980473763316</speed>
      </trkpt>
      <trkpt lat="43.78418" lon="6.64714">
        <ele>1043</ele>
        <time>2012-01-07T07:58:01Z</time>
        <course>308.143023368019</course>
        <speed>8.31908267701471</speed>
      </trkpt>
      <trkpt lat="43.78532" lon="6.64862">
        <ele>1040</ele>
        <time>2012-01-07T07:58:21Z</time>
        <course>313.579758557697</course>
        <speed>8.3219503396196</speed>
      </trkpt>
      <trkpt lat="43.78574" lon="6.64907">
        <ele>1039</ele>
        <time>2012-01-07T07:58:29Z</time>
        <course>326.222682304877</course>
        <speed>8.31727823948286</speed>
      </trkpt>
      <trkpt lat="43.78684" lon="6.64982">
        <ele>1037</ele>
        <time>2012-01-07T07:58:45Z</time>
        <course>338.998652352159</course>
        <speed>4.96407070414764</speed>
      </trkpt>
      <trkpt lat="43.7873" lon="6.65">
        <ele>1038</ele>
        <time>2012-01-07T07:58:56Z</time>
        <course>357.659112188136</course>
        <speed>4.95926804116107</speed>
      </trkpt>
      <trkpt lat="43.78754" lon="6.65001">
        <ele>1039</ele>
        <time>2012-01-07T07:59:01Z</time>
        <course>12.9996467264614</course>
        <speed>4.96398491544861</speed>
      </trkpt>
      <trkpt lat="43.78788" lon="6.64993">
        <ele>1041</ele>
        <time>2012-01-07T07:59:09Z</time>
        <course>16.2395471475517</course>
        <speed>5.72268953856264</speed>
      </trkpt>
      <trkpt lat="43.78943" lon="6.64947">
        <ele>1045</ele>
        <time>2012-01-07T07:59:40Z</time>
        <course>354.659731530503</course>
        <speed>7.52099176960132</speed>
      </trkpt>
      <trkpt lat="43.78964" lon="6.64949">
        <ele>1045</ele>
        <time>2012-01-07T07:59:43Z</time>
        <course>326.50281580233</course>
        <speed>7.52839114374501</speed>
      </trkpt>
      <trkpt lat="43.79099" lon="6.6504">
        <ele>1046</ele>
        <time>2012-01-07T08:00:05Z</time>
        <course>307.375754603715</course>
        <speed>7.46266084384569</speed>
      </trkpt>
      <trkpt lat="43.79117" lon="6.65064">
        <ele>1046</ele>
        <time>2012-01-07T08:00:09Z</time>
        <course>286.989499074067</course>
        <speed>7.46691161863383</speed>
      </trkpt>
      <trkpt lat="43.79126" lon="6.65094">
        <ele>1046</ele>
        <time>2012-01-07T08:00:12Z</time>
        <course>273.876336956678</course>
        <speed>7.46340436590266</speed>
      </trkpt>
      <trkpt lat="43.79136" lon="6.65244">
        <ele>1047</ele>
        <time>2012-01-07T08:00:28Z</time>
        <course>281.510906440294</course>
        <speed>4.37619900077505</speed>
      </trkpt>
      <trkpt lat="43.79146" lon="6.65294">
        <ele>1048</ele>
        <time>2012-01-07T08:00:38Z</time>
        <course>286.316178079956</course>
        <speed>4.37446978688417</speed>
      </trkpt>
      <trkpt lat="43.79169" lon="6.65374">
        <ele>1052</ele>
        <time>2012-01-07T08:00:54Z</time>
        <course>270.471666843982</course>
        <speed>8.31489755358419</speed>
      </trkpt>
      <trkpt lat="43.7917" lon="6.65496">
        <ele>1052</ele>
        <time>2012-01-07T08:01:05Z</time>
        <course>286.368769141208</course>
        <speed>8.31811637195103</speed>
      </trkpt>
      <trkpt lat="43.79185" lon="6.65548">
        <ele>1052</ele>
        <time>2012-01-07T08:01:11Z</time>
        <course>294.058198619044</course>
        <speed>4.76393851226762</speed>
      </trkpt>
      <trkpt lat="43.7926" lon="6.65719">
        <ele>1058</ele>
        <time>2012-01-07T08:01:44Z</time>
        <course>300.082299987488</course>
        <speed>4.56723691164081</speed>
      </trkpt>
      <trkpt lat="43.79293" lon="6.65777">
        <ele>1060</ele>
        <time>2012-01-07T08:01:57Z</time>
        <course>317.89857180893</course>
        <speed>4.56819917046631</speed>
      </trkpt>
      <trkpt lat="43.79318" lon="6.658">
        <ele>1061</ele>
        <time>2012-01-07T08:02:05Z</time>
        <course>338.550708468757</course>
        <speed>4.56790096734505</speed>
      </trkpt>
      <trkpt lat="43.79343" lon="6.6581">
        <ele>1063</ele>
        <time>2012-01-07T08:02:11Z</time>
        <course>356.486993567491</course>
        <speed>5.61428526757955</speed>
      </trkpt>
      <trkpt lat="43.79359" lon="6.65811">
        <ele>1063</ele>
        <time>2012-01-07T08:02:14Z</time>
        <course>13.2659477059003</course>
        <speed>5.60512680371262</speed>
      </trkpt>
      <trkpt lat="43.79409" lon="6.65799">
        <ele>1064</ele>
        <time>2012-01-07T08:02:24Z</time>
        <course>302.464846236429</course>
        <speed>5.60256921998978</speed>
      </trkpt>
      <trkpt lat="43.79419" lon="6.65815">
        <ele>1065</ele>
        <time>2012-01-07T08:02:27Z</time>
        <course>13.3404107428007</course>
        <speed>5.61068230727927</speed>
      </trkpt>
      <trkpt lat="43.79448" lon="6.65808">
        <ele>1066</ele>
        <time>2012-01-07T08:02:33Z</time>
        <course>356.123766515526</course>
        <speed>8.31564543258696</speed>
      </trkpt>
      <trkpt lat="43.79477" lon="6.6581">
        <ele>1064</ele>
        <time>2012-01-07T08:02:37Z</time>
        <course>321.832861433897</course>
        <speed>8.33222877397504</speed>
      </trkpt>
      <trkpt lat="43.79487" lon="6.65818">
        <ele>1063</ele>
        <time>2012-01-07T08:02:38Z</time>
        <course>294.002345955936</course>
        <speed>8.33703645931867</speed>
      </trkpt>
      <trkpt lat="43.79494" lon="6.65834">
        <ele>1062</ele>
        <time>2012-01-07T08:02:40Z</time>
        <course>273.639008292563</course>
        <speed>8.31059531173519</speed>
      </trkpt>
      <trkpt lat="43.79495" lon="6.6585">
        <ele>1062</ele>
        <time>2012-01-07T08:02:42Z</time>
        <course>251.258763162451</course>
        <speed>8.34786626528655</speed>
      </trkpt>
      <trkpt lat="43.79491" lon="6.65862">
        <ele>1061</ele>
        <time>2012-01-07T08:02:43Z</time>
        <course>225.015316385323</course>
        <speed>8.32137044039217</speed>
      </trkpt>
      <trkpt lat="43.79437" lon="6.65917">
        <ele>1058</ele>
        <time>2012-01-07T08:02:52Z</time>
        <course>225.015316385323</course>
        <speed>8.32137044039217</speed>
      </trkpt>
      <trkpt lat="43.79437" lon="6.65917">
        <ele>1058</ele>
        <time>2012-01-07T08:02:53Z</time>
        <course>227.013272073457</course>
        <speed>8.3163390875938</speed>
      </trkpt>
      <trkpt lat="43.79372" lon="6.65988">
        <ele>1054</ele>
        <time>2012-01-07T08:03:04Z</time>
        <course>237.185460053101</course>
        <speed>8.31487878921212</speed>
      </trkpt>
      <trkpt lat="43.79353" lon="6.66018">
        <ele>1053</ele>
        <time>2012-01-07T08:03:08Z</time>
        <course>244.975929977575</course>
        <speed>8.31933119523829</speed>
      </trkpt>
      <trkpt lat="43.792" lon="6.66352">
        <ele>1044</ele>
        <time>2012-01-07T08:03:46Z</time>
        <course>257.245262246523</course>
        <speed>6.2597997569883</speed>
      </trkpt>
      <trkpt lat="43.79188" lon="6.66406">
        <ele>1044</ele>
        <time>2012-01-07T08:03:53Z</time>
        <course>260.353350274623</course>
        <speed>6.26033455379401</speed>
      </trkpt>
      <trkpt lat="43.79148" lon="6.66646">
        <ele>1048</ele>
        <time>2012-01-07T08:04:25Z</time>
        <course>268.970141687889</course>
        <speed>7.52842226091565</speed>
      </trkpt>
      <trkpt lat="43.79146" lon="6.6676">
        <ele>1048</ele>
        <time>2012-01-07T08:04:37Z</time>
        <course>275.197656844833</course>
        <speed>7.5315713115869</speed>
      </trkpt>
      <trkpt lat="43.79157" lon="6.66883">
        <ele>1049</ele>
        <time>2012-01-07T08:04:50Z</time>
        <course>279.488939049822</course>
        <speed>6.4537889280098</speed>
      </trkpt>
      <trkpt lat="43.79168" lon="6.6695">
        <ele>1049</ele>
        <time>2012-01-07T08:04:59Z</time>
        <course>283.999091228576</course>
        <speed>6.45485172573438</speed>
      </trkpt>
      <trkpt lat="43.79192" lon="6.67048">
        <ele>1051</ele>
        <time>2012-01-07T08:05:12Z</time>
        <course>278.101086529975</course>
        <speed>6.93982439738012</speed>
      </trkpt>
      <trkpt lat="43.79261" lon="6.6754">
        <ele>1055</ele>
        <time>2012-01-07T08:06:10Z</time>
        <course>286.240657681527</course>
        <speed>6.41631078973314</speed>
      </trkpt>
      <trkpt lat="43.79328" lon="6.67774">
        <ele>1058</ele>
        <time>2012-01-07T08:06:41Z</time>
        <course>290.889585669933</course>
        <speed>5.35902385232375</speed>
      </trkpt>
      <trkpt lat="43.79373" lon="6.67894">
        <ele>1061</ele>
        <time>2012-01-07T08:07:01Z</time>
        <course>281.940062383954</course>
        <speed>6.37599489596647</speed>
      </trkpt>
      <trkpt lat="43.79389" lon="6.67971">
        <ele>1061</ele>
        <time>2012-01-07T08:07:11Z</time>
        <course>270.698079353632</course>
        <speed>6.37214062438104</speed>
      </trkpt>
      <trkpt lat="43.79392" lon="6.68217">
        <ele>1065</ele>
        <time>2012-01-07T08:07:42Z</time>
        <course>268.333976196301</course>
        <speed>7.28994981100196</speed>
      </trkpt>
      <trkpt lat="43.79387" lon="6.68393">
        <ele>1066</ele>
        <time>2012-01-07T08:08:02Z</time>
        <course>263.878375524856</course>
        <speed>7.52009090764432</speed>
      </trkpt>
      <trkpt lat="43.79377" lon="6.68488">
        <ele>1066</ele>
        <time>2012-01-07T08:08:12Z</time>
        <course>268.733829985385</course>
        <speed>7.52139262981752</speed>
      </trkpt>
      <trkpt lat="43.79374" lon="6.68627">
        <ele>1067</ele>
        <time>2012-01-07T08:08:27Z</time>
        <course>262.816466091902</course>
        <speed>8.31807671451904</speed>
      </trkpt>
      <trkpt lat="43.79362" lon="6.68724">
        <ele>1065</ele>
        <time>2012-01-07T08:08:36Z</time>
        <course>253.960410155555</course>
        <speed>8.31736137836082</speed>
      </trkpt>
      <trkpt lat="43.79327" lon="6.68848">
        <ele>1063</ele>
        <time>2012-01-07T08:08:49Z</time>
        <course>262.74406864904</course>
        <speed>7.75284248675049</speed>
      </trkpt>
      <trkpt lat="43.7932" lon="6.68904">
        <ele>1063</ele>
        <time>2012-01-07T08:08:55Z</time>
        <course>269.008180133877</course>
        <speed>7.74756317661767</speed>
      </trkpt>
      <trkpt lat="43.79319" lon="6.68963">
        <ele>1063</ele>
        <time>2012-01-07T08:09:01Z</time>
        <course>278.449840320521</course>
        <speed>7.74858398496874</speed>
      </trkpt>
      <trkpt lat="43.79351" lon="6.69182">
        <ele>1064</ele>
        <time>2012-01-07T08:09:24Z</time>
        <course>289.084385958709</course>
        <speed>4.75148966584755</speed>
      </trkpt>
      <trkpt lat="43.79402" lon="6.69332">
        <ele>1069</ele>
        <time>2012-01-07T08:09:52Z</time>
        <course>278.3680956169</course>
        <speed>7.26165981211246</speed>
      </trkpt>
      <trkpt lat="43.79414" lon="6.69415">
        <ele>1069</ele>
        <time>2012-01-07T08:10:02Z</time>
        <course>271.335899808477</course>
        <speed>7.26513511815732</speed>
      </trkpt>
      <trkpt lat="43.79416" lon="6.69502">
        <ele>1070</ele>
        <time>2012-01-07T08:10:11Z</time>
        <course>277.810352530019</course>
        <speed>6.76176705832543</speed>
      </trkpt>
      <trkpt lat="43.79428" lon="6.69591">
        <ele>1070</ele>
        <time>2012-01-07T08:10:22Z</time>
        <course>274.648880763077</course>
        <speed>6.76111923991834</speed>
      </trkpt>
      <trkpt lat="43.79438" lon="6.69716">
        <ele>1072</ele>
        <time>2012-01-07T08:10:37Z</time>
        <course>268.547813858381</course>
        <speed>8.32140551824737</speed>
      </trkpt>
      <trkpt lat="43.79435" lon="6.69837">
        <ele>1072</ele>
        <time>2012-01-07T08:10:49Z</time>
        <course>274.433094574627</course>
        <speed>8.31941687268933</speed>
      </trkpt>
      <trkpt lat="43.79444" lon="6.69955">
        <ele>1072</ele>
        <time>2012-01-07T08:11:00Z</time>
        <course>269.990209290518</course>
        <speed>8.31633490772137</speed>
      </trkpt>
      <trkpt lat="43.79444" lon="6.70138">
        <ele>1072</ele>
        <time>2012-01-07T08:11:18Z</time>
        <course>276.218108971913</course>
        <speed>6.77246420365035</speed>
      </trkpt>
      <trkpt lat="43.79456" lon="6.7025">
        <ele>1073</ele>
        <time>2012-01-07T08:11:31Z</time>
        <course>283.170789851049</course>
        <speed>6.77252826146963</speed>
      </trkpt>
      <trkpt lat="43.79479" lon="6.7035">
        <ele>1074</ele>
        <time>2012-01-07T08:11:43Z</time>
        <course>276.610006708108</course>
        <speed>8.32028593285186</speed>
      </trkpt>
      <trkpt lat="43.79488" lon="6.70429">
        <ele>1074</ele>
        <time>2012-01-07T08:11:51Z</time>
        <course>271.506148803002</course>
        <speed>8.31773633505237</speed>
      </trkpt>
      <trkpt lat="43.79492" lon="6.70583">
        <ele>1074</ele>
        <time>2012-01-07T08:12:06Z</time>
        <course>264.183506426732</course>
        <speed>8.3193427621287</speed>
      </trkpt>
      <trkpt lat="43.79483" lon="6.70673">
        <ele>1073</ele>
        <time>2012-01-07T08:12:15Z</time>
        <course>269.399711492335</course>
        <speed>8.31879554416186</speed>
      </trkpt>
      <trkpt lat="43.79482" lon="6.70771">
        <ele>1072</ele>
        <time>2012-01-07T08:12:24Z</time>
        <course>273.55797901691</course>
        <speed>8.31556132449248</speed>
      </trkpt>
      <trkpt lat="43.79491" lon="6.70918">
        <ele>1072</ele>
        <time>2012-01-07T08:12:38Z</time>
        <course>284.27393141398</course>
        <speed>5.81392434719481</speed>
      </trkpt>
      <trkpt lat="43.79501" lon="6.70958">
        <ele>1072</ele>
        <time>2012-01-07T08:12:44Z</time>
        <course>295.687150839342</course>
        <speed>5.8172395939066</speed>
      </trkpt>
      <trkpt lat="43.79553" lon="6.71068">
        <ele>1075</ele>
        <time>2012-01-07T08:13:02Z</time>
        <course>281.377505400205</course>
        <speed>7.39273015731467</speed>
      </trkpt>
      <trkpt lat="43.79591" lon="6.7126">
        <ele>1076</ele>
        <time>2012-01-07T08:13:24Z</time>
        <course>284.034699327606</course>
        <speed>6.93343914627878</speed>
      </trkpt>
      <trkpt lat="43.7962" lon="6.71378">
        <ele>1077</ele>
        <time>2012-01-07T08:13:38Z</time>
        <course>275.80703232006</course>
        <speed>8.31915767347498</speed>
      </trkpt>
      <trkpt lat="43.79626" lon="6.71438">
        <ele>1077</ele>
        <time>2012-01-07T08:13:44Z</time>
        <course>271.138274024176</course>
        <speed>8.31743330329359</speed>
      </trkpt>
      <trkpt lat="43.79632" lon="6.71741">
        <ele>1077</ele>
        <time>2012-01-07T08:14:14Z</time>
        <course>281.854651070572</course>
        <speed>6.1611512259625</speed>
      </trkpt>
      <trkpt lat="43.79645" lon="6.71804">
        <ele>1077</ele>
        <time>2012-01-07T08:14:22Z</time>
        <course>286.035285651025</course>
        <speed>6.16527402195529</speed>
      </trkpt>
      <trkpt lat="43.79684" lon="6.71942">
        <ele>1080</ele>
        <time>2012-01-07T08:14:41Z</time>
        <course>273.851766243868</course>
        <speed>6.09031595954548</speed>
      </trkpt>
      <trkpt lat="43.79702" lon="6.72213">
        <ele>1084</ele>
        <time>2012-01-07T08:15:17Z</time>
        <course>280.048740941511</course>
        <speed>8.3195336363129</speed>
      </trkpt>
      <trkpt lat="43.79736" lon="6.72408">
        <ele>1084</ele>
        <time>2012-01-07T08:15:37Z</time>
        <course>275.760568136036</course>
        <speed>8.32031151324269</speed>
      </trkpt>
      <trkpt lat="43.7975" lon="6.72549">
        <ele>1083</ele>
        <time>2012-01-07T08:15:50Z</time>
        <course>281.823920000479</course>
        <speed>5.92013199723902</speed>
      </trkpt>
      <trkpt lat="43.79771" lon="6.72651">
        <ele>1084</ele>
        <time>2012-01-07T08:16:05Z</time>
        <course>272.236516486468</course>
        <speed>5.92142667571639</speed>
      </trkpt>
      <trkpt lat="43.79774" lon="6.72729">
        <ele>1086</ele>
        <time>2012-01-07T08:16:15Z</time>
        <course>268.669928236818</course>
        <speed>7.47640159763502</speed>
      </trkpt>
      <trkpt lat="43.79769" lon="6.7295">
        <ele>1087</ele>
        <time>2012-01-07T08:16:39Z</time>
        <course>265.249515315373</course>
        <speed>8.3202160637844</speed>
      </trkpt>
      <trkpt lat="43.79754" lon="6.73134">
        <ele>1086</ele>
        <time>2012-01-07T08:16:57Z</time>
        <course>258.55779069549</course>
        <speed>8.31919400048784</speed>
      </trkpt>
      <trkpt lat="43.79721" lon="6.733">
        <ele>1084</ele>
        <time>2012-01-07T08:17:13Z</time>
        <course>261.90101581671</course>
        <speed>8.32172343033077</speed>
      </trkpt>
      <trkpt lat="43.79708" lon="6.73393">
        <ele>1084</ele>
        <time>2012-01-07T08:17:22Z</time>
        <course>270.866439437683</course>
        <speed>8.32034780610722</speed>
      </trkpt>
      <trkpt lat="43.79709" lon="6.7346">
        <ele>1084</ele>
        <time>2012-01-07T08:17:29Z</time>
        <course>279.362466421355</course>
        <speed>7.14546537235344</speed>
      </trkpt>
      <trkpt lat="43.79727" lon="6.73571">
        <ele>1084</ele>
        <time>2012-01-07T08:17:42Z</time>
        <course>268.464395555792</course>
        <speed>7.14248327750482</speed>
      </trkpt>
      <trkpt lat="43.79726" lon="6.73609">
        <ele>1085</ele>
        <time>2012-01-07T08:17:46Z</time>
        <course>264.08370343655</course>
        <speed>8.32074082775979</speed>
      </trkpt>
      <trkpt lat="43.79708" lon="6.73786">
        <ele>1082</ele>
        <time>2012-01-07T08:18:03Z</time>
        <course>259.93272424139</course>
        <speed>8.31916467761588</speed>
      </trkpt>
      <trkpt lat="43.79693" lon="6.73872">
        <ele>1081</ele>
        <time>2012-01-07T08:18:12Z</time>
        <course>254.168918167003</course>
        <speed>8.31939415704455</speed>
      </trkpt>
      <trkpt lat="43.79622" lon="6.74127">
        <ele>1079</ele>
        <time>2012-01-07T08:18:38Z</time>
        <course>257.800381092479</course>
        <speed>8.31861116127057</speed>
      </trkpt>
      <trkpt lat="43.79584" lon="6.74306">
        <ele>1078</ele>
        <time>2012-01-07T08:18:56Z</time>
        <course>263.882738034426</course>
        <speed>7.40415576742052</speed>
      </trkpt>
      <trkpt lat="43.79578" lon="6.74363">
        <ele>1078</ele>
        <time>2012-01-07T08:19:02Z</time>
        <course>267.96863140928</course>
        <speed>7.40285766260757</speed>
      </trkpt>
      <trkpt lat="43.79573" lon="6.74507">
        <ele>1079</ele>
        <time>2012-01-07T08:19:18Z</time>
        <course>265.245856134863</course>
        <speed>6.0943535707736</speed>
      </trkpt>
      <trkpt lat="43.79565" lon="6.74605">
        <ele>1080</ele>
        <time>2012-01-07T08:19:31Z</time>
        <course>262.167589650807</course>
        <speed>6.0872014526995</speed>
      </trkpt>
      <trkpt lat="43.7956" lon="6.74642">
        <ele>1081</ele>
        <time>2012-01-07T08:19:36Z</time>
        <course>256.172725209514</course>
        <speed>7.12726520965117</speed>
      </trkpt>
      <trkpt lat="43.79538" lon="6.74733">
        <ele>1081</ele>
        <time>2012-01-07T08:19:47Z</time>
        <course>272.196526014111</course>
        <speed>7.13038369065534</speed>
      </trkpt>
      <trkpt lat="43.7954" lon="6.74786">
        <ele>1082</ele>
        <time>2012-01-07T08:19:53Z</time>
        <course>279.12381176075</course>
        <speed>5.08139424765458</speed>
      </trkpt>
      <trkpt lat="43.79555" lon="6.74881">
        <ele>1084</ele>
        <time>2012-01-07T08:20:08Z</time>
        <course>268.210371976298</course>
        <speed>5.08233123837648</speed>
      </trkpt>
      <trkpt lat="43.79552" lon="6.74979">
        <ele>1087</ele>
        <time>2012-01-07T08:20:23Z</time>
        <course>261.724167338047</course>
        <speed>3.93095474389086</speed>
      </trkpt>
      <trkpt lat="43.79542" lon="6.75049">
        <ele>1090</ele>
        <time>2012-01-07T08:20:38Z</time>
        <course>267.223214782147</course>
        <speed>3.93022745437064</speed>
      </trkpt>
      <trkpt lat="43.7954" lon="6.75091">
        <ele>1092</ele>
        <time>2012-01-07T08:20:47Z</time>
        <course>273.225496633741</course>
        <speed>3.92997103978556</speed>
      </trkpt>
      <trkpt lat="43.79551" lon="6.75289">
        <ele>1101</ele>
        <time>2012-01-07T08:21:27Z</time>
        <course>263.035925266615</course>
        <speed>8.33082945128048</speed>
      </trkpt>
      <trkpt lat="43.79548" lon="6.75314">
        <ele>1100</ele>
        <time>2012-01-07T08:21:30Z</time>
        <course>253.656966360659</course>
        <speed>8.31635466694096</speed>
      </trkpt>
      <trkpt lat="43.79512" lon="6.75439">
        <ele>1097</ele>
        <time>2012-01-07T08:21:43Z</time>
        <course>257.124460507378</course>
        <speed>7.22090064673562</speed>
      </trkpt>
      <trkpt lat="43.7949" lon="6.75537">
        <ele>1097</ele>
        <time>2012-01-07T08:21:54Z</time>
        <course>268.085424920497</course>
        <speed>7.22387157796791</speed>
      </trkpt>
      <trkpt lat="43.79488" lon="6.75598">
        <ele>1098</ele>
        <time>2012-01-07T08:22:01Z</time>
        <course>279.055552661426</course>
        <speed>3.39246484734888</speed>
      </trkpt>
      <trkpt lat="43.79509" lon="6.75732">
        <ele>1106</ele>
        <time>2012-01-07T08:22:33Z</time>
        <course>271.61749938315</course>
        <speed>8.32751072474865</speed>
      </trkpt>
      <trkpt lat="43.7951" lon="6.75768">
        <ele>1105</ele>
        <time>2012-01-07T08:22:37Z</time>
        <course>265.522002090593</course>
        <speed>8.32234803108602</speed>
      </trkpt>
      <trkpt lat="43.79508" lon="6.75794">
        <ele>1104</ele>
        <time>2012-01-07T08:22:39Z</time>
        <course>255.516273265287</course>
        <speed>8.31581014808417</speed>
      </trkpt>
      <trkpt lat="43.79491" lon="6.75861">
        <ele>1103</ele>
        <time>2012-01-07T08:22:46Z</time>
        <course>262.615999822143</course>
        <speed>8.31083162866554</speed>
      </trkpt>
      <trkpt lat="43.79484" lon="6.75916">
        <ele>1102</ele>
        <time>2012-01-07T08:22:51Z</time>
        <course>273.010531410809</course>
        <speed>8.31380564187788</speed>
      </trkpt>
      <trkpt lat="43.79487" lon="6.75974">
        <ele>1101</ele>
        <time>2012-01-07T08:22:57Z</time>
        <course>279.008485557698</course>
        <speed>8.31918463398705</speed>
      </trkpt>
      <trkpt lat="43.79526" lon="6.76224">
        <ele>1098</ele>
        <time>2012-01-07T08:23:22Z</time>
        <course>270.937140723547</course>
        <speed>8.31799193530306</speed>
      </trkpt>
      <trkpt lat="43.79527" lon="6.76286">
        <ele>1096</ele>
        <time>2012-01-07T08:23:28Z</time>
        <course>260.209579528248</course>
        <speed>8.32364302531622</speed>
      </trkpt>
      <trkpt lat="43.79517" lon="6.76345">
        <ele>1095</ele>
        <time>2012-01-07T08:23:34Z</time>
        <course>255.87607030757</course>
        <speed>8.31625653373452</speed>
      </trkpt>
      <trkpt lat="43.79475" lon="6.76515">
        <ele>1091</ele>
        <time>2012-01-07T08:23:51Z</time>
        <course>268.37662631591</course>
        <speed>7.69550828877018</speed>
      </trkpt>
      <trkpt lat="43.79473" lon="6.76587">
        <ele>1091</ele>
        <time>2012-01-07T08:23:58Z</time>
        <course>261.643008061183</course>
        <speed>7.6921504049407</speed>
      </trkpt>
      <trkpt lat="43.7944" lon="6.76816">
        <ele>1092</ele>
        <time>2012-01-07T08:24:23Z</time>
        <course>268.009164044037</course>
        <speed>7.11506116729552</speed>
      </trkpt>
      <trkpt lat="43.79435" lon="6.76963">
        <ele>1093</ele>
        <time>2012-01-07T08:24:39Z</time>
        <course>264.677702856284</course>
        <speed>6.84907326047715</speed>
      </trkpt>
      <trkpt lat="43.79414" lon="6.77193">
        <ele>1095</ele>
        <time>2012-01-07T08:25:06Z</time>
        <course>274.992682677103</course>
        <speed>8.31806801808533</speed>
      </trkpt>
      <trkpt lat="43.79425" lon="6.77321">
        <ele>1095</ele>
        <time>2012-01-07T08:25:19Z</time>
        <course>282.544586364703</course>
        <speed>6.41007911082581</speed>
      </trkpt>
      <trkpt lat="43.7946" lon="6.77481">
        <ele>1097</ele>
        <time>2012-01-07T08:25:40Z</time>
        <course>279.705724916479</course>
        <speed>3.9350032348365</speed>
      </trkpt>
      <trkpt lat="43.79479" lon="6.77594">
        <ele>1102</ele>
        <time>2012-01-07T08:26:03Z</time>
        <course>299.384485005541</course>
        <speed>3.93575664698137</speed>
      </trkpt>
      <trkpt lat="43.79536" lon="6.77697">
        <ele>1108</ele>
        <time>2012-01-07T08:26:30Z</time>
        <course>290.986211472114</course>
        <speed>4.36880637972303</speed>
      </trkpt>
      <trkpt lat="43.79582" lon="6.77819">
        <ele>1113</ele>
        <time>2012-01-07T08:26:55Z</time>
        <course>283.644212527389</course>
        <speed>6.78642192062042</speed>
      </trkpt>
      <trkpt lat="43.79657" lon="6.78133">
        <ele>1116</ele>
        <time>2012-01-07T08:27:34Z</time>
        <course>282.549172391933</course>
        <speed>6.95123990025496</speed>
      </trkpt>
      <trkpt lat="43.7971" lon="6.78375">
        <ele>1118</ele>
        <time>2012-01-07T08:28:03Z</time>
        <course>275.747728942202</course>
        <speed>6.08818732793755</speed>
      </trkpt>
      <trkpt lat="43.79777" lon="6.79048">
        <ele>1128</ele>
        <time>2012-01-07T08:29:33Z</time>
        <course>271.471095522222</course>
        <speed>7.45892875882633</speed>
      </trkpt>
      <trkpt lat="43.79779" lon="6.79127">
        <ele>1128</ele>
        <time>2012-01-07T08:29:41Z</time>
        <course>267.851006493365</course>
        <speed>7.45530396020485</speed>
      </trkpt>
      <trkpt lat="43.79774" lon="6.79263">
        <ele>1129</ele>
        <time>2012-01-07T08:29:56Z</time>
        <course>275.046627973508</course>
        <speed>5.69455632340019</speed>
      </trkpt>
      <trkpt lat="43.79788" lon="6.79424">
        <ele>1132</ele>
        <time>2012-01-07T08:30:19Z</time>
        <course>270.757371824788</course>
        <speed>8.31911906689048</speed>
      </trkpt>
      <trkpt lat="43.79793" lon="6.79799">
        <ele>1130</ele>
        <time>2012-01-07T08:30:55Z</time>
        <course>273.547826885648</course>
        <speed>6.99227982479677</speed>
      </trkpt>
      <trkpt lat="43.79801" lon="6.7993">
        <ele>1131</ele>
        <time>2012-01-07T08:31:10Z</time>
        <course>278.073900376752</course>
        <speed>8.31396719731512</speed>
      </trkpt>
      <trkpt lat="43.79813" lon="6.80016">
        <ele>1131</ele>
        <time>2012-01-07T08:31:19Z</time>
        <course>283.931356041856</course>
        <speed>8.32387254080943</speed>
      </trkpt>
      <trkpt lat="43.79823" lon="6.80057">
        <ele>1131</ele>
        <time>2012-01-07T08:31:23Z</time>
        <course>299.194559279288</course>
        <speed>5.97958858501326</speed>
      </trkpt>
      <trkpt lat="43.79873" lon="6.80148">
        <ele>1132</ele>
        <time>2012-01-07T08:31:38Z</time>
        <course>278.992499796651</course>
        <speed>5.97876143323002</speed>
      </trkpt>
      <trkpt lat="43.79904" lon="6.80347">
        <ele>1136</ele>
        <time>2012-01-07T08:32:05Z</time>
        <course>291.332575295018</course>
        <speed>5.39786156250847</speed>
      </trkpt>
      <trkpt lat="43.79982" lon="6.8055">
        <ele>1141</ele>
        <time>2012-01-07T08:32:40Z</time>
        <course>282.836475405093</course>
        <speed>8.31205122075091</speed>
      </trkpt>
      <trkpt lat="43.79995" lon="6.80608">
        <ele>1140</ele>
        <time>2012-01-07T08:32:45Z</time>
        <course>272.837572271917</course>
        <speed>8.3226908917005</speed>
      </trkpt>
      <trkpt lat="43.79997" lon="6.80649">
        <ele>1139</ele>
        <time>2012-01-07T08:32:49Z</time>
        <course>265.154562640716</course>
        <speed>8.32795112375117</speed>
      </trkpt>
      <trkpt lat="43.79994" lon="6.80685">
        <ele>1139</ele>
        <time>2012-01-07T08:32:53Z</time>
        <course>262.894672309718</course>
        <speed>8.31584556585065</speed>
      </trkpt>
      <trkpt lat="43.79976" lon="6.80832">
        <ele>1133</ele>
        <time>2012-01-07T08:33:07Z</time>
        <course>270.57915580568</course>
        <speed>8.31814552174609</speed>
      </trkpt>
      <trkpt lat="43.79982" lon="6.81406">
        <ele>1129</ele>
        <time>2012-01-07T08:34:03Z</time>
        <course>272.499500589042</course>
        <speed>7.4645729161558</speed>
      </trkpt>
      <trkpt lat="43.79986" lon="6.81499">
        <ele>1129</ele>
        <time>2012-01-07T08:34:13Z</time>
        <course>278.526014580473</course>
        <speed>7.46412111621319</speed>
      </trkpt>
      <trkpt lat="43.80004" lon="6.81621">
        <ele>1130</ele>
        <time>2012-01-07T08:34:26Z</time>
        <course>282.893291120193</course>
        <speed>6.38751262675314</speed>
      </trkpt>
      <trkpt lat="43.80029" lon="6.81732">
        <ele>1131</ele>
        <time>2012-01-07T08:34:41Z</time>
        <course>281.060458975518</course>
        <speed>6.38738360544003</speed>
      </trkpt>
      <trkpt lat="43.8013" lon="6.82256">
        <ele>1138</ele>
        <time>2012-01-07T08:35:49Z</time>
        <course>280.189357343133</course>
        <speed>6.0647986887357</speed>
      </trkpt>
      <trkpt lat="43.80153" lon="6.82386">
        <ele>1140</ele>
        <time>2012-01-07T08:36:06Z</time>
        <course>273.487780340438</course>
        <speed>6.91379511115202</speed>
      </trkpt>
      <trkpt lat="43.80156" lon="6.82436">
        <ele>1140</ele>
        <time>2012-01-07T08:36:12Z</time>
        <course>261.495808680894</course>
        <speed>6.90527418091034</speed>
      </trkpt>
      <trkpt lat="43.80151" lon="6.8247">
        <ele>1140</ele>
        <time>2012-01-07T08:36:16Z</time>
        <course>255.186612995567</course>
        <speed>6.91178934247157</speed>
      </trkpt>
      <trkpt lat="43.80112" lon="6.8262">
        <ele>1142</ele>
        <time>2012-01-07T08:36:35Z</time>
        <course>250.004755525045</course>
        <speed>4.59158340920968</speed>
      </trkpt>
      <trkpt lat="43.80073" lon="6.82729">
        <ele>1145</ele>
        <time>2012-01-07T08:36:56Z</time>
        <course>261.10515982546</course>
        <speed>4.59216059255056</speed>
      </trkpt>
      <trkpt lat="43.80059" lon="6.8282">
        <ele>1149</ele>
        <time>2012-01-07T08:37:12Z</time>
        <course>256.70425582406</course>
        <speed>4.68866284034268</speed>
      </trkpt>
      <trkpt lat="43.80036" lon="6.82919">
        <ele>1152</ele>
        <time>2012-01-07T08:37:30Z</time>
        <course>238.998583232894</course>
        <speed>4.69207632275865</speed>
      </trkpt>
      <trkpt lat="43.8001" lon="6.82963">
        <ele>1154</ele>
        <time>2012-01-07T08:37:40Z</time>
        <course>229.944752191301</course>
        <speed>4.14966199266684</speed>
      </trkpt>
      <trkpt lat="43.79948" lon="6.83038">
        <ele>1158</ele>
        <time>2012-01-07T08:38:02Z</time>
        <course>237.672705905881</course>
        <speed>4.1508022815643</speed>
      </trkpt>
      <trkpt lat="43.7992" lon="6.83083">
        <ele>1161</ele>
        <time>2012-01-07T08:38:13Z</time>
        <course>250.562452790453</course>
        <speed>5.55464069038677</speed>
      </trkpt>
      <trkpt lat="43.79903" lon="6.83132">
        <ele>1162</ele>
        <time>2012-01-07T08:38:21Z</time>
        <course>263.822429367503</course>
        <speed>5.55434684162558</speed>
      </trkpt>
      <trkpt lat="43.79898" lon="6.83179">
        <ele>1163</ele>
        <time>2012-01-07T08:38:28Z</time>
        <course>279.024387045864</course>
        <speed>5.55561583880624</speed>
      </trkpt>
      <trkpt lat="43.79913" lon="6.83275">
        <ele>1165</ele>
        <time>2012-01-07T08:38:42Z</time>
        <course>284.611340462485</course>
        <speed>8.31938174996411</speed>
      </trkpt>
      <trkpt lat="43.79933" lon="6.83353">
        <ele>1164</ele>
        <time>2012-01-07T08:38:50Z</time>
        <course>290.694411262185</course>
        <speed>8.31835055501836</speed>
      </trkpt>
      <trkpt lat="43.79988" lon="6.83501">
        <ele>1164</ele>
        <time>2012-01-07T08:39:06Z</time>
        <course>287.741673949946</course>
        <speed>8.31818592543429</speed>
      </trkpt>
      <trkpt lat="43.80091" lon="6.83828">
        <ele>1163</ele>
        <time>2012-01-07T08:39:41Z</time>
        <course>294.943497952896</course>
        <speed>4.8572352538947</speed>
      </trkpt>
      <trkpt lat="43.80145" lon="6.83946">
        <ele>1167</ele>
        <time>2012-01-07T08:40:04Z</time>
        <course>289.951712504149</course>
        <speed>4.84308568489517</speed>
      </trkpt>
      <trkpt lat="43.8016" lon="6.83988">
        <ele>1168</ele>
        <time>2012-01-07T08:40:11Z</time>
        <course>288.71623917839</course>
        <speed>4.84608140186008</speed>
      </trkpt>
      <trkpt lat="43.80176" lon="6.84036">
        <ele>1169</ele>
        <time>2012-01-07T08:40:20Z</time>
        <course>283.854087422836</course>
        <speed>4.84444290099809</speed>
      </trkpt>
      <trkpt lat="43.80201" lon="6.84139">
        <ele>1173</ele>
        <time>2012-01-07T08:40:38Z</time>
        <course>279.937313038687</course>
        <speed>7.47256263795862</speed>
      </trkpt>
      <trkpt lat="43.80211" lon="6.84197">
        <ele>1173</ele>
        <time>2012-01-07T08:40:45Z</time>
        <course>275.371293671344</course>
        <speed>7.47159525084962</speed>
      </trkpt>
      <trkpt lat="43.80246" lon="6.84574">
        <ele>1175</ele>
        <time>2012-01-07T08:41:25Z</time>
        <course>285.761066920635</course>
        <speed>6.75459292072673</speed>
      </trkpt>
      <trkpt lat="43.80271" lon="6.84664">
        <ele>1175</ele>
        <time>2012-01-07T08:41:37Z</time>
        <course>289.468529954423</course>
        <speed>6.75718721320317</speed>
      </trkpt>
      <trkpt lat="43.80342" lon="6.84868">
        <ele>1178</ele>
        <time>2012-01-07T08:42:04Z</time>
        <course>288.389788090527</course>
        <speed>6.7991858341366</speed>
      </trkpt>
      <trkpt lat="43.80475" lon="6.85274">
        <ele>1182</ele>
        <time>2012-01-07T08:42:56Z</time>
        <course>291.642656598033</course>
        <speed>8.31351676195305</speed>
      </trkpt>
      <trkpt lat="43.805" lon="6.85338">
        <ele>1181</ele>
        <time>2012-01-07T08:43:03Z</time>
        <course>294.660069659303</course>
        <speed>8.31770416386446</speed>
      </trkpt>
      <trkpt lat="43.80647" lon="6.85663">
        <ele>1181</ele>
        <time>2012-01-07T08:43:40Z</time>
        <course>298.899606807295</course>
        <speed>8.31900219214841</speed>
      </trkpt>
      <trkpt lat="43.80808" lon="6.85959">
        <ele>1176</ele>
        <time>2012-01-07T08:44:16Z</time>
        <course>284.806058068049</course>
        <speed>8.31730774856017</speed>
      </trkpt>
      <trkpt lat="43.80833" lon="6.86055">
        <ele>1174</ele>
        <time>2012-01-07T08:44:26Z</time>
        <course>290.115162949396</course>
        <speed>8.32209822300679</speed>
      </trkpt>
      <trkpt lat="43.80868" lon="6.86152">
        <ele>1173</ele>
        <time>2012-01-07T08:44:36Z</time>
        <course>282.595286627614</course>
        <speed>8.31975605962765</speed>
      </trkpt>
      <trkpt lat="43.80905" lon="6.8632">
        <ele>1169</ele>
        <time>2012-01-07T08:44:53Z</time>
        <course>276.034180454411</course>
        <speed>8.30983628519377</speed>
      </trkpt>
      <trkpt lat="43.8091" lon="6.86368">
        <ele>1167</ele>
        <time>2012-01-07T08:44:58Z</time>
        <course>266.977373307352</course>
        <speed>8.32068874541062</speed>
      </trkpt>
      <trkpt lat="43.80906" lon="6.86445">
        <ele>1165</ele>
        <time>2012-01-07T08:45:05Z</time>
        <course>272.072309304613</course>
        <speed>8.31589180556713</speed>
      </trkpt>
      <trkpt lat="43.80909" lon="6.86529">
        <ele>1162</ele>
        <time>2012-01-07T08:45:13Z</time>
        <course>257.477693666699</course>
        <speed>8.32725361362678</speed>
      </trkpt>
      <trkpt lat="43.80902" lon="6.86561">
        <ele>1162</ele>
        <time>2012-01-07T08:45:17Z</time>
        <course>243.709482295483</course>
        <speed>8.32154051226549</speed>
      </trkpt>
      <trkpt lat="43.80848" lon="6.86672">
        <ele>1159</ele>
        <time>2012-01-07T08:45:30Z</time>
        <course>252.300540088672</course>
        <speed>8.3187178518489</speed>
      </trkpt>
      <trkpt lat="43.80837" lon="6.86707">
        <ele>1158</ele>
        <time>2012-01-07T08:45:33Z</time>
        <course>261.506094666571</course>
        <speed>8.30603259181215</speed>
      </trkpt>
      <trkpt lat="43.80832" lon="6.86741">
        <ele>1158</ele>
        <time>2012-01-07T08:45:37Z</time>
        <course>275.466114358795</course>
        <speed>8.31478591567984</speed>
      </trkpt>
      <trkpt lat="43.80842" lon="6.86847">
        <ele>1157</ele>
        <time>2012-01-07T08:45:47Z</time>
        <course>267.01752529947</course>
        <speed>7.41211335817638</speed>
      </trkpt>
      <trkpt lat="43.8084" lon="6.86886">
        <ele>1157</ele>
        <time>2012-01-07T08:45:51Z</time>
        <course>263.440473026228</course>
        <speed>7.40462488433901</speed>
      </trkpt>
      <trkpt lat="43.80834" lon="6.86939">
        <ele>1157</ele>
        <time>2012-01-07T08:45:57Z</time>
        <course>258.515909878696</course>
        <speed>7.40459467738204</speed>
      </trkpt>
      <trkpt lat="43.80813" lon="6.87044">
        <ele>1158</ele>
        <time>2012-01-07T08:46:09Z</time>
        <course>263.616311587125</course>
        <speed>6.12748569923621</speed>
      </trkpt>
      <trkpt lat="43.80801" lon="6.87153">
        <ele>1159</ele>
        <time>2012-01-07T08:46:23Z</time>
        <course>272.003846718178</course>
        <speed>6.12683984417297</speed>
      </trkpt>
      <trkpt lat="43.80802" lon="6.87182">
        <ele>1160</ele>
        <time>2012-01-07T08:46:27Z</time>
        <course>279.714460502171</course>
        <speed>8.31539172163956</speed>
      </trkpt>
      <trkpt lat="43.80816" lon="6.87265">
        <ele>1158</ele>
        <time>2012-01-07T08:46:35Z</time>
        <course>273.330974118469</course>
        <speed>8.31693779268074</speed>
      </trkpt>
      <trkpt lat="43.80826" lon="6.87439">
        <ele>1154</ele>
        <time>2012-01-07T08:46:52Z</time>
        <course>282.059801517463</course>
        <speed>8.31685741818368</speed>
      </trkpt>
      <trkpt lat="43.8085" lon="6.87553">
        <ele>1149</ele>
        <time>2012-01-07T08:47:04Z</time>
        <course>289.612587458247</course>
        <speed>8.31598043837908</speed>
      </trkpt>
      <trkpt lat="43.80883" lon="6.87647">
        <ele>1146</ele>
        <time>2012-01-07T08:47:14Z</time>
        <course>278.249103612342</course>
        <speed>8.31988851941508</speed>
      </trkpt>
      <trkpt lat="43.80892" lon="6.8771">
        <ele>1146</ele>
        <time>2012-01-07T08:47:20Z</time>
        <course>272.055735343572</course>
        <speed>8.31795419911157</speed>
      </trkpt>
      <trkpt lat="43.80907" lon="6.8813">
        <ele>1146</ele>
        <time>2012-01-07T08:48:00Z</time>
        <course>263.516590655124</course>
        <speed>4.33895660840978</speed>
      </trkpt>
      <trkpt lat="43.80889" lon="6.88291">
        <ele>1152</ele>
        <time>2012-01-07T08:48:30Z</time>
        <course>213.291137605289</course>
        <speed>6.49005946347882</speed>
      </trkpt>
      <trkpt lat="43.8088" lon="6.88297">
        <ele>1152</ele>
        <time>2012-01-07T08:48:32Z</time>
        <course>278.87670308737</course>
        <speed>6.49937909655841</speed>
      </trkpt>
      <trkpt lat="43.80882" lon="6.8831">
        <ele>1152</ele>
        <time>2012-01-07T08:48:34Z</time>
        <course>348.855446101861</course>
        <speed>6.52740836768888</speed>
      </trkpt>
      <trkpt lat="43.80887" lon="6.88311">
        <ele>1152</ele>
        <time>2012-01-07T08:48:35Z</time>
        <course>261.454238022449</course>
        <speed>6.50820589839707</speed>
      </trkpt>
      <trkpt lat="43.80866" lon="6.88453">
        <ele>1154</ele>
        <time>2012-01-07T08:48:53Z</time>
        <course>258.098215516911</course>
        <speed>8.31272665273811</speed>
      </trkpt>
      <trkpt lat="43.80855" lon="6.88506">
        <ele>1153</ele>
        <time>2012-01-07T08:48:58Z</time>
        <course>252.421382449038</course>
        <speed>8.3164708286231</speed>
      </trkpt>
      <trkpt lat="43.80821" lon="6.88615">
        <ele>1151</ele>
        <time>2012-01-07T08:49:09Z</time>
        <course>257.793105618146</course>
        <speed>8.31480131892558</speed>
      </trkpt>
      <trkpt lat="43.80798" lon="6.88723">
        <ele>1148</ele>
        <time>2012-01-07T08:49:20Z</time>
        <course>260.835819348441</course>
        <speed>8.31887456806678</speed>
      </trkpt>
      <trkpt lat="43.80724" lon="6.8919">
        <ele>1140</ele>
        <time>2012-01-07T08:50:06Z</time>
        <course>246.478185795412</course>
        <speed>8.32742063235967</speed>
      </trkpt>
      <trkpt lat="43.80709" lon="6.89225">
        <ele>1139</ele>
        <time>2012-01-07T08:50:10Z</time>
        <course>235.075557518041</course>
        <speed>8.31975440214336</speed>
      </trkpt>
      <trkpt lat="43.80687" lon="6.89257">
        <ele>1139</ele>
        <time>2012-01-07T08:50:14Z</time>
        <course>231.974355079274</course>
        <speed>8.31885995106642</speed>
      </trkpt>
      <trkpt lat="43.80377" lon="6.8966">
        <ele>1138</ele>
        <time>2012-01-07T08:51:11Z</time>
        <course>236.319303123482</course>
        <speed>4.45397906232879</speed>
      </trkpt>
      <trkpt lat="43.80337" lon="6.89721">
        <ele>1140</ele>
        <time>2012-01-07T08:51:26Z</time>
        <course>247.125472607484</course>
        <speed>4.45353776118384</speed>
      </trkpt>
      <trkpt lat="43.80315" lon="6.89774">
        <ele>1143</ele>
        <time>2012-01-07T08:51:37Z</time>
        <course>257.164808720475</course>
        <speed>8.31164518447113</speed>
      </trkpt>
      <trkpt lat="43.80302" lon="6.89832">
        <ele>1138</ele>
        <time>2012-01-07T08:51:43Z</time>
        <course>261.73673091854</course>
        <speed>8.31108752771424</speed>
      </trkpt>
      <trkpt lat="43.80295" lon="6.89881">
        <ele>1134</ele>
        <time>2012-01-07T08:51:48Z</time>
        <course>266.027085703116</course>
        <speed>8.32025476937956</speed>
      </trkpt>
      <trkpt lat="43.80283" lon="6.90057">
        <ele>1121</ele>
        <time>2012-01-07T08:52:05Z</time>
        <course>259.209341079958</course>
        <speed>7.40652089075487</speed>
      </trkpt>
      <trkpt lat="43.80277" lon="6.90089">
        <ele>1121</ele>
        <time>2012-01-07T08:52:08Z</time>
        <course>250.167165797383</course>
        <speed>7.40743182670514</speed>
      </trkpt>
      <trkpt lat="43.80266" lon="6.9012">
        <ele>1121</ele>
        <time>2012-01-07T08:52:12Z</time>
        <course>235.740049281579</course>
        <speed>7.41389373454283</speed>
      </trkpt>
      <trkpt lat="43.80199" lon="6.9022">
        <ele>1122</ele>
        <time>2012-01-07T08:52:27Z</time>
        <course>262.524583197115</course>
        <speed>5.37361778559143</speed>
      </trkpt>
      <trkpt lat="43.80191" lon="6.90282">
        <ele>1123</ele>
        <time>2012-01-07T08:52:36Z</time>
        <course>251.279979920594</course>
        <speed>5.37201598234714</speed>
      </trkpt>
      <trkpt lat="43.80179" lon="6.90318">
        <ele>1124</ele>
        <time>2012-01-07T08:52:42Z</time>
        <course>218.53139956162</course>
        <speed>5.37300492543357</speed>
      </trkpt>
      <trkpt lat="43.80158" lon="6.90335">
        <ele>1125</ele>
        <time>2012-01-07T08:52:47Z</time>
        <course>191.129475880967</course>
        <speed>8.32327348396836</speed>
      </trkpt>
      <trkpt lat="43.80113" lon="6.90344">
        <ele>1124</ele>
        <time>2012-01-07T08:52:53Z</time>
        <course>227.8952119733</course>
        <speed>8.3279959955676</speed>
      </trkpt>
      <trkpt lat="43.80097" lon="6.90362">
        <ele>1124</ele>
        <time>2012-01-07T08:52:56Z</time>
        <course>260.381288404454</course>
        <speed>8.31427092731363</speed>
      </trkpt>
      <trkpt lat="43.80092" lon="6.90392">
        <ele>1124</ele>
        <time>2012-01-07T08:52:59Z</time>
        <course>273.084135550239</course>
        <speed>8.32158692215012</speed>
      </trkpt>
      <trkpt lat="43.80098" lon="6.90505">
        <ele>1124</ele>
        <time>2012-01-07T08:53:10Z</time>
        <course>286.83002307374</course>
        <speed>8.31864746420359</speed>
      </trkpt>
      <trkpt lat="43.80123" lon="6.90589">
        <ele>1120</ele>
        <time>2012-01-07T08:53:19Z</time>
        <course>298.03332803778</course>
        <speed>8.32404691227712</speed>
      </trkpt>
      <trkpt lat="43.80145" lon="6.90631">
        <ele>1118</ele>
        <time>2012-01-07T08:53:24Z</time>
        <course>282.577319057071</course>
        <speed>8.32183927249109</speed>
      </trkpt>
      <trkpt lat="43.80154" lon="6.90672">
        <ele>1117</ele>
        <time>2012-01-07T08:53:28Z</time>
        <course>260.535407525473</course>
        <speed>8.31975150263789</speed>
      </trkpt>
      <trkpt lat="43.80144" lon="6.90733">
        <ele>1115</ele>
        <time>2012-01-07T08:53:34Z</time>
        <course>251.684068719464</course>
        <speed>8.31484921542662</speed>
      </trkpt>
      <trkpt lat="43.8013" lon="6.90776">
        <ele>1115</ele>
        <time>2012-01-07T08:53:38Z</time>
        <course>237.501005000346</course>
        <speed>8.31576052349157</speed>
      </trkpt>
      <trkpt lat="43.80078" lon="6.90859">
        <ele>1110</ele>
        <time>2012-01-07T08:53:49Z</time>
        <course>227.58124015977</course>
        <speed>8.32086850391576</speed>
      </trkpt>
      <trkpt lat="43.80016" lon="6.90928">
        <ele>1106</ele>
        <time>2012-01-07T08:54:00Z</time>
        <course>205.093393150376</course>
        <speed>8.30807683817722</speed>
      </trkpt>
      <trkpt lat="43.79995" lon="6.90938">
        <ele>1103</ele>
        <time>2012-01-07T08:54:03Z</time>
        <course>187.46933882557</course>
        <speed>8.32049946485793</speed>
      </trkpt>
      <trkpt lat="43.79935" lon="6.90946">
        <ele>1096</ele>
        <time>2012-01-07T08:54:11Z</time>
        <course>195.174337427729</course>
        <speed>8.31831987199613</speed>
      </trkpt>
      <trkpt lat="43.79848" lon="6.9097">
        <ele>1086</ele>
        <time>2012-01-07T08:54:22Z</time>
        <course>185.846855826935</course>
        <speed>8.31852920918652</speed>
      </trkpt>
      <trkpt lat="43.798" lon="6.90975">
        <ele>1074</ele>
        <time>2012-01-07T08:54:29Z</time>
        <course>165.311231958014</course>
        <speed>8.32056029583898</speed>
      </trkpt>
      <trkpt lat="43.7977" lon="6.90967">
        <ele>1066</ele>
        <time>2012-01-07T08:54:33Z</time>
        <course>139.478118015556</course>
        <speed>8.3125603508099</speed>
      </trkpt>
      <trkpt lat="43.79747" lon="6.90947">
        <ele>1060</ele>
        <time>2012-01-07T08:54:37Z</time>
        <course>116.964337086777</course>
        <speed>8.31644427083728</speed>
      </trkpt>
      <trkpt lat="43.79719" lon="6.90891">
        <ele>1048</ele>
        <time>2012-01-07T08:54:43Z</time>
        <course>127.048850977372</course>
        <speed>8.31158837332827</speed>
      </trkpt>
      <trkpt lat="43.79696" lon="6.9086">
        <ele>1040</ele>
        <time>2012-01-07T08:54:47Z</time>
        <course>164.994564920184</course>
        <speed>8.30518826430974</speed>
      </trkpt>
      <trkpt lat="43.79685" lon="6.90857">
        <ele>1037</ele>
        <time>2012-01-07T08:54:49Z</time>
        <course>226.625614204865</course>
        <speed>8.31660675974986</speed>
      </trkpt>
      <trkpt lat="43.79672" lon="6.90871">
        <ele>1034</ele>
        <time>2012-01-07T08:54:51Z</time>
        <course>270.452306173798</course>
        <speed>3.82244575600093</speed>
      </trkpt>
      <trkpt lat="43.79673" lon="6.90998">
        <ele>1040</ele>
        <time>2012-01-07T08:55:18Z</time>
        <course>258.342442416389</course>
        <speed>4.49335428154023</speed>
      </trkpt>
      <trkpt lat="43.79658" lon="6.91072">
        <ele>1042</ele>
        <time>2012-01-07T08:55:32Z</time>
        <course>267.408344398452</course>
        <speed>4.49209030408135</speed>
      </trkpt>
      <trkpt lat="43.79656" lon="6.91117">
        <ele>1044</ele>
        <time>2012-01-07T08:55:40Z</time>
        <course>280.79679015412</course>
        <speed>4.4915155636028</speed>
      </trkpt>
      <trkpt lat="43.79671" lon="6.91197">
        <ele>1047</ele>
        <time>2012-01-07T08:55:54Z</time>
        <course>273.469028949985</course>
        <speed>8.3212602524181</speed>
      </trkpt>
      <trkpt lat="43.79679" lon="6.91331">
        <ele>1045</ele>
        <time>2012-01-07T08:56:07Z</time>
        <course>260.872326014584</course>
        <speed>8.29763641584655</speed>
      </trkpt>
      <trkpt lat="43.79676" lon="6.9135">
        <ele>1037</ele>
        <time>2012-01-07T08:56:09Z</time>
        <course>247.540595773749</course>
        <speed>8.31978175809507</speed>
      </trkpt>
      <trkpt lat="43.79663" lon="6.91382">
        <ele>1022</ele>
        <time>2012-01-07T08:56:13Z</time>
        <course>231.224405145021</course>
        <speed>8.33374395845389</speed>
      </trkpt>
      <trkpt lat="43.79648" lon="6.91401">
        <ele>1011</ele>
        <time>2012-01-07T08:56:15Z</time>
        <course>213.697232262961</course>
        <speed>8.32818305442253</speed>
      </trkpt>
      <trkpt lat="43.7962" lon="6.9142">
        <ele>994</ele>
        <time>2012-01-07T08:56:20Z</time>
        <course>234.537071524511</course>
        <speed>8.33804091567229</speed>
      </trkpt>
      <trkpt lat="43.79613" lon="6.9143">
        <ele>989</ele>
        <time>2012-01-07T08:56:21Z</time>
        <course>250.026888878523</course>
        <speed>8.29692795542716</speed>
      </trkpt>
      <trkpt lat="43.79608" lon="6.91444">
        <ele>986</ele>
        <time>2012-01-07T08:56:22Z</time>
        <course>265.920287416641</course>
        <speed>8.31616018933385</speed>
      </trkpt>
      <trkpt lat="43.79601" lon="6.91544">
        <ele>973</ele>
        <time>2012-01-07T08:56:32Z</time>
        <course>279.893572941764</course>
        <speed>8.31510808308118</speed>
      </trkpt>
      <trkpt lat="43.79607" lon="6.91579">
        <ele>969</ele>
        <time>2012-01-07T08:56:36Z</time>
        <course>300.690022438717</course>
        <speed>5.46358722469216</speed>
      </trkpt>
      <trkpt lat="43.79635" lon="6.91627">
        <ele>970</ele>
        <time>2012-01-07T08:56:45Z</time>
        <course>280.800709291941</course>
        <speed>5.45638274365975</speed>
      </trkpt>
      <trkpt lat="43.79638" lon="6.91643">
        <ele>970</ele>
        <time>2012-01-07T08:56:47Z</time>
        <course>263.249938520574</course>
        <speed>5.46691986411177</speed>
      </trkpt>
      <trkpt lat="43.79633" lon="6.91686">
        <ele>971</ele>
        <time>2012-01-07T08:56:53Z</time>
        <course>275.534070212024</course>
        <speed>5.46284084286169</speed>
      </trkpt>
      <trkpt lat="43.79635" lon="6.91707">
        <ele>972</ele>
        <time>2012-01-07T08:56:57Z</time>
        <course>303.634624674728</course>
        <speed>8.32474488136772</speed>
      </trkpt>
      <trkpt lat="43.79652" lon="6.91733">
        <ele>966</ele>
        <time>2012-01-07T08:57:00Z</time>
        <course>282.740064816642</course>
        <speed>8.2999567364363</speed>
      </trkpt>
      <trkpt lat="43.79656" lon="6.91751">
        <ele>963</ele>
        <time>2012-01-07T08:57:02Z</time>
        <course>259.69731309528</course>
        <speed>8.3219213854679</speed>
      </trkpt>
      <trkpt lat="43.79641" lon="6.91835">
        <ele>951</ele>
        <time>2012-01-07T08:57:10Z</time>
        <course>241.826630738209</course>
        <speed>8.3268727060247</speed>
      </trkpt>
      <trkpt lat="43.79621" lon="6.91873">
        <ele>940</ele>
        <time>2012-01-07T08:57:15Z</time>
        <course>254.817433517855</course>
        <speed>8.32848370970263</speed>
      </trkpt>
      <trkpt lat="43.79617" lon="6.91888">
        <ele>937</ele>
        <time>2012-01-07T08:57:16Z</time>
        <course>276.292063970795</course>
        <speed>8.32124489025133</speed>
      </trkpt>
      <trkpt lat="43.79626" lon="6.91971">
        <ele>919</ele>
        <time>2012-01-07T08:57:24Z</time>
        <course>262.749909773563</course>
        <speed>2.2716520542176</speed>
      </trkpt>
      <trkpt lat="43.79623" lon="6.91995">
        <ele>921</ele>
        <time>2012-01-07T08:57:33Z</time>
        <course>248.208895652371</course>
        <speed>2.2707719241991</speed>
      </trkpt>
      <trkpt lat="43.79612" lon="6.92023">
        <ele>925</ele>
        <time>2012-01-07T08:57:44Z</time>
        <course>265.841295355307</course>
        <speed>2.27039388932102</speed>
      </trkpt>
      <trkpt lat="43.7961" lon="6.92051">
        <ele>928</ele>
        <time>2012-01-07T08:57:54Z</time>
        <course>296.9644333071</course>
        <speed>2.27055909779132</speed>
      </trkpt>
      <trkpt lat="43.79628" lon="6.92087">
        <ele>932</ele>
        <time>2012-01-07T08:58:10Z</time>
        <course>327.715837299166</course>
        <speed>2.27152321792966</speed>
      </trkpt>
      <trkpt lat="43.79642" lon="6.92096">
        <ele>935</ele>
        <time>2012-01-07T08:58:17Z</time>
        <course>360</course>
        <speed>2.96320000003713</speed>
      </trkpt>
      <trkpt lat="43.79662" lon="6.92096">
        <ele>937</ele>
        <time>2012-01-07T08:58:25Z</time>
        <course>321.195830827438</course>
        <speed>2.96358696072283</speed>
      </trkpt>
      <trkpt lat="43.79673" lon="6.92105">
        <ele>938</ele>
        <time>2012-01-07T08:58:29Z</time>
        <course>286.208225095926</course>
        <speed>2.96479454231654</speed>
      </trkpt>
      <trkpt lat="43.79679" lon="6.92126">
        <ele>939</ele>
        <time>2012-01-07T08:58:36Z</time>
        <course>268.232269415875</course>
        <speed>2.96324365433739</speed>
      </trkpt>
      <trkpt lat="43.79678" lon="6.92159">
        <ele>942</ele>
        <time>2012-01-07T08:58:44Z</time>
        <course>253.586681008529</course>
        <speed>2.96372805880921</speed>
      </trkpt>
      <trkpt lat="43.79667" lon="6.92197">
        <ele>945</ele>
        <time>2012-01-07T08:58:56Z</time>
        <course>273.9316488171</course>
        <speed>2.96382530957247</speed>
      </trkpt>
      <trkpt lat="43.79676" lon="6.9233">
        <ele>955</ele>
        <time>2012-01-07T08:59:32Z</time>
        <course>276.53624441324</course>
        <speed>3.52946382394632</speed>
      </trkpt>
      <trkpt lat="43.79684" lon="6.92401">
        <ele>958</ele>
        <time>2012-01-07T08:59:48Z</time>
        <course>279.611652212824</course>
        <speed>3.53043194407617</speed>
      </trkpt>
      <trkpt lat="43.79723" lon="6.92635">
        <ele>972</ele>
        <time>2012-01-07T09:00:43Z</time>
        <course>260.143939686161</course>
        <speed>8.32309996444856</speed>
      </trkpt>
      <trkpt lat="43.79716" lon="6.92676">
        <ele>960</ele>
        <time>2012-01-07T09:00:47Z</time>
        <course>236.100808651183</course>
        <speed>8.31401784856257</speed>
      </trkpt>
      <trkpt lat="43.79681" lon="6.92729">
        <ele>941</ele>
        <time>2012-01-07T09:00:54Z</time>
        <course>250.146985868808</course>
        <speed>8.32012634096505</speed>
      </trkpt>
      <trkpt lat="43.7967" lon="6.9276">
        <ele>932</ele>
        <time>2012-01-07T09:00:57Z</time>
        <course>260.372792787994</course>
        <speed>4.81854945646951</speed>
      </trkpt>
      <trkpt lat="43.79662" lon="6.92808">
        <ele>933</ele>
        <time>2012-01-07T09:01:05Z</time>
        <course>268.807826599204</course>
        <speed>4.81824884691912</speed>
      </trkpt>
      <trkpt lat="43.79661" lon="6.92857">
        <ele>934</ele>
        <time>2012-01-07T09:01:13Z</time>
        <course>280.800194997775</course>
        <speed>4.82143855361607</speed>
      </trkpt>
      <trkpt lat="43.79664" lon="6.92873">
        <ele>935</ele>
        <time>2012-01-07T09:01:16Z</time>
        <course>296.650033048486</course>
        <speed>4.81896528035</speed>
      </trkpt>
      <trkpt lat="43.79701" lon="6.92948">
        <ele>938</ele>
        <time>2012-01-07T09:01:31Z</time>
        <course>287.37977582385</course>
        <speed>2.71650689547053</speed>
      </trkpt>
      <trkpt lat="43.79717" lon="6.93">
        <ele>942</ele>
        <time>2012-01-07T09:01:48Z</time>
        <course>292.478711585502</course>
        <speed>2.71729891790728</speed>
      </trkpt>
      <trkpt lat="43.79741" lon="6.93059">
        <ele>948</ele>
        <time>2012-01-07T09:02:08Z</time>
        <course>277.895756640443</course>
        <speed>2.7166918108473</speed>
      </trkpt>
      <trkpt lat="43.79747" lon="6.93103">
        <ele>952</ele>
        <time>2012-01-07T09:02:21Z</time>
        <course>270.681239231938</course>
        <speed>8.31507723436339</speed>
      </trkpt>
      <trkpt lat="43.79748" lon="6.93188">
        <ele>950</ele>
        <time>2012-01-07T09:02:29Z</time>
        <course>286.205675002069</course>
        <speed>8.32859561557817</speed>
      </trkpt>
      <trkpt lat="43.79756" lon="6.93216">
        <ele>949</ele>
        <time>2012-01-07T09:02:32Z</time>
        <course>296.955953505565</course>
        <speed>8.31893858204604</speed>
      </trkpt>
      <trkpt lat="43.79791" lon="6.93286">
        <ele>948</ele>
        <time>2012-01-07T09:02:40Z</time>
        <course>283.011528602943</course>
        <speed>8.3179303089604</speed>
      </trkpt>
      <trkpt lat="43.79816" lon="6.93396">
        <ele>942</ele>
        <time>2012-01-07T09:02:51Z</time>
        <course>287.696019558188</course>
        <speed>8.32109509881693</speed>
      </trkpt>
      <trkpt lat="43.79832" lon="6.93447">
        <ele>940</ele>
        <time>2012-01-07T09:02:57Z</time>
        <course>278.039211432142</course>
        <speed>8.32952341047002</speed>
      </trkpt>
      <trkpt lat="43.79837" lon="6.93483">
        <ele>933</ele>
        <time>2012-01-07T09:03:00Z</time>
        <course>264.187333567594</course>
        <speed>8.31887149435392</speed>
      </trkpt>
      <trkpt lat="43.79828" lon="6.93573">
        <ele>916</ele>
        <time>2012-01-07T09:03:09Z</time>
        <course>279.119042539021</course>
        <speed>8.31511877133384</speed>
      </trkpt>
      <trkpt lat="43.79843" lon="6.93668">
        <ele>904</ele>
        <time>2012-01-07T09:03:18Z</time>
        <course>275.211514262928</course>
        <speed>8.31673880260361</speed>
      </trkpt>
      <trkpt lat="43.7985" lon="6.93746">
        <ele>896</ele>
        <time>2012-01-07T09:03:26Z</time>
        <course>286.928849532455</course>
        <speed>7.36072793452629</speed>
      </trkpt>
      <trkpt lat="43.79903" lon="6.93923">
        <ele>897</ele>
        <time>2012-01-07T09:03:47Z</time>
        <course>260.632867673498</course>
        <speed>8.31010446599379</speed>
      </trkpt>
      <trkpt lat="43.79897" lon="6.9396">
        <ele>894</ele>
        <time>2012-01-07T09:03:51Z</time>
        <course>249.054705663816</course>
        <speed>8.31972071128042</speed>
      </trkpt>
      <trkpt lat="43.79859" lon="6.94061">
        <ele>887</ele>
        <time>2012-01-07T09:04:02Z</time>
        <course>241.695486435944</course>
        <speed>8.3159968192254</speed>
      </trkpt>
      <trkpt lat="43.79832" lon="6.94112">
        <ele>881</ele>
        <time>2012-01-07T09:04:08Z</time>
        <course>252.477228370948</course>
        <speed>8.31466876446347</speed>
      </trkpt>
      <trkpt lat="43.79814" lon="6.9417">
        <ele>877</ele>
        <time>2012-01-07T09:04:14Z</time>
        <course>242.043055088436</course>
        <speed>8.30722957043093</speed>
      </trkpt>
      <trkpt lat="43.79802" lon="6.94193">
        <ele>875</ele>
        <time>2012-01-07T09:04:17Z</time>
        <course>219.941868792455</course>
        <speed>8.32621278703635</speed>
      </trkpt>
      <trkpt lat="43.79775" lon="6.94216">
        <ele>873</ele>
        <time>2012-01-07T09:04:21Z</time>
        <course>240.525768552308</course>
        <speed>8.31879085848389</speed>
      </trkpt>
      <trkpt lat="43.79765" lon="6.94234">
        <ele>872</ele>
        <time>2012-01-07T09:04:23Z</time>
        <course>267.057477436933</course>
        <speed>8.31971834773076</speed>
      </trkpt>
      <trkpt lat="43.79759" lon="6.94353">
        <ele>866</ele>
        <time>2012-01-07T09:04:34Z</time>
        <course>274.589756463233</course>
        <speed>8.30887491476588</speed>
      </trkpt>
      <trkpt lat="43.79762" lon="6.94391">
        <ele>864</ele>
        <time>2012-01-07T09:04:38Z</time>
        <course>251.267704557736</course>
        <speed>8.28234295962223</speed>
      </trkpt>
      <trkpt lat="43.79759" lon="6.944">
        <ele>864</ele>
        <time>2012-01-07T09:04:39Z</time>
        <course>209.322926883458</course>
        <speed>8.33073597790968</speed>
      </trkpt>
      <trkpt lat="43.79752" lon="6.94404">
        <ele>864</ele>
        <time>2012-01-07T09:04:40Z</time>
        <course>124.146410914802</course>
        <speed>8.29231775420294</speed>
      </trkpt>
      <trkpt lat="43.79744" lon="6.94392">
        <ele>863</ele>
        <time>2012-01-07T09:04:42Z</time>
        <course>84.3340239019363</course>
        <speed>8.31660347982522</speed>
      </trkpt>
      <trkpt lat="43.79748" lon="6.94351">
        <ele>862</ele>
        <time>2012-01-07T09:04:46Z</time>
        <course>97.9027365897025</course>
        <speed>8.32321607094444</speed>
      </trkpt>
      <trkpt lat="43.79736" lon="6.94263">
        <ele>859</ele>
        <time>2012-01-07T09:04:54Z</time>
        <course>90.0013169775597</course>
        <speed>8.32007679077739</speed>
      </trkpt>
      <trkpt lat="43.79736" lon="6.94238">
        <ele>859</ele>
        <time>2012-01-07T09:04:57Z</time>
        <course>84.7194697936348</course>
        <speed>8.32353232660172</speed>
      </trkpt>
      <trkpt lat="43.79742" lon="6.94172">
        <ele>857</ele>
        <time>2012-01-07T09:05:03Z</time>
        <course>78.6724962987002</course>
        <speed>8.31381650126511</speed>
      </trkpt>
      <trkpt lat="43.79755" lon="6.94106">
        <ele>857</ele>
        <time>2012-01-07T09:05:10Z</time>
        <course>88.153559242964</course>
        <speed>8.31877810024277</speed>
      </trkpt>
      <trkpt lat="43.79757" lon="6.94043">
        <ele>857</ele>
        <time>2012-01-07T09:05:16Z</time>
        <course>71.8642109486558</course>
        <speed>4.25080184855707</speed>
      </trkpt>
      <trkpt lat="43.79776" lon="6.93984">
        <ele>859</ele>
        <time>2012-01-07T09:05:28Z</time>
        <course>83.1780734661315</course>
        <speed>4.25070018728431</speed>
      </trkpt>
      <trkpt lat="43.79782" lon="6.93933">
        <ele>861</ele>
        <time>2012-01-07T09:05:38Z</time>
        <course>97.1398413127845</course>
        <speed>4.25126349172215</speed>
      </trkpt>
      <trkpt lat="43.79774" lon="6.93868">
        <ele>864</ele>
        <time>2012-01-07T09:05:50Z</time>
        <course>131.674013893366</course>
        <speed>8.3333420161204</speed>
      </trkpt>
      <trkpt lat="43.7976" lon="6.93852">
        <ele>862</ele>
        <time>2012-01-07T09:05:53Z</time>
        <course>161.858194584678</course>
        <speed>8.29531035851687</speed>
      </trkpt>
      <trkpt lat="43.79751" lon="6.93849">
        <ele>861</ele>
        <time>2012-01-07T09:05:54Z</time>
        <course>190.60448449621</course>
        <speed>8.32321807822746</speed>
      </trkpt>
      <trkpt lat="43.7973" lon="6.93853">
        <ele>858</ele>
        <time>2012-01-07T09:05:57Z</time>
        <course>231.360721863349</course>
        <speed>8.31978642194996</speed>
      </trkpt>
      <trkpt lat="43.79708" lon="6.93881">
        <ele>855</ele>
        <time>2012-01-07T09:06:01Z</time>
        <course>264.463345067656</course>
        <speed>8.32805579120759</speed>
      </trkpt>
      <trkpt lat="43.79704" lon="6.93923">
        <ele>852</ele>
        <time>2012-01-07T09:06:05Z</time>
        <course>275.074751868128</course>
        <speed>8.32152201517019</speed>
      </trkpt>
      <trkpt lat="43.79713" lon="6.94026">
        <ele>845</ele>
        <time>2012-01-07T09:06:15Z</time>
        <course>262.597339780437</course>
        <speed>8.32213514390827</speed>
      </trkpt>
      <trkpt lat="43.79707" lon="6.94073">
        <ele>842</ele>
        <time>2012-01-07T09:06:19Z</time>
        <course>254.923307348995</course>
        <speed>8.32264547239266</speed>
      </trkpt>
      <trkpt lat="43.79689" lon="6.94141">
        <ele>839</ele>
        <time>2012-01-07T09:06:26Z</time>
        <course>243.455790554994</course>
        <speed>8.32281863851205</speed>
      </trkpt>
      <trkpt lat="43.79662" lon="6.94196">
        <ele>837</ele>
        <time>2012-01-07T09:06:33Z</time>
        <course>258.223400144549</course>
        <speed>8.31728525162571</speed>
      </trkpt>
      <trkpt lat="43.79645" lon="6.94279">
        <ele>832</ele>
        <time>2012-01-07T09:06:41Z</time>
        <course>249.617427952761</course>
        <speed>8.31513004724508</speed>
      </trkpt>
      <trkpt lat="43.79622" lon="6.94342">
        <ele>829</ele>
        <time>2012-01-07T09:06:48Z</time>
        <course>257.102036525199</course>
        <speed>8.31817754531063</speed>
      </trkpt>
      <trkpt lat="43.79613" lon="6.94382">
        <ele>825</ele>
        <time>2012-01-07T09:06:52Z</time>
        <course>262.745422565733</course>
        <speed>8.31602627415144</speed>
      </trkpt>
      <trkpt lat="43.796" lon="6.94486">
        <ele>817</ele>
        <time>2012-01-07T09:07:02Z</time>
        <course>272.239960277915</course>
        <speed>8.32011852203776</speed>
      </trkpt>
      <trkpt lat="43.79601" lon="6.94512">
        <ele>817</ele>
        <time>2012-01-07T09:07:05Z</time>
        <course>279.36832826277</course>
        <speed>8.31049635724541</speed>
      </trkpt>
      <trkpt lat="43.79607" lon="6.94549">
        <ele>817</ele>
        <time>2012-01-07T09:07:08Z</time>
        <course>290.302936705257</course>
        <speed>8.31579048841524</speed>
      </trkpt>
      <trkpt lat="43.79627" lon="6.94604">
        <ele>817</ele>
        <time>2012-01-07T09:07:14Z</time>
        <course>290.302936705257</course>
        <speed>8.31579048841524</speed>
      </trkpt>
      <trkpt lat="43.79627" lon="6.94604">
        <ele>817</ele>
        <time>2012-01-07T09:07:15Z</time>
        <course>292.633949426645</course>
        <speed>8.32289390862828</speed>
      </trkpt>
      <trkpt lat="43.79652" lon="6.94665">
        <ele>816</ele>
        <time>2012-01-07T09:07:22Z</time>
        <course>286.207632128227</course>
        <speed>8.30960634408557</speed>
      </trkpt>
      <trkpt lat="43.79664" lon="6.94707">
        <ele>816</ele>
        <time>2012-01-07T09:07:26Z</time>
        <course>277.429896306862</course>
        <speed>8.31995574800819</speed>
      </trkpt>
      <trkpt lat="43.79688" lon="6.94894">
        <ele>816</ele>
        <time>2012-01-07T09:07:45Z</time>
        <course>266.57226526279</course>
        <speed>8.32470118287293</speed>
      </trkpt>
      <trkpt lat="43.79685" lon="6.94945">
        <ele>810</ele>
        <time>2012-01-07T09:07:50Z</time>
        <course>256.949399311555</course>
        <speed>8.31973017518336</speed>
      </trkpt>
      <trkpt lat="43.79662" lon="6.95046">
        <ele>799</ele>
        <time>2012-01-07T09:08:00Z</time>
        <course>270.471387409854</course>
        <speed>8.32128162331662</speed>
      </trkpt>
      <trkpt lat="43.79663" lon="6.95168">
        <ele>791</ele>
        <time>2012-01-07T09:08:12Z</time>
        <course>255.191857911565</course>
        <speed>8.31889534128313</speed>
      </trkpt>
      <trkpt lat="43.79643" lon="6.95245">
        <ele>786</ele>
        <time>2012-01-07T09:08:19Z</time>
        <course>267.224868703826</course>
        <speed>5.49838483274432</speed>
      </trkpt>
      <trkpt lat="43.79642" lon="6.95266">
        <ele>786</ele>
        <time>2012-01-07T09:08:22Z</time>
        <course>282.059725363039</course>
        <speed>5.48903780955536</speed>
      </trkpt>
      <trkpt lat="43.79667" lon="6.95385">
        <ele>789</ele>
        <time>2012-01-07T09:08:41Z</time>
        <course>298.442729202931</course>
        <speed>8.31472821911304</speed>
      </trkpt>
      <trkpt lat="43.79708" lon="6.95462">
        <ele>783</ele>
        <time>2012-01-07T09:08:50Z</time>
        <course>284.269700704491</course>
        <speed>8.33183619525124</speed>
      </trkpt>
      <trkpt lat="43.79712" lon="6.95478">
        <ele>782</ele>
        <time>2012-01-07T09:08:51Z</time>
        <course>216.39629163663</course>
        <speed>8.28573586090972</speed>
      </trkpt>
      <trkpt lat="43.79704" lon="6.95484">
        <ele>781</ele>
        <time>2012-01-07T09:08:53Z</time>
        <course>126.007177811033</course>
        <speed>8.3145135981766</speed>
      </trkpt>
      <trkpt lat="43.79699" lon="6.95477">
        <ele>781</ele>
        <time>2012-01-07T09:08:54Z</time>
        <course>113.750073159383</course>
        <speed>8.31599156831194</speed>
      </trkpt>
      <trkpt lat="43.79683" lon="6.9544">
        <ele>778</ele>
        <time>2012-01-07T09:08:58Z</time>
        <course>122.728669127193</course>
        <speed>8.3216942418271</speed>
      </trkpt>
      <trkpt lat="43.79647" lon="6.95383">
        <ele>774</ele>
        <time>2012-01-07T09:09:05Z</time>
        <course>114.710279616911</course>
        <speed>8.31863100842047</speed>
      </trkpt>
      <trkpt lat="43.79581" lon="6.95237">
        <ele>765</ele>
        <time>2012-01-07T09:09:22Z</time>
        <course>120.178939536469</course>
        <speed>5.04292495184722</speed>
      </trkpt>
      <trkpt lat="43.79577" lon="6.9523">
        <ele>765</ele>
        <time>2012-01-07T09:09:23Z</time>
        <course>187.002559430248</course>
        <speed>5.07142668158684</speed>
      </trkpt>
      <trkpt lat="43.79569" lon="6.95231">
        <ele>765</ele>
        <time>2012-01-07T09:09:25Z</time>
        <course>265.523199040805</course>
        <speed>5.06572718923273</speed>
      </trkpt>
      <trkpt lat="43.79568" lon="6.95244">
        <ele>765</ele>
        <time>2012-01-07T09:09:27Z</time>
        <course>293.322842703976</course>
        <speed>5.06217001961601</speed>
      </trkpt>
      <trkpt lat="43.79593" lon="6.95303">
        <ele>767</ele>
        <time>2012-01-07T09:09:38Z</time>
        <course>283.795616137314</course>
        <speed>5.06043615232944</speed>
      </trkpt>
      <trkpt lat="43.79614" lon="6.9539">
        <ele>770</ele>
        <time>2012-01-07T09:09:52Z</time>
        <course>295.153160244042</course>
        <speed>2.85825989841468</speed>
      </trkpt>
      <trkpt lat="43.79644" lon="6.95455">
        <ele>775</ele>
        <time>2012-01-07T09:10:14Z</time>
        <course>283.016165281611</course>
        <speed>2.85816888414667</speed>
      </trkpt>
      <trkpt lat="43.79664" lon="6.95543">
        <ele>783</ele>
        <time>2012-01-07T09:10:40Z</time>
        <course>272.476711117415</course>
        <speed>8.31773236546756</speed>
      </trkpt>
      <trkpt lat="43.79666" lon="6.9559">
        <ele>778</ele>
        <time>2012-01-07T09:10:44Z</time>
        <course>264.462906715756</course>
        <speed>8.32811332605642</speed>
      </trkpt>
      <trkpt lat="43.79662" lon="6.95632">
        <ele>775</ele>
        <time>2012-01-07T09:10:48Z</time>
        <course>254.712779883183</course>
        <speed>8.31891021339816</speed>
      </trkpt>
      <trkpt lat="43.79633" lon="6.9574">
        <ele>765</ele>
        <time>2012-01-07T09:11:00Z</time>
        <course>260.372130828661</course>
        <speed>8.3183869089147</speed>
      </trkpt>
      <trkpt lat="43.79625" lon="6.95788">
        <ele>755</ele>
        <time>2012-01-07T09:11:04Z</time>
        <course>258.20776422679</course>
        <speed>8.31698102598457</speed>
      </trkpt>
      <trkpt lat="43.79617" lon="6.95827">
        <ele>747</ele>
        <time>2012-01-07T09:11:08Z</time>
        <course>244.597489974669</course>
        <speed>8.32939565927602</speed>
      </trkpt>
      <trkpt lat="43.7961" lon="6.95842">
        <ele>743</ele>
        <time>2012-01-07T09:11:10Z</time>
        <course>229.301267817942</course>
        <speed>8.31899217772165</speed>
      </trkpt>
      <trkpt lat="43.7955" lon="6.95913">
        <ele>722</ele>
        <time>2012-01-07T09:11:21Z</time>
        <course>245.475145920614</course>
        <speed>8.3224943955075</speed>
      </trkpt>
      <trkpt lat="43.79537" lon="6.95942">
        <ele>716</ele>
        <time>2012-01-07T09:11:24Z</time>
        <course>257.632517108946</course>
        <speed>8.31910211830371</speed>
      </trkpt>
      <trkpt lat="43.79523" lon="6.96007">
        <ele>705</ele>
        <time>2012-01-07T09:11:30Z</time>
        <course>232.938704466752</course>
        <speed>8.32142734852844</speed>
      </trkpt>
      <trkpt lat="43.79477" lon="6.96069">
        <ele>692</ele>
        <time>2012-01-07T09:11:39Z</time>
        <course>246.431382917031</course>
        <speed>5.51029676006604</speed>
      </trkpt>
      <trkpt lat="43.79471" lon="6.96083">
        <ele>692</ele>
        <time>2012-01-07T09:11:41Z</time>
        <course>269.998824646915</course>
        <speed>5.51437543468637</speed>
      </trkpt>
      <trkpt lat="43.79471" lon="6.96105">
        <ele>692</ele>
        <time>2012-01-07T09:11:44Z</time>
        <course>282.301854034915</course>
        <speed>5.51662639284571</speed>
      </trkpt>
      <trkpt lat="43.7948" lon="6.96147">
        <ele>693</ele>
        <time>2012-01-07T09:11:51Z</time>
        <course>269.997970807239</course>
        <speed>5.52163243557806</speed>
      </trkpt>
      <trkpt lat="43.7948" lon="6.96185">
        <ele>694</ele>
        <time>2012-01-07T09:11:56Z</time>
        <course>263.032283423043</course>
        <speed>5.51876981323374</speed>
      </trkpt>
      <trkpt lat="43.79471" lon="6.9626">
        <ele>696</ele>
        <time>2012-01-07T09:12:07Z</time>
        <course>256.638105131794</course>
        <speed>8.31865633812604</speed>
      </trkpt>
      <trkpt lat="43.79464" lon="6.9629">
        <ele>692</ele>
        <time>2012-01-07T09:12:10Z</time>
        <course>247.603445682236</course>
        <speed>8.31493298214609</speed>
      </trkpt>
      <trkpt lat="43.7943" lon="6.96374">
        <ele>680</ele>
        <time>2012-01-07T09:12:20Z</time>
        <course>268.609369184958</course>
        <speed>8.32256203985854</speed>
      </trkpt>
      <trkpt lat="43.79429" lon="6.96416">
        <ele>677</ele>
        <time>2012-01-07T09:12:24Z</time>
        <course>291.758341860393</course>
        <speed>8.31321878057289</speed>
      </trkpt>
      <trkpt lat="43.79449" lon="6.96467">
        <ele>674</ele>
        <time>2012-01-07T09:12:29Z</time>
        <course>273.639316340639</course>
        <speed>8.31065742764622</speed>
      </trkpt>
      <trkpt lat="43.7945" lon="6.96483">
        <ele>674</ele>
        <time>2012-01-07T09:12:31Z</time>
        <course>254.124358724831</course>
        <speed>8.31570023971363</speed>
      </trkpt>
      <trkpt lat="43.79419" lon="6.96594">
        <ele>668</ele>
        <time>2012-01-07T09:12:42Z</time>
        <course>265.195741993185</course>
        <speed>8.32197196225168</speed>
      </trkpt>
      <trkpt lat="43.79411" lon="6.96691">
        <ele>662</ele>
        <time>2012-01-07T09:12:52Z</time>
        <course>274.6121814868</course>
        <speed>8.32024861451805</speed>
      </trkpt>
      <trkpt lat="43.79421" lon="6.96817">
        <ele>655</ele>
        <time>2012-01-07T09:13:04Z</time>
        <course>256.374766965867</course>
        <speed>2.18971922483445</speed>
      </trkpt>
      <trkpt lat="43.79416" lon="6.96838">
        <ele>657</ele>
        <time>2012-01-07T09:13:12Z</time>
        <course>189.298189231139</course>
        <speed>2.18738599210911</speed>
      </trkpt>
      <trkpt lat="43.7941" lon="6.96839">
        <ele>658</ele>
        <time>2012-01-07T09:13:15Z</time>
        <course>243.023974995857</course>
        <speed>2.18651648692354</speed>
      </trkpt>
      <trkpt lat="43.79406" lon="6.96847">
        <ele>659</ele>
        <time>2012-01-07T09:13:19Z</time>
        <course>280.485463914489</course>
        <speed>2.18718391686427</speed>
      </trkpt>
      <trkpt lat="43.79408" lon="6.96858">
        <ele>660</ele>
        <time>2012-01-07T09:13:23Z</time>
        <course>348.884580754433</course>
        <speed>2.18853778448628</speed>
      </trkpt>
      <trkpt lat="43.79418" lon="6.9686">
        <ele>662</ele>
        <time>2012-01-07T09:13:28Z</time>
        <course>288.742193962107</course>
        <speed>2.19047441570596</speed>
      </trkpt>
      <trkpt lat="43.79423" lon="6.96875">
        <ele>664</ele>
        <time>2012-01-07T09:13:34Z</time>
        <course>265.839797681358</course>
        <speed>2.18898371641346</speed>
      </trkpt>
      <trkpt lat="43.79421" lon="6.96903">
        <ele>667</ele>
        <time>2012-01-07T09:13:44Z</time>
        <course>311.104635015112</course>
        <speed>2.19005799909934</speed>
      </trkpt>
      <trkpt lat="43.79433" lon="6.96917">
        <ele>669</ele>
        <time>2012-01-07T09:13:52Z</time>
        <course>331.074452094901</course>
        <speed>2.18800983354269</speed>
      </trkpt>
      <trkpt lat="43.79449" lon="6.96926">
        <ele>672</ele>
        <time>2012-01-07T09:14:01Z</time>
        <course>351.718291710904</course>
        <speed>2.18886168490208</speed>
      </trkpt>
      <trkpt lat="43.79503" lon="6.96934">
        <ele>681</ele>
        <time>2012-01-07T09:14:29Z</time>
        <course>339.949911490944</course>
        <speed>6.4631651290939</speed>
      </trkpt>
      <trkpt lat="43.79538" lon="6.96947">
        <ele>681</ele>
        <time>2012-01-07T09:14:35Z</time>
        <course>284.27362173478</course>
        <speed>6.46725521737059</speed>
      </trkpt>
      <trkpt lat="43.79544" lon="6.96971">
        <ele>681</ele>
        <time>2012-01-07T09:14:38Z</time>
        <course>252.61089953405</course>
        <speed>6.45863036824088</speed>
      </trkpt>
      <trkpt lat="43.79536" lon="6.96997">
        <ele>682</ele>
        <time>2012-01-07T09:14:42Z</time>
        <course>268.231780563997</course>
        <speed>6.46147100527476</speed>
      </trkpt>
      <trkpt lat="43.79535" lon="6.9703">
        <ele>682</ele>
        <time>2012-01-07T09:14:46Z</time>
        <course>296.968087623988</course>
        <speed>6.46170954997127</speed>
      </trkpt>
      <trkpt lat="43.7955" lon="6.9706">
        <ele>683</ele>
        <time>2012-01-07T09:14:50Z</time>
        <course>328.443390998169</course>
        <speed>8.31165826077102</speed>
      </trkpt>
      <trkpt lat="43.79574" lon="6.97075">
        <ele>683</ele>
        <time>2012-01-07T09:14:54Z</time>
        <course>288.736694699039</course>
        <speed>8.31969351504591</speed>
      </trkpt>
      <trkpt lat="43.79581" lon="6.97096">
        <ele>683</ele>
        <time>2012-01-07T09:14:56Z</time>
        <course>259.937778379752</course>
        <speed>8.3204993491404</speed>
      </trkpt>
      <trkpt lat="43.79558" lon="6.97228">
        <ele>683</ele>
        <time>2012-01-07T09:15:09Z</time>
        <course>273.326341535396</course>
        <speed>4.24745130153558</speed>
      </trkpt>
      <trkpt lat="43.7956" lon="6.97263">
        <ele>684</ele>
        <time>2012-01-07T09:15:16Z</time>
        <course>285.605564616323</course>
        <speed>4.24896057766356</speed>
      </trkpt>
      <trkpt lat="43.79574" lon="6.97314">
        <ele>686</ele>
        <time>2012-01-07T09:15:26Z</time>
        <course>273.424857961343</course>
        <speed>4.24860672843035</speed>
      </trkpt>
      <trkpt lat="43.79575" lon="6.97331">
        <ele>687</ele>
        <time>2012-01-07T09:15:29Z</time>
        <course>266.114784977765</course>
        <speed>4.25136050999651</speed>
      </trkpt>
      <trkpt lat="43.7957" lon="6.97406">
        <ele>690</ele>
        <time>2012-01-07T09:15:43Z</time>
        <course>257.833713175414</course>
        <speed>8.31969250283919</speed>
      </trkpt>
      <trkpt lat="43.79552" lon="6.97491">
        <ele>685</ele>
        <time>2012-01-07T09:15:52Z</time>
        <course>269.361327579053</course>
        <speed>8.32015124249105</speed>
      </trkpt>
      <trkpt lat="43.79551" lon="6.97583">
        <ele>681</ele>
        <time>2012-01-07T09:16:01Z</time>
        <course>279.555892814065</course>
        <speed>4.61243457801218</speed>
      </trkpt>
      <trkpt lat="43.79576" lon="6.97734">
        <ele>686</ele>
        <time>2012-01-07T09:16:28Z</time>
        <course>292.601253818272</course>
        <speed>1.55661178525667</speed>
      </trkpt>
      <trkpt lat="43.79585" lon="6.97756">
        <ele>690</ele>
        <time>2012-01-07T09:16:41Z</time>
        <course>317.004321960362</course>
        <speed>1.55627071642558</speed>
      </trkpt>
      <trkpt lat="43.79624" lon="6.97793">
        <ele>701</ele>
        <time>2012-01-07T09:17:15Z</time>
        <course>277.430538611879</course>
        <speed>1.55660575332753</speed>
      </trkpt>
      <trkpt lat="43.79629" lon="6.97832">
        <ele>708</ele>
        <time>2012-01-07T09:17:35Z</time>
        <course>287.811688045931</course>
        <speed>1.55602854799494</speed>
      </trkpt>
      <trkpt lat="43.79641" lon="6.9787">
        <ele>716</ele>
        <time>2012-01-07T09:17:56Z</time>
        <course>269.999470534072</course>
        <speed>8.35487660660874</speed>
      </trkpt>
      <trkpt lat="43.79641" lon="6.9788">
        <ele>714</ele>
        <time>2012-01-07T09:17:57Z</time>
        <course>233.989098939864</course>
        <speed>8.31455964429647</speed>
      </trkpt>
      <trkpt lat="43.79631" lon="6.97894">
        <ele>712</ele>
        <time>2012-01-07T09:17:59Z</time>
        <course>182.557633148515</course>
        <speed>8.31957625246569</speed>
      </trkpt>
      <trkpt lat="43.79609" lon="6.97895">
        <ele>708</ele>
        <time>2012-01-07T09:18:02Z</time>
        <course>207.88504646958</course>
        <speed>8.33243350104068</speed>
      </trkpt>
      <trkpt lat="43.79596" lon="6.97902">
        <ele>706</ele>
        <time>2012-01-07T09:18:04Z</time>
        <course>229.474388182473</course>
        <speed>8.31541228498257</speed>
      </trkpt>
      <trkpt lat="43.79575" lon="6.97927">
        <ele>701</ele>
        <time>2012-01-07T09:18:08Z</time>
        <course>213.227917575958</course>
        <speed>8.3321783837426</speed>
      </trkpt>
      <trkpt lat="43.7956" lon="6.97937">
        <ele>699</ele>
        <time>2012-01-07T09:18:10Z</time>
        <course>202.263003171971</course>
        <speed>8.31805646470709</speed>
      </trkpt>
      <trkpt lat="43.795" lon="6.97962">
        <ele>689</ele>
        <time>2012-01-07T09:18:18Z</time>
        <course>241.775808420528</course>
        <speed>8.31524251731286</speed>
      </trkpt>
      <trkpt lat="43.79471" lon="6.98017">
        <ele>682</ele>
        <time>2012-01-07T09:18:25Z</time>
        <course>263.834960535868</course>
        <speed>2.10655273885675</speed>
      </trkpt>
      <trkpt lat="43.79464" lon="6.98083">
        <ele>689</ele>
        <time>2012-01-07T09:18:50Z</time>
        <course>272.330159502979</course>
        <speed>2.10735164200379</speed>
      </trkpt>
      <trkpt lat="43.79465" lon="6.98108">
        <ele>692</ele>
        <time>2012-01-07T09:19:00Z</time>
        <course>286.213840983035</course>
        <speed>2.10583402177217</speed>
      </trkpt>
      <trkpt lat="43.79473" lon="6.98136">
        <ele>696</ele>
        <time>2012-01-07T09:19:11Z</time>
        <course>300.951794903782</course>
        <speed>2.10699184397019</speed>
      </trkpt>
      <trkpt lat="43.79506" lon="6.98192">
        <ele>705</ele>
        <time>2012-01-07T09:19:39Z</time>
        <course>288.174172730737</course>
        <speed>1.42217626471155</speed>
      </trkpt>
      <trkpt lat="43.79516" lon="6.98223">
        <ele>711</ele>
        <time>2012-01-07T09:19:58Z</time>
        <course>273.755134029259</course>
        <speed>1.42162586573606</speed>
      </trkpt>
      <trkpt lat="43.79518" lon="6.98254">
        <ele>717</ele>
        <time>2012-01-07T09:20:16Z</time>
        <course>267.639933672058</course>
        <speed>1.42196872131183</speed>
      </trkpt>
      <trkpt lat="43.79514" lon="6.98353">
        <ele>737</ele>
        <time>2012-01-07T09:21:11Z</time>
        <course>280.140642726878</course>
        <speed>1.81677943356831</speed>
      </trkpt>
      <trkpt lat="43.7953" lon="6.98444">
        <ele>750</ele>
        <time>2012-01-07T09:21:53Z</time>
        <course>294.336982114122</course>
        <speed>1.81658756958287</speed>
      </trkpt>
      <trkpt lat="43.79542" lon="6.98471">
        <ele>755</ele>
        <time>2012-01-07T09:22:07Z</time>
        <course>307.352365412273</course>
        <speed>1.81676104547625</speed>
      </trkpt>
      <trkpt lat="43.7956" lon="6.98495">
        <ele>760</ele>
        <time>2012-01-07T09:22:22Z</time>
        <course>274.013179772645</course>
        <speed>2.55089695173962</speed>
      </trkpt>
      <trkpt lat="43.79562" lon="6.98524">
        <ele>762</ele>
        <time>2012-01-07T09:22:31Z</time>
        <course>236.633944513917</course>
        <speed>2.5504181431321</speed>
      </trkpt>
      <trkpt lat="43.79551" lon="6.98541">
        <ele>764</ele>
        <time>2012-01-07T09:22:38Z</time>
        <course>197.238328991836</course>
        <speed>2.55056990269962</speed>
      </trkpt>
      <trkpt lat="43.79532" lon="6.98547">
        <ele>767</ele>
        <time>2012-01-07T09:22:47Z</time>
        <course>139.896815726779</course>
        <speed>2.55140460877597</speed>
      </trkpt>
      <trkpt lat="43.79518" lon="6.98535">
        <ele>769</ele>
        <time>2012-01-07T09:22:54Z</time>
        <course>121.18556373012</course>
        <speed>2.55139445029008</speed>
      </trkpt>
      <trkpt lat="43.79474" lon="6.98461">
        <ele>777</ele>
        <time>2012-01-07T09:23:24Z</time>
        <course>131.190105579679</course>
        <speed>2.55105979133689</speed>
      </trkpt>
      <trkpt lat="43.79425" lon="6.98404">
        <ele>786</ele>
        <time>2012-01-07T09:23:52Z</time>
        <course>115.013305623202</course>
        <speed>8.32230882684319</speed>
      </trkpt>
      <trkpt lat="43.79414" lon="6.9838">
        <ele>778</ele>
        <time>2012-01-07T09:23:55Z</time>
        <course>94.1617824749491</course>
        <speed>8.31250810880355</speed>
      </trkpt>
      <trkpt lat="43.7941" lon="6.98324">
        <ele>763</ele>
        <time>2012-01-07T09:24:00Z</time>
        <course>107.392507194541</course>
        <speed>8.33463836324346</speed>
      </trkpt>
      <trkpt lat="43.79406" lon="6.98311">
        <ele>759</ele>
        <time>2012-01-07T09:24:02Z</time>
        <course>123.202393316956</course>
        <speed>8.30781105545591</speed>
      </trkpt>
      <trkpt lat="43.79397" lon="6.98297">
        <ele>754</ele>
        <time>2012-01-07T09:24:03Z</time>
        <course>140.517789530576</course>
        <speed>8.31987407024323</speed>
      </trkpt>
      <trkpt lat="43.79366" lon="6.98271">
        <ele>741</ele>
        <time>2012-01-07T09:24:08Z</time>
        <course>118.546363317038</course>
        <speed>8.31582640127872</speed>
      </trkpt>
      <trkpt lat="43.79327" lon="6.98198">
        <ele>740</ele>
        <time>2012-01-07T09:24:17Z</time>
        <course>158.551779223301</course>
        <speed>8.3208104433063</speed>
      </trkpt>
      <trkpt lat="43.79317" lon="6.98194">
        <ele>740</ele>
        <time>2012-01-07T09:24:18Z</time>
        <course>197.062185990532</course>
        <speed>8.32234307316655</speed>
      </trkpt>
      <trkpt lat="43.79301" lon="6.98199">
        <ele>740</ele>
        <time>2012-01-07T09:24:21Z</time>
        <course>228.959391093923</course>
        <speed>8.31522516098261</speed>
      </trkpt>
      <trkpt lat="43.79248" lon="6.98261">
        <ele>740</ele>
        <time>2012-01-07T09:24:30Z</time>
        <course>196.701646092674</course>
        <speed>3.43952241930782</speed>
      </trkpt>
      <trkpt lat="43.79212" lon="6.98272">
        <ele>742</ele>
        <time>2012-01-07T09:24:42Z</time>
        <course>234.603707713414</course>
        <speed>3.43858347420404</speed>
      </trkpt>
      <trkpt lat="43.79182" lon="6.98315">
        <ele>746</ele>
        <time>2012-01-07T09:24:56Z</time>
        <course>211.038509160184</course>
        <speed>3.43686658985714</speed>
      </trkpt>
      <trkpt lat="43.79151" lon="6.98334">
        <ele>749</ele>
        <time>2012-01-07T09:25:07Z</time>
        <course>238.570015175031</course>
        <speed>2.18666992041642</speed>
      </trkpt>
      <trkpt lat="43.79139" lon="6.98354">
        <ele>751</ele>
        <time>2012-01-07T09:25:16Z</time>
        <course>251.245427790846</course>
        <speed>2.1860446522726</speed>
      </trkpt>
      <trkpt lat="43.79127" lon="6.9839">
        <ele>756</ele>
        <time>2012-01-07T09:25:31Z</time>
        <course>258.093598805901</course>
        <speed>2.18596405297038</speed>
      </trkpt>
      <trkpt lat="43.79103" lon="6.98506">
        <ele>770</ele>
        <time>2012-01-07T09:26:15Z</time>
        <course>280.737645229923</course>
        <speed>2.34695418638518</speed>
      </trkpt>
      <trkpt lat="43.79133" lon="6.98667">
        <ele>787</ele>
        <time>2012-01-07T09:27:12Z</time>
        <course>269.998314339501</course>
        <speed>4.0631089014651</speed>
      </trkpt>
      <trkpt lat="43.79133" lon="6.98698">
        <ele>788</ele>
        <time>2012-01-07T09:27:18Z</time>
        <course>260.937688903467</course>
        <speed>4.06629239171169</speed>
      </trkpt>
      <trkpt lat="43.79105" lon="6.98877">
        <ele>796</ele>
        <time>2012-01-07T09:27:54Z</time>
        <course>253.452791919078</course>
        <speed>2.30704474297818</speed>
      </trkpt>
      <trkpt lat="43.79098" lon="6.98901">
        <ele>798</ele>
        <time>2012-01-07T09:28:03Z</time>
        <course>237.798744752734</course>
        <speed>2.30676005406263</speed>
      </trkpt>
      <trkpt lat="43.79064" lon="6.98956">
        <ele>806</ele>
        <time>2012-01-07T09:28:28Z</time>
        <course>248.601275988881</course>
        <speed>2.30685091023895</speed>
      </trkpt>
      <trkpt lat="43.79039" lon="6.99021">
        <ele>814</ele>
        <time>2012-01-07T09:28:54Z</time>
        <course>250.487798952108</course>
        <speed>1.92295050470403</speed>
      </trkpt>
      <trkpt lat="43.79031" lon="6.99044">
        <ele>817</ele>
        <time>2012-01-07T09:29:05Z</time>
        <course>260.739696604039</course>
        <speed>1.92326223316397</speed>
      </trkpt>
      <trkpt lat="43.79023" lon="6.99094">
        <ele>824</ele>
        <time>2012-01-07T09:29:26Z</time>
        <course>249.09042471205</course>
        <speed>1.92325155709784</speed>
      </trkpt>
      <trkpt lat="43.79014" lon="6.99118">
        <ele>827</ele>
        <time>2012-01-07T09:29:37Z</time>
        <course>245.259324900506</course>
        <speed>1.92315797601841</speed>
      </trkpt>
      <trkpt lat="43.78962" lon="6.99233">
        <ele>846</ele>
        <time>2012-01-07T09:30:34Z</time>
        <course>227.705263323392</course>
        <speed>8.32726816165897</speed>
      </trkpt>
      <trkpt lat="43.78937" lon="6.99261">
        <ele>844</ele>
        <time>2012-01-07T09:30:38Z</time>
        <course>264.707321227338</course>
        <speed>8.31166594931159</speed>
      </trkpt>
      <trkpt lat="43.78936" lon="6.99272">
        <ele>843</ele>
        <time>2012-01-07T09:30:39Z</time>
        <course>306.046221989987</course>
        <speed>8.31504997368412</speed>
      </trkpt>
      <trkpt lat="43.78941" lon="6.99279">
        <ele>843</ele>
        <time>2012-01-07T09:30:40Z</time>
        <course>24.0429113151059</course>
        <speed>8.29962299340555</speed>
      </trkpt>
      <trkpt lat="43.78952" lon="6.99274">
        <ele>842</ele>
        <time>2012-01-07T09:30:42Z</time>
        <course>51.4353677627008</course>
        <speed>8.3214890961044</speed>
      </trkpt>
      <trkpt lat="43.78988" lon="6.99228">
        <ele>840</ele>
        <time>2012-01-07T09:30:48Z</time>
        <course>41.3204578274373</course>
        <speed>8.31637197001802</speed>
      </trkpt>
      <trkpt lat="43.79055" lon="6.99168">
        <ele>836</ele>
        <time>2012-01-07T09:30:59Z</time>
        <course>57.9938782973524</course>
        <speed>3.32065825296339</speed>
      </trkpt>
      <trkpt lat="43.79082" lon="6.99124">
        <ele>839</ele>
        <time>2012-01-07T09:31:13Z</time>
        <course>19.735213195841</course>
        <speed>3.31991897555741</speed>
      </trkpt>
      <trkpt lat="43.79134" lon="6.99105">
        <ele>844</ele>
        <time>2012-01-07T09:31:31Z</time>
        <course>36.9005942828297</course>
        <speed>4.01814260448067</speed>
      </trkpt>
      <trkpt lat="43.79151" lon="6.99092">
        <ele>845</ele>
        <time>2012-01-07T09:31:36Z</time>
        <course>47.4914221812444</course>
        <speed>4.01887463509371</speed>
      </trkpt>
      <trkpt lat="43.7916" lon="6.99082">
        <ele>845</ele>
        <time>2012-01-07T09:31:39Z</time>
        <course>62.0595010451247</course>
        <speed>4.01674613008723</speed>
      </trkpt>
      <trkpt lat="43.79185" lon="6.99034">
        <ele>848</ele>
        <time>2012-01-07T09:31:51Z</time>
        <course>75.000395293325</course>
        <speed>4.01856165108579</speed>
      </trkpt>
      <trkpt lat="43.792" lon="6.98977">
        <ele>851</ele>
        <time>2012-01-07T09:32:03Z</time>
        <course>33.2104119761353</course>
        <speed>3.02002418890824</speed>
      </trkpt>
      <trkpt lat="43.79206" lon="6.98973">
        <ele>851</ele>
        <time>2012-01-07T09:32:06Z</time>
        <course>324.953743819692</course>
        <speed>3.0281989152018</speed>
      </trkpt>
      <trkpt lat="43.79213" lon="6.98978">
        <ele>852</ele>
        <time>2012-01-07T09:32:09Z</time>
        <course>277.253998297229</course>
        <speed>3.02907165946699</speed>
      </trkpt>
      <trkpt lat="43.79214" lon="6.98986">
        <ele>852</ele>
        <time>2012-01-07T09:32:11Z</time>
        <course>252.375946740598</course>
        <speed>3.02579552807422</speed>
      </trkpt>
      <trkpt lat="43.79161" lon="6.99156">
        <ele>866</ele>
        <time>2012-01-07T09:33:00Z</time>
        <course>235.044949858584</course>
        <speed>8.31307270835032</speed>
      </trkpt>
      <trkpt lat="43.79126" lon="6.99207">
        <ele>862</ele>
        <time>2012-01-07T09:33:07Z</time>
        <course>228.235635322535</course>
        <speed>8.31616915830815</speed>
      </trkpt>
      <trkpt lat="43.79055" lon="6.99288">
        <ele>856</ele>
        <time>2012-01-07T09:33:19Z</time>
        <course>236.951559820262</course>
        <speed>4.47058905559136</speed>
      </trkpt>
      <trkpt lat="43.78972" lon="6.99418">
        <ele>862</ele>
        <time>2012-01-07T09:33:50Z</time>
        <course>245.364564342339</course>
        <speed>3.26511899590619</speed>
      </trkpt>
      <trkpt lat="43.78936" lon="6.99498">
        <ele>867</ele>
        <time>2012-01-07T09:34:13Z</time>
        <course>242.225613201251</course>
        <speed>3.2647987998182</speed>
      </trkpt>
      <trkpt lat="43.78827" lon="6.99709">
        <ele>884</ele>
        <time>2012-01-07T09:35:17Z</time>
        <course>243.738680990393</course>
        <speed>2.99419920391359</speed>
      </trkpt>
      <trkpt lat="43.78737" lon="6.99895">
        <ele>900</ele>
        <time>2012-01-07T09:36:17Z</time>
        <course>247.443101923088</course>
        <speed>3.76630893899391</speed>
      </trkpt>
      <trkpt lat="43.78704" lon="6.99976">
        <ele>904</ele>
        <time>2012-01-07T09:36:37Z</time>
        <course>253.755575120962</course>
        <speed>3.76662812564084</speed>
      </trkpt>
      <trkpt lat="43.78674" lon="7.00081">
        <ele>910</ele>
        <time>2012-01-07T09:37:01Z</time>
        <course>260.147963922109</course>
        <speed>3.50351417480014</speed>
      </trkpt>
      <trkpt lat="43.7865" lon="7.00222">
        <ele>918</ele>
        <time>2012-01-07T09:37:34Z</time>
        <course>255.857865634184</course>
        <speed>5.39847246548231</speed>
      </trkpt>
      <trkpt lat="43.78629" lon="7.00307">
        <ele>919</ele>
        <time>2012-01-07T09:37:47Z</time>
        <course>266.351346697593</course>
        <speed>5.39802133356736</speed>
      </trkpt>
      <trkpt lat="43.78626" lon="7.00355">
        <ele>921</ele>
        <time>2012-01-07T09:37:55Z</time>
        <course>269.477061946625</course>
        <speed>4.20504180489278</speed>
      </trkpt>
      <trkpt lat="43.78624" lon="7.00584">
        <ele>930</ele>
        <time>2012-01-07T09:38:38Z</time>
        <course>265.08086541347</course>
        <speed>4.7543142943359</speed>
      </trkpt>
      <trkpt lat="43.78617" lon="7.00667">
        <ele>932</ele>
        <time>2012-01-07T09:38:52Z</time>
        <course>271.594239494596</course>
        <speed>4.75454061590102</speed>
      </trkpt>
      <trkpt lat="43.78622" lon="7.00849">
        <ele>938</ele>
        <time>2012-01-07T09:39:23Z</time>
        <course>257.793000814586</course>
        <speed>4.6372921250471</speed>
      </trkpt>
      <trkpt lat="43.78608" lon="7.00915">
        <ele>940</ele>
        <time>2012-01-07T09:39:35Z</time>
        <course>265.679517038302</course>
        <speed>4.63261791945812</speed>
      </trkpt>
      <trkpt lat="43.78606" lon="7.00942">
        <ele>941</ele>
        <time>2012-01-07T09:39:40Z</time>
        <course>276.136524887804</course>
        <speed>4.63504883176196</speed>
      </trkpt>
      <trkpt lat="43.78632" lon="7.01188">
        <ele>949</ele>
        <time>2012-01-07T09:40:23Z</time>
        <course>270.716602568705</course>
        <speed>7.18893637894591</speed>
      </trkpt>
      <trkpt lat="43.78633" lon="7.01269">
        <ele>949</ele>
        <time>2012-01-07T09:40:32Z</time>
        <course>264.700447080861</course>
        <speed>7.18909071326335</speed>
      </trkpt>
      <trkpt lat="43.78626" lon="7.01346">
        <ele>950</ele>
        <time>2012-01-07T09:40:40Z</time>
        <course>275.104084858568</course>
        <speed>4.12556401689975</speed>
      </trkpt>
      <trkpt lat="43.78636" lon="7.0146">
        <ele>954</ele>
        <time>2012-01-07T09:41:03Z</time>
        <course>266.352294230697</course>
        <speed>4.1292504931521</speed>
      </trkpt>
      <trkpt lat="43.78634" lon="7.01492">
        <ele>956</ele>
        <time>2012-01-07T09:41:09Z</time>
        <course>258.308772249202</course>
        <speed>7.07216238236996</speed>
      </trkpt>
      <trkpt lat="43.7862" lon="7.01561">
        <ele>956</ele>
        <time>2012-01-07T09:41:17Z</time>
        <course>273.378596929801</course>
        <speed>7.07392512529994</speed>
      </trkpt>
      <trkpt lat="43.78624" lon="7.0163">
        <ele>957</ele>
        <time>2012-01-07T09:41:25Z</time>
        <course>264.315049933344</course>
        <speed>4.57784665187275</speed>
      </trkpt>
      <trkpt lat="43.78616" lon="7.01712">
        <ele>959</ele>
        <time>2012-01-07T09:41:39Z</time>
        <course>270.578554349737</course>
        <speed>4.57923865903538</speed>
      </trkpt>
      <trkpt lat="43.78617" lon="7.01812">
        <ele>963</ele>
        <time>2012-01-07T09:41:57Z</time>
        <course>261.973938011368</course>
        <speed>4.59537169216319</speed>
      </trkpt>
      <trkpt lat="43.78592" lon="7.01993">
        <ele>969</ele>
        <time>2012-01-07T09:42:29Z</time>
        <course>264.394851554333</course>
        <speed>2.8415445498105</speed>
      </trkpt>
      <trkpt lat="43.78582" lon="7.02097">
        <ele>977</ele>
        <time>2012-01-07T09:42:59Z</time>
        <course>268.82896938322</course>
        <speed>2.84177809809407</speed>
      </trkpt>
      <trkpt lat="43.78581" lon="7.02147">
        <ele>981</ele>
        <time>2012-01-07T09:43:13Z</time>
        <course>277.551506411352</course>
        <speed>6.8992965077512</speed>
      </trkpt>
      <trkpt lat="43.78612" lon="7.02385">
        <ele>983</ele>
        <time>2012-01-07T09:43:41Z</time>
        <course>283.995637463931</course>
        <speed>8.31788913439815</speed>
      </trkpt>
      <trkpt lat="43.78721" lon="7.0283">
        <ele>980</ele>
        <time>2012-01-07T09:44:26Z</time>
        <course>278.960003199524</course>
        <speed>8.32307183795051</speed>
      </trkpt>
      <trkpt lat="43.78734" lon="7.02914">
        <ele>978</ele>
        <time>2012-01-07T09:44:35Z</time>
        <course>287.160984482699</course>
        <speed>8.32169360398531</speed>
      </trkpt>
      <trkpt lat="43.78754" lon="7.0298">
        <ele>978</ele>
        <time>2012-01-07T09:44:42Z</time>
        <course>290.794468406107</course>
        <speed>8.31935230180831</speed>
      </trkpt>
      <trkpt lat="43.78817" lon="7.03149">
        <ele>973</ele>
        <time>2012-01-07T09:45:00Z</time>
        <course>281.421059613573</course>
        <speed>8.31904909000078</speed>
      </trkpt>
      <trkpt lat="43.78841" lon="7.0327">
        <ele>969</ele>
        <time>2012-01-07T09:45:12Z</time>
        <course>303.728268944335</course>
        <speed>8.31092129207078</speed>
      </trkpt>
      <trkpt lat="43.7886" lon="7.03299">
        <ele>966</ele>
        <time>2012-01-07T09:45:16Z</time>
        <course>319.619053866048</course>
        <speed>8.33109816254148</speed>
      </trkpt>
      <trkpt lat="43.78875" lon="7.03312">
        <ele>965</ele>
        <time>2012-01-07T09:45:18Z</time>
        <course>331.015954419263</course>
        <speed>8.31762098443746</speed>
      </trkpt>
      <trkpt lat="43.78976" lon="7.03369">
        <ele>957</ele>
        <time>2012-01-07T09:45:33Z</time>
        <course>21.8779420634713</course>
        <speed>8.33010483629015</speed>
      </trkpt>
      <trkpt lat="43.78998" lon="7.0336">
        <ele>955</ele>
        <time>2012-01-07T09:45:36Z</time>
        <course>46.5414790488445</course>
        <speed>8.32271063214681</speed>
      </trkpt>
      <trkpt lat="43.79038" lon="7.03317">
        <ele>953</ele>
        <time>2012-01-07T09:45:43Z</time>
        <course>302.483911654504</course>
        <speed>8.32176034683453</speed>
      </trkpt>
      <trkpt lat="43.79043" lon="7.03325">
        <ele>952</ele>
        <time>2012-01-07T09:45:44Z</time>
        <course>246.960488158407</course>
        <speed>8.31602015849302</speed>
      </trkpt>
      <trkpt lat="43.7899" lon="7.03452">
        <ele>947</ele>
        <time>2012-01-07T09:45:58Z</time>
        <course>264.542328415424</course>
        <speed>8.32300437883836</speed>
      </trkpt>
      <trkpt lat="43.78987" lon="7.03484">
        <ele>946</ele>
        <time>2012-01-07T09:46:01Z</time>
        <course>279.961067798803</course>
        <speed>8.30444657415986</speed>
      </trkpt>
      <trkpt lat="43.78992" lon="7.03513">
        <ele>945</ele>
        <time>2012-01-07T09:46:04Z</time>
        <course>266.113634899003</course>
        <speed>8.3334698737599</speed>
      </trkpt>
      <trkpt lat="43.78991" lon="7.03528">
        <ele>944</ele>
        <time>2012-01-07T09:46:05Z</time>
        <course>248.682486075365</course>
        <speed>8.31940077058245</speed>
      </trkpt>
      <trkpt lat="43.78973" lon="7.03575">
        <ele>943</ele>
        <time>2012-01-07T09:46:10Z</time>
        <course>267.495966986717</course>
        <speed>8.32099543926416</speed>
      </trkpt>
      <trkpt lat="43.7897" lon="7.03645">
        <ele>942</ele>
        <time>2012-01-07T09:46:17Z</time>
        <course>252.946201466813</course>
        <speed>7.39189577564823</speed>
      </trkpt>
      <trkpt lat="43.78939" lon="7.03748">
        <ele>942</ele>
        <time>2012-01-07T09:46:29Z</time>
        <course>246.216733457756</course>
        <speed>7.39269160193443</speed>
      </trkpt>
      <trkpt lat="43.78907" lon="7.03822">
        <ele>943</ele>
        <time>2012-01-07T09:46:38Z</time>
        <course>226.505928315096</course>
        <speed>5.8859743190164</speed>
      </trkpt>
      <trkpt lat="43.7888" lon="7.03851">
        <ele>943</ele>
        <time>2012-01-07T09:46:45Z</time>
        <course>238.555852681097</course>
        <speed>5.8930499015048</speed>
      </trkpt>
      <trkpt lat="43.78862" lon="7.03881">
        <ele>944</ele>
        <time>2012-01-07T09:46:50Z</time>
        <course>247.089069701883</course>
        <speed>5.88946521981953</speed>
      </trkpt>
      <trkpt lat="43.78828" lon="7.03963">
        <ele>946</ele>
        <time>2012-01-07T09:47:03Z</time>
        <course>261.30745469321</course>
        <speed>8.31788069034364</speed>
      </trkpt>
      <trkpt lat="43.78825" lon="7.03983">
        <ele>945</ele>
        <time>2012-01-07T09:47:05Z</time>
        <course>270.734729443501</course>
        <speed>8.31781790577721</speed>
      </trkpt>
      <trkpt lat="43.78826" lon="7.04062">
        <ele>943</ele>
        <time>2012-01-07T09:47:13Z</time>
        <course>262.255945078894</course>
        <speed>8.31585829784795</speed>
      </trkpt>
      <trkpt lat="43.78812" lon="7.04167">
        <ele>941</ele>
        <time>2012-01-07T09:47:23Z</time>
        <course>250.602565741542</course>
        <speed>7.16128750229529</speed>
      </trkpt>
      <trkpt lat="43.78764" lon="7.04306">
        <ele>942</ele>
        <time>2012-01-07T09:47:40Z</time>
        <course>261.710400876071</course>
        <speed>8.31447715006051</speed>
      </trkpt>
      <trkpt lat="43.78751" lon="7.04397">
        <ele>937</ele>
        <time>2012-01-07T09:47:49Z</time>
        <course>256.15644591324</course>
        <speed>8.31965889343715</speed>
      </trkpt>
      <trkpt lat="43.78715" lon="7.04546">
        <ele>931</ele>
        <time>2012-01-07T09:48:04Z</time>
        <course>262.465524305885</course>
        <speed>8.31951879452638</speed>
      </trkpt>
      <trkpt lat="43.78675" lon="7.04855">
        <ele>925</ele>
        <time>2012-01-07T09:48:35Z</time>
        <course>255.700240848409</course>
        <speed>5.316243182167</speed>
      </trkpt>
      <trkpt lat="43.78667" lon="7.04887">
        <ele>925</ele>
        <time>2012-01-07T09:48:40Z</time>
        <course>239.772112197488</course>
        <speed>5.31565829178767</speed>
      </trkpt>
      <trkpt lat="43.78623" lon="7.04964">
        <ele>928</ele>
        <time>2012-01-07T09:48:55Z</time>
        <course>248.216264264888</course>
        <speed>5.12487314341516</speed>
      </trkpt>
      <trkpt lat="43.78594" lon="7.05038">
        <ele>930</ele>
        <time>2012-01-07T09:49:08Z</time>
        <course>214.464910694208</course>
        <speed>5.12358852058511</speed>
      </trkpt>
      <trkpt lat="43.78494" lon="7.05108">
        <ele>934</ele>
        <time>2012-01-07T09:49:32Z</time>
        <course>242.98088588033</course>
        <speed>8.32712282308688</speed>
      </trkpt>
      <trkpt lat="43.78478" lon="7.0514">
        <ele>932</ele>
        <time>2012-01-07T09:49:36Z</time>
        <course>267.089958604447</course>
        <speed>8.32029250061384</speed>
      </trkpt>
      <trkpt lat="43.7847" lon="7.05301">
        <ele>925</ele>
        <time>2012-01-07T09:49:51Z</time>
        <course>261.450064948457</course>
        <speed>8.31645072510239</speed>
      </trkpt>
      <trkpt lat="43.78451" lon="7.0543">
        <ele>925</ele>
        <time>2012-01-07T09:50:04Z</time>
        <course>272.861373910317</course>
        <speed>8.31768475191225</speed>
      </trkpt>
      <trkpt lat="43.78473" lon="7.05875">
        <ele>908</ele>
        <time>2012-01-07T09:50:47Z</time>
        <course>268.727349114324</course>
        <speed>6.01287874602106</speed>
      </trkpt>
      <trkpt lat="43.78472" lon="7.05921">
        <ele>908</ele>
        <time>2012-01-07T09:50:53Z</time>
        <course>254.69503739419</course>
        <speed>6.008398948813</speed>
      </trkpt>
      <trkpt lat="43.78461" lon="7.05962">
        <ele>909</ele>
        <time>2012-01-07T09:50:59Z</time>
        <course>239.364685886003</course>
        <speed>6.01026017800686</speed>
      </trkpt>
      <trkpt lat="43.78443" lon="7.05993">
        <ele>910</ele>
        <time>2012-01-07T09:51:04Z</time>
        <course>225.064453205245</course>
        <speed>2.12009356803664</speed>
      </trkpt>
      <trkpt lat="43.78354" lon="7.06084">
        <ele>928</ele>
        <time>2012-01-07T09:52:02Z</time>
        <course>237.657749908239</course>
        <speed>8.31464044699259</speed>
      </trkpt>
      <trkpt lat="43.78336" lon="7.06113">
        <ele>924</ele>
        <time>2012-01-07T09:52:06Z</time>
        <course>267.911887275093</course>
        <speed>8.32973411121337</speed>
      </trkpt>
      <trkpt lat="43.78335" lon="7.06141">
        <ele>921</ele>
        <time>2012-01-07T09:52:09Z</time>
        <course>282.402813318676</course>
        <speed>8.31570960433942</speed>
      </trkpt>
      <trkpt lat="43.78357" lon="7.06243">
        <ele>911</ele>
        <time>2012-01-07T09:52:19Z</time>
        <course>270.484400784661</course>
        <speed>8.31647003255095</speed>
      </trkpt>
      <trkpt lat="43.78358" lon="7.06362">
        <ele>886</ele>
        <time>2012-01-07T09:52:30Z</time>
        <course>258.779006088979</course>
        <speed>8.30827979328913</speed>
      </trkpt>
      <trkpt lat="43.78351" lon="7.06398">
        <ele>879</ele>
        <time>2012-01-07T09:52:34Z</time>
        <course>236.743254168162</course>
        <speed>1.62228892815773</speed>
      </trkpt>
      <trkpt lat="43.78342" lon="7.06412">
        <ele>882</ele>
        <time>2012-01-07T09:52:43Z</time>
        <course>210.462319123536</course>
        <speed>1.62329025570947</speed>
      </trkpt>
      <trkpt lat="43.78332" lon="7.06418">
        <ele>884</ele>
        <time>2012-01-07T09:52:51Z</time>
        <course>192.588512381749</course>
        <speed>1.62255320822315</speed>
      </trkpt>
      <trkpt lat="43.78253" lon="7.06436">
        <ele>903</ele>
        <time>2012-01-07T09:53:46Z</time>
        <course>198.090486522917</course>
        <speed>1.08601044347941</speed>
      </trkpt>
      <trkpt lat="43.78199" lon="7.06454">
        <ele>923</ele>
        <time>2012-01-07T09:54:42Z</time>
        <course>164.773389513537</course>
        <speed>1.08606235067564</speed>
      </trkpt>
      <trkpt lat="43.78145" lon="7.06439">
        <ele>944</ele>
        <time>2012-01-07T09:55:39Z</time>
        <course>202.515204583931</course>
        <speed>8.32203091385187</speed>
      </trkpt>
      <trkpt lat="43.78093" lon="7.06461">
        <ele>937</ele>
        <time>2012-01-07T09:55:46Z</time>
        <course>211.748753492236</course>
        <speed>8.31692401640197</speed>
      </trkpt>
      <trkpt lat="43.78074" lon="7.06473">
        <ele>935</ele>
        <time>2012-01-07T09:55:49Z</time>
        <course>225.492948111158</course>
        <speed>8.32025338050669</speed>
      </trkpt>
      <trkpt lat="43.78048" lon="7.065">
        <ele>932</ele>
        <time>2012-01-07T09:55:53Z</time>
        <course>235.136734632048</course>
        <speed>8.31833046914453</speed>
      </trkpt>
      <trkpt lat="43.7799" lon="7.06585">
        <ele>926</ele>
        <time>2012-01-07T09:56:04Z</time>
        <course>201.395048222153</course>
        <speed>8.31430943709941</speed>
      </trkpt>
      <trkpt lat="43.77945" lon="7.06603">
        <ele>923</ele>
        <time>2012-01-07T09:56:11Z</time>
        <course>226.697481448524</course>
        <speed>8.29848694340006</speed>
      </trkpt>
      <trkpt lat="43.77933" lon="7.06616">
        <ele>922</ele>
        <time>2012-01-07T09:56:13Z</time>
        <course>242.25565517159</course>
        <speed>8.31818737317701</speed>
      </trkpt>
      <trkpt lat="43.77916" lon="7.06649">
        <ele>921</ele>
        <time>2012-01-07T09:56:17Z</time>
        <course>249.525055274545</course>
        <speed>8.32179335125523</speed>
      </trkpt>
      <trkpt lat="43.77882" lon="7.06742">
        <ele>920</ele>
        <time>2012-01-07T09:56:27Z</time>
        <course>228.024800565646</course>
        <speed>2.52656595098225</speed>
      </trkpt>
      <trkpt lat="43.77845" lon="7.06784">
        <ele>926</ele>
        <time>2012-01-07T09:56:48Z</time>
        <course>244.893480909289</course>
        <speed>2.52642701237168</speed>
      </trkpt>
      <trkpt lat="43.77795" lon="7.06893">
        <ele>938</ele>
        <time>2012-01-07T09:57:29Z</time>
        <course>236.494518931485</course>
        <speed>8.31725441143915</speed>
      </trkpt>
      <trkpt lat="43.7776" lon="7.06947">
        <ele>935</ele>
        <time>2012-01-07T09:57:36Z</time>
        <course>243.253382124683</course>
        <speed>8.31950743525602</speed>
      </trkpt>
      <trkpt lat="43.77723" lon="7.07022">
        <ele>932</ele>
        <time>2012-01-07T09:57:45Z</time>
        <course>251.195858550884</course>
        <speed>8.30827969590075</speed>
      </trkpt>
      <trkpt lat="43.77712" lon="7.07055">
        <ele>923</ele>
        <time>2012-01-07T09:57:48Z</time>
        <course>265.416722319156</course>
        <speed>8.31502886898251</speed>
      </trkpt>
      <trkpt lat="43.77708" lon="7.07106">
        <ele>911</ele>
        <time>2012-01-07T09:57:53Z</time>
        <course>247.773721582263</course>
        <speed>8.31946166841495</speed>
      </trkpt>
      <trkpt lat="43.77692" lon="7.07146">
        <ele>901</ele>
        <time>2012-01-07T09:57:57Z</time>
        <course>256.328093044807</course>
        <speed>2.07501285328198</speed>
      </trkpt>
      <trkpt lat="43.77682" lon="7.07188">
        <ele>906</ele>
        <time>2012-01-07T09:58:15Z</time>
        <course>239.997774337761</course>
        <speed>2.073917888585</speed>
      </trkpt>
      <trkpt lat="43.77669" lon="7.07211">
        <ele>909</ele>
        <time>2012-01-07T09:58:26Z</time>
        <course>210.427453265764</course>
        <speed>2.07599339876324</speed>
      </trkpt>
      <trkpt lat="43.77654" lon="7.0722">
        <ele>912</ele>
        <time>2012-01-07T09:58:35Z</time>
        <course>184.306157586037</course>
        <speed>2.07573378139938</speed>
      </trkpt>
      <trkpt lat="43.77641" lon="7.07221">
        <ele>914</ele>
        <time>2012-01-07T09:58:42Z</time>
        <course>159.728544646773</course>
        <speed>2.07479977231985</speed>
      </trkpt>
      <trkpt lat="43.77588" lon="7.07201">
        <ele>924</ele>
        <time>2012-01-07T09:59:11Z</time>
        <course>185.943895899456</course>
        <speed>8.31432581736913</speed>
      </trkpt>
      <trkpt lat="43.77541" lon="7.07206">
        <ele>913</ele>
        <time>2012-01-07T09:59:17Z</time>
        <course>198.066613406549</course>
        <speed>8.31783938873057</speed>
      </trkpt>
      <trkpt lat="43.77514" lon="7.07215">
        <ele>907</ele>
        <time>2012-01-07T09:59:21Z</time>
        <course>219.986558190897</course>
        <speed>8.31604359632165</speed>
      </trkpt>
      <trkpt lat="43.77465" lon="7.07257">
        <ele>894</ele>
        <time>2012-01-07T09:59:29Z</time>
        <course>197.001824282582</course>
        <speed>3.44215410638854</speed>
      </trkpt>
      <trkpt lat="43.77433" lon="7.07267">
        <ele>896</ele>
        <time>2012-01-07T09:59:39Z</time>
        <course>161.33059932202</course>
        <speed>3.44138003970466</speed>
      </trkpt>
      <trkpt lat="43.77268" lon="7.0721">
        <ele>910</ele>
        <time>2012-01-07T10:00:34Z</time>
        <course>151.793437208154</course>
        <speed>2.60729339834955</speed>
      </trkpt>
      <trkpt lat="43.77237" lon="7.07193">
        <ele>914</ele>
        <time>2012-01-07T10:00:48Z</time>
        <course>145.129766919115</course>
        <speed>2.60665994843386</speed>
      </trkpt>
      <trkpt lat="43.7715" lon="7.07131">
        <ele>926</ele>
        <time>2012-01-07T10:01:30Z</time>
        <course>160.660661815274</course>
        <speed>8.32139841219424</speed>
      </trkpt>
      <trkpt lat="43.77072" lon="7.07103">
        <ele>923</ele>
        <time>2012-01-07T10:01:41Z</time>
        <course>134.677548962605</course>
        <speed>8.31061586413402</speed>
      </trkpt>
      <trkpt lat="43.77043" lon="7.07073">
        <ele>922</ele>
        <time>2012-01-07T10:01:46Z</time>
        <course>112.567125078207</course>
        <speed>8.32256531335629</speed>
      </trkpt>
      <trkpt lat="43.7703" lon="7.07041">
        <ele>921</ele>
        <time>2012-01-07T10:01:49Z</time>
        <course>96.3121936215004</course>
        <speed>8.31655869518076</speed>
      </trkpt>
      <trkpt lat="43.77011" lon="7.06865">
        <ele>921</ele>
        <time>2012-01-07T10:02:06Z</time>
        <course>105.863693965362</course>
        <speed>5.52690889303839</speed>
      </trkpt>
      <trkpt lat="43.77006" lon="7.06847">
        <ele>921</ele>
        <time>2012-01-07T10:02:09Z</time>
        <course>122.345934177873</course>
        <speed>5.52119655422843</speed>
      </trkpt>
      <trkpt lat="43.76993" lon="7.06826">
        <ele>921</ele>
        <time>2012-01-07T10:02:13Z</time>
        <course>141.974387933058</course>
        <speed>5.53145319246486</speed>
      </trkpt>
      <trkpt lat="43.76983" lon="7.06818">
        <ele>922</ele>
        <time>2012-01-07T10:02:16Z</time>
        <course>166.724616117011</course>
        <speed>5.52545192193655</speed>
      </trkpt>
      <trkpt lat="43.76954" lon="7.06811">
        <ele>923</ele>
        <time>2012-01-07T10:02:21Z</time>
        <course>208.693623367805</course>
        <speed>5.52869171066969</speed>
      </trkpt>
      <trkpt lat="43.76929" lon="7.06825">
        <ele>923</ele>
        <time>2012-01-07T10:02:27Z</time>
        <course>231.764942293616</course>
        <speed>5.52446505204976</speed>
      </trkpt>
      <trkpt lat="43.76822" lon="7.06964">
        <ele>928</ele>
        <time>2012-01-07T10:02:56Z</time>
        <course>212.507255432398</course>
        <speed>4.8875770588594</speed>
      </trkpt>
      <trkpt lat="43.76799" lon="7.06979">
        <ele>928</ele>
        <time>2012-01-07T10:03:02Z</time>
        <course>196.046678937277</course>
        <speed>4.88379846029062</speed>
      </trkpt>
      <trkpt lat="43.76524" lon="7.0706">
        <ele>940</ele>
        <time>2012-01-07T10:04:06Z</time>
        <course>211.254321625733</course>
        <speed>6.33413186663328</speed>
      </trkpt>
      <trkpt lat="43.7645" lon="7.07106">
        <ele>941</ele>
        <time>2012-01-07T10:04:20Z</time>
        <course>205.037497255412</course>
        <speed>6.3331148488221</speed>
      </trkpt>
      <trkpt lat="43.7631" lon="7.07173">
        <ele>944</ele>
        <time>2012-01-07T10:04:46Z</time>
        <course>232.457738423365</course>
        <speed>3.11642959389253</speed>
      </trkpt>
      <trkpt lat="43.76274" lon="7.07221">
        <ele>948</ele>
        <time>2012-01-07T10:05:04Z</time>
        <course>219.910550784756</course>
        <speed>3.11616608309911</speed>
      </trkpt>
      <trkpt lat="43.76225" lon="7.07263">
        <ele>954</ele>
        <time>2012-01-07T10:05:25Z</time>
        <course>230.321560768114</course>
        <speed>4.70547964549745</speed>
      </trkpt>
      <trkpt lat="43.76208" lon="7.07284">
        <ele>954</ele>
        <time>2012-01-07T10:05:30Z</time>
        <course>242.123182742213</course>
        <speed>4.70436294921316</speed>
      </trkpt>
      <trkpt lat="43.76192" lon="7.07315">
        <ele>956</ele>
        <time>2012-01-07T10:05:37Z</time>
        <course>247.953495556361</course>
        <speed>4.70444631578756</speed>
      </trkpt>
      <trkpt lat="43.7616" lon="7.07396">
        <ele>959</ele>
        <time>2012-01-07T10:05:52Z</time>
        <course>239.748600807026</course>
        <speed>8.3225019130296</speed>
      </trkpt>
      <trkpt lat="43.76127" lon="7.07454">
        <ele>959</ele>
        <time>2012-01-07T10:05:59Z</time>
        <course>230.648300575864</course>
        <speed>8.31688635233958</speed>
      </trkpt>
      <trkpt lat="43.76111" lon="7.07474">
        <ele>959</ele>
        <time>2012-01-07T10:06:02Z</time>
        <course>215.254450028306</course>
        <speed>8.32101421594136</speed>
      </trkpt>
      <trkpt lat="43.76042" lon="7.07524">
        <ele>959</ele>
        <time>2012-01-07T10:06:13Z</time>
        <course>206.998622930161</course>
        <speed>8.31484896620607</speed>
      </trkpt>
      <trkpt lat="43.75975" lon="7.07559">
        <ele>956</ele>
        <time>2012-01-07T10:06:22Z</time>
        <course>229.486042560546</course>
        <speed>8.32340718921327</speed>
      </trkpt>
      <trkpt lat="43.75945" lon="7.07595">
        <ele>955</ele>
        <time>2012-01-07T10:06:28Z</time>
        <course>236.525666610078</course>
        <speed>8.31763146621377</speed>
      </trkpt>
      <trkpt lat="43.75896" lon="7.07671">
        <ele>945</ele>
        <time>2012-01-07T10:06:37Z</time>
        <course>221.8946193352</course>
        <speed>8.31763025836559</speed>
      </trkpt>
      <trkpt lat="43.75871" lon="7.07694">
        <ele>942</ele>
        <time>2012-01-07T10:06:41Z</time>
        <course>189.230517966957</course>
        <speed>8.32479163895608</speed>
      </trkpt>
      <trkpt lat="43.75853" lon="7.07697">
        <ele>940</ele>
        <time>2012-01-07T10:06:44Z</time>
        <course>166.75669744954</course>
        <speed>8.32337343620383</speed>
      </trkpt>
      <trkpt lat="43.75824" lon="7.0769">
        <ele>937</ele>
        <time>2012-01-07T10:06:48Z</time>
        <course>138.961645284789</course>
        <speed>8.31959300096346</speed>
      </trkpt>
      <trkpt lat="43.75796" lon="7.07665">
        <ele>934</ele>
        <time>2012-01-07T10:06:52Z</time>
        <course>112.309229608234</course>
        <speed>8.31018732173159</speed>
      </trkpt>
      <trkpt lat="43.75786" lon="7.0764">
        <ele>933</ele>
        <time>2012-01-07T10:06:55Z</time>
        <course>102.019209365187</course>
        <speed>6.14322047132481</speed>
      </trkpt>
      <trkpt lat="43.75758" lon="7.07505">
        <ele>935</ele>
        <time>2012-01-07T10:07:13Z</time>
        <course>114.040115156529</course>
        <speed>8.31894209724402</speed>
      </trkpt>
      <trkpt lat="43.75738" lon="7.07459">
        <ele>931</ele>
        <time>2012-01-07T10:07:19Z</time>
        <course>133.003025025334</course>
        <speed>8.29954718270922</speed>
      </trkpt>
      <trkpt lat="43.75728" lon="7.07448">
        <ele>930</ele>
        <time>2012-01-07T10:07:20Z</time>
        <course>180</course>
        <speed>8.31510204097991</speed>
      </trkpt>
      <trkpt lat="43.75717" lon="7.07448">
        <ele>929</ele>
        <time>2012-01-07T10:07:22Z</time>
        <course>241.08267090428</course>
        <speed>8.34236124176711</speed>
      </trkpt>
      <trkpt lat="43.7571" lon="7.07461">
        <ele>928</ele>
        <time>2012-01-07T10:07:23Z</time>
        <course>278.104602008717</course>
        <speed>8.32326977034238</speed>
      </trkpt>
      <trkpt lat="43.7572" lon="7.07533">
        <ele>923</ele>
        <time>2012-01-07T10:07:30Z</time>
        <course>265.266567734515</course>
        <speed>8.31728894607724</speed>
      </trkpt>
      <trkpt lat="43.75715" lon="7.07595">
        <ele>919</ele>
        <time>2012-01-07T10:07:36Z</time>
        <course>259.882440187908</course>
        <speed>8.32774965649087</speed>
      </trkpt>
      <trkpt lat="43.75711" lon="7.07618">
        <ele>918</ele>
        <time>2012-01-07T10:07:39Z</time>
        <course>250.792014328754</course>
        <speed>8.31865894346916</speed>
      </trkpt>
      <trkpt lat="43.75674" lon="7.07727">
        <ele>901</ele>
        <time>2012-01-07T10:07:50Z</time>
        <course>262.332565693829</course>
        <speed>8.32093197320522</speed>
      </trkpt>
      <trkpt lat="43.75666" lon="7.07788">
        <ele>893</ele>
        <time>2012-01-07T10:07:56Z</time>
        <course>273.675961640629</course>
        <speed>8.31759909096149</speed>
      </trkpt>
      <trkpt lat="43.75678" lon="7.07979">
        <ele>885</ele>
        <time>2012-01-07T10:08:15Z</time>
        <course>277.962906307001</course>
        <speed>8.31903824377891</speed>
      </trkpt>
      <trkpt lat="43.75681" lon="7.08001">
        <ele>884</ele>
        <time>2012-01-07T10:08:17Z</time>
        <course>291.750153534384</course>
        <speed>8.32878810496585</speed>
      </trkpt>
      <trkpt lat="43.75688" lon="7.08019">
        <ele>884</ele>
        <time>2012-01-07T10:08:19Z</time>
        <course>313.343947645537</course>
        <speed>8.31021876943767</speed>
      </trkpt>
      <trkpt lat="43.75711" lon="7.08044">
        <ele>884</ele>
        <time>2012-01-07T10:08:23Z</time>
        <course>320.388399847843</course>
        <speed>8.31643058687458</speed>
      </trkpt>
      <trkpt lat="43.7583" lon="7.08145">
        <ele>884</ele>
        <time>2012-01-07T10:08:41Z</time>
        <course>325.541013822674</course>
        <speed>8.3202041977411</speed>
      </trkpt>
      <trkpt lat="43.75884" lon="7.08183">
        <ele>879</ele>
        <time>2012-01-07T10:08:50Z</time>
        <course>336.776459641819</course>
        <speed>8.32829877667661</speed>
      </trkpt>
      <trkpt lat="43.75909" lon="7.08194">
        <ele>877</ele>
        <time>2012-01-07T10:08:53Z</time>
        <course>349.377672206107</course>
        <speed>8.31012810753563</speed>
      </trkpt>
      <trkpt lat="43.75935" lon="7.08199">
        <ele>876</ele>
        <time>2012-01-07T10:08:57Z</time>
        <course>5.22438961147433</course>
        <speed>3.91216467166091</speed>
      </trkpt>
      <trkpt lat="43.75967" lon="7.08196">
        <ele>878</ele>
        <time>2012-01-07T10:09:06Z</time>
        <course>28.6169716152729</course>
        <speed>3.91301280046686</speed>
      </trkpt>
      <trkpt lat="43.76026" lon="7.08163">
        <ele>882</ele>
        <time>2012-01-07T10:09:24Z</time>
        <course>44.2901142401018</course>
        <speed>8.30735288045341</speed>
      </trkpt>
      <trkpt lat="43.76048" lon="7.08141">
        <ele>879</ele>
        <time>2012-01-07T10:09:27Z</time>
        <course>354.691938294279</course>
        <speed>8.32396359439754</speed>
      </trkpt>
      <trkpt lat="43.76069" lon="7.08143">
        <ele>878</ele>
        <time>2012-01-07T10:09:30Z</time>
        <course>311.968472755864</course>
        <speed>8.3176144516103</speed>
      </trkpt>
      <trkpt lat="43.76112" lon="7.08192">
        <ele>873</ele>
        <time>2012-01-07T10:09:38Z</time>
        <course>303.425930942213</course>
        <speed>8.31493221094886</speed>
      </trkpt>
      <trkpt lat="43.7615" lon="7.08251">
        <ele>869</ele>
        <time>2012-01-07T10:09:45Z</time>
        <course>290.144053272598</course>
        <speed>8.32044812794583</speed>
      </trkpt>
      <trkpt lat="43.76179" lon="7.08332">
        <ele>856</ele>
        <time>2012-01-07T10:09:54Z</time>
        <course>294.58027996412</course>
        <speed>8.32039929700898</speed>
      </trkpt>
      <trkpt lat="43.76204" lon="7.08388">
        <ele>848</ele>
        <time>2012-01-07T10:10:00Z</time>
        <course>320.274198248532</course>
        <speed>8.32006503521889</speed>
      </trkpt>
      <trkpt lat="43.76325" lon="7.08491">
        <ele>842</ele>
        <time>2012-01-07T10:10:19Z</time>
        <course>294.141237259432</course>
        <speed>8.34026196926263</speed>
      </trkpt>
      <trkpt lat="43.76332" lon="7.08507">
        <ele>840</ele>
        <time>2012-01-07T10:10:21Z</time>
        <course>234.652964013724</course>
        <speed>8.30567194672098</speed>
      </trkpt>
      <trkpt lat="43.76323" lon="7.0852">
        <ele>839</ele>
        <time>2012-01-07T10:10:23Z</time>
        <course>200.348510966745</course>
        <speed>8.31375429396683</speed>
      </trkpt>
      <trkpt lat="43.76273" lon="7.08539">
        <ele>835</ele>
        <time>2012-01-07T10:10:30Z</time>
        <course>194.904997134626</course>
        <speed>8.30536574482297</speed>
      </trkpt>
      <trkpt lat="43.76262" lon="7.08542">
        <ele>834</ele>
        <time>2012-01-07T10:10:31Z</time>
        <course>163.9845082918</course>
        <speed>8.32408141206292</speed>
      </trkpt>
      <trkpt lat="43.76245" lon="7.08537">
        <ele>833</ele>
        <time>2012-01-07T10:10:34Z</time>
        <course>153.07284142895</course>
        <speed>8.3167656928443</speed>
      </trkpt>
      <trkpt lat="43.76172" lon="7.08499">
        <ele>827</ele>
        <time>2012-01-07T10:10:44Z</time>
        <course>142.63478237497</course>
        <speed>3.19451310913057</speed>
      </trkpt>
      <trkpt lat="43.76149" lon="7.08481">
        <ele>829</ele>
        <time>2012-01-07T10:10:53Z</time>
        <course>125.118911406074</course>
        <speed>3.19547962945845</speed>
      </trkpt>
      <trkpt lat="43.7609" lon="7.08395">
        <ele>837</ele>
        <time>2012-01-07T10:11:23Z</time>
        <course>157.310373035201</course>
        <speed>8.30866813877056</speed>
      </trkpt>
      <trkpt lat="43.76076" lon="7.08389">
        <ele>834</ele>
        <time>2012-01-07T10:11:25Z</time>
        <course>201.316469076332</course>
        <speed>8.32115875493414</speed>
      </trkpt>
      <trkpt lat="43.76066" lon="7.08393">
        <ele>833</ele>
        <time>2012-01-07T10:11:26Z</time>
        <course>230.012551001633</course>
        <speed>8.33737275926978</speed>
      </trkpt>
      <trkpt lat="43.76057" lon="7.08404">
        <ele>831</ele>
        <time>2012-01-07T10:11:28Z</time>
        <course>256.75686515336</course>
        <speed>8.31195598889766</speed>
      </trkpt>
      <trkpt lat="43.76043" lon="7.08465">
        <ele>824</ele>
        <time>2012-01-07T10:11:34Z</time>
        <course>236.229139753429</course>
        <speed>8.31793046768219</speed>
      </trkpt>
      <trkpt lat="43.75998" lon="7.08534">
        <ele>815</ele>
        <time>2012-01-07T10:11:43Z</time>
        <course>245.657345605291</course>
        <speed>8.31600405843214</speed>
      </trkpt>
      <trkpt lat="43.75968" lon="7.08602">
        <ele>809</ele>
        <time>2012-01-07T10:11:51Z</time>
        <course>226.964123779136</course>
        <speed>8.31937794597112</speed>
      </trkpt>
      <trkpt lat="43.75907" lon="7.08669">
        <ele>801</ele>
        <time>2012-01-07T10:12:01Z</time>
        <course>180</course>
        <speed>8.33399999974063</speed>
      </trkpt>
      <trkpt lat="43.75892" lon="7.08669">
        <ele>799</ele>
        <time>2012-01-07T10:12:03Z</time>
        <course>158.334103072921</course>
        <speed>8.31763765832256</speed>
      </trkpt>
      <trkpt lat="43.75865" lon="7.08658">
        <ele>797</ele>
        <time>2012-01-07T10:12:07Z</time>
        <course>189.230143022568</course>
        <speed>8.31105459722377</speed>
      </trkpt>
      <trkpt lat="43.75835" lon="7.08663">
        <ele>795</ele>
        <time>2012-01-07T10:12:11Z</time>
        <course>157.682807920112</course>
        <speed>8.31690261521594</speed>
      </trkpt>
      <trkpt lat="43.75778" lon="7.08639">
        <ele>791</ele>
        <time>2012-01-07T10:12:19Z</time>
        <course>137.197346694391</course>
        <speed>8.31870757863299</speed>
      </trkpt>
      <trkpt lat="43.75758" lon="7.0862">
        <ele>790</ele>
        <time>2012-01-07T10:12:22Z</time>
        <course>101.596816842638</course>
        <speed>8.30944524373252</speed>
      </trkpt>
      <trkpt lat="43.75749" lon="7.08575">
        <ele>790</ele>
        <time>2012-01-07T10:12:27Z</time>
        <course>118.915551846267</course>
        <speed>8.34233256576296</speed>
      </trkpt>
      <trkpt lat="43.75742" lon="7.08562">
        <ele>789</ele>
        <time>2012-01-07T10:12:28Z</time>
        <course>150.880856883126</course>
        <speed>8.33155013906705</speed>
      </trkpt>
      <trkpt lat="43.75735" lon="7.08558">
        <ele>789</ele>
        <time>2012-01-07T10:12:29Z</time>
        <course>192.222262193985</course>
        <speed>8.30229654952075</speed>
      </trkpt>
      <trkpt lat="43.75717" lon="7.08562">
        <ele>789</ele>
        <time>2012-01-07T10:12:32Z</time>
        <course>218.752812720355</course>
        <speed>8.3256071056839</speed>
      </trkpt>
      <trkpt lat="43.75683" lon="7.0859">
        <ele>789</ele>
        <time>2012-01-07T10:12:37Z</time>
        <course>192.220096810907</course>
        <speed>8.31593150641518</speed>
      </trkpt>
      <trkpt lat="43.75638" lon="7.086">
        <ele>781</ele>
        <time>2012-01-07T10:12:43Z</time>
        <course>241.309608903304</course>
        <speed>8.31413723812956</speed>
      </trkpt>
      <trkpt lat="43.7563" lon="7.08615">
        <ele>779</ele>
        <time>2012-01-07T10:12:45Z</time>
        <course>269.997047089981</course>
        <speed>8.31529089715856</speed>
      </trkpt>
      <trkpt lat="43.7563" lon="7.08661">
        <ele>774</ele>
        <time>2012-01-07T10:12:49Z</time>
        <course>261.160884947976</course>
        <speed>8.32692022410293</speed>
      </trkpt>
      <trkpt lat="43.75625" lon="7.08694">
        <ele>771</ele>
        <time>2012-01-07T10:12:53Z</time>
        <course>246.258944498117</course>
        <speed>8.32206070328709</speed>
      </trkpt>
      <trkpt lat="43.75607" lon="7.08736">
        <ele>767</ele>
        <time>2012-01-07T10:12:57Z</time>
        <course>231.97891724485</course>
        <speed>8.30463453933944</speed>
      </trkpt>
      <trkpt lat="43.75591" lon="7.08757">
        <ele>764</ele>
        <time>2012-01-07T10:13:00Z</time>
        <course>221.84013746427</course>
        <speed>8.32150028478653</speed>
      </trkpt>
      <trkpt lat="43.75554" lon="7.08791">
        <ele>760</ele>
        <time>2012-01-07T10:13:06Z</time>
        <course>198.830584644446</course>
        <speed>8.305496616041</speed>
      </trkpt>
      <trkpt lat="43.75534" lon="7.08798">
        <ele>758</ele>
        <time>2012-01-07T10:13:09Z</time>
        <course>166.710911789789</course>
        <speed>8.30971486385741</speed>
      </trkpt>
      <trkpt lat="43.75501" lon="7.0879">
        <ele>756</ele>
        <time>2012-01-07T10:13:13Z</time>
        <course>212.05888984106</course>
        <speed>8.3262649004221</speed>
      </trkpt>
      <trkpt lat="43.75487" lon="7.08799">
        <ele>755</ele>
        <time>2012-01-07T10:13:15Z</time>
        <course>248.454923684556</course>
        <speed>8.32477841918967</speed>
      </trkpt>
      <trkpt lat="43.75477" lon="7.08825">
        <ele>754</ele>
        <time>2012-01-07T10:13:18Z</time>
        <course>258.498272302254</course>
        <speed>8.31486719551178</speed>
      </trkpt>
      <trkpt lat="43.75456" lon="7.08931">
        <ele>750</ele>
        <time>2012-01-07T10:13:29Z</time>
        <course>252.880900718787</course>
        <speed>8.31680019482476</speed>
      </trkpt>
      <trkpt lat="43.75444" lon="7.08971">
        <ele>746</ele>
        <time>2012-01-07T10:13:33Z</time>
        <course>244.564106889402</course>
        <speed>8.3176570387747</speed>
      </trkpt>
      <trkpt lat="43.754" lon="7.09066">
        <ele>739</ele>
        <time>2012-01-07T10:13:44Z</time>
        <course>233.88767473319</course>
        <speed>8.3236002332915</speed>
      </trkpt>
      <trkpt lat="43.75373" lon="7.09104">
        <ele>737</ele>
        <time>2012-01-07T10:13:49Z</time>
        <course>207.674278815377</course>
        <speed>8.33320861972708</speed>
      </trkpt>
      <trkpt lat="43.7536" lon="7.09111">
        <ele>736</ele>
        <time>2012-01-07T10:13:51Z</time>
        <course>180</course>
        <speed>8.31914438503759</speed>
      </trkpt>
      <trkpt lat="43.75346" lon="7.09111">
        <ele>736</ele>
        <time>2012-01-07T10:13:53Z</time>
        <course>147.328141968883</course>
        <speed>8.32523130560094</speed>
      </trkpt>
      <trkpt lat="43.75305" lon="7.09084">
        <ele>734</ele>
        <time>2012-01-07T10:13:59Z</time>
        <course>118.532746280994</course>
        <speed>6.03121653877351</speed>
      </trkpt>
      <trkpt lat="43.75287" lon="7.0905">
        <ele>734</ele>
        <time>2012-01-07T10:14:05Z</time>
        <course>105.890309090727</course>
        <speed>6.03164907876286</speed>
      </trkpt>
      <trkpt lat="43.75264" lon="7.08967">
        <ele>736</ele>
        <time>2012-01-07T10:14:16Z</time>
        <course>160.502002963964</course>
        <speed>8.31436137048417</speed>
      </trkpt>
      <trkpt lat="43.75253" lon="7.08963">
        <ele>734</ele>
        <time>2012-01-07T10:14:18Z</time>
        <course>221.228704077578</course>
        <speed>8.33568348602023</speed>
      </trkpt>
      <trkpt lat="43.75243" lon="7.08972">
        <ele>732</ele>
        <time>2012-01-07T10:14:19Z</time>
        <course>269.99895562092</course>
        <speed>8.33930643660911</speed>
      </trkpt>
      <trkpt lat="43.75243" lon="7.08988">
        <ele>730</ele>
        <time>2012-01-07T10:14:21Z</time>
        <course>287.120737357997</course>
        <speed>8.32500317084007</speed>
      </trkpt>
      <trkpt lat="43.75258" lon="7.09038">
        <ele>724</ele>
        <time>2012-01-07T10:14:26Z</time>
        <course>271.219628335107</course>
        <speed>8.31733780756235</speed>
      </trkpt>
      <trkpt lat="43.75262" lon="7.09229">
        <ele>704</ele>
        <time>2012-01-07T10:14:45Z</time>
        <course>276.508537898526</course>
        <speed>8.30552762543613</speed>
      </trkpt>
      <trkpt lat="43.75264" lon="7.09247">
        <ele>703</ele>
        <time>2012-01-07T10:14:46Z</time>
        <course>291.677217506366</course>
        <speed>8.32744326434238</speed>
      </trkpt>
      <trkpt lat="43.75276" lon="7.09278">
        <ele>701</ele>
        <time>2012-01-07T10:14:50Z</time>
        <course>319.117261798627</course>
        <speed>8.3226720271769</speed>
      </trkpt>
      <trkpt lat="43.75321" lon="7.09318">
        <ele>698</ele>
        <time>2012-01-07T10:14:57Z</time>
        <course>335.491232278633</course>
        <speed>8.31535873925145</speed>
      </trkpt>
      <trkpt lat="43.75368" lon="7.0934">
        <ele>696</ele>
        <time>2012-01-07T10:15:04Z</time>
        <course>5.38496172572406</course>
        <speed>8.32078463745763</speed>
      </trkpt>
      <trkpt lat="43.75399" lon="7.09337">
        <ele>693</ele>
        <time>2012-01-07T10:15:08Z</time>
        <course>37.9288565005425</course>
        <speed>8.30667903929388</speed>
      </trkpt>
      <trkpt lat="43.75419" lon="7.09321">
        <ele>691</ele>
        <time>2012-01-07T10:15:11Z</time>
        <course>52.8113201875488</course>
        <speed>8.305934992613</speed>
      </trkpt>
      <trkpt lat="43.75436" lon="7.09298">
        <ele>689</ele>
        <time>2012-01-07T10:15:14Z</time>
        <course>351.476438844094</course>
        <speed>8.30543915361964</speed>
      </trkpt>
      <trkpt lat="43.75449" lon="7.093">
        <ele>688</ele>
        <time>2012-01-07T10:15:16Z</time>
        <course>277.792630364237</course>
        <speed>8.32847538388328</speed>
      </trkpt>
      <trkpt lat="43.75451" lon="7.09315">
        <ele>688</ele>
        <time>2012-01-07T10:15:17Z</time>
        <course>247.300795799369</course>
        <speed>8.32125187735073</speed>
      </trkpt>
      <trkpt lat="43.75429" lon="7.09369">
        <ele>684</ele>
        <time>2012-01-07T10:15:23Z</time>
        <course>230.448696461593</course>
        <speed>8.3221592690553</speed>
      </trkpt>
      <trkpt lat="43.75392" lon="7.09415">
        <ele>680</ele>
        <time>2012-01-07T10:15:30Z</time>
        <course>209.246626465609</course>
        <speed>8.31966518409157</speed>
      </trkpt>
      <trkpt lat="43.75312" lon="7.09461">
        <ele>674</ele>
        <time>2012-01-07T10:15:41Z</time>
        <course>193.680302895867</course>
        <speed>8.3173663017815</speed>
      </trkpt>
      <trkpt lat="43.7522" lon="7.09484">
        <ele>660</ele>
        <time>2012-01-07T10:15:54Z</time>
        <course>226.895968739825</course>
        <speed>8.3176298977145</speed>
      </trkpt>
      <trkpt lat="43.75179" lon="7.09529">
        <ele>656</ele>
        <time>2012-01-07T10:16:01Z</time>
        <course>242.814587213635</course>
        <speed>8.33341336792062</speed>
      </trkpt>
      <trkpt lat="43.75172" lon="7.09543">
        <ele>655</ele>
        <time>2012-01-07T10:16:03Z</time>
        <course>259.955047944992</course>
        <speed>8.30946611931722</speed>
      </trkpt>
      <trkpt lat="43.75167" lon="7.09572">
        <ele>653</ele>
        <time>2012-01-07T10:16:05Z</time>
        <course>239.069042511221</course>
        <speed>8.30913272283146</speed>
      </trkpt>
      <trkpt lat="43.7516" lon="7.09584">
        <ele>653</ele>
        <time>2012-01-07T10:16:07Z</time>
        <course>181.186462134636</course>
        <speed>8.31728786803637</speed>
      </trkpt>
      <trkpt lat="43.75113" lon="7.09585">
        <ele>648</ele>
        <time>2012-01-07T10:16:13Z</time>
        <course>201.088381115492</course>
        <speed>8.32315015934949</speed>
      </trkpt>
      <trkpt lat="43.7506" lon="7.09606">
        <ele>644</ele>
        <time>2012-01-07T10:16:21Z</time>
        <course>188.456207636503</course>
        <speed>8.3153041268695</speed>
      </trkpt>
      <trkpt lat="43.74988" lon="7.09617">
        <ele>637</ele>
        <time>2012-01-07T10:16:30Z</time>
        <course>205.03555354844</course>
        <speed>8.32933535691873</speed>
      </trkpt>
      <trkpt lat="43.74963" lon="7.09629">
        <ele>635</ele>
        <time>2012-01-07T10:16:34Z</time>
        <course>223.244442028817</course>
        <speed>8.31475135539839</speed>
      </trkpt>
      <trkpt lat="43.74933" lon="7.09658">
        <ele>634</ele>
        <time>2012-01-07T10:16:39Z</time>
        <course>174.442827419175</course>
        <speed>8.3141453131519</speed>
      </trkpt>
      <trkpt lat="43.74923" lon="7.09657">
        <ele>634</ele>
        <time>2012-01-07T10:16:40Z</time>
        <course>104.41081919328</course>
        <speed>8.28695474788774</speed>
      </trkpt>
      <trkpt lat="43.74921" lon="7.09649">
        <ele>634</ele>
        <time>2012-01-07T10:16:41Z</time>
        <course>71.0893068552965</course>
        <speed>8.28786810816382</speed>
      </trkpt>
      <trkpt lat="43.74924" lon="7.0964">
        <ele>633</ele>
        <time>2012-01-07T10:16:42Z</time>
        <course>38.2307723917375</course>
        <speed>8.31760469844374</speed>
      </trkpt>
      <trkpt lat="43.74987" lon="7.09589">
        <ele>632</ele>
        <time>2012-01-07T10:16:52Z</time>
        <course>8.20401761133457</course>
        <speed>8.312317854712</speed>
      </trkpt>
      <trkpt lat="43.75014" lon="7.09585">
        <ele>632</ele>
        <time>2012-01-07T10:16:55Z</time>
        <course>32.9754375564097</course>
        <speed>8.34590225503255</speed>
      </trkpt>
      <trkpt lat="43.75023" lon="7.09579">
        <ele>632</ele>
        <time>2012-01-07T10:16:56Z</time>
        <course>93.0968720816515</course>
        <speed>8.31059577075117</speed>
      </trkpt>
      <trkpt lat="43.75022" lon="7.0956">
        <ele>631</ele>
        <time>2012-01-07T10:16:58Z</time>
        <course>156.13795050835</course>
        <speed>8.30015342352131</speed>
      </trkpt>
      <trkpt lat="43.75011" lon="7.09555">
        <ele>631</ele>
        <time>2012-01-07T10:17:00Z</time>
        <course>209.372087734171</course>
        <speed>8.31812943792964</speed>
      </trkpt>
      <trkpt lat="43.74871" lon="7.09636">
        <ele>629</ele>
        <time>2012-01-07T10:17:20Z</time>
        <course>231.629360902922</course>
        <speed>8.32069682741723</speed>
      </trkpt>
      <trkpt lat="43.74794" lon="7.09736">
        <ele>617</ele>
        <time>2012-01-07T10:17:34Z</time>
        <course>240.002513684705</course>
        <speed>8.31386226537027</speed>
      </trkpt>
      <trkpt lat="43.74762" lon="7.09793">
        <ele>611</ele>
        <time>2012-01-07T10:17:41Z</time>
        <course>234.585950980114</course>
        <speed>8.31789637548038</speed>
      </trkpt>
      <trkpt lat="43.74706" lon="7.09874">
        <ele>603</ele>
        <time>2012-01-07T10:17:52Z</time>
        <course>249.492528016385</course>
        <speed>8.31891854819718</speed>
      </trkpt>
      <trkpt lat="43.74682" lon="7.0994">
        <ele>597</ele>
        <time>2012-01-07T10:17:59Z</time>
        <course>254.217872132287</course>
        <speed>8.31845871934866</speed>
      </trkpt>
      <trkpt lat="43.74643" lon="7.10082">
        <ele>587</ele>
        <time>2012-01-07T10:18:14Z</time>
        <course>245.905745803373</course>
        <speed>8.32007476124143</speed>
      </trkpt>
      <trkpt lat="43.74633" lon="7.10105">
        <ele>586</ele>
        <time>2012-01-07T10:18:16Z</time>
        <course>222.153193706975</course>
        <speed>8.31839963320828</speed>
      </trkpt>
      <trkpt lat="43.74428" lon="7.10296">
        <ele>583</ele>
        <time>2012-01-07T10:18:49Z</time>
        <course>239.662764484711</course>
        <speed>8.3230105229094</speed>
      </trkpt>
      <trkpt lat="43.74399" lon="7.10347">
        <ele>578</ele>
        <time>2012-01-07T10:18:56Z</time>
        <course>227.833779318001</course>
        <speed>8.32346491895518</speed>
      </trkpt>
      <trkpt lat="43.74377" lon="7.10372">
        <ele>575</ele>
        <time>2012-01-07T10:18:59Z</time>
        <course>201.675960997711</course>
        <speed>8.3170327302304</speed>
      </trkpt>
      <trkpt lat="43.74333" lon="7.1039">
        <ele>571</ele>
        <time>2012-01-07T10:19:06Z</time>
        <course>219.350438460823</course>
        <speed>8.31690408948314</speed>
      </trkpt>
      <trkpt lat="43.74256" lon="7.10455">
        <ele>559</ele>
        <time>2012-01-07T10:19:18Z</time>
        <course>204.601113722541</course>
        <speed>8.31697455674282</speed>
      </trkpt>
      <trkpt lat="43.74186" lon="7.10488">
        <ele>546</ele>
        <time>2012-01-07T10:19:28Z</time>
        <course>218.861674311275</course>
        <speed>8.31861836088903</speed>
      </trkpt>
      <trkpt lat="43.74139" lon="7.10527">
        <ele>538</ele>
        <time>2012-01-07T10:19:35Z</time>
        <course>198.712556575206</course>
        <speed>8.32359757588239</speed>
      </trkpt>
      <trkpt lat="43.74096" lon="7.10542">
        <ele>530</ele>
        <time>2012-01-07T10:19:41Z</time>
        <course>180</course>
        <speed>8.31592190888743</speed>
      </trkpt>
      <trkpt lat="43.74027" lon="7.10542">
        <ele>518</ele>
        <time>2012-01-07T10:19:50Z</time>
        <course>189.409625332328</course>
        <speed>8.31603181550104</speed>
      </trkpt>
      <trkpt lat="43.73945" lon="7.10556">
        <ele>511</ele>
        <time>2012-01-07T10:20:01Z</time>
        <course>174.456597827138</course>
        <speed>8.31415258210722</speed>
      </trkpt>
      <trkpt lat="43.73895" lon="7.10551">
        <ele>507</ele>
        <time>2012-01-07T10:20:08Z</time>
        <course>186.269234052474</course>
        <speed>8.32257340034194</speed>
      </trkpt>
      <trkpt lat="43.73842" lon="7.10557">
        <ele>502</ele>
        <time>2012-01-07T10:20:15Z</time>
        <course>155.200887295792</course>
        <speed>8.32299706172732</speed>
      </trkpt>
      <trkpt lat="43.738" lon="7.10537">
        <ele>499</ele>
        <time>2012-01-07T10:20:21Z</time>
        <course>164.506595792693</course>
        <speed>8.3166551890614</speed>
      </trkpt>
      <trkpt lat="43.73758" lon="7.10525">
        <ele>497</ele>
        <time>2012-01-07T10:20:26Z</time>
        <course>181.6838822368</course>
        <speed>8.31709478896263</speed>
      </trkpt>
      <trkpt lat="43.73725" lon="7.10526">
        <ele>496</ele>
        <time>2012-01-07T10:20:31Z</time>
        <course>199.42989206809</course>
        <speed>8.31450034796338</speed>
      </trkpt>
      <trkpt lat="43.73692" lon="7.10538">
        <ele>495</ele>
        <time>2012-01-07T10:20:35Z</time>
        <course>176.036507511107</course>
        <speed>8.33021588978372</speed>
      </trkpt>
      <trkpt lat="43.73678" lon="7.10537">
        <ele>493</ele>
        <time>2012-01-07T10:20:37Z</time>
        <course>160.842517999146</course>
        <speed>8.32289375545703</speed>
      </trkpt>
      <trkpt lat="43.73611" lon="7.10513">
        <ele>484</ele>
        <time>2012-01-07T10:20:47Z</time>
        <course>174.673004277179</course>
        <speed>8.32208066612707</speed>
      </trkpt>
      <trkpt lat="43.73559" lon="7.10508">
        <ele>478</ele>
        <time>2012-01-07T10:20:54Z</time>
        <course>164.811064018652</course>
        <speed>8.32388116044735</speed>
      </trkpt>
      <trkpt lat="43.73509" lon="7.10494">
        <ele>474</ele>
        <time>2012-01-07T10:21:00Z</time>
        <course>183.083211435402</course>
        <speed>8.30610295128719</speed>
      </trkpt>
      <trkpt lat="43.73491" lon="7.10495">
        <ele>472</ele>
        <time>2012-01-07T10:21:03Z</time>
        <course>209.873678002087</course>
        <speed>8.31869025927349</speed>
      </trkpt>
      <trkpt lat="43.7341" lon="7.10543">
        <ele>466</ele>
        <time>2012-01-07T10:21:15Z</time>
        <course>198.158244926132</course>
        <speed>8.31729288908843</speed>
      </trkpt>
      <trkpt lat="43.7328" lon="7.10587">
        <ele>443</ele>
        <time>2012-01-07T10:21:32Z</time>
        <course>209.289238362782</course>
        <speed>8.32209204525376</speed>
      </trkpt>
      <trkpt lat="43.73223" lon="7.1062">
        <ele>438</ele>
        <time>2012-01-07T10:21:41Z</time>
        <course>221.971636942882</course>
        <speed>8.31704951727662</speed>
      </trkpt>
      <trkpt lat="43.73167" lon="7.10672">
        <ele>433</ele>
        <time>2012-01-07T10:21:50Z</time>
        <course>225.182930212443</course>
        <speed>8.31986339876059</speed>
      </trkpt>
      <trkpt lat="43.73015" lon="7.1083">
        <ele>404</ele>
        <time>2012-01-07T10:22:15Z</time>
        <course>256.594188772698</course>
        <speed>8.33295093036607</speed>
      </trkpt>
      <trkpt lat="43.73009" lon="7.10856">
        <ele>404</ele>
        <time>2012-01-07T10:22:18Z</time>
        <course>279.428620559545</course>
        <speed>8.32191766395374</speed>
      </trkpt>
      <trkpt lat="43.73023" lon="7.10943">
        <ele>404</ele>
        <time>2012-01-07T10:22:26Z</time>
        <course>265.949065512202</course>
        <speed>8.31617738546456</speed>
      </trkpt>
      <trkpt lat="43.73018" lon="7.11016">
        <ele>404</ele>
        <time>2012-01-07T10:22:33Z</time>
        <course>277.777657127426</course>
        <speed>8.32223881177766</speed>
      </trkpt>
      <trkpt lat="43.73027" lon="7.11084">
        <ele>402</ele>
        <time>2012-01-07T10:22:40Z</time>
        <course>260.738271799233</course>
        <speed>8.30644661928478</speed>
      </trkpt>
      <trkpt lat="43.73024" lon="7.11103">
        <ele>401</ele>
        <time>2012-01-07T10:22:42Z</time>
        <course>190.961066120531</course>
        <speed>8.31662523620589</speed>
      </trkpt>
      <trkpt lat="43.73014" lon="7.11105">
        <ele>401</ele>
        <time>2012-01-07T10:22:43Z</time>
        <course>135.920856142219</course>
        <speed>8.30879258327045</speed>
      </trkpt>
      <trkpt lat="43.7301" lon="7.11101">
        <ele>401</ele>
        <time>2012-01-07T10:22:44Z</time>
        <course>112.819496190258</course>
        <speed>8.32382067971797</speed>
      </trkpt>
      <trkpt lat="43.72999" lon="7.11074">
        <ele>400</ele>
        <time>2012-01-07T10:22:47Z</time>
        <course>97.5903721785967</course>
        <speed>8.31955730881121</speed>
      </trkpt>
      <trkpt lat="43.72978" lon="7.10911">
        <ele>396</ele>
        <time>2012-01-07T10:23:03Z</time>
        <course>88.1845821315161</course>
        <speed>8.31844157600111</speed>
      </trkpt>
      <trkpt lat="43.7298" lon="7.10846">
        <ele>395</ele>
        <time>2012-01-07T10:23:09Z</time>
        <course>81.3264991253747</course>
        <speed>8.31928412589268</speed>
      </trkpt>
      <trkpt lat="43.73009" lon="7.1065">
        <ele>387</ele>
        <time>2012-01-07T10:23:28Z</time>
        <course>71.0074841482074</course>
        <speed>8.3189323039495</speed>
      </trkpt>
      <trkpt lat="43.73018" lon="7.10623">
        <ele>386</ele>
        <time>2012-01-07T10:23:31Z</time>
        <course>61.0126706315296</course>
        <speed>8.31749177505744</speed>
      </trkpt>
      <trkpt lat="43.7304" lon="7.10582">
        <ele>385</ele>
        <time>2012-01-07T10:23:36Z</time>
        <course>57.613262436191</course>
        <speed>8.31581378252044</speed>
      </trkpt>
      <trkpt lat="43.73091" lon="7.10499">
        <ele>383</ele>
        <time>2012-01-07T10:23:47Z</time>
        <course>52.0272097541997</course>
        <speed>2.81112389505091</speed>
      </trkpt>
      <trkpt lat="43.73122" lon="7.10458">
        <ele>387</ele>
        <time>2012-01-07T10:24:04Z</time>
        <course>38.6332657568383</course>
        <speed>2.81079082518597</speed>
      </trkpt>
      <trkpt lat="43.73162" lon="7.10425">
        <ele>392</ele>
        <time>2012-01-07T10:24:22Z</time>
        <course>23.2986372694398</course>
        <speed>2.81133928417838</speed>
      </trkpt>
      <trkpt lat="43.73234" lon="7.10393">
        <ele>401</ele>
        <time>2012-01-07T10:24:52Z</time>
        <course>40.2931019493232</course>
        <speed>7.35479684781049</speed>
      </trkpt>
      <trkpt lat="43.7325" lon="7.10379">
        <ele>401</ele>
        <time>2012-01-07T10:24:55Z</time>
        <course>87.3157552038439</course>
        <speed>7.3440977805526</speed>
      </trkpt>
      <trkpt lat="43.73251" lon="7.10357">
        <ele>401</ele>
        <time>2012-01-07T10:24:57Z</time>
        <course>117.29541774998</course>
        <speed>7.36915005492515</speed>
      </trkpt>
      <trkpt lat="43.73245" lon="7.10345">
        <ele>401</ele>
        <time>2012-01-07T10:24:59Z</time>
        <course>133.619263840485</course>
        <speed>7.35195188581109</speed>
      </trkpt>
      <trkpt lat="43.73173" lon="7.10267">
        <ele>402</ele>
        <time>2012-01-07T10:25:13Z</time>
        <course>167.159594035667</course>
        <speed>8.33108076258846</speed>
      </trkpt>
      <trkpt lat="43.73156" lon="7.10263">
        <ele>398</ele>
        <time>2012-01-07T10:25:15Z</time>
        <course>183.802515601389</course>
        <speed>8.3197710186648</speed>
      </trkpt>
      <trkpt lat="43.73054" lon="7.1027">
        <ele>381</ele>
        <time>2012-01-07T10:25:29Z</time>
        <course>207.676141101907</course>
        <speed>8.31719847823812</speed>
      </trkpt>
      <trkpt lat="43.72982" lon="7.10309">
        <ele>366</ele>
        <time>2012-01-07T10:25:39Z</time>
        <course>195.053932585563</course>
        <speed>8.32675797232826</speed>
      </trkpt>
      <trkpt lat="43.72964" lon="7.10314">
        <ele>363</ele>
        <time>2012-01-07T10:25:41Z</time>
        <course>180</course>
        <speed>8.31736526946247</speed>
      </trkpt>
      <trkpt lat="43.72839" lon="7.10314">
        <ele>348</ele>
        <time>2012-01-07T10:25:58Z</time>
        <course>207.920439749514</course>
        <speed>8.31678823716267</speed>
      </trkpt>
      <trkpt lat="43.72755" lon="7.1036">
        <ele>335</ele>
        <time>2012-01-07T10:26:10Z</time>
        <course>202.787601416184</course>
        <speed>8.31870286293499</speed>
      </trkpt>
      <trkpt lat="43.72679" lon="7.10393">
        <ele>331</ele>
        <time>2012-01-07T10:26:21Z</time>
        <course>220.880457962864</course>
        <speed>8.32504374256499</speed>
      </trkpt>
      <trkpt lat="43.7266" lon="7.1041">
        <ele>330</ele>
        <time>2012-01-07T10:26:24Z</time>
        <course>209.061437563936</course>
        <speed>8.31587634277051</speed>
      </trkpt>
      <trkpt lat="43.72613" lon="7.10437">
        <ele>327</ele>
        <time>2012-01-07T10:26:31Z</time>
        <course>227.181904435238</course>
        <speed>8.31912323841164</speed>
      </trkpt>
      <trkpt lat="43.72544" lon="7.10514">
        <ele>323</ele>
        <time>2012-01-07T10:26:43Z</time>
        <course>240.888325898668</course>
        <speed>8.31324264300407</speed>
      </trkpt>
      <trkpt lat="43.72509" lon="7.10579">
        <ele>318</ele>
        <time>2012-01-07T10:26:50Z</time>
        <course>260.783138607516</course>
        <speed>8.3150763103659</speed>
      </trkpt>
      <trkpt lat="43.72501" lon="7.1063">
        <ele>315</ele>
        <time>2012-01-07T10:26:55Z</time>
        <course>244.114779123553</course>
        <speed>8.3207396701325</speed>
      </trkpt>
      <trkpt lat="43.72463" lon="7.10711">
        <ele>312</ele>
        <time>2012-01-07T10:27:05Z</time>
        <course>214.632421552216</course>
        <speed>8.33673373208426</speed>
      </trkpt>
      <trkpt lat="43.72456" lon="7.10716">
        <ele>311</ele>
        <time>2012-01-07T10:27:06Z</time>
        <course>302.733521655468</course>
        <speed>8.31755640448525</speed>
      </trkpt>
      <trkpt lat="43.72558" lon="7.1088">
        <ele>305</ele>
        <time>2012-01-07T10:27:27Z</time>
        <course>44.0469445087599</course>
        <speed>3.53043592945161</speed>
      </trkpt>
      <trkpt lat="43.7257" lon="7.10868">
        <ele>306</ele>
        <time>2012-01-07T10:27:31Z</time>
        <course>86.8041233212232</course>
        <speed>3.53016730866084</speed>
      </trkpt>
      <trkpt lat="43.72572" lon="7.10831">
        <ele>308</ele>
        <time>2012-01-07T10:27:40Z</time>
        <course>69.27947737163</course>
        <speed>3.52882908815782</speed>
      </trkpt>
      <trkpt lat="43.72613" lon="7.10719">
        <ele>315</ele>
        <time>2012-01-07T10:28:08Z</time>
        <course>137.498188570601</course>
        <speed>8.30734191710347</speed>
      </trkpt>
      <trkpt lat="43.72594" lon="7.10701">
        <ele>313</ele>
        <time>2012-01-07T10:28:11Z</time>
        <course>232.210220361199</course>
        <speed>8.32603749510893</speed>
      </trkpt>
      <trkpt lat="43.72579" lon="7.10721">
        <ele>312</ele>
        <time>2012-01-07T10:28:14Z</time>
        <course>232.210220361199</course>
        <speed>8.32603749510893</speed>
      </trkpt>
      <trkpt lat="43.72579" lon="7.10721">
        <ele>312</ele>
        <time>2012-01-07T10:28:15Z</time>
        <course>52.2131267582594</course>
        <speed>3.75143990865524</speed>
      </trkpt>
      <trkpt lat="43.72594" lon="7.10701">
        <ele>313</ele>
        <time>2012-01-07T10:28:21Z</time>
        <course>317.495574509203</course>
        <speed>3.75170280127254</speed>
      </trkpt>
      <trkpt lat="43.72613" lon="7.10719">
        <ele>314</ele>
        <time>2012-01-07T10:28:28Z</time>
        <course>55.7881386602979</course>
        <speed>3.75312452201137</speed>
      </trkpt>
      <trkpt lat="43.72663" lon="7.10643">
        <ele>320</ele>
        <time>2012-01-07T10:28:50Z</time>
        <course>67.0814803138809</course>
        <speed>8.31983711472216</speed>
      </trkpt>
      <trkpt lat="43.72672" lon="7.10621">
        <ele>319</ele>
        <time>2012-01-07T10:28:53Z</time>
        <course>90.0023899580062</course>
        <speed>8.30692740822894</speed>
      </trkpt>
      <trkpt lat="43.72672" lon="7.10588">
        <ele>319</ele>
        <time>2012-01-07T10:28:56Z</time>
        <course>113.519722628319</course>
        <speed>8.32922008401442</speed>
      </trkpt>
      <trkpt lat="43.72664" lon="7.10569">
        <ele>319</ele>
        <time>2012-01-07T10:28:58Z</time>
        <course>140.333030006772</course>
        <speed>8.31790457950609</speed>
      </trkpt>
      <trkpt lat="43.7265" lon="7.10557">
        <ele>318</ele>
        <time>2012-01-07T10:29:00Z</time>
        <course>175.744174625448</course>
        <speed>8.31488605575963</speed>
      </trkpt>
      <trkpt lat="43.72624" lon="7.10555">
        <ele>318</ele>
        <time>2012-01-07T10:29:04Z</time>
        <course>216.951006990579</course>
        <speed>8.31993261277511</speed>
      </trkpt>
      <trkpt lat="43.72543" lon="7.10618">
        <ele>317</ele>
        <time>2012-01-07T10:29:16Z</time>
        <course>227.226423931264</course>
        <speed>8.31589554025862</speed>
      </trkpt>
      <trkpt lat="43.72526" lon="7.10637">
        <ele>315</ele>
        <time>2012-01-07T10:29:19Z</time>
        <course>238.686612211084</course>
        <speed>8.31600405281322</speed>
      </trkpt>
      <trkpt lat="43.72496" lon="7.10688">
        <ele>311</ele>
        <time>2012-01-07T10:29:25Z</time>
        <course>214.092584037255</course>
        <speed>8.31578679472979</speed>
      </trkpt>
      <trkpt lat="43.72456" lon="7.10716">
        <ele>308</ele>
        <time>2012-01-07T10:29:31Z</time>
        <course>116.440741984606</course>
        <speed>2.35465453145698</speed>
      </trkpt>
      <trkpt lat="43.72431" lon="7.10664">
        <ele>314</ele>
        <time>2012-01-07T10:29:53Z</time>
        <course>106.380501261311</course>
        <speed>2.35446436995958</speed>
      </trkpt>
      <trkpt lat="43.72406" lon="7.10576">
        <ele>324</ele>
        <time>2012-01-07T10:30:25Z</time>
        <course>114.689168642266</course>
        <speed>8.31837599643954</speed>
      </trkpt>
      <trkpt lat="43.72398" lon="7.10558">
        <ele>323</ele>
        <time>2012-01-07T10:30:27Z</time>
        <course>149.883058568175</course>
        <speed>8.29564890766848</speed>
      </trkpt>
      <trkpt lat="43.72388" lon="7.10552">
        <ele>323</ele>
        <time>2012-01-07T10:30:28Z</time>
        <course>192.711317939563</course>
        <speed>8.32675504297468</speed>
      </trkpt>
      <trkpt lat="43.72358" lon="7.10559">
        <ele>322</ele>
        <time>2012-01-07T10:30:32Z</time>
        <course>217.71652341129</course>
        <speed>8.33471399775779</speed>
      </trkpt>
      <trkpt lat="43.72348" lon="7.10567">
        <ele>322</ele>
        <time>2012-01-07T10:30:34Z</time>
        <course>238.561822471834</course>
        <speed>8.32884516443778</speed>
      </trkpt>
      <trkpt lat="43.72335" lon="7.10589">
        <ele>321</ele>
        <time>2012-01-07T10:30:37Z</time>
        <course>265.066648853675</course>
        <speed>8.32145461543262</speed>
      </trkpt>
      <trkpt lat="43.72328" lon="7.10673">
        <ele>320</ele>
        <time>2012-01-07T10:30:45Z</time>
        <course>250.468119205077</course>
        <speed>8.31802420711573</speed>
      </trkpt>
      <trkpt lat="43.72316" lon="7.10708">
        <ele>318</ele>
        <time>2012-01-07T10:30:49Z</time>
        <course>229.949096153083</course>
        <speed>8.3332206450748</speed>
      </trkpt>
      <trkpt lat="43.72303" lon="7.10724">
        <ele>316</ele>
        <time>2012-01-07T10:30:51Z</time>
        <course>162.141857987797</course>
        <speed>8.29587678195939</speed>
      </trkpt>
      <trkpt lat="43.72294" lon="7.10721">
        <ele>316</ele>
        <time>2012-01-07T10:30:52Z</time>
        <course>220.221578229787</course>
        <speed>8.34748962956909</speed>
      </trkpt>
      <trkpt lat="43.72286" lon="7.10728">
        <ele>315</ele>
        <time>2012-01-07T10:30:53Z</time>
        <course>258.745049861055</course>
        <speed>8.31000502024276</speed>
      </trkpt>
      <trkpt lat="43.72281" lon="7.10754">
        <ele>314</ele>
        <time>2012-01-07T10:30:56Z</time>
        <course>229.75451440126</course>
        <speed>8.31748324734556</speed>
      </trkpt>
      <trkpt lat="43.72151" lon="7.10913">
        <ele>303</ele>
        <time>2012-01-07T10:31:19Z</time>
        <course>242.623479326743</course>
        <speed>8.31939021171955</speed>
      </trkpt>
      <trkpt lat="43.72067" lon="7.11081">
        <ele>300</ele>
        <time>2012-01-07T10:31:39Z</time>
        <course>236.410682748749</course>
        <speed>8.31716882893408</speed>
      </trkpt>
      <trkpt lat="43.71983" lon="7.11212">
        <ele>295</ele>
        <time>2012-01-07T10:31:56Z</time>
        <course>247.494166545298</course>
        <speed>8.31779715708588</speed>
      </trkpt>
      <trkpt lat="43.71949" lon="7.11297">
        <ele>287</ele>
        <time>2012-01-07T10:32:05Z</time>
        <course>239.381286882668</course>
        <speed>8.31711473978328</speed>
      </trkpt>
      <trkpt lat="43.71925" lon="7.11339">
        <ele>284</ele>
        <time>2012-01-07T10:32:10Z</time>
        <course>217.075731588079</course>
        <speed>8.31802286416762</speed>
      </trkpt>
      <trkpt lat="43.71902" lon="7.11357">
        <ele>283</ele>
        <time>2012-01-07T10:32:14Z</time>
        <course>201.913993540876</course>
        <speed>8.31397199895539</speed>
      </trkpt>
      <trkpt lat="43.71878" lon="7.11367">
        <ele>282</ele>
        <time>2012-01-07T10:32:17Z</time>
        <course>182.085948377449</course>
        <speed>8.31552571700866</speed>
      </trkpt>
      <trkpt lat="43.71772" lon="7.11371">
        <ele>279</ele>
        <time>2012-01-07T10:32:31Z</time>
        <course>203.395243814781</course>
        <speed>8.32283802168027</speed>
      </trkpt>
      <trkpt lat="43.71743" lon="7.11384">
        <ele>276</ele>
        <time>2012-01-07T10:32:35Z</time>
        <course>212.276775339033</course>
        <speed>8.3161121699959</speed>
      </trkpt>
      <trkpt lat="43.71688" lon="7.1142">
        <ele>272</ele>
        <time>2012-01-07T10:32:44Z</time>
        <course>224.755410467836</course>
        <speed>8.31933014967653</speed>
      </trkpt>
      <trkpt lat="43.71616" lon="7.11494">
        <ele>259</ele>
        <time>2012-01-07T10:32:56Z</time>
        <course>234.84793336818</course>
        <speed>8.32107294006923</speed>
      </trkpt>
      <trkpt lat="43.7158" lon="7.11547">
        <ele>252</ele>
        <time>2012-01-07T10:33:03Z</time>
        <course>241.526651667647</course>
        <speed>8.31506124077245</speed>
      </trkpt>
      <trkpt lat="43.71546" lon="7.11612">
        <ele>245</ele>
        <time>2012-01-07T10:33:10Z</time>
        <course>228.374493548203</course>
        <speed>8.30590716280442</speed>
      </trkpt>
      <trkpt lat="43.71534" lon="7.11626">
        <ele>243</ele>
        <time>2012-01-07T10:33:12Z</time>
        <course>199.328036601578</course>
        <speed>8.31469580489762</speed>
      </trkpt>
      <trkpt lat="43.71523" lon="7.1163">
        <ele>241</ele>
        <time>2012-01-07T10:33:14Z</time>
        <course>248.040039542717</course>
        <speed>8.33328111672793</speed>
      </trkpt>
      <trkpt lat="43.71516" lon="7.11648">
        <ele>240</ele>
        <time>2012-01-07T10:33:16Z</time>
        <course>291.550306710474</course>
        <speed>8.32559114370869</speed>
      </trkpt>
      <trkpt lat="43.71524" lon="7.11669">
        <ele>237</ele>
        <time>2012-01-07T10:33:18Z</time>
        <course>264.359392857525</course>
        <speed>8.29857801876553</speed>
      </trkpt>
      <trkpt lat="43.71522" lon="7.1169">
        <ele>235</ele>
        <time>2012-01-07T10:33:20Z</time>
        <course>253.92690705754</course>
        <speed>8.31779466267219</speed>
      </trkpt>
      <trkpt lat="43.71497" lon="7.1178">
        <ele>226</ele>
        <time>2012-01-07T10:33:30Z</time>
        <course>236.989696545148</course>
        <speed>8.31590880806416</speed>
      </trkpt>
      <trkpt lat="43.7144" lon="7.11871">
        <ele>210</ele>
        <time>2012-01-07T10:33:41Z</time>
        <course>249.489193787708</course>
        <speed>8.3212402929116</speed>
      </trkpt>
      <trkpt lat="43.71418" lon="7.11932">
        <ele>202</ele>
        <time>2012-01-07T10:33:48Z</time>
        <course>242.377966382896</course>
        <speed>8.31926906259094</speed>
      </trkpt>
      <trkpt lat="43.71295" lon="7.12176">
        <ele>177</ele>
        <time>2012-01-07T10:34:16Z</time>
        <course>248.243419137682</course>
        <speed>8.31468730638301</speed>
      </trkpt>
      <trkpt lat="43.71275" lon="7.12228">
        <ele>175</ele>
        <time>2012-01-07T10:34:22Z</time>
        <course>257.408713279353</course>
        <speed>8.3171318654157</speed>
      </trkpt>
      <trkpt lat="43.71258" lon="7.12307">
        <ele>173</ele>
        <time>2012-01-07T10:34:30Z</time>
        <course>264.835981239464</course>
        <speed>5.0369905419388</speed>
      </trkpt>
      <trkpt lat="43.71248" lon="7.12422">
        <ele>176</ele>
        <time>2012-01-07T10:34:49Z</time>
        <course>247.141763394104</course>
        <speed>5.03992402408686</speed>
      </trkpt>
      <trkpt lat="43.71235" lon="7.12454">
        <ele>177</ele>
        <time>2012-01-07T10:34:54Z</time>
        <course>225.021350472303</course>
        <speed>8.32367735533452</speed>
      </trkpt>
      <trkpt lat="43.71209" lon="7.12481">
        <ele>175</ele>
        <time>2012-01-07T10:34:59Z</time>
        <course>213.302219509745</course>
        <speed>8.31760773601035</speed>
      </trkpt>
      <trkpt lat="43.71143" lon="7.12526">
        <ele>171</ele>
        <time>2012-01-07T10:35:09Z</time>
        <course>219.186393714874</course>
        <speed>8.31424459390519</speed>
      </trkpt>
      <trkpt lat="43.71104" lon="7.12559">
        <ele>169</ele>
        <time>2012-01-07T10:35:15Z</time>
        <course>225.1035538672</course>
        <speed>8.31911778072129</speed>
      </trkpt>
      <trkpt lat="43.7087" lon="7.12803">
        <ele>159</ele>
        <time>2012-01-07T10:35:54Z</time>
        <course>235.624584210922</course>
        <speed>6.15336223701928</speed>
      </trkpt>
      <trkpt lat="43.70843" lon="7.12844">
        <ele>159</ele>
        <time>2012-01-07T10:36:01Z</time>
        <course>243.865286540535</course>
        <speed>6.1569384810948</speed>
      </trkpt>
      <trkpt lat="43.70809" lon="7.12916">
        <ele>161</ele>
        <time>2012-01-07T10:36:12Z</time>
        <course>251.314343088253</course>
        <speed>3.32469218528079</speed>
      </trkpt>
      <trkpt lat="43.70755" lon="7.13082">
        <ele>172</ele>
        <time>2012-01-07T10:36:56Z</time>
        <course>240.25302307594</course>
        <speed>8.3072313182765</speed>
      </trkpt>
      <trkpt lat="43.70744" lon="7.13102">
        <ele>171</ele>
        <time>2012-01-07T10:36:59Z</time>
        <course>226.39473311798</course>
        <speed>8.3243972344827</speed>
      </trkpt>
      <trkpt lat="43.70733" lon="7.13114">
        <ele>170</ele>
        <time>2012-01-07T10:37:01Z</time>
        <course>254.987369724321</course>
        <speed>8.3145809971212</speed>
      </trkpt>
      <trkpt lat="43.70725" lon="7.13145">
        <ele>169</ele>
        <time>2012-01-07T10:37:04Z</time>
        <course>223.898565011278</course>
        <speed>8.31709010316708</speed>
      </trkpt>
      <trkpt lat="43.7069" lon="7.1318">
        <ele>168</ele>
        <time>2012-01-07T10:37:10Z</time>
        <course>210.419872135023</course>
        <speed>4.10334101679159</speed>
      </trkpt>
      <trkpt lat="43.70482" lon="7.13307">
        <ele>181</ele>
        <time>2012-01-07T10:38:11Z</time>
        <course>202.272325769731</course>
        <speed>7.18361911292239</speed>
      </trkpt>
      <trkpt lat="43.70428" lon="7.1333">
        <ele>181</ele>
        <time>2012-01-07T10:38:20Z</time>
        <course>164.639853115106</course>
        <speed>7.17974136987343</speed>
      </trkpt>
      <trkpt lat="43.70372" lon="7.13314">
        <ele>182</ele>
        <time>2012-01-07T10:38:29Z</time>
        <course>138.219660137802</course>
        <speed>4.01245221696026</speed>
      </trkpt>
      <trkpt lat="43.70301" lon="7.13248">
        <ele>187</ele>
        <time>2012-01-07T10:38:52Z</time>
        <course>164.408376328631</course>
        <speed>4.01342567124116</speed>
      </trkpt>
      <trkpt lat="43.7027" lon="7.13239">
        <ele>189</ele>
        <time>2012-01-07T10:39:01Z</time>
        <course>181.834749143234</course>
        <speed>8.31563039438943</speed>
      </trkpt>
      <trkpt lat="43.7021" lon="7.13241">
        <ele>185</ele>
        <time>2012-01-07T10:39:09Z</time>
        <course>160.863737988469</course>
        <speed>8.31869630425535</speed>
      </trkpt>
      <trkpt lat="43.70174" lon="7.13228">
        <ele>184</ele>
        <time>2012-01-07T10:39:14Z</time>
        <course>129.344996396367</course>
        <speed>8.32153956852111</speed>
      </trkpt>
      <trkpt lat="43.70111" lon="7.13148">
        <ele>179</ele>
        <time>2012-01-07T10:39:26Z</time>
        <course>104.587358517371</course>
        <speed>8.34378011337556</speed>
      </trkpt>
      <trkpt lat="43.70107" lon="7.13132">
        <ele>179</ele>
        <time>2012-01-07T10:39:27Z</time>
        <course>169.123878813835</course>
        <speed>8.31670810183924</speed>
      </trkpt>
      <trkpt lat="43.70097" lon="7.1313">
        <ele>177</ele>
        <time>2012-01-07T10:39:29Z</time>
        <course>126.852915922979</course>
        <speed>8.31734175962593</speed>
      </trkpt>
      <trkpt lat="43.70002" lon="7.12998">
        <ele>163</ele>
        <time>2012-01-07T10:39:47Z</time>
        <course>139.959062802125</course>
        <speed>8.31540576343355</speed>
      </trkpt>
      <trkpt lat="43.69986" lon="7.12984">
        <ele>162</ele>
        <time>2012-01-07T10:39:49Z</time>
        <course>163.928504632616</course>
        <speed>8.32993423897985</speed>
      </trkpt>
      <trkpt lat="43.69966" lon="7.12978">
        <ele>161</ele>
        <time>2012-01-07T10:39:52Z</time>
        <course>191.860371714199</course>
        <speed>8.32057247899447</speed>
      </trkpt>
      <trkpt lat="43.6987" lon="7.12999">
        <ele>159</ele>
        <time>2012-01-07T10:40:05Z</time>
        <course>170.523518485426</course>
        <speed>8.31600912489392</speed>
      </trkpt>
      <trkpt lat="43.69778" lon="7.12983">
        <ele>154</ele>
        <time>2012-01-07T10:40:17Z</time>
        <course>193.654296607695</course>
        <speed>6.03402317842428</speed>
      </trkpt>
      <trkpt lat="43.69699" lon="7.13003">
        <ele>155</ele>
        <time>2012-01-07T10:40:32Z</time>
        <course>174.695571712882</course>
        <speed>6.03696094443037</speed>
      </trkpt>
      <trkpt lat="43.69637" lon="7.12997">
        <ele>157</ele>
        <time>2012-01-07T10:40:43Z</time>
        <course>187.147741954807</course>
        <speed>8.31853786173332</speed>
      </trkpt>
      <trkpt lat="43.694" lon="7.13028">
        <ele>154</ele>
        <time>2012-01-07T10:41:15Z</time>
        <course>173.260215982852</course>
        <speed>8.31943578773659</speed>
      </trkpt>
      <trkpt lat="43.69173" lon="7.13">
        <ele>134</ele>
        <time>2012-01-07T10:41:46Z</time>
        <course>191.764479268137</course>
        <speed>4.35545720953356</speed>
      </trkpt>
      <trkpt lat="43.6915" lon="7.13005">
        <ele>135</ele>
        <time>2012-01-07T10:41:52Z</time>
        <course>207.42402345978</course>
        <speed>4.35278895107596</speed>
      </trkpt>
      <trkpt lat="43.69126" lon="7.13018">
        <ele>136</ele>
        <time>2012-01-07T10:41:58Z</time>
        <course>213.873895142797</course>
        <speed>4.35314513120169</speed>
      </trkpt>
      <trkpt lat="43.69029" lon="7.13086">
        <ele>142</ele>
        <time>2012-01-07T10:42:26Z</time>
        <course>200.957726146457</course>
        <speed>8.32191526759148</speed>
      </trkpt>
      <trkpt lat="43.68989" lon="7.13102">
        <ele>138</ele>
        <time>2012-01-07T10:42:32Z</time>
        <course>180</course>
        <speed>8.32176211506481</speed>
      </trkpt>
      <trkpt lat="43.68972" lon="7.13102">
        <ele>137</ele>
        <time>2012-01-07T10:42:34Z</time>
        <course>162.300319594479</course>
        <speed>8.32665360128717</speed>
      </trkpt>
      <trkpt lat="43.68939" lon="7.13091">
        <ele>135</ele>
        <time>2012-01-07T10:42:38Z</time>
        <course>143.266602012724</course>
        <speed>8.31623563425904</speed>
      </trkpt>
      <trkpt lat="43.6888" lon="7.13045">
        <ele>120</ele>
        <time>2012-01-07T10:42:47Z</time>
        <course>153.371978759609</course>
        <speed>8.31767249895105</speed>
      </trkpt>
      <trkpt lat="43.68859" lon="7.13034">
        <ele>116</ele>
        <time>2012-01-07T10:42:50Z</time>
        <course>173.610087614102</course>
        <speed>8.31917174044997</speed>
      </trkpt>
      <trkpt lat="43.68654" lon="7.1301">
        <ele>102</ele>
        <time>2012-01-07T10:43:18Z</time>
        <course>189.057786959133</course>
        <speed>2.08554275076105</speed>
      </trkpt>
      <trkpt lat="43.6863" lon="7.13014">
        <ele>106</ele>
        <time>2012-01-07T10:43:31Z</time>
        <course>159.802765364174</course>
        <speed>2.08538459380441</speed>
      </trkpt>
      <trkpt lat="43.68617" lon="7.13009">
        <ele>108</ele>
        <time>2012-01-07T10:43:38Z</time>
        <course>242.400104142906</course>
        <speed>2.08489702527891</speed>
      </trkpt>
      <trkpt lat="43.6861" lon="7.13023">
        <ele>110</ele>
        <time>2012-01-07T10:43:44Z</time>
        <course>280.762336408572</course>
        <speed>2.08561268157711</speed>
      </trkpt>
      <trkpt lat="43.68612" lon="7.13034">
        <ele>111</ele>
        <time>2012-01-07T10:43:49Z</time>
        <course>252.165861912925</course>
        <speed>2.08684294734934</speed>
      </trkpt>
      <trkpt lat="43.68608" lon="7.13047">
        <ele>113</ele>
        <time>2012-01-07T10:43:54Z</time>
        <course>214.451217451721</course>
        <speed>2.08562336014081</speed>
      </trkpt>
      <trkpt lat="43.68562" lon="7.1308">
        <ele>122</ele>
        <time>2012-01-07T10:44:22Z</time>
        <course>182.737215646185</course>
        <speed>8.31346632088056</speed>
      </trkpt>
      <trkpt lat="43.68522" lon="7.13082">
        <ele>120</ele>
        <time>2012-01-07T10:44:27Z</time>
        <course>171.234282830813</course>
        <speed>8.31671975558898</speed>
      </trkpt>
      <trkpt lat="43.6846" lon="7.13072">
        <ele>119</ele>
        <time>2012-01-07T10:44:36Z</time>
        <course>190.48216863072</course>
        <speed>8.32128691357231</speed>
      </trkpt>
      <trkpt lat="43.68429" lon="7.13078">
        <ele>119</ele>
        <time>2012-01-07T10:44:40Z</time>
        <course>203.357239405925</course>
        <speed>8.3159950168223</speed>
      </trkpt>
      <trkpt lat="43.68325" lon="7.13125">
        <ele>119</ele>
        <time>2012-01-07T10:44:54Z</time>
        <course>212.153779646481</course>
        <speed>8.3204745396216</speed>
      </trkpt>
      <trkpt lat="43.68287" lon="7.1315">
        <ele>117</ele>
        <time>2012-01-07T10:45:00Z</time>
        <course>223.694363867968</course>
        <speed>8.32588593117959</speed>
      </trkpt>
      <trkpt lat="43.6827" lon="7.13167">
        <ele>116</ele>
        <time>2012-01-07T10:45:03Z</time>
        <course>231.159628792618</course>
        <speed>8.31148605980867</speed>
      </trkpt>
      <trkpt lat="43.6825" lon="7.13193">
        <ele>115</ele>
        <time>2012-01-07T10:45:06Z</time>
        <course>240.588925073475</course>
        <speed>8.32238467585016</speed>
      </trkpt>
      <trkpt lat="43.68222" lon="7.13245">
        <ele>113</ele>
        <time>2012-01-07T10:45:13Z</time>
        <course>244.02243664146</course>
        <speed>8.31674486545983</speed>
      </trkpt>
      <trkpt lat="43.68142" lon="7.13417">
        <ele>104</ele>
        <time>2012-01-07T10:45:32Z</time>
        <course>249.187504836891</course>
        <speed>8.32073284647932</speed>
      </trkpt>
      <trkpt lat="43.68101" lon="7.1353">
        <ele>95</ele>
        <time>2012-01-07T10:45:45Z</time>
        <course>240.702386850983</course>
        <speed>6.92270120517472</speed>
      </trkpt>
      <trkpt lat="43.68071" lon="7.13586">
        <ele>95</ele>
        <time>2012-01-07T10:45:53Z</time>
        <course>233.924040027868</course>
        <speed>6.92689565606573</speed>
      </trkpt>
      <trkpt lat="43.67982" lon="7.13714">
        <ele>97</ele>
        <time>2012-01-07T10:46:13Z</time>
        <course>241.951812390409</course>
        <speed>8.31863069938872</speed>
      </trkpt>
      <trkpt lat="43.67921" lon="7.13834">
        <ele>90</ele>
        <time>2012-01-07T10:46:28Z</time>
        <course>234.11140345614</course>
        <speed>8.31910440306512</speed>
      </trkpt>
      <trkpt lat="43.67843" lon="7.13947">
        <ele>87</ele>
        <time>2012-01-07T10:46:43Z</time>
        <course>228.372172870361</course>
        <speed>8.31567615868837</speed>
      </trkpt>
      <trkpt lat="43.67804" lon="7.13993">
        <ele>85</ele>
        <time>2012-01-07T10:46:50Z</time>
        <course>217.540246893899</course>
        <speed>8.3118818373222</speed>
      </trkpt>
      <trkpt lat="43.67768" lon="7.14022">
        <ele>85</ele>
        <time>2012-01-07T10:46:55Z</time>
        <course>208.627298956655</course>
        <speed>6.11305295092244</speed>
      </trkpt>
      <trkpt lat="43.6763" lon="7.14101">
        <ele>88</ele>
        <time>2012-01-07T10:47:22Z</time>
        <course>223.211249351083</course>
        <speed>8.31768588299119</speed>
      </trkpt>
      <trkpt lat="43.67561" lon="7.14169">
        <ele>84</ele>
        <time>2012-01-07T10:47:34Z</time>
        <course>215.560614454573</course>
        <speed>8.31682661333425</speed>
      </trkpt>
      <trkpt lat="43.67521" lon="7.14199">
        <ele>83</ele>
        <time>2012-01-07T10:47:40Z</time>
        <course>203.978953029173</course>
        <speed>8.31765163812046</speed>
      </trkpt>
      <trkpt lat="43.67491" lon="7.14213">
        <ele>79</ele>
        <time>2012-01-07T10:47:44Z</time>
        <course>196.940335995762</course>
        <speed>8.32045690184251</speed>
      </trkpt>
      <trkpt lat="43.67344" lon="7.1426">
        <ele>63</ele>
        <time>2012-01-07T10:48:04Z</time>
        <course>209.363293421989</course>
        <speed>7.51310184614983</speed>
      </trkpt>
      <trkpt lat="43.6719" lon="7.14351">
        <ele>64</ele>
        <time>2012-01-07T10:48:29Z</time>
        <course>194.865189101779</course>
        <speed>8.31982754202935</speed>
      </trkpt>
      <trkpt lat="43.67086" lon="7.1438">
        <ele>53</ele>
        <time>2012-01-07T10:48:43Z</time>
        <course>209.726255412872</course>
        <speed>8.31434126374673</speed>
      </trkpt>
      <trkpt lat="43.67021" lon="7.14419">
        <ele>45</ele>
        <time>2012-01-07T10:48:52Z</time>
        <course>200.836766678904</course>
        <speed>8.32213141664537</speed>
      </trkpt>
      <trkpt lat="43.66961" lon="7.14443">
        <ele>38</ele>
        <time>2012-01-07T10:49:01Z</time>
        <course>180</course>
        <speed>8.32057971010156</speed>
      </trkpt>
      <trkpt lat="43.6693" lon="7.14443">
        <ele>38</ele>
        <time>2012-01-07T10:49:05Z</time>
        <course>161.838353647938</course>
        <speed>8.32383253493166</speed>
      </trkpt>
      <trkpt lat="43.66901" lon="7.14433">
        <ele>38</ele>
        <time>2012-01-07T10:49:09Z</time>
        <course>140.5580526044</course>
        <speed>8.31852576107915</speed>
      </trkpt>
      <trkpt lat="43.66864" lon="7.14401">
        <ele>38</ele>
        <time>2012-01-07T10:49:15Z</time>
        <course>129.686730708297</course>
        <speed>7.2460922505394</speed>
      </trkpt>
      <trkpt lat="43.66685" lon="7.14174">
        <ele>40</ele>
        <time>2012-01-07T10:49:52Z</time>
        <course>80.8086320754835</course>
        <speed>8.34623606697278</speed>
      </trkpt>
      <trkpt lat="43.66687" lon="7.14161">
        <ele>39</ele>
        <time>2012-01-07T10:49:53Z</time>
        <course>106.008222965121</course>
        <speed>8.28895395603276</speed>
      </trkpt>
      <trkpt lat="43.66684" lon="7.1415">
        <ele>39</ele>
        <time>2012-01-07T10:49:54Z</time>
        <course>147.635626824078</course>
        <speed>8.3480908890794</speed>
      </trkpt>
      <trkpt lat="43.66675" lon="7.14144">
        <ele>39</ele>
        <time>2012-01-07T10:49:56Z</time>
        <course>203.368501055056</course>
        <speed>8.3012797949355</speed>
      </trkpt>
      <trkpt lat="43.66664" lon="7.14149">
        <ele>39</ele>
        <time>2012-01-07T10:49:57Z</time>
        <course>242.255316315311</course>
        <speed>8.31606955418581</speed>
      </trkpt>
      <trkpt lat="43.6666" lon="7.14157">
        <ele>39</ele>
        <time>2012-01-07T10:49:58Z</time>
        <course>277.983153710898</course>
        <speed>8.34029505368271</speed>
      </trkpt>
      <trkpt lat="43.66662" lon="7.14172">
        <ele>39</ele>
        <time>2012-01-07T10:50:00Z</time>
        <course>234.954710752215</course>
        <speed>8.31715635043414</speed>
      </trkpt>
      <trkpt lat="43.66648" lon="7.14193">
        <ele>38</ele>
        <time>2012-01-07T10:50:02Z</time>
        <course>259.170349615463</course>
        <speed>8.28812143839472</speed>
      </trkpt>
      <trkpt lat="43.66646" lon="7.14204">
        <ele>38</ele>
        <time>2012-01-07T10:50:04Z</time>
        <course>231.521701901992</course>
        <speed>8.31806695824505</speed>
      </trkpt>
      <trkpt lat="43.66489" lon="7.14412">
        <ele>35</ele>
        <time>2012-01-07T10:50:33Z</time>
        <course>239.36946459678</course>
        <speed>8.31224609847057</speed>
      </trkpt>
      <trkpt lat="43.6648" lon="7.14428">
        <ele>33</ele>
        <time>2012-01-07T10:50:35Z</time>
        <course>253.456834256363</course>
        <speed>8.31846056640728</speed>
      </trkpt>
      <trkpt lat="43.66458" lon="7.14506">
        <ele>28</ele>
        <time>2012-01-07T10:50:43Z</time>
        <course>241.601684697505</course>
        <speed>8.32734073307068</speed>
      </trkpt>
      <trkpt lat="43.66439" lon="7.14543">
        <ele>25</ele>
        <time>2012-01-07T10:50:47Z</time>
        <course>233.563043158375</course>
        <speed>8.3169642795676</speed>
      </trkpt>
      <trkpt lat="43.66364" lon="7.1465">
        <ele>22</ele>
        <time>2012-01-07T10:51:01Z</time>
        <course>241.469528308021</course>
        <speed>8.31838868513802</speed>
      </trkpt>
      <trkpt lat="43.66332" lon="7.14712">
        <ele>20</ele>
        <time>2012-01-07T10:51:09Z</time>
        <course>232.498582786444</course>
        <speed>8.31686993602967</speed>
      </trkpt>
      <trkpt lat="43.66273" lon="7.14793">
        <ele>19</ele>
        <time>2012-01-07T10:51:20Z</time>
        <course>235.687469540573</course>
        <speed>8.31767894465595</speed>
      </trkpt>
      <trkpt lat="43.66205" lon="7.14898">
        <ele>17</ele>
        <time>2012-01-07T10:51:34Z</time>
        <course>227.502804177582</course>
        <speed>8.30728342059475</speed>
      </trkpt>
      <trkpt lat="43.66185" lon="7.14921">
        <ele>17</ele>
        <time>2012-01-07T10:51:37Z</time>
        <course>140.399996202096</course>
        <speed>8.31749212783353</speed>
      </trkpt>
      <trkpt lat="43.66146" lon="7.14887">
        <ele>17</ele>
        <time>2012-01-07T10:51:43Z</time>
        <course>152.797745270732</course>
        <speed>8.326528825544</speed>
      </trkpt>
      <trkpt lat="43.66122" lon="7.14874">
        <ele>17</ele>
        <time>2012-01-07T10:51:47Z</time>
        <course>168.451582604125</course>
        <speed>8.31621809266836</speed>
      </trkpt>
      <trkpt lat="43.66057" lon="7.1486">
        <ele>17</ele>
        <time>2012-01-07T10:51:55Z</time>
        <course>217.195588851664</course>
        <speed>8.33690972861157</speed>
      </trkpt>
      <trkpt lat="43.66047" lon="7.14868">
        <ele>16</ele>
        <time>2012-01-07T10:51:57Z</time>
        <course>243.158895660159</course>
        <speed>8.31675998164052</speed>
      </trkpt>
      <trkpt lat="43.66035" lon="7.14893">
        <ele>15</ele>
        <time>2012-01-07T10:52:00Z</time>
        <course>251.44898504489</course>
        <speed>8.31888955448873</speed>
      </trkpt>
      <trkpt lat="43.66007" lon="7.14981">
        <ele>13</ele>
        <time>2012-01-07T10:52:09Z</time>
        <course>262.168112363635</course>
        <speed>8.31315249026407</speed>
      </trkpt>
      <trkpt lat="43.66004" lon="7.15004">
        <ele>12</ele>
        <time>2012-01-07T10:52:11Z</time>
        <course>282.512233389876</course>
        <speed>8.32859215324169</speed>
      </trkpt>
      <trkpt lat="43.66008" lon="7.15023">
        <ele>12</ele>
        <time>2012-01-07T10:52:13Z</time>
        <course>282.385290517222</course>
        <speed>8.33093269628615</speed>
      </trkpt>
      <trkpt lat="43.66013" lon="7.15047">
        <ele>12</ele>
        <time>2012-01-07T10:52:16Z</time>
        <course>249.366516748804</course>
        <speed>8.31208207123352</speed>
      </trkpt>
      <trkpt lat="43.66008" lon="7.15061">
        <ele>12</ele>
        <time>2012-01-07T10:52:17Z</time>
        <course>199.029755976801</course>
        <speed>8.315191209304</speed>
      </trkpt>
      <trkpt lat="43.65997" lon="7.15065">
        <ele>12</ele>
        <time>2012-01-07T10:52:19Z</time>
        <course>187.823932648988</course>
        <speed>8.31897408678533</speed>
      </trkpt>
      <trkpt lat="43.65549" lon="7.1513">
        <ele>9</ele>
        <time>2012-01-07T10:53:19Z</time>
        <course>180</course>
        <speed>8.31510204088092</speed>
      </trkpt>
      <trkpt lat="43.65505" lon="7.1513">
        <ele>8</ele>
        <time>2012-01-07T10:53:25Z</time>
        <course>287.810499149974</course>
        <speed>8.31728292829869</speed>
      </trkpt>
      <trkpt lat="43.65583" lon="7.15386">
        <ele>5</ele>
        <time>2012-01-07T10:53:52Z</time>
        <course>285.517679765934</course>
        <speed>8.31839006511874</speed>
      </trkpt>
      <trkpt lat="43.65608" lon="7.15481">
        <ele>5</ele>
        <time>2012-01-07T10:54:01Z</time>
        <course>291.991398479907</course>
        <speed>8.31483694269852</speed>
      </trkpt>
      <trkpt lat="43.65639" lon="7.15562">
        <ele>5</ele>
        <time>2012-01-07T10:54:10Z</time>
        <course>236.585104869932</course>
        <speed>8.33241945582296</speed>
      </trkpt>
      <trkpt lat="43.65634" lon="7.1557">
        <ele>5</ele>
        <time>2012-01-07T10:54:11Z</time>
        <course>264.971797494587</course>
        <speed>8.30011566927752</speed>
      </trkpt>
      <trkpt lat="43.65633" lon="7.15582">
        <ele>5</ele>
        <time>2012-01-07T10:54:12Z</time>
        <course>280.54565637632</course>
        <speed>8.32411355789153</speed>
      </trkpt>
      <trkpt lat="43.65645" lon="7.1565">
        <ele>5</ele>
        <time>2012-01-07T10:54:19Z</time>
        <course>244.866337302733</course>
        <speed>8.32518257129956</speed>
      </trkpt>
      <trkpt lat="43.65641" lon="7.15659">
        <ele>5</ele>
        <time>2012-01-07T10:54:20Z</time>
        <course>195.475254027547</course>
        <speed>8.32306002656506</speed>
      </trkpt>
      <trkpt lat="43.65576" lon="7.15678">
        <ele>5</ele>
        <time>2012-01-07T10:54:29Z</time>
        <course>209.594335520099</course>
        <speed>8.31921677405116</speed>
      </trkpt>
      <trkpt lat="43.65421" lon="7.15771">
        <ele>1</ele>
        <time>2012-01-07T10:54:52Z</time>
        <course>292.46822749568</course>
        <speed>7.6233098180587</speed>
      </trkpt>
      <trkpt lat="43.65609" lon="7.1625">
        <ele>3</ele>
        <time>2012-01-07T10:55:49Z</time>
        <course>289.89385624191</course>
        <speed>8.32562186984958</speed>
      </trkpt>
      <trkpt lat="43.65621" lon="7.16285">
        <ele>3</ele>
        <time>2012-01-07T10:55:53Z</time>
        <course>269.998623445245</course>
        <speed>8.31669932977971</speed>
      </trkpt>
      <trkpt lat="43.65621" lon="7.163">
        <ele>3</ele>
        <time>2012-01-07T10:55:54Z</time>
        <course>291.120455833029</course>
        <speed>8.31940353746032</speed>
      </trkpt>
      <trkpt lat="43.65706" lon="7.16532">
        <ele>3</ele>
        <time>2012-01-07T10:56:19Z</time>
        <course>288.953729769249</course>
        <speed>7.30411119075844</speed>
      </trkpt>
      <trkpt lat="43.65734" lon="7.16618">
        <ele>3</ele>
        <time>2012-01-07T10:56:30Z</time>
        <course>285.474723848447</course>
        <speed>7.3095075306398</speed>
      </trkpt>
      <trkpt lat="43.65755" lon="7.16698">
        <ele>4</ele>
        <time>2012-01-07T10:56:39Z</time>
        <course>280.280169212786</course>
        <speed>8.31712515703685</speed>
      </trkpt>
      <trkpt lat="43.65771" lon="7.16791">
        <ele>3</ele>
        <time>2012-01-07T10:56:48Z</time>
        <course>275.617178796895</course>
        <speed>8.31657885135854</speed>
      </trkpt>
      <trkpt lat="43.65778" lon="7.16866">
        <ele>3</ele>
        <time>2012-01-07T10:56:56Z</time>
        <course>269.990865585985</course>
        <speed>8.32222134480349</speed>
      </trkpt>
      <trkpt lat="43.65778" lon="7.16966">
        <ele>2</ele>
        <time>2012-01-07T10:57:05Z</time>
        <course>266.971087301414</course>
        <speed>8.31624898339657</speed>
      </trkpt>
      <trkpt lat="43.65773" lon="7.17066">
        <ele>2</ele>
        <time>2012-01-07T10:57:15Z</time>
        <course>259.481946964133</course>
        <speed>7.12269576496155</speed>
      </trkpt>
      <trkpt lat="43.65757" lon="7.17157">
        <ele>2</ele>
        <time>2012-01-07T10:57:26Z</time>
        <course>249.333009622944</course>
        <speed>7.12543319958551</speed>
      </trkpt>
      <trkpt lat="43.65692" lon="7.17339">
        <ele>4</ele>
        <time>2012-01-07T10:57:49Z</time>
        <course>253.131663177143</course>
        <speed>8.31987692280451</speed>
      </trkpt>
      <trkpt lat="43.65663" lon="7.1744">
        <ele>4</ele>
        <time>2012-01-07T10:57:59Z</time>
        <course>262.555683837518</course>
        <speed>8.31722848932468</speed>
      </trkpt>
      <trkpt lat="43.65642" lon="7.1761">
        <ele>4</ele>
        <time>2012-01-07T10:58:16Z</time>
        <course>271.795396669753</course>
        <speed>8.31664330426493</speed>
      </trkpt>
      <trkpt lat="43.65648" lon="7.1781">
        <ele>2</ele>
        <time>2012-01-07T10:58:35Z</time>
        <course>276.950428094017</course>
        <speed>7.3663307115868</speed>
      </trkpt>
      <trkpt lat="43.6567" lon="7.18">
        <ele>3</ele>
        <time>2012-01-07T10:58:56Z</time>
        <course>281.29983004803</course>
        <speed>7.35101998178592</speed>
      </trkpt>
      <trkpt lat="43.65688" lon="7.18095">
        <ele>3</ele>
        <time>2012-01-07T10:59:07Z</time>
        <course>284.383735738728</course>
        <speed>7.34821627247013</speed>
      </trkpt>
      <trkpt lat="43.65883" lon="7.18893">
        <ele>8</ele>
        <time>2012-01-07T11:00:39Z</time>
        <course>287.340799376867</course>
        <speed>8.31752368201112</speed>
      </trkpt>
      <trkpt lat="43.65923" lon="7.19028">
        <ele>7</ele>
        <time>2012-01-07T11:00:53Z</time>
        <course>294.619314842331</course>
        <speed>7.01754871082796</speed>
      </trkpt>
      <trkpt lat="43.65973" lon="7.19143">
        <ele>8</ele>
        <time>2012-01-07T11:01:08Z</time>
        <course>302.839153972391</course>
        <speed>8.31863922724827</speed>
      </trkpt>
      <trkpt lat="43.66265" lon="7.19619">
        <ele>6</ele>
        <time>2012-01-07T11:02:09Z</time>
        <course>296.509079316858</course>
        <speed>8.31719382439585</speed>
      </trkpt>
      <trkpt lat="43.66301" lon="7.19695">
        <ele>4</ele>
        <time>2012-01-07T11:02:18Z</time>
        <course>292.523803191061</course>
        <speed>8.32104892055166</speed>
      </trkpt>
      <trkpt lat="43.6634" lon="7.19794">
        <ele>2</ele>
        <time>2012-01-07T11:02:28Z</time>
        <course>291.5244738888</course>
        <speed>8.31848953614885</speed>
      </trkpt>
      <trkpt lat="43.66492" lon="7.20199">
        <ele>1</ele>
        <time>2012-01-07T11:03:13Z</time>
        <course>285.509430176276</course>
        <speed>8.31955949120144</speed>
      </trkpt>
      <trkpt lat="43.6653" lon="7.20343">
        <ele>1</ele>
        <time>2012-01-07T11:03:27Z</time>
        <course>277.983747577915</course>
        <speed>7.52547298491995</speed>
      </trkpt>
      <trkpt lat="43.66561" lon="7.20575">
        <ele>2</ele>
        <time>2012-01-07T11:03:53Z</time>
        <course>276.931966852075</course>
        <speed>6.55557620724543</speed>
      </trkpt>
      <trkpt lat="43.66614" lon="7.21031">
        <ele>7</ele>
        <time>2012-01-07T11:04:49Z</time>
        <course>276.996395467319</course>
        <speed>6.24121865713674</speed>
      </trkpt>
      <trkpt lat="43.66692" lon="7.21694">
        <ele>16</ele>
        <time>2012-01-07T11:06:16Z</time>
        <course>282.390023903462</course>
        <speed>8.31702030472836</speed>
      </trkpt>
      <trkpt lat="43.66706" lon="7.21761">
        <ele>16</ele>
        <time>2012-01-07T11:06:22Z</time>
        <course>287.506278715553</course>
        <speed>8.321457033989</speed>
      </trkpt>
      <trkpt lat="43.66727" lon="7.21831">
        <ele>16</ele>
        <time>2012-01-07T11:06:30Z</time>
        <course>292.710777793242</course>
        <speed>8.31999906548318</speed>
      </trkpt>
      <trkpt lat="43.6677" lon="7.21939">
        <ele>14</ele>
        <time>2012-01-07T11:06:42Z</time>
        <course>302.500865447734</course>
        <speed>8.31936899662418</speed>
      </trkpt>
      <trkpt lat="43.66867" lon="7.22099">
        <ele>11</ele>
        <time>2012-01-07T11:07:02Z</time>
        <course>307.905406766295</course>
        <speed>8.31788165593084</speed>
      </trkpt>
      <trkpt lat="43.67195" lon="7.22541">
        <ele>7</ele>
        <time>2012-01-07T11:08:03Z</time>
        <course>315.439270091454</course>
        <speed>8.31964873358356</speed>
      </trkpt>
      <trkpt lat="43.67254" lon="7.22602">
        <ele>6</ele>
        <time>2012-01-07T11:08:13Z</time>
        <course>321.551359363017</course>
        <speed>8.31693672319507</speed>
      </trkpt>
      <trkpt lat="43.67344" lon="7.22677">
        <ele>5</ele>
        <time>2012-01-07T11:08:27Z</time>
        <course>330.434845473314</course>
        <speed>7.55230477383383</speed>
      </trkpt>
      <trkpt lat="43.67507" lon="7.22774">
        <ele>6</ele>
        <time>2012-01-07T11:08:53Z</time>
        <course>331.400853848993</course>
        <speed>8.31802018206586</speed>
      </trkpt>
      <trkpt lat="43.67773" lon="7.22926">
        <ele>4</ele>
        <time>2012-01-07T11:09:31Z</time>
        <course>325.594223628375</course>
        <speed>7.65510489887534</speed>
      </trkpt>
      <trkpt lat="43.67957" lon="7.23058">
        <ele>5</ele>
        <time>2012-01-07T11:10:02Z</time>
        <course>322.191909157006</course>
        <speed>8.31988156877823</speed>
      </trkpt>
      <trkpt lat="43.68069" lon="7.23149">
        <ele>3</ele>
        <time>2012-01-07T11:10:19Z</time>
        <course>316.061989140972</course>
        <speed>8.31840604455555</speed>
      </trkpt>
      <trkpt lat="43.68185" lon="7.23266">
        <ele>2</ele>
        <time>2012-01-07T11:10:38Z</time>
        <course>313.4736149215</course>
        <speed>8.31912851888917</speed>
      </trkpt>
      <trkpt lat="43.68497" lon="7.2361">
        <ele>1</ele>
        <time>2012-01-07T11:11:31Z</time>
        <course>311.933829485056</course>
        <speed>7.63234433468719</speed>
      </trkpt>
      <trkpt lat="43.6865" lon="7.23788">
        <ele>2</ele>
        <time>2012-01-07T11:12:00Z</time>
        <course>306.095473435194</course>
        <speed>8.320946231758</speed>
      </trkpt>
      <trkpt lat="43.6871" lon="7.23874">
        <ele>2</ele>
        <time>2012-01-07T11:12:12Z</time>
        <course>304.273087382921</course>
        <speed>8.31424059046335</speed>
      </trkpt>
      <trkpt lat="43.68755" lon="7.23943">
        <ele>2</ele>
        <time>2012-01-07T11:12:21Z</time>
        <course>299.809323976151</course>
        <speed>8.31859593480333</speed>
      </trkpt>
      <trkpt lat="43.6889" lon="7.24189">
        <ele>1</ele>
        <time>2012-01-07T11:12:51Z</time>
        <course>298.063481378854</course>
        <speed>8.31700823075582</speed>
      </trkpt>
      <trkpt lat="43.68985" lon="7.24375">
        <ele>1</ele>
        <time>2012-01-07T11:13:13Z</time>
        <course>292.503942416109</course>
        <speed>7.13457501107695</speed>
      </trkpt>
      <trkpt lat="43.69037" lon="7.24506">
        <ele>2</ele>
        <time>2012-01-07T11:13:30Z</time>
        <course>290.657964686862</course>
        <speed>7.66285214711942</speed>
      </trkpt>
      <trkpt lat="43.69131" lon="7.24766">
        <ele>3</ele>
        <time>2012-01-07T11:14:00Z</time>
        <course>289.678300627911</course>
        <speed>7.48320257429785</speed>
      </trkpt>
      <trkpt lat="43.69269" lon="7.25168">
        <ele>5</ele>
        <time>2012-01-07T11:14:48Z</time>
        <course>283.142273248001</course>
        <speed>8.318436410376</speed>
      </trkpt>
      <trkpt lat="43.6937" lon="7.25618">
        <ele>4</ele>
        <time>2012-01-07T11:15:33Z</time>
        <course>320.277667817111</course>
        <speed>6.55672361488299</speed>
      </trkpt>
      <trkpt lat="43.69385" lon="7.25631">
        <ele>4</ele>
        <time>2012-01-07T11:15:36Z</time>
        <course>0.989329269582834</course>
        <speed>6.54690969414179</speed>
      </trkpt>
      <trkpt lat="43.70164" lon="7.25617">
        <ele>16</ele>
        <time>2012-01-07T11:17:49Z</time>
        <course>293.280101709383</course>
        <speed>8.31836911539594</speed>
      </trkpt>
      <trkpt lat="43.70277" lon="7.2589">
        <ele>14</ele>
        <time>2012-01-07T11:18:19Z</time>
        <course>294.298359664954</course>
        <speed>8.31907881440318</speed>
      </trkpt>
      <trkpt lat="43.70393" lon="7.26157">
        <ele>14</ele>
        <time>2012-01-07T11:18:49Z</time>
        <course>307.953450424519</course>
        <speed>8.30509531037097</speed>
      </trkpt>
      <trkpt lat="43.70405" lon="7.26173">
        <ele>14</ele>
        <time>2012-01-07T11:18:51Z</time>
        <course>294.320664867225</course>
        <speed>8.31794398107399</speed>
      </trkpt>
      <trkpt lat="43.70455" lon="7.26288">
        <ele>14</ele>
        <time>2012-01-07T11:19:04Z</time>
        <course>65.1973451793608</course>
        <speed>8.32033331771883</speed>
      </trkpt>
      <trkpt lat="43.70463" lon="7.2627">
        <ele>14</ele>
        <time>2012-01-07T11:19:06Z</time>
        <course>92.1290014455958</course>
        <speed>8.30989193628333</speed>
      </trkpt>
      <trkpt lat="43.70462" lon="7.26242">
        <ele>14</ele>
        <time>2012-01-07T11:19:09Z</time>
        <course>114.807207240169</course>
        <speed>8.32033835410816</speed>
      </trkpt>
      <trkpt lat="43.70446" lon="7.26206">
        <ele>14</ele>
        <time>2012-01-07T11:19:13Z</time>
        <course>114.807207240169</course>
        <speed>8.32033835410816</speed>
      </trkpt>
    </trkseg>
  </trk>
</gpx>